<?xml version='1.0' encoding='UTF-8'?><gpx version="1.1" creator="JPX - https://github.com/jenetics/jpx" xmlns="http://www.topografix.com/GPX/1/1"><trk><trkseg><trkpt lat="45.5136693" lon="9.0789973"><ele>143.0</ele><time>2026-04-11T07:51:10.436Z</time></trkpt><trkpt lat="45.5136863" lon="9.0793226"><ele>143.0</ele><time>2026-04-11T07:51:11.437Z</time></trkpt><trkpt lat="45.5136942" lon="9.0797274"><ele>143.0</ele><time>2026-04-11T07:51:12.437Z</time></trkpt><trkpt lat="45.5137163" lon="9.0801147"><ele>143.0</ele><time>2026-04-11T07:51:13.437Z</time></trkpt><trkpt lat="45.5137383" lon="9.0804906"><ele>143.0</ele><time>2026-04-11T07:51:14.436Z</time></trkpt><trkpt lat="45.5137644" lon="9.0808647"><ele>143.0</ele><time>2026-04-11T07:51:15.437Z</time></trkpt><trkpt lat="45.5137837" lon="9.0812374"><ele>143.0</ele><time>2026-04-11T07:51:16.436Z</time></trkpt><trkpt lat="45.5138008" lon="9.0816032"><ele>143.0</ele><time>2026-04-11T07:51:17.437Z</time></trkpt><trkpt lat="45.5138215" lon="9.0819648"><ele>143.0</ele><time>2026-04-11T07:51:18.436Z</time></trkpt><trkpt lat="45.5138396" lon="9.0823292"><ele>143.0</ele><time>2026-04-11T07:51:19.436Z</time></trkpt><trkpt lat="45.5138585" lon="9.082695"><ele>143.0</ele><time>2026-04-11T07:51:20.436Z</time></trkpt><trkpt lat="45.5138751" lon="9.0830594"><ele>143.0</ele><time>2026-04-11T07:51:21.436Z</time></trkpt><trkpt lat="45.5138901" lon="9.0834229"><ele>143.0</ele><time>2026-04-11T07:51:22.436Z</time></trkpt><trkpt lat="45.5139156" lon="9.0838085"><ele>143.0</ele><time>2026-04-11T07:51:23.436Z</time></trkpt><trkpt lat="45.5139467" lon="9.0842113"><ele>143.0</ele><time>2026-04-11T07:51:24.437Z</time></trkpt><trkpt lat="45.5139742" lon="9.0846372"><ele>143.0</ele><time>2026-04-11T07:51:25.437Z</time></trkpt><trkpt lat="45.5140035" lon="9.0850719"><ele>143.0</ele><time>2026-04-11T07:51:26.437Z</time></trkpt><trkpt lat="45.5140203" lon="9.0855056"><ele>143.0</ele><time>2026-04-11T07:51:27.436Z</time></trkpt><trkpt lat="45.5140332" lon="9.0859149"><ele>143.5</ele><time>2026-04-11T07:51:28.436Z</time></trkpt><trkpt lat="45.5140498" lon="9.0863123"><ele>144.0</ele><time>2026-04-11T07:51:29.437Z</time></trkpt><trkpt lat="45.5140624" lon="9.0866968"><ele>144.0</ele><time>2026-04-11T07:51:30.437Z</time></trkpt><trkpt lat="45.5140804" lon="9.087067"><ele>144.0</ele><time>2026-04-11T07:51:31.436Z</time></trkpt><trkpt lat="45.5140922" lon="9.08743"><ele>144.0</ele><time>2026-04-11T07:51:32.436Z</time></trkpt><trkpt lat="45.5141102" lon="9.0877919"><ele>144.0</ele><time>2026-04-11T07:51:33.436Z</time></trkpt><trkpt lat="45.5141219" lon="9.0881617"><ele>143.0</ele><time>2026-04-11T07:51:34.437Z</time></trkpt><trkpt lat="45.5141418" lon="9.0885251"><ele>142.0</ele><time>2026-04-11T07:51:35.437Z</time></trkpt><trkpt lat="45.514155" lon="9.0888806"><ele>141.5</ele><time>2026-04-11T07:51:36.436Z</time></trkpt><trkpt lat="45.5141725" lon="9.0892441"><ele>141.0</ele><time>2026-04-11T07:51:37.436Z</time></trkpt><trkpt lat="45.5141854" lon="9.089609"><ele>140.5</ele><time>2026-04-11T07:51:38.436Z</time></trkpt><trkpt lat="45.5141991" lon="9.089978"><ele>140.0</ele><time>2026-04-11T07:51:39.436Z</time></trkpt><trkpt lat="45.5142157" lon="9.0903513"><ele>140.0</ele><time>2026-04-11T07:51:40.436Z</time></trkpt><trkpt lat="45.5142277" lon="9.0907197"><ele>140.0</ele><time>2026-04-11T07:51:41.436Z</time></trkpt><trkpt lat="45.5142435" lon="9.0910768"><ele>140.5</ele><time>2026-04-11T07:51:42.437Z</time></trkpt><trkpt lat="45.5142607" lon="9.0914306"><ele>141.0</ele><time>2026-04-11T07:51:43.436Z</time></trkpt><trkpt lat="45.5142731" lon="9.0917868"><ele>141.5</ele><time>2026-04-11T07:51:44.436Z</time></trkpt><trkpt lat="45.514287" lon="9.0921443"><ele>142.0</ele><time>2026-04-11T07:51:45.436Z</time></trkpt><trkpt lat="45.5143049" lon="9.092497"><ele>142.5</ele><time>2026-04-11T07:51:46.436Z</time></trkpt><trkpt lat="45.514322" lon="9.0928516"><ele>143.0</ele><time>2026-04-11T07:51:47.437Z</time></trkpt><trkpt lat="45.5143346" lon="9.0932065"><ele>142.5</ele><time>2026-04-11T07:51:48.437Z</time></trkpt><trkpt lat="45.5143541" lon="9.0935651"><ele>142.0</ele><time>2026-04-11T07:51:49.436Z</time></trkpt><trkpt lat="45.5143702" lon="9.0939159"><ele>142.5</ele><time>2026-04-11T07:51:50.437Z</time></trkpt><trkpt lat="45.5143841" lon="9.0942693"><ele>143.0</ele><time>2026-04-11T07:51:51.436Z</time></trkpt><trkpt lat="45.5143994" lon="9.0946239"><ele>144.0</ele><time>2026-04-11T07:51:52.436Z</time></trkpt><trkpt lat="45.5144163" lon="9.0949815"><ele>145.0</ele><time>2026-04-11T07:51:53.437Z</time></trkpt><trkpt lat="45.5144335" lon="9.0953315"><ele>145.0</ele><time>2026-04-11T07:51:54.436Z</time></trkpt><trkpt lat="45.5144507" lon="9.0956858"><ele>145.0</ele><time>2026-04-11T07:51:55.437Z</time></trkpt><trkpt lat="45.5144675" lon="9.0960391"><ele>143.5</ele><time>2026-04-11T07:51:56.436Z</time></trkpt><trkpt lat="45.5144843" lon="9.0963962"><ele>142.0</ele><time>2026-04-11T07:51:57.436Z</time></trkpt><trkpt lat="45.5144996" lon="9.0967499"><ele>142.0</ele><time>2026-04-11T07:51:58.437Z</time></trkpt><trkpt lat="45.5145156" lon="9.0971037"><ele>142.0</ele><time>2026-04-11T07:51:59.436Z</time></trkpt><trkpt lat="45.5145315" lon="9.0974592"><ele>142.0</ele><time>2026-04-11T07:52:00.437Z</time></trkpt><trkpt lat="45.5145415" lon="9.097811"><ele>142.0</ele><time>2026-04-11T07:52:01.436Z</time></trkpt><trkpt lat="45.5145594" lon="9.0981627"><ele>142.5</ele><time>2026-04-11T07:52:02.436Z</time></trkpt><trkpt lat="45.5145752" lon="9.0985176"><ele>143.0</ele><time>2026-04-11T07:52:03.436Z</time></trkpt><trkpt lat="45.5145859" lon="9.0988708"><ele>143.0</ele><time>2026-04-11T07:52:04.437Z</time></trkpt><trkpt lat="45.5145968" lon="9.0992249"><ele>143.0</ele><time>2026-04-11T07:52:05.437Z</time></trkpt><trkpt lat="45.5146143" lon="9.0995775"><ele>142.5</ele><time>2026-04-11T07:52:06.436Z</time></trkpt><trkpt lat="45.5146315" lon="9.0999321"><ele>142.0</ele><time>2026-04-11T07:52:07.437Z</time></trkpt><trkpt lat="45.514648" lon="9.1002864"><ele>142.0</ele><time>2026-04-11T07:52:08.436Z</time></trkpt><trkpt lat="45.5146666" lon="9.1006425"><ele>142.0</ele><time>2026-04-11T07:52:09.436Z</time></trkpt><trkpt lat="45.5146833" lon="9.1009991"><ele>142.0</ele><time>2026-04-11T07:52:10.436Z</time></trkpt><trkpt lat="45.5146967" lon="9.1013529"><ele>142.0</ele><time>2026-04-11T07:52:11.436Z</time></trkpt><trkpt lat="45.514713" lon="9.1017141"><ele>141.5</ele><time>2026-04-11T07:52:12.436Z</time></trkpt><trkpt lat="45.5147283" lon="9.1020724"><ele>141.0</ele><time>2026-04-11T07:52:13.436Z</time></trkpt><trkpt lat="45.5147455" lon="9.1024232"><ele>142.0</ele><time>2026-04-11T07:52:14.437Z</time></trkpt><trkpt lat="45.5147647" lon="9.1027809"><ele>143.0</ele><time>2026-04-11T07:52:15.436Z</time></trkpt><trkpt lat="45.5147787" lon="9.1031356"><ele>143.5</ele><time>2026-04-11T07:52:16.437Z</time></trkpt><trkpt lat="45.5147924" lon="9.1034986"><ele>144.0</ele><time>2026-04-11T07:52:17.437Z</time></trkpt><trkpt lat="45.5148082" lon="9.1038513"><ele>143.0</ele><time>2026-04-11T07:52:18.436Z</time></trkpt><trkpt lat="45.5148244" lon="9.1042117"><ele>142.0</ele><time>2026-04-11T07:52:19.436Z</time></trkpt><trkpt lat="45.5148392" lon="9.1045663"><ele>141.5</ele><time>2026-04-11T07:52:20.436Z</time></trkpt><trkpt lat="45.5148499" lon="9.1049226"><ele>141.0</ele><time>2026-04-11T07:52:21.436Z</time></trkpt><trkpt lat="45.5148675" lon="9.1052809"><ele>141.0</ele><time>2026-04-11T07:52:22.436Z</time></trkpt><trkpt lat="45.514883" lon="9.1056535"><ele>141.0</ele><time>2026-04-11T07:52:23.436Z</time></trkpt><trkpt lat="45.5149023" lon="9.1060312"><ele>140.5</ele><time>2026-04-11T07:52:24.436Z</time></trkpt><trkpt lat="45.5149172" lon="9.1064041"><ele>140.0</ele><time>2026-04-11T07:52:25.437Z</time></trkpt><trkpt lat="45.5149327" lon="9.1067686"><ele>141.0</ele><time>2026-04-11T07:52:26.437Z</time></trkpt><trkpt lat="45.5149467" lon="9.1071169"><ele>142.0</ele><time>2026-04-11T07:52:27.437Z</time></trkpt><trkpt lat="45.514963" lon="9.1074679"><ele>142.0</ele><time>2026-04-11T07:52:28.436Z</time></trkpt><trkpt lat="45.514977" lon="9.1078189"><ele>142.0</ele><time>2026-04-11T07:52:29.436Z</time></trkpt><trkpt lat="45.5149934" lon="9.1081669"><ele>142.0</ele><time>2026-04-11T07:52:30.436Z</time></trkpt><trkpt lat="45.5150136" lon="9.108519"><ele>142.0</ele><time>2026-04-11T07:52:31.437Z</time></trkpt><trkpt lat="45.5150335" lon="9.1088714"><ele>141.5</ele><time>2026-04-11T07:52:32.437Z</time></trkpt><trkpt lat="45.5150515" lon="9.1092216"><ele>141.0</ele><time>2026-04-11T07:52:33.436Z</time></trkpt><trkpt lat="45.5150665" lon="9.1095756"><ele>142.0</ele><time>2026-04-11T07:52:34.437Z</time></trkpt><trkpt lat="45.5150818" lon="9.1099308"><ele>143.0</ele><time>2026-04-11T07:52:35.436Z</time></trkpt><trkpt lat="45.5150984" lon="9.1102814"><ele>143.0</ele><time>2026-04-11T07:52:36.436Z</time></trkpt><trkpt lat="45.515116" lon="9.110632"><ele>143.0</ele><time>2026-04-11T07:52:37.436Z</time></trkpt><trkpt lat="45.5151413" lon="9.1109868"><ele>142.5</ele><time>2026-04-11T07:52:38.436Z</time></trkpt><trkpt lat="45.515163" lon="9.1113405"><ele>142.0</ele><time>2026-04-11T07:52:39.436Z</time></trkpt><trkpt lat="45.5151901" lon="9.111693"><ele>140.0</ele><time>2026-04-11T07:52:40.437Z</time></trkpt><trkpt lat="45.5152097" lon="9.1120498"><ele>138.0</ele><time>2026-04-11T07:52:41.436Z</time></trkpt><trkpt lat="45.5152294" lon="9.1124103"><ele>138.0</ele><time>2026-04-11T07:52:42.436Z</time></trkpt><trkpt lat="45.5152493" lon="9.1127701"><ele>138.0</ele><time>2026-04-11T07:52:43.436Z</time></trkpt><trkpt lat="45.5152604" lon="9.1131346"><ele>137.5</ele><time>2026-04-11T07:52:44.436Z</time></trkpt><trkpt lat="45.5152809" lon="9.1135368"><ele>137.0</ele><time>2026-04-11T07:52:45.436Z</time></trkpt><trkpt lat="45.5153122" lon="9.1139434"><ele>137.5</ele><time>2026-04-11T07:52:46.436Z</time></trkpt><trkpt lat="45.5153336" lon="9.114343"><ele>138.0</ele><time>2026-04-11T07:52:47.437Z</time></trkpt><trkpt lat="45.515353" lon="9.1147232"><ele>138.0</ele><time>2026-04-11T07:52:48.437Z</time></trkpt><trkpt lat="45.5153672" lon="9.1150932"><ele>138.0</ele><time>2026-04-11T07:52:49.437Z</time></trkpt><trkpt lat="45.5153864" lon="9.1154656"><ele>137.0</ele><time>2026-04-11T07:52:50.437Z</time></trkpt><trkpt lat="45.5154066" lon="9.1158244"><ele>136.0</ele><time>2026-04-11T07:52:51.436Z</time></trkpt><trkpt lat="45.5154282" lon="9.1161698"><ele>136.0</ele><time>2026-04-11T07:52:52.436Z</time></trkpt><trkpt lat="45.5154459" lon="9.1165134"><ele>136.0</ele><time>2026-04-11T07:52:53.436Z</time></trkpt><trkpt lat="45.5154609" lon="9.1168585"><ele>136.0</ele><time>2026-04-11T07:52:54.436Z</time></trkpt><trkpt lat="45.515472" lon="9.1171894"><ele>136.0</ele><time>2026-04-11T07:52:55.436Z</time></trkpt><trkpt lat="45.5154833" lon="9.1175088"><ele>136.33333333333334</ele><time>2026-04-11T07:52:56.436Z</time></trkpt><trkpt lat="45.5154994" lon="9.1178323"><ele>136.66666666666666</ele><time>2026-04-11T07:52:57.436Z</time></trkpt><trkpt lat="45.5155156" lon="9.1181415"><ele>137.0</ele><time>2026-04-11T07:52:58.436Z</time></trkpt><trkpt lat="45.515529" lon="9.1184548"><ele>137.0</ele><time>2026-04-11T07:52:59.436Z</time></trkpt><trkpt lat="45.5155437" lon="9.1187679"><ele>137.0</ele><time>2026-04-11T07:53:00.436Z</time></trkpt><trkpt lat="45.5155559" lon="9.1190806"><ele>137.0</ele><time>2026-04-11T07:53:01.437Z</time></trkpt><trkpt lat="45.5155667" lon="9.1193931"><ele>138.0</ele><time>2026-04-11T07:53:02.437Z</time></trkpt><trkpt lat="45.5155791" lon="9.1196974"><ele>139.0</ele><time>2026-04-11T07:53:03.436Z</time></trkpt><trkpt lat="45.5155949" lon="9.1199933"><ele>140.0</ele><time>2026-04-11T07:53:04.436Z</time></trkpt><trkpt lat="45.5156235" lon="9.1202819"><ele>140.0</ele><time>2026-04-11T07:53:05.436Z</time></trkpt><trkpt lat="45.5156614" lon="9.1205754"><ele>140.0</ele><time>2026-04-11T07:53:06.436Z</time></trkpt><trkpt lat="45.5157124" lon="9.1208747"><ele>140.0</ele><time>2026-04-11T07:53:07.437Z</time></trkpt><trkpt lat="45.5157792" lon="9.1211763"><ele>139.66666666666666</ele><time>2026-04-11T07:53:08.436Z</time></trkpt><trkpt lat="45.5158597" lon="9.1214743"><ele>139.33333333333334</ele><time>2026-04-11T07:53:09.436Z</time></trkpt><trkpt lat="45.5159465" lon="9.1217706"><ele>139.0</ele><time>2026-04-11T07:53:10.436Z</time></trkpt><trkpt lat="45.5160518" lon="9.1220707"><ele>139.0</ele><time>2026-04-11T07:53:11.437Z</time></trkpt><trkpt lat="45.5161601" lon="9.1223584"><ele>139.0</ele><time>2026-04-11T07:53:12.436Z</time></trkpt><trkpt lat="45.5162788" lon="9.1226458"><ele>139.0</ele><time>2026-04-11T07:53:13.436Z</time></trkpt><trkpt lat="45.5164052" lon="9.1229276"><ele>139.0</ele><time>2026-04-11T07:53:14.436Z</time></trkpt><trkpt lat="45.5165322" lon="9.1232032"><ele>138.5</ele><time>2026-04-11T07:53:15.436Z</time></trkpt><trkpt lat="45.5166728" lon="9.1234744"><ele>138.0</ele><time>2026-04-11T07:53:16.436Z</time></trkpt><trkpt lat="45.5168216" lon="9.1237443"><ele>138.0</ele><time>2026-04-11T07:53:17.436Z</time></trkpt><trkpt lat="45.5169814" lon="9.1240072"><ele>138.0</ele><time>2026-04-11T07:53:18.436Z</time></trkpt><trkpt lat="45.5171555" lon="9.1242624"><ele>138.5</ele><time>2026-04-11T07:53:19.436Z</time></trkpt><trkpt lat="45.5173195" lon="9.1245201"><ele>139.0</ele><time>2026-04-11T07:53:20.436Z</time></trkpt><trkpt lat="45.5174846" lon="9.1247655"><ele>139.0</ele><time>2026-04-11T07:53:21.436Z</time></trkpt><trkpt lat="45.5176546" lon="9.1250233"><ele>139.0</ele><time>2026-04-11T07:53:22.437Z</time></trkpt><trkpt lat="45.5178276" lon="9.1252836"><ele>140.0</ele><time>2026-04-11T07:53:23.437Z</time></trkpt><trkpt lat="45.5180131" lon="9.125552"><ele>141.0</ele><time>2026-04-11T07:53:24.436Z</time></trkpt><trkpt lat="45.5181923" lon="9.1258346"><ele>141.0</ele><time>2026-04-11T07:53:25.437Z</time></trkpt><trkpt lat="45.5183738" lon="9.1261161"><ele>141.0</ele><time>2026-04-11T07:53:26.436Z</time></trkpt><trkpt lat="45.5185491" lon="9.1263921"><ele>141.5</ele><time>2026-04-11T07:53:27.436Z</time></trkpt><trkpt lat="45.5187156" lon="9.1266823"><ele>142.0</ele><time>2026-04-11T07:53:28.436Z</time></trkpt><trkpt lat="45.5188725" lon="9.126971"><ele>142.0</ele><time>2026-04-11T07:53:29.437Z</time></trkpt><trkpt lat="45.5190243" lon="9.1272659"><ele>142.0</ele><time>2026-04-11T07:53:30.437Z</time></trkpt><trkpt lat="45.519171" lon="9.1275612"><ele>141.5</ele><time>2026-04-11T07:53:31.436Z</time></trkpt><trkpt lat="45.5193178" lon="9.1278601"><ele>141.0</ele><time>2026-04-11T07:53:32.437Z</time></trkpt><trkpt lat="45.5194641" lon="9.1281587"><ele>140.0</ele><time>2026-04-11T07:53:33.436Z</time></trkpt><trkpt lat="45.519612" lon="9.1284603"><ele>139.0</ele><time>2026-04-11T07:53:34.437Z</time></trkpt><trkpt lat="45.5197572" lon="9.1287681"><ele>139.5</ele><time>2026-04-11T07:53:35.437Z</time></trkpt><trkpt lat="45.5198992" lon="9.1290751"><ele>140.0</ele><time>2026-04-11T07:53:36.437Z</time></trkpt><trkpt lat="45.5200379" lon="9.1293808"><ele>140.0</ele><time>2026-04-11T07:53:37.437Z</time></trkpt><trkpt lat="45.5201783" lon="9.1296782"><ele>140.0</ele><time>2026-04-11T07:53:38.436Z</time></trkpt><trkpt lat="45.5203165" lon="9.1299625"><ele>140.5</ele><time>2026-04-11T07:53:39.436Z</time></trkpt><trkpt lat="45.5204579" lon="9.130247"><ele>141.0</ele><time>2026-04-11T07:53:40.436Z</time></trkpt><trkpt lat="45.5205969" lon="9.1305354"><ele>141.5</ele><time>2026-04-11T07:53:41.437Z</time></trkpt><trkpt lat="45.5207361" lon="9.1308209"><ele>142.0</ele><time>2026-04-11T07:53:42.436Z</time></trkpt><trkpt lat="45.5208771" lon="9.1311066"><ele>142.0</ele><time>2026-04-11T07:53:43.437Z</time></trkpt><trkpt lat="45.5210151" lon="9.1313932"><ele>142.0</ele><time>2026-04-11T07:53:44.436Z</time></trkpt><trkpt lat="45.521148" lon="9.1316797"><ele>141.0</ele><time>2026-04-11T07:53:45.436Z</time></trkpt><trkpt lat="45.5212843" lon="9.1319581"><ele>140.0</ele><time>2026-04-11T07:53:46.436Z</time></trkpt><trkpt lat="45.5214234" lon="9.1322387"><ele>140.0</ele><time>2026-04-11T07:53:47.436Z</time></trkpt><trkpt lat="45.5215576" lon="9.1325157"><ele>140.0</ele><time>2026-04-11T07:53:48.436Z</time></trkpt><trkpt lat="45.5216943" lon="9.1327929"><ele>140.0</ele><time>2026-04-11T07:53:49.436Z</time></trkpt><trkpt lat="45.5218337" lon="9.133071"><ele>140.0</ele><time>2026-04-11T07:53:50.436Z</time></trkpt><trkpt lat="45.521978" lon="9.1333616"><ele>140.0</ele><time>2026-04-11T07:53:51.436Z</time></trkpt><trkpt lat="45.5221296" lon="9.1336743"><ele>140.0</ele><time>2026-04-11T07:53:52.436Z</time></trkpt><trkpt lat="45.5222887" lon="9.1340004"><ele>141.5</ele><time>2026-04-11T07:53:53.437Z</time></trkpt><trkpt lat="45.5224451" lon="9.1343208"><ele>143.0</ele><time>2026-04-11T07:53:54.436Z</time></trkpt><trkpt lat="45.5226013" lon="9.1346494"><ele>141.5</ele><time>2026-04-11T07:53:55.436Z</time></trkpt><trkpt lat="45.5227513" lon="9.134948"><ele>140.0</ele><time>2026-04-11T07:53:56.436Z</time></trkpt><trkpt lat="45.5228932" lon="9.135238"><ele>141.0</ele><time>2026-04-11T07:53:57.436Z</time></trkpt><trkpt lat="45.5230335" lon="9.1355297"><ele>142.0</ele><time>2026-04-11T07:53:58.436Z</time></trkpt><trkpt lat="45.5231738" lon="9.1358266"><ele>142.0</ele><time>2026-04-11T07:53:59.436Z</time></trkpt><trkpt lat="45.5233123" lon="9.1361178"><ele>142.0</ele><time>2026-04-11T07:54:00.436Z</time></trkpt><trkpt lat="45.5234522" lon="9.136412"><ele>142.0</ele><time>2026-04-11T07:54:01.436Z</time></trkpt><trkpt lat="45.5235922" lon="9.1367065"><ele>142.0</ele><time>2026-04-11T07:54:02.437Z</time></trkpt><trkpt lat="45.5237324" lon="9.1370037"><ele>142.0</ele><time>2026-04-11T07:54:03.436Z</time></trkpt><trkpt lat="45.5238722" lon="9.1372922"><ele>142.0</ele><time>2026-04-11T07:54:04.437Z</time></trkpt><trkpt lat="45.5240149" lon="9.1375782"><ele>142.0</ele><time>2026-04-11T07:54:05.436Z</time></trkpt><trkpt lat="45.5241491" lon="9.1378647"><ele>142.0</ele><time>2026-04-11T07:54:06.437Z</time></trkpt><trkpt lat="45.5242869" lon="9.1381413"><ele>142.0</ele><time>2026-04-11T07:54:07.436Z</time></trkpt><trkpt lat="45.5244177" lon="9.1384119"><ele>142.0</ele><time>2026-04-11T07:54:08.437Z</time></trkpt><trkpt lat="45.5245441" lon="9.1386798"><ele>142.5</ele><time>2026-04-11T07:54:09.436Z</time></trkpt><trkpt lat="45.5246735" lon="9.1389412"><ele>143.0</ele><time>2026-04-11T07:54:10.436Z</time></trkpt><trkpt lat="45.5248015" lon="9.1392086"><ele>143.0</ele><time>2026-04-11T07:54:11.436Z</time></trkpt><trkpt lat="45.5249287" lon="9.1394719"><ele>143.0</ele><time>2026-04-11T07:54:12.436Z</time></trkpt><trkpt lat="45.5250583" lon="9.139739"><ele>143.5</ele><time>2026-04-11T07:54:13.436Z</time></trkpt><trkpt lat="45.5251907" lon="9.14001"><ele>144.0</ele><time>2026-04-11T07:54:14.437Z</time></trkpt><trkpt lat="45.5253241" lon="9.1402863"><ele>144.5</ele><time>2026-04-11T07:54:15.436Z</time></trkpt><trkpt lat="45.5254594" lon="9.1405683"><ele>145.0</ele><time>2026-04-11T07:54:16.436Z</time></trkpt><trkpt lat="45.5255953" lon="9.1408476"><ele>146.0</ele><time>2026-04-11T07:54:17.436Z</time></trkpt><trkpt lat="45.5257351" lon="9.1411293"><ele>147.0</ele><time>2026-04-11T07:54:18.436Z</time></trkpt><trkpt lat="45.5258736" lon="9.1414173"><ele>145.0</ele><time>2026-04-11T07:54:19.437Z</time></trkpt><trkpt lat="45.5260184" lon="9.1417068"><ele>143.0</ele><time>2026-04-11T07:54:20.437Z</time></trkpt><trkpt lat="45.5261592" lon="9.1420017"><ele>143.5</ele><time>2026-04-11T07:54:21.436Z</time></trkpt><trkpt lat="45.5263007" lon="9.1423009"><ele>144.0</ele><time>2026-04-11T07:54:22.437Z</time></trkpt><trkpt lat="45.5264416" lon="9.1425933"><ele>144.0</ele><time>2026-04-11T07:54:23.437Z</time></trkpt><trkpt lat="45.5265934" lon="9.1428851"><ele>144.0</ele><time>2026-04-11T07:54:24.436Z</time></trkpt><trkpt lat="45.5267537" lon="9.1431977"><ele>143.5</ele><time>2026-04-11T07:54:25.437Z</time></trkpt><trkpt lat="45.5269236" lon="9.1435432"><ele>143.0</ele><time>2026-04-11T07:54:26.436Z</time></trkpt><trkpt lat="45.5270902" lon="9.1439034"><ele>143.0</ele><time>2026-04-11T07:54:27.437Z</time></trkpt><trkpt lat="45.5272631" lon="9.1442813"><ele>143.0</ele><time>2026-04-11T07:54:28.437Z</time></trkpt><trkpt lat="45.5274473" lon="9.1446557"><ele>142.0</ele><time>2026-04-11T07:54:29.437Z</time></trkpt><trkpt lat="45.5276208" lon="9.1450104"><ele>141.0</ele><time>2026-04-11T07:54:30.436Z</time></trkpt><trkpt lat="45.5277856" lon="9.1453485"><ele>142.0</ele><time>2026-04-11T07:54:31.436Z</time></trkpt><trkpt lat="45.5279364" lon="9.1456776"><ele>143.0</ele><time>2026-04-11T07:54:32.437Z</time></trkpt><trkpt lat="45.5280821" lon="9.1459869"><ele>143.0</ele><time>2026-04-11T07:54:33.436Z</time></trkpt><trkpt lat="45.5282186" lon="9.1462906"><ele>143.0</ele><time>2026-04-11T07:54:34.436Z</time></trkpt><trkpt lat="45.5283523" lon="9.146586"><ele>143.0</ele><time>2026-04-11T07:54:35.436Z</time></trkpt><trkpt lat="45.5284836" lon="9.1468855"><ele>143.0</ele><time>2026-04-11T07:54:36.436Z</time></trkpt><trkpt lat="45.5286216" lon="9.1471739"><ele>143.0</ele><time>2026-04-11T07:54:37.436Z</time></trkpt><trkpt lat="45.5287577" lon="9.1474793"><ele>143.0</ele><time>2026-04-11T07:54:38.436Z</time></trkpt><trkpt lat="45.5288972" lon="9.1477669"><ele>143.0</ele><time>2026-04-11T07:54:39.436Z</time></trkpt><trkpt lat="45.5290473" lon="9.148045"><ele>143.0</ele><time>2026-04-11T07:54:40.436Z</time></trkpt><trkpt lat="45.529195" lon="9.1483352"><ele>143.0</ele><time>2026-04-11T07:54:41.436Z</time></trkpt><trkpt lat="45.5293356" lon="9.1486245"><ele>143.0</ele><time>2026-04-11T07:54:42.437Z</time></trkpt><trkpt lat="45.529479" lon="9.148918"><ele>143.5</ele><time>2026-04-11T07:54:43.436Z</time></trkpt><trkpt lat="45.529625" lon="9.1492122"><ele>144.0</ele><time>2026-04-11T07:54:44.437Z</time></trkpt><trkpt lat="45.5297704" lon="9.1495016"><ele>144.0</ele><time>2026-04-11T07:54:45.436Z</time></trkpt><trkpt lat="45.5299131" lon="9.1497892"><ele>144.0</ele><time>2026-04-11T07:54:46.437Z</time></trkpt><trkpt lat="45.5300566" lon="9.15008"><ele>143.5</ele><time>2026-04-11T07:54:47.437Z</time></trkpt><trkpt lat="45.5302001" lon="9.1503742"><ele>143.0</ele><time>2026-04-11T07:54:48.436Z</time></trkpt><trkpt lat="45.5303412" lon="9.1506632"><ele>144.0</ele><time>2026-04-11T07:54:49.437Z</time></trkpt><trkpt lat="45.5304844" lon="9.1509476"><ele>145.0</ele><time>2026-04-11T07:54:50.436Z</time></trkpt><trkpt lat="45.5306315" lon="9.1512397"><ele>145.0</ele><time>2026-04-11T07:54:51.436Z</time></trkpt><trkpt lat="45.5307765" lon="9.1515249"><ele>145.0</ele><time>2026-04-11T07:54:52.436Z</time></trkpt><trkpt lat="45.5309199" lon="9.1518167"><ele>145.0</ele><time>2026-04-11T07:54:53.436Z</time></trkpt><trkpt lat="45.5310607" lon="9.152108"><ele>145.0</ele><time>2026-04-11T07:54:54.436Z</time></trkpt><trkpt lat="45.5312016" lon="9.1524042"><ele>145.0</ele><time>2026-04-11T07:54:55.437Z</time></trkpt><trkpt lat="45.5313418" lon="9.1526953"><ele>145.0</ele><time>2026-04-11T07:54:56.437Z</time></trkpt><trkpt lat="45.5314803" lon="9.1529919"><ele>144.5</ele><time>2026-04-11T07:54:57.436Z</time></trkpt><trkpt lat="45.5316194" lon="9.1532901"><ele>144.0</ele><time>2026-04-11T07:54:58.436Z</time></trkpt><trkpt lat="45.5317593" lon="9.1535889"><ele>144.0</ele><time>2026-04-11T07:54:59.437Z</time></trkpt><trkpt lat="45.5318965" lon="9.1538734"><ele>144.0</ele><time>2026-04-11T07:55:00.437Z</time></trkpt><trkpt lat="45.5320419" lon="9.1541515"><ele>145.5</ele><time>2026-04-11T07:55:01.437Z</time></trkpt><trkpt lat="45.5321783" lon="9.1544389"><ele>147.0</ele><time>2026-04-11T07:55:02.436Z</time></trkpt><trkpt lat="45.5323113" lon="9.1547177"><ele>147.5</ele><time>2026-04-11T07:55:03.437Z</time></trkpt><trkpt lat="45.5324526" lon="9.1550111"><ele>148.0</ele><time>2026-04-11T07:55:04.437Z</time></trkpt><trkpt lat="45.5325984" lon="9.1553175"><ele>148.0</ele><time>2026-04-11T07:55:05.437Z</time></trkpt><trkpt lat="45.5327501" lon="9.155637"><ele>148.0</ele><time>2026-04-11T07:55:06.436Z</time></trkpt><trkpt lat="45.5329074" lon="9.1559687"><ele>147.5</ele><time>2026-04-11T07:55:07.436Z</time></trkpt><trkpt lat="45.5330654" lon="9.1563044"><ele>147.0</ele><time>2026-04-11T07:55:08.436Z</time></trkpt><trkpt lat="45.5332238" lon="9.1566406"><ele>146.0</ele><time>2026-04-11T07:55:09.436Z</time></trkpt><trkpt lat="45.5333844" lon="9.1569643"><ele>145.0</ele><time>2026-04-11T07:55:10.436Z</time></trkpt><trkpt lat="45.5335446" lon="9.1572919"><ele>146.0</ele><time>2026-04-11T07:55:11.436Z</time></trkpt><trkpt lat="45.5337052" lon="9.1576229"><ele>147.0</ele><time>2026-04-11T07:55:12.436Z</time></trkpt><trkpt lat="45.5338676" lon="9.1579575"><ele>146.5</ele><time>2026-04-11T07:55:13.436Z</time></trkpt><trkpt lat="45.5340264" lon="9.1582883"><ele>146.0</ele><time>2026-04-11T07:55:14.436Z</time></trkpt><trkpt lat="45.5341826" lon="9.1586177"><ele>146.0</ele><time>2026-04-11T07:55:15.436Z</time></trkpt><trkpt lat="45.5343314" lon="9.1589337"><ele>146.0</ele><time>2026-04-11T07:55:16.436Z</time></trkpt><trkpt lat="45.5344824" lon="9.1592233"><ele>147.0</ele><time>2026-04-11T07:55:17.436Z</time></trkpt><trkpt lat="45.5346347" lon="9.15951"><ele>148.0</ele><time>2026-04-11T07:55:18.436Z</time></trkpt><trkpt lat="45.5347731" lon="9.1598028"><ele>148.0</ele><time>2026-04-11T07:55:19.436Z</time></trkpt><trkpt lat="45.5349159" lon="9.1601048"><ele>148.0</ele><time>2026-04-11T07:55:20.437Z</time></trkpt><trkpt lat="45.535059" lon="9.1604113"><ele>147.5</ele><time>2026-04-11T07:55:21.436Z</time></trkpt><trkpt lat="45.5351989" lon="9.1607197"><ele>147.0</ele><time>2026-04-11T07:55:22.436Z</time></trkpt><trkpt lat="45.5353403" lon="9.1610157"><ele>146.5</ele><time>2026-04-11T07:55:23.436Z</time></trkpt><trkpt lat="45.5354827" lon="9.1613119"><ele>146.0</ele><time>2026-04-11T07:55:24.436Z</time></trkpt><trkpt lat="45.5356217" lon="9.1616106"><ele>146.0</ele><time>2026-04-11T07:55:25.436Z</time></trkpt><trkpt lat="45.5357662" lon="9.1619105"><ele>146.0</ele><time>2026-04-11T07:55:26.436Z</time></trkpt><trkpt lat="45.5359109" lon="9.1622159"><ele>147.0</ele><time>2026-04-11T07:55:27.436Z</time></trkpt><trkpt lat="45.5360597" lon="9.1625209"><ele>148.0</ele><time>2026-04-11T07:55:28.436Z</time></trkpt><trkpt lat="45.5362091" lon="9.162821"><ele>147.5</ele><time>2026-04-11T07:55:29.437Z</time></trkpt><trkpt lat="45.5363582" lon="9.1631302"><ele>147.0</ele><time>2026-04-11T07:55:30.436Z</time></trkpt><trkpt lat="45.53651" lon="9.1634472"><ele>147.0</ele><time>2026-04-11T07:55:31.436Z</time></trkpt><trkpt lat="45.536663" lon="9.1637669"><ele>147.0</ele><time>2026-04-11T07:55:32.437Z</time></trkpt><trkpt lat="45.5368166" lon="9.1640844"><ele>146.5</ele><time>2026-04-11T07:55:33.436Z</time></trkpt><trkpt lat="45.5369668" lon="9.1644013"><ele>146.0</ele><time>2026-04-11T07:55:34.436Z</time></trkpt><trkpt lat="45.5371184" lon="9.164721"><ele>146.5</ele><time>2026-04-11T07:55:35.437Z</time></trkpt><trkpt lat="45.5372715" lon="9.1650413"><ele>147.0</ele><time>2026-04-11T07:55:36.437Z</time></trkpt><trkpt lat="45.5374253" lon="9.1653504"><ele>147.0</ele><time>2026-04-11T07:55:37.436Z</time></trkpt><trkpt lat="45.5375792" lon="9.1656629"><ele>147.0</ele><time>2026-04-11T07:55:38.436Z</time></trkpt><trkpt lat="45.537731" lon="9.1659677"><ele>146.5</ele><time>2026-04-11T07:55:39.437Z</time></trkpt><trkpt lat="45.5378734" lon="9.1662761"><ele>146.0</ele><time>2026-04-11T07:55:40.436Z</time></trkpt><trkpt lat="45.5380144" lon="9.1665848"><ele>148.0</ele><time>2026-04-11T07:55:41.436Z</time></trkpt><trkpt lat="45.5381603" lon="9.1668905"><ele>150.0</ele><time>2026-04-11T07:55:42.436Z</time></trkpt><trkpt lat="45.5383061" lon="9.1671992"><ele>150.5</ele><time>2026-04-11T07:55:43.437Z</time></trkpt><trkpt lat="45.5384484" lon="9.1675134"><ele>151.0</ele><time>2026-04-11T07:55:44.436Z</time></trkpt><trkpt lat="45.538587" lon="9.1678214"><ele>150.5</ele><time>2026-04-11T07:55:45.436Z</time></trkpt><trkpt lat="45.5387253" lon="9.1681352"><ele>150.0</ele><time>2026-04-11T07:55:46.436Z</time></trkpt><trkpt lat="45.5388603" lon="9.1684446"><ele>150.0</ele><time>2026-04-11T07:55:47.436Z</time></trkpt><trkpt lat="45.5389972" lon="9.1687549"><ele>150.0</ele><time>2026-04-11T07:55:48.437Z</time></trkpt><trkpt lat="45.5391293" lon="9.1690631"><ele>149.0</ele><time>2026-04-11T07:55:49.436Z</time></trkpt><trkpt lat="45.5392632" lon="9.1693814"><ele>148.0</ele><time>2026-04-11T07:55:50.437Z</time></trkpt><trkpt lat="45.5393898" lon="9.1697029"><ele>148.0</ele><time>2026-04-11T07:55:51.436Z</time></trkpt><trkpt lat="45.5395186" lon="9.1700245"><ele>148.0</ele><time>2026-04-11T07:55:52.436Z</time></trkpt><trkpt lat="45.5396485" lon="9.1703501"><ele>148.5</ele><time>2026-04-11T07:55:53.436Z</time></trkpt><trkpt lat="45.5397747" lon="9.1706878"><ele>149.0</ele><time>2026-04-11T07:55:54.436Z</time></trkpt><trkpt lat="45.5399112" lon="9.1710334"><ele>149.0</ele><time>2026-04-11T07:55:55.437Z</time></trkpt><trkpt lat="45.5400333" lon="9.1713805"><ele>149.0</ele><time>2026-04-11T07:55:56.436Z</time></trkpt><trkpt lat="45.5401549" lon="9.1717223"><ele>149.0</ele><time>2026-04-11T07:55:57.436Z</time></trkpt><trkpt lat="45.5402784" lon="9.1720572"><ele>149.0</ele><time>2026-04-11T07:55:58.437Z</time></trkpt><trkpt lat="45.5403924" lon="9.1723912"><ele>149.0</ele><time>2026-04-11T07:55:59.436Z</time></trkpt><trkpt lat="45.5405046" lon="9.1727247"><ele>149.0</ele><time>2026-04-11T07:56:00.437Z</time></trkpt><trkpt lat="45.5406236" lon="9.1730567"><ele>149.5</ele><time>2026-04-11T07:56:01.436Z</time></trkpt><trkpt lat="45.5407332" lon="9.1733905"><ele>150.0</ele><time>2026-04-11T07:56:02.436Z</time></trkpt><trkpt lat="45.5408419" lon="9.1737208"><ele>149.5</ele><time>2026-04-11T07:56:03.436Z</time></trkpt><trkpt lat="45.5409461" lon="9.1740539"><ele>149.0</ele><time>2026-04-11T07:56:04.436Z</time></trkpt><trkpt lat="45.541055" lon="9.1743845"><ele>149.0</ele><time>2026-04-11T07:56:05.436Z</time></trkpt><trkpt lat="45.5411611" lon="9.1747203"><ele>149.0</ele><time>2026-04-11T07:56:06.436Z</time></trkpt><trkpt lat="45.5412644" lon="9.1750524"><ele>149.0</ele><time>2026-04-11T07:56:07.436Z</time></trkpt><trkpt lat="45.5413657" lon="9.1754034"><ele>149.0</ele><time>2026-04-11T07:56:08.436Z</time></trkpt><trkpt lat="45.5414676" lon="9.1757567"><ele>149.0</ele><time>2026-04-11T07:56:09.437Z</time></trkpt><trkpt lat="45.5415656" lon="9.1761172"><ele>149.0</ele><time>2026-04-11T07:56:10.436Z</time></trkpt><trkpt lat="45.5416662" lon="9.1764819"><ele>149.0</ele><time>2026-04-11T07:56:11.436Z</time></trkpt><trkpt lat="45.541766" lon="9.1768478"><ele>149.0</ele><time>2026-04-11T07:56:12.437Z</time></trkpt><trkpt lat="45.5418716" lon="9.1772211"><ele>148.5</ele><time>2026-04-11T07:56:13.436Z</time></trkpt><trkpt lat="45.5419801" lon="9.177597"><ele>148.0</ele><time>2026-04-11T07:56:14.436Z</time></trkpt><trkpt lat="45.5420924" lon="9.1779764"><ele>149.0</ele><time>2026-04-11T07:56:15.437Z</time></trkpt><trkpt lat="45.5422028" lon="9.1783479"><ele>150.0</ele><time>2026-04-11T07:56:16.437Z</time></trkpt><trkpt lat="45.5423106" lon="9.1787179"><ele>150.5</ele><time>2026-04-11T07:56:17.436Z</time></trkpt><trkpt lat="45.5424167" lon="9.179071"><ele>151.0</ele><time>2026-04-11T07:56:18.437Z</time></trkpt><trkpt lat="45.5425155" lon="9.1794206"><ele>151.0</ele><time>2026-04-11T07:56:19.436Z</time></trkpt><trkpt lat="45.5426112" lon="9.1797633"><ele>151.0</ele><time>2026-04-11T07:56:20.437Z</time></trkpt><trkpt lat="45.5427044" lon="9.1801153"><ele>150.5</ele><time>2026-04-11T07:56:21.436Z</time></trkpt><trkpt lat="45.542793" lon="9.1804735"><ele>150.0</ele><time>2026-04-11T07:56:22.436Z</time></trkpt><trkpt lat="45.5428853" lon="9.1808354"><ele>149.5</ele><time>2026-04-11T07:56:23.437Z</time></trkpt><trkpt lat="45.5429744" lon="9.1811877"><ele>149.0</ele><time>2026-04-11T07:56:24.436Z</time></trkpt><trkpt lat="45.5430681" lon="9.181541"><ele>148.0</ele><time>2026-04-11T07:56:25.436Z</time></trkpt><trkpt lat="45.5431539" lon="9.181896"><ele>147.0</ele><time>2026-04-11T07:56:26.436Z</time></trkpt><trkpt lat="45.5432481" lon="9.1822405"><ele>147.5</ele><time>2026-04-11T07:56:27.436Z</time></trkpt><trkpt lat="45.5433462" lon="9.1825803"><ele>148.0</ele><time>2026-04-11T07:56:28.436Z</time></trkpt><trkpt lat="45.5434385" lon="9.1829256"><ele>148.5</ele><time>2026-04-11T07:56:29.437Z</time></trkpt><trkpt lat="45.5435289" lon="9.1832797"><ele>149.0</ele><time>2026-04-11T07:56:30.437Z</time></trkpt><trkpt lat="45.5436149" lon="9.1836327"><ele>148.5</ele><time>2026-04-11T07:56:31.437Z</time></trkpt><trkpt lat="45.5437138" lon="9.1839699"><ele>148.0</ele><time>2026-04-11T07:56:32.437Z</time></trkpt><trkpt lat="45.5438031" lon="9.1843178"><ele>148.0</ele><time>2026-04-11T07:56:33.436Z</time></trkpt><trkpt lat="45.5438955" lon="9.1846593"><ele>148.0</ele><time>2026-04-11T07:56:34.436Z</time></trkpt><trkpt lat="45.5439839" lon="9.1850058"><ele>148.5</ele><time>2026-04-11T07:56:35.436Z</time></trkpt><trkpt lat="45.5440685" lon="9.1853451"><ele>149.0</ele><time>2026-04-11T07:56:36.437Z</time></trkpt><trkpt lat="45.5441594" lon="9.1856769"><ele>150.0</ele><time>2026-04-11T07:56:37.437Z</time></trkpt><trkpt lat="45.5442484" lon="9.1860032"><ele>151.0</ele><time>2026-04-11T07:56:38.436Z</time></trkpt><trkpt lat="45.5443324" lon="9.1863242"><ele>150.5</ele><time>2026-04-11T07:56:39.437Z</time></trkpt><trkpt lat="45.5444124" lon="9.1866525"><ele>150.0</ele><time>2026-04-11T07:56:40.436Z</time></trkpt><trkpt lat="45.5444938" lon="9.1869762"><ele>150.0</ele><time>2026-04-11T07:56:41.436Z</time></trkpt><trkpt lat="45.5445738" lon="9.1873006"><ele>150.0</ele><time>2026-04-11T07:56:42.436Z</time></trkpt><trkpt lat="45.5446577" lon="9.1876294"><ele>150.0</ele><time>2026-04-11T07:56:43.436Z</time></trkpt><trkpt lat="45.5447441" lon="9.1879625"><ele>150.0</ele><time>2026-04-11T07:56:44.436Z</time></trkpt><trkpt lat="45.544824" lon="9.188297"><ele>150.5</ele><time>2026-04-11T07:56:45.436Z</time></trkpt><trkpt lat="45.5449044" lon="9.188638"><ele>151.0</ele><time>2026-04-11T07:56:46.436Z</time></trkpt><trkpt lat="45.5449917" lon="9.1889947"><ele>151.0</ele><time>2026-04-11T07:56:47.436Z</time></trkpt><trkpt lat="45.5450887" lon="9.1893731"><ele>151.0</ele><time>2026-04-11T07:56:48.437Z</time></trkpt><trkpt lat="45.5451893" lon="9.1897758"><ele>151.0</ele><time>2026-04-11T07:56:49.436Z</time></trkpt><trkpt lat="45.5452954" lon="9.1901637"><ele>151.0</ele><time>2026-04-11T07:56:50.436Z</time></trkpt><trkpt lat="45.5453939" lon="9.1905519"><ele>152.0</ele><time>2026-04-11T07:56:51.436Z</time></trkpt><trkpt lat="45.5454943" lon="9.1909328"><ele>153.0</ele><time>2026-04-11T07:56:52.436Z</time></trkpt><trkpt lat="45.5455866" lon="9.1912994"><ele>151.5</ele><time>2026-04-11T07:56:53.436Z</time></trkpt><trkpt lat="45.5456837" lon="9.1916621"><ele>150.0</ele><time>2026-04-11T07:56:54.436Z</time></trkpt><trkpt lat="45.5457731" lon="9.1920177"><ele>150.0</ele><time>2026-04-11T07:56:55.436Z</time></trkpt><trkpt lat="45.5458613" lon="9.1923701"><ele>150.0</ele><time>2026-04-11T07:56:56.436Z</time></trkpt><trkpt lat="45.5459513" lon="9.1927245"><ele>150.0</ele><time>2026-04-11T07:56:57.436Z</time></trkpt><trkpt lat="45.5460385" lon="9.1930705"><ele>150.0</ele><time>2026-04-11T07:56:58.436Z</time></trkpt><trkpt lat="45.5461315" lon="9.1934177"><ele>150.0</ele><time>2026-04-11T07:56:59.436Z</time></trkpt><trkpt lat="45.546219" lon="9.1937634"><ele>150.0</ele><time>2026-04-11T07:57:00.436Z</time></trkpt><trkpt lat="45.5463105" lon="9.1941065"><ele>150.0</ele><time>2026-04-11T07:57:01.436Z</time></trkpt><trkpt lat="45.5463959" lon="9.1944356"><ele>150.0</ele><time>2026-04-11T07:57:02.436Z</time></trkpt><trkpt lat="45.5464822" lon="9.1947565"><ele>149.5</ele><time>2026-04-11T07:57:03.436Z</time></trkpt><trkpt lat="45.5465665" lon="9.1950772"><ele>149.0</ele><time>2026-04-11T07:57:04.436Z</time></trkpt><trkpt lat="45.5466458" lon="9.195394"><ele>148.5</ele><time>2026-04-11T07:57:05.436Z</time></trkpt><trkpt lat="45.5467304" lon="9.1957141"><ele>148.0</ele><time>2026-04-11T07:57:06.436Z</time></trkpt><trkpt lat="45.5468233" lon="9.196042"><ele>148.0</ele><time>2026-04-11T07:57:07.436Z</time></trkpt><trkpt lat="45.5469138" lon="9.196387"><ele>148.0</ele><time>2026-04-11T07:57:08.437Z</time></trkpt><trkpt lat="45.54701" lon="9.1967341"><ele>148.5</ele><time>2026-04-11T07:57:09.436Z</time></trkpt><trkpt lat="45.5471085" lon="9.1970908"><ele>149.0</ele><time>2026-04-11T07:57:10.436Z</time></trkpt><trkpt lat="45.5472077" lon="9.1974577"><ele>149.0</ele><time>2026-04-11T07:57:11.436Z</time></trkpt><trkpt lat="45.5473042" lon="9.1978234"><ele>149.0</ele><time>2026-04-11T07:57:12.436Z</time></trkpt><trkpt lat="45.5473924" lon="9.1981779"><ele>148.0</ele><time>2026-04-11T07:57:13.436Z</time></trkpt><trkpt lat="45.5474769" lon="9.1985253"><ele>147.0</ele><time>2026-04-11T07:57:14.436Z</time></trkpt><trkpt lat="45.5475606" lon="9.1988573"><ele>147.5</ele><time>2026-04-11T07:57:15.436Z</time></trkpt><trkpt lat="45.5476376" lon="9.1991767"><ele>148.0</ele><time>2026-04-11T07:57:16.436Z</time></trkpt><trkpt lat="45.5477128" lon="9.1995024"><ele>148.0</ele><time>2026-04-11T07:57:17.436Z</time></trkpt><trkpt lat="45.5477787" lon="9.1998191"><ele>148.0</ele><time>2026-04-11T07:57:18.436Z</time></trkpt><trkpt lat="45.5478331" lon="9.2001189"><ele>148.0</ele><time>2026-04-11T07:57:19.437Z</time></trkpt><trkpt lat="45.5478797" lon="9.2004031"><ele>148.33333333333334</ele><time>2026-04-11T07:57:20.437Z</time></trkpt><trkpt lat="45.5479191" lon="9.200671"><ele>148.66666666666666</ele><time>2026-04-11T07:57:21.437Z</time></trkpt><trkpt lat="45.5479527" lon="9.2009189"><ele>149.0</ele><time>2026-04-11T07:57:22.436Z</time></trkpt><trkpt lat="45.5479844" lon="9.2011426"><ele>149.0</ele><time>2026-04-11T07:57:23.436Z</time></trkpt><trkpt lat="45.5480158" lon="9.2013438"><ele>149.0</ele><time>2026-04-11T07:57:24.437Z</time></trkpt><trkpt lat="45.5480397" lon="9.2015325"><ele>149.0</ele><time>2026-04-11T07:57:25.436Z</time></trkpt><trkpt lat="45.5480641" lon="9.201715"><ele>149.0</ele><time>2026-04-11T07:57:26.437Z</time></trkpt><trkpt lat="45.5480897" lon="9.2018939"><ele>149.0</ele><time>2026-04-11T07:57:27.436Z</time></trkpt><trkpt lat="45.5481099" lon="9.2020761"><ele>149.0</ele><time>2026-04-11T07:57:28.436Z</time></trkpt><trkpt lat="45.5481306" lon="9.2022628"><ele>149.0</ele><time>2026-04-11T07:57:29.436Z</time></trkpt><trkpt lat="45.5481533" lon="9.2024547"><ele>149.0</ele><time>2026-04-11T07:57:30.437Z</time></trkpt><trkpt lat="45.5481749" lon="9.2026446"><ele>148.75</ele><time>2026-04-11T07:57:31.437Z</time></trkpt><trkpt lat="45.5481927" lon="9.202837"><ele>148.5</ele><time>2026-04-11T07:57:32.437Z</time></trkpt><trkpt lat="45.548209" lon="9.2030453"><ele>148.25</ele><time>2026-04-11T07:57:33.436Z</time></trkpt><trkpt lat="45.5482245" lon="9.2032463"><ele>148.0</ele><time>2026-04-11T07:57:34.436Z</time></trkpt><trkpt lat="45.5482404" lon="9.2034417"><ele>148.0</ele><time>2026-04-11T07:57:35.436Z</time></trkpt><trkpt lat="45.5482523" lon="9.2036289"><ele>148.0</ele><time>2026-04-11T07:57:36.436Z</time></trkpt><trkpt lat="45.5482687" lon="9.2038362"><ele>148.0</ele><time>2026-04-11T07:57:37.436Z</time></trkpt><trkpt lat="45.5482763" lon="9.2040389"><ele>148.0</ele><time>2026-04-11T07:57:38.436Z</time></trkpt><trkpt lat="45.548282" lon="9.2042452"><ele>148.25</ele><time>2026-04-11T07:57:39.436Z</time></trkpt><trkpt lat="45.5482848" lon="9.2044517"><ele>148.5</ele><time>2026-04-11T07:57:40.436Z</time></trkpt><trkpt lat="45.5482884" lon="9.2046645"><ele>148.75</ele><time>2026-04-11T07:57:41.436Z</time></trkpt><trkpt lat="45.5483011" lon="9.2048714"><ele>149.0</ele><time>2026-04-11T07:57:42.437Z</time></trkpt><trkpt lat="45.5483066" lon="9.2050731"><ele>149.0</ele><time>2026-04-11T07:57:43.436Z</time></trkpt><trkpt lat="45.5483143" lon="9.2052638"><ele>149.0</ele><time>2026-04-11T07:57:44.437Z</time></trkpt><trkpt lat="45.5483161" lon="9.2054448"><ele>149.0</ele><time>2026-04-11T07:57:45.436Z</time></trkpt><trkpt lat="45.548319" lon="9.2056155"><ele>149.0</ele><time>2026-04-11T07:57:46.436Z</time></trkpt><trkpt lat="45.5483216" lon="9.2057776"><ele>149.0</ele><time>2026-04-11T07:57:47.437Z</time></trkpt><trkpt lat="45.5483268" lon="9.2059323"><ele>149.0</ele><time>2026-04-11T07:57:48.437Z</time></trkpt><trkpt lat="45.5483291" lon="9.2060777"><ele>149.0</ele><time>2026-04-11T07:57:49.436Z</time></trkpt><trkpt lat="45.5483313" lon="9.2062184"><ele>149.0</ele><time>2026-04-11T07:57:50.436Z</time></trkpt><trkpt lat="45.5483345" lon="9.2063633"><ele>149.0</ele><time>2026-04-11T07:57:51.436Z</time></trkpt><trkpt lat="45.5483364" lon="9.2065174"><ele>149.0</ele><time>2026-04-11T07:57:52.437Z</time></trkpt><trkpt lat="45.5483333" lon="9.2066712"><ele>149.0</ele><time>2026-04-11T07:57:53.436Z</time></trkpt><trkpt lat="45.548341" lon="9.2068219"><ele>149.0</ele><time>2026-04-11T07:57:54.437Z</time></trkpt><trkpt lat="45.5483439" lon="9.206963"><ele>149.0</ele><time>2026-04-11T07:57:55.436Z</time></trkpt><trkpt lat="45.5483462" lon="9.2070992"><ele>149.0</ele><time>2026-04-11T07:57:56.436Z</time></trkpt><trkpt lat="45.5483482" lon="9.2072268"><ele>149.0</ele><time>2026-04-11T07:57:57.436Z</time></trkpt><trkpt lat="45.5483482" lon="9.2073429"><ele>149.0</ele><time>2026-04-11T07:57:58.437Z</time></trkpt><trkpt lat="45.5483523" lon="9.2074535"><ele>149.0</ele><time>2026-04-11T07:57:59.437Z</time></trkpt><trkpt lat="45.5483505" lon="9.2075501"><ele>149.0</ele><time>2026-04-11T07:58:00.436Z</time></trkpt><trkpt lat="45.5483491" lon="9.207652"><ele>149.0</ele><time>2026-04-11T07:58:01.437Z</time></trkpt><trkpt lat="45.5483478" lon="9.2077521"><ele>149.0</ele><time>2026-04-11T07:58:02.436Z</time></trkpt><trkpt lat="45.5483472" lon="9.2078555"><ele>149.0</ele><time>2026-04-11T07:58:03.436Z</time></trkpt><trkpt lat="45.5483452" lon="9.2080287"><ele>149.16666666666666</ele><time>2026-04-11T07:58:05.437Z</time></trkpt><trkpt lat="45.5483485" lon="9.2082047"><ele>149.33333333333331</ele><time>2026-04-11T07:58:07.437Z</time></trkpt><trkpt lat="45.5483484" lon="9.208312"><ele>149.5</ele><time>2026-04-11T07:58:08.436Z</time></trkpt><trkpt lat="45.5483527" lon="9.2084255"><ele>149.66666666666666</ele><time>2026-04-11T07:58:09.436Z</time></trkpt><trkpt lat="45.548356" lon="9.2085435"><ele>149.83333333333334</ele><time>2026-04-11T07:58:10.437Z</time></trkpt><trkpt lat="45.5483586" lon="9.2086659"><ele>150.0</ele><time>2026-04-11T07:58:11.436Z</time></trkpt><trkpt lat="45.5483638" lon="9.2087897"><ele>150.0</ele><time>2026-04-11T07:58:12.437Z</time></trkpt><trkpt lat="45.5483699" lon="9.2089243"><ele>150.0</ele><time>2026-04-11T07:58:13.436Z</time></trkpt><trkpt lat="45.5483774" lon="9.2090579"><ele>150.0</ele><time>2026-04-11T07:58:14.437Z</time></trkpt><trkpt lat="45.5483816" lon="9.2091893"><ele>150.0</ele><time>2026-04-11T07:58:15.436Z</time></trkpt><trkpt lat="45.5483834" lon="9.2093175"><ele>150.0</ele><time>2026-04-11T07:58:16.436Z</time></trkpt><trkpt lat="45.548384" lon="9.2094445"><ele>150.0</ele><time>2026-04-11T07:58:17.436Z</time></trkpt><trkpt lat="45.5483897" lon="9.2095785"><ele>150.0</ele><time>2026-04-11T07:58:18.436Z</time></trkpt><trkpt lat="45.5483935" lon="9.2097299"><ele>150.0</ele><time>2026-04-11T07:58:19.437Z</time></trkpt><trkpt lat="45.5483982" lon="9.2098863"><ele>150.0</ele><time>2026-04-11T07:58:20.436Z</time></trkpt><trkpt lat="45.5484076" lon="9.210058"><ele>150.0</ele><time>2026-04-11T07:58:21.436Z</time></trkpt><trkpt lat="45.5484195" lon="9.2102417"><ele>150.0</ele><time>2026-04-11T07:58:22.436Z</time></trkpt><trkpt lat="45.5484234" lon="9.2104264"><ele>150.0</ele><time>2026-04-11T07:58:23.437Z</time></trkpt><trkpt lat="45.5484314" lon="9.2106138"><ele>150.0</ele><time>2026-04-11T07:58:24.436Z</time></trkpt><trkpt lat="45.5484353" lon="9.2108029"><ele>150.0</ele><time>2026-04-11T07:58:25.436Z</time></trkpt><trkpt lat="45.5484414" lon="9.2109926"><ele>149.75</ele><time>2026-04-11T07:58:26.436Z</time></trkpt><trkpt lat="45.5484496" lon="9.211178"><ele>149.5</ele><time>2026-04-11T07:58:27.437Z</time></trkpt><trkpt lat="45.5484507" lon="9.2113699"><ele>149.25</ele><time>2026-04-11T07:58:28.436Z</time></trkpt><trkpt lat="45.5484601" lon="9.2115688"><ele>149.0</ele><time>2026-04-11T07:58:29.436Z</time></trkpt><trkpt lat="45.5484743" lon="9.2117796"><ele>149.0</ele><time>2026-04-11T07:58:30.436Z</time></trkpt><trkpt lat="45.5484819" lon="9.2119966"><ele>149.0</ele><time>2026-04-11T07:58:31.437Z</time></trkpt><trkpt lat="45.5484932" lon="9.2122167"><ele>149.0</ele><time>2026-04-11T07:58:32.436Z</time></trkpt><trkpt lat="45.5484967" lon="9.2124428"><ele>149.0</ele><time>2026-04-11T07:58:33.437Z</time></trkpt><trkpt lat="45.5485021" lon="9.2126724"><ele>149.0</ele><time>2026-04-11T07:58:34.437Z</time></trkpt><trkpt lat="45.548508" lon="9.2128982"><ele>149.0</ele><time>2026-04-11T07:58:35.436Z</time></trkpt><trkpt lat="45.5485161" lon="9.2131353"><ele>148.0</ele><time>2026-04-11T07:58:36.436Z</time></trkpt><trkpt lat="45.5485191" lon="9.2133755"><ele>147.0</ele><time>2026-04-11T07:58:37.436Z</time></trkpt><trkpt lat="45.5485252" lon="9.2136124"><ele>146.0</ele><time>2026-04-11T07:58:38.436Z</time></trkpt><trkpt lat="45.5485314" lon="9.2138502"><ele>146.0</ele><time>2026-04-11T07:58:39.436Z</time></trkpt><trkpt lat="45.5485396" lon="9.2140866"><ele>146.0</ele><time>2026-04-11T07:58:40.437Z</time></trkpt><trkpt lat="45.5485425" lon="9.2143215"><ele>146.0</ele><time>2026-04-11T07:58:41.436Z</time></trkpt><trkpt lat="45.5485442" lon="9.2145566"><ele>146.0</ele><time>2026-04-11T07:58:42.436Z</time></trkpt><trkpt lat="45.5485502" lon="9.2147926"><ele>146.0</ele><time>2026-04-11T07:58:43.437Z</time></trkpt><trkpt lat="45.5485551" lon="9.2150229"><ele>146.0</ele><time>2026-04-11T07:58:44.436Z</time></trkpt><trkpt lat="45.548563" lon="9.215257"><ele>147.0</ele><time>2026-04-11T07:58:45.436Z</time></trkpt><trkpt lat="45.548569" lon="9.2154954"><ele>148.0</ele><time>2026-04-11T07:58:46.436Z</time></trkpt><trkpt lat="45.548577" lon="9.2157279"><ele>149.0</ele><time>2026-04-11T07:58:47.436Z</time></trkpt><trkpt lat="45.5485876" lon="9.2159672"><ele>149.33333333333331</ele><time>2026-04-11T07:58:48.436Z</time></trkpt><trkpt lat="45.5485989" lon="9.2162133"><ele>149.66666666666666</ele><time>2026-04-11T07:58:49.436Z</time></trkpt><trkpt lat="45.5486101" lon="9.2164596"><ele>150.0</ele><time>2026-04-11T07:58:50.436Z</time></trkpt><trkpt lat="45.5486153" lon="9.216704"><ele>150.0</ele><time>2026-04-11T07:58:51.436Z</time></trkpt><trkpt lat="45.5486223" lon="9.2169491"><ele>150.0</ele><time>2026-04-11T07:58:52.436Z</time></trkpt><trkpt lat="45.5486269" lon="9.2171885"><ele>150.0</ele><time>2026-04-11T07:58:53.436Z</time></trkpt><trkpt lat="45.548635" lon="9.2174255"><ele>149.66666666666666</ele><time>2026-04-11T07:58:54.436Z</time></trkpt><trkpt lat="45.5486449" lon="9.2176618"><ele>149.33333333333331</ele><time>2026-04-11T07:58:55.436Z</time></trkpt><trkpt lat="45.5486536" lon="9.2178946"><ele>149.0</ele><time>2026-04-11T07:58:56.436Z</time></trkpt><trkpt lat="45.5486762" lon="9.2181366"><ele>149.0</ele><time>2026-04-11T07:58:57.437Z</time></trkpt><trkpt lat="45.5486911" lon="9.2183769"><ele>149.0</ele><time>2026-04-11T07:58:58.436Z</time></trkpt><trkpt lat="45.5487037" lon="9.2186239"><ele>149.0</ele><time>2026-04-11T07:58:59.436Z</time></trkpt><trkpt lat="45.5487231" lon="9.2188708"><ele>150.0</ele><time>2026-04-11T07:59:00.436Z</time></trkpt><trkpt lat="45.5487378" lon="9.2191196"><ele>151.0</ele><time>2026-04-11T07:59:01.436Z</time></trkpt><trkpt lat="45.5487601" lon="9.2193742"><ele>152.0</ele><time>2026-04-11T07:59:02.436Z</time></trkpt><trkpt lat="45.5487836" lon="9.2196248"><ele>151.66666666666666</ele><time>2026-04-11T07:59:03.436Z</time></trkpt><trkpt lat="45.5488117" lon="9.2198759"><ele>151.33333333333334</ele><time>2026-04-11T07:59:04.436Z</time></trkpt><trkpt lat="45.5488322" lon="9.2201133"><ele>151.0</ele><time>2026-04-11T07:59:05.437Z</time></trkpt><trkpt lat="45.5488527" lon="9.2203428"><ele>151.0</ele><time>2026-04-11T07:59:06.435Z</time></trkpt><trkpt lat="45.548879" lon="9.2205666"><ele>151.0</ele><time>2026-04-11T07:59:07.436Z</time></trkpt><trkpt lat="45.5488977" lon="9.2207874"><ele>151.0</ele><time>2026-04-11T07:59:08.435Z</time></trkpt><trkpt lat="45.5489226" lon="9.221013"><ele>150.66666666666669</ele><time>2026-04-11T07:59:09.435Z</time></trkpt><trkpt lat="45.5489472" lon="9.2212364"><ele>150.33333333333334</ele><time>2026-04-11T07:59:10.435Z</time></trkpt><trkpt lat="45.548976" lon="9.2214589"><ele>150.0</ele><time>2026-04-11T07:59:11.435Z</time></trkpt><trkpt lat="45.5490095" lon="9.2216849"><ele>150.0</ele><time>2026-04-11T07:59:12.435Z</time></trkpt><trkpt lat="45.5490428" lon="9.2218999"><ele>150.0</ele><time>2026-04-11T07:59:13.436Z</time></trkpt><trkpt lat="45.5490743" lon="9.2221248"><ele>150.0</ele><time>2026-04-11T07:59:14.435Z</time></trkpt><trkpt lat="45.5491054" lon="9.2223462"><ele>149.66666666666666</ele><time>2026-04-11T07:59:15.435Z</time></trkpt><trkpt lat="45.5491431" lon="9.2225691"><ele>149.33333333333331</ele><time>2026-04-11T07:59:16.436Z</time></trkpt><trkpt lat="45.549179" lon="9.2227873"><ele>149.0</ele><time>2026-04-11T07:59:17.435Z</time></trkpt><trkpt lat="45.5492126" lon="9.2229999"><ele>148.75</ele><time>2026-04-11T07:59:18.436Z</time></trkpt><trkpt lat="45.5492427" lon="9.2231999"><ele>148.5</ele><time>2026-04-11T07:59:19.436Z</time></trkpt><trkpt lat="45.5492737" lon="9.223397"><ele>148.25</ele><time>2026-04-11T07:59:20.435Z</time></trkpt><trkpt lat="45.5493043" lon="9.2235854"><ele>148.0</ele><time>2026-04-11T07:59:21.435Z</time></trkpt><trkpt lat="45.5493272" lon="9.223763"><ele>148.0</ele><time>2026-04-11T07:59:22.436Z</time></trkpt><trkpt lat="45.5493501" lon="9.2239349"><ele>148.0</ele><time>2026-04-11T07:59:23.435Z</time></trkpt><trkpt lat="45.5493771" lon="9.2240961"><ele>148.0</ele><time>2026-04-11T07:59:24.436Z</time></trkpt><trkpt lat="45.5494077" lon="9.2242542"><ele>148.0</ele><time>2026-04-11T07:59:25.436Z</time></trkpt><trkpt lat="45.5494322" lon="9.2244175"><ele>148.0</ele><time>2026-04-11T07:59:26.435Z</time></trkpt><trkpt lat="45.5494591" lon="9.2245842"><ele>148.0</ele><time>2026-04-11T07:59:27.435Z</time></trkpt><trkpt lat="45.5494853" lon="9.224752"><ele>148.0</ele><time>2026-04-11T07:59:28.436Z</time></trkpt><trkpt lat="45.5495118" lon="9.2249175"><ele>148.0</ele><time>2026-04-11T07:59:29.435Z</time></trkpt><trkpt lat="45.549537" lon="9.2250843"><ele>148.25</ele><time>2026-04-11T07:59:30.435Z</time></trkpt><trkpt lat="45.5495623" lon="9.2252572"><ele>148.5</ele><time>2026-04-11T07:59:31.436Z</time></trkpt><trkpt lat="45.5495915" lon="9.2254268"><ele>148.75</ele><time>2026-04-11T07:59:32.436Z</time></trkpt><trkpt lat="45.5496193" lon="9.22559"><ele>149.0</ele><time>2026-04-11T07:59:33.435Z</time></trkpt><trkpt lat="45.5496461" lon="9.2257504"><ele>149.25</ele><time>2026-04-11T07:59:34.435Z</time></trkpt><trkpt lat="45.5496759" lon="9.2259121"><ele>149.5</ele><time>2026-04-11T07:59:35.436Z</time></trkpt><trkpt lat="45.5497027" lon="9.2260787"><ele>149.75</ele><time>2026-04-11T07:59:36.436Z</time></trkpt><trkpt lat="45.5497326" lon="9.2262518"><ele>150.0</ele><time>2026-04-11T07:59:37.435Z</time></trkpt><trkpt lat="45.549765" lon="9.2264231"><ele>150.0</ele><time>2026-04-11T07:59:38.435Z</time></trkpt><trkpt lat="45.5497909" lon="9.2265803"><ele>150.0</ele><time>2026-04-11T07:59:39.436Z</time></trkpt><trkpt lat="45.5498116" lon="9.2267058"><ele>150.0</ele><time>2026-04-11T07:59:40.436Z</time></trkpt><trkpt lat="45.5498288" lon="9.2268061"><ele>150.0</ele><time>2026-04-11T07:59:41.435Z</time></trkpt><trkpt lat="45.5498565" lon="9.2269804"><ele>150.0</ele><time>2026-04-11T07:59:43.436Z</time></trkpt><trkpt lat="45.5498731" lon="9.2270797"><ele>149.99999999999997</ele><time>2026-04-11T07:59:44.435Z</time></trkpt><trkpt lat="45.5498874" lon="9.2271844"><ele>150.0</ele><time>2026-04-11T07:59:45.435Z</time></trkpt><trkpt lat="45.5499055" lon="9.2272847"><ele>150.0</ele><time>2026-04-11T07:59:46.435Z</time></trkpt><trkpt lat="45.5499239" lon="9.2273797"><ele>150.0</ele><time>2026-04-11T07:59:47.435Z</time></trkpt><trkpt lat="45.5499371" lon="9.2274842"><ele>150.0</ele><time>2026-04-11T07:59:48.435Z</time></trkpt><trkpt lat="45.5499525" lon="9.22759"><ele>149.99999999999997</ele><time>2026-04-11T07:59:49.435Z</time></trkpt><trkpt lat="45.5499677" lon="9.2277025"><ele>150.0</ele><time>2026-04-11T07:59:50.435Z</time></trkpt><trkpt lat="45.5499859" lon="9.2278283"><ele>149.6</ele><time>2026-04-11T07:59:51.435Z</time></trkpt><trkpt lat="45.5500065" lon="9.2279591"><ele>149.2</ele><time>2026-04-11T07:59:52.435Z</time></trkpt><trkpt lat="45.5500289" lon="9.2281044"><ele>148.8</ele><time>2026-04-11T07:59:53.435Z</time></trkpt><trkpt lat="45.5500522" lon="9.2282441"><ele>148.4</ele><time>2026-04-11T07:59:54.435Z</time></trkpt><trkpt lat="45.5500766" lon="9.2283967"><ele>148.0</ele><time>2026-04-11T07:59:55.436Z</time></trkpt><trkpt lat="45.550104" lon="9.2285587"><ele>148.0</ele><time>2026-04-11T07:59:56.436Z</time></trkpt><trkpt lat="45.5501287" lon="9.2287207"><ele>148.0</ele><time>2026-04-11T07:59:57.435Z</time></trkpt><trkpt lat="45.5501545" lon="9.2288787"><ele>148.0</ele><time>2026-04-11T07:59:58.435Z</time></trkpt><trkpt lat="45.5501802" lon="9.2290459"><ele>148.0</ele><time>2026-04-11T07:59:59.435Z</time></trkpt><trkpt lat="45.5502014" lon="9.2292121"><ele>148.0</ele><time>2026-04-11T08:00:00.435Z</time></trkpt><trkpt lat="45.5502279" lon="9.2293862"><ele>148.0</ele><time>2026-04-11T08:00:01.435Z</time></trkpt><trkpt lat="45.5502594" lon="9.2295671"><ele>148.0</ele><time>2026-04-11T08:00:02.435Z</time></trkpt><trkpt lat="45.550292" lon="9.2297553"><ele>148.0</ele><time>2026-04-11T08:00:03.435Z</time></trkpt><trkpt lat="45.5503181" lon="9.2299442"><ele>148.0</ele><time>2026-04-11T08:00:04.435Z</time></trkpt><trkpt lat="45.5503451" lon="9.2301202"><ele>148.0</ele><time>2026-04-11T08:00:05.435Z</time></trkpt><trkpt lat="45.5503729" lon="9.2302924"><ele>148.0</ele><time>2026-04-11T08:00:06.435Z</time></trkpt><trkpt lat="45.5503988" lon="9.2304653"><ele>148.0</ele><time>2026-04-11T08:00:07.436Z</time></trkpt><trkpt lat="45.5504245" lon="9.230631"><ele>148.0</ele><time>2026-04-11T08:00:08.435Z</time></trkpt><trkpt lat="45.5504498" lon="9.2308021"><ele>148.0</ele><time>2026-04-11T08:00:09.435Z</time></trkpt><trkpt lat="45.5504812" lon="9.230977"><ele>148.0</ele><time>2026-04-11T08:00:10.435Z</time></trkpt><trkpt lat="45.5505099" lon="9.231153"><ele>148.0</ele><time>2026-04-11T08:00:11.435Z</time></trkpt><trkpt lat="45.5501494" lon="9.2288608"><ele>148.0</ele><time>2026-04-11T08:00:22.299Z</time></trkpt><trkpt lat="45.5512585" lon="9.2364946"><ele>148.0</ele><time>2026-04-11T08:00:35.435Z</time></trkpt><trkpt lat="45.5512235" lon="9.2366501"><ele>148.0</ele><time>2026-04-11T08:00:36.435Z</time></trkpt><trkpt lat="45.5512474" lon="9.236813"><ele>148.0</ele><time>2026-04-11T08:00:37.435Z</time></trkpt><trkpt lat="45.5512551" lon="9.2369741"><ele>148.0</ele><time>2026-04-11T08:00:38.435Z</time></trkpt><trkpt lat="45.5512713" lon="9.2371159"><ele>148.0</ele><time>2026-04-11T08:00:39.436Z</time></trkpt><trkpt lat="45.5512787" lon="9.2372454"><ele>148.16666666666669</ele><time>2026-04-11T08:00:40.435Z</time></trkpt><trkpt lat="45.5512925" lon="9.2373704"><ele>148.33333333333334</ele><time>2026-04-11T08:00:41.435Z</time></trkpt><trkpt lat="45.5513139" lon="9.2374961"><ele>148.5</ele><time>2026-04-11T08:00:42.436Z</time></trkpt><trkpt lat="45.5513234" lon="9.2376188"><ele>148.66666666666666</ele><time>2026-04-11T08:00:43.435Z</time></trkpt><trkpt lat="45.5513296" lon="9.2377267"><ele>148.83333333333331</ele><time>2026-04-11T08:00:44.435Z</time></trkpt><trkpt lat="45.5513499" lon="9.2378715"><ele>149.0</ele><time>2026-04-11T08:00:46.436Z</time></trkpt><trkpt lat="45.5513528" lon="9.2379883"><ele>150.0</ele><time>2026-04-11T08:00:48.436Z</time></trkpt><trkpt lat="45.5514491" lon="9.2384897"><ele>151.0</ele><time>2026-04-11T08:00:52.435Z</time></trkpt><trkpt lat="45.5514455" lon="9.2386438"><ele>151.0</ele><time>2026-04-11T08:00:53.435Z</time></trkpt><trkpt lat="45.5514813" lon="9.2388068"><ele>151.0</ele><time>2026-04-11T08:00:54.435Z</time></trkpt><trkpt lat="45.5515066" lon="9.2389531"><ele>151.0</ele><time>2026-04-11T08:00:55.435Z</time></trkpt><trkpt lat="45.5515383" lon="9.2391065"><ele>151.0</ele><time>2026-04-11T08:00:56.435Z</time></trkpt><trkpt lat="45.5515633" lon="9.2392588"><ele>151.0</ele><time>2026-04-11T08:00:57.435Z</time></trkpt><trkpt lat="45.5515807" lon="9.2394034"><ele>151.0</ele><time>2026-04-11T08:00:58.436Z</time></trkpt><trkpt lat="45.5515983" lon="9.2395144"><ele>151.0</ele><time>2026-04-11T08:00:59.436Z</time></trkpt><trkpt lat="45.5516197" lon="9.2396136"><ele>151.0</ele><time>2026-04-11T08:01:00.435Z</time></trkpt><trkpt lat="45.5516325" lon="9.2397042"><ele>151.0</ele><time>2026-04-11T08:01:01.435Z</time></trkpt><trkpt lat="45.5516547" lon="9.2398576"><ele>151.0</ele><time>2026-04-11T08:01:03.435Z</time></trkpt><trkpt lat="45.5516746" lon="9.2399973"><ele>151.0</ele><time>2026-04-11T08:01:05.435Z</time></trkpt><trkpt lat="45.5516843" lon="9.2400977"><ele>151.0</ele><time>2026-04-11T08:01:06.435Z</time></trkpt><trkpt lat="45.551705" lon="9.2402217"><ele>151.0</ele><time>2026-04-11T08:01:07.435Z</time></trkpt><trkpt lat="45.551731" lon="9.2403717"><ele>151.0</ele><time>2026-04-11T08:01:08.435Z</time></trkpt><trkpt lat="45.5517497" lon="9.2405254"><ele>151.0</ele><time>2026-04-11T08:01:09.435Z</time></trkpt><trkpt lat="45.5517755" lon="9.2406865"><ele>151.0</ele><time>2026-04-11T08:01:10.435Z</time></trkpt><trkpt lat="45.5518081" lon="9.240876"><ele>152.0</ele><time>2026-04-11T08:01:11.435Z</time></trkpt><trkpt lat="45.5518539" lon="9.2411298"><ele>153.0</ele><time>2026-04-11T08:01:12.435Z</time></trkpt><trkpt lat="45.5518862" lon="9.2414055"><ele>154.0</ele><time>2026-04-11T08:01:13.435Z</time></trkpt><trkpt lat="45.5519211" lon="9.2416603"><ele>154.33333333333334</ele><time>2026-04-11T08:01:14.436Z</time></trkpt><trkpt lat="45.5519686" lon="9.2418905"><ele>154.66666666666666</ele><time>2026-04-11T08:01:15.436Z</time></trkpt><trkpt lat="45.551999" lon="9.2421126"><ele>155.0</ele><time>2026-04-11T08:01:16.435Z</time></trkpt><trkpt lat="45.552035" lon="9.2423226"><ele>154.2</ele><time>2026-04-11T08:01:17.435Z</time></trkpt><trkpt lat="45.5520594" lon="9.2425034"><ele>153.4</ele><time>2026-04-11T08:01:18.435Z</time></trkpt><trkpt lat="45.5520762" lon="9.2426481"><ele>152.6</ele><time>2026-04-11T08:01:19.435Z</time></trkpt><trkpt lat="45.552101" lon="9.2427851"><ele>151.8</ele><time>2026-04-11T08:01:20.435Z</time></trkpt><trkpt lat="45.5521192" lon="9.2429315"><ele>151.0</ele><time>2026-04-11T08:01:21.435Z</time></trkpt><trkpt lat="45.5521473" lon="9.2431234"><ele>151.33333333333334</ele><time>2026-04-11T08:01:22.435Z</time></trkpt><trkpt lat="45.5521803" lon="9.2433439"><ele>151.66666666666666</ele><time>2026-04-11T08:01:23.435Z</time></trkpt><trkpt lat="45.5522093" lon="9.2435617"><ele>152.0</ele><time>2026-04-11T08:01:24.435Z</time></trkpt><trkpt lat="45.5522348" lon="9.2437694"><ele>152.0</ele><time>2026-04-11T08:01:25.436Z</time></trkpt><trkpt lat="45.5522519" lon="9.2439685"><ele>152.0</ele><time>2026-04-11T08:01:26.435Z</time></trkpt><trkpt lat="45.5522649" lon="9.2441723"><ele>152.0</ele><time>2026-04-11T08:01:27.435Z</time></trkpt><trkpt lat="45.5522653" lon="9.2443736"><ele>152.0</ele><time>2026-04-11T08:01:28.436Z</time></trkpt><trkpt lat="45.5522627" lon="9.2445742"><ele>152.0</ele><time>2026-04-11T08:01:29.435Z</time></trkpt><trkpt lat="45.5522506" lon="9.2447757"><ele>152.0</ele><time>2026-04-11T08:01:30.435Z</time></trkpt><trkpt lat="45.5522359" lon="9.244976"><ele>152.0</ele><time>2026-04-11T08:01:31.435Z</time></trkpt><trkpt lat="45.55222" lon="9.2451516"><ele>152.0</ele><time>2026-04-11T08:01:32.435Z</time></trkpt><trkpt lat="45.5522097" lon="9.2453266"><ele>151.5</ele><time>2026-04-11T08:01:33.435Z</time></trkpt><trkpt lat="45.5522135" lon="9.2454886"><ele>151.0</ele><time>2026-04-11T08:01:34.435Z</time></trkpt><trkpt lat="45.5522318" lon="9.2456476"><ele>150.5</ele><time>2026-04-11T08:01:35.435Z</time></trkpt><trkpt lat="45.5522756" lon="9.2458044"><ele>150.0</ele><time>2026-04-11T08:01:36.436Z</time></trkpt><trkpt lat="45.5523467" lon="9.2459362"><ele>150.0</ele><time>2026-04-11T08:01:37.436Z</time></trkpt><trkpt lat="45.5524367" lon="9.2460552"><ele>150.0</ele><time>2026-04-11T08:01:38.436Z</time></trkpt><trkpt lat="45.5525276" lon="9.2461561"><ele>150.0</ele><time>2026-04-11T08:01:39.435Z</time></trkpt><trkpt lat="45.5526337" lon="9.2462133"><ele>150.0</ele><time>2026-04-11T08:01:40.436Z</time></trkpt><trkpt lat="45.5527377" lon="9.246237"><ele>150.0</ele><time>2026-04-11T08:01:41.436Z</time></trkpt><trkpt lat="45.5528353" lon="9.2462402"><ele>150.0</ele><time>2026-04-11T08:01:42.435Z</time></trkpt><trkpt lat="45.5529413" lon="9.2462416"><ele>150.0</ele><time>2026-04-11T08:01:43.435Z</time></trkpt><trkpt lat="45.5530474" lon="9.2461306"><ele>150.0</ele><time>2026-04-11T08:01:44.435Z</time></trkpt><trkpt lat="45.5531243" lon="9.2460074"><ele>149.75</ele><time>2026-04-11T08:01:45.435Z</time></trkpt><trkpt lat="45.5531991" lon="9.245896"><ele>149.5</ele><time>2026-04-11T08:01:46.435Z</time></trkpt><trkpt lat="45.5532727" lon="9.2457667"><ele>149.25</ele><time>2026-04-11T08:01:47.436Z</time></trkpt><trkpt lat="45.5533565" lon="9.2456393"><ele>149.0</ele><time>2026-04-11T08:01:48.435Z</time></trkpt><trkpt lat="45.5534302" lon="9.2455127"><ele>149.0</ele><time>2026-04-11T08:01:49.435Z</time></trkpt><trkpt lat="45.5535004" lon="9.2453946"><ele>149.0</ele><time>2026-04-11T08:01:50.435Z</time></trkpt><trkpt lat="45.553572" lon="9.2452725"><ele>149.0</ele><time>2026-04-11T08:01:51.435Z</time></trkpt><trkpt lat="45.553642" lon="9.2451496"><ele>149.0</ele><time>2026-04-11T08:01:52.436Z</time></trkpt><trkpt lat="45.5537068" lon="9.2450369"><ele>149.0</ele><time>2026-04-11T08:01:53.436Z</time></trkpt><trkpt lat="45.553766" lon="9.2449266"><ele>149.0</ele><time>2026-04-11T08:01:54.435Z</time></trkpt><trkpt lat="45.5538292" lon="9.2448198"><ele>149.0</ele><time>2026-04-11T08:01:55.435Z</time></trkpt><trkpt lat="45.553895" lon="9.2447098"><ele>149.0</ele><time>2026-04-11T08:01:56.435Z</time></trkpt><trkpt lat="45.5539653" lon="9.2445967"><ele>149.0</ele><time>2026-04-11T08:01:57.435Z</time></trkpt><trkpt lat="45.5540327" lon="9.2444821"><ele>149.0</ele><time>2026-04-11T08:01:58.435Z</time></trkpt><trkpt lat="45.5541054" lon="9.2443688"><ele>149.0</ele><time>2026-04-11T08:01:59.435Z</time></trkpt><trkpt lat="45.5541837" lon="9.2442485"><ele>149.0</ele><time>2026-04-11T08:02:00.435Z</time></trkpt><trkpt lat="45.5542596" lon="9.2441195"><ele>149.0</ele><time>2026-04-11T08:02:01.436Z</time></trkpt><trkpt lat="45.5543385" lon="9.2439821"><ele>149.0</ele><time>2026-04-11T08:02:02.435Z</time></trkpt><trkpt lat="45.554416" lon="9.2438321"><ele>149.0</ele><time>2026-04-11T08:02:03.435Z</time></trkpt><trkpt lat="45.5544908" lon="9.2436694"><ele>149.0</ele><time>2026-04-11T08:02:04.435Z</time></trkpt><trkpt lat="45.5545595" lon="9.2434972"><ele>149.0</ele><time>2026-04-11T08:02:05.435Z</time></trkpt><trkpt lat="45.5546229" lon="9.2433149"><ele>149.0</ele><time>2026-04-11T08:02:06.435Z</time></trkpt><trkpt lat="45.5549208" lon="9.2424049"><ele>149.66666666666666</ele><time>2026-04-11T08:02:11.436Z</time></trkpt><trkpt lat="45.5549304" lon="9.2421708"><ele>150.33333333333334</ele><time>2026-04-11T08:02:12.436Z</time></trkpt><trkpt lat="45.554984" lon="9.2419469"><ele>151.0</ele><time>2026-04-11T08:02:13.435Z</time></trkpt><trkpt lat="45.5550345" lon="9.2417354"><ele>151.0</ele><time>2026-04-11T08:02:14.435Z</time></trkpt><trkpt lat="45.5550769" lon="9.24153"><ele>151.0</ele><time>2026-04-11T08:02:15.435Z</time></trkpt><trkpt lat="45.5551227" lon="9.2413131"><ele>151.0</ele><time>2026-04-11T08:02:16.436Z</time></trkpt><trkpt lat="45.5551648" lon="9.2410964"><ele>151.0</ele><time>2026-04-11T08:02:17.436Z</time></trkpt><trkpt lat="45.5552075" lon="9.2408912"><ele>151.0</ele><time>2026-04-11T08:02:18.435Z</time></trkpt><trkpt lat="45.5552453" lon="9.2407079"><ele>151.0</ele><time>2026-04-11T08:02:19.436Z</time></trkpt><trkpt lat="45.555296" lon="9.2405533"><ele>151.0</ele><time>2026-04-11T08:02:20.436Z</time></trkpt><trkpt lat="45.5553602" lon="9.2404212"><ele>151.0</ele><time>2026-04-11T08:02:21.435Z</time></trkpt><trkpt lat="45.5554309" lon="9.240309"><ele>151.0</ele><time>2026-04-11T08:02:22.435Z</time></trkpt><trkpt lat="45.555513" lon="9.2402292"><ele>151.0</ele><time>2026-04-11T08:02:23.436Z</time></trkpt><trkpt lat="45.555604" lon="9.2401697"><ele>151.0</ele><time>2026-04-11T08:02:24.435Z</time></trkpt><trkpt lat="45.5556899" lon="9.2401367"><ele>151.0</ele><time>2026-04-11T08:02:25.435Z</time></trkpt><trkpt lat="45.5557929" lon="9.2401258"><ele>151.0</ele><time>2026-04-11T08:02:26.435Z</time></trkpt><trkpt lat="45.5558928" lon="9.2401318"><ele>151.0</ele><time>2026-04-11T08:02:27.435Z</time></trkpt><trkpt lat="45.5560073" lon="9.2401551"><ele>151.0</ele><time>2026-04-11T08:02:28.435Z</time></trkpt><trkpt lat="45.5561267" lon="9.2401871"><ele>151.0</ele><time>2026-04-11T08:02:29.436Z</time></trkpt><trkpt lat="45.5562588" lon="9.2402276"><ele>151.75</ele><time>2026-04-11T08:02:30.435Z</time></trkpt><trkpt lat="45.5563987" lon="9.2402743"><ele>152.5</ele><time>2026-04-11T08:02:31.436Z</time></trkpt><trkpt lat="45.5565406" lon="9.2403171"><ele>153.25</ele><time>2026-04-11T08:02:32.435Z</time></trkpt><trkpt lat="45.556695" lon="9.240367"><ele>154.0</ele><time>2026-04-11T08:02:33.435Z</time></trkpt><trkpt lat="45.5568588" lon="9.2404251"><ele>154.0</ele><time>2026-04-11T08:02:34.436Z</time></trkpt><trkpt lat="45.5570265" lon="9.2404945"><ele>154.0</ele><time>2026-04-11T08:02:35.435Z</time></trkpt><trkpt lat="45.5571882" lon="9.240553"><ele>154.0</ele><time>2026-04-11T08:02:36.435Z</time></trkpt><trkpt lat="45.5573495" lon="9.240617"><ele>153.66666666666669</ele><time>2026-04-11T08:02:37.436Z</time></trkpt><trkpt lat="45.5575206" lon="9.2406907"><ele>153.33333333333334</ele><time>2026-04-11T08:02:38.436Z</time></trkpt><trkpt lat="45.5576932" lon="9.2407568"><ele>153.0</ele><time>2026-04-11T08:02:39.436Z</time></trkpt><trkpt lat="45.5578754" lon="9.2408254"><ele>153.0</ele><time>2026-04-11T08:02:40.436Z</time></trkpt><trkpt lat="45.5580687" lon="9.2409016"><ele>153.0</ele><time>2026-04-11T08:02:41.435Z</time></trkpt><trkpt lat="45.558276" lon="9.2409815"><ele>153.0</ele><time>2026-04-11T08:02:42.436Z</time></trkpt><trkpt lat="45.5584862" lon="9.2410653"><ele>153.0</ele><time>2026-04-11T08:02:43.436Z</time></trkpt><trkpt lat="45.5586857" lon="9.241144"><ele>153.0</ele><time>2026-04-11T08:02:44.435Z</time></trkpt><trkpt lat="45.5588937" lon="9.2412336"><ele>153.0</ele><time>2026-04-11T08:02:45.435Z</time></trkpt><trkpt lat="45.5591004" lon="9.2413195"><ele>153.0</ele><time>2026-04-11T08:02:46.435Z</time></trkpt><trkpt lat="45.5593109" lon="9.2414016"><ele>153.0</ele><time>2026-04-11T08:02:47.435Z</time></trkpt><trkpt lat="45.5595257" lon="9.2414854"><ele>153.0</ele><time>2026-04-11T08:02:48.435Z</time></trkpt><trkpt lat="45.5597406" lon="9.24156"><ele>153.0</ele><time>2026-04-11T08:02:49.435Z</time></trkpt><trkpt lat="45.5599502" lon="9.2416439"><ele>153.0</ele><time>2026-04-11T08:02:50.435Z</time></trkpt><trkpt lat="45.560164" lon="9.2417261"><ele>153.0</ele><time>2026-04-11T08:02:51.435Z</time></trkpt><trkpt lat="45.560379" lon="9.241811"><ele>152.33333333333334</ele><time>2026-04-11T08:02:52.435Z</time></trkpt><trkpt lat="45.5605861" lon="9.2418933"><ele>151.66666666666669</ele><time>2026-04-11T08:02:53.435Z</time></trkpt><trkpt lat="45.5607966" lon="9.2419796"><ele>151.0</ele><time>2026-04-11T08:02:54.435Z</time></trkpt><trkpt lat="45.5610035" lon="9.2420751"><ele>152.66666666666669</ele><time>2026-04-11T08:02:55.435Z</time></trkpt><trkpt lat="45.5612119" lon="9.2421679"><ele>154.33333333333334</ele><time>2026-04-11T08:02:56.436Z</time></trkpt><trkpt lat="45.5614179" lon="9.2422586"><ele>156.0</ele><time>2026-04-11T08:02:57.435Z</time></trkpt><trkpt lat="45.5616232" lon="9.2423478"><ele>156.33333333333334</ele><time>2026-04-11T08:02:58.436Z</time></trkpt><trkpt lat="45.5618305" lon="9.2424283"><ele>156.66666666666669</ele><time>2026-04-11T08:02:59.435Z</time></trkpt><trkpt lat="45.5620359" lon="9.2425152"><ele>157.0</ele><time>2026-04-11T08:03:00.435Z</time></trkpt><trkpt lat="45.5622405" lon="9.2425987"><ele>157.33333333333334</ele><time>2026-04-11T08:03:01.436Z</time></trkpt><trkpt lat="45.5624427" lon="9.2426839"><ele>157.66666666666666</ele><time>2026-04-11T08:03:02.435Z</time></trkpt><trkpt lat="45.5626525" lon="9.2427696"><ele>158.0</ele><time>2026-04-11T08:03:03.435Z</time></trkpt><trkpt lat="45.5628634" lon="9.2428543"><ele>158.0</ele><time>2026-04-11T08:03:04.435Z</time></trkpt><trkpt lat="45.5630775" lon="9.2429364"><ele>158.0</ele><time>2026-04-11T08:03:05.435Z</time></trkpt><trkpt lat="45.5632916" lon="9.2430211"><ele>158.0</ele><time>2026-04-11T08:03:06.435Z</time></trkpt><trkpt lat="45.563515" lon="9.243109"><ele>158.0</ele><time>2026-04-11T08:03:07.435Z</time></trkpt><trkpt lat="45.5637428" lon="9.2431994"><ele>158.0</ele><time>2026-04-11T08:03:08.436Z</time></trkpt><trkpt lat="45.5639663" lon="9.2432827"><ele>158.0</ele><time>2026-04-11T08:03:09.435Z</time></trkpt><trkpt lat="45.5641917" lon="9.2433639"><ele>158.0</ele><time>2026-04-11T08:03:10.435Z</time></trkpt><trkpt lat="45.5644167" lon="9.2434552"><ele>158.5</ele><time>2026-04-11T08:03:11.436Z</time></trkpt><trkpt lat="45.5646387" lon="9.2435457"><ele>159.0</ele><time>2026-04-11T08:03:12.435Z</time></trkpt><trkpt lat="45.5648603" lon="9.2436344"><ele>159.0</ele><time>2026-04-11T08:03:13.435Z</time></trkpt><trkpt lat="45.5650874" lon="9.2437211"><ele>159.0</ele><time>2026-04-11T08:03:14.436Z</time></trkpt><trkpt lat="45.5653203" lon="9.2438051"><ele>159.0</ele><time>2026-04-11T08:03:15.435Z</time></trkpt><trkpt lat="45.5655467" lon="9.2438896"><ele>159.0</ele><time>2026-04-11T08:03:16.436Z</time></trkpt><trkpt lat="45.5657786" lon="9.2439785"><ele>159.0</ele><time>2026-04-11T08:03:17.435Z</time></trkpt><trkpt lat="45.5660091" lon="9.2440652"><ele>159.0</ele><time>2026-04-11T08:03:18.436Z</time></trkpt><trkpt lat="45.5662377" lon="9.2441536"><ele>159.0</ele><time>2026-04-11T08:03:19.435Z</time></trkpt><trkpt lat="45.5664644" lon="9.2442461"><ele>159.0</ele><time>2026-04-11T08:03:20.435Z</time></trkpt><trkpt lat="45.5666917" lon="9.2443353"><ele>159.0</ele><time>2026-04-11T08:03:21.436Z</time></trkpt><trkpt lat="45.5669148" lon="9.2444179"><ele>159.0</ele><time>2026-04-11T08:03:22.435Z</time></trkpt><trkpt lat="45.5671386" lon="9.2445067"><ele>158.5</ele><time>2026-04-11T08:03:23.436Z</time></trkpt><trkpt lat="45.5673579" lon="9.244599"><ele>158.0</ele><time>2026-04-11T08:03:24.435Z</time></trkpt><trkpt lat="45.5675793" lon="9.244686"><ele>158.0</ele><time>2026-04-11T08:03:25.436Z</time></trkpt><trkpt lat="45.567801" lon="9.2447726"><ele>158.0</ele><time>2026-04-11T08:03:26.435Z</time></trkpt><trkpt lat="45.5680307" lon="9.2448595"><ele>159.5</ele><time>2026-04-11T08:03:27.435Z</time></trkpt><trkpt lat="45.5682597" lon="9.2449374"><ele>161.0</ele><time>2026-04-11T08:03:28.435Z</time></trkpt><trkpt lat="45.5684875" lon="9.2450317"><ele>161.5</ele><time>2026-04-11T08:03:29.435Z</time></trkpt><trkpt lat="45.5687162" lon="9.2451281"><ele>162.0</ele><time>2026-04-11T08:03:30.436Z</time></trkpt><trkpt lat="45.5689397" lon="9.2452329"><ele>162.0</ele><time>2026-04-11T08:03:31.436Z</time></trkpt><trkpt lat="45.5691622" lon="9.2453391"><ele>162.0</ele><time>2026-04-11T08:03:32.436Z</time></trkpt><trkpt lat="45.5693811" lon="9.2454489"><ele>171.0</ele><time>2026-04-11T08:03:33.436Z</time></trkpt><trkpt lat="45.5859346" lon="9.2501008"><ele>171.0</ele><time>2026-04-11T08:04:43.436Z</time></trkpt><trkpt lat="45.5861459" lon="9.2499497"><ele>171.0</ele><time>2026-04-11T08:04:44.435Z</time></trkpt><trkpt lat="45.5863656" lon="9.2497668"><ele>171.5</ele><time>2026-04-11T08:04:45.435Z</time></trkpt><trkpt lat="45.5865809" lon="9.2495902"><ele>172.0</ele><time>2026-04-11T08:04:46.435Z</time></trkpt><trkpt lat="45.5867935" lon="9.2494134"><ele>172.0</ele><time>2026-04-11T08:04:47.435Z</time></trkpt><trkpt lat="45.5870048" lon="9.2492343"><ele>172.0</ele><time>2026-04-11T08:04:48.436Z</time></trkpt><trkpt lat="45.5872185" lon="9.2490556"><ele>172.5</ele><time>2026-04-11T08:04:49.436Z</time></trkpt><trkpt lat="45.5874395" lon="9.2488794"><ele>173.0</ele><time>2026-04-11T08:04:50.435Z</time></trkpt><trkpt lat="45.5876572" lon="9.2487011"><ele>173.0</ele><time>2026-04-11T08:04:51.436Z</time></trkpt><trkpt lat="45.587868" lon="9.2485263"><ele>173.0</ele><time>2026-04-11T08:04:52.436Z</time></trkpt><trkpt lat="45.5880862" lon="9.2483463"><ele>173.0</ele><time>2026-04-11T08:04:53.436Z</time></trkpt><trkpt lat="45.5883" lon="9.2481702"><ele>173.0</ele><time>2026-04-11T08:04:54.436Z</time></trkpt><trkpt lat="45.5885134" lon="9.2479872"><ele>173.5</ele><time>2026-04-11T08:04:55.435Z</time></trkpt><trkpt lat="45.5887304" lon="9.2478139"><ele>174.0</ele><time>2026-04-11T08:04:56.436Z</time></trkpt><trkpt lat="45.5889471" lon="9.2476332"><ele>174.0</ele><time>2026-04-11T08:04:57.435Z</time></trkpt><trkpt lat="45.5891638" lon="9.2474596"><ele>174.0</ele><time>2026-04-11T08:04:58.435Z</time></trkpt><trkpt lat="45.5893801" lon="9.2472848"><ele>175.0</ele><time>2026-04-11T08:04:59.436Z</time></trkpt><trkpt lat="45.5895957" lon="9.2471172"><ele>176.0</ele><time>2026-04-11T08:05:00.435Z</time></trkpt><trkpt lat="45.5898194" lon="9.2469463"><ele>176.0</ele><time>2026-04-11T08:05:01.435Z</time></trkpt><trkpt lat="45.5900571" lon="9.2467655"><ele>176.0</ele><time>2026-04-11T08:05:02.435Z</time></trkpt><trkpt lat="45.5903094" lon="9.2465802"><ele>176.0</ele><time>2026-04-11T08:05:03.435Z</time></trkpt><trkpt lat="45.5905689" lon="9.2463907"><ele>176.0</ele><time>2026-04-11T08:05:04.436Z</time></trkpt><trkpt lat="45.5908334" lon="9.2462177"><ele>176.0</ele><time>2026-04-11T08:05:05.435Z</time></trkpt><trkpt lat="45.5911" lon="9.2460576"><ele>176.0</ele><time>2026-04-11T08:05:06.435Z</time></trkpt><trkpt lat="45.5913597" lon="9.2459091"><ele>177.0</ele><time>2026-04-11T08:05:07.435Z</time></trkpt><trkpt lat="45.5916141" lon="9.2457823"><ele>178.0</ele><time>2026-04-11T08:05:08.436Z</time></trkpt><trkpt lat="45.5918618" lon="9.2456622"><ele>177.5</ele><time>2026-04-11T08:05:09.435Z</time></trkpt><trkpt lat="45.5921019" lon="9.2455352"><ele>177.0</ele><time>2026-04-11T08:05:10.435Z</time></trkpt><trkpt lat="45.5923318" lon="9.2454093"><ele>177.0</ele><time>2026-04-11T08:05:11.435Z</time></trkpt><trkpt lat="45.5925589" lon="9.2452799"><ele>177.0</ele><time>2026-04-11T08:05:12.435Z</time></trkpt><trkpt lat="45.5927835" lon="9.2451499"><ele>177.0</ele><time>2026-04-11T08:05:13.435Z</time></trkpt><trkpt lat="45.5930099" lon="9.2450187"><ele>177.0</ele><time>2026-04-11T08:05:14.436Z</time></trkpt><trkpt lat="45.5932325" lon="9.2448968"><ele>176.0</ele><time>2026-04-11T08:05:15.435Z</time></trkpt><trkpt lat="45.5934504" lon="9.2447799"><ele>175.0</ele><time>2026-04-11T08:05:16.435Z</time></trkpt><trkpt lat="45.5936591" lon="9.2446536"><ele>175.0</ele><time>2026-04-11T08:05:17.436Z</time></trkpt><trkpt lat="45.5938605" lon="9.2445381"><ele>175.0</ele><time>2026-04-11T08:05:18.435Z</time></trkpt><trkpt lat="45.5940676" lon="9.2444187"><ele>175.0</ele><time>2026-04-11T08:05:19.435Z</time></trkpt><trkpt lat="45.5942713" lon="9.244305"><ele>175.0</ele><time>2026-04-11T08:05:20.435Z</time></trkpt><trkpt lat="45.5944768" lon="9.2441861"><ele>175.0</ele><time>2026-04-11T08:05:21.435Z</time></trkpt><trkpt lat="45.5946867" lon="9.2440589"><ele>177.0</ele><time>2026-04-11T08:05:22.435Z</time></trkpt><trkpt lat="45.5949015" lon="9.243932"><ele>179.0</ele><time>2026-04-11T08:05:23.435Z</time></trkpt><trkpt lat="45.595115" lon="9.243803"><ele>179.0</ele><time>2026-04-11T08:05:24.435Z</time></trkpt><trkpt lat="45.5953307" lon="9.2436745"><ele>179.0</ele><time>2026-04-11T08:05:25.436Z</time></trkpt><trkpt lat="45.5955413" lon="9.2435522"><ele>179.5</ele><time>2026-04-11T08:05:26.435Z</time></trkpt><trkpt lat="45.5957521" lon="9.2434348"><ele>180.0</ele><time>2026-04-11T08:05:27.435Z</time></trkpt><trkpt lat="45.5959589" lon="9.2433103"><ele>180.0</ele><time>2026-04-11T08:05:28.435Z</time></trkpt><trkpt lat="45.596158" lon="9.2431864"><ele>180.0</ele><time>2026-04-11T08:05:29.436Z</time></trkpt><trkpt lat="45.5963627" lon="9.2430531"><ele>180.0</ele><time>2026-04-11T08:05:30.435Z</time></trkpt><trkpt lat="45.596572" lon="9.242905"><ele>179.0</ele><time>2026-04-11T08:05:31.435Z</time></trkpt><trkpt lat="45.5967794" lon="9.2427432"><ele>178.0</ele><time>2026-04-11T08:05:32.435Z</time></trkpt><trkpt lat="45.5969841" lon="9.2425756"><ele>179.0</ele><time>2026-04-11T08:05:33.436Z</time></trkpt><trkpt lat="45.5971813" lon="9.2423856"><ele>180.0</ele><time>2026-04-11T08:05:34.436Z</time></trkpt><trkpt lat="45.5973759" lon="9.2421791"><ele>180.0</ele><time>2026-04-11T08:05:35.435Z</time></trkpt><trkpt lat="45.5975628" lon="9.2419521"><ele>180.0</ele><time>2026-04-11T08:05:36.435Z</time></trkpt><trkpt lat="45.59773" lon="9.2417123"><ele>180.5</ele><time>2026-04-11T08:05:37.436Z</time></trkpt><trkpt lat="45.5978829" lon="9.2414394"><ele>181.0</ele><time>2026-04-11T08:05:38.435Z</time></trkpt><trkpt lat="45.5980309" lon="9.2411584"><ele>181.0</ele><time>2026-04-11T08:05:39.435Z</time></trkpt><trkpt lat="45.598172" lon="9.2408513"><ele>181.0</ele><time>2026-04-11T08:05:40.436Z</time></trkpt><trkpt lat="45.5983013" lon="9.2405456"><ele>182.0</ele><time>2026-04-11T08:05:41.435Z</time></trkpt><trkpt lat="45.5984166" lon="9.2402158"><ele>183.0</ele><time>2026-04-11T08:05:42.435Z</time></trkpt><trkpt lat="45.5985264" lon="9.2398814"><ele>182.0</ele><time>2026-04-11T08:05:43.435Z</time></trkpt><trkpt lat="45.5986359" lon="9.2395413"><ele>181.0</ele><time>2026-04-11T08:05:44.435Z</time></trkpt><trkpt lat="45.5987408" lon="9.2391974"><ele>180.5</ele><time>2026-04-11T08:05:45.435Z</time></trkpt><trkpt lat="45.5988517" lon="9.2388669"><ele>180.0</ele><time>2026-04-11T08:05:46.435Z</time></trkpt><trkpt lat="45.5989585" lon="9.2385481"><ele>180.0</ele><time>2026-04-11T08:05:47.435Z</time></trkpt><trkpt lat="45.5990646" lon="9.2382263"><ele>180.0</ele><time>2026-04-11T08:05:48.435Z</time></trkpt><trkpt lat="45.5991694" lon="9.2378961"><ele>180.0</ele><time>2026-04-11T08:05:49.435Z</time></trkpt><trkpt lat="45.5992697" lon="9.2375471"><ele>180.0</ele><time>2026-04-11T08:05:50.435Z</time></trkpt><trkpt lat="45.5993642" lon="9.2371949"><ele>180.0</ele><time>2026-04-11T08:05:51.436Z</time></trkpt><trkpt lat="45.5994546" lon="9.2368503"><ele>180.0</ele><time>2026-04-11T08:05:52.435Z</time></trkpt><trkpt lat="45.5995475" lon="9.236514"><ele>182.0</ele><time>2026-04-11T08:05:53.435Z</time></trkpt><trkpt lat="45.59963" lon="9.236179"><ele>184.0</ele><time>2026-04-11T08:05:54.435Z</time></trkpt><trkpt lat="45.599716" lon="9.2358385"><ele>183.5</ele><time>2026-04-11T08:05:55.435Z</time></trkpt><trkpt lat="45.599804" lon="9.2355023"><ele>183.0</ele><time>2026-04-11T08:05:56.436Z</time></trkpt><trkpt lat="45.5998975" lon="9.2351666"><ele>183.0</ele><time>2026-04-11T08:05:57.436Z</time></trkpt><trkpt lat="45.5999898" lon="9.2348319"><ele>183.0</ele><time>2026-04-11T08:05:58.435Z</time></trkpt><trkpt lat="45.6000862" lon="9.2344957"><ele>183.0</ele><time>2026-04-11T08:05:59.435Z</time></trkpt><trkpt lat="45.6001837" lon="9.2341581"><ele>183.0</ele><time>2026-04-11T08:06:00.436Z</time></trkpt><trkpt lat="45.600305" lon="9.2338398"><ele>184.0</ele><time>2026-04-11T08:06:01.435Z</time></trkpt><trkpt lat="45.6004404" lon="9.2335299"><ele>185.0</ele><time>2026-04-11T08:06:02.435Z</time></trkpt><trkpt lat="45.6005946" lon="9.233229"><ele>186.5</ele><time>2026-04-11T08:06:03.435Z</time></trkpt><trkpt lat="45.6007582" lon="9.2329392"><ele>188.0</ele><time>2026-04-11T08:06:04.435Z</time></trkpt><trkpt lat="45.6009413" lon="9.2326576"><ele>188.0</ele><time>2026-04-11T08:06:05.436Z</time></trkpt><trkpt lat="45.6011317" lon="9.232391"><ele>188.0</ele><time>2026-04-11T08:06:06.435Z</time></trkpt><trkpt lat="45.6013323" lon="9.232132"><ele>185.0</ele><time>2026-04-11T08:06:07.435Z</time></trkpt><trkpt lat="45.6015476" lon="9.2318871"><ele>182.0</ele><time>2026-04-11T08:06:08.436Z</time></trkpt><trkpt lat="45.6017606" lon="9.2316476"><ele>182.5</ele><time>2026-04-11T08:06:09.435Z</time></trkpt><trkpt lat="45.6019766" lon="9.231412"><ele>183.0</ele><time>2026-04-11T08:06:10.435Z</time></trkpt><trkpt lat="45.6021848" lon="9.2311788"><ele>183.5</ele><time>2026-04-11T08:06:11.436Z</time></trkpt><trkpt lat="45.6023847" lon="9.2309506"><ele>184.0</ele><time>2026-04-11T08:06:12.435Z</time></trkpt><trkpt lat="45.6025818" lon="9.2307274"><ele>184.0</ele><time>2026-04-11T08:06:13.435Z</time></trkpt><trkpt lat="45.6027782" lon="9.2305078"><ele>184.0</ele><time>2026-04-11T08:06:14.436Z</time></trkpt><trkpt lat="45.6029787" lon="9.2302903"><ele>184.0</ele><time>2026-04-11T08:06:15.435Z</time></trkpt><trkpt lat="45.6031834" lon="9.2300704"><ele>184.0</ele><time>2026-04-11T08:06:16.435Z</time></trkpt><trkpt lat="45.6033899" lon="9.2298514"><ele>184.0</ele><time>2026-04-11T08:06:17.435Z</time></trkpt><trkpt lat="45.6035931" lon="9.2296236"><ele>184.0</ele><time>2026-04-11T08:06:18.435Z</time></trkpt><trkpt lat="45.6037965" lon="9.229394"><ele>184.5</ele><time>2026-04-11T08:06:19.435Z</time></trkpt><trkpt lat="45.6040015" lon="9.2291677"><ele>185.0</ele><time>2026-04-11T08:06:20.435Z</time></trkpt><trkpt lat="45.6042087" lon="9.2289342"><ele>185.0</ele><time>2026-04-11T08:06:21.435Z</time></trkpt><trkpt lat="45.6044178" lon="9.2287055"><ele>185.0</ele><time>2026-04-11T08:06:22.435Z</time></trkpt><trkpt lat="45.6046279" lon="9.2284777"><ele>185.5</ele><time>2026-04-11T08:06:23.435Z</time></trkpt><trkpt lat="45.6048394" lon="9.2282514"><ele>186.0</ele><time>2026-04-11T08:06:24.436Z</time></trkpt><trkpt lat="45.6050476" lon="9.2280274"><ele>186.5</ele><time>2026-04-11T08:06:25.435Z</time></trkpt><trkpt lat="45.605249" lon="9.2277998"><ele>187.0</ele><time>2026-04-11T08:06:26.436Z</time></trkpt><trkpt lat="45.6054495" lon="9.2275702"><ele>187.5</ele><time>2026-04-11T08:06:27.436Z</time></trkpt><trkpt lat="45.6056462" lon="9.2273318"><ele>188.0</ele><time>2026-04-11T08:06:28.435Z</time></trkpt><trkpt lat="45.6058456" lon="9.2271016"><ele>188.5</ele><time>2026-04-11T08:06:29.435Z</time></trkpt><trkpt lat="45.6060448" lon="9.2268708"><ele>189.0</ele><time>2026-04-11T08:06:30.435Z</time></trkpt><trkpt lat="45.606247" lon="9.2266454"><ele>188.5</ele><time>2026-04-11T08:06:31.435Z</time></trkpt><trkpt lat="45.6064483" lon="9.226423"><ele>188.0</ele><time>2026-04-11T08:06:32.435Z</time></trkpt><trkpt lat="45.6066504" lon="9.226195"><ele>188.0</ele><time>2026-04-11T08:06:33.436Z</time></trkpt><trkpt lat="45.6068546" lon="9.2259669"><ele>188.0</ele><time>2026-04-11T08:06:34.435Z</time></trkpt><trkpt lat="45.6070555" lon="9.2257431"><ele>187.0</ele><time>2026-04-11T08:06:35.435Z</time></trkpt><trkpt lat="45.6072541" lon="9.2255163"><ele>186.0</ele><time>2026-04-11T08:06:36.435Z</time></trkpt><trkpt lat="45.6074562" lon="9.2252955"><ele>186.0</ele><time>2026-04-11T08:06:37.435Z</time></trkpt><trkpt lat="45.6076534" lon="9.2250693"><ele>186.0</ele><time>2026-04-11T08:06:38.435Z</time></trkpt><trkpt lat="45.6078536" lon="9.2248477"><ele>187.0</ele><time>2026-04-11T08:06:39.436Z</time></trkpt><trkpt lat="45.6080546" lon="9.224638"><ele>188.0</ele><time>2026-04-11T08:06:40.436Z</time></trkpt><trkpt lat="45.6082673" lon="9.2244402"><ele>188.0</ele><time>2026-04-11T08:06:41.435Z</time></trkpt><trkpt lat="45.6084903" lon="9.2242634"><ele>188.0</ele><time>2026-04-11T08:06:42.435Z</time></trkpt><trkpt lat="45.6087211" lon="9.2241116"><ele>189.5</ele><time>2026-04-11T08:06:43.435Z</time></trkpt><trkpt lat="45.6089562" lon="9.2239898"><ele>191.0</ele><time>2026-04-11T08:06:44.435Z</time></trkpt><trkpt lat="45.6091935" lon="9.2238894"><ele>191.0</ele><time>2026-04-11T08:06:45.436Z</time></trkpt><trkpt lat="45.6094415" lon="9.2238129"><ele>191.0</ele><time>2026-04-11T08:06:46.435Z</time></trkpt><trkpt lat="45.6096916" lon="9.2237674"><ele>191.5</ele><time>2026-04-11T08:06:47.435Z</time></trkpt><trkpt lat="45.6099398" lon="9.2237519"><ele>192.0</ele><time>2026-04-11T08:06:48.435Z</time></trkpt><trkpt lat="45.6101914" lon="9.223755"><ele>191.5</ele><time>2026-04-11T08:06:49.435Z</time></trkpt><trkpt lat="45.6104486" lon="9.2237695"><ele>191.0</ele><time>2026-04-11T08:06:50.436Z</time></trkpt><trkpt lat="45.6107041" lon="9.2237884"><ele>191.0</ele><time>2026-04-11T08:06:51.435Z</time></trkpt><trkpt lat="45.6109638" lon="9.2237996"><ele>191.0</ele><time>2026-04-11T08:06:52.435Z</time></trkpt><trkpt lat="45.6112199" lon="9.2238109"><ele>191.5</ele><time>2026-04-11T08:06:53.436Z</time></trkpt><trkpt lat="45.6114765" lon="9.2238228"><ele>192.0</ele><time>2026-04-11T08:06:54.435Z</time></trkpt><trkpt lat="45.6117315" lon="9.2238334"><ele>192.0</ele><time>2026-04-11T08:06:55.435Z</time></trkpt><trkpt lat="45.611986" lon="9.2238389"><ele>192.0</ele><time>2026-04-11T08:06:56.435Z</time></trkpt><trkpt lat="45.6122395" lon="9.2238503"><ele>191.5</ele><time>2026-04-11T08:06:57.435Z</time></trkpt><trkpt lat="45.6124947" lon="9.2238609"><ele>191.0</ele><time>2026-04-11T08:06:58.436Z</time></trkpt><trkpt lat="45.6127546" lon="9.2238689"><ele>192.0</ele><time>2026-04-11T08:06:59.436Z</time></trkpt><trkpt lat="45.6130192" lon="9.2238833"><ele>193.0</ele><time>2026-04-11T08:07:00.435Z</time></trkpt><trkpt lat="45.6132787" lon="9.2238974"><ele>193.0</ele><time>2026-04-11T08:07:01.436Z</time></trkpt><trkpt lat="45.6135415" lon="9.2239077"><ele>193.0</ele><time>2026-04-11T08:07:02.435Z</time></trkpt><trkpt lat="45.6138017" lon="9.2239216"><ele>192.0</ele><time>2026-04-11T08:07:03.436Z</time></trkpt><trkpt lat="45.6140621" lon="9.2239433"><ele>191.0</ele><time>2026-04-11T08:07:04.435Z</time></trkpt><trkpt lat="45.6143199" lon="9.2239643"><ele>190.5</ele><time>2026-04-11T08:07:05.435Z</time></trkpt><trkpt lat="45.6145735" lon="9.2239824"><ele>190.0</ele><time>2026-04-11T08:07:06.436Z</time></trkpt><trkpt lat="45.6148312" lon="9.2239986"><ele>190.0</ele><time>2026-04-11T08:07:07.435Z</time></trkpt><trkpt lat="45.6150846" lon="9.2240104"><ele>190.0</ele><time>2026-04-11T08:07:08.436Z</time></trkpt><trkpt lat="45.6153425" lon="9.2240215"><ele>192.5</ele><time>2026-04-11T08:07:09.435Z</time></trkpt><trkpt lat="45.6155986" lon="9.224035"><ele>195.0</ele><time>2026-04-11T08:07:10.436Z</time></trkpt><trkpt lat="45.6158593" lon="9.2240491"><ele>195.0</ele><time>2026-04-11T08:07:11.435Z</time></trkpt><trkpt lat="45.6161185" lon="9.2240645"><ele>195.0</ele><time>2026-04-11T08:07:12.435Z</time></trkpt><trkpt lat="45.61638" lon="9.2240771"><ele>194.5</ele><time>2026-04-11T08:07:13.435Z</time></trkpt><trkpt lat="45.6166474" lon="9.224093"><ele>194.0</ele><time>2026-04-11T08:07:14.435Z</time></trkpt><trkpt lat="45.6169164" lon="9.2241077"><ele>194.5</ele><time>2026-04-11T08:07:15.435Z</time></trkpt><trkpt lat="45.6171782" lon="9.2241227"><ele>195.0</ele><time>2026-04-11T08:07:16.435Z</time></trkpt><trkpt lat="45.6174402" lon="9.2241334"><ele>195.0</ele><time>2026-04-11T08:07:17.436Z</time></trkpt><trkpt lat="45.6177051" lon="9.2241425"><ele>195.0</ele><time>2026-04-11T08:07:18.435Z</time></trkpt><trkpt lat="45.6179678" lon="9.2241544"><ele>195.0</ele><time>2026-04-11T08:07:19.435Z</time></trkpt><trkpt lat="45.618234" lon="9.224162"><ele>195.0</ele><time>2026-04-11T08:07:20.435Z</time></trkpt><trkpt lat="45.6185043" lon="9.2241766"><ele>195.0</ele><time>2026-04-11T08:07:21.435Z</time></trkpt><trkpt lat="45.6187725" lon="9.2241879"><ele>195.0</ele><time>2026-04-11T08:07:22.435Z</time></trkpt><trkpt lat="45.6190402" lon="9.2241969"><ele>195.0</ele><time>2026-04-11T08:07:23.435Z</time></trkpt><trkpt lat="45.6193072" lon="9.2242123"><ele>195.0</ele><time>2026-04-11T08:07:24.436Z</time></trkpt><trkpt lat="45.6195754" lon="9.2242205"><ele>195.5</ele><time>2026-04-11T08:07:25.436Z</time></trkpt><trkpt lat="45.6198422" lon="9.2242354"><ele>196.0</ele><time>2026-04-11T08:07:26.435Z</time></trkpt><trkpt lat="45.6201048" lon="9.2242513"><ele>197.0</ele><time>2026-04-11T08:07:27.436Z</time></trkpt><trkpt lat="45.620365" lon="9.2242676"><ele>198.0</ele><time>2026-04-11T08:07:28.436Z</time></trkpt><trkpt lat="45.6206239" lon="9.2242854"><ele>198.0</ele><time>2026-04-11T08:07:29.436Z</time></trkpt><trkpt lat="45.6208787" lon="9.2242981"><ele>198.0</ele><time>2026-04-11T08:07:30.436Z</time></trkpt><trkpt lat="45.621131" lon="9.2243092"><ele>198.5</ele><time>2026-04-11T08:07:31.435Z</time></trkpt><trkpt lat="45.6213887" lon="9.2243289"><ele>199.0</ele><time>2026-04-11T08:07:32.435Z</time></trkpt><trkpt lat="45.6216547" lon="9.2243418"><ele>199.0</ele><time>2026-04-11T08:07:33.436Z</time></trkpt><trkpt lat="45.6219156" lon="9.2243561"><ele>199.0</ele><time>2026-04-11T08:07:34.435Z</time></trkpt><trkpt lat="45.6221761" lon="9.2243684"><ele>198.5</ele><time>2026-04-11T08:07:35.435Z</time></trkpt><trkpt lat="45.6224419" lon="9.2243766"><ele>198.0</ele><time>2026-04-11T08:07:36.435Z</time></trkpt><trkpt lat="45.6227057" lon="9.2243905"><ele>198.0</ele><time>2026-04-11T08:07:37.435Z</time></trkpt><trkpt lat="45.6229709" lon="9.2244035"><ele>198.0</ele><time>2026-04-11T08:07:38.436Z</time></trkpt><trkpt lat="45.6232343" lon="9.2244175"><ele>198.0</ele><time>2026-04-11T08:07:39.435Z</time></trkpt><trkpt lat="45.6234952" lon="9.224433"><ele>198.0</ele><time>2026-04-11T08:07:40.434Z</time></trkpt><trkpt lat="45.6237578" lon="9.2244446"><ele>198.0</ele><time>2026-04-11T08:07:41.434Z</time></trkpt><trkpt lat="45.6240219" lon="9.2244691"><ele>198.0</ele><time>2026-04-11T08:07:42.434Z</time></trkpt><trkpt lat="45.6242837" lon="9.2244833"><ele>198.0</ele><time>2026-04-11T08:07:43.434Z</time></trkpt><trkpt lat="45.6245525" lon="9.224503"><ele>198.0</ele><time>2026-04-11T08:07:44.434Z</time></trkpt><trkpt lat="45.6248193" lon="9.2245181"><ele>198.0</ele><time>2026-04-11T08:07:45.434Z</time></trkpt><trkpt lat="45.6250851" lon="9.2245347"><ele>198.0</ele><time>2026-04-11T08:07:46.435Z</time></trkpt><trkpt lat="45.6253463" lon="9.2245491"><ele>199.0</ele><time>2026-04-11T08:07:47.435Z</time></trkpt><trkpt lat="45.6256092" lon="9.2245632"><ele>200.0</ele><time>2026-04-11T08:07:48.434Z</time></trkpt><trkpt lat="45.6258689" lon="9.2245746"><ele>200.0</ele><time>2026-04-11T08:07:49.434Z</time></trkpt><trkpt lat="45.6261256" lon="9.2245907"><ele>200.0</ele><time>2026-04-11T08:07:50.435Z</time></trkpt><trkpt lat="45.6263825" lon="9.2246004"><ele>200.0</ele><time>2026-04-11T08:07:51.434Z</time></trkpt><trkpt lat="45.6266345" lon="9.2246105"><ele>200.0</ele><time>2026-04-11T08:07:52.435Z</time></trkpt><trkpt lat="45.6268863" lon="9.2246236"><ele>202.0</ele><time>2026-04-11T08:07:53.434Z</time></trkpt><trkpt lat="45.6271436" lon="9.2246304"><ele>204.0</ele><time>2026-04-11T08:07:54.434Z</time></trkpt><trkpt lat="45.6273943" lon="9.2246418"><ele>204.0</ele><time>2026-04-11T08:07:55.434Z</time></trkpt><trkpt lat="45.6276462" lon="9.2246581"><ele>204.0</ele><time>2026-04-11T08:07:56.434Z</time></trkpt><trkpt lat="45.6278978" lon="9.2246757"><ele>204.5</ele><time>2026-04-11T08:07:57.435Z</time></trkpt><trkpt lat="45.6281568" lon="9.2246885"><ele>205.0</ele><time>2026-04-11T08:07:58.434Z</time></trkpt><trkpt lat="45.6284209" lon="9.2247026"><ele>204.0</ele><time>2026-04-11T08:07:59.435Z</time></trkpt><trkpt lat="45.6286741" lon="9.2247167"><ele>203.0</ele><time>2026-04-11T08:08:00.434Z</time></trkpt><trkpt lat="45.628918" lon="9.2247304"><ele>203.0</ele><time>2026-04-11T08:08:01.434Z</time></trkpt><trkpt lat="45.6291693" lon="9.2247449"><ele>203.0</ele><time>2026-04-11T08:08:02.434Z</time></trkpt><trkpt lat="45.6294141" lon="9.2247619"><ele>203.0</ele><time>2026-04-11T08:08:03.434Z</time></trkpt><trkpt lat="45.6296534" lon="9.2247783"><ele>203.0</ele><time>2026-04-11T08:08:04.434Z</time></trkpt><trkpt lat="45.6298836" lon="9.2247998"><ele>203.0</ele><time>2026-04-11T08:08:05.434Z</time></trkpt><trkpt lat="45.6301104" lon="9.2248102"><ele>203.0</ele><time>2026-04-11T08:08:06.434Z</time></trkpt><trkpt lat="45.6303384" lon="9.224819"><ele>203.66666666666669</ele><time>2026-04-11T08:08:07.434Z</time></trkpt><trkpt lat="45.6305617" lon="9.2248233"><ele>204.33333333333331</ele><time>2026-04-11T08:08:08.434Z</time></trkpt><trkpt lat="45.6307819" lon="9.2248299"><ele>205.0</ele><time>2026-04-11T08:08:09.435Z</time></trkpt><trkpt lat="45.6309971" lon="9.2248395"><ele>205.33333333333331</ele><time>2026-04-11T08:08:10.434Z</time></trkpt><trkpt lat="45.6312075" lon="9.2248491"><ele>205.66666666666669</ele><time>2026-04-11T08:08:11.434Z</time></trkpt><trkpt lat="45.6314153" lon="9.2248575"><ele>206.0</ele><time>2026-04-11T08:08:12.435Z</time></trkpt><trkpt lat="45.6316327" lon="9.2248624"><ele>206.0</ele><time>2026-04-11T08:08:13.435Z</time></trkpt><trkpt lat="45.6318673" lon="9.2248668"><ele>206.0</ele><time>2026-04-11T08:08:14.435Z</time></trkpt><trkpt lat="45.6321126" lon="9.2248695"><ele>206.5</ele><time>2026-04-11T08:08:15.434Z</time></trkpt><trkpt lat="45.6323714" lon="9.2248891"><ele>207.0</ele><time>2026-04-11T08:08:16.434Z</time></trkpt><trkpt lat="45.6326339" lon="9.2249076"><ele>207.0</ele><time>2026-04-11T08:08:17.435Z</time></trkpt><trkpt lat="45.6328972" lon="9.2249181"><ele>207.0</ele><time>2026-04-11T08:08:18.434Z</time></trkpt><trkpt lat="45.6331624" lon="9.2249259"><ele>207.0</ele><time>2026-04-11T08:08:19.435Z</time></trkpt><trkpt lat="45.6334278" lon="9.2249314"><ele>207.0</ele><time>2026-04-11T08:08:20.434Z</time></trkpt><trkpt lat="45.6336949" lon="9.2249359"><ele>207.5</ele><time>2026-04-11T08:08:21.434Z</time></trkpt><trkpt lat="45.6339675" lon="9.2249496"><ele>208.0</ele><time>2026-04-11T08:08:22.434Z</time></trkpt><trkpt lat="45.634241" lon="9.2249668"><ele>208.5</ele><time>2026-04-11T08:08:23.434Z</time></trkpt><trkpt lat="45.6345083" lon="9.2249886"><ele>209.0</ele><time>2026-04-11T08:08:24.434Z</time></trkpt><trkpt lat="45.6347706" lon="9.2250013"><ele>209.0</ele><time>2026-04-11T08:08:25.434Z</time></trkpt><trkpt lat="45.6350335" lon="9.2250183"><ele>209.0</ele><time>2026-04-11T08:08:26.434Z</time></trkpt><trkpt lat="45.6352965" lon="9.2250269"><ele>210.0</ele><time>2026-04-11T08:08:27.435Z</time></trkpt><trkpt lat="45.6355637" lon="9.2250417"><ele>211.0</ele><time>2026-04-11T08:08:28.435Z</time></trkpt><trkpt lat="45.6358265" lon="9.2250579"><ele>211.0</ele><time>2026-04-11T08:08:29.434Z</time></trkpt><trkpt lat="45.6360937" lon="9.2250761"><ele>211.0</ele><time>2026-04-11T08:08:30.434Z</time></trkpt><trkpt lat="45.6363626" lon="9.2250936"><ele>210.5</ele><time>2026-04-11T08:08:31.435Z</time></trkpt><trkpt lat="45.6366348" lon="9.2251128"><ele>210.0</ele><time>2026-04-11T08:08:32.434Z</time></trkpt><trkpt lat="45.6369119" lon="9.2251257"><ele>210.0</ele><time>2026-04-11T08:08:33.434Z</time></trkpt><trkpt lat="45.6371901" lon="9.2251352"><ele>210.0</ele><time>2026-04-11T08:08:34.435Z</time></trkpt><trkpt lat="45.6374725" lon="9.2251452"><ele>210.0</ele><time>2026-04-11T08:08:35.435Z</time></trkpt><trkpt lat="45.6377526" lon="9.225164"><ele>210.0</ele><time>2026-04-11T08:08:36.435Z</time></trkpt><trkpt lat="45.638028" lon="9.2251766"><ele>211.0</ele><time>2026-04-11T08:08:37.434Z</time></trkpt><trkpt lat="45.6382958" lon="9.2251916"><ele>212.0</ele><time>2026-04-11T08:08:38.434Z</time></trkpt><trkpt lat="45.6385532" lon="9.2252032"><ele>213.5</ele><time>2026-04-11T08:08:39.434Z</time></trkpt><trkpt lat="45.6387963" lon="9.2252195"><ele>215.0</ele><time>2026-04-11T08:08:40.434Z</time></trkpt><trkpt lat="45.6390434" lon="9.225225"><ele>215.0</ele><time>2026-04-11T08:08:41.434Z</time></trkpt><trkpt lat="45.639296" lon="9.225237"><ele>215.0</ele><time>2026-04-11T08:08:42.434Z</time></trkpt><trkpt lat="45.6395626" lon="9.2252491"><ele>215.5</ele><time>2026-04-11T08:08:43.434Z</time></trkpt><trkpt lat="45.6398196" lon="9.2252569"><ele>216.0</ele><time>2026-04-11T08:08:44.434Z</time></trkpt><trkpt lat="45.6400685" lon="9.2252739"><ele>215.5</ele><time>2026-04-11T08:08:45.435Z</time></trkpt><trkpt lat="45.6403095" lon="9.2252965"><ele>215.0</ele><time>2026-04-11T08:08:46.435Z</time></trkpt><trkpt lat="45.640562" lon="9.2253069"><ele>215.0</ele><time>2026-04-11T08:08:47.435Z</time></trkpt><trkpt lat="45.6408335" lon="9.2253116"><ele>215.0</ele><time>2026-04-11T08:08:48.435Z</time></trkpt><trkpt lat="45.6411161" lon="9.2253261"><ele>216.0</ele><time>2026-04-11T08:08:49.434Z</time></trkpt><trkpt lat="45.6414098" lon="9.2253453"><ele>217.0</ele><time>2026-04-11T08:08:50.435Z</time></trkpt><trkpt lat="45.6416988" lon="9.2253725"><ele>217.0</ele><time>2026-04-11T08:08:51.435Z</time></trkpt><trkpt lat="45.6419738" lon="9.2253979"><ele>217.0</ele><time>2026-04-11T08:08:52.434Z</time></trkpt><trkpt lat="45.6422355" lon="9.2254181"><ele>217.0</ele><time>2026-04-11T08:08:53.434Z</time></trkpt><trkpt lat="45.6424949" lon="9.2254326"><ele>217.0</ele><time>2026-04-11T08:08:54.434Z</time></trkpt><trkpt lat="45.6427447" lon="9.2254484"><ele>218.0</ele><time>2026-04-11T08:08:55.435Z</time></trkpt><trkpt lat="45.6429977" lon="9.2254623"><ele>219.0</ele><time>2026-04-11T08:08:56.435Z</time></trkpt><trkpt lat="45.6432485" lon="9.2254714"><ele>219.0</ele><time>2026-04-11T08:08:57.434Z</time></trkpt><trkpt lat="45.6434962" lon="9.2254901"><ele>219.0</ele><time>2026-04-11T08:08:58.434Z</time></trkpt><trkpt lat="45.6437479" lon="9.2255036"><ele>219.0</ele><time>2026-04-11T08:08:59.434Z</time></trkpt><trkpt lat="45.6439973" lon="9.2255198"><ele>219.0</ele><time>2026-04-11T08:09:00.435Z</time></trkpt><trkpt lat="45.644249" lon="9.2255359"><ele>218.5</ele><time>2026-04-11T08:09:01.435Z</time></trkpt><trkpt lat="45.644497" lon="9.2255485"><ele>218.0</ele><time>2026-04-11T08:09:02.434Z</time></trkpt><trkpt lat="45.6447469" lon="9.2255587"><ele>218.0</ele><time>2026-04-11T08:09:03.435Z</time></trkpt><trkpt lat="45.6449963" lon="9.2255716"><ele>218.0</ele><time>2026-04-11T08:09:04.435Z</time></trkpt><trkpt lat="45.6452441" lon="9.225583"><ele>219.0</ele><time>2026-04-11T08:09:05.435Z</time></trkpt><trkpt lat="45.6454935" lon="9.2255982"><ele>220.0</ele><time>2026-04-11T08:09:06.434Z</time></trkpt><trkpt lat="45.6457422" lon="9.2256135"><ele>220.0</ele><time>2026-04-11T08:09:07.434Z</time></trkpt><trkpt lat="45.6459915" lon="9.2256289"><ele>220.0</ele><time>2026-04-11T08:09:08.434Z</time></trkpt><trkpt lat="45.6462397" lon="9.2256377"><ele>219.0</ele><time>2026-04-11T08:09:09.435Z</time></trkpt><trkpt lat="45.6464904" lon="9.2256432"><ele>218.0</ele><time>2026-04-11T08:09:10.434Z</time></trkpt><trkpt lat="45.6467425" lon="9.2256562"><ele>219.0</ele><time>2026-04-11T08:09:11.435Z</time></trkpt><trkpt lat="45.6469924" lon="9.2256734"><ele>220.0</ele><time>2026-04-11T08:09:12.435Z</time></trkpt><trkpt lat="45.64724" lon="9.2256862"><ele>220.0</ele><time>2026-04-11T08:09:13.435Z</time></trkpt><trkpt lat="45.6474895" lon="9.2256999"><ele>220.0</ele><time>2026-04-11T08:09:14.434Z</time></trkpt><trkpt lat="45.6477371" lon="9.2257144"><ele>219.5</ele><time>2026-04-11T08:09:15.435Z</time></trkpt><trkpt lat="45.6479835" lon="9.2257263"><ele>219.0</ele><time>2026-04-11T08:09:16.434Z</time></trkpt><trkpt lat="45.6482336" lon="9.2257421"><ele>219.0</ele><time>2026-04-11T08:09:17.434Z</time></trkpt><trkpt lat="45.648482" lon="9.2257505"><ele>219.0</ele><time>2026-04-11T08:09:18.434Z</time></trkpt><trkpt lat="45.6487306" lon="9.2257504"><ele>220.0</ele><time>2026-04-11T08:09:19.434Z</time></trkpt><trkpt lat="45.648981" lon="9.2257532"><ele>221.0</ele><time>2026-04-11T08:09:20.434Z</time></trkpt><trkpt lat="45.6492292" lon="9.2257609"><ele>221.0</ele><time>2026-04-11T08:09:21.434Z</time></trkpt><trkpt lat="45.6494832" lon="9.2257697"><ele>221.0</ele><time>2026-04-11T08:09:22.434Z</time></trkpt><trkpt lat="45.6497386" lon="9.2257834"><ele>221.0</ele><time>2026-04-11T08:09:23.434Z</time></trkpt><trkpt lat="45.6499918" lon="9.2257929"><ele>221.0</ele><time>2026-04-11T08:09:24.434Z</time></trkpt><trkpt lat="45.6502428" lon="9.2258089"><ele>222.5</ele><time>2026-04-11T08:09:25.434Z</time></trkpt><trkpt lat="45.6504947" lon="9.2258179"><ele>224.0</ele><time>2026-04-11T08:09:26.434Z</time></trkpt><trkpt lat="45.6507447" lon="9.2258313"><ele>224.0</ele><time>2026-04-11T08:09:27.434Z</time></trkpt><trkpt lat="45.6509953" lon="9.2258485"><ele>224.0</ele><time>2026-04-11T08:09:28.434Z</time></trkpt><trkpt lat="45.6512445" lon="9.2258605"><ele>224.5</ele><time>2026-04-11T08:09:29.435Z</time></trkpt><trkpt lat="45.6514948" lon="9.2258797"><ele>225.0</ele><time>2026-04-11T08:09:30.434Z</time></trkpt><trkpt lat="45.6517413" lon="9.2258956"><ele>224.0</ele><time>2026-04-11T08:09:31.434Z</time></trkpt><trkpt lat="45.6519887" lon="9.2259213"><ele>223.0</ele><time>2026-04-11T08:09:32.435Z</time></trkpt><trkpt lat="45.6522396" lon="9.2259348"><ele>223.0</ele><time>2026-04-11T08:09:33.435Z</time></trkpt><trkpt lat="45.6524904" lon="9.2259453"><ele>223.0</ele><time>2026-04-11T08:09:34.434Z</time></trkpt><trkpt lat="45.652741" lon="9.2259583"><ele>224.0</ele><time>2026-04-11T08:09:35.435Z</time></trkpt><trkpt lat="45.6529891" lon="9.2259708"><ele>225.0</ele><time>2026-04-11T08:09:36.435Z</time></trkpt><trkpt lat="45.6532376" lon="9.2259889"><ele>225.0</ele><time>2026-04-11T08:09:37.434Z</time></trkpt><trkpt lat="45.6534833" lon="9.2260052"><ele>225.0</ele><time>2026-04-11T08:09:38.434Z</time></trkpt><trkpt lat="45.6537294" lon="9.2260176"><ele>225.5</ele><time>2026-04-11T08:09:39.434Z</time></trkpt><trkpt lat="45.6539793" lon="9.2260311"><ele>226.0</ele><time>2026-04-11T08:09:40.435Z</time></trkpt><trkpt lat="45.6542248" lon="9.2260464"><ele>225.5</ele><time>2026-04-11T08:09:41.434Z</time></trkpt><trkpt lat="45.6544752" lon="9.2260619"><ele>225.0</ele><time>2026-04-11T08:09:42.435Z</time></trkpt><trkpt lat="45.6547237" lon="9.2260776"><ele>225.0</ele><time>2026-04-11T08:09:43.435Z</time></trkpt><trkpt lat="45.6549767" lon="9.2260921"><ele>225.0</ele><time>2026-04-11T08:09:44.434Z</time></trkpt><trkpt lat="45.6552288" lon="9.226097"><ele>227.0</ele><time>2026-04-11T08:09:45.435Z</time></trkpt><trkpt lat="45.6554798" lon="9.2260977"><ele>229.0</ele><time>2026-04-11T08:09:46.434Z</time></trkpt><trkpt lat="45.6557301" lon="9.2260914"><ele>229.0</ele><time>2026-04-11T08:09:47.434Z</time></trkpt><trkpt lat="45.6559794" lon="9.2260675"><ele>229.0</ele><time>2026-04-11T08:09:48.435Z</time></trkpt><trkpt lat="45.6562264" lon="9.2260229"><ele>229.0</ele><time>2026-04-11T08:09:49.434Z</time></trkpt><trkpt lat="45.6564745" lon="9.225962"><ele>229.0</ele><time>2026-04-11T08:09:50.435Z</time></trkpt><trkpt lat="45.6567192" lon="9.2258849"><ele>227.5</ele><time>2026-04-11T08:09:51.434Z</time></trkpt><trkpt lat="45.6569636" lon="9.2257972"><ele>226.0</ele><time>2026-04-11T08:09:52.435Z</time></trkpt><trkpt lat="45.6572101" lon="9.2257065"><ele>227.5</ele><time>2026-04-11T08:09:53.434Z</time></trkpt><trkpt lat="45.6574514" lon="9.2256111"><ele>229.0</ele><time>2026-04-11T08:09:54.434Z</time></trkpt><trkpt lat="45.6576919" lon="9.2255213"><ele>230.0</ele><time>2026-04-11T08:09:55.434Z</time></trkpt><trkpt lat="45.6579465" lon="9.2254262"><ele>231.0</ele><time>2026-04-11T08:09:56.434Z</time></trkpt><trkpt lat="45.6582157" lon="9.2253318"><ele>231.0</ele><time>2026-04-11T08:09:57.434Z</time></trkpt><trkpt lat="45.6584793" lon="9.2252432"><ele>231.0</ele><time>2026-04-11T08:09:58.434Z</time></trkpt><trkpt lat="45.6587315" lon="9.225152"><ele>231.0</ele><time>2026-04-11T08:09:59.435Z</time></trkpt><trkpt lat="45.6589746" lon="9.2250593"><ele>231.0</ele><time>2026-04-11T08:10:00.434Z</time></trkpt><trkpt lat="45.6592133" lon="9.2249676"><ele>230.5</ele><time>2026-04-11T08:10:01.435Z</time></trkpt><trkpt lat="45.6594564" lon="9.2248837"><ele>230.0</ele><time>2026-04-11T08:10:02.434Z</time></trkpt><trkpt lat="45.6597001" lon="9.2247994"><ele>230.0</ele><time>2026-04-11T08:10:03.434Z</time></trkpt><trkpt lat="45.6599404" lon="9.2247113"><ele>230.0</ele><time>2026-04-11T08:10:04.434Z</time></trkpt><trkpt lat="45.660182" lon="9.2246216"><ele>230.0</ele><time>2026-04-11T08:10:05.434Z</time></trkpt><trkpt lat="45.6604251" lon="9.2245377"><ele>230.0</ele><time>2026-04-11T08:10:06.434Z</time></trkpt><trkpt lat="45.6606667" lon="9.2244517"><ele>230.0</ele><time>2026-04-11T08:10:07.434Z</time></trkpt><trkpt lat="45.6609075" lon="9.2243657"><ele>230.0</ele><time>2026-04-11T08:10:08.434Z</time></trkpt><trkpt lat="45.6611518" lon="9.2242798"><ele>231.5</ele><time>2026-04-11T08:10:09.434Z</time></trkpt><trkpt lat="45.6613954" lon="9.2241968"><ele>233.0</ele><time>2026-04-11T08:10:10.434Z</time></trkpt><trkpt lat="45.6616377" lon="9.2241103"><ele>233.0</ele><time>2026-04-11T08:10:11.435Z</time></trkpt><trkpt lat="45.6618793" lon="9.2240215"><ele>233.0</ele><time>2026-04-11T08:10:12.434Z</time></trkpt><trkpt lat="45.6621228" lon="9.2239342"><ele>233.0</ele><time>2026-04-11T08:10:13.435Z</time></trkpt><trkpt lat="45.6623659" lon="9.2238463"><ele>233.0</ele><time>2026-04-11T08:10:14.434Z</time></trkpt><trkpt lat="45.6626082" lon="9.223765"><ele>233.0</ele><time>2026-04-11T08:10:15.435Z</time></trkpt><trkpt lat="45.6628513" lon="9.2236792"><ele>233.0</ele><time>2026-04-11T08:10:16.434Z</time></trkpt><trkpt lat="45.6630966" lon="9.2235891"><ele>233.0</ele><time>2026-04-11T08:10:17.434Z</time></trkpt><trkpt lat="45.6633613" lon="9.2234919"><ele>233.0</ele><time>2026-04-11T08:10:18.434Z</time></trkpt><trkpt lat="45.6636446" lon="9.2233982"><ele>233.5</ele><time>2026-04-11T08:10:19.434Z</time></trkpt><trkpt lat="45.6639426" lon="9.2232866"><ele>234.0</ele><time>2026-04-11T08:10:20.434Z</time></trkpt><trkpt lat="45.6642489" lon="9.2231816"><ele>235.0</ele><time>2026-04-11T08:10:21.434Z</time></trkpt><trkpt lat="45.6645602" lon="9.2230631"><ele>236.0</ele><time>2026-04-11T08:10:22.434Z</time></trkpt><trkpt lat="45.664869" lon="9.2229501"><ele>236.0</ele><time>2026-04-11T08:10:23.434Z</time></trkpt><trkpt lat="45.665165" lon="9.2228469"><ele>236.0</ele><time>2026-04-11T08:10:24.434Z</time></trkpt><trkpt lat="45.6654478" lon="9.2227466"><ele>236.0</ele><time>2026-04-11T08:10:25.434Z</time></trkpt><trkpt lat="45.6657234" lon="9.222647"><ele>236.0</ele><time>2026-04-11T08:10:26.434Z</time></trkpt><trkpt lat="45.6659844" lon="9.2225523"><ele>237.0</ele><time>2026-04-11T08:10:27.434Z</time></trkpt><trkpt lat="45.6662445" lon="9.2224606"><ele>238.0</ele><time>2026-04-11T08:10:28.434Z</time></trkpt><trkpt lat="45.6664931" lon="9.2223696"><ele>239.0</ele><time>2026-04-11T08:10:29.435Z</time></trkpt><trkpt lat="45.6667486" lon="9.2222792"><ele>240.0</ele><time>2026-04-11T08:10:30.434Z</time></trkpt><trkpt lat="45.6670043" lon="9.222183"><ele>237.5</ele><time>2026-04-11T08:10:31.434Z</time></trkpt><trkpt lat="45.6672631" lon="9.2220965"><ele>235.0</ele><time>2026-04-11T08:10:32.434Z</time></trkpt><trkpt lat="45.6675229" lon="9.2220098"><ele>236.0</ele><time>2026-04-11T08:10:33.435Z</time></trkpt><trkpt lat="45.6677812" lon="9.2219168"><ele>237.0</ele><time>2026-04-11T08:10:34.434Z</time></trkpt><trkpt lat="45.6680438" lon="9.2218241"><ele>237.0</ele><time>2026-04-11T08:10:35.434Z</time></trkpt><trkpt lat="45.6683106" lon="9.2217242"><ele>237.0</ele><time>2026-04-11T08:10:36.434Z</time></trkpt><trkpt lat="45.668576" lon="9.2216264"><ele>236.5</ele><time>2026-04-11T08:10:37.434Z</time></trkpt><trkpt lat="45.6688422" lon="9.2215327"><ele>236.0</ele><time>2026-04-11T08:10:38.434Z</time></trkpt><trkpt lat="45.6691063" lon="9.2214381"><ele>235.0</ele><time>2026-04-11T08:10:39.434Z</time></trkpt><trkpt lat="45.6693614" lon="9.2213524"><ele>234.0</ele><time>2026-04-11T08:10:40.434Z</time></trkpt><trkpt lat="45.6696136" lon="9.2212665"><ele>236.5</ele><time>2026-04-11T08:10:41.434Z</time></trkpt><trkpt lat="45.6698629" lon="9.2211814"><ele>239.0</ele><time>2026-04-11T08:10:42.434Z</time></trkpt><trkpt lat="45.6701113" lon="9.2210965"><ele>238.5</ele><time>2026-04-11T08:10:43.434Z</time></trkpt><trkpt lat="45.6703594" lon="9.2210091"><ele>238.0</ele><time>2026-04-11T08:10:44.434Z</time></trkpt><trkpt lat="45.6706043" lon="9.2209253"><ele>238.0</ele><time>2026-04-11T08:10:45.435Z</time></trkpt><trkpt lat="45.6708478" lon="9.2208377"><ele>238.0</ele><time>2026-04-11T08:10:46.434Z</time></trkpt><trkpt lat="45.6710905" lon="9.220751"><ele>238.5</ele><time>2026-04-11T08:10:47.435Z</time></trkpt><trkpt lat="45.6713344" lon="9.2206596"><ele>239.0</ele><time>2026-04-11T08:10:48.434Z</time></trkpt><trkpt lat="45.6715784" lon="9.2205682"><ele>239.5</ele><time>2026-04-11T08:10:49.434Z</time></trkpt><trkpt lat="45.6718245" lon="9.2204781"><ele>240.0</ele><time>2026-04-11T08:10:50.434Z</time></trkpt><trkpt lat="45.672074" lon="9.2203922"><ele>241.0</ele><time>2026-04-11T08:10:51.434Z</time></trkpt><trkpt lat="45.6723236" lon="9.2203048"><ele>242.0</ele><time>2026-04-11T08:10:52.434Z</time></trkpt><trkpt lat="45.6725718" lon="9.2202185"><ele>243.0</ele><time>2026-04-11T08:10:53.434Z</time></trkpt><trkpt lat="45.6728208" lon="9.2201255"><ele>244.0</ele><time>2026-04-11T08:10:54.435Z</time></trkpt><trkpt lat="45.6730774" lon="9.2200346"><ele>244.0</ele><time>2026-04-11T08:10:55.435Z</time></trkpt><trkpt lat="45.6733306" lon="9.2199402"><ele>244.0</ele><time>2026-04-11T08:10:56.434Z</time></trkpt><trkpt lat="45.6735829" lon="9.2198465"><ele>244.5</ele><time>2026-04-11T08:10:57.434Z</time></trkpt><trkpt lat="45.673838" lon="9.2197623"><ele>245.0</ele><time>2026-04-11T08:10:58.434Z</time></trkpt><trkpt lat="45.6740932" lon="9.2196741"><ele>245.0</ele><time>2026-04-11T08:10:59.435Z</time></trkpt><trkpt lat="45.6743497" lon="9.2195819"><ele>245.0</ele><time>2026-04-11T08:11:00.434Z</time></trkpt><trkpt lat="45.6746034" lon="9.2194895"><ele>245.5</ele><time>2026-04-11T08:11:01.434Z</time></trkpt><trkpt lat="45.6748599" lon="9.2194013"><ele>246.0</ele><time>2026-04-11T08:11:02.435Z</time></trkpt><trkpt lat="45.6751125" lon="9.2193167"><ele>245.5</ele><time>2026-04-11T08:11:03.434Z</time></trkpt><trkpt lat="45.6753555" lon="9.2192284"><ele>245.0</ele><time>2026-04-11T08:11:04.434Z</time></trkpt><trkpt lat="45.675592" lon="9.2191318"><ele>245.0</ele><time>2026-04-11T08:11:05.435Z</time></trkpt><trkpt lat="45.6758319" lon="9.2190442"><ele>245.0</ele><time>2026-04-11T08:11:06.435Z</time></trkpt><trkpt lat="45.676074" lon="9.2189587"><ele>245.5</ele><time>2026-04-11T08:11:07.435Z</time></trkpt><trkpt lat="45.6763185" lon="9.2188734"><ele>246.0</ele><time>2026-04-11T08:11:08.434Z</time></trkpt><trkpt lat="45.6765645" lon="9.2187904"><ele>246.0</ele><time>2026-04-11T08:11:09.434Z</time></trkpt><trkpt lat="45.6768076" lon="9.2187018"><ele>246.0</ele><time>2026-04-11T08:11:10.434Z</time></trkpt><trkpt lat="45.6770497" lon="9.2186174"><ele>248.5</ele><time>2026-04-11T08:11:11.434Z</time></trkpt><trkpt lat="45.6772916" lon="9.2185352"><ele>251.0</ele><time>2026-04-11T08:11:12.434Z</time></trkpt><trkpt lat="45.677534" lon="9.2184509"><ele>250.0</ele><time>2026-04-11T08:11:13.434Z</time></trkpt><trkpt lat="45.6777744" lon="9.2183639"><ele>249.0</ele><time>2026-04-11T08:11:14.434Z</time></trkpt><trkpt lat="45.6780172" lon="9.2182836"><ele>249.0</ele><time>2026-04-11T08:11:15.434Z</time></trkpt><trkpt lat="45.6782588" lon="9.2181905"><ele>249.0</ele><time>2026-04-11T08:11:16.435Z</time></trkpt><trkpt lat="45.6785044" lon="9.218106"><ele>249.5</ele><time>2026-04-11T08:11:17.434Z</time></trkpt><trkpt lat="45.6787475" lon="9.2180146"><ele>250.0</ele><time>2026-04-11T08:11:18.434Z</time></trkpt><trkpt lat="45.6789905" lon="9.2179245"><ele>250.0</ele><time>2026-04-11T08:11:19.435Z</time></trkpt><trkpt lat="45.6792365" lon="9.217831"><ele>250.0</ele><time>2026-04-11T08:11:20.435Z</time></trkpt><trkpt lat="45.6794846" lon="9.2177456"><ele>250.0</ele><time>2026-04-11T08:11:21.434Z</time></trkpt><trkpt lat="45.6797312" lon="9.2176613"><ele>250.0</ele><time>2026-04-11T08:11:22.434Z</time></trkpt><trkpt lat="45.6799805" lon="9.2175707"><ele>250.0</ele><time>2026-04-11T08:11:23.434Z</time></trkpt><trkpt lat="45.6802323" lon="9.2174805"><ele>250.0</ele><time>2026-04-11T08:11:24.435Z</time></trkpt><trkpt lat="45.6804826" lon="9.2173831"><ele>250.5</ele><time>2026-04-11T08:11:25.435Z</time></trkpt><trkpt lat="45.6807368" lon="9.2172931"><ele>251.0</ele><time>2026-04-11T08:11:26.434Z</time></trkpt><trkpt lat="45.6809942" lon="9.2172066"><ele>251.0</ele><time>2026-04-11T08:11:27.434Z</time></trkpt><trkpt lat="45.6812503" lon="9.2171139"><ele>251.0</ele><time>2026-04-11T08:11:28.434Z</time></trkpt><trkpt lat="45.6815092" lon="9.2170246"><ele>251.0</ele><time>2026-04-11T08:11:29.434Z</time></trkpt><trkpt lat="45.6817695" lon="9.216936"><ele>251.0</ele><time>2026-04-11T08:11:30.434Z</time></trkpt><trkpt lat="45.6820257" lon="9.216847"><ele>251.0</ele><time>2026-04-11T08:11:31.434Z</time></trkpt><trkpt lat="45.6822749" lon="9.2167621"><ele>251.0</ele><time>2026-04-11T08:11:32.435Z</time></trkpt><trkpt lat="45.6825224" lon="9.2166751"><ele>252.0</ele><time>2026-04-11T08:11:33.434Z</time></trkpt><trkpt lat="45.6827704" lon="9.2165847"><ele>253.0</ele><time>2026-04-11T08:11:34.434Z</time></trkpt><trkpt lat="45.6830163" lon="9.2165005"><ele>253.5</ele><time>2026-04-11T08:11:35.434Z</time></trkpt><trkpt lat="45.683261" lon="9.2164134"><ele>254.0</ele><time>2026-04-11T08:11:36.434Z</time></trkpt><trkpt lat="45.683508" lon="9.2163273"><ele>253.5</ele><time>2026-04-11T08:11:37.434Z</time></trkpt><trkpt lat="45.6837497" lon="9.2162392"><ele>253.0</ele><time>2026-04-11T08:11:38.435Z</time></trkpt><trkpt lat="45.6839946" lon="9.216155"><ele>253.0</ele><time>2026-04-11T08:11:39.435Z</time></trkpt><trkpt lat="45.6842442" lon="9.2160902"><ele>253.0</ele><time>2026-04-11T08:11:40.434Z</time></trkpt><trkpt lat="45.6844936" lon="9.216059"><ele>254.0</ele><time>2026-04-11T08:11:41.434Z</time></trkpt><trkpt lat="45.684746" lon="9.2160389"><ele>255.0</ele><time>2026-04-11T08:11:42.434Z</time></trkpt><trkpt lat="45.6849923" lon="9.2160605"><ele>255.0</ele><time>2026-04-11T08:11:43.434Z</time></trkpt><trkpt lat="45.685244" lon="9.2161019"><ele>255.0</ele><time>2026-04-11T08:11:44.434Z</time></trkpt><trkpt lat="45.6854863" lon="9.2161635"><ele>256.0</ele><time>2026-04-11T08:11:45.434Z</time></trkpt><trkpt lat="45.6857297" lon="9.216261"><ele>257.0</ele><time>2026-04-11T08:11:46.434Z</time></trkpt><trkpt lat="45.685969" lon="9.2163736"><ele>259.0</ele><time>2026-04-11T08:11:47.435Z</time></trkpt><trkpt lat="45.6861978" lon="9.2165169"><ele>261.0</ele><time>2026-04-11T08:11:48.434Z</time></trkpt><trkpt lat="45.6864185" lon="9.2166941"><ele>261.0</ele><time>2026-04-11T08:11:49.435Z</time></trkpt><trkpt lat="45.6866302" lon="9.2168804"><ele>261.0</ele><time>2026-04-11T08:11:50.434Z</time></trkpt><trkpt lat="45.6868375" lon="9.2170875"><ele>260.0</ele><time>2026-04-11T08:11:51.434Z</time></trkpt><trkpt lat="45.6870435" lon="9.2173033"><ele>259.0</ele><time>2026-04-11T08:11:52.434Z</time></trkpt><trkpt lat="45.6872461" lon="9.217523"><ele>258.0</ele><time>2026-04-11T08:11:53.435Z</time></trkpt><trkpt lat="45.6874558" lon="9.2177412"><ele>257.0</ele><time>2026-04-11T08:11:54.434Z</time></trkpt><trkpt lat="45.6876642" lon="9.2179631"><ele>259.5</ele><time>2026-04-11T08:11:55.434Z</time></trkpt><trkpt lat="45.6878722" lon="9.2181887"><ele>262.0</ele><time>2026-04-11T08:11:56.434Z</time></trkpt><trkpt lat="45.6880803" lon="9.2184093"><ele>262.0</ele><time>2026-04-11T08:11:57.434Z</time></trkpt><trkpt lat="45.6882873" lon="9.21863"><ele>262.0</ele><time>2026-04-11T08:11:58.434Z</time></trkpt><trkpt lat="45.6884999" lon="9.2188543"><ele>261.0</ele><time>2026-04-11T08:11:59.434Z</time></trkpt><trkpt lat="45.6887088" lon="9.2190695"><ele>260.0</ele><time>2026-04-11T08:12:00.435Z</time></trkpt><trkpt lat="45.6889164" lon="9.2192899"><ele>260.0</ele><time>2026-04-11T08:12:01.434Z</time></trkpt><trkpt lat="45.6891237" lon="9.2195145"><ele>260.0</ele><time>2026-04-11T08:12:02.435Z</time></trkpt><trkpt lat="45.6893287" lon="9.2197387"><ele>261.0</ele><time>2026-04-11T08:12:03.434Z</time></trkpt><trkpt lat="45.6895309" lon="9.2199601"><ele>262.0</ele><time>2026-04-11T08:12:04.435Z</time></trkpt><trkpt lat="45.6897365" lon="9.2201786"><ele>262.0</ele><time>2026-04-11T08:12:05.435Z</time></trkpt><trkpt lat="45.6899433" lon="9.2203981"><ele>262.0</ele><time>2026-04-11T08:12:06.434Z</time></trkpt><trkpt lat="45.6901455" lon="9.2206103"><ele>263.0</ele><time>2026-04-11T08:12:07.434Z</time></trkpt><trkpt lat="45.6903444" lon="9.2208244"><ele>264.0</ele><time>2026-04-11T08:12:08.434Z</time></trkpt><trkpt lat="45.6905416" lon="9.2210415"><ele>264.0</ele><time>2026-04-11T08:12:09.435Z</time></trkpt><trkpt lat="45.6907364" lon="9.2212559"><ele>264.0</ele><time>2026-04-11T08:12:10.434Z</time></trkpt><trkpt lat="45.6909334" lon="9.2214742"><ele>265.0</ele><time>2026-04-11T08:12:11.434Z</time></trkpt><trkpt lat="45.691132" lon="9.2216861"><ele>266.0</ele><time>2026-04-11T08:12:12.434Z</time></trkpt><trkpt lat="45.6913304" lon="9.2218983"><ele>266.0</ele><time>2026-04-11T08:12:13.434Z</time></trkpt><trkpt lat="45.6915246" lon="9.2221007"><ele>266.0</ele><time>2026-04-11T08:12:14.434Z</time></trkpt><trkpt lat="45.6917088" lon="9.2222969"><ele>267.0</ele><time>2026-04-11T08:12:15.434Z</time></trkpt><trkpt lat="45.6918923" lon="9.2224848"><ele>268.0</ele><time>2026-04-11T08:12:16.434Z</time></trkpt><trkpt lat="45.6920746" lon="9.2226718"><ele>268.0</ele><time>2026-04-11T08:12:17.434Z</time></trkpt><trkpt lat="45.6922573" lon="9.222864"><ele>268.0</ele><time>2026-04-11T08:12:18.434Z</time></trkpt><trkpt lat="45.6924365" lon="9.2230577"><ele>271.0</ele><time>2026-04-11T08:12:19.435Z</time></trkpt><trkpt lat="45.6926218" lon="9.2232578"><ele>274.0</ele><time>2026-04-11T08:12:20.434Z</time></trkpt><trkpt lat="45.692808" lon="9.2234504"><ele>274.5</ele><time>2026-04-11T08:12:21.435Z</time></trkpt><trkpt lat="45.6929982" lon="9.2236452"><ele>275.0</ele><time>2026-04-11T08:12:22.435Z</time></trkpt><trkpt lat="45.6931984" lon="9.2238372"><ele>276.5</ele><time>2026-04-11T08:12:23.435Z</time></trkpt><trkpt lat="45.6933956" lon="9.2240254"><ele>278.0</ele><time>2026-04-11T08:12:24.435Z</time></trkpt><trkpt lat="45.6935991" lon="9.2242156"><ele>278.5</ele><time>2026-04-11T08:12:25.435Z</time></trkpt><trkpt lat="45.6938061" lon="9.2244039"><ele>279.0</ele><time>2026-04-11T08:12:26.434Z</time></trkpt><trkpt lat="45.6940143" lon="9.2245966"><ele>279.0</ele><time>2026-04-11T08:12:27.434Z</time></trkpt><trkpt lat="45.694219" lon="9.2247953"><ele>279.0</ele><time>2026-04-11T08:12:28.434Z</time></trkpt><trkpt lat="45.6944254" lon="9.2249886"><ele>279.5</ele><time>2026-04-11T08:12:29.434Z</time></trkpt><trkpt lat="45.6946354" lon="9.2251795"><ele>280.0</ele><time>2026-04-11T08:12:30.434Z</time></trkpt><trkpt lat="45.6948406" lon="9.2253688"><ele>280.0</ele><time>2026-04-11T08:12:31.434Z</time></trkpt><trkpt lat="45.6950469" lon="9.2255545"><ele>280.0</ele><time>2026-04-11T08:12:32.435Z</time></trkpt><trkpt lat="45.695254" lon="9.2257448"><ele>283.5</ele><time>2026-04-11T08:12:33.435Z</time></trkpt><trkpt lat="45.6954611" lon="9.2259375"><ele>287.0</ele><time>2026-04-11T08:12:34.434Z</time></trkpt><trkpt lat="45.6956659" lon="9.2261249"><ele>287.0</ele><time>2026-04-11T08:12:35.435Z</time></trkpt><trkpt lat="45.6958687" lon="9.2263116"><ele>287.0</ele><time>2026-04-11T08:12:36.434Z</time></trkpt><trkpt lat="45.6960731" lon="9.2265013"><ele>289.0</ele><time>2026-04-11T08:12:37.435Z</time></trkpt><trkpt lat="45.6962736" lon="9.2266892"><ele>291.0</ele><time>2026-04-11T08:12:38.434Z</time></trkpt><trkpt lat="45.6964763" lon="9.2268763"><ele>291.0</ele><time>2026-04-11T08:12:39.434Z</time></trkpt><trkpt lat="45.6966798" lon="9.2270683"><ele>291.0</ele><time>2026-04-11T08:12:40.434Z</time></trkpt><trkpt lat="45.6968849" lon="9.2272526"><ele>292.5</ele><time>2026-04-11T08:12:41.434Z</time></trkpt><trkpt lat="45.6970872" lon="9.227439"><ele>294.0</ele><time>2026-04-11T08:12:42.434Z</time></trkpt><trkpt lat="45.6972919" lon="9.2276243"><ele>294.0</ele><time>2026-04-11T08:12:43.434Z</time></trkpt><trkpt lat="45.6974936" lon="9.2278077"><ele>294.0</ele><time>2026-04-11T08:12:44.435Z</time></trkpt><trkpt lat="45.6976919" lon="9.2279851"><ele>293.3333333333333</ele><time>2026-04-11T08:12:45.434Z</time></trkpt><trkpt lat="45.6978824" lon="9.2281534"><ele>292.66666666666663</ele><time>2026-04-11T08:12:46.434Z</time></trkpt><trkpt lat="45.6980606" lon="9.2283144"><ele>292.0</ele><time>2026-04-11T08:12:47.434Z</time></trkpt><trkpt lat="45.6982361" lon="9.2284828"><ele>292.0</ele><time>2026-04-11T08:12:48.435Z</time></trkpt><trkpt lat="45.6984182" lon="9.2286554"><ele>292.0</ele><time>2026-04-11T08:12:49.435Z</time></trkpt><trkpt lat="45.6986033" lon="9.2288311"><ele>292.0</ele><time>2026-04-11T08:12:50.435Z</time></trkpt><trkpt lat="45.6987968" lon="9.2290193"><ele>290.5</ele><time>2026-04-11T08:12:51.434Z</time></trkpt><trkpt lat="45.6990014" lon="9.2292214"><ele>289.0</ele><time>2026-04-11T08:12:52.434Z</time></trkpt><trkpt lat="45.6992291" lon="9.2294344"><ele>288.5</ele><time>2026-04-11T08:12:53.434Z</time></trkpt><trkpt lat="45.6994617" lon="9.2296593"><ele>288.0</ele><time>2026-04-11T08:12:54.434Z</time></trkpt><trkpt lat="45.699717" lon="9.2298834"><ele>288.0</ele><time>2026-04-11T08:12:55.434Z</time></trkpt><trkpt lat="45.6999789" lon="9.2301192"><ele>288.0</ele><time>2026-04-11T08:12:56.434Z</time></trkpt><trkpt lat="45.7002281" lon="9.2303541"><ele>288.0</ele><time>2026-04-11T08:12:57.434Z</time></trkpt><trkpt lat="45.7004706" lon="9.2305835"><ele>288.0</ele><time>2026-04-11T08:12:58.435Z</time></trkpt><trkpt lat="45.7007047" lon="9.2308002"><ele>288.0</ele><time>2026-04-11T08:12:59.435Z</time></trkpt><trkpt lat="45.7009314" lon="9.2310009"><ele>288.0</ele><time>2026-04-11T08:13:00.435Z</time></trkpt><trkpt lat="45.7011543" lon="9.2311929"><ele>286.0</ele><time>2026-04-11T08:13:01.434Z</time></trkpt><trkpt lat="45.7013777" lon="9.2313657"><ele>284.0</ele><time>2026-04-11T08:13:02.434Z</time></trkpt><trkpt lat="45.7016158" lon="9.231509"><ele>283.5</ele><time>2026-04-11T08:13:03.434Z</time></trkpt><trkpt lat="45.7018582" lon="9.2316073"><ele>283.0</ele><time>2026-04-11T08:13:04.434Z</time></trkpt><trkpt lat="45.7021177" lon="9.2316693"><ele>283.0</ele><time>2026-04-11T08:13:05.435Z</time></trkpt><trkpt lat="45.7023774" lon="9.2317109"><ele>283.0</ele><time>2026-04-11T08:13:06.435Z</time></trkpt><trkpt lat="45.7026422" lon="9.2317173"><ele>285.5</ele><time>2026-04-11T08:13:07.434Z</time></trkpt><trkpt lat="45.7029091" lon="9.2316894"><ele>288.0</ele><time>2026-04-11T08:13:08.435Z</time></trkpt><trkpt lat="45.7031642" lon="9.2316216"><ele>288.0</ele><time>2026-04-11T08:13:09.434Z</time></trkpt><trkpt lat="45.7034128" lon="9.2315261"><ele>288.0</ele><time>2026-04-11T08:13:10.434Z</time></trkpt><trkpt lat="45.7036551" lon="9.2313924"><ele>290.0</ele><time>2026-04-11T08:13:11.435Z</time></trkpt><trkpt lat="45.7038872" lon="9.2312229"><ele>292.0</ele><time>2026-04-11T08:13:12.434Z</time></trkpt><trkpt lat="45.7040986" lon="9.2310242"><ele>292.0</ele><time>2026-04-11T08:13:13.434Z</time></trkpt><trkpt lat="45.7043092" lon="9.2308098"><ele>292.0</ele><time>2026-04-11T08:13:14.434Z</time></trkpt><trkpt lat="45.7044995" lon="9.2305707"><ele>293.5</ele><time>2026-04-11T08:13:15.434Z</time></trkpt><trkpt lat="45.704684" lon="9.2303238"><ele>295.0</ele><time>2026-04-11T08:13:16.434Z</time></trkpt><trkpt lat="45.7048757" lon="9.2300874"><ele>295.0</ele><time>2026-04-11T08:13:17.434Z</time></trkpt><trkpt lat="45.7050714" lon="9.2298539"><ele>295.0</ele><time>2026-04-11T08:13:18.434Z</time></trkpt><trkpt lat="45.7052707" lon="9.2296251"><ele>295.5</ele><time>2026-04-11T08:13:19.434Z</time></trkpt><trkpt lat="45.7054694" lon="9.2294001"><ele>296.0</ele><time>2026-04-11T08:13:20.435Z</time></trkpt><trkpt lat="45.7056759" lon="9.2291845"><ele>296.0</ele><time>2026-04-11T08:13:21.434Z</time></trkpt><trkpt lat="45.7058887" lon="9.2289952"><ele>296.0</ele><time>2026-04-11T08:13:22.434Z</time></trkpt><trkpt lat="45.7061121" lon="9.2288217"><ele>298.5</ele><time>2026-04-11T08:13:23.434Z</time></trkpt><trkpt lat="45.706344" lon="9.228671"><ele>301.0</ele><time>2026-04-11T08:13:24.435Z</time></trkpt><trkpt lat="45.7065836" lon="9.2285388"><ele>301.0</ele><time>2026-04-11T08:13:25.435Z</time></trkpt><trkpt lat="45.7068342" lon="9.2284238"><ele>301.0</ele><time>2026-04-11T08:13:26.434Z</time></trkpt><trkpt lat="45.7070931" lon="9.2283291"><ele>301.5</ele><time>2026-04-11T08:13:27.434Z</time></trkpt><trkpt lat="45.7073533" lon="9.2282532"><ele>302.0</ele><time>2026-04-11T08:13:28.434Z</time></trkpt><trkpt lat="45.7076184" lon="9.2281885"><ele>300.5</ele><time>2026-04-11T08:13:29.434Z</time></trkpt><trkpt lat="45.7078929" lon="9.2281446"><ele>299.0</ele><time>2026-04-11T08:13:30.434Z</time></trkpt><trkpt lat="45.7081698" lon="9.2281121"><ele>299.0</ele><time>2026-04-11T08:13:31.434Z</time></trkpt><trkpt lat="45.7084513" lon="9.2280712"><ele>299.0</ele><time>2026-04-11T08:13:32.434Z</time></trkpt><trkpt lat="45.7087326" lon="9.2280347"><ele>297.0</ele><time>2026-04-11T08:13:33.434Z</time></trkpt><trkpt lat="45.7090131" lon="9.2279989"><ele>295.0</ele><time>2026-04-11T08:13:34.434Z</time></trkpt><trkpt lat="45.7092849" lon="9.2279642"><ele>294.0</ele><time>2026-04-11T08:13:35.434Z</time></trkpt><trkpt lat="45.7095566" lon="9.22793"><ele>293.0</ele><time>2026-04-11T08:13:36.434Z</time></trkpt><trkpt lat="45.7098205" lon="9.2278948"><ele>293.0</ele><time>2026-04-11T08:13:37.434Z</time></trkpt><trkpt lat="45.7100831" lon="9.227855"><ele>293.0</ele><time>2026-04-11T08:13:38.434Z</time></trkpt><trkpt lat="45.7103449" lon="9.2278167"><ele>291.0</ele><time>2026-04-11T08:13:39.434Z</time></trkpt><trkpt lat="45.7106041" lon="9.227784"><ele>289.0</ele><time>2026-04-11T08:13:40.434Z</time></trkpt><trkpt lat="45.7108659" lon="9.2277469"><ele>288.0</ele><time>2026-04-11T08:13:41.434Z</time></trkpt><trkpt lat="45.7111332" lon="9.227708"><ele>287.0</ele><time>2026-04-11T08:13:42.434Z</time></trkpt><trkpt lat="45.7114022" lon="9.2276729"><ele>287.0</ele><time>2026-04-11T08:13:43.435Z</time></trkpt><trkpt lat="45.7116724" lon="9.2276399"><ele>287.0</ele><time>2026-04-11T08:13:44.434Z</time></trkpt><trkpt lat="45.7119468" lon="9.2276036"><ele>285.0</ele><time>2026-04-11T08:13:45.435Z</time></trkpt><trkpt lat="45.7122254" lon="9.2275687"><ele>283.0</ele><time>2026-04-11T08:13:46.434Z</time></trkpt><trkpt lat="45.7125068" lon="9.2275442"><ele>281.5</ele><time>2026-04-11T08:13:47.434Z</time></trkpt><trkpt lat="45.7127874" lon="9.2275208"><ele>280.0</ele><time>2026-04-11T08:13:48.434Z</time></trkpt><trkpt lat="45.7130667" lon="9.2274989"><ele>280.0</ele><time>2026-04-11T08:13:49.435Z</time></trkpt><trkpt lat="45.7133396" lon="9.2274635"><ele>280.0</ele><time>2026-04-11T08:13:50.435Z</time></trkpt><trkpt lat="45.7136053" lon="9.2274401"><ele>276.5</ele><time>2026-04-11T08:13:51.435Z</time></trkpt><trkpt lat="45.7138644" lon="9.2274177"><ele>273.0</ele><time>2026-04-11T08:13:52.434Z</time></trkpt><trkpt lat="45.7141211" lon="9.2274119"><ele>273.0</ele><time>2026-04-11T08:13:53.434Z</time></trkpt><trkpt lat="45.7143778" lon="9.2274505"><ele>273.0</ele><time>2026-04-11T08:13:54.434Z</time></trkpt><trkpt lat="45.7146323" lon="9.227533"><ele>270.0</ele><time>2026-04-11T08:13:55.435Z</time></trkpt><trkpt lat="45.714873" lon="9.2276613"><ele>267.0</ele><time>2026-04-11T08:13:56.435Z</time></trkpt><trkpt lat="45.715097" lon="9.2278188"><ele>265.0</ele><time>2026-04-11T08:13:57.434Z</time></trkpt><trkpt lat="45.7153251" lon="9.2280141"><ele>263.0</ele><time>2026-04-11T08:13:58.435Z</time></trkpt><trkpt lat="45.7155264" lon="9.2282472"><ele>261.0</ele><time>2026-04-11T08:13:59.435Z</time></trkpt><trkpt lat="45.7157156" lon="9.2284919"><ele>259.0</ele><time>2026-04-11T08:14:00.435Z</time></trkpt><trkpt lat="45.7158895" lon="9.2287517"><ele>257.5</ele><time>2026-04-11T08:14:01.434Z</time></trkpt><trkpt lat="45.7160381" lon="9.2290221"><ele>256.0</ele><time>2026-04-11T08:14:02.434Z</time></trkpt><trkpt lat="45.7161855" lon="9.229281"><ele>256.0</ele><time>2026-04-11T08:14:03.435Z</time></trkpt><trkpt lat="45.7163372" lon="9.2295475"><ele>256.0</ele><time>2026-04-11T08:14:04.434Z</time></trkpt><trkpt lat="45.7164889" lon="9.2298216"><ele>256.5</ele><time>2026-04-11T08:14:05.434Z</time></trkpt><trkpt lat="45.7166381" lon="9.2300963"><ele>257.0</ele><time>2026-04-11T08:14:06.435Z</time></trkpt><trkpt lat="45.7167845" lon="9.2303662"><ele>257.0</ele><time>2026-04-11T08:14:07.434Z</time></trkpt><trkpt lat="45.7169258" lon="9.230631"><ele>257.0</ele><time>2026-04-11T08:14:08.434Z</time></trkpt><trkpt lat="45.7170617" lon="9.2308878"><ele>255.66666666666669</ele><time>2026-04-11T08:14:09.435Z</time></trkpt><trkpt lat="45.7171918" lon="9.2311376"><ele>254.33333333333331</ele><time>2026-04-11T08:14:10.435Z</time></trkpt><trkpt lat="45.7173242" lon="9.2313754"><ele>253.0</ele><time>2026-04-11T08:14:11.434Z</time></trkpt><trkpt lat="45.7174517" lon="9.2316074"><ele>253.0</ele><time>2026-04-11T08:14:12.434Z</time></trkpt><trkpt lat="45.7175721" lon="9.2318355"><ele>253.0</ele><time>2026-04-11T08:14:13.434Z</time></trkpt><trkpt lat="45.7176958" lon="9.2320661"><ele>253.0</ele><time>2026-04-11T08:14:14.434Z</time></trkpt><trkpt lat="45.7178212" lon="9.2322959"><ele>250.33333333333331</ele><time>2026-04-11T08:14:15.434Z</time></trkpt><trkpt lat="45.7179436" lon="9.2325253"><ele>247.66666666666669</ele><time>2026-04-11T08:14:16.435Z</time></trkpt><trkpt lat="45.7180619" lon="9.2327473"><ele>245.0</ele><time>2026-04-11T08:14:17.434Z</time></trkpt><trkpt lat="45.7181781" lon="9.2329687"><ele>243.33333333333334</ele><time>2026-04-11T08:14:18.434Z</time></trkpt><trkpt lat="45.7182946" lon="9.2331838"><ele>241.66666666666669</ele><time>2026-04-11T08:14:19.434Z</time></trkpt><trkpt lat="45.7184071" lon="9.2334054"><ele>240.0</ele><time>2026-04-11T08:14:20.435Z</time></trkpt><trkpt lat="45.7185304" lon="9.2336262"><ele>239.66666666666669</ele><time>2026-04-11T08:14:21.435Z</time></trkpt><trkpt lat="45.718649" lon="9.2338528"><ele>239.33333333333334</ele><time>2026-04-11T08:14:22.434Z</time></trkpt><trkpt lat="45.7187702" lon="9.2340871"><ele>239.0</ele><time>2026-04-11T08:14:23.435Z</time></trkpt><trkpt lat="45.7188944" lon="9.234322"><ele>241.33333333333334</ele><time>2026-04-11T08:14:24.434Z</time></trkpt><trkpt lat="45.7190212" lon="9.2345539"><ele>243.66666666666669</ele><time>2026-04-11T08:14:25.434Z</time></trkpt><trkpt lat="45.7191472" lon="9.2347955"><ele>246.0</ele><time>2026-04-11T08:14:26.434Z</time></trkpt><trkpt lat="45.7192757" lon="9.2350369"><ele>249.0</ele><time>2026-04-11T08:14:27.434Z</time></trkpt><trkpt lat="45.7194041" lon="9.2352761"><ele>252.0</ele><time>2026-04-11T08:14:28.434Z</time></trkpt><trkpt lat="45.7195313" lon="9.2355191"><ele>255.0</ele><time>2026-04-11T08:14:29.435Z</time></trkpt><trkpt lat="45.719663" lon="9.2357622"><ele>255.0</ele><time>2026-04-11T08:14:30.434Z</time></trkpt><trkpt lat="45.7197939" lon="9.2360097"><ele>255.0</ele><time>2026-04-11T08:14:31.434Z</time></trkpt><trkpt lat="45.7199278" lon="9.2362537"><ele>255.0</ele><time>2026-04-11T08:14:32.434Z</time></trkpt><trkpt lat="45.7200648" lon="9.2364971"><ele>255.33333333333331</ele><time>2026-04-11T08:14:33.434Z</time></trkpt><trkpt lat="45.720202" lon="9.2367479"><ele>255.66666666666666</ele><time>2026-04-11T08:14:34.435Z</time></trkpt><trkpt lat="45.7203357" lon="9.2369963"><ele>256.0</ele><time>2026-04-11T08:14:35.434Z</time></trkpt><trkpt lat="45.7204722" lon="9.2372485"><ele>253.66666666666666</ele><time>2026-04-11T08:14:36.434Z</time></trkpt><trkpt lat="45.7206035" lon="9.237507"><ele>251.33333333333331</ele><time>2026-04-11T08:14:37.434Z</time></trkpt><trkpt lat="45.7207391" lon="9.2377595"><ele>249.0</ele><time>2026-04-11T08:14:38.434Z</time></trkpt><trkpt lat="45.7208756" lon="9.2380155"><ele>246.66666666666669</ele><time>2026-04-11T08:14:39.434Z</time></trkpt><trkpt lat="45.721009" lon="9.2382735"><ele>244.33333333333334</ele><time>2026-04-11T08:14:40.434Z</time></trkpt><trkpt lat="45.7211441" lon="9.2385314"><ele>242.0</ele><time>2026-04-11T08:14:41.434Z</time></trkpt><trkpt lat="45.7212794" lon="9.238785"><ele>242.0</ele><time>2026-04-11T08:14:42.434Z</time></trkpt><trkpt lat="45.7214156" lon="9.2390421"><ele>242.0</ele><time>2026-04-11T08:14:43.434Z</time></trkpt><trkpt lat="45.7215472" lon="9.2393059"><ele>242.0</ele><time>2026-04-11T08:14:44.434Z</time></trkpt><trkpt lat="45.7216881" lon="9.2395582"><ele>242.0</ele><time>2026-04-11T08:14:45.434Z</time></trkpt><trkpt lat="45.7218275" lon="9.2398174"><ele>242.66666666666669</ele><time>2026-04-11T08:14:46.434Z</time></trkpt><trkpt lat="45.7219642" lon="9.2400724"><ele>243.33333333333331</ele><time>2026-04-11T08:14:47.435Z</time></trkpt><trkpt lat="45.7221013" lon="9.2403267"><ele>244.0</ele><time>2026-04-11T08:14:48.434Z</time></trkpt><trkpt lat="45.7222341" lon="9.2405778"><ele>247.66666666666666</ele><time>2026-04-11T08:14:49.435Z</time></trkpt><trkpt lat="45.7223699" lon="9.2408314"><ele>251.33333333333331</ele><time>2026-04-11T08:14:50.434Z</time></trkpt><trkpt lat="45.7225038" lon="9.2410824"><ele>255.0</ele><time>2026-04-11T08:14:51.434Z</time></trkpt><trkpt lat="45.7226379" lon="9.2413297"><ele>255.66666666666669</ele><time>2026-04-11T08:14:52.434Z</time></trkpt><trkpt lat="45.7227735" lon="9.2415791"><ele>256.33333333333337</ele><time>2026-04-11T08:14:53.434Z</time></trkpt><trkpt lat="45.7229145" lon="9.2418255"><ele>257.0</ele><time>2026-04-11T08:14:54.435Z</time></trkpt><trkpt lat="45.723051" lon="9.2420756"><ele>259.0</ele><time>2026-04-11T08:14:55.434Z</time></trkpt><trkpt lat="45.7231876" lon="9.2423339"><ele>261.0</ele><time>2026-04-11T08:14:56.435Z</time></trkpt><trkpt lat="45.723338" lon="9.2425906"><ele>261.0</ele><time>2026-04-11T08:14:57.434Z</time></trkpt><trkpt lat="45.7235034" lon="9.2428408"><ele>261.0</ele><time>2026-04-11T08:14:58.435Z</time></trkpt><trkpt lat="45.7236833" lon="9.2430836"><ele>263.0</ele><time>2026-04-11T08:14:59.434Z</time></trkpt><trkpt lat="45.723877" lon="9.2433172"><ele>265.0</ele><time>2026-04-11T08:15:00.434Z</time></trkpt><trkpt lat="45.7240762" lon="9.2435471"><ele>265.0</ele><time>2026-04-11T08:15:01.434Z</time></trkpt><trkpt lat="45.7242864" lon="9.2437695"><ele>265.0</ele><time>2026-04-11T08:15:02.435Z</time></trkpt><trkpt lat="45.7245018" lon="9.2439852"><ele>268.0</ele><time>2026-04-11T08:15:03.435Z</time></trkpt><trkpt lat="45.7247156" lon="9.2442033"><ele>271.0</ele><time>2026-04-11T08:15:04.435Z</time></trkpt><trkpt lat="45.724934" lon="9.2444189"><ele>271.0</ele><time>2026-04-11T08:15:05.434Z</time></trkpt><trkpt lat="45.7251474" lon="9.2446372"><ele>271.0</ele><time>2026-04-11T08:15:06.435Z</time></trkpt><trkpt lat="45.7253643" lon="9.2448534"><ele>270.5</ele><time>2026-04-11T08:15:07.434Z</time></trkpt><trkpt lat="45.7255798" lon="9.2450706"><ele>270.0</ele><time>2026-04-11T08:15:08.434Z</time></trkpt><trkpt lat="45.7257959" lon="9.2452893"><ele>270.0</ele><time>2026-04-11T08:15:09.435Z</time></trkpt><trkpt lat="45.7260089" lon="9.2455027"><ele>270.0</ele><time>2026-04-11T08:15:10.435Z</time></trkpt><trkpt lat="45.7262209" lon="9.2457181"><ele>267.0</ele><time>2026-04-11T08:15:11.435Z</time></trkpt><trkpt lat="45.7264318" lon="9.2459311"><ele>264.0</ele><time>2026-04-11T08:15:12.435Z</time></trkpt><trkpt lat="45.7266421" lon="9.2461425"><ele>264.0</ele><time>2026-04-11T08:15:13.434Z</time></trkpt><trkpt lat="45.7268493" lon="9.2463546"><ele>264.0</ele><time>2026-04-11T08:15:14.434Z</time></trkpt><trkpt lat="45.7270571" lon="9.2465595"><ele>262.5</ele><time>2026-04-11T08:15:15.434Z</time></trkpt><trkpt lat="45.7272656" lon="9.2467599"><ele>261.0</ele><time>2026-04-11T08:15:16.434Z</time></trkpt><trkpt lat="45.7274624" lon="9.2469662"><ele>261.0</ele><time>2026-04-11T08:15:17.435Z</time></trkpt><trkpt lat="45.7276613" lon="9.2471713"><ele>261.0</ele><time>2026-04-11T08:15:18.434Z</time></trkpt><trkpt lat="45.7278665" lon="9.2473721"><ele>258.5</ele><time>2026-04-11T08:15:19.434Z</time></trkpt><trkpt lat="45.728072" lon="9.2475747"><ele>256.0</ele><time>2026-04-11T08:15:20.434Z</time></trkpt><trkpt lat="45.7282723" lon="9.2477699"><ele>256.0</ele><time>2026-04-11T08:15:21.434Z</time></trkpt><trkpt lat="45.7284714" lon="9.2479545"><ele>256.0</ele><time>2026-04-11T08:15:22.434Z</time></trkpt><trkpt lat="45.7286688" lon="9.2481266"><ele>255.5</ele><time>2026-04-11T08:15:23.435Z</time></trkpt><trkpt lat="45.7288737" lon="9.2482787"><ele>255.0</ele><time>2026-04-11T08:15:24.434Z</time></trkpt><trkpt lat="45.7290883" lon="9.2484229"><ele>255.0</ele><time>2026-04-11T08:15:25.434Z</time></trkpt><trkpt lat="45.7293062" lon="9.2485501"><ele>255.0</ele><time>2026-04-11T08:15:26.434Z</time></trkpt><trkpt lat="45.7295288" lon="9.2486505"><ele>254.0</ele><time>2026-04-11T08:15:27.435Z</time></trkpt><trkpt lat="45.7297596" lon="9.2487253"><ele>253.0</ele><time>2026-04-11T08:15:28.435Z</time></trkpt><trkpt lat="45.7299834" lon="9.2487843"><ele>253.0</ele><time>2026-04-11T08:15:29.434Z</time></trkpt><trkpt lat="45.7302201" lon="9.2488366"><ele>253.0</ele><time>2026-04-11T08:15:30.434Z</time></trkpt><trkpt lat="45.7304592" lon="9.2488816"><ele>250.0</ele><time>2026-04-11T08:15:31.435Z</time></trkpt><trkpt lat="45.730701" lon="9.2489179"><ele>247.0</ele><time>2026-04-11T08:15:32.435Z</time></trkpt><trkpt lat="45.7309424" lon="9.2489525"><ele>245.0</ele><time>2026-04-11T08:15:33.435Z</time></trkpt><trkpt lat="45.7311848" lon="9.2489849"><ele>243.0</ele><time>2026-04-11T08:15:34.435Z</time></trkpt><trkpt lat="45.7314326" lon="9.2490155"><ele>243.0</ele><time>2026-04-11T08:15:35.434Z</time></trkpt><trkpt lat="45.7316819" lon="9.2490504"><ele>243.0</ele><time>2026-04-11T08:15:36.435Z</time></trkpt><trkpt lat="45.7319328" lon="9.2490848"><ele>243.0</ele><time>2026-04-11T08:15:37.434Z</time></trkpt><trkpt lat="45.7321857" lon="9.2491187"><ele>243.0</ele><time>2026-04-11T08:15:38.435Z</time></trkpt><trkpt lat="45.732445" lon="9.2491525"><ele>243.0</ele><time>2026-04-11T08:15:39.435Z</time></trkpt><trkpt lat="45.7327065" lon="9.2491879"><ele>243.0</ele><time>2026-04-11T08:15:40.434Z</time></trkpt><trkpt lat="45.732969" lon="9.2492225"><ele>243.0</ele><time>2026-04-11T08:15:41.435Z</time></trkpt><trkpt lat="45.7332328" lon="9.2492573"><ele>243.0</ele><time>2026-04-11T08:15:42.435Z</time></trkpt><trkpt lat="45.7334973" lon="9.2492976"><ele>243.0</ele><time>2026-04-11T08:15:43.434Z</time></trkpt><trkpt lat="45.7337637" lon="9.2493393"><ele>243.0</ele><time>2026-04-11T08:15:44.434Z</time></trkpt><trkpt lat="45.7340311" lon="9.249379"><ele>243.0</ele><time>2026-04-11T08:15:45.434Z</time></trkpt><trkpt lat="45.734295" lon="9.2494182"><ele>243.0</ele><time>2026-04-11T08:15:46.435Z</time></trkpt><trkpt lat="45.7345593" lon="9.249456"><ele>242.5</ele><time>2026-04-11T08:15:47.434Z</time></trkpt><trkpt lat="45.7348194" lon="9.2494947"><ele>242.0</ele><time>2026-04-11T08:15:48.434Z</time></trkpt><trkpt lat="45.7350751" lon="9.2495338"><ele>241.5</ele><time>2026-04-11T08:15:49.435Z</time></trkpt><trkpt lat="45.7353304" lon="9.2495649"><ele>241.0</ele><time>2026-04-11T08:15:50.435Z</time></trkpt><trkpt lat="45.7355725" lon="9.2495964"><ele>241.0</ele><time>2026-04-11T08:15:51.434Z</time></trkpt><trkpt lat="45.7358176" lon="9.249643"><ele>241.0</ele><time>2026-04-11T08:15:52.434Z</time></trkpt><trkpt lat="45.7360554" lon="9.2497148"><ele>242.0</ele><time>2026-04-11T08:15:53.434Z</time></trkpt><trkpt lat="45.73628" lon="9.2498058"><ele>243.0</ele><time>2026-04-11T08:15:54.434Z</time></trkpt><trkpt lat="45.7365053" lon="9.2499182"><ele>243.0</ele><time>2026-04-11T08:15:55.434Z</time></trkpt><trkpt lat="45.7367218" lon="9.2500546"><ele>243.0</ele><time>2026-04-11T08:15:56.435Z</time></trkpt><trkpt lat="45.7369345" lon="9.2502168"><ele>243.0</ele><time>2026-04-11T08:15:57.434Z</time></trkpt><trkpt lat="45.7371437" lon="9.2503986"><ele>243.0</ele><time>2026-04-11T08:15:58.435Z</time></trkpt><trkpt lat="45.7373473" lon="9.2505918"><ele>244.0</ele><time>2026-04-11T08:15:59.435Z</time></trkpt><trkpt lat="45.7375421" lon="9.2508025"><ele>245.0</ele><time>2026-04-11T08:16:00.435Z</time></trkpt><trkpt lat="45.7377383" lon="9.2510171"><ele>246.0</ele><time>2026-04-11T08:16:01.434Z</time></trkpt><trkpt lat="45.7379373" lon="9.2512297"><ele>247.0</ele><time>2026-04-11T08:16:02.434Z</time></trkpt><trkpt lat="45.7381362" lon="9.251445"><ele>248.0</ele><time>2026-04-11T08:16:03.435Z</time></trkpt><trkpt lat="45.7383383" lon="9.2516707"><ele>249.0</ele><time>2026-04-11T08:16:04.434Z</time></trkpt><trkpt lat="45.7385444" lon="9.2518938"><ele>250.0</ele><time>2026-04-11T08:16:05.434Z</time></trkpt><trkpt lat="45.7387449" lon="9.2521197"><ele>251.0</ele><time>2026-04-11T08:16:06.434Z</time></trkpt><trkpt lat="45.7389468" lon="9.2523481"><ele>251.5</ele><time>2026-04-11T08:16:07.434Z</time></trkpt><trkpt lat="45.7391516" lon="9.2525837"><ele>252.0</ele><time>2026-04-11T08:16:08.434Z</time></trkpt><trkpt lat="45.739358" lon="9.2528133"><ele>254.0</ele><time>2026-04-11T08:16:09.434Z</time></trkpt><trkpt lat="45.7395608" lon="9.2530406"><ele>256.0</ele><time>2026-04-11T08:16:10.434Z</time></trkpt><trkpt lat="45.7397626" lon="9.2532624"><ele>256.5</ele><time>2026-04-11T08:16:11.434Z</time></trkpt><trkpt lat="45.7399609" lon="9.2534815"><ele>257.0</ele><time>2026-04-11T08:16:12.434Z</time></trkpt><trkpt lat="45.7401582" lon="9.2537055"><ele>257.0</ele><time>2026-04-11T08:16:13.435Z</time></trkpt><trkpt lat="45.7403532" lon="9.2539244"><ele>257.0</ele><time>2026-04-11T08:16:14.434Z</time></trkpt><trkpt lat="45.7405486" lon="9.2541425"><ele>257.0</ele><time>2026-04-11T08:16:15.434Z</time></trkpt><trkpt lat="45.7407431" lon="9.2543652"><ele>257.0</ele><time>2026-04-11T08:16:16.434Z</time></trkpt><trkpt lat="45.740942" lon="9.2545818"><ele>256.0</ele><time>2026-04-11T08:16:17.435Z</time></trkpt><trkpt lat="45.7411462" lon="9.2547971"><ele>255.0</ele><time>2026-04-11T08:16:18.434Z</time></trkpt><trkpt lat="45.7413529" lon="9.2550266"><ele>255.0</ele><time>2026-04-11T08:16:19.434Z</time></trkpt><trkpt lat="45.7415596" lon="9.2552739"><ele>255.0</ele><time>2026-04-11T08:16:20.434Z</time></trkpt><trkpt lat="45.7417865" lon="9.2555257"><ele>254.5</ele><time>2026-04-11T08:16:21.434Z</time></trkpt><trkpt lat="45.7420083" lon="9.2557804"><ele>254.0</ele><time>2026-04-11T08:16:22.435Z</time></trkpt><trkpt lat="45.7422176" lon="9.2560215"><ele>254.0</ele><time>2026-04-11T08:16:23.435Z</time></trkpt><trkpt lat="45.7424254" lon="9.2562498"><ele>254.0</ele><time>2026-04-11T08:16:24.434Z</time></trkpt><trkpt lat="45.7426269" lon="9.2564725"><ele>255.0</ele><time>2026-04-11T08:16:25.434Z</time></trkpt><trkpt lat="45.7428154" lon="9.256688"><ele>256.0</ele><time>2026-04-11T08:16:26.435Z</time></trkpt><trkpt lat="45.7429971" lon="9.2568924"><ele>256.0</ele><time>2026-04-11T08:16:27.434Z</time></trkpt><trkpt lat="45.7431716" lon="9.2570848"><ele>256.0</ele><time>2026-04-11T08:16:28.434Z</time></trkpt><trkpt lat="45.7433454" lon="9.2572713"><ele>256.0</ele><time>2026-04-11T08:16:29.434Z</time></trkpt><trkpt lat="45.7435137" lon="9.257456"><ele>256.3333333333333</ele><time>2026-04-11T08:16:30.434Z</time></trkpt><trkpt lat="45.743673" lon="9.2576432"><ele>256.6666666666667</ele><time>2026-04-11T08:16:31.434Z</time></trkpt><trkpt lat="45.7438378" lon="9.2578209"><ele>257.0</ele><time>2026-04-11T08:16:32.434Z</time></trkpt><trkpt lat="45.7439992" lon="9.2580037"><ele>257.33333333333337</ele><time>2026-04-11T08:16:33.434Z</time></trkpt><trkpt lat="45.74416" lon="9.2581833"><ele>257.6666666666667</ele><time>2026-04-11T08:16:34.434Z</time></trkpt><trkpt lat="45.744316" lon="9.2583576"><ele>258.0</ele><time>2026-04-11T08:16:35.434Z</time></trkpt><trkpt lat="45.7444704" lon="9.2585314"><ele>258.0</ele><time>2026-04-11T08:16:36.434Z</time></trkpt><trkpt lat="45.7446256" lon="9.2587093"><ele>258.0</ele><time>2026-04-11T08:16:37.435Z</time></trkpt><trkpt lat="45.744776" lon="9.2588807"><ele>258.0</ele><time>2026-04-11T08:16:38.435Z</time></trkpt><trkpt lat="45.7449327" lon="9.259058"><ele>258.0</ele><time>2026-04-11T08:16:39.435Z</time></trkpt><trkpt lat="45.7450873" lon="9.2592338"><ele>258.0</ele><time>2026-04-11T08:16:40.434Z</time></trkpt><trkpt lat="45.7452384" lon="9.2594017"><ele>258.0</ele><time>2026-04-11T08:16:41.434Z</time></trkpt><trkpt lat="45.7453935" lon="9.2595708"><ele>257.3333333333333</ele><time>2026-04-11T08:16:42.434Z</time></trkpt><trkpt lat="45.7455488" lon="9.2597465"><ele>256.66666666666663</ele><time>2026-04-11T08:16:43.434Z</time></trkpt><trkpt lat="45.7457017" lon="9.259924"><ele>256.0</ele><time>2026-04-11T08:16:44.435Z</time></trkpt><trkpt lat="45.74586" lon="9.2600887"><ele>256.0</ele><time>2026-04-11T08:16:45.435Z</time></trkpt><trkpt lat="45.7460196" lon="9.2602627"><ele>256.0</ele><time>2026-04-11T08:16:46.434Z</time></trkpt><trkpt lat="45.7461856" lon="9.2604409"><ele>256.0</ele><time>2026-04-11T08:16:47.434Z</time></trkpt><trkpt lat="45.7463552" lon="9.2606255"><ele>256.66666666666663</ele><time>2026-04-11T08:16:48.434Z</time></trkpt><trkpt lat="45.7465215" lon="9.2608098"><ele>257.3333333333333</ele><time>2026-04-11T08:16:49.435Z</time></trkpt><trkpt lat="45.7466922" lon="9.2609974"><ele>258.0</ele><time>2026-04-11T08:16:50.434Z</time></trkpt><trkpt lat="45.7468627" lon="9.2611866"><ele>258.0</ele><time>2026-04-11T08:16:51.434Z</time></trkpt><trkpt lat="45.747039" lon="9.2613817"><ele>258.0</ele><time>2026-04-11T08:16:52.434Z</time></trkpt><trkpt lat="45.7472176" lon="9.2615707"><ele>258.0</ele><time>2026-04-11T08:16:53.434Z</time></trkpt><trkpt lat="45.7473963" lon="9.2617715"><ele>257.5</ele><time>2026-04-11T08:16:54.434Z</time></trkpt><trkpt lat="45.7475751" lon="9.2619766"><ele>257.0</ele><time>2026-04-11T08:16:55.434Z</time></trkpt><trkpt lat="45.7477535" lon="9.2621794"><ele>259.0</ele><time>2026-04-11T08:16:56.434Z</time></trkpt><trkpt lat="45.7479339" lon="9.2623824"><ele>261.0</ele><time>2026-04-11T08:16:57.434Z</time></trkpt><trkpt lat="45.748116" lon="9.2625861"><ele>261.0</ele><time>2026-04-11T08:16:58.434Z</time></trkpt><trkpt lat="45.7483024" lon="9.2627867"><ele>261.0</ele><time>2026-04-11T08:16:59.434Z</time></trkpt><trkpt lat="45.7484901" lon="9.2629917"><ele>261.0</ele><time>2026-04-11T08:17:00.435Z</time></trkpt><trkpt lat="45.7486778" lon="9.2632025"><ele>261.0</ele><time>2026-04-11T08:17:01.434Z</time></trkpt><trkpt lat="45.748863" lon="9.2634094"><ele>261.0</ele><time>2026-04-11T08:17:02.434Z</time></trkpt><trkpt lat="45.7490441" lon="9.2636151"><ele>261.0</ele><time>2026-04-11T08:17:03.435Z</time></trkpt><trkpt lat="45.7492323" lon="9.2638204"><ele>262.5</ele><time>2026-04-11T08:17:04.434Z</time></trkpt><trkpt lat="45.749417" lon="9.2640242"><ele>264.0</ele><time>2026-04-11T08:17:05.435Z</time></trkpt><trkpt lat="45.7495991" lon="9.2642263"><ele>264.0</ele><time>2026-04-11T08:17:06.434Z</time></trkpt><trkpt lat="45.7497837" lon="9.2644289"><ele>264.0</ele><time>2026-04-11T08:17:07.434Z</time></trkpt><trkpt lat="45.7499671" lon="9.2646315"><ele>263.5</ele><time>2026-04-11T08:17:08.434Z</time></trkpt><trkpt lat="45.7501469" lon="9.2648386"><ele>263.0</ele><time>2026-04-11T08:17:09.434Z</time></trkpt><trkpt lat="45.7503275" lon="9.2650468"><ele>272.0</ele><time>2026-04-11T08:17:10.434Z</time></trkpt><trkpt lat="45.7505126" lon="9.2652519"><ele>281.0</ele><time>2026-04-11T08:17:11.434Z</time></trkpt><trkpt lat="45.7506982" lon="9.2654588"><ele>283.0</ele><time>2026-04-11T08:17:12.434Z</time></trkpt><trkpt lat="45.7508894" lon="9.2656633"><ele>285.0</ele><time>2026-04-11T08:17:13.434Z</time></trkpt><trkpt lat="45.7510732" lon="9.2658665"><ele>285.0</ele><time>2026-04-11T08:17:14.435Z</time></trkpt><trkpt lat="45.75126" lon="9.2660738"><ele>285.0</ele><time>2026-04-11T08:17:15.433Z</time></trkpt><trkpt lat="45.7514439" lon="9.2662844"><ele>280.0</ele><time>2026-04-11T08:17:16.433Z</time></trkpt><trkpt lat="45.7516248" lon="9.2665016"><ele>275.0</ele><time>2026-04-11T08:17:17.434Z</time></trkpt><trkpt lat="45.7518004" lon="9.2667285"><ele>277.5</ele><time>2026-04-11T08:17:18.434Z</time></trkpt><trkpt lat="45.7519692" lon="9.2669552"><ele>280.0</ele><time>2026-04-11T08:17:19.433Z</time></trkpt><trkpt lat="45.7521312" lon="9.2671885"><ele>277.5</ele><time>2026-04-11T08:17:20.433Z</time></trkpt><trkpt lat="45.7522917" lon="9.2674278"><ele>275.0</ele><time>2026-04-11T08:17:21.433Z</time></trkpt><trkpt lat="45.7524507" lon="9.2676668"><ele>275.0</ele><time>2026-04-11T08:17:22.433Z</time></trkpt><trkpt lat="45.7526119" lon="9.2679057"><ele>275.0</ele><time>2026-04-11T08:17:23.433Z</time></trkpt><trkpt lat="45.7527731" lon="9.2681422"><ele>275.5</ele><time>2026-04-11T08:17:24.433Z</time></trkpt><trkpt lat="45.7529353" lon="9.2683824"><ele>276.0</ele><time>2026-04-11T08:17:25.433Z</time></trkpt><trkpt lat="45.7530953" lon="9.2686251"><ele>276.0</ele><time>2026-04-11T08:17:26.433Z</time></trkpt><trkpt lat="45.7532534" lon="9.26887"><ele>276.0</ele><time>2026-04-11T08:17:27.433Z</time></trkpt><trkpt lat="45.7534147" lon="9.2691119"><ele>277.5</ele><time>2026-04-11T08:17:28.434Z</time></trkpt><trkpt lat="45.7535733" lon="9.2693546"><ele>279.0</ele><time>2026-04-11T08:17:29.433Z</time></trkpt><trkpt lat="45.7537332" lon="9.2695958"><ele>277.5</ele><time>2026-04-11T08:17:30.433Z</time></trkpt><trkpt lat="45.753893" lon="9.269841"><ele>276.0</ele><time>2026-04-11T08:17:31.433Z</time></trkpt><trkpt lat="45.7540522" lon="9.2700847"><ele>276.0</ele><time>2026-04-11T08:17:32.433Z</time></trkpt><trkpt lat="45.7542156" lon="9.270324"><ele>276.0</ele><time>2026-04-11T08:17:33.433Z</time></trkpt><trkpt lat="45.7543773" lon="9.2705606"><ele>275.5</ele><time>2026-04-11T08:17:34.434Z</time></trkpt><trkpt lat="45.7545365" lon="9.2708023"><ele>275.0</ele><time>2026-04-11T08:17:35.433Z</time></trkpt><trkpt lat="45.7546929" lon="9.2710493"><ele>275.0</ele><time>2026-04-11T08:17:36.433Z</time></trkpt><trkpt lat="45.7548534" lon="9.2712927"><ele>275.0</ele><time>2026-04-11T08:17:37.433Z</time></trkpt><trkpt lat="45.7550172" lon="9.2715398"><ele>275.5</ele><time>2026-04-11T08:17:38.434Z</time></trkpt><trkpt lat="45.7551789" lon="9.2717851"><ele>276.0</ele><time>2026-04-11T08:17:39.434Z</time></trkpt><trkpt lat="45.7553403" lon="9.2720356"><ele>276.5</ele><time>2026-04-11T08:17:40.433Z</time></trkpt><trkpt lat="45.7554946" lon="9.2722916"><ele>277.0</ele><time>2026-04-11T08:17:41.433Z</time></trkpt><trkpt lat="45.7556533" lon="9.2725447"><ele>277.0</ele><time>2026-04-11T08:17:42.433Z</time></trkpt><trkpt lat="45.7558102" lon="9.2727946"><ele>277.0</ele><time>2026-04-11T08:17:43.433Z</time></trkpt><trkpt lat="45.7559676" lon="9.2730448"><ele>278.0</ele><time>2026-04-11T08:17:44.434Z</time></trkpt><trkpt lat="45.7561316" lon="9.2732906"><ele>279.0</ele><time>2026-04-11T08:17:45.433Z</time></trkpt><trkpt lat="45.7562954" lon="9.2735363"><ele>279.0</ele><time>2026-04-11T08:17:46.433Z</time></trkpt><trkpt lat="45.7564591" lon="9.2737856"><ele>279.0</ele><time>2026-04-11T08:17:47.434Z</time></trkpt><trkpt lat="45.7566189" lon="9.274018"><ele>279.5</ele><time>2026-04-11T08:17:48.433Z</time></trkpt><trkpt lat="45.7567792" lon="9.2742551"><ele>280.0</ele><time>2026-04-11T08:17:49.433Z</time></trkpt><trkpt lat="45.7569374" lon="9.2744925"><ele>280.0</ele><time>2026-04-11T08:17:50.433Z</time></trkpt><trkpt lat="45.7570999" lon="9.2747299"><ele>280.0</ele><time>2026-04-11T08:17:51.433Z</time></trkpt><trkpt lat="45.757259" lon="9.2749527"><ele>280.66666666666663</ele><time>2026-04-11T08:17:52.433Z</time></trkpt><trkpt lat="45.757413" lon="9.275163"><ele>281.3333333333333</ele><time>2026-04-11T08:17:53.434Z</time></trkpt><trkpt lat="45.7575555" lon="9.2753716"><ele>282.0</ele><time>2026-04-11T08:17:54.433Z</time></trkpt><trkpt lat="45.7576893" lon="9.2755783"><ele>283.3333333333333</ele><time>2026-04-11T08:17:55.434Z</time></trkpt><trkpt lat="45.7578257" lon="9.2757794"><ele>284.66666666666663</ele><time>2026-04-11T08:17:56.433Z</time></trkpt><trkpt lat="45.75797" lon="9.2759851"><ele>286.0</ele><time>2026-04-11T08:17:57.433Z</time></trkpt><trkpt lat="45.7581102" lon="9.2761946"><ele>286.0</ele><time>2026-04-11T08:17:58.433Z</time></trkpt><trkpt lat="45.7582455" lon="9.2764099"><ele>286.0</ele><time>2026-04-11T08:17:59.433Z</time></trkpt><trkpt lat="45.7583754" lon="9.2766244"><ele>286.0</ele><time>2026-04-11T08:18:00.433Z</time></trkpt><trkpt lat="45.7584968" lon="9.2768538"><ele>286.3333333333333</ele><time>2026-04-11T08:18:01.433Z</time></trkpt><trkpt lat="45.7586179" lon="9.2770923"><ele>286.6666666666667</ele><time>2026-04-11T08:18:02.433Z</time></trkpt><trkpt lat="45.7587349" lon="9.2773361"><ele>287.0</ele><time>2026-04-11T08:18:03.434Z</time></trkpt><trkpt lat="45.7588511" lon="9.2775845"><ele>288.0</ele><time>2026-04-11T08:18:04.433Z</time></trkpt><trkpt lat="45.7589667" lon="9.2778436"><ele>289.0</ele><time>2026-04-11T08:18:05.433Z</time></trkpt><trkpt lat="45.7590745" lon="9.2780993"><ele>290.0</ele><time>2026-04-11T08:18:06.434Z</time></trkpt><trkpt lat="45.7591825" lon="9.2783538"><ele>290.0</ele><time>2026-04-11T08:18:07.433Z</time></trkpt><trkpt lat="45.7592889" lon="9.2786019"><ele>290.0</ele><time>2026-04-11T08:18:08.434Z</time></trkpt><trkpt lat="45.7593946" lon="9.2788535"><ele>290.0</ele><time>2026-04-11T08:18:09.433Z</time></trkpt><trkpt lat="45.7594971" lon="9.2791005"><ele>291.0</ele><time>2026-04-11T08:18:10.433Z</time></trkpt><trkpt lat="45.7595982" lon="9.2793491"><ele>292.0</ele><time>2026-04-11T08:18:11.434Z</time></trkpt><trkpt lat="45.7597044" lon="9.2796072"><ele>293.0</ele><time>2026-04-11T08:18:12.433Z</time></trkpt><trkpt lat="45.7598098" lon="9.2798518"><ele>293.6666666666667</ele><time>2026-04-11T08:18:13.433Z</time></trkpt><trkpt lat="45.7599128" lon="9.2800919"><ele>294.3333333333333</ele><time>2026-04-11T08:18:14.433Z</time></trkpt><trkpt lat="45.7600105" lon="9.280331"><ele>295.0</ele><time>2026-04-11T08:18:15.434Z</time></trkpt><trkpt lat="45.7601096" lon="9.2805731"><ele>295.3333333333333</ele><time>2026-04-11T08:18:16.433Z</time></trkpt><trkpt lat="45.7602095" lon="9.2808075"><ele>295.6666666666667</ele><time>2026-04-11T08:18:17.433Z</time></trkpt><trkpt lat="45.7603089" lon="9.2810477"><ele>296.0</ele><time>2026-04-11T08:18:18.433Z</time></trkpt><trkpt lat="45.7604117" lon="9.2812922"><ele>298.0</ele><time>2026-04-11T08:18:19.433Z</time></trkpt><trkpt lat="45.7605191" lon="9.2815431"><ele>300.0</ele><time>2026-04-11T08:18:20.434Z</time></trkpt><trkpt lat="45.7606295" lon="9.2817954"><ele>302.0</ele><time>2026-04-11T08:18:21.433Z</time></trkpt><trkpt lat="45.7607368" lon="9.2820474"><ele>301.6666666666667</ele><time>2026-04-11T08:18:22.433Z</time></trkpt><trkpt lat="45.7608433" lon="9.2822963"><ele>301.3333333333333</ele><time>2026-04-11T08:18:23.433Z</time></trkpt><trkpt lat="45.7609426" lon="9.2825424"><ele>301.0</ele><time>2026-04-11T08:18:24.433Z</time></trkpt><trkpt lat="45.7610423" lon="9.2827878"><ele>301.0</ele><time>2026-04-11T08:18:25.433Z</time></trkpt><trkpt lat="45.7611406" lon="9.2830306"><ele>301.0</ele><time>2026-04-11T08:18:26.433Z</time></trkpt><trkpt lat="45.7612409" lon="9.2832776"><ele>301.0</ele><time>2026-04-11T08:18:27.434Z</time></trkpt><trkpt lat="45.761341" lon="9.2835204"><ele>300.0</ele><time>2026-04-11T08:18:28.434Z</time></trkpt><trkpt lat="45.7614421" lon="9.2837615"><ele>299.0</ele><time>2026-04-11T08:18:29.434Z</time></trkpt><trkpt lat="45.7615457" lon="9.2840011"><ele>298.0</ele><time>2026-04-11T08:18:30.433Z</time></trkpt><trkpt lat="45.7616476" lon="9.2842404"><ele>296.66666666666663</ele><time>2026-04-11T08:18:31.434Z</time></trkpt><trkpt lat="45.7617507" lon="9.2844811"><ele>295.3333333333333</ele><time>2026-04-11T08:18:32.433Z</time></trkpt><trkpt lat="45.7618516" lon="9.2847222"><ele>294.0</ele><time>2026-04-11T08:18:33.433Z</time></trkpt><trkpt lat="45.761953" lon="9.2849641"><ele>294.0</ele><time>2026-04-11T08:18:34.433Z</time></trkpt><trkpt lat="45.7620538" lon="9.2852132"><ele>294.0</ele><time>2026-04-11T08:18:35.433Z</time></trkpt><trkpt lat="45.7621538" lon="9.2854518"><ele>294.0</ele><time>2026-04-11T08:18:36.433Z</time></trkpt><trkpt lat="45.7622587" lon="9.2856875"><ele>295.3333333333333</ele><time>2026-04-11T08:18:37.433Z</time></trkpt><trkpt lat="45.7623667" lon="9.2859052"><ele>296.66666666666663</ele><time>2026-04-11T08:18:38.434Z</time></trkpt><trkpt lat="45.7624837" lon="9.2861223"><ele>298.0</ele><time>2026-04-11T08:18:39.434Z</time></trkpt><trkpt lat="45.7626094" lon="9.2863264"><ele>297.0</ele><time>2026-04-11T08:18:40.433Z</time></trkpt><trkpt lat="45.7627451" lon="9.2865207"><ele>296.0</ele><time>2026-04-11T08:18:41.433Z</time></trkpt><trkpt lat="45.7628868" lon="9.2867058"><ele>295.0</ele><time>2026-04-11T08:18:42.433Z</time></trkpt><trkpt lat="45.7630349" lon="9.286874"><ele>295.0</ele><time>2026-04-11T08:18:43.433Z</time></trkpt><trkpt lat="45.7631886" lon="9.2870284"><ele>295.0</ele><time>2026-04-11T08:18:44.433Z</time></trkpt><trkpt lat="45.7633541" lon="9.2871647"><ele>295.0</ele><time>2026-04-11T08:18:45.434Z</time></trkpt><trkpt lat="45.7635236" lon="9.2872979"><ele>295.0</ele><time>2026-04-11T08:18:46.434Z</time></trkpt><trkpt lat="45.7637036" lon="9.2874235"><ele>295.0</ele><time>2026-04-11T08:18:47.434Z</time></trkpt><trkpt lat="45.7638893" lon="9.2875287"><ele>295.0</ele><time>2026-04-11T08:18:48.433Z</time></trkpt><trkpt lat="45.7640837" lon="9.2876248"><ele>295.0</ele><time>2026-04-11T08:18:49.434Z</time></trkpt><trkpt lat="45.7642786" lon="9.2876945"><ele>295.0</ele><time>2026-04-11T08:18:50.433Z</time></trkpt><trkpt lat="45.7644791" lon="9.2877499"><ele>295.0</ele><time>2026-04-11T08:18:51.433Z</time></trkpt><trkpt lat="45.7646884" lon="9.2877867"><ele>294.0</ele><time>2026-04-11T08:18:52.433Z</time></trkpt><trkpt lat="45.7648995" lon="9.2878182"><ele>293.0</ele><time>2026-04-11T08:18:53.434Z</time></trkpt><trkpt lat="45.7651131" lon="9.2878368"><ele>292.0</ele><time>2026-04-11T08:18:54.433Z</time></trkpt><trkpt lat="45.7653294" lon="9.2878477"><ele>292.0</ele><time>2026-04-11T08:18:55.433Z</time></trkpt><trkpt lat="45.7655532" lon="9.2878663"><ele>292.0</ele><time>2026-04-11T08:18:56.433Z</time></trkpt><trkpt lat="45.7657809" lon="9.2878789"><ele>292.0</ele><time>2026-04-11T08:18:57.433Z</time></trkpt><trkpt lat="45.7660163" lon="9.2878961"><ele>292.0</ele><time>2026-04-11T08:18:58.433Z</time></trkpt><trkpt lat="45.7662553" lon="9.2879074"><ele>291.0</ele><time>2026-04-11T08:18:59.433Z</time></trkpt><trkpt lat="45.7664951" lon="9.2879232"><ele>290.0</ele><time>2026-04-11T08:19:00.434Z</time></trkpt><trkpt lat="45.7667306" lon="9.2879423"><ele>285.5</ele><time>2026-04-11T08:19:01.434Z</time></trkpt><trkpt lat="45.7669704" lon="9.2879588"><ele>281.0</ele><time>2026-04-11T08:19:02.433Z</time></trkpt><trkpt lat="45.7672094" lon="9.287977"><ele>281.0</ele><time>2026-04-11T08:19:03.433Z</time></trkpt><trkpt lat="45.767453" lon="9.2879955"><ele>281.0</ele><time>2026-04-11T08:19:04.434Z</time></trkpt><trkpt lat="45.767698" lon="9.2880178"><ele>279.5</ele><time>2026-04-11T08:19:05.434Z</time></trkpt><trkpt lat="45.7679413" lon="9.2880326"><ele>278.0</ele><time>2026-04-11T08:19:06.433Z</time></trkpt><trkpt lat="45.7681807" lon="9.2880429"><ele>278.0</ele><time>2026-04-11T08:19:07.433Z</time></trkpt><trkpt lat="45.7684141" lon="9.2880589"><ele>278.0</ele><time>2026-04-11T08:19:08.433Z</time></trkpt><trkpt lat="45.7686426" lon="9.2880718"><ele>278.0</ele><time>2026-04-11T08:19:09.434Z</time></trkpt><trkpt lat="45.7688676" lon="9.2880927"><ele>278.0</ele><time>2026-04-11T08:19:10.433Z</time></trkpt><trkpt lat="45.7690866" lon="9.2881071"><ele>278.0</ele><time>2026-04-11T08:19:11.433Z</time></trkpt><trkpt lat="45.7693096" lon="9.2881208"><ele>274.5</ele><time>2026-04-11T08:19:12.433Z</time></trkpt><trkpt lat="45.769549" lon="9.2881484"><ele>271.0</ele><time>2026-04-11T08:19:13.434Z</time></trkpt><trkpt lat="45.7698082" lon="9.2881643"><ele>271.0</ele><time>2026-04-11T08:19:14.433Z</time></trkpt><trkpt lat="45.7700712" lon="9.2881743"><ele>271.0</ele><time>2026-04-11T08:19:15.433Z</time></trkpt><trkpt lat="45.7703274" lon="9.2881908"><ele>270.5</ele><time>2026-04-11T08:19:16.433Z</time></trkpt><trkpt lat="45.7705771" lon="9.2882108"><ele>270.0</ele><time>2026-04-11T08:19:17.434Z</time></trkpt><trkpt lat="45.770833" lon="9.2882267"><ele>269.5</ele><time>2026-04-11T08:19:18.433Z</time></trkpt><trkpt lat="45.7710889" lon="9.2882428"><ele>269.0</ele><time>2026-04-11T08:19:19.434Z</time></trkpt><trkpt lat="45.7713446" lon="9.288251"><ele>269.0</ele><time>2026-04-11T08:19:20.434Z</time></trkpt><trkpt lat="45.7716032" lon="9.2882653"><ele>269.0</ele><time>2026-04-11T08:19:21.434Z</time></trkpt><trkpt lat="45.7718597" lon="9.2882757"><ele>268.0</ele><time>2026-04-11T08:19:22.433Z</time></trkpt><trkpt lat="45.7721146" lon="9.2883008"><ele>267.0</ele><time>2026-04-11T08:19:23.433Z</time></trkpt><trkpt lat="45.7723744" lon="9.2883357"><ele>267.0</ele><time>2026-04-11T08:19:24.434Z</time></trkpt><trkpt lat="45.7726444" lon="9.2883589"><ele>267.0</ele><time>2026-04-11T08:19:25.433Z</time></trkpt><trkpt lat="45.7729104" lon="9.288385"><ele>267.0</ele><time>2026-04-11T08:19:26.433Z</time></trkpt><trkpt lat="45.7731626" lon="9.2883907"><ele>267.0</ele><time>2026-04-11T08:19:27.434Z</time></trkpt><trkpt lat="45.7734082" lon="9.2884"><ele>267.0</ele><time>2026-04-11T08:19:28.433Z</time></trkpt><trkpt lat="45.7736432" lon="9.2884236"><ele>267.0</ele><time>2026-04-11T08:19:29.434Z</time></trkpt><trkpt lat="45.7738693" lon="9.288435"><ele>267.0</ele><time>2026-04-11T08:19:30.433Z</time></trkpt><trkpt lat="45.7740937" lon="9.2884482"><ele>267.0</ele><time>2026-04-11T08:19:31.433Z</time></trkpt><trkpt lat="45.7743078" lon="9.288463"><ele>267.0</ele><time>2026-04-11T08:19:32.433Z</time></trkpt><trkpt lat="45.7745225" lon="9.2884879"><ele>267.0</ele><time>2026-04-11T08:19:33.433Z</time></trkpt><trkpt lat="45.7747382" lon="9.288521"><ele>267.0</ele><time>2026-04-11T08:19:34.433Z</time></trkpt><trkpt lat="45.7749548" lon="9.2885769"><ele>267.0</ele><time>2026-04-11T08:19:35.433Z</time></trkpt><trkpt lat="45.7751733" lon="9.2886409"><ele>266.0</ele><time>2026-04-11T08:19:36.434Z</time></trkpt><trkpt lat="45.7753907" lon="9.2887153"><ele>265.0</ele><time>2026-04-11T08:19:37.433Z</time></trkpt><trkpt lat="45.7756119" lon="9.2887966"><ele>265.0</ele><time>2026-04-11T08:19:38.433Z</time></trkpt><trkpt lat="45.7758289" lon="9.2888954"><ele>265.0</ele><time>2026-04-11T08:19:39.434Z</time></trkpt><trkpt lat="45.7760472" lon="9.2889992"><ele>263.0</ele><time>2026-04-11T08:19:40.433Z</time></trkpt><trkpt lat="45.7762626" lon="9.2891123"><ele>261.0</ele><time>2026-04-11T08:19:41.434Z</time></trkpt><trkpt lat="45.7764703" lon="9.2892361"><ele>261.0</ele><time>2026-04-11T08:19:42.433Z</time></trkpt><trkpt lat="45.7766752" lon="9.2893643"><ele>261.0</ele><time>2026-04-11T08:19:43.433Z</time></trkpt><trkpt lat="45.7768776" lon="9.2894989"><ele>261.0</ele><time>2026-04-11T08:19:44.433Z</time></trkpt><trkpt lat="45.777076" lon="9.289635"><ele>261.6666666666667</ele><time>2026-04-11T08:19:45.434Z</time></trkpt><trkpt lat="45.7772739" lon="9.289768"><ele>262.33333333333337</ele><time>2026-04-11T08:19:46.433Z</time></trkpt><trkpt lat="45.7774689" lon="9.2898959"><ele>263.0</ele><time>2026-04-11T08:19:47.434Z</time></trkpt><trkpt lat="45.7776529" lon="9.290014"><ele>263.33333333333337</ele><time>2026-04-11T08:19:48.434Z</time></trkpt><trkpt lat="45.7778314" lon="9.2901333"><ele>263.6666666666667</ele><time>2026-04-11T08:19:49.433Z</time></trkpt><trkpt lat="45.7780055" lon="9.290251"><ele>264.0</ele><time>2026-04-11T08:19:50.433Z</time></trkpt><trkpt lat="45.7781843" lon="9.2903674"><ele>264.0</ele><time>2026-04-11T08:19:51.433Z</time></trkpt><trkpt lat="45.7783644" lon="9.2904814"><ele>264.0</ele><time>2026-04-11T08:19:52.433Z</time></trkpt><trkpt lat="45.778548" lon="9.2906042"><ele>264.0</ele><time>2026-04-11T08:19:53.434Z</time></trkpt><trkpt lat="45.778734" lon="9.2907201"><ele>263.6666666666667</ele><time>2026-04-11T08:19:54.433Z</time></trkpt><trkpt lat="45.7789197" lon="9.2908418"><ele>263.33333333333337</ele><time>2026-04-11T08:19:55.433Z</time></trkpt><trkpt lat="45.7791052" lon="9.2909665"><ele>263.0</ele><time>2026-04-11T08:19:56.433Z</time></trkpt><trkpt lat="45.7792901" lon="9.291089"><ele>263.0</ele><time>2026-04-11T08:19:57.433Z</time></trkpt><trkpt lat="45.7794766" lon="9.2912137"><ele>263.0</ele><time>2026-04-11T08:19:58.434Z</time></trkpt><trkpt lat="45.7796655" lon="9.2913369"><ele>263.0</ele><time>2026-04-11T08:19:59.433Z</time></trkpt><trkpt lat="45.7798553" lon="9.291455"><ele>263.0</ele><time>2026-04-11T08:20:00.433Z</time></trkpt><trkpt lat="45.7800449" lon="9.291576"><ele>263.0</ele><time>2026-04-11T08:20:01.433Z</time></trkpt><trkpt lat="45.7802391" lon="9.2917086"><ele>263.0</ele><time>2026-04-11T08:20:02.433Z</time></trkpt><trkpt lat="45.7804298" lon="9.2918362"><ele>263.6666666666667</ele><time>2026-04-11T08:20:03.433Z</time></trkpt><trkpt lat="45.7806261" lon="9.2919698"><ele>264.3333333333333</ele><time>2026-04-11T08:20:04.433Z</time></trkpt><trkpt lat="45.780823" lon="9.2921028"><ele>265.0</ele><time>2026-04-11T08:20:05.433Z</time></trkpt><trkpt lat="45.7810227" lon="9.2922369"><ele>266.3333333333333</ele><time>2026-04-11T08:20:06.433Z</time></trkpt><trkpt lat="45.7812233" lon="9.2923772"><ele>267.6666666666667</ele><time>2026-04-11T08:20:07.434Z</time></trkpt><trkpt lat="45.7814246" lon="9.2925253"><ele>269.0</ele><time>2026-04-11T08:20:08.433Z</time></trkpt><trkpt lat="45.7816255" lon="9.2926737"><ele>269.0</ele><time>2026-04-11T08:20:09.433Z</time></trkpt><trkpt lat="45.7818257" lon="9.2928272"><ele>269.0</ele><time>2026-04-11T08:20:10.434Z</time></trkpt><trkpt lat="45.7820231" lon="9.2929755"><ele>269.0</ele><time>2026-04-11T08:20:11.433Z</time></trkpt><trkpt lat="45.7822202" lon="9.2931228"><ele>269.0</ele><time>2026-04-11T08:20:12.433Z</time></trkpt><trkpt lat="45.7824148" lon="9.2932695"><ele>269.0</ele><time>2026-04-11T08:20:13.433Z</time></trkpt><trkpt lat="45.7826169" lon="9.2934154"><ele>271.0</ele><time>2026-04-11T08:20:14.434Z</time></trkpt><trkpt lat="45.7828195" lon="9.2935636"><ele>273.0</ele><time>2026-04-11T08:20:15.433Z</time></trkpt><trkpt lat="45.7830219" lon="9.2937122"><ele>273.0</ele><time>2026-04-11T08:20:16.433Z</time></trkpt><trkpt lat="45.7832296" lon="9.2938611"><ele>273.0</ele><time>2026-04-11T08:20:17.433Z</time></trkpt><trkpt lat="45.7834454" lon="9.2939935"><ele>272.0</ele><time>2026-04-11T08:20:18.433Z</time></trkpt><trkpt lat="45.7836626" lon="9.294124"><ele>271.0</ele><time>2026-04-11T08:20:19.434Z</time></trkpt><trkpt lat="45.7838869" lon="9.2942455"><ele>271.0</ele><time>2026-04-11T08:20:20.433Z</time></trkpt><trkpt lat="45.784109" lon="9.2943786"><ele>271.0</ele><time>2026-04-11T08:20:21.433Z</time></trkpt><trkpt lat="45.7843313" lon="9.2945139"><ele>270.5</ele><time>2026-04-11T08:20:22.433Z</time></trkpt><trkpt lat="45.784554" lon="9.2946536"><ele>270.0</ele><time>2026-04-11T08:20:23.433Z</time></trkpt><trkpt lat="45.7847737" lon="9.2947922"><ele>267.5</ele><time>2026-04-11T08:20:24.433Z</time></trkpt><trkpt lat="45.7849838" lon="9.2949283"><ele>265.0</ele><time>2026-04-11T08:20:25.433Z</time></trkpt><trkpt lat="45.7851858" lon="9.2950686"><ele>265.0</ele><time>2026-04-11T08:20:26.433Z</time></trkpt><trkpt lat="45.785387" lon="9.2951978"><ele>265.0</ele><time>2026-04-11T08:20:27.434Z</time></trkpt><trkpt lat="45.7855803" lon="9.2953243"><ele>265.0</ele><time>2026-04-11T08:20:28.433Z</time></trkpt><trkpt lat="45.7857675" lon="9.2954502"><ele>265.0</ele><time>2026-04-11T08:20:29.433Z</time></trkpt><trkpt lat="45.7859602" lon="9.2955777"><ele>265.0</ele><time>2026-04-11T08:20:30.433Z</time></trkpt><trkpt lat="45.7861511" lon="9.2956983"><ele>265.0</ele><time>2026-04-11T08:20:31.433Z</time></trkpt><trkpt lat="45.7863384" lon="9.2958215"><ele>265.3333333333333</ele><time>2026-04-11T08:20:32.434Z</time></trkpt><trkpt lat="45.7865245" lon="9.2959375"><ele>265.6666666666667</ele><time>2026-04-11T08:20:33.433Z</time></trkpt><trkpt lat="45.7867105" lon="9.2960573"><ele>266.0</ele><time>2026-04-11T08:20:34.433Z</time></trkpt><trkpt lat="45.7868985" lon="9.2961749"><ele>266.33333333333337</ele><time>2026-04-11T08:20:35.433Z</time></trkpt><trkpt lat="45.7870957" lon="9.2962986"><ele>266.6666666666667</ele><time>2026-04-11T08:20:36.433Z</time></trkpt><trkpt lat="45.7872927" lon="9.2964238"><ele>267.0</ele><time>2026-04-11T08:20:37.433Z</time></trkpt><trkpt lat="45.7874878" lon="9.2965548"><ele>268.6666666666667</ele><time>2026-04-11T08:20:38.433Z</time></trkpt><trkpt lat="45.787685" lon="9.2966842"><ele>270.33333333333337</ele><time>2026-04-11T08:20:39.433Z</time></trkpt><trkpt lat="45.7878839" lon="9.2968188"><ele>272.0</ele><time>2026-04-11T08:20:40.434Z</time></trkpt><trkpt lat="45.7880881" lon="9.2969588"><ele>272.0</ele><time>2026-04-11T08:20:41.433Z</time></trkpt><trkpt lat="45.7882954" lon="9.297099"><ele>272.0</ele><time>2026-04-11T08:20:42.434Z</time></trkpt><trkpt lat="45.7884999" lon="9.2972443"><ele>272.0</ele><time>2026-04-11T08:20:43.433Z</time></trkpt><trkpt lat="45.7887021" lon="9.2973863"><ele>272.0</ele><time>2026-04-11T08:20:44.433Z</time></trkpt><trkpt lat="45.7889003" lon="9.2975206"><ele>272.0</ele><time>2026-04-11T08:20:45.433Z</time></trkpt><trkpt lat="45.7890861" lon="9.2976473"><ele>272.0</ele><time>2026-04-11T08:20:46.433Z</time></trkpt><trkpt lat="45.7892739" lon="9.2977692"><ele>272.0</ele><time>2026-04-11T08:20:47.433Z</time></trkpt><trkpt lat="45.7894625" lon="9.2978906"><ele>272.0</ele><time>2026-04-11T08:20:48.433Z</time></trkpt><trkpt lat="45.7896519" lon="9.2980155"><ele>271.6666666666667</ele><time>2026-04-11T08:20:49.434Z</time></trkpt><trkpt lat="45.7898415" lon="9.298139"><ele>271.3333333333333</ele><time>2026-04-11T08:20:50.434Z</time></trkpt><trkpt lat="45.7900388" lon="9.2982731"><ele>271.0</ele><time>2026-04-11T08:20:51.433Z</time></trkpt><trkpt lat="45.7902458" lon="9.2984148"><ele>272.0</ele><time>2026-04-11T08:20:52.433Z</time></trkpt><trkpt lat="45.7904633" lon="9.2985574"><ele>273.0</ele><time>2026-04-11T08:20:53.433Z</time></trkpt><trkpt lat="45.790699" lon="9.2987075"><ele>273.0</ele><time>2026-04-11T08:20:54.433Z</time></trkpt><trkpt lat="45.7909432" lon="9.2988665"><ele>273.0</ele><time>2026-04-11T08:20:55.433Z</time></trkpt><trkpt lat="45.7911873" lon="9.2990233"><ele>271.5</ele><time>2026-04-11T08:20:56.433Z</time></trkpt><trkpt lat="45.7914158" lon="9.2991794"><ele>270.0</ele><time>2026-04-11T08:20:57.434Z</time></trkpt><trkpt lat="45.7916358" lon="9.2993274"><ele>272.0</ele><time>2026-04-11T08:20:58.434Z</time></trkpt><trkpt lat="45.7918541" lon="9.2994725"><ele>274.0</ele><time>2026-04-11T08:20:59.433Z</time></trkpt><trkpt lat="45.7920733" lon="9.299622"><ele>271.0</ele><time>2026-04-11T08:21:00.433Z</time></trkpt><trkpt lat="45.792291" lon="9.2997673"><ele>268.0</ele><time>2026-04-11T08:21:01.433Z</time></trkpt><trkpt lat="45.7925015" lon="9.2999133"><ele>272.0</ele><time>2026-04-11T08:21:02.433Z</time></trkpt><trkpt lat="45.7927118" lon="9.3000592"><ele>276.0</ele><time>2026-04-11T08:21:03.433Z</time></trkpt><trkpt lat="45.792925" lon="9.3002118"><ele>276.0</ele><time>2026-04-11T08:21:04.434Z</time></trkpt><trkpt lat="45.7931311" lon="9.3003691"><ele>276.0</ele><time>2026-04-11T08:21:05.434Z</time></trkpt><trkpt lat="45.7933363" lon="9.30054"><ele>276.0</ele><time>2026-04-11T08:21:06.434Z</time></trkpt><trkpt lat="45.7935403" lon="9.3007287"><ele>276.0</ele><time>2026-04-11T08:21:07.433Z</time></trkpt><trkpt lat="45.7937464" lon="9.3009303"><ele>276.0</ele><time>2026-04-11T08:21:08.433Z</time></trkpt><trkpt lat="45.7939538" lon="9.3011322"><ele>276.0</ele><time>2026-04-11T08:21:09.434Z</time></trkpt><trkpt lat="45.7941637" lon="9.3013363"><ele>275.5</ele><time>2026-04-11T08:21:10.434Z</time></trkpt><trkpt lat="45.7943759" lon="9.3015342"><ele>275.0</ele><time>2026-04-11T08:21:11.433Z</time></trkpt><trkpt lat="45.7945929" lon="9.3017321"><ele>275.0</ele><time>2026-04-11T08:21:12.434Z</time></trkpt><trkpt lat="45.7948117" lon="9.3019401"><ele>275.0</ele><time>2026-04-11T08:21:13.433Z</time></trkpt><trkpt lat="45.7950303" lon="9.3021482"><ele>275.0</ele><time>2026-04-11T08:21:14.434Z</time></trkpt><trkpt lat="45.7952441" lon="9.3023568"><ele>275.0</ele><time>2026-04-11T08:21:15.433Z</time></trkpt><trkpt lat="45.795464" lon="9.302573"><ele>275.0</ele><time>2026-04-11T08:21:16.433Z</time></trkpt><trkpt lat="45.795689" lon="9.302788"><ele>275.0</ele><time>2026-04-11T08:21:17.433Z</time></trkpt><trkpt lat="45.7959151" lon="9.3030067"><ele>272.0</ele><time>2026-04-11T08:21:18.434Z</time></trkpt><trkpt lat="45.7961457" lon="9.3032275"><ele>269.0</ele><time>2026-04-11T08:21:19.433Z</time></trkpt><trkpt lat="45.7963787" lon="9.3034463"><ele>269.0</ele><time>2026-04-11T08:21:20.433Z</time></trkpt><trkpt lat="45.7966116" lon="9.3036691"><ele>269.0</ele><time>2026-04-11T08:21:21.434Z</time></trkpt><trkpt lat="45.796847" lon="9.3038948"><ele>268.0</ele><time>2026-04-11T08:21:22.434Z</time></trkpt><trkpt lat="45.797084" lon="9.3041234"><ele>267.0</ele><time>2026-04-11T08:21:23.433Z</time></trkpt><trkpt lat="45.7973219" lon="9.304347"><ele>267.0</ele><time>2026-04-11T08:21:24.434Z</time></trkpt><trkpt lat="45.7975541" lon="9.304562"><ele>267.0</ele><time>2026-04-11T08:21:25.433Z</time></trkpt><trkpt lat="45.7977761" lon="9.3047822"><ele>265.5</ele><time>2026-04-11T08:21:26.433Z</time></trkpt><trkpt lat="45.7979979" lon="9.3049914"><ele>264.0</ele><time>2026-04-11T08:21:27.434Z</time></trkpt><trkpt lat="45.7982081" lon="9.305191"><ele>264.0</ele><time>2026-04-11T08:21:28.433Z</time></trkpt><trkpt lat="45.7984182" lon="9.3053877"><ele>264.0</ele><time>2026-04-11T08:21:29.433Z</time></trkpt><trkpt lat="45.7986238" lon="9.3055801"><ele>264.5</ele><time>2026-04-11T08:21:30.433Z</time></trkpt><trkpt lat="45.7988277" lon="9.3057726"><ele>265.0</ele><time>2026-04-11T08:21:31.433Z</time></trkpt><trkpt lat="45.7990276" lon="9.3059717"><ele>265.0</ele><time>2026-04-11T08:21:32.433Z</time></trkpt><trkpt lat="45.7992254" lon="9.3061748"><ele>265.0</ele><time>2026-04-11T08:21:33.433Z</time></trkpt><trkpt lat="45.7994176" lon="9.3063878"><ele>265.0</ele><time>2026-04-11T08:21:34.433Z</time></trkpt><trkpt lat="45.7996078" lon="9.3066026"><ele>265.0</ele><time>2026-04-11T08:21:35.434Z</time></trkpt><trkpt lat="45.7997987" lon="9.3068112"><ele>265.0</ele><time>2026-04-11T08:21:36.434Z</time></trkpt><trkpt lat="45.7999961" lon="9.3070244"><ele>265.0</ele><time>2026-04-11T08:21:37.433Z</time></trkpt><trkpt lat="45.8001962" lon="9.3072284"><ele>264.0</ele><time>2026-04-11T08:21:38.433Z</time></trkpt><trkpt lat="45.8003952" lon="9.3074272"><ele>263.0</ele><time>2026-04-11T08:21:39.433Z</time></trkpt><trkpt lat="45.8006" lon="9.3076243"><ele>263.0</ele><time>2026-04-11T08:21:40.434Z</time></trkpt><trkpt lat="45.8008053" lon="9.3078234"><ele>263.0</ele><time>2026-04-11T08:21:41.433Z</time></trkpt><trkpt lat="45.801011" lon="9.3080119"><ele>263.0</ele><time>2026-04-11T08:21:42.433Z</time></trkpt><trkpt lat="45.8012115" lon="9.3082024"><ele>263.0</ele><time>2026-04-11T08:21:43.433Z</time></trkpt><trkpt lat="45.8014077" lon="9.3083931"><ele>263.0</ele><time>2026-04-11T08:21:44.434Z</time></trkpt><trkpt lat="45.8016031" lon="9.308582"><ele>263.0</ele><time>2026-04-11T08:21:45.434Z</time></trkpt><trkpt lat="45.8017939" lon="9.3087697"><ele>263.33333333333337</ele><time>2026-04-11T08:21:46.433Z</time></trkpt><trkpt lat="45.8019792" lon="9.3089429"><ele>263.6666666666667</ele><time>2026-04-11T08:21:47.434Z</time></trkpt><trkpt lat="45.8021648" lon="9.3091163"><ele>264.0</ele><time>2026-04-11T08:21:48.433Z</time></trkpt><trkpt lat="45.8023512" lon="9.3092918"><ele>264.0</ele><time>2026-04-11T08:21:49.434Z</time></trkpt><trkpt lat="45.8025399" lon="9.3094581"><ele>264.0</ele><time>2026-04-11T08:21:50.433Z</time></trkpt><trkpt lat="45.8027318" lon="9.3096174"><ele>264.0</ele><time>2026-04-11T08:21:51.433Z</time></trkpt><trkpt lat="45.8029237" lon="9.3097783"><ele>264.5</ele><time>2026-04-11T08:21:52.433Z</time></trkpt><trkpt lat="45.8031165" lon="9.3099308"><ele>265.0</ele><time>2026-04-11T08:21:53.433Z</time></trkpt><trkpt lat="45.8033144" lon="9.310099"><ele>266.0</ele><time>2026-04-11T08:21:54.434Z</time></trkpt><trkpt lat="45.8035164" lon="9.3102714"><ele>267.0</ele><time>2026-04-11T08:21:55.433Z</time></trkpt><trkpt lat="45.8037168" lon="9.3104411"><ele>266.5</ele><time>2026-04-11T08:21:56.433Z</time></trkpt><trkpt lat="45.8039114" lon="9.3106148"><ele>266.0</ele><time>2026-04-11T08:21:57.434Z</time></trkpt><trkpt lat="45.8040979" lon="9.3107963"><ele>266.0</ele><time>2026-04-11T08:21:58.434Z</time></trkpt><trkpt lat="45.8042818" lon="9.3109742"><ele>266.0</ele><time>2026-04-11T08:21:59.435Z</time></trkpt><trkpt lat="45.8044628" lon="9.3111564"><ele>266.0</ele><time>2026-04-11T08:22:00.434Z</time></trkpt><trkpt lat="45.8046431" lon="9.3113329"><ele>266.0</ele><time>2026-04-11T08:22:01.434Z</time></trkpt><trkpt lat="45.8048215" lon="9.3115028"><ele>266.0</ele><time>2026-04-11T08:22:02.434Z</time></trkpt><trkpt lat="45.8049894" lon="9.3116675"><ele>266.0</ele><time>2026-04-11T08:22:03.435Z</time></trkpt><trkpt lat="45.8051527" lon="9.3118169"><ele>265.6666666666667</ele><time>2026-04-11T08:22:04.434Z</time></trkpt><trkpt lat="45.8053299" lon="9.3119783"><ele>265.3333333333333</ele><time>2026-04-11T08:22:05.435Z</time></trkpt><trkpt lat="45.8055206" lon="9.3121581"><ele>265.0</ele><time>2026-04-11T08:22:06.434Z</time></trkpt><trkpt lat="45.8057261" lon="9.312359"><ele>264.0</ele><time>2026-04-11T08:22:07.434Z</time></trkpt><trkpt lat="45.8059394" lon="9.3125641"><ele>263.0</ele><time>2026-04-11T08:22:08.434Z</time></trkpt><trkpt lat="45.8061474" lon="9.3127595"><ele>263.0</ele><time>2026-04-11T08:22:09.435Z</time></trkpt><trkpt lat="45.8063598" lon="9.3129568"><ele>263.0</ele><time>2026-04-11T08:22:10.434Z</time></trkpt><trkpt lat="45.8065682" lon="9.3131533"><ele>263.5</ele><time>2026-04-11T08:22:11.435Z</time></trkpt><trkpt lat="45.8067808" lon="9.3133479"><ele>264.0</ele><time>2026-04-11T08:22:12.434Z</time></trkpt><trkpt lat="45.8069992" lon="9.3135492"><ele>264.0</ele><time>2026-04-11T08:22:13.434Z</time></trkpt><trkpt lat="45.807216" lon="9.3137478"><ele>264.0</ele><time>2026-04-11T08:22:14.434Z</time></trkpt><trkpt lat="45.8074272" lon="9.3139422"><ele>264.0</ele><time>2026-04-11T08:22:15.434Z</time></trkpt><trkpt lat="45.8076374" lon="9.314132"><ele>264.0</ele><time>2026-04-11T08:22:16.435Z</time></trkpt><trkpt lat="45.8078459" lon="9.3143125"><ele>264.0</ele><time>2026-04-11T08:22:17.435Z</time></trkpt><trkpt lat="45.8080554" lon="9.3145015"><ele>264.0</ele><time>2026-04-11T08:22:18.435Z</time></trkpt><trkpt lat="45.8082596" lon="9.3146839"><ele>264.0</ele><time>2026-04-11T08:22:19.434Z</time></trkpt><trkpt lat="45.8084773" lon="9.3148631"><ele>264.0</ele><time>2026-04-11T08:22:20.435Z</time></trkpt><trkpt lat="45.8086869" lon="9.3150517"><ele>262.0</ele><time>2026-04-11T08:22:21.434Z</time></trkpt><trkpt lat="45.8088948" lon="9.3152424"><ele>260.0</ele><time>2026-04-11T08:22:22.434Z</time></trkpt><trkpt lat="45.8091043" lon="9.3154331"><ele>258.0</ele><time>2026-04-11T08:22:23.434Z</time></trkpt><trkpt lat="45.8093128" lon="9.3156196"><ele>256.0</ele><time>2026-04-11T08:22:24.435Z</time></trkpt><trkpt lat="45.8095248" lon="9.3158059"><ele>252.0</ele><time>2026-04-11T08:22:25.434Z</time></trkpt><trkpt lat="45.8097384" lon="9.3159893"><ele>248.0</ele><time>2026-04-11T08:22:26.435Z</time></trkpt><trkpt lat="45.8099546" lon="9.3161784"><ele>247.0</ele><time>2026-04-11T08:22:27.435Z</time></trkpt><trkpt lat="45.8101684" lon="9.3163665"><ele>246.0</ele><time>2026-04-11T08:22:28.435Z</time></trkpt><trkpt lat="45.8103866" lon="9.3165577"><ele>244.0</ele><time>2026-04-11T08:22:29.434Z</time></trkpt><trkpt lat="45.8106116" lon="9.316748"><ele>242.0</ele><time>2026-04-11T08:22:30.434Z</time></trkpt><trkpt lat="45.810842" lon="9.3169414"><ele>243.0</ele><time>2026-04-11T08:22:31.434Z</time></trkpt><trkpt lat="45.8110699" lon="9.317135"><ele>244.0</ele><time>2026-04-11T08:22:32.434Z</time></trkpt><trkpt lat="45.8112925" lon="9.3173184"><ele>241.5</ele><time>2026-04-11T08:22:33.435Z</time></trkpt><trkpt lat="45.8115156" lon="9.317502"><ele>239.0</ele><time>2026-04-11T08:22:34.434Z</time></trkpt><trkpt lat="45.8117441" lon="9.317694"><ele>238.5</ele><time>2026-04-11T08:22:35.434Z</time></trkpt><trkpt lat="45.811975" lon="9.3178966"><ele>238.0</ele><time>2026-04-11T08:22:36.434Z</time></trkpt><trkpt lat="45.8122081" lon="9.3181004"><ele>238.0</ele><time>2026-04-11T08:22:37.434Z</time></trkpt><trkpt lat="45.8124383" lon="9.3183052"><ele>238.0</ele><time>2026-04-11T08:22:38.434Z</time></trkpt><trkpt lat="45.812659" lon="9.3185041"><ele>243.0</ele><time>2026-04-11T08:22:39.435Z</time></trkpt><trkpt lat="45.8128766" lon="9.3186973"><ele>248.0</ele><time>2026-04-11T08:22:40.434Z</time></trkpt><trkpt lat="45.8130908" lon="9.3188897"><ele>244.5</ele><time>2026-04-11T08:22:41.434Z</time></trkpt><trkpt lat="45.8133087" lon="9.3190795"><ele>241.0</ele><time>2026-04-11T08:22:42.433Z</time></trkpt><trkpt lat="45.8135348" lon="9.3192709"><ele>241.0</ele><time>2026-04-11T08:22:43.433Z</time></trkpt><trkpt lat="45.8137596" lon="9.3194531"><ele>241.0</ele><time>2026-04-11T08:22:44.433Z</time></trkpt><trkpt lat="45.8139874" lon="9.3196348"><ele>239.0</ele><time>2026-04-11T08:22:45.433Z</time></trkpt><trkpt lat="45.8142159" lon="9.3198134"><ele>237.0</ele><time>2026-04-11T08:22:46.433Z</time></trkpt><trkpt lat="45.8144509" lon="9.3199898"><ele>236.5</ele><time>2026-04-11T08:22:47.433Z</time></trkpt><trkpt lat="45.8146911" lon="9.3201558"><ele>236.0</ele><time>2026-04-11T08:22:48.433Z</time></trkpt><trkpt lat="45.8149312" lon="9.3203152"><ele>233.0</ele><time>2026-04-11T08:22:49.433Z</time></trkpt><trkpt lat="45.8151728" lon="9.3204643"><ele>230.0</ele><time>2026-04-11T08:22:50.433Z</time></trkpt><trkpt lat="45.8154181" lon="9.3206134"><ele>230.0</ele><time>2026-04-11T08:22:51.433Z</time></trkpt><trkpt lat="45.8156655" lon="9.3207535"><ele>230.0</ele><time>2026-04-11T08:22:52.433Z</time></trkpt><trkpt lat="45.8159179" lon="9.3208857"><ele>229.5</ele><time>2026-04-11T08:22:53.433Z</time></trkpt><trkpt lat="45.8161666" lon="9.3210257"><ele>229.0</ele><time>2026-04-11T08:22:54.434Z</time></trkpt><trkpt lat="45.8164189" lon="9.3211664"><ele>229.0</ele><time>2026-04-11T08:22:55.434Z</time></trkpt><trkpt lat="45.8166724" lon="9.3213033"><ele>229.0</ele><time>2026-04-11T08:22:56.433Z</time></trkpt><trkpt lat="45.8169164" lon="9.321434"><ele>227.5</ele><time>2026-04-11T08:22:57.433Z</time></trkpt><trkpt lat="45.8171584" lon="9.3215646"><ele>226.0</ele><time>2026-04-11T08:22:58.433Z</time></trkpt><trkpt lat="45.8173926" lon="9.3216906"><ele>226.0</ele><time>2026-04-11T08:22:59.433Z</time></trkpt><trkpt lat="45.8176238" lon="9.3218179"><ele>226.0</ele><time>2026-04-11T08:23:00.433Z</time></trkpt><trkpt lat="45.8178573" lon="9.3219422"><ele>227.5</ele><time>2026-04-11T08:23:01.433Z</time></trkpt><trkpt lat="45.8180856" lon="9.3220667"><ele>229.0</ele><time>2026-04-11T08:23:02.433Z</time></trkpt><trkpt lat="45.8183184" lon="9.322193"><ele>230.0</ele><time>2026-04-11T08:23:03.433Z</time></trkpt><trkpt lat="45.8185489" lon="9.3223218"><ele>231.0</ele><time>2026-04-11T08:23:04.433Z</time></trkpt><trkpt lat="45.8187853" lon="9.3224502"><ele>231.0</ele><time>2026-04-11T08:23:05.434Z</time></trkpt><trkpt lat="45.8190304" lon="9.3225814"><ele>231.0</ele><time>2026-04-11T08:23:06.433Z</time></trkpt><trkpt lat="45.8192887" lon="9.3227135"><ele>231.5</ele><time>2026-04-11T08:23:07.433Z</time></trkpt><trkpt lat="45.8195586" lon="9.3228566"><ele>232.0</ele><time>2026-04-11T08:23:08.433Z</time></trkpt><trkpt lat="45.8198331" lon="9.3229989"><ele>230.5</ele><time>2026-04-11T08:23:09.433Z</time></trkpt><trkpt lat="45.8200976" lon="9.3231373"><ele>229.0</ele><time>2026-04-11T08:23:10.434Z</time></trkpt><trkpt lat="45.8203456" lon="9.3232705"><ele>227.5</ele><time>2026-04-11T08:23:11.433Z</time></trkpt><trkpt lat="45.8205818" lon="9.323402"><ele>226.0</ele><time>2026-04-11T08:23:12.433Z</time></trkpt><trkpt lat="45.8208097" lon="9.3235261"><ele>226.5</ele><time>2026-04-11T08:23:13.434Z</time></trkpt><trkpt lat="45.8210216" lon="9.3236477"><ele>227.0</ele><time>2026-04-11T08:23:14.434Z</time></trkpt><trkpt lat="45.8212298" lon="9.3237557"><ele>227.0</ele><time>2026-04-11T08:23:15.433Z</time></trkpt><trkpt lat="45.8214416" lon="9.323866"><ele>227.0</ele><time>2026-04-11T08:23:16.433Z</time></trkpt><trkpt lat="45.8216511" lon="9.3239739"><ele>227.0</ele><time>2026-04-11T08:23:17.433Z</time></trkpt><trkpt lat="45.8218581" lon="9.3240929"><ele>226.0</ele><time>2026-04-11T08:23:18.434Z</time></trkpt><trkpt lat="45.8220679" lon="9.3242256"><ele>225.0</ele><time>2026-04-11T08:23:19.433Z</time></trkpt><trkpt lat="45.8222808" lon="9.3243748"><ele>225.0</ele><time>2026-04-11T08:23:20.433Z</time></trkpt><trkpt lat="45.8224847" lon="9.3245496"><ele>225.0</ele><time>2026-04-11T08:23:21.433Z</time></trkpt><trkpt lat="45.8226915" lon="9.3247495"><ele>225.5</ele><time>2026-04-11T08:23:22.433Z</time></trkpt><trkpt lat="45.8228777" lon="9.3249774"><ele>226.0</ele><time>2026-04-11T08:23:23.433Z</time></trkpt><trkpt lat="45.8230606" lon="9.3252181"><ele>226.0</ele><time>2026-04-11T08:23:24.433Z</time></trkpt><trkpt lat="45.8232321" lon="9.3254879"><ele>226.0</ele><time>2026-04-11T08:23:25.433Z</time></trkpt><trkpt lat="45.8233935" lon="9.3257697"><ele>234.5</ele><time>2026-04-11T08:23:26.433Z</time></trkpt><trkpt lat="45.8235407" lon="9.3260676"><ele>243.0</ele><time>2026-04-11T08:23:27.433Z</time></trkpt><trkpt lat="45.8236724" lon="9.3263787"><ele>244.0</ele><time>2026-04-11T08:23:28.433Z</time></trkpt><trkpt lat="45.8237844" lon="9.326696"><ele>245.0</ele><time>2026-04-11T08:23:29.433Z</time></trkpt><trkpt lat="45.8238785" lon="9.3270251"><ele>242.5</ele><time>2026-04-11T08:23:30.433Z</time></trkpt><trkpt lat="45.8239583" lon="9.327356"><ele>240.0</ele><time>2026-04-11T08:23:31.433Z</time></trkpt><trkpt lat="45.824026" lon="9.3276839"><ele>240.0</ele><time>2026-04-11T08:23:32.433Z</time></trkpt><trkpt lat="45.8240774" lon="9.328005"><ele>240.0</ele><time>2026-04-11T08:23:33.434Z</time></trkpt><trkpt lat="45.8241138" lon="9.3283412"><ele>239.5</ele><time>2026-04-11T08:23:34.433Z</time></trkpt><trkpt lat="45.8241409" lon="9.328695"><ele>239.0</ele><time>2026-04-11T08:23:35.434Z</time></trkpt><trkpt lat="45.8241692" lon="9.3290553"><ele>237.5</ele><time>2026-04-11T08:23:36.433Z</time></trkpt><trkpt lat="45.8241983" lon="9.3294103"><ele>236.0</ele><time>2026-04-11T08:23:37.433Z</time></trkpt><trkpt lat="45.8242251" lon="9.329773"><ele>234.0</ele><time>2026-04-11T08:23:38.433Z</time></trkpt><trkpt lat="45.8242548" lon="9.3301443"><ele>232.0</ele><time>2026-04-11T08:23:39.433Z</time></trkpt><trkpt lat="45.8242842" lon="9.3305157"><ele>244.0</ele><time>2026-04-11T08:23:40.433Z</time></trkpt><trkpt lat="45.8243133" lon="9.3308898"><ele>256.0</ele><time>2026-04-11T08:23:41.434Z</time></trkpt><trkpt lat="45.8243419" lon="9.3312622"><ele>255.0</ele><time>2026-04-11T08:23:42.433Z</time></trkpt><trkpt lat="45.8243729" lon="9.3316292"><ele>254.0</ele><time>2026-04-11T08:23:43.433Z</time></trkpt><trkpt lat="45.8244032" lon="9.3319969"><ele>252.5</ele><time>2026-04-11T08:23:44.433Z</time></trkpt><trkpt lat="45.8244335" lon="9.332363"><ele>251.0</ele><time>2026-04-11T08:23:45.433Z</time></trkpt><trkpt lat="45.8244636" lon="9.3327296"><ele>249.5</ele><time>2026-04-11T08:23:46.433Z</time></trkpt><trkpt lat="45.8244901" lon="9.3330919"><ele>248.0</ele><time>2026-04-11T08:23:47.433Z</time></trkpt><trkpt lat="45.8245061" lon="9.3334447"><ele>248.0</ele><time>2026-04-11T08:23:48.433Z</time></trkpt><trkpt lat="45.8245184" lon="9.3337979"><ele>248.0</ele><time>2026-04-11T08:23:49.433Z</time></trkpt><trkpt lat="45.8245228" lon="9.3341502"><ele>247.5</ele><time>2026-04-11T08:23:50.433Z</time></trkpt><trkpt lat="45.8245263" lon="9.3345094"><ele>247.0</ele><time>2026-04-11T08:23:51.433Z</time></trkpt><trkpt lat="45.8245285" lon="9.3348702"><ele>247.0</ele><time>2026-04-11T08:23:52.433Z</time></trkpt><trkpt lat="45.8245342" lon="9.3352373"><ele>247.0</ele><time>2026-04-11T08:23:53.433Z</time></trkpt><trkpt lat="45.8245375" lon="9.3356042"><ele>247.0</ele><time>2026-04-11T08:23:54.433Z</time></trkpt><trkpt lat="45.8245386" lon="9.3359746"><ele>247.0</ele><time>2026-04-11T08:23:55.433Z</time></trkpt><trkpt lat="45.8245484" lon="9.3363384"><ele>245.5</ele><time>2026-04-11T08:23:56.434Z</time></trkpt><trkpt lat="45.8245585" lon="9.3366898"><ele>244.0</ele><time>2026-04-11T08:23:57.434Z</time></trkpt><trkpt lat="45.8245712" lon="9.3370355"><ele>242.5</ele><time>2026-04-11T08:23:58.433Z</time></trkpt><trkpt lat="45.8245886" lon="9.337384"><ele>241.0</ele><time>2026-04-11T08:23:59.434Z</time></trkpt><trkpt lat="45.8246083" lon="9.3377333"><ele>239.5</ele><time>2026-04-11T08:24:00.433Z</time></trkpt><trkpt lat="45.8246245" lon="9.3380779"><ele>238.0</ele><time>2026-04-11T08:24:01.433Z</time></trkpt><trkpt lat="45.8246344" lon="9.3384197"><ele>238.0</ele><time>2026-04-11T08:24:02.433Z</time></trkpt><trkpt lat="45.8246466" lon="9.3387575"><ele>238.0</ele><time>2026-04-11T08:24:03.433Z</time></trkpt><trkpt lat="45.8246494" lon="9.3391017"><ele>237.0</ele><time>2026-04-11T08:24:04.433Z</time></trkpt><trkpt lat="45.8246375" lon="9.3394554"><ele>236.0</ele><time>2026-04-11T08:24:05.433Z</time></trkpt><trkpt lat="45.8246237" lon="9.3398081"><ele>234.5</ele><time>2026-04-11T08:24:06.433Z</time></trkpt><trkpt lat="45.824599" lon="9.3401611"><ele>233.0</ele><time>2026-04-11T08:24:07.433Z</time></trkpt><trkpt lat="45.8245759" lon="9.3405212"><ele>235.5</ele><time>2026-04-11T08:24:08.434Z</time></trkpt><trkpt lat="45.8245542" lon="9.3408866"><ele>238.0</ele><time>2026-04-11T08:24:09.434Z</time></trkpt><trkpt lat="45.8245311" lon="9.3412562"><ele>241.0</ele><time>2026-04-11T08:24:10.433Z</time></trkpt><trkpt lat="45.8245096" lon="9.3416276"><ele>244.0</ele><time>2026-04-11T08:24:11.433Z</time></trkpt><trkpt lat="45.8244911" lon="9.3420037"><ele>243.5</ele><time>2026-04-11T08:24:12.434Z</time></trkpt><trkpt lat="45.82447" lon="9.3423777"><ele>243.0</ele><time>2026-04-11T08:24:13.433Z</time></trkpt><trkpt lat="45.8244492" lon="9.3427507"><ele>239.5</ele><time>2026-04-11T08:24:14.434Z</time></trkpt><trkpt lat="45.824423" lon="9.3431161"><ele>236.0</ele><time>2026-04-11T08:24:15.433Z</time></trkpt><trkpt lat="45.8243964" lon="9.3434911"><ele>236.0</ele><time>2026-04-11T08:24:16.433Z</time></trkpt><trkpt lat="45.8243658" lon="9.3438577"><ele>236.0</ele><time>2026-04-11T08:24:17.433Z</time></trkpt><trkpt lat="45.8243452" lon="9.3442339"><ele>232.5</ele><time>2026-04-11T08:24:18.433Z</time></trkpt><trkpt lat="45.82432" lon="9.3445946"><ele>229.0</ele><time>2026-04-11T08:24:19.433Z</time></trkpt><trkpt lat="45.824297" lon="9.3449475"><ele>227.0</ele><time>2026-04-11T08:24:20.433Z</time></trkpt><trkpt lat="45.8242777" lon="9.3453025"><ele>225.0</ele><time>2026-04-11T08:24:21.434Z</time></trkpt><trkpt lat="45.8242626" lon="9.3456662"><ele>225.0</ele><time>2026-04-11T08:24:22.433Z</time></trkpt><trkpt lat="45.8242555" lon="9.3460284"><ele>225.0</ele><time>2026-04-11T08:24:23.433Z</time></trkpt><trkpt lat="45.8242588" lon="9.346388"><ele>225.5</ele><time>2026-04-11T08:24:24.434Z</time></trkpt><trkpt lat="45.8242701" lon="9.3467425"><ele>226.0</ele><time>2026-04-11T08:24:25.433Z</time></trkpt><trkpt lat="45.8242963" lon="9.347072"><ele>227.66666666666666</ele><time>2026-04-11T08:24:26.433Z</time></trkpt><trkpt lat="45.8243419" lon="9.3473832"><ele>229.33333333333331</ele><time>2026-04-11T08:24:27.433Z</time></trkpt><trkpt lat="45.8244012" lon="9.3476749"><ele>231.0</ele><time>2026-04-11T08:24:28.434Z</time></trkpt><trkpt lat="45.8244736" lon="9.3479507"><ele>229.66666666666669</ele><time>2026-04-11T08:24:29.433Z</time></trkpt><trkpt lat="45.8245662" lon="9.3482165"><ele>228.33333333333334</ele><time>2026-04-11T08:24:30.433Z</time></trkpt><trkpt lat="45.8246719" lon="9.3484765"><ele>227.0</ele><time>2026-04-11T08:24:31.433Z</time></trkpt><trkpt lat="45.8247883" lon="9.3487233"><ele>226.66666666666669</ele><time>2026-04-11T08:24:32.434Z</time></trkpt><trkpt lat="45.8249174" lon="9.3489535"><ele>226.33333333333331</ele><time>2026-04-11T08:24:33.433Z</time></trkpt><trkpt lat="45.8250631" lon="9.349168"><ele>226.0</ele><time>2026-04-11T08:24:34.433Z</time></trkpt><trkpt lat="45.8252135" lon="9.3493701"><ele>226.0</ele><time>2026-04-11T08:24:35.433Z</time></trkpt><trkpt lat="45.8253718" lon="9.3495615"><ele>226.0</ele><time>2026-04-11T08:24:36.433Z</time></trkpt><trkpt lat="45.8255385" lon="9.3497535"><ele>226.0</ele><time>2026-04-11T08:24:37.434Z</time></trkpt><trkpt lat="45.8257149" lon="9.3499298"><ele>227.33333333333331</ele><time>2026-04-11T08:24:38.433Z</time></trkpt><trkpt lat="45.825891" lon="9.3500987"><ele>228.66666666666669</ele><time>2026-04-11T08:24:39.433Z</time></trkpt><trkpt lat="45.8260722" lon="9.3502726"><ele>230.0</ele><time>2026-04-11T08:24:40.433Z</time></trkpt><trkpt lat="45.8262623" lon="9.3504475"><ele>231.5</ele><time>2026-04-11T08:24:41.433Z</time></trkpt><trkpt lat="45.8264572" lon="9.3506151"><ele>233.0</ele><time>2026-04-11T08:24:42.434Z</time></trkpt><trkpt lat="45.8266618" lon="9.3507915"><ele>233.0</ele><time>2026-04-11T08:24:43.434Z</time></trkpt><trkpt lat="45.8268688" lon="9.350961"><ele>233.0</ele><time>2026-04-11T08:24:44.434Z</time></trkpt><trkpt lat="45.8270756" lon="9.351135"><ele>233.0</ele><time>2026-04-11T08:24:45.433Z</time></trkpt><trkpt lat="45.8272808" lon="9.351311"><ele>233.0</ele><time>2026-04-11T08:24:46.433Z</time></trkpt><trkpt lat="45.8274859" lon="9.3514861"><ele>231.5</ele><time>2026-04-11T08:24:47.433Z</time></trkpt><trkpt lat="45.8276881" lon="9.3516699"><ele>230.0</ele><time>2026-04-11T08:24:48.433Z</time></trkpt><trkpt lat="45.8278817" lon="9.3518531"><ele>230.0</ele><time>2026-04-11T08:24:49.433Z</time></trkpt><trkpt lat="45.8280684" lon="9.3520477"><ele>230.0</ele><time>2026-04-11T08:24:50.433Z</time></trkpt><trkpt lat="45.8282474" lon="9.3522511"><ele>231.5</ele><time>2026-04-11T08:24:51.433Z</time></trkpt><trkpt lat="45.8284257" lon="9.3524588"><ele>233.0</ele><time>2026-04-11T08:24:52.434Z</time></trkpt><trkpt lat="45.8285945" lon="9.3526783"><ele>233.5</ele><time>2026-04-11T08:24:53.433Z</time></trkpt><trkpt lat="45.8287589" lon="9.3529074"><ele>234.0</ele><time>2026-04-11T08:24:54.433Z</time></trkpt><trkpt lat="45.8289126" lon="9.3531464"><ele>236.5</ele><time>2026-04-11T08:24:55.434Z</time></trkpt><trkpt lat="45.8290627" lon="9.353406"><ele>239.0</ele><time>2026-04-11T08:24:56.433Z</time></trkpt><trkpt lat="45.8291993" lon="9.3536668"><ele>240.66666666666669</ele><time>2026-04-11T08:24:57.434Z</time></trkpt><trkpt lat="45.8293264" lon="9.3539268"><ele>242.33333333333331</ele><time>2026-04-11T08:24:58.433Z</time></trkpt><trkpt lat="45.8294494" lon="9.354198"><ele>244.0</ele><time>2026-04-11T08:24:59.433Z</time></trkpt><trkpt lat="45.8295644" lon="9.3544696"><ele>248.0</ele><time>2026-04-11T08:25:00.433Z</time></trkpt><trkpt lat="45.8296751" lon="9.3547515"><ele>252.0</ele><time>2026-04-11T08:25:01.433Z</time></trkpt><trkpt lat="45.8297796" lon="9.3550351"><ele>256.0</ele><time>2026-04-11T08:25:02.434Z</time></trkpt><trkpt lat="45.8298818" lon="9.3553219"><ele>209.0</ele><time>2026-04-11T08:25:03.434Z</time></trkpt><trkpt lat="45.8389621" lon="9.3938792"><ele>200.0</ele><time>2026-04-11T08:26:47.002Z</time></trkpt><trkpt lat="45.8384771" lon="9.3960776"><ele>200.0</ele><time>2026-04-11T08:26:51.433Z</time></trkpt><trkpt lat="45.8384893" lon="9.3964461"><ele>200.0</ele><time>2026-04-11T08:26:52.433Z</time></trkpt><trkpt lat="45.8385045" lon="9.3968119"><ele>200.0</ele><time>2026-04-11T08:26:53.434Z</time></trkpt><trkpt lat="45.8385392" lon="9.3971707"><ele>200.0</ele><time>2026-04-11T08:26:54.434Z</time></trkpt><trkpt lat="45.8385794" lon="9.3975241"><ele>200.0</ele><time>2026-04-11T08:26:55.434Z</time></trkpt><trkpt lat="45.8386283" lon="9.3978779"><ele>200.0</ele><time>2026-04-11T08:26:56.433Z</time></trkpt><trkpt lat="45.8386752" lon="9.3982373"><ele>199.0</ele><time>2026-04-11T08:26:57.433Z</time></trkpt><trkpt lat="45.8387224" lon="9.3985997"><ele>198.0</ele><time>2026-04-11T08:26:58.433Z</time></trkpt><trkpt lat="45.838775" lon="9.3989606"><ele>198.0</ele><time>2026-04-11T08:26:59.433Z</time></trkpt><trkpt lat="45.8388196" lon="9.399324"><ele>198.0</ele><time>2026-04-11T08:27:00.433Z</time></trkpt><trkpt lat="45.8388643" lon="9.399675"><ele>198.0</ele><time>2026-04-11T08:27:01.433Z</time></trkpt><trkpt lat="45.8389071" lon="9.4000155"><ele>198.0</ele><time>2026-04-11T08:27:02.434Z</time></trkpt><trkpt lat="45.8389475" lon="9.4003591"><ele>198.5</ele><time>2026-04-11T08:27:03.433Z</time></trkpt><trkpt lat="45.8389889" lon="9.4006984"><ele>199.0</ele><time>2026-04-11T08:27:04.433Z</time></trkpt><trkpt lat="45.8390275" lon="9.4010181"><ele>200.0</ele><time>2026-04-11T08:27:05.434Z</time></trkpt><trkpt lat="45.8390678" lon="9.4013376"><ele>201.0</ele><time>2026-04-11T08:27:06.434Z</time></trkpt><trkpt lat="45.8391071" lon="9.4016646"><ele>201.0</ele><time>2026-04-11T08:27:07.433Z</time></trkpt><trkpt lat="45.8391467" lon="9.4019914"><ele>201.0</ele><time>2026-04-11T08:27:08.433Z</time></trkpt><trkpt lat="45.8391854" lon="9.4023105"><ele>201.66666666666669</ele><time>2026-04-11T08:27:09.433Z</time></trkpt><trkpt lat="45.8392283" lon="9.4026219"><ele>202.33333333333334</ele><time>2026-04-11T08:27:10.434Z</time></trkpt><trkpt lat="45.8392823" lon="9.4029218"><ele>203.0</ele><time>2026-04-11T08:27:11.433Z</time></trkpt><trkpt lat="45.8393569" lon="9.4032035"><ele>203.33333333333334</ele><time>2026-04-11T08:27:12.433Z</time></trkpt><trkpt lat="45.839451" lon="9.4034753"><ele>203.66666666666669</ele><time>2026-04-11T08:27:13.433Z</time></trkpt><trkpt lat="45.8395683" lon="9.4037297"><ele>204.0</ele><time>2026-04-11T08:27:14.433Z</time></trkpt><trkpt lat="45.8397029" lon="9.4039571"><ele>204.33333333333331</ele><time>2026-04-11T08:27:15.433Z</time></trkpt><trkpt lat="45.8398574" lon="9.4041707"><ele>204.66666666666666</ele><time>2026-04-11T08:27:16.433Z</time></trkpt><trkpt lat="45.8400205" lon="9.404359"><ele>205.0</ele><time>2026-04-11T08:27:17.433Z</time></trkpt><trkpt lat="45.8401926" lon="9.4045146"><ele>205.0</ele><time>2026-04-11T08:27:18.433Z</time></trkpt><trkpt lat="45.8403707" lon="9.4046472"><ele>205.0</ele><time>2026-04-11T08:27:19.433Z</time></trkpt><trkpt lat="45.8405569" lon="9.4047521"><ele>205.0</ele><time>2026-04-11T08:27:20.433Z</time></trkpt><trkpt lat="45.8407481" lon="9.4048275"><ele>205.33333333333331</ele><time>2026-04-11T08:27:21.433Z</time></trkpt><trkpt lat="45.8409406" lon="9.4048745"><ele>205.66666666666669</ele><time>2026-04-11T08:27:22.433Z</time></trkpt><trkpt lat="45.8411363" lon="9.4048942"><ele>206.0</ele><time>2026-04-11T08:27:23.433Z</time></trkpt><trkpt lat="45.8413371" lon="9.4049145"><ele>207.0</ele><time>2026-04-11T08:27:24.434Z</time></trkpt><trkpt lat="45.8415422" lon="9.4049381"><ele>208.0</ele><time>2026-04-11T08:27:25.433Z</time></trkpt><trkpt lat="45.8417528" lon="9.4049574"><ele>209.0</ele><time>2026-04-11T08:27:26.433Z</time></trkpt><trkpt lat="45.8419589" lon="9.4049873"><ele>209.0</ele><time>2026-04-11T08:27:27.434Z</time></trkpt><trkpt lat="45.8421505" lon="9.4050178"><ele>209.0</ele><time>2026-04-11T08:27:28.434Z</time></trkpt><trkpt lat="45.8423372" lon="9.4050435"><ele>209.0</ele><time>2026-04-11T08:27:29.433Z</time></trkpt><trkpt lat="45.842523" lon="9.4050782"><ele>208.66666666666669</ele><time>2026-04-11T08:27:30.433Z</time></trkpt><trkpt lat="45.8427046" lon="9.4051392"><ele>208.33333333333331</ele><time>2026-04-11T08:27:31.433Z</time></trkpt><trkpt lat="45.8428872" lon="9.4052135"><ele>208.0</ele><time>2026-04-11T08:27:32.433Z</time></trkpt><trkpt lat="45.8430822" lon="9.4052823"><ele>208.0</ele><time>2026-04-11T08:27:33.433Z</time></trkpt><trkpt lat="45.8432814" lon="9.4053528"><ele>208.0</ele><time>2026-04-11T08:27:34.433Z</time></trkpt><trkpt lat="45.8434829" lon="9.4054135"><ele>208.0</ele><time>2026-04-11T08:27:35.433Z</time></trkpt><trkpt lat="45.8436867" lon="9.4054804"><ele>208.33333333333331</ele><time>2026-04-11T08:27:36.433Z</time></trkpt><trkpt lat="45.8438958" lon="9.4055413"><ele>208.66666666666669</ele><time>2026-04-11T08:27:37.434Z</time></trkpt><trkpt lat="45.8441024" lon="9.4055825"><ele>209.0</ele><time>2026-04-11T08:27:38.433Z</time></trkpt><trkpt lat="45.8443083" lon="9.4055862"><ele>209.0</ele><time>2026-04-11T08:27:39.433Z</time></trkpt><trkpt lat="45.8445183" lon="9.4055607"><ele>209.0</ele><time>2026-04-11T08:27:40.434Z</time></trkpt><trkpt lat="45.844742" lon="9.4055121"><ele>209.0</ele><time>2026-04-11T08:27:41.433Z</time></trkpt><trkpt lat="45.8449797" lon="9.4054323"><ele>211.5</ele><time>2026-04-11T08:27:42.434Z</time></trkpt><trkpt lat="45.8452258" lon="9.4053273"><ele>214.0</ele><time>2026-04-11T08:27:43.434Z</time></trkpt><trkpt lat="45.8454697" lon="9.4052211"><ele>214.0</ele><time>2026-04-11T08:27:44.434Z</time></trkpt><trkpt lat="45.8457111" lon="9.4051267"><ele>214.0</ele><time>2026-04-11T08:27:45.433Z</time></trkpt><trkpt lat="45.8459417" lon="9.4050307"><ele>214.5</ele><time>2026-04-11T08:27:46.433Z</time></trkpt><trkpt lat="45.8461761" lon="9.4049352"><ele>215.0</ele><time>2026-04-11T08:27:47.433Z</time></trkpt><trkpt lat="45.8464005" lon="9.4048409"><ele>215.0</ele><time>2026-04-11T08:27:48.433Z</time></trkpt><trkpt lat="45.8466187" lon="9.404755"><ele>215.0</ele><time>2026-04-11T08:27:49.433Z</time></trkpt><trkpt lat="45.8468316" lon="9.4046745"><ele>215.0</ele><time>2026-04-11T08:27:50.433Z</time></trkpt><trkpt lat="45.8470473" lon="9.404585"><ele>214.66666666666669</ele><time>2026-04-11T08:27:51.433Z</time></trkpt><trkpt lat="45.8472626" lon="9.4045031"><ele>214.33333333333331</ele><time>2026-04-11T08:27:52.433Z</time></trkpt><trkpt lat="45.8474716" lon="9.4044151"><ele>214.0</ele><time>2026-04-11T08:27:53.433Z</time></trkpt><trkpt lat="45.8476785" lon="9.4043238"><ele>214.0</ele><time>2026-04-11T08:27:54.433Z</time></trkpt><trkpt lat="45.8478821" lon="9.4042146"><ele>214.0</ele><time>2026-04-11T08:27:55.433Z</time></trkpt><trkpt lat="45.8480909" lon="9.4040888"><ele>214.0</ele><time>2026-04-11T08:27:56.433Z</time></trkpt><trkpt lat="45.8482933" lon="9.4039318"><ele>215.0</ele><time>2026-04-11T08:27:57.434Z</time></trkpt><trkpt lat="45.8484927" lon="9.4037495"><ele>216.0</ele><time>2026-04-11T08:27:58.433Z</time></trkpt><trkpt lat="45.8487001" lon="9.4035752"><ele>216.0</ele><time>2026-04-11T08:27:59.434Z</time></trkpt><trkpt lat="45.8489141" lon="9.4034035"><ele>216.0</ele><time>2026-04-11T08:28:00.434Z</time></trkpt><trkpt lat="45.8491306" lon="9.4032255"><ele>217.0</ele><time>2026-04-11T08:28:01.434Z</time></trkpt><trkpt lat="45.8493445" lon="9.403047"><ele>218.0</ele><time>2026-04-11T08:28:02.433Z</time></trkpt><trkpt lat="45.8495644" lon="9.4028749"><ele>216.0</ele><time>2026-04-11T08:28:03.434Z</time></trkpt><trkpt lat="45.8497818" lon="9.4026949"><ele>214.0</ele><time>2026-04-11T08:28:04.434Z</time></trkpt><trkpt lat="45.8499994" lon="9.4025145"><ele>228.0</ele><time>2026-04-11T08:28:05.433Z</time></trkpt><trkpt lat="45.8565352" lon="9.3980836"><ele>244.0</ele><time>2026-04-11T08:28:27.894Z</time></trkpt><trkpt lat="45.8647493" lon="9.389931"><ele>213.0</ele><time>2026-04-11T08:29:29.281Z</time></trkpt><trkpt lat="45.8800529" lon="9.370505"><ele>216.0</ele><time>2026-04-11T08:30:48.434Z</time></trkpt><trkpt lat="45.8801283" lon="9.370213"><ele>219.0</ele><time>2026-04-11T08:30:49.433Z</time></trkpt><trkpt lat="45.8802316" lon="9.3699196"><ele>222.0</ele><time>2026-04-11T08:30:50.434Z</time></trkpt><trkpt lat="45.8803493" lon="9.3696335"><ele>222.0</ele><time>2026-04-11T08:30:51.433Z</time></trkpt><trkpt lat="45.8804819" lon="9.3693639"><ele>222.0</ele><time>2026-04-11T08:30:52.434Z</time></trkpt><trkpt lat="45.88062" lon="9.3691078"><ele>215.5</ele><time>2026-04-11T08:30:53.433Z</time></trkpt><trkpt lat="45.8807612" lon="9.3688552"><ele>209.0</ele><time>2026-04-11T08:30:54.433Z</time></trkpt><trkpt lat="45.8809016" lon="9.3685993"><ele>219.5</ele><time>2026-04-11T08:30:55.433Z</time></trkpt><trkpt lat="45.8810351" lon="9.3683428"><ele>230.0</ele><time>2026-04-11T08:30:56.433Z</time></trkpt><trkpt lat="45.881176" lon="9.3680866"><ele>224.0</ele><time>2026-04-11T08:30:57.433Z</time></trkpt><trkpt lat="45.8813185" lon="9.367821"><ele>218.0</ele><time>2026-04-11T08:30:58.433Z</time></trkpt><trkpt lat="45.8814647" lon="9.3675549"><ele>218.0</ele><time>2026-04-11T08:30:59.433Z</time></trkpt><trkpt lat="45.8816069" lon="9.3672891"><ele>218.0</ele><time>2026-04-11T08:31:00.433Z</time></trkpt><trkpt lat="45.8817437" lon="9.3670306"><ele>218.33333333333334</ele><time>2026-04-11T08:31:01.434Z</time></trkpt><trkpt lat="45.8818815" lon="9.3667771"><ele>218.66666666666669</ele><time>2026-04-11T08:31:02.434Z</time></trkpt><trkpt lat="45.8820203" lon="9.366531"><ele>219.0</ele><time>2026-04-11T08:31:03.434Z</time></trkpt><trkpt lat="45.8821575" lon="9.366293"><ele>219.0</ele><time>2026-04-11T08:31:04.433Z</time></trkpt><trkpt lat="45.8822869" lon="9.3660507"><ele>219.0</ele><time>2026-04-11T08:31:05.434Z</time></trkpt><trkpt lat="45.8824171" lon="9.3658069"><ele>219.0</ele><time>2026-04-11T08:31:06.434Z</time></trkpt><trkpt lat="45.8825507" lon="9.3655632"><ele>226.66666666666669</ele><time>2026-04-11T08:31:07.433Z</time></trkpt><trkpt lat="45.8826768" lon="9.3653178"><ele>234.33333333333334</ele><time>2026-04-11T08:31:08.433Z</time></trkpt><trkpt lat="45.882801" lon="9.3650618"><ele>242.0</ele><time>2026-04-11T08:31:09.433Z</time></trkpt><trkpt lat="45.8829245" lon="9.3647941"><ele>235.5</ele><time>2026-04-11T08:31:10.433Z</time></trkpt><trkpt lat="45.8830482" lon="9.3645194"><ele>229.0</ele><time>2026-04-11T08:31:11.434Z</time></trkpt><trkpt lat="45.883168" lon="9.3642433"><ele>229.0</ele><time>2026-04-11T08:31:12.433Z</time></trkpt><trkpt lat="45.8833004" lon="9.3639746"><ele>229.0</ele><time>2026-04-11T08:31:13.434Z</time></trkpt><trkpt lat="45.885731" lon="9.3606403"><ele>227.0</ele><time>2026-04-11T08:31:29.433Z</time></trkpt><trkpt lat="45.8859274" lon="9.3605391"><ele>225.0</ele><time>2026-04-11T08:31:30.433Z</time></trkpt><trkpt lat="45.8861022" lon="9.3603956"><ele>223.0</ele><time>2026-04-11T08:31:31.433Z</time></trkpt><trkpt lat="45.8862839" lon="9.3602682"><ele>224.66666666666666</ele><time>2026-04-11T08:31:32.433Z</time></trkpt><trkpt lat="45.8864722" lon="9.3601352"><ele>226.33333333333331</ele><time>2026-04-11T08:31:33.434Z</time></trkpt><trkpt lat="45.886658" lon="9.3600053"><ele>228.0</ele><time>2026-04-11T08:31:34.434Z</time></trkpt><trkpt lat="45.8868382" lon="9.3598721"><ele>228.0</ele><time>2026-04-11T08:31:35.433Z</time></trkpt><trkpt lat="45.8870213" lon="9.3597404"><ele>228.0</ele><time>2026-04-11T08:31:36.433Z</time></trkpt><trkpt lat="45.8872019" lon="9.3596145"><ele>228.0</ele><time>2026-04-11T08:31:37.433Z</time></trkpt><trkpt lat="45.8873843" lon="9.3594814"><ele>226.0</ele><time>2026-04-11T08:31:38.433Z</time></trkpt><trkpt lat="45.8875713" lon="9.3593539"><ele>224.0</ele><time>2026-04-11T08:31:39.433Z</time></trkpt><trkpt lat="45.8877598" lon="9.3592406"><ele>222.0</ele><time>2026-04-11T08:31:40.434Z</time></trkpt><trkpt lat="45.8879537" lon="9.3591379"><ele>222.0</ele><time>2026-04-11T08:31:41.433Z</time></trkpt><trkpt lat="45.8881545" lon="9.3590396"><ele>222.0</ele><time>2026-04-11T08:31:42.433Z</time></trkpt><trkpt lat="45.888354" lon="9.358951"><ele>222.0</ele><time>2026-04-11T08:31:43.433Z</time></trkpt><trkpt lat="45.888549" lon="9.3588566"><ele>218.0</ele><time>2026-04-11T08:31:44.434Z</time></trkpt><trkpt lat="45.8887414" lon="9.3587567"><ele>214.0</ele><time>2026-04-11T08:31:45.433Z</time></trkpt><trkpt lat="45.8889352" lon="9.3586577"><ele>210.0</ele><time>2026-04-11T08:31:46.433Z</time></trkpt><trkpt lat="45.8891274" lon="9.3585656"><ele>215.66666666666669</ele><time>2026-04-11T08:31:47.434Z</time></trkpt><trkpt lat="45.8893097" lon="9.3584672"><ele>221.33333333333334</ele><time>2026-04-11T08:31:48.433Z</time></trkpt><trkpt lat="45.88948" lon="9.3583523"><ele>227.0</ele><time>2026-04-11T08:31:49.433Z</time></trkpt><trkpt lat="45.8896445" lon="9.3582231"><ele>227.0</ele><time>2026-04-11T08:31:50.433Z</time></trkpt><trkpt lat="45.8898045" lon="9.3580818"><ele>227.0</ele><time>2026-04-11T08:31:51.433Z</time></trkpt><trkpt lat="45.8899556" lon="9.3579267"><ele>227.0</ele><time>2026-04-11T08:31:52.433Z</time></trkpt><trkpt lat="45.890106" lon="9.3577548"><ele>227.0</ele><time>2026-04-11T08:31:53.434Z</time></trkpt><trkpt lat="45.8902499" lon="9.3575659"><ele>227.0</ele><time>2026-04-11T08:31:54.433Z</time></trkpt><trkpt lat="45.8903916" lon="9.3573498"><ele>227.0</ele><time>2026-04-11T08:31:55.433Z</time></trkpt><trkpt lat="45.8905276" lon="9.3571267"><ele>221.66666666666669</ele><time>2026-04-11T08:31:56.433Z</time></trkpt><trkpt lat="45.8906586" lon="9.3568981"><ele>216.33333333333331</ele><time>2026-04-11T08:31:57.433Z</time></trkpt><trkpt lat="45.890786" lon="9.3566523"><ele>211.0</ele><time>2026-04-11T08:31:58.434Z</time></trkpt><trkpt lat="45.8909054" lon="9.3564012"><ele>213.33333333333331</ele><time>2026-04-11T08:31:59.434Z</time></trkpt><trkpt lat="45.8910207" lon="9.3561464"><ele>215.66666666666669</ele><time>2026-04-11T08:32:00.434Z</time></trkpt><trkpt lat="45.8911338" lon="9.3558961"><ele>218.0</ele><time>2026-04-11T08:32:01.434Z</time></trkpt><trkpt lat="45.8912508" lon="9.355644"><ele>214.66666666666669</ele><time>2026-04-11T08:32:02.433Z</time></trkpt><trkpt lat="45.8913751" lon="9.3554015"><ele>211.33333333333331</ele><time>2026-04-11T08:32:03.433Z</time></trkpt><trkpt lat="45.8915109" lon="9.3551671"><ele>208.0</ele><time>2026-04-11T08:32:04.433Z</time></trkpt><trkpt lat="45.891655" lon="9.3549457"><ele>209.0</ele><time>2026-04-11T08:32:05.434Z</time></trkpt><trkpt lat="45.8918176" lon="9.3547328"><ele>210.0</ele><time>2026-04-11T08:32:06.434Z</time></trkpt><trkpt lat="45.8919903" lon="9.3545297"><ele>211.0</ele><time>2026-04-11T08:32:07.433Z</time></trkpt><trkpt lat="45.8921706" lon="9.3543324"><ele>211.0</ele><time>2026-04-11T08:32:08.434Z</time></trkpt><trkpt lat="45.8923573" lon="9.3541302"><ele>211.0</ele><time>2026-04-11T08:32:09.434Z</time></trkpt><trkpt lat="45.8925364" lon="9.3539368"><ele>216.33333333333331</ele><time>2026-04-11T08:32:10.434Z</time></trkpt><trkpt lat="45.8927095" lon="9.3537335"><ele>221.66666666666669</ele><time>2026-04-11T08:32:11.433Z</time></trkpt><trkpt lat="45.8928696" lon="9.3535184"><ele>227.0</ele><time>2026-04-11T08:32:12.434Z</time></trkpt><trkpt lat="45.8930224" lon="9.353288"><ele>227.0</ele><time>2026-04-11T08:32:13.433Z</time></trkpt><trkpt lat="45.8931668" lon="9.353045"><ele>227.0</ele><time>2026-04-11T08:32:14.433Z</time></trkpt><trkpt lat="45.8932979" lon="9.3527936"><ele>227.0</ele><time>2026-04-11T08:32:15.433Z</time></trkpt><trkpt lat="45.893417" lon="9.352536"><ele>229.0</ele><time>2026-04-11T08:32:16.433Z</time></trkpt><trkpt lat="45.8935185" lon="9.3522651"><ele>231.0</ele><time>2026-04-11T08:32:17.434Z</time></trkpt><trkpt lat="45.8936157" lon="9.3519923"><ele>233.0</ele><time>2026-04-11T08:32:18.434Z</time></trkpt><trkpt lat="45.8937068" lon="9.3517114"><ele>233.0</ele><time>2026-04-11T08:32:19.433Z</time></trkpt><trkpt lat="45.8937914" lon="9.3514234"><ele>233.0</ele><time>2026-04-11T08:32:20.434Z</time></trkpt><trkpt lat="45.8938747" lon="9.3511347"><ele>233.0</ele><time>2026-04-11T08:32:21.433Z</time></trkpt><trkpt lat="45.8939617" lon="9.3508461"><ele>226.33333333333334</ele><time>2026-04-11T08:32:22.433Z</time></trkpt><trkpt lat="45.8940492" lon="9.3505594"><ele>219.66666666666669</ele><time>2026-04-11T08:32:23.433Z</time></trkpt><trkpt lat="45.8941338" lon="9.3502754"><ele>213.0</ele><time>2026-04-11T08:32:24.433Z</time></trkpt><trkpt lat="45.8942174" lon="9.3499949"><ele>217.66666666666669</ele><time>2026-04-11T08:32:25.433Z</time></trkpt><trkpt lat="45.894305" lon="9.349716"><ele>222.33333333333334</ele><time>2026-04-11T08:32:26.433Z</time></trkpt><trkpt lat="45.8943882" lon="9.3494376"><ele>227.0</ele><time>2026-04-11T08:32:27.433Z</time></trkpt><trkpt lat="45.894473" lon="9.3491574"><ele>227.0</ele><time>2026-04-11T08:32:28.434Z</time></trkpt><trkpt lat="45.894558" lon="9.3488773"><ele>227.0</ele><time>2026-04-11T08:32:29.434Z</time></trkpt><trkpt lat="45.8946503" lon="9.3486038"><ele>227.0</ele><time>2026-04-11T08:32:30.434Z</time></trkpt><trkpt lat="45.8947506" lon="9.3483426"><ele>227.0</ele><time>2026-04-11T08:32:31.434Z</time></trkpt><trkpt lat="45.8948624" lon="9.3480827"><ele>227.0</ele><time>2026-04-11T08:32:32.434Z</time></trkpt><trkpt lat="45.8949788" lon="9.3478197"><ele>227.0</ele><time>2026-04-11T08:32:33.433Z</time></trkpt><trkpt lat="45.8950965" lon="9.3475614"><ele>227.0</ele><time>2026-04-11T08:32:34.433Z</time></trkpt><trkpt lat="45.8952164" lon="9.3473081"><ele>227.0</ele><time>2026-04-11T08:32:35.434Z</time></trkpt><trkpt lat="45.8953344" lon="9.3470546"><ele>227.0</ele><time>2026-04-11T08:32:36.434Z</time></trkpt><trkpt lat="45.8954484" lon="9.3467938"><ele>220.66666666666669</ele><time>2026-04-11T08:32:37.434Z</time></trkpt><trkpt lat="45.8955574" lon="9.3465295"><ele>214.33333333333331</ele><time>2026-04-11T08:32:38.433Z</time></trkpt><trkpt lat="45.8956722" lon="9.3462676"><ele>208.0</ele><time>2026-04-11T08:32:39.434Z</time></trkpt><trkpt lat="45.8957949" lon="9.3460149"><ele>229.0</ele><time>2026-04-11T08:32:40.433Z</time></trkpt><trkpt lat="45.9030684" lon="9.3355274"><ele>229.0</ele><time>2026-04-11T08:33:28.434Z</time></trkpt><trkpt lat="45.9031994" lon="9.3353551"><ele>229.0</ele><time>2026-04-11T08:33:29.433Z</time></trkpt><trkpt lat="45.9033535" lon="9.3351802"><ele>229.0</ele><time>2026-04-11T08:33:30.434Z</time></trkpt><trkpt lat="45.9035065" lon="9.3350064"><ele>230.0</ele><time>2026-04-11T08:33:31.434Z</time></trkpt><trkpt lat="45.903654" lon="9.3348308"><ele>231.0</ele><time>2026-04-11T08:33:32.433Z</time></trkpt><trkpt lat="45.9038151" lon="9.3346682"><ele>232.0</ele><time>2026-04-11T08:33:33.433Z</time></trkpt><trkpt lat="45.903977" lon="9.3345219"><ele>232.0</ele><time>2026-04-11T08:33:34.434Z</time></trkpt><trkpt lat="45.9041497" lon="9.3343827"><ele>232.0</ele><time>2026-04-11T08:33:35.433Z</time></trkpt><trkpt lat="45.904343" lon="9.334247"><ele>232.0</ele><time>2026-04-11T08:33:36.434Z</time></trkpt><trkpt lat="45.9045457" lon="9.334122"><ele>236.5</ele><time>2026-04-11T08:33:37.433Z</time></trkpt><trkpt lat="45.9047624" lon="9.3339981"><ele>241.0</ele><time>2026-04-11T08:33:38.433Z</time></trkpt><trkpt lat="45.9049812" lon="9.3338789"><ele>244.5</ele><time>2026-04-11T08:33:39.433Z</time></trkpt><trkpt lat="45.9052045" lon="9.3337591"><ele>248.0</ele><time>2026-04-11T08:33:40.433Z</time></trkpt><trkpt lat="45.9054294" lon="9.3336418"><ele>248.0</ele><time>2026-04-11T08:33:41.433Z</time></trkpt><trkpt lat="45.9056513" lon="9.3335224"><ele>248.0</ele><time>2026-04-11T08:33:42.433Z</time></trkpt><trkpt lat="45.9058795" lon="9.3334061"><ele>255.0</ele><time>2026-04-11T08:33:43.433Z</time></trkpt><trkpt lat="45.9061082" lon="9.3332929"><ele>262.0</ele><time>2026-04-11T08:33:44.434Z</time></trkpt><trkpt lat="45.9063341" lon="9.3331764"><ele>262.0</ele><time>2026-04-11T08:33:45.434Z</time></trkpt><trkpt lat="45.9065615" lon="9.3330632"><ele>262.0</ele><time>2026-04-11T08:33:46.433Z</time></trkpt><trkpt lat="45.9067902" lon="9.3329445"><ele>261.5</ele><time>2026-04-11T08:33:47.433Z</time></trkpt><trkpt lat="45.9070189" lon="9.3328261"><ele>261.0</ele><time>2026-04-11T08:33:48.434Z</time></trkpt><trkpt lat="45.9072498" lon="9.3327018"><ele>261.0</ele><time>2026-04-11T08:33:49.434Z</time></trkpt><trkpt lat="45.9074773" lon="9.3325812"><ele>261.0</ele><time>2026-04-11T08:33:50.433Z</time></trkpt><trkpt lat="45.9077076" lon="9.332465"><ele>262.5</ele><time>2026-04-11T08:33:51.434Z</time></trkpt><trkpt lat="45.9079363" lon="9.3323492"><ele>264.0</ele><time>2026-04-11T08:33:52.434Z</time></trkpt><trkpt lat="45.908166" lon="9.3322229"><ele>264.0</ele><time>2026-04-11T08:33:53.433Z</time></trkpt><trkpt lat="45.908396" lon="9.3320945"><ele>264.0</ele><time>2026-04-11T08:33:54.433Z</time></trkpt><trkpt lat="45.9086256" lon="9.3319543"><ele>269.5</ele><time>2026-04-11T08:33:55.433Z</time></trkpt><trkpt lat="45.9088557" lon="9.3318083"><ele>275.0</ele><time>2026-04-11T08:33:56.434Z</time></trkpt><trkpt lat="45.9090842" lon="9.3316379"><ele>276.0</ele><time>2026-04-11T08:33:57.433Z</time></trkpt><trkpt lat="45.9093158" lon="9.331462"><ele>277.0</ele><time>2026-04-11T08:33:58.433Z</time></trkpt><trkpt lat="45.909546" lon="9.3312774"><ele>277.0</ele><time>2026-04-11T08:33:59.433Z</time></trkpt><trkpt lat="45.9097829" lon="9.3310742"><ele>277.0</ele><time>2026-04-11T08:34:00.433Z</time></trkpt><trkpt lat="45.9100205" lon="9.3308568"><ele>279.0</ele><time>2026-04-11T08:34:01.433Z</time></trkpt><trkpt lat="45.9102588" lon="9.3306272"><ele>281.0</ele><time>2026-04-11T08:34:02.433Z</time></trkpt><trkpt lat="45.910494" lon="9.3303918"><ele>281.0</ele><time>2026-04-11T08:34:03.433Z</time></trkpt><trkpt lat="45.9107267" lon="9.3301571"><ele>281.0</ele><time>2026-04-11T08:34:04.433Z</time></trkpt><trkpt lat="45.910955" lon="9.3299251"><ele>285.5</ele><time>2026-04-11T08:34:05.433Z</time></trkpt><trkpt lat="45.9111802" lon="9.3297048"><ele>290.0</ele><time>2026-04-11T08:34:06.433Z</time></trkpt><trkpt lat="45.9114074" lon="9.3294938"><ele>290.0</ele><time>2026-04-11T08:34:07.434Z</time></trkpt><trkpt lat="45.9116442" lon="9.329296"><ele>290.0</ele><time>2026-04-11T08:34:08.434Z</time></trkpt><trkpt lat="45.9118803" lon="9.3291139"><ele>287.5</ele><time>2026-04-11T08:34:09.433Z</time></trkpt><trkpt lat="45.9121102" lon="9.3289622"><ele>285.0</ele><time>2026-04-11T08:34:10.433Z</time></trkpt><trkpt lat="45.9123473" lon="9.3288188"><ele>286.0</ele><time>2026-04-11T08:34:11.434Z</time></trkpt><trkpt lat="45.9125871" lon="9.3286961"><ele>287.0</ele><time>2026-04-11T08:34:12.433Z</time></trkpt><trkpt lat="45.9128228" lon="9.3285795"><ele>287.0</ele><time>2026-04-11T08:34:13.434Z</time></trkpt><trkpt lat="45.9130682" lon="9.3284655"><ele>287.0</ele><time>2026-04-11T08:34:14.433Z</time></trkpt><trkpt lat="45.9133143" lon="9.3283473"><ele>290.5</ele><time>2026-04-11T08:34:15.433Z</time></trkpt><trkpt lat="45.9135666" lon="9.3282377"><ele>294.0</ele><time>2026-04-11T08:34:16.434Z</time></trkpt><trkpt lat="45.913816" lon="9.3281273"><ele>291.5</ele><time>2026-04-11T08:34:17.433Z</time></trkpt><trkpt lat="45.9140571" lon="9.3280239"><ele>289.0</ele><time>2026-04-11T08:34:18.433Z</time></trkpt><trkpt lat="45.9142959" lon="9.3279126"><ele>289.0</ele><time>2026-04-11T08:34:19.433Z</time></trkpt><trkpt lat="45.9145405" lon="9.3278004"><ele>289.0</ele><time>2026-04-11T08:34:20.433Z</time></trkpt><trkpt lat="45.9147924" lon="9.3276847"><ele>289.0</ele><time>2026-04-11T08:34:21.434Z</time></trkpt><trkpt lat="45.915049" lon="9.3275655"><ele>289.0</ele><time>2026-04-11T08:34:22.434Z</time></trkpt><trkpt lat="45.9153007" lon="9.3274504"><ele>291.0</ele><time>2026-04-11T08:34:23.433Z</time></trkpt><trkpt lat="45.9155403" lon="9.3273481"><ele>293.0</ele><time>2026-04-11T08:34:24.433Z</time></trkpt><trkpt lat="45.9157778" lon="9.3272422"><ele>285.0</ele><time>2026-04-11T08:34:25.433Z</time></trkpt><trkpt lat="45.916025" lon="9.3271677"><ele>277.0</ele><time>2026-04-11T08:34:26.433Z</time></trkpt><trkpt lat="45.9162664" lon="9.3271076"><ele>277.0</ele><time>2026-04-11T08:34:27.433Z</time></trkpt><trkpt lat="45.9165137" lon="9.3270714"><ele>277.0</ele><time>2026-04-11T08:34:28.433Z</time></trkpt><trkpt lat="45.9167569" lon="9.327067"><ele>275.0</ele><time>2026-04-11T08:34:29.433Z</time></trkpt><trkpt lat="45.9170009" lon="9.3270884"><ele>273.0</ele><time>2026-04-11T08:34:30.434Z</time></trkpt><trkpt lat="45.9172455" lon="9.3271412"><ele>273.0</ele><time>2026-04-11T08:34:31.434Z</time></trkpt><trkpt lat="45.9174926" lon="9.3272109"><ele>273.0</ele><time>2026-04-11T08:34:32.433Z</time></trkpt><trkpt lat="45.9177395" lon="9.327302"><ele>284.0</ele><time>2026-04-11T08:34:33.433Z</time></trkpt><trkpt lat="45.9179761" lon="9.3274185"><ele>295.0</ele><time>2026-04-11T08:34:34.433Z</time></trkpt><trkpt lat="45.9182002" lon="9.3275565"><ele>291.0</ele><time>2026-04-11T08:34:35.433Z</time></trkpt><trkpt lat="45.9184208" lon="9.3277124"><ele>287.0</ele><time>2026-04-11T08:34:36.434Z</time></trkpt><trkpt lat="45.9186348" lon="9.3278807"><ele>381.0</ele><time>2026-04-11T08:34:37.433Z</time></trkpt><trkpt lat="45.946467" lon="9.3122565"><ele>376.0</ele><time>2026-04-11T08:36:55.433Z</time></trkpt><trkpt lat="45.9467447" lon="9.3122477"><ele>371.0</ele><time>2026-04-11T08:36:56.433Z</time></trkpt><trkpt lat="45.9470276" lon="9.3122699"><ele>371.0</ele><time>2026-04-11T08:36:57.433Z</time></trkpt><trkpt lat="45.9473086" lon="9.3123117"><ele>371.0</ele><time>2026-04-11T08:36:58.433Z</time></trkpt><trkpt lat="45.9475848" lon="9.3123829"><ele>373.5</ele><time>2026-04-11T08:36:59.434Z</time></trkpt><trkpt lat="45.9478552" lon="9.3124714"><ele>376.0</ele><time>2026-04-11T08:37:00.434Z</time></trkpt><trkpt lat="45.9481217" lon="9.3125821"><ele>369.5</ele><time>2026-04-11T08:37:01.433Z</time></trkpt><trkpt lat="45.9483896" lon="9.3127016"><ele>363.0</ele><time>2026-04-11T08:37:02.433Z</time></trkpt><trkpt lat="45.9486687" lon="9.3128252"><ele>363.0</ele><time>2026-04-11T08:37:03.433Z</time></trkpt><trkpt lat="45.9489487" lon="9.3129474"><ele>363.0</ele><time>2026-04-11T08:37:04.433Z</time></trkpt><trkpt lat="45.9492326" lon="9.3130704"><ele>363.0</ele><time>2026-04-11T08:37:05.434Z</time></trkpt><trkpt lat="45.94952" lon="9.3131808"><ele>363.0</ele><time>2026-04-11T08:37:06.434Z</time></trkpt><trkpt lat="45.9498036" lon="9.3132999"><ele>351.5</ele><time>2026-04-11T08:37:07.433Z</time></trkpt><trkpt lat="45.9500712" lon="9.3134208"><ele>340.0</ele><time>2026-04-11T08:37:08.434Z</time></trkpt><trkpt lat="45.9503292" lon="9.3135411"><ele>340.0</ele><time>2026-04-11T08:37:09.433Z</time></trkpt><trkpt lat="45.9505821" lon="9.3136577"><ele>340.0</ele><time>2026-04-11T08:37:10.433Z</time></trkpt><trkpt lat="45.9508255" lon="9.3137574"><ele>335.0</ele><time>2026-04-11T08:37:11.433Z</time></trkpt><trkpt lat="45.9510683" lon="9.3138438"><ele>330.0</ele><time>2026-04-11T08:37:12.434Z</time></trkpt><trkpt lat="45.9513114" lon="9.3139075"><ele>342.5</ele><time>2026-04-11T08:37:13.433Z</time></trkpt><trkpt lat="45.9515597" lon="9.3139559"><ele>355.0</ele><time>2026-04-11T08:37:14.434Z</time></trkpt><trkpt lat="45.951812" lon="9.3139939"><ele>367.5</ele><time>2026-04-11T08:37:15.433Z</time></trkpt><trkpt lat="45.9520634" lon="9.3140042"><ele>380.0</ele><time>2026-04-11T08:37:16.433Z</time></trkpt><trkpt lat="45.9523147" lon="9.3140032"><ele>391.0</ele><time>2026-04-11T08:37:17.433Z</time></trkpt><trkpt lat="45.9525657" lon="9.3140004"><ele>402.0</ele><time>2026-04-11T08:37:18.433Z</time></trkpt><trkpt lat="45.9550357" lon="9.3130197"><ele>381.5</ele><time>2026-04-11T08:37:28.434Z</time></trkpt><trkpt lat="45.9553181" lon="9.3128123"><ele>361.0</ele><time>2026-04-11T08:37:29.434Z</time></trkpt><trkpt lat="45.9555787" lon="9.3126635"><ele>361.0</ele><time>2026-04-11T08:37:30.433Z</time></trkpt><trkpt lat="45.9558654" lon="9.3125218"><ele>361.0</ele><time>2026-04-11T08:37:31.433Z</time></trkpt><trkpt lat="45.956147" lon="9.3123741"><ele>358.5</ele><time>2026-04-11T08:37:32.433Z</time></trkpt><trkpt lat="45.9564329" lon="9.3122664"><ele>356.0</ele><time>2026-04-11T08:37:33.433Z</time></trkpt><trkpt lat="45.956722" lon="9.3121824"><ele>349.0</ele><time>2026-04-11T08:37:34.433Z</time></trkpt><trkpt lat="45.9570176" lon="9.312116"><ele>342.0</ele><time>2026-04-11T08:37:35.433Z</time></trkpt><trkpt lat="45.9573138" lon="9.3120592"><ele>340.0</ele><time>2026-04-11T08:37:36.434Z</time></trkpt><trkpt lat="45.9576034" lon="9.3120149"><ele>338.0</ele><time>2026-04-11T08:37:37.434Z</time></trkpt><trkpt lat="45.9578885" lon="9.3119858"><ele>338.0</ele><time>2026-04-11T08:37:38.434Z</time></trkpt><trkpt lat="45.9581651" lon="9.3119583"><ele>338.0</ele><time>2026-04-11T08:37:39.433Z</time></trkpt><trkpt lat="45.958441" lon="9.311941"><ele>338.0</ele><time>2026-04-11T08:37:40.434Z</time></trkpt><trkpt lat="45.9587091" lon="9.3119187"><ele>338.0</ele><time>2026-04-11T08:37:41.433Z</time></trkpt><trkpt lat="45.9589711" lon="9.3118959"><ele>341.0</ele><time>2026-04-11T08:37:42.433Z</time></trkpt><trkpt lat="45.9592332" lon="9.3118745"><ele>344.0</ele><time>2026-04-11T08:37:43.434Z</time></trkpt><trkpt lat="45.9594948" lon="9.3118524"><ele>344.0</ele><time>2026-04-11T08:37:44.433Z</time></trkpt><trkpt lat="45.959752" lon="9.3118204"><ele>344.0</ele><time>2026-04-11T08:37:45.433Z</time></trkpt><trkpt lat="45.9600098" lon="9.3117706"><ele>351.0</ele><time>2026-04-11T08:37:46.434Z</time></trkpt><trkpt lat="45.9602695" lon="9.311711"><ele>358.0</ele><time>2026-04-11T08:37:47.433Z</time></trkpt><trkpt lat="45.9605218" lon="9.3116483"><ele>358.0</ele><time>2026-04-11T08:37:48.433Z</time></trkpt><trkpt lat="45.9607716" lon="9.3115775"><ele>358.0</ele><time>2026-04-11T08:37:49.433Z</time></trkpt><trkpt lat="45.9624501" lon="9.3107979"><ele>366.5</ele><time>2026-04-11T08:37:56.433Z</time></trkpt><trkpt lat="45.9626864" lon="9.3106502"><ele>375.0</ele><time>2026-04-11T08:37:57.433Z</time></trkpt><trkpt lat="45.9646063" lon="9.3094662"><ele>363.5</ele><time>2026-04-11T08:38:05.433Z</time></trkpt><trkpt lat="45.9648604" lon="9.3093186"><ele>352.0</ele><time>2026-04-11T08:38:06.433Z</time></trkpt><trkpt lat="45.965131" lon="9.3091702"><ele>352.0</ele><time>2026-04-11T08:38:07.433Z</time></trkpt><trkpt lat="45.9654305" lon="9.3090095"><ele>352.0</ele><time>2026-04-11T08:38:08.433Z</time></trkpt><trkpt lat="45.9657371" lon="9.3088641"><ele>340.0</ele><time>2026-04-11T08:38:09.433Z</time></trkpt><trkpt lat="45.9660455" lon="9.3087388"><ele>328.0</ele><time>2026-04-11T08:38:10.433Z</time></trkpt><trkpt lat="45.9663488" lon="9.3086136"><ele>328.0</ele><time>2026-04-11T08:38:11.433Z</time></trkpt><trkpt lat="45.9666231" lon="9.3085092"><ele>328.0</ele><time>2026-04-11T08:38:12.433Z</time></trkpt><trkpt lat="45.9669068" lon="9.3084013"><ele>334.5</ele><time>2026-04-11T08:38:13.433Z</time></trkpt><trkpt lat="45.9671771" lon="9.3082919"><ele>341.0</ele><time>2026-04-11T08:38:14.434Z</time></trkpt><trkpt lat="45.9674473" lon="9.3081765"><ele>333.5</ele><time>2026-04-11T08:38:15.433Z</time></trkpt><trkpt lat="45.9677159" lon="9.3080645"><ele>326.0</ele><time>2026-04-11T08:38:16.433Z</time></trkpt><trkpt lat="45.9679866" lon="9.3079507"><ele>326.0</ele><time>2026-04-11T08:38:17.434Z</time></trkpt><trkpt lat="45.9682503" lon="9.3078414"><ele>326.0</ele><time>2026-04-11T08:38:18.433Z</time></trkpt><trkpt lat="45.9685181" lon="9.3077207"><ele>337.5</ele><time>2026-04-11T08:38:19.433Z</time></trkpt><trkpt lat="45.9687831" lon="9.3076116"><ele>349.0</ele><time>2026-04-11T08:38:20.433Z</time></trkpt><trkpt lat="45.9690432" lon="9.3074959"><ele>341.5</ele><time>2026-04-11T08:38:21.434Z</time></trkpt><trkpt lat="45.9693069" lon="9.3073789"><ele>334.0</ele><time>2026-04-11T08:38:22.433Z</time></trkpt><trkpt lat="45.9926537" lon="9.2952618"><ele>334.0</ele><time>2026-04-11T08:39:53.433Z</time></trkpt><trkpt lat="45.9929002" lon="9.2952506"><ele>334.0</ele><time>2026-04-11T08:39:54.433Z</time></trkpt><trkpt lat="45.9931522" lon="9.2952617"><ele>331.0</ele><time>2026-04-11T08:39:55.433Z</time></trkpt><trkpt lat="45.993398" lon="9.2952856"><ele>328.0</ele><time>2026-04-11T08:39:56.433Z</time></trkpt><trkpt lat="45.993643" lon="9.2953256"><ele>328.0</ele><time>2026-04-11T08:39:57.433Z</time></trkpt><trkpt lat="45.9938916" lon="9.2953863"><ele>328.0</ele><time>2026-04-11T08:39:58.433Z</time></trkpt><trkpt lat="45.9941349" lon="9.2954464"><ele>324.0</ele><time>2026-04-11T08:39:59.433Z</time></trkpt><trkpt lat="45.9943784" lon="9.2955214"><ele>320.0</ele><time>2026-04-11T08:40:00.433Z</time></trkpt><trkpt lat="45.9946195" lon="9.2956101"><ele>333.0</ele><time>2026-04-11T08:40:01.433Z</time></trkpt><trkpt lat="45.994858" lon="9.2956864"><ele>346.0</ele><time>2026-04-11T08:40:02.433Z</time></trkpt><trkpt lat="45.9951013" lon="9.2957624"><ele>346.0</ele><time>2026-04-11T08:40:03.433Z</time></trkpt><trkpt lat="45.9953441" lon="9.2958355"><ele>346.0</ele><time>2026-04-11T08:40:04.433Z</time></trkpt><trkpt lat="45.9955863" lon="9.2959148"><ele>343.5</ele><time>2026-04-11T08:40:05.433Z</time></trkpt><trkpt lat="45.9958617" lon="9.2960145"><ele>341.0</ele><time>2026-04-11T08:40:06.433Z</time></trkpt><trkpt lat="46.0104613" lon="9.2958827"><ele>371.0</ele><time>2026-04-11T08:41:01.433Z</time></trkpt><trkpt lat="46.0110112" lon="9.295964"><ele>305.0</ele><time>2026-04-11T08:41:03.433Z</time></trkpt><trkpt lat="46.0384136" lon="9.3104945"><ele>301.0</ele><time>2026-04-11T08:42:45.434Z</time></trkpt><trkpt lat="46.0386836" lon="9.3106244"><ele>297.0</ele><time>2026-04-11T08:42:46.433Z</time></trkpt><trkpt lat="46.038946" lon="9.3107607"><ele>294.0</ele><time>2026-04-11T08:42:47.434Z</time></trkpt><trkpt lat="46.0392194" lon="9.3108868"><ele>291.0</ele><time>2026-04-11T08:42:48.433Z</time></trkpt><trkpt lat="46.0394974" lon="9.3110229"><ele>291.0</ele><time>2026-04-11T08:42:49.433Z</time></trkpt><trkpt lat="46.0397685" lon="9.3111602"><ele>291.0</ele><time>2026-04-11T08:42:50.433Z</time></trkpt><trkpt lat="46.0400429" lon="9.3112771"><ele>314.0</ele><time>2026-04-11T08:42:51.434Z</time></trkpt><trkpt lat="46.0513732" lon="9.31464"><ele>313.5</ele><time>2026-04-11T08:43:31.434Z</time></trkpt><trkpt lat="46.0515944" lon="9.3151143"><ele>313.0</ele><time>2026-04-11T08:43:32.433Z</time></trkpt><trkpt lat="46.0518129" lon="9.3153803"><ele>300.5</ele><time>2026-04-11T08:43:33.433Z</time></trkpt><trkpt lat="46.0520508" lon="9.3156004"><ele>288.0</ele><time>2026-04-11T08:43:34.433Z</time></trkpt><trkpt lat="46.0843119" lon="9.3132367"><ele>288.0</ele><time>2026-04-11T08:45:29.433Z</time></trkpt><trkpt lat="46.0845499" lon="9.3130727"><ele>288.0</ele><time>2026-04-11T08:45:30.434Z</time></trkpt><trkpt lat="46.0848223" lon="9.3129739"><ele>278.0</ele><time>2026-04-11T08:45:31.433Z</time></trkpt><trkpt lat="46.085078" lon="9.3128947"><ele>268.0</ele><time>2026-04-11T08:45:32.433Z</time></trkpt><trkpt lat="46.0853424" lon="9.3128376"><ele>268.0</ele><time>2026-04-11T08:45:33.433Z</time></trkpt><trkpt lat="46.0856105" lon="9.312789"><ele>268.0</ele><time>2026-04-11T08:45:34.434Z</time></trkpt><trkpt lat="46.0858818" lon="9.3127532"><ele>270.5</ele><time>2026-04-11T08:45:35.434Z</time></trkpt><trkpt lat="46.0861455" lon="9.3127432"><ele>273.0</ele><time>2026-04-11T08:45:36.433Z</time></trkpt><trkpt lat="46.0864052" lon="9.3127617"><ele>273.0</ele><time>2026-04-11T08:45:37.433Z</time></trkpt><trkpt lat="46.0866636" lon="9.3127963"><ele>273.0</ele><time>2026-04-11T08:45:38.433Z</time></trkpt><trkpt lat="46.0869232" lon="9.3128534"><ele>272.0</ele><time>2026-04-11T08:45:39.434Z</time></trkpt><trkpt lat="46.1044877" lon="9.3225618"><ele>272.0</ele><time>2026-04-11T08:46:47.434Z</time></trkpt><trkpt lat="46.10474" lon="9.3227131"><ele>272.0</ele><time>2026-04-11T08:46:48.433Z</time></trkpt><trkpt lat="46.117177" lon="9.3501152"><ele>256.0</ele><time>2026-04-11T08:48:09.433Z</time></trkpt><trkpt lat="46.1175128" lon="9.3503615"><ele>240.0</ele><time>2026-04-11T08:48:10.433Z</time></trkpt><trkpt lat="46.1177124" lon="9.3506377"><ele>240.0</ele><time>2026-04-11T08:48:11.433Z</time></trkpt><trkpt lat="46.1179212" lon="9.3509131"><ele>240.0</ele><time>2026-04-11T08:48:12.433Z</time></trkpt><trkpt lat="46.1181282" lon="9.3511847"><ele>233.5</ele><time>2026-04-11T08:48:13.433Z</time></trkpt><trkpt lat="46.1183372" lon="9.351443"><ele>227.0</ele><time>2026-04-11T08:48:14.433Z</time></trkpt><trkpt lat="46.1185382" lon="9.3516833"><ele>227.0</ele><time>2026-04-11T08:48:15.433Z</time></trkpt><trkpt lat="46.1187379" lon="9.3519149"><ele>227.0</ele><time>2026-04-11T08:48:16.433Z</time></trkpt><trkpt lat="46.1189446" lon="9.3521463"><ele>230.5</ele><time>2026-04-11T08:48:17.433Z</time></trkpt><trkpt lat="46.119148" lon="9.3523753"><ele>234.0</ele><time>2026-04-11T08:48:18.433Z</time></trkpt><trkpt lat="46.1193476" lon="9.3525964"><ele>258.0</ele><time>2026-04-11T08:48:19.433Z</time></trkpt><trkpt lat="46.1277773" lon="9.365757"><ele>258.0</ele><time>2026-04-11T08:49:05.433Z</time></trkpt><trkpt lat="46.1278396" lon="9.3661773"><ele>258.0</ele><time>2026-04-11T08:49:06.433Z</time></trkpt><trkpt lat="46.1279053" lon="9.3665942"><ele>259.5</ele><time>2026-04-11T08:49:07.433Z</time></trkpt><trkpt lat="46.127968" lon="9.3669988"><ele>261.0</ele><time>2026-04-11T08:49:08.433Z</time></trkpt><trkpt lat="46.1280289" lon="9.3674072"><ele>263.0</ele><time>2026-04-11T08:49:09.434Z</time></trkpt><trkpt lat="46.128089" lon="9.3678021"><ele>265.0</ele><time>2026-04-11T08:49:10.433Z</time></trkpt><trkpt lat="46.1281495" lon="9.3681922"><ele>267.0</ele><time>2026-04-11T08:49:11.434Z</time></trkpt><trkpt lat="46.1282018" lon="9.368566"><ele>269.0</ele><time>2026-04-11T08:49:12.433Z</time></trkpt><trkpt lat="46.1282533" lon="9.3689029"><ele>265.0</ele><time>2026-04-11T08:49:13.433Z</time></trkpt><trkpt lat="46.1283025" lon="9.3692213"><ele>261.0</ele><time>2026-04-11T08:49:14.433Z</time></trkpt><trkpt lat="46.1283501" lon="9.3695426"><ele>263.0</ele><time>2026-04-11T08:49:15.433Z</time></trkpt><trkpt lat="46.1283991" lon="9.3698677"><ele>265.0</ele><time>2026-04-11T08:49:16.433Z</time></trkpt><trkpt lat="46.1284458" lon="9.3701923"><ele>265.0</ele><time>2026-04-11T08:49:17.433Z</time></trkpt><trkpt lat="46.1284912" lon="9.3705078"><ele>265.0</ele><time>2026-04-11T08:49:18.433Z</time></trkpt><trkpt lat="46.1285375" lon="9.3708204"><ele>265.0</ele><time>2026-04-11T08:49:19.434Z</time></trkpt><trkpt lat="46.1285828" lon="9.3711318"><ele>265.66666666666663</ele><time>2026-04-11T08:49:20.433Z</time></trkpt><trkpt lat="46.1286306" lon="9.3714469"><ele>266.3333333333333</ele><time>2026-04-11T08:49:21.433Z</time></trkpt><trkpt lat="46.1286794" lon="9.3717511"><ele>267.0</ele><time>2026-04-11T08:49:22.434Z</time></trkpt><trkpt lat="46.1287253" lon="9.3720441"><ele>267.3333333333333</ele><time>2026-04-11T08:49:23.433Z</time></trkpt><trkpt lat="46.1287701" lon="9.3723401"><ele>267.66666666666663</ele><time>2026-04-11T08:49:24.434Z</time></trkpt><trkpt lat="46.1288168" lon="9.372638"><ele>268.0</ele><time>2026-04-11T08:49:25.433Z</time></trkpt><trkpt lat="46.1288638" lon="9.3729346"><ele>267.66666666666663</ele><time>2026-04-11T08:49:26.433Z</time></trkpt><trkpt lat="46.1289121" lon="9.373231"><ele>267.3333333333333</ele><time>2026-04-11T08:49:27.433Z</time></trkpt><trkpt lat="46.1289687" lon="9.3735312"><ele>267.0</ele><time>2026-04-11T08:49:28.433Z</time></trkpt><trkpt lat="46.1290311" lon="9.3738315"><ele>283.0</ele><time>2026-04-11T08:49:29.434Z</time></trkpt><trkpt lat="46.1329821" lon="9.3831273"><ele>283.0</ele><time>2026-04-11T08:50:00.433Z</time></trkpt><trkpt lat="46.1331044" lon="9.3834504"><ele>283.0</ele><time>2026-04-11T08:50:01.433Z</time></trkpt><trkpt lat="46.133219" lon="9.3837862"><ele>276.5</ele><time>2026-04-11T08:50:02.433Z</time></trkpt><trkpt lat="46.1333202" lon="9.3841321"><ele>270.0</ele><time>2026-04-11T08:50:03.433Z</time></trkpt><trkpt lat="46.1334159" lon="9.3844795"><ele>271.0</ele><time>2026-04-11T08:50:04.434Z</time></trkpt><trkpt lat="46.1334976" lon="9.3848344"><ele>272.0</ele><time>2026-04-11T08:50:05.433Z</time></trkpt><trkpt lat="46.1335689" lon="9.3851878"><ele>274.0</ele><time>2026-04-11T08:50:06.433Z</time></trkpt><trkpt lat="46.1336274" lon="9.3855544"><ele>276.0</ele><time>2026-04-11T08:50:07.434Z</time></trkpt><trkpt lat="46.1336729" lon="9.3859309"><ele>276.0</ele><time>2026-04-11T08:50:08.434Z</time></trkpt><trkpt lat="46.1337114" lon="9.3863153"><ele>276.0</ele><time>2026-04-11T08:50:09.434Z</time></trkpt><trkpt lat="46.1337375" lon="9.3867087"><ele>276.0</ele><time>2026-04-11T08:50:10.433Z</time></trkpt><trkpt lat="46.133749" lon="9.3870913"><ele>276.0</ele><time>2026-04-11T08:50:11.434Z</time></trkpt><trkpt lat="46.1337437" lon="9.3874788"><ele>277.0</ele><time>2026-04-11T08:50:12.434Z</time></trkpt><trkpt lat="46.133719" lon="9.3878633"><ele>278.0</ele><time>2026-04-11T08:50:13.433Z</time></trkpt><trkpt lat="46.1336828" lon="9.3882495"><ele>278.0</ele><time>2026-04-11T08:50:14.433Z</time></trkpt><trkpt lat="46.1336359" lon="9.3886333"><ele>278.0</ele><time>2026-04-11T08:50:15.433Z</time></trkpt><trkpt lat="46.1335781" lon="9.3890203"><ele>278.0</ele><time>2026-04-11T08:50:16.433Z</time></trkpt><trkpt lat="46.1335145" lon="9.3894099"><ele>278.0</ele><time>2026-04-11T08:50:17.433Z</time></trkpt><trkpt lat="46.133446" lon="9.3897945"><ele>277.0</ele><time>2026-04-11T08:50:18.434Z</time></trkpt><trkpt lat="46.1333766" lon="9.3901824"><ele>276.0</ele><time>2026-04-11T08:50:19.433Z</time></trkpt><trkpt lat="46.1333154" lon="9.3905734"><ele>280.0</ele><time>2026-04-11T08:50:20.433Z</time></trkpt><trkpt lat="46.132327" lon="9.397525"><ele>280.0</ele><time>2026-04-11T08:50:37.433Z</time></trkpt><trkpt lat="46.1322749" lon="9.3979343"><ele>280.0</ele><time>2026-04-11T08:50:38.433Z</time></trkpt><trkpt lat="46.1323163" lon="9.3983383"><ele>285.0</ele><time>2026-04-11T08:50:39.434Z</time></trkpt><trkpt lat="46.1323528" lon="9.3987294"><ele>290.0</ele><time>2026-04-11T08:50:40.433Z</time></trkpt><trkpt lat="46.132414" lon="9.3991278"><ele>270.5</ele><time>2026-04-11T08:50:41.433Z</time></trkpt><trkpt lat="46.1324906" lon="9.3995097"><ele>251.0</ele><time>2026-04-11T08:50:42.433Z</time></trkpt><trkpt lat="46.1325877" lon="9.3998999"><ele>250.5</ele><time>2026-04-11T08:50:43.433Z</time></trkpt><trkpt lat="46.1326986" lon="9.400277"><ele>250.0</ele><time>2026-04-11T08:50:44.433Z</time></trkpt><trkpt lat="46.1328221" lon="9.4006564"><ele>249.5</ele><time>2026-04-11T08:50:45.433Z</time></trkpt><trkpt lat="46.1329466" lon="9.4010267"><ele>249.0</ele><time>2026-04-11T08:50:46.434Z</time></trkpt><trkpt lat="46.1330555" lon="9.4013859"><ele>252.0</ele><time>2026-04-11T08:50:47.434Z</time></trkpt><trkpt lat="46.1331622" lon="9.4017328"><ele>255.0</ele><time>2026-04-11T08:50:48.433Z</time></trkpt><trkpt lat="46.1332678" lon="9.4020732"><ele>251.0</ele><time>2026-04-11T08:50:49.434Z</time></trkpt><trkpt lat="46.1333767" lon="9.4024103"><ele>247.0</ele><time>2026-04-11T08:50:50.434Z</time></trkpt><trkpt lat="46.1350855" lon="9.4056619"><ele>239.5</ele><time>2026-04-11T08:51:01.434Z</time></trkpt><trkpt lat="46.1353484" lon="9.4058981"><ele>232.0</ele><time>2026-04-11T08:51:02.433Z</time></trkpt><trkpt lat="46.1355586" lon="9.4061104"><ele>225.5</ele><time>2026-04-11T08:51:03.433Z</time></trkpt><trkpt lat="46.1357589" lon="9.4063198"><ele>219.0</ele><time>2026-04-11T08:51:04.433Z</time></trkpt><trkpt lat="46.1359491" lon="9.4065172"><ele>219.0</ele><time>2026-04-11T08:51:05.433Z</time></trkpt><trkpt lat="46.1361467" lon="9.4067182"><ele>219.0</ele><time>2026-04-11T08:51:06.433Z</time></trkpt><trkpt lat="46.1363298" lon="9.4069124"><ele>219.0</ele><time>2026-04-11T08:51:07.434Z</time></trkpt><trkpt lat="46.1365022" lon="9.407102"><ele>219.0</ele><time>2026-04-11T08:51:08.434Z</time></trkpt><trkpt lat="46.1366715" lon="9.4072818"><ele>219.0</ele><time>2026-04-11T08:51:09.433Z</time></trkpt><trkpt lat="46.1368417" lon="9.4074683"><ele>216.0</ele><time>2026-04-11T08:51:10.433Z</time></trkpt><trkpt lat="46.1370103" lon="9.4076471"><ele>213.0</ele><time>2026-04-11T08:51:11.433Z</time></trkpt><trkpt lat="46.1371755" lon="9.4078181"><ele>210.0</ele><time>2026-04-11T08:51:12.434Z</time></trkpt><trkpt lat="46.1373365" lon="9.407991"><ele>209.0</ele><time>2026-04-11T08:51:13.433Z</time></trkpt><trkpt lat="46.1374897" lon="9.4081517"><ele>208.0</ele><time>2026-04-11T08:51:14.433Z</time></trkpt><trkpt lat="46.1376438" lon="9.4083171"><ele>207.0</ele><time>2026-04-11T08:51:15.434Z</time></trkpt><trkpt lat="46.1377962" lon="9.4084779"><ele>207.0</ele><time>2026-04-11T08:51:16.433Z</time></trkpt><trkpt lat="46.1379527" lon="9.4086454"><ele>207.0</ele><time>2026-04-11T08:51:17.433Z</time></trkpt><trkpt lat="46.1381105" lon="9.4088104"><ele>207.0</ele><time>2026-04-11T08:51:18.433Z</time></trkpt><trkpt lat="46.1382676" lon="9.4089829"><ele>205.66666666666669</ele><time>2026-04-11T08:51:19.433Z</time></trkpt><trkpt lat="46.1384267" lon="9.4091588"><ele>204.33333333333334</ele><time>2026-04-11T08:51:20.433Z</time></trkpt><trkpt lat="46.1385787" lon="9.409339"><ele>203.0</ele><time>2026-04-11T08:51:21.433Z</time></trkpt><trkpt lat="46.1387295" lon="9.4095179"><ele>202.66666666666669</ele><time>2026-04-11T08:51:22.433Z</time></trkpt><trkpt lat="46.1388784" lon="9.4096861"><ele>202.33333333333331</ele><time>2026-04-11T08:51:23.433Z</time></trkpt><trkpt lat="46.1390328" lon="9.4098497"><ele>202.0</ele><time>2026-04-11T08:51:24.433Z</time></trkpt><trkpt lat="46.1391876" lon="9.4100139"><ele>202.0</ele><time>2026-04-11T08:51:25.433Z</time></trkpt><trkpt lat="46.1393349" lon="9.4101668"><ele>202.0</ele><time>2026-04-11T08:51:26.433Z</time></trkpt><trkpt lat="46.139476" lon="9.4103151"><ele>202.0</ele><time>2026-04-11T08:51:27.433Z</time></trkpt><trkpt lat="46.1396136" lon="9.41046"><ele>201.66666666666666</ele><time>2026-04-11T08:51:28.433Z</time></trkpt><trkpt lat="46.1397489" lon="9.4105982"><ele>201.33333333333331</ele><time>2026-04-11T08:51:29.433Z</time></trkpt><trkpt lat="46.1398807" lon="9.4107383"><ele>201.0</ele><time>2026-04-11T08:51:30.434Z</time></trkpt><trkpt lat="46.140014" lon="9.4108746"><ele>201.66666666666669</ele><time>2026-04-11T08:51:31.434Z</time></trkpt><trkpt lat="46.1401635" lon="9.4110295"><ele>202.33333333333334</ele><time>2026-04-11T08:51:32.433Z</time></trkpt><trkpt lat="46.1403205" lon="9.4111805"><ele>203.0</ele><time>2026-04-11T08:51:33.434Z</time></trkpt><trkpt lat="46.1404676" lon="9.411314"><ele>203.0</ele><time>2026-04-11T08:51:34.433Z</time></trkpt><trkpt lat="46.140601" lon="9.4114429"><ele>203.0</ele><time>2026-04-11T08:51:35.433Z</time></trkpt><trkpt lat="46.1407212" lon="9.4115613"><ele>203.0</ele><time>2026-04-11T08:51:36.434Z</time></trkpt><trkpt lat="46.1408309" lon="9.4116608"><ele>203.0</ele><time>2026-04-11T08:51:37.433Z</time></trkpt><trkpt lat="46.1409429" lon="9.4117485"><ele>203.0</ele><time>2026-04-11T08:51:38.433Z</time></trkpt><trkpt lat="46.1410524" lon="9.4118126"><ele>203.0</ele><time>2026-04-11T08:51:39.434Z</time></trkpt><trkpt lat="46.141155" lon="9.411862"><ele>203.0</ele><time>2026-04-11T08:51:40.433Z</time></trkpt><trkpt lat="46.141247" lon="9.4119111"><ele>203.0</ele><time>2026-04-11T08:51:41.433Z</time></trkpt><trkpt lat="46.1413034" lon="9.4119542"><ele>203.0</ele><time>2026-04-11T08:51:42.434Z</time></trkpt><trkpt lat="46.1413638" lon="9.4120148"><ele>203.0</ele><time>2026-04-11T08:51:45.433Z</time></trkpt><trkpt lat="46.1414557" lon="9.4121353"><ele>203.0</ele><time>2026-04-11T08:51:53.433Z</time></trkpt><trkpt lat="46.1415013" lon="9.412276"><ele>203.0</ele><time>2026-04-11T08:51:54.433Z</time></trkpt><trkpt lat="46.1415568" lon="9.4124425"><ele>203.0</ele><time>2026-04-11T08:51:55.434Z</time></trkpt><trkpt lat="46.1416333" lon="9.412605"><ele>202.5</ele><time>2026-04-11T08:51:56.433Z</time></trkpt><trkpt lat="46.1417396" lon="9.4127516"><ele>202.0</ele><time>2026-04-11T08:51:57.433Z</time></trkpt><trkpt lat="46.1418414" lon="9.4128793"><ele>201.5</ele><time>2026-04-11T08:51:58.433Z</time></trkpt><trkpt lat="46.1419517" lon="9.4129841"><ele>201.0</ele><time>2026-04-11T08:51:59.434Z</time></trkpt><trkpt lat="46.1420715" lon="9.413056"><ele>201.0</ele><time>2026-04-11T08:52:00.433Z</time></trkpt><trkpt lat="46.1421862" lon="9.4130908"><ele>201.0</ele><time>2026-04-11T08:52:01.433Z</time></trkpt><trkpt lat="46.1422942" lon="9.4131108"><ele>201.0</ele><time>2026-04-11T08:52:02.433Z</time></trkpt><trkpt lat="46.1423897" lon="9.4131183"><ele>201.0</ele><time>2026-04-11T08:52:03.434Z</time></trkpt><trkpt lat="46.1424761" lon="9.4131184"><ele>201.0</ele><time>2026-04-11T08:52:04.433Z</time></trkpt><trkpt lat="46.142563" lon="9.4131061"><ele>201.20000000000002</ele><time>2026-04-11T08:52:05.433Z</time></trkpt><trkpt lat="46.1426404" lon="9.41308"><ele>201.4</ele><time>2026-04-11T08:52:06.433Z</time></trkpt><trkpt lat="46.1427238" lon="9.4130433"><ele>201.6</ele><time>2026-04-11T08:52:07.433Z</time></trkpt><trkpt lat="46.1428178" lon="9.4129706"><ele>201.8</ele><time>2026-04-11T08:52:08.434Z</time></trkpt><trkpt lat="46.1429208" lon="9.4128817"><ele>202.0</ele><time>2026-04-11T08:52:09.434Z</time></trkpt><trkpt lat="46.1430121" lon="9.4127838"><ele>201.5</ele><time>2026-04-11T08:52:10.433Z</time></trkpt><trkpt lat="46.1430955" lon="9.4126577"><ele>201.0</ele><time>2026-04-11T08:52:11.433Z</time></trkpt><trkpt lat="46.1431688" lon="9.4125071"><ele>200.5</ele><time>2026-04-11T08:52:12.433Z</time></trkpt><trkpt lat="46.143242" lon="9.4123769"><ele>200.0</ele><time>2026-04-11T08:52:13.433Z</time></trkpt><trkpt lat="46.1433198" lon="9.4122706"><ele>200.0</ele><time>2026-04-11T08:52:14.433Z</time></trkpt><trkpt lat="46.1434094" lon="9.4121928"><ele>200.0</ele><time>2026-04-11T08:52:15.433Z</time></trkpt><trkpt lat="46.1435115" lon="9.4121383"><ele>200.0</ele><time>2026-04-11T08:52:16.433Z</time></trkpt><trkpt lat="46.1436432" lon="9.4121072"><ele>200.0</ele><time>2026-04-11T08:52:17.433Z</time></trkpt><trkpt lat="46.1437981" lon="9.4120881"><ele>201.0</ele><time>2026-04-11T08:52:18.434Z</time></trkpt><trkpt lat="46.1439524" lon="9.412074"><ele>202.0</ele><time>2026-04-11T08:52:19.433Z</time></trkpt><trkpt lat="46.144096" lon="9.4120677"><ele>203.0</ele><time>2026-04-11T08:52:20.434Z</time></trkpt><trkpt lat="46.1442248" lon="9.4120538"><ele>204.0</ele><time>2026-04-11T08:52:21.433Z</time></trkpt><trkpt lat="46.1443551" lon="9.4120403"><ele>204.33333333333331</ele><time>2026-04-11T08:52:22.433Z</time></trkpt><trkpt lat="46.1445132" lon="9.4120328"><ele>204.66666666666666</ele><time>2026-04-11T08:52:23.433Z</time></trkpt><trkpt lat="46.1446906" lon="9.4120276"><ele>205.0</ele><time>2026-04-11T08:52:24.434Z</time></trkpt><trkpt lat="46.1448829" lon="9.4120383"><ele>204.33333333333331</ele><time>2026-04-11T08:52:25.434Z</time></trkpt><trkpt lat="46.1450872" lon="9.412062"><ele>203.66666666666669</ele><time>2026-04-11T08:52:26.433Z</time></trkpt><trkpt lat="46.1452973" lon="9.4120806"><ele>203.0</ele><time>2026-04-11T08:52:27.433Z</time></trkpt><trkpt lat="46.1455035" lon="9.4120965"><ele>203.0</ele><time>2026-04-11T08:52:28.433Z</time></trkpt><trkpt lat="46.1456975" lon="9.4121032"><ele>203.0</ele><time>2026-04-11T08:52:29.434Z</time></trkpt><trkpt lat="46.1458812" lon="9.4121179"><ele>203.0</ele><time>2026-04-11T08:52:30.434Z</time></trkpt><trkpt lat="46.1460609" lon="9.4121322"><ele>203.0</ele><time>2026-04-11T08:52:31.433Z</time></trkpt><trkpt lat="46.146243" lon="9.4121392"><ele>203.0</ele><time>2026-04-11T08:52:32.433Z</time></trkpt><trkpt lat="46.1464152" lon="9.4121507"><ele>203.0</ele><time>2026-04-11T08:52:33.433Z</time></trkpt><trkpt lat="46.1465683" lon="9.4121682"><ele>203.0</ele><time>2026-04-11T08:52:34.433Z</time></trkpt><trkpt lat="46.1467071" lon="9.4121909"><ele>203.0</ele><time>2026-04-11T08:52:35.433Z</time></trkpt><trkpt lat="46.1468414" lon="9.4122148"><ele>203.0</ele><time>2026-04-11T08:52:36.433Z</time></trkpt><trkpt lat="46.1469647" lon="9.4122513"><ele>203.0</ele><time>2026-04-11T08:52:37.434Z</time></trkpt><trkpt lat="46.1470746" lon="9.412293"><ele>203.0</ele><time>2026-04-11T08:52:38.433Z</time></trkpt><trkpt lat="46.147166" lon="9.4123415"><ele>203.0</ele><time>2026-04-11T08:52:39.433Z</time></trkpt><trkpt lat="46.1472357" lon="9.4123852"><ele>203.0</ele><time>2026-04-11T08:52:40.434Z</time></trkpt><trkpt lat="46.1473314" lon="9.4124734"><ele>203.0</ele><time>2026-04-11T08:52:42.433Z</time></trkpt><trkpt lat="46.1474008" lon="9.4126111"><ele>203.0</ele><time>2026-04-11T08:52:44.434Z</time></trkpt><trkpt lat="46.1474298" lon="9.4126928"><ele>203.4</ele><time>2026-04-11T08:52:45.433Z</time></trkpt><trkpt lat="46.1474976" lon="9.4128157"><ele>203.8</ele><time>2026-04-11T08:52:47.433Z</time></trkpt><trkpt lat="46.1475409" lon="9.4128873"><ele>204.2</ele><time>2026-04-11T08:52:49.433Z</time></trkpt><trkpt lat="46.1476794" lon="9.4128012"><ele>204.6</ele><time>2026-04-11T09:00:18.432Z</time></trkpt><trkpt lat="46.1477606" lon="9.412685"><ele>205.0</ele><time>2026-04-11T09:00:20.432Z</time></trkpt><trkpt lat="46.1478055" lon="9.4126139"><ele>205.0</ele><time>2026-04-11T09:00:21.433Z</time></trkpt><trkpt lat="46.1478563" lon="9.4125394"><ele>205.0</ele><time>2026-04-11T09:00:22.432Z</time></trkpt><trkpt lat="46.1479237" lon="9.41246"><ele>205.0</ele><time>2026-04-11T09:00:23.433Z</time></trkpt><trkpt lat="46.148006" lon="9.4123885"><ele>205.0</ele><time>2026-04-11T09:00:24.432Z</time></trkpt><trkpt lat="46.1480976" lon="9.4123472"><ele>205.0</ele><time>2026-04-11T09:00:25.432Z</time></trkpt><trkpt lat="46.1481962" lon="9.4123274"><ele>204.83333333333331</ele><time>2026-04-11T09:00:26.432Z</time></trkpt><trkpt lat="46.1482822" lon="9.4123153"><ele>204.66666666666666</ele><time>2026-04-11T09:00:27.433Z</time></trkpt><trkpt lat="46.1483635" lon="9.4123099"><ele>204.5</ele><time>2026-04-11T09:00:28.432Z</time></trkpt><trkpt lat="46.1484392" lon="9.41231"><ele>204.33333333333331</ele><time>2026-04-11T09:00:29.432Z</time></trkpt><trkpt lat="46.1485184" lon="9.412305"><ele>204.16666666666666</ele><time>2026-04-11T09:00:30.433Z</time></trkpt><trkpt lat="46.1486008" lon="9.4123105"><ele>204.0</ele><time>2026-04-11T09:00:31.432Z</time></trkpt><trkpt lat="46.1486864" lon="9.4123168"><ele>204.0</ele><time>2026-04-11T09:00:32.432Z</time></trkpt><trkpt lat="46.1487711" lon="9.4123213"><ele>204.0</ele><time>2026-04-11T09:00:33.432Z</time></trkpt><trkpt lat="46.1488491" lon="9.4123188"><ele>204.0</ele><time>2026-04-11T09:00:34.432Z</time></trkpt><trkpt lat="46.1489283" lon="9.4123179"><ele>204.0</ele><time>2026-04-11T09:00:35.432Z</time></trkpt><trkpt lat="46.1490151" lon="9.4123209"><ele>204.0</ele><time>2026-04-11T09:00:36.432Z</time></trkpt><trkpt lat="46.1490981" lon="9.4123249"><ele>204.0</ele><time>2026-04-11T09:00:37.433Z</time></trkpt><trkpt lat="46.1491686" lon="9.4123323"><ele>203.83333333333334</ele><time>2026-04-11T09:00:38.432Z</time></trkpt><trkpt lat="46.1492386" lon="9.4123355"><ele>203.66666666666669</ele><time>2026-04-11T09:00:39.432Z</time></trkpt><trkpt lat="46.1493148" lon="9.4123428"><ele>203.5</ele><time>2026-04-11T09:00:40.432Z</time></trkpt><trkpt lat="46.1494031" lon="9.4123487"><ele>203.33333333333334</ele><time>2026-04-11T09:00:41.432Z</time></trkpt><trkpt lat="46.1494981" lon="9.4123588"><ele>203.16666666666669</ele><time>2026-04-11T09:00:42.432Z</time></trkpt><trkpt lat="46.1495952" lon="9.4123703"><ele>203.0</ele><time>2026-04-11T09:00:43.432Z</time></trkpt><trkpt lat="46.1496802" lon="9.4123835"><ele>203.00000000000003</ele><time>2026-04-11T09:00:44.433Z</time></trkpt><trkpt lat="46.1497549" lon="9.4123831"><ele>203.0</ele><time>2026-04-11T09:00:45.432Z</time></trkpt><trkpt lat="46.1498353" lon="9.4123877"><ele>203.0</ele><time>2026-04-11T09:00:46.432Z</time></trkpt><trkpt lat="46.1499194" lon="9.4123946"><ele>203.0</ele><time>2026-04-11T09:00:47.432Z</time></trkpt><trkpt lat="46.1500095" lon="9.412406"><ele>203.00000000000003</ele><time>2026-04-11T09:00:48.432Z</time></trkpt><trkpt lat="46.150105" lon="9.4124184"><ele>203.0</ele><time>2026-04-11T09:00:49.432Z</time></trkpt><trkpt lat="46.150199" lon="9.4124311"><ele>201.60000000000002</ele><time>2026-04-11T09:00:50.433Z</time></trkpt><trkpt lat="46.1502912" lon="9.4124484"><ele>200.20000000000002</ele><time>2026-04-11T09:00:51.432Z</time></trkpt><trkpt lat="46.1503887" lon="9.412461"><ele>198.8</ele><time>2026-04-11T09:00:52.432Z</time></trkpt><trkpt lat="46.1504903" lon="9.4124843"><ele>197.4</ele><time>2026-04-11T09:00:53.433Z</time></trkpt><trkpt lat="46.1505938" lon="9.4125141"><ele>196.0</ele><time>2026-04-11T09:00:54.433Z</time></trkpt><trkpt lat="46.1506993" lon="9.4125586"><ele>197.5</ele><time>2026-04-11T09:00:55.433Z</time></trkpt><trkpt lat="46.1508106" lon="9.4126097"><ele>199.0</ele><time>2026-04-11T09:00:56.432Z</time></trkpt><trkpt lat="46.1509235" lon="9.4126764"><ele>200.5</ele><time>2026-04-11T09:00:57.432Z</time></trkpt><trkpt lat="46.1510362" lon="9.4127572"><ele>202.0</ele><time>2026-04-11T09:00:58.433Z</time></trkpt><trkpt lat="46.1511368" lon="9.412848"><ele>202.0</ele><time>2026-04-11T09:00:59.432Z</time></trkpt><trkpt lat="46.151248" lon="9.4129504"><ele>202.0</ele><time>2026-04-11T09:01:00.433Z</time></trkpt><trkpt lat="46.1513546" lon="9.4130541"><ele>202.0</ele><time>2026-04-11T09:01:01.432Z</time></trkpt><trkpt lat="46.1514686" lon="9.4131639"><ele>202.0</ele><time>2026-04-11T09:01:02.432Z</time></trkpt><trkpt lat="46.1515816" lon="9.4132713"><ele>201.25</ele><time>2026-04-11T09:01:03.432Z</time></trkpt><trkpt lat="46.1516955" lon="9.4133768"><ele>200.5</ele><time>2026-04-11T09:01:04.432Z</time></trkpt><trkpt lat="46.1518114" lon="9.4134841"><ele>199.75</ele><time>2026-04-11T09:01:05.433Z</time></trkpt><trkpt lat="46.1519261" lon="9.4135888"><ele>199.0</ele><time>2026-04-11T09:01:06.433Z</time></trkpt><trkpt lat="46.1520343" lon="9.4136961"><ele>199.0</ele><time>2026-04-11T09:01:07.433Z</time></trkpt><trkpt lat="46.1521384" lon="9.413798"><ele>199.0</ele><time>2026-04-11T09:01:08.433Z</time></trkpt><trkpt lat="46.15224" lon="9.4139003"><ele>199.0</ele><time>2026-04-11T09:01:09.433Z</time></trkpt><trkpt lat="46.1523411" lon="9.4140031"><ele>199.0</ele><time>2026-04-11T09:01:10.433Z</time></trkpt><trkpt lat="46.1524439" lon="9.4141042"><ele>199.25</ele><time>2026-04-11T09:01:11.432Z</time></trkpt><trkpt lat="46.1525512" lon="9.4142103"><ele>199.5</ele><time>2026-04-11T09:01:12.432Z</time></trkpt><trkpt lat="46.1526681" lon="9.4143153"><ele>199.75</ele><time>2026-04-11T09:01:13.432Z</time></trkpt><trkpt lat="46.1527761" lon="9.4144189"><ele>200.0</ele><time>2026-04-11T09:01:14.432Z</time></trkpt><trkpt lat="46.152884" lon="9.4145264"><ele>200.0</ele><time>2026-04-11T09:01:15.432Z</time></trkpt><trkpt lat="46.1529924" lon="9.4146271"><ele>200.0</ele><time>2026-04-11T09:01:16.432Z</time></trkpt><trkpt lat="46.1531117" lon="9.4147488"><ele>200.0</ele><time>2026-04-11T09:01:17.433Z</time></trkpt><trkpt lat="46.1532474" lon="9.4148794"><ele>200.0</ele><time>2026-04-11T09:01:18.433Z</time></trkpt><trkpt lat="46.1533789" lon="9.4150008"><ele>200.0</ele><time>2026-04-11T09:01:19.433Z</time></trkpt><trkpt lat="46.1534964" lon="9.4151202"><ele>200.0</ele><time>2026-04-11T09:01:20.432Z</time></trkpt><trkpt lat="46.1536148" lon="9.4152369"><ele>200.0</ele><time>2026-04-11T09:01:21.433Z</time></trkpt><trkpt lat="46.1537386" lon="9.4153632"><ele>200.0</ele><time>2026-04-11T09:01:22.433Z</time></trkpt><trkpt lat="46.1538683" lon="9.4154901"><ele>200.0</ele><time>2026-04-11T09:01:23.432Z</time></trkpt><trkpt lat="46.1539957" lon="9.415616"><ele>200.0</ele><time>2026-04-11T09:01:24.433Z</time></trkpt><trkpt lat="46.1541278" lon="9.4157451"><ele>200.0</ele><time>2026-04-11T09:01:25.432Z</time></trkpt><trkpt lat="46.1542594" lon="9.4158737"><ele>200.66666666666669</ele><time>2026-04-11T09:01:26.432Z</time></trkpt><trkpt lat="46.1543947" lon="9.4160039"><ele>201.33333333333331</ele><time>2026-04-11T09:01:27.432Z</time></trkpt><trkpt lat="46.1545311" lon="9.416133"><ele>202.0</ele><time>2026-04-11T09:01:28.432Z</time></trkpt><trkpt lat="46.1546611" lon="9.4162611"><ele>202.0</ele><time>2026-04-11T09:01:29.433Z</time></trkpt><trkpt lat="46.1547862" lon="9.4163987"><ele>202.0</ele><time>2026-04-11T09:01:30.432Z</time></trkpt><trkpt lat="46.1549167" lon="9.4165296"><ele>202.0</ele><time>2026-04-11T09:01:31.433Z</time></trkpt><trkpt lat="46.1550443" lon="9.416648"><ele>201.5</ele><time>2026-04-11T09:01:32.432Z</time></trkpt><trkpt lat="46.1551662" lon="9.4167601"><ele>201.0</ele><time>2026-04-11T09:01:33.432Z</time></trkpt><trkpt lat="46.1552838" lon="9.4168784"><ele>200.5</ele><time>2026-04-11T09:01:34.432Z</time></trkpt><trkpt lat="46.1554066" lon="9.4170015"><ele>200.0</ele><time>2026-04-11T09:01:35.433Z</time></trkpt><trkpt lat="46.1555325" lon="9.4171194"><ele>200.0</ele><time>2026-04-11T09:01:36.432Z</time></trkpt><trkpt lat="46.1556518" lon="9.4172392"><ele>200.0</ele><time>2026-04-11T09:01:37.432Z</time></trkpt><trkpt lat="46.1557705" lon="9.4173562"><ele>200.0</ele><time>2026-04-11T09:01:38.433Z</time></trkpt><trkpt lat="46.1558863" lon="9.417477"><ele>200.0</ele><time>2026-04-11T09:01:39.432Z</time></trkpt><trkpt lat="46.1559943" lon="9.4175905"><ele>200.0</ele><time>2026-04-11T09:01:40.432Z</time></trkpt><trkpt lat="46.1560955" lon="9.4176922"><ele>200.0</ele><time>2026-04-11T09:01:41.433Z</time></trkpt><trkpt lat="46.1561961" lon="9.4177834"><ele>200.0</ele><time>2026-04-11T09:01:42.432Z</time></trkpt><trkpt lat="46.1562864" lon="9.4178666"><ele>200.0</ele><time>2026-04-11T09:01:43.433Z</time></trkpt><trkpt lat="46.1563763" lon="9.4179506"><ele>199.83333333333334</ele><time>2026-04-11T09:01:44.432Z</time></trkpt><trkpt lat="46.1564605" lon="9.4180331"><ele>199.66666666666669</ele><time>2026-04-11T09:01:45.433Z</time></trkpt><trkpt lat="46.1565409" lon="9.418108"><ele>199.5</ele><time>2026-04-11T09:01:46.433Z</time></trkpt><trkpt lat="46.1566123" lon="9.4181776"><ele>199.33333333333331</ele><time>2026-04-11T09:01:47.433Z</time></trkpt><trkpt lat="46.1566722" lon="9.4182306"><ele>199.16666666666666</ele><time>2026-04-11T09:01:48.432Z</time></trkpt><trkpt lat="46.1567391" lon="9.4183015"><ele>199.0</ele><time>2026-04-11T09:01:50.433Z</time></trkpt><trkpt lat="46.1567959" lon="9.4183507"><ele>198.99999999999997</ele><time>2026-04-11T09:01:53.432Z</time></trkpt><trkpt lat="46.1568516" lon="9.4184123"><ele>199.0</ele><time>2026-04-11T09:01:55.432Z</time></trkpt><trkpt lat="46.1568907" lon="9.4184981"><ele>199.0</ele><time>2026-04-11T09:01:57.432Z</time></trkpt><trkpt lat="46.1569221" lon="9.4185822"><ele>199.0</ele><time>2026-04-11T09:01:58.432Z</time></trkpt><trkpt lat="46.1569576" lon="9.4186686"><ele>199.0</ele><time>2026-04-11T09:01:59.432Z</time></trkpt><trkpt lat="46.1569969" lon="9.4187425"><ele>198.99999999999997</ele><time>2026-04-11T09:02:00.433Z</time></trkpt><trkpt lat="46.1570543" lon="9.4187896"><ele>199.0</ele><time>2026-04-11T09:02:01.432Z</time></trkpt><trkpt lat="46.1571184" lon="9.4188129"><ele>199.0</ele><time>2026-04-11T09:02:02.432Z</time></trkpt><trkpt lat="46.1571894" lon="9.4188374"><ele>199.0</ele><time>2026-04-11T09:02:03.432Z</time></trkpt><trkpt lat="46.1572838" lon="9.4188728"><ele>199.0</ele><time>2026-04-11T09:02:04.433Z</time></trkpt><trkpt lat="46.1573788" lon="9.4189425"><ele>199.0</ele><time>2026-04-11T09:02:05.433Z</time></trkpt><trkpt lat="46.1574708" lon="9.4190227"><ele>199.0</ele><time>2026-04-11T09:02:06.433Z</time></trkpt><trkpt lat="46.1575749" lon="9.4191191"><ele>199.25</ele><time>2026-04-11T09:02:07.432Z</time></trkpt><trkpt lat="46.1576817" lon="9.4192264"><ele>199.5</ele><time>2026-04-11T09:02:08.432Z</time></trkpt><trkpt lat="46.1577887" lon="9.4193358"><ele>199.75</ele><time>2026-04-11T09:02:09.433Z</time></trkpt><trkpt lat="46.1579074" lon="9.4194538"><ele>200.0</ele><time>2026-04-11T09:02:10.433Z</time></trkpt><trkpt lat="46.1580362" lon="9.4195759"><ele>200.0</ele><time>2026-04-11T09:02:11.432Z</time></trkpt><trkpt lat="46.1581658" lon="9.4196918"><ele>200.0</ele><time>2026-04-11T09:02:12.432Z</time></trkpt><trkpt lat="46.1582835" lon="9.4198066"><ele>200.0</ele><time>2026-04-11T09:02:13.433Z</time></trkpt><trkpt lat="46.1583966" lon="9.4199228"><ele>200.0</ele><time>2026-04-11T09:02:14.432Z</time></trkpt><trkpt lat="46.1585173" lon="9.4200402"><ele>200.33333333333334</ele><time>2026-04-11T09:02:15.432Z</time></trkpt><trkpt lat="46.1586465" lon="9.4201719"><ele>200.66666666666669</ele><time>2026-04-11T09:02:16.433Z</time></trkpt><trkpt lat="46.1587687" lon="9.4202908"><ele>201.0</ele><time>2026-04-11T09:02:17.433Z</time></trkpt><trkpt lat="46.1588885" lon="9.4204092"><ele>201.0</ele><time>2026-04-11T09:02:18.433Z</time></trkpt><trkpt lat="46.1590036" lon="9.4205231"><ele>201.0</ele><time>2026-04-11T09:02:19.432Z</time></trkpt><trkpt lat="46.1591248" lon="9.4206451"><ele>201.0</ele><time>2026-04-11T09:02:20.433Z</time></trkpt><trkpt lat="46.1592478" lon="9.4207692"><ele>201.0</ele><time>2026-04-11T09:02:21.432Z</time></trkpt><trkpt lat="46.1593748" lon="9.4208944"><ele>201.0</ele><time>2026-04-11T09:02:22.432Z</time></trkpt><trkpt lat="46.1595032" lon="9.4210185"><ele>201.0</ele><time>2026-04-11T09:02:23.433Z</time></trkpt><trkpt lat="46.1596217" lon="9.4211354"><ele>201.0</ele><time>2026-04-11T09:02:24.432Z</time></trkpt><trkpt lat="46.1597324" lon="9.421245"><ele>201.0</ele><time>2026-04-11T09:02:25.432Z</time></trkpt><trkpt lat="46.159844" lon="9.4213555"><ele>201.66666666666669</ele><time>2026-04-11T09:02:26.432Z</time></trkpt><trkpt lat="46.1599725" lon="9.4214735"><ele>202.33333333333334</ele><time>2026-04-11T09:02:27.433Z</time></trkpt><trkpt lat="46.1601226" lon="9.4216253"><ele>203.0</ele><time>2026-04-11T09:02:28.433Z</time></trkpt><trkpt lat="46.1602887" lon="9.4217851"><ele>203.0</ele><time>2026-04-11T09:02:29.433Z</time></trkpt><trkpt lat="46.1604507" lon="9.4219368"><ele>203.0</ele><time>2026-04-11T09:02:30.432Z</time></trkpt><trkpt lat="46.1606022" lon="9.4220834"><ele>203.0</ele><time>2026-04-11T09:02:31.432Z</time></trkpt><trkpt lat="46.1607487" lon="9.4222245"><ele>202.66666666666669</ele><time>2026-04-11T09:02:32.432Z</time></trkpt><trkpt lat="46.1608878" lon="9.4223601"><ele>202.33333333333331</ele><time>2026-04-11T09:02:33.433Z</time></trkpt><trkpt lat="46.1610259" lon="9.4224994"><ele>202.0</ele><time>2026-04-11T09:02:34.432Z</time></trkpt><trkpt lat="46.1611602" lon="9.422632"><ele>202.0</ele><time>2026-04-11T09:02:35.432Z</time></trkpt><trkpt lat="46.1612928" lon="9.4227646"><ele>202.0</ele><time>2026-04-11T09:02:36.432Z</time></trkpt><trkpt lat="46.1614249" lon="9.4228998"><ele>202.0</ele><time>2026-04-11T09:02:37.432Z</time></trkpt><trkpt lat="46.1615608" lon="9.4230344"><ele>202.33333333333331</ele><time>2026-04-11T09:02:38.432Z</time></trkpt><trkpt lat="46.1617023" lon="9.4231645"><ele>202.66666666666669</ele><time>2026-04-11T09:02:39.432Z</time></trkpt><trkpt lat="46.161835" lon="9.4233088"><ele>203.0</ele><time>2026-04-11T09:02:40.433Z</time></trkpt><trkpt lat="46.1619775" lon="9.4234431"><ele>203.0</ele><time>2026-04-11T09:02:41.432Z</time></trkpt><trkpt lat="46.1621216" lon="9.4235788"><ele>203.0</ele><time>2026-04-11T09:02:42.432Z</time></trkpt><trkpt lat="46.162262" lon="9.4237158"><ele>203.0</ele><time>2026-04-11T09:02:43.432Z</time></trkpt><trkpt lat="46.1623958" lon="9.4238581"><ele>202.66666666666669</ele><time>2026-04-11T09:02:44.433Z</time></trkpt><trkpt lat="46.1625417" lon="9.4239897"><ele>202.33333333333331</ele><time>2026-04-11T09:02:45.433Z</time></trkpt><trkpt lat="46.1626798" lon="9.4241311"><ele>202.0</ele><time>2026-04-11T09:02:46.432Z</time></trkpt><trkpt lat="46.1628184" lon="9.4242735"><ele>202.0</ele><time>2026-04-11T09:02:47.432Z</time></trkpt><trkpt lat="46.1629622" lon="9.4244124"><ele>202.0</ele><time>2026-04-11T09:02:48.433Z</time></trkpt><trkpt lat="46.1631043" lon="9.424554"><ele>202.0</ele><time>2026-04-11T09:02:49.432Z</time></trkpt><trkpt lat="46.1632467" lon="9.4246869"><ele>202.0</ele><time>2026-04-11T09:02:50.432Z</time></trkpt><trkpt lat="46.1633875" lon="9.4248263"><ele>202.0</ele><time>2026-04-11T09:02:51.433Z</time></trkpt><trkpt lat="46.163525" lon="9.4249608"><ele>202.0</ele><time>2026-04-11T09:02:52.432Z</time></trkpt><trkpt lat="46.1636614" lon="9.425092"><ele>202.0</ele><time>2026-04-11T09:02:53.432Z</time></trkpt><trkpt lat="46.1637965" lon="9.4252218"><ele>202.0</ele><time>2026-04-11T09:02:54.432Z</time></trkpt><trkpt lat="46.1639261" lon="9.4253506"><ele>202.0</ele><time>2026-04-11T09:02:55.433Z</time></trkpt><trkpt lat="46.1640567" lon="9.4254809"><ele>202.0</ele><time>2026-04-11T09:02:56.433Z</time></trkpt><trkpt lat="46.1641852" lon="9.4256095"><ele>202.0</ele><time>2026-04-11T09:02:57.432Z</time></trkpt><trkpt lat="46.1643163" lon="9.4257369"><ele>202.0</ele><time>2026-04-11T09:02:58.432Z</time></trkpt><trkpt lat="46.1644432" lon="9.4258567"><ele>202.0</ele><time>2026-04-11T09:02:59.432Z</time></trkpt><trkpt lat="46.1645629" lon="9.4259727"><ele>202.0</ele><time>2026-04-11T09:03:00.432Z</time></trkpt><trkpt lat="46.1646748" lon="9.426085"><ele>202.0</ele><time>2026-04-11T09:03:01.432Z</time></trkpt><trkpt lat="46.1647929" lon="9.4261983"><ele>202.0</ele><time>2026-04-11T09:03:02.432Z</time></trkpt><trkpt lat="46.1649085" lon="9.4263128"><ele>201.75</ele><time>2026-04-11T09:03:03.432Z</time></trkpt><trkpt lat="46.1650274" lon="9.4264284"><ele>201.5</ele><time>2026-04-11T09:03:04.433Z</time></trkpt><trkpt lat="46.1651463" lon="9.4265466"><ele>201.25</ele><time>2026-04-11T09:03:05.433Z</time></trkpt><trkpt lat="46.1652689" lon="9.4266669"><ele>201.0</ele><time>2026-04-11T09:03:06.432Z</time></trkpt><trkpt lat="46.165392" lon="9.4267887"><ele>201.0</ele><time>2026-04-11T09:03:07.433Z</time></trkpt><trkpt lat="46.1655185" lon="9.4269138"><ele>201.0</ele><time>2026-04-11T09:03:08.432Z</time></trkpt><trkpt lat="46.1656447" lon="9.4270413"><ele>201.0</ele><time>2026-04-11T09:03:09.432Z</time></trkpt><trkpt lat="46.1657748" lon="9.4271661"><ele>201.66666666666669</ele><time>2026-04-11T09:03:10.433Z</time></trkpt><trkpt lat="46.1659044" lon="9.4272921"><ele>202.33333333333334</ele><time>2026-04-11T09:03:11.432Z</time></trkpt><trkpt lat="46.1660393" lon="9.4274137"><ele>203.0</ele><time>2026-04-11T09:03:12.433Z</time></trkpt><trkpt lat="46.1661792" lon="9.4275268"><ele>203.0</ele><time>2026-04-11T09:03:13.433Z</time></trkpt><trkpt lat="46.1663286" lon="9.4276323"><ele>203.0</ele><time>2026-04-11T09:03:14.432Z</time></trkpt><trkpt lat="46.1664725" lon="9.4277325"><ele>203.0</ele><time>2026-04-11T09:03:15.432Z</time></trkpt><trkpt lat="46.16661" lon="9.4278209"><ele>203.25</ele><time>2026-04-11T09:03:16.432Z</time></trkpt><trkpt lat="46.1667417" lon="9.4278975"><ele>203.5</ele><time>2026-04-11T09:03:17.432Z</time></trkpt><trkpt lat="46.1668669" lon="9.4279732"><ele>203.75</ele><time>2026-04-11T09:03:18.432Z</time></trkpt><trkpt lat="46.1669845" lon="9.428048"><ele>204.0</ele><time>2026-04-11T09:03:19.432Z</time></trkpt><trkpt lat="46.167096" lon="9.4281108"><ele>204.0</ele><time>2026-04-11T09:03:20.433Z</time></trkpt><trkpt lat="46.1671999" lon="9.4281763"><ele>204.0</ele><time>2026-04-11T09:03:21.432Z</time></trkpt><trkpt lat="46.1673048" lon="9.4282394"><ele>204.0</ele><time>2026-04-11T09:03:22.432Z</time></trkpt><trkpt lat="46.167404" lon="9.4282994"><ele>204.0</ele><time>2026-04-11T09:03:23.433Z</time></trkpt><trkpt lat="46.1675008" lon="9.42836"><ele>204.0</ele><time>2026-04-11T09:03:24.432Z</time></trkpt><trkpt lat="46.1675904" lon="9.4284168"><ele>204.0</ele><time>2026-04-11T09:03:25.432Z</time></trkpt><trkpt lat="46.1676884" lon="9.4284734"><ele>204.0</ele><time>2026-04-11T09:03:26.432Z</time></trkpt><trkpt lat="46.1677904" lon="9.4285319"><ele>204.0</ele><time>2026-04-11T09:03:27.432Z</time></trkpt><trkpt lat="46.167882" lon="9.4285857"><ele>204.0</ele><time>2026-04-11T09:03:28.433Z</time></trkpt><trkpt lat="46.1679656" lon="9.428639"><ele>204.0</ele><time>2026-04-11T09:03:29.433Z</time></trkpt><trkpt lat="46.1680439" lon="9.4286839"><ele>204.0</ele><time>2026-04-11T09:03:30.433Z</time></trkpt><trkpt lat="46.1681148" lon="9.4287269"><ele>204.0</ele><time>2026-04-11T09:03:31.432Z</time></trkpt><trkpt lat="46.1681845" lon="9.4287735"><ele>204.0</ele><time>2026-04-11T09:03:32.433Z</time></trkpt><trkpt lat="46.1682606" lon="9.4288202"><ele>204.0</ele><time>2026-04-11T09:03:33.432Z</time></trkpt><trkpt lat="46.1683417" lon="9.4288685"><ele>204.0</ele><time>2026-04-11T09:03:34.432Z</time></trkpt><trkpt lat="46.1684233" lon="9.4289191"><ele>204.0</ele><time>2026-04-11T09:03:35.433Z</time></trkpt><trkpt lat="46.1685202" lon="9.4289766"><ele>203.75</ele><time>2026-04-11T09:03:36.433Z</time></trkpt><trkpt lat="46.1686235" lon="9.4290437"><ele>203.5</ele><time>2026-04-11T09:03:37.432Z</time></trkpt><trkpt lat="46.1687396" lon="9.4291086"><ele>203.25</ele><time>2026-04-11T09:03:38.432Z</time></trkpt><trkpt lat="46.1688518" lon="9.4291779"><ele>203.0</ele><time>2026-04-11T09:03:39.433Z</time></trkpt><trkpt lat="46.1689656" lon="9.4292484"><ele>203.0</ele><time>2026-04-11T09:03:40.432Z</time></trkpt><trkpt lat="46.1690825" lon="9.4293149"><ele>203.0</ele><time>2026-04-11T09:03:41.432Z</time></trkpt><trkpt lat="46.169201" lon="9.4293856"><ele>203.0</ele><time>2026-04-11T09:03:42.432Z</time></trkpt><trkpt lat="46.1693161" lon="9.429465"><ele>203.0</ele><time>2026-04-11T09:03:43.432Z</time></trkpt><trkpt lat="46.1694267" lon="9.4295538"><ele>203.0</ele><time>2026-04-11T09:03:44.432Z</time></trkpt><trkpt lat="46.1695287" lon="9.4296548"><ele>203.0</ele><time>2026-04-11T09:03:45.433Z</time></trkpt><trkpt lat="46.169625" lon="9.4297675"><ele>203.0</ele><time>2026-04-11T09:03:46.433Z</time></trkpt><trkpt lat="46.1697132" lon="9.4298821"><ele>203.0</ele><time>2026-04-11T09:03:47.432Z</time></trkpt><trkpt lat="46.1697945" lon="9.4300037"><ele>203.0</ele><time>2026-04-11T09:03:48.432Z</time></trkpt><trkpt lat="46.1698753" lon="9.4301319"><ele>203.0</ele><time>2026-04-11T09:03:49.433Z</time></trkpt><trkpt lat="46.1699628" lon="9.4302636"><ele>203.0</ele><time>2026-04-11T09:03:50.432Z</time></trkpt><trkpt lat="46.1700509" lon="9.4303988"><ele>203.0</ele><time>2026-04-11T09:03:51.432Z</time></trkpt><trkpt lat="46.1701398" lon="9.4305354"><ele>203.0</ele><time>2026-04-11T09:03:52.433Z</time></trkpt><trkpt lat="46.170232" lon="9.430671"><ele>203.0</ele><time>2026-04-11T09:03:53.432Z</time></trkpt><trkpt lat="46.1703262" lon="9.4308107"><ele>203.0</ele><time>2026-04-11T09:03:54.432Z</time></trkpt><trkpt lat="46.1704147" lon="9.4309544"><ele>203.0</ele><time>2026-04-11T09:03:55.433Z</time></trkpt><trkpt lat="46.1705028" lon="9.4310902"><ele>203.0</ele><time>2026-04-11T09:03:56.433Z</time></trkpt><trkpt lat="46.1705903" lon="9.4312263"><ele>203.0</ele><time>2026-04-11T09:03:57.433Z</time></trkpt><trkpt lat="46.170678" lon="9.4313563"><ele>203.0</ele><time>2026-04-11T09:03:58.432Z</time></trkpt><trkpt lat="46.1707659" lon="9.4314837"><ele>203.0</ele><time>2026-04-11T09:03:59.432Z</time></trkpt><trkpt lat="46.170847" lon="9.4316103"><ele>203.00000000000003</ele><time>2026-04-11T09:04:00.433Z</time></trkpt><trkpt lat="46.1709204" lon="9.4317281"><ele>203.0</ele><time>2026-04-11T09:04:01.432Z</time></trkpt><trkpt lat="46.1709781" lon="9.4318198"><ele>203.0</ele><time>2026-04-11T09:04:02.432Z</time></trkpt><trkpt lat="46.1710248" lon="9.4318983"><ele>203.0</ele><time>2026-04-11T09:04:03.433Z</time></trkpt><trkpt lat="46.1710859" lon="9.431997"><ele>203.00000000000003</ele><time>2026-04-11T09:04:05.432Z</time></trkpt><trkpt lat="46.1711207" lon="9.4320789"><ele>203.0</ele><time>2026-04-11T09:04:07.432Z</time></trkpt><trkpt lat="46.1711347" lon="9.4321908"><ele>203.2</ele><time>2026-04-11T09:04:10.432Z</time></trkpt><trkpt lat="46.1711163" lon="9.4323136"><ele>203.4</ele><time>2026-04-11T09:04:12.433Z</time></trkpt><trkpt lat="46.1711407" lon="9.4324438"><ele>203.6</ele><time>2026-04-11T09:04:14.432Z</time></trkpt><trkpt lat="46.1712249" lon="9.4325006"><ele>203.79999999999998</ele><time>2026-04-11T09:04:16.432Z</time></trkpt><trkpt lat="46.1713437" lon="9.4325087"><ele>204.0</ele><time>2026-04-11T09:04:18.432Z</time></trkpt><trkpt lat="46.1714273" lon="9.4325785"><ele>204.0</ele><time>2026-04-11T09:04:20.432Z</time></trkpt><trkpt lat="46.17152" lon="9.4327059"><ele>204.0</ele><time>2026-04-11T09:04:22.432Z</time></trkpt><trkpt lat="46.1715711" lon="9.432777"><ele>204.0</ele><time>2026-04-11T09:04:23.432Z</time></trkpt><trkpt lat="46.1716237" lon="9.4328403"><ele>204.0</ele><time>2026-04-11T09:04:24.432Z</time></trkpt><trkpt lat="46.1716857" lon="9.4329098"><ele>204.0</ele><time>2026-04-11T09:04:25.432Z</time></trkpt><trkpt lat="46.1717535" lon="9.4329818"><ele>204.0</ele><time>2026-04-11T09:04:26.432Z</time></trkpt><trkpt lat="46.1718287" lon="9.4330538"><ele>203.39999999999998</ele><time>2026-04-11T09:04:27.432Z</time></trkpt><trkpt lat="46.1719122" lon="9.433122"><ele>202.8</ele><time>2026-04-11T09:04:28.432Z</time></trkpt><trkpt lat="46.1720016" lon="9.4331904"><ele>202.2</ele><time>2026-04-11T09:04:29.432Z</time></trkpt><trkpt lat="46.1720956" lon="9.4332514"><ele>201.60000000000002</ele><time>2026-04-11T09:04:30.432Z</time></trkpt><trkpt lat="46.1721856" lon="9.4333071"><ele>201.0</ele><time>2026-04-11T09:04:31.432Z</time></trkpt><trkpt lat="46.1722787" lon="9.4333527"><ele>200.8</ele><time>2026-04-11T09:04:32.433Z</time></trkpt><trkpt lat="46.1723736" lon="9.433393"><ele>200.60000000000002</ele><time>2026-04-11T09:04:33.432Z</time></trkpt><trkpt lat="46.1724705" lon="9.4334358"><ele>200.4</ele><time>2026-04-11T09:04:34.432Z</time></trkpt><trkpt lat="46.1725709" lon="9.4334807"><ele>200.2</ele><time>2026-04-11T09:04:35.432Z</time></trkpt><trkpt lat="46.1726746" lon="9.4335272"><ele>200.0</ele><time>2026-04-11T09:04:36.433Z</time></trkpt><trkpt lat="46.1727843" lon="9.4335716"><ele>200.0</ele><time>2026-04-11T09:04:37.432Z</time></trkpt><trkpt lat="46.1728904" lon="9.4336158"><ele>200.0</ele><time>2026-04-11T09:04:38.432Z</time></trkpt><trkpt lat="46.172999" lon="9.433662"><ele>200.0</ele><time>2026-04-11T09:04:39.432Z</time></trkpt><trkpt lat="46.1731095" lon="9.4337081"><ele>200.0</ele><time>2026-04-11T09:04:40.433Z</time></trkpt><trkpt lat="46.1732128" lon="9.4337511"><ele>200.0</ele><time>2026-04-11T09:04:41.432Z</time></trkpt><trkpt lat="46.1733112" lon="9.4337914"><ele>200.2</ele><time>2026-04-11T09:04:42.432Z</time></trkpt><trkpt lat="46.1734064" lon="9.4338342"><ele>200.4</ele><time>2026-04-11T09:04:43.433Z</time></trkpt><trkpt lat="46.1734985" lon="9.4338774"><ele>200.60000000000002</ele><time>2026-04-11T09:04:44.432Z</time></trkpt><trkpt lat="46.1735802" lon="9.4339138"><ele>200.8</ele><time>2026-04-11T09:04:45.432Z</time></trkpt><trkpt lat="46.1736635" lon="9.4339436"><ele>201.0</ele><time>2026-04-11T09:04:46.432Z</time></trkpt><trkpt lat="46.173765" lon="9.4339805"><ele>201.0</ele><time>2026-04-11T09:04:47.433Z</time></trkpt><trkpt lat="46.173871" lon="9.4340261"><ele>201.0</ele><time>2026-04-11T09:04:48.432Z</time></trkpt><trkpt lat="46.1739833" lon="9.4340828"><ele>201.0</ele><time>2026-04-11T09:04:49.432Z</time></trkpt><trkpt lat="46.1741005" lon="9.4341408"><ele>201.0</ele><time>2026-04-11T09:04:50.433Z</time></trkpt><trkpt lat="46.1742325" lon="9.4341961"><ele>200.33333333333331</ele><time>2026-04-11T09:04:51.432Z</time></trkpt><trkpt lat="46.1743913" lon="9.4342636"><ele>199.66666666666666</ele><time>2026-04-11T09:04:52.432Z</time></trkpt><trkpt lat="46.1745738" lon="9.4343492"><ele>199.0</ele><time>2026-04-11T09:04:53.432Z</time></trkpt><trkpt lat="46.174752" lon="9.4344482"><ele>199.33333333333331</ele><time>2026-04-11T09:04:54.432Z</time></trkpt><trkpt lat="46.1749219" lon="9.4345562"><ele>199.66666666666669</ele><time>2026-04-11T09:04:55.432Z</time></trkpt><trkpt lat="46.1750836" lon="9.4346747"><ele>200.0</ele><time>2026-04-11T09:04:56.432Z</time></trkpt><trkpt lat="46.1752398" lon="9.4348028"><ele>200.66666666666669</ele><time>2026-04-11T09:04:57.432Z</time></trkpt><trkpt lat="46.1753951" lon="9.4349396"><ele>201.33333333333331</ele><time>2026-04-11T09:04:58.433Z</time></trkpt><trkpt lat="46.1755467" lon="9.4350909"><ele>202.0</ele><time>2026-04-11T09:04:59.433Z</time></trkpt><trkpt lat="46.1756974" lon="9.4352486"><ele>202.0</ele><time>2026-04-11T09:05:00.432Z</time></trkpt><trkpt lat="46.17585" lon="9.4354022"><ele>202.0</ele><time>2026-04-11T09:05:01.432Z</time></trkpt><trkpt lat="46.1760018" lon="9.4355597"><ele>202.0</ele><time>2026-04-11T09:05:02.433Z</time></trkpt><trkpt lat="46.1761612" lon="9.4357228"><ele>201.66666666666666</ele><time>2026-04-11T09:05:03.432Z</time></trkpt><trkpt lat="46.1763272" lon="9.435886"><ele>201.33333333333331</ele><time>2026-04-11T09:05:04.432Z</time></trkpt><trkpt lat="46.1764961" lon="9.4360526"><ele>201.0</ele><time>2026-04-11T09:05:05.432Z</time></trkpt><trkpt lat="46.1766654" lon="9.4362205"><ele>201.0</ele><time>2026-04-11T09:05:06.432Z</time></trkpt><trkpt lat="46.1768386" lon="9.4363908"><ele>201.0</ele><time>2026-04-11T09:05:07.433Z</time></trkpt><trkpt lat="46.1770135" lon="9.4365674"><ele>201.0</ele><time>2026-04-11T09:05:08.432Z</time></trkpt><trkpt lat="46.1771882" lon="9.436739"><ele>201.0</ele><time>2026-04-11T09:05:09.432Z</time></trkpt><trkpt lat="46.1773631" lon="9.4369145"><ele>201.0</ele><time>2026-04-11T09:05:10.432Z</time></trkpt><trkpt lat="46.1775386" lon="9.4370916"><ele>201.0</ele><time>2026-04-11T09:05:11.433Z</time></trkpt><trkpt lat="46.1777133" lon="9.4372699"><ele>200.33333333333331</ele><time>2026-04-11T09:05:12.432Z</time></trkpt><trkpt lat="46.177888" lon="9.4374461"><ele>199.66666666666666</ele><time>2026-04-11T09:05:13.432Z</time></trkpt><trkpt lat="46.1780642" lon="9.4376197"><ele>199.0</ele><time>2026-04-11T09:05:14.432Z</time></trkpt><trkpt lat="46.1782381" lon="9.437796"><ele>200.0</ele><time>2026-04-11T09:05:15.432Z</time></trkpt><trkpt lat="46.1784136" lon="9.4379717"><ele>201.0</ele><time>2026-04-11T09:05:16.432Z</time></trkpt><trkpt lat="46.178588" lon="9.4381483"><ele>202.0</ele><time>2026-04-11T09:05:17.432Z</time></trkpt><trkpt lat="46.1787629" lon="9.4383219"><ele>202.0</ele><time>2026-04-11T09:05:18.432Z</time></trkpt><trkpt lat="46.1789368" lon="9.4384973"><ele>202.0</ele><time>2026-04-11T09:05:19.432Z</time></trkpt><trkpt lat="46.1791108" lon="9.438675"><ele>202.0</ele><time>2026-04-11T09:05:20.432Z</time></trkpt><trkpt lat="46.1792847" lon="9.4388501"><ele>201.66666666666666</ele><time>2026-04-11T09:05:21.433Z</time></trkpt><trkpt lat="46.1794573" lon="9.4390257"><ele>201.33333333333331</ele><time>2026-04-11T09:05:22.432Z</time></trkpt><trkpt lat="46.1796297" lon="9.4391972"><ele>201.0</ele><time>2026-04-11T09:05:23.432Z</time></trkpt><trkpt lat="46.1798005" lon="9.4393658"><ele>200.66666666666669</ele><time>2026-04-11T09:05:24.433Z</time></trkpt><trkpt lat="46.1799706" lon="9.4395324"><ele>200.33333333333334</ele><time>2026-04-11T09:05:25.433Z</time></trkpt><trkpt lat="46.1801366" lon="9.4397021"><ele>200.0</ele><time>2026-04-11T09:05:26.432Z</time></trkpt><trkpt lat="46.1803051" lon="9.4398703"><ele>200.0</ele><time>2026-04-11T09:05:27.432Z</time></trkpt><trkpt lat="46.1804733" lon="9.4400372"><ele>200.0</ele><time>2026-04-11T09:05:28.432Z</time></trkpt><trkpt lat="46.1806393" lon="9.4401999"><ele>200.0</ele><time>2026-04-11T09:05:29.433Z</time></trkpt><trkpt lat="46.1808018" lon="9.4403605"><ele>201.0</ele><time>2026-04-11T09:05:30.433Z</time></trkpt><trkpt lat="46.1809594" lon="9.440525"><ele>202.0</ele><time>2026-04-11T09:05:31.433Z</time></trkpt><trkpt lat="46.1811151" lon="9.4406851"><ele>203.0</ele><time>2026-04-11T09:05:32.432Z</time></trkpt><trkpt lat="46.181272" lon="9.4408421"><ele>203.0</ele><time>2026-04-11T09:05:33.433Z</time></trkpt><trkpt lat="46.1814266" lon="9.4409956"><ele>203.0</ele><time>2026-04-11T09:05:34.433Z</time></trkpt><trkpt lat="46.181581" lon="9.4411491"><ele>203.0</ele><time>2026-04-11T09:05:35.433Z</time></trkpt><trkpt lat="46.1817341" lon="9.4413061"><ele>202.0</ele><time>2026-04-11T09:05:36.433Z</time></trkpt><trkpt lat="46.1818887" lon="9.4414557"><ele>201.0</ele><time>2026-04-11T09:05:37.432Z</time></trkpt><trkpt lat="46.1820367" lon="9.4416027"><ele>200.0</ele><time>2026-04-11T09:05:38.432Z</time></trkpt><trkpt lat="46.1821791" lon="9.4417434"><ele>200.0</ele><time>2026-04-11T09:05:39.433Z</time></trkpt><trkpt lat="46.182314" lon="9.4418761"><ele>200.0</ele><time>2026-04-11T09:05:40.432Z</time></trkpt><trkpt lat="46.1824432" lon="9.442004"><ele>200.0</ele><time>2026-04-11T09:05:41.433Z</time></trkpt><trkpt lat="46.1825653" lon="9.442126"><ele>200.66666666666669</ele><time>2026-04-11T09:05:42.433Z</time></trkpt><trkpt lat="46.1826932" lon="9.4422489"><ele>201.33333333333331</ele><time>2026-04-11T09:05:43.432Z</time></trkpt><trkpt lat="46.1828228" lon="9.4423777"><ele>202.0</ele><time>2026-04-11T09:05:44.432Z</time></trkpt><trkpt lat="46.1829452" lon="9.4425023"><ele>202.0</ele><time>2026-04-11T09:05:45.432Z</time></trkpt><trkpt lat="46.1830677" lon="9.4426278"><ele>202.0</ele><time>2026-04-11T09:05:46.433Z</time></trkpt><trkpt lat="46.1831915" lon="9.4427526"><ele>202.0</ele><time>2026-04-11T09:05:47.432Z</time></trkpt><trkpt lat="46.1833156" lon="9.4428788"><ele>201.5</ele><time>2026-04-11T09:05:48.432Z</time></trkpt><trkpt lat="46.1834407" lon="9.4430029"><ele>201.0</ele><time>2026-04-11T09:05:49.432Z</time></trkpt><trkpt lat="46.1835619" lon="9.4431166"><ele>200.5</ele><time>2026-04-11T09:05:50.432Z</time></trkpt><trkpt lat="46.1836891" lon="9.4432235"><ele>200.0</ele><time>2026-04-11T09:05:51.433Z</time></trkpt><trkpt lat="46.1838168" lon="9.4433226"><ele>200.0</ele><time>2026-04-11T09:05:52.432Z</time></trkpt><trkpt lat="46.1839458" lon="9.4434194"><ele>200.0</ele><time>2026-04-11T09:05:53.432Z</time></trkpt><trkpt lat="46.1840786" lon="9.4435132"><ele>200.0</ele><time>2026-04-11T09:05:54.432Z</time></trkpt><trkpt lat="46.1842156" lon="9.443599"><ele>200.0</ele><time>2026-04-11T09:05:55.433Z</time></trkpt><trkpt lat="46.1843524" lon="9.4436797"><ele>199.66666666666669</ele><time>2026-04-11T09:05:56.433Z</time></trkpt><trkpt lat="46.1844941" lon="9.4437589"><ele>199.33333333333331</ele><time>2026-04-11T09:05:57.432Z</time></trkpt><trkpt lat="46.184637" lon="9.4438299"><ele>199.0</ele><time>2026-04-11T09:05:58.432Z</time></trkpt><trkpt lat="46.1847839" lon="9.4438946"><ele>201.66666666666666</ele><time>2026-04-11T09:05:59.432Z</time></trkpt><trkpt lat="46.1849349" lon="9.4439538"><ele>204.33333333333331</ele><time>2026-04-11T09:06:00.432Z</time></trkpt><trkpt lat="46.1850893" lon="9.4440081"><ele>207.0</ele><time>2026-04-11T09:06:01.432Z</time></trkpt><trkpt lat="46.1852467" lon="9.4440535"><ele>207.0</ele><time>2026-04-11T09:06:02.433Z</time></trkpt><trkpt lat="46.1854106" lon="9.4440978"><ele>207.0</ele><time>2026-04-11T09:06:03.433Z</time></trkpt><trkpt lat="46.1855816" lon="9.4441325"><ele>207.0</ele><time>2026-04-11T09:06:04.432Z</time></trkpt><trkpt lat="46.1857613" lon="9.4441734"><ele>207.33333333333331</ele><time>2026-04-11T09:06:05.432Z</time></trkpt><trkpt lat="46.1859458" lon="9.4442187"><ele>207.66666666666666</ele><time>2026-04-11T09:06:06.433Z</time></trkpt><trkpt lat="46.1861266" lon="9.4442516"><ele>208.0</ele><time>2026-04-11T09:06:07.432Z</time></trkpt><trkpt lat="46.1862959" lon="9.4442892"><ele>208.0</ele><time>2026-04-11T09:06:08.432Z</time></trkpt><trkpt lat="46.1864535" lon="9.4443341"><ele>208.0</ele><time>2026-04-11T09:06:09.432Z</time></trkpt><trkpt lat="46.1866053" lon="9.4443733"><ele>208.0</ele><time>2026-04-11T09:06:10.433Z</time></trkpt><trkpt lat="46.1867482" lon="9.444421"><ele>207.0</ele><time>2026-04-11T09:06:11.432Z</time></trkpt><trkpt lat="46.1868858" lon="9.4444883"><ele>206.0</ele><time>2026-04-11T09:06:12.433Z</time></trkpt><trkpt lat="46.1870303" lon="9.4445645"><ele>205.0</ele><time>2026-04-11T09:06:13.432Z</time></trkpt><trkpt lat="46.1871731" lon="9.4446476"><ele>210.0</ele><time>2026-04-11T09:06:14.432Z</time></trkpt><trkpt lat="46.1873162" lon="9.4447413"><ele>215.0</ele><time>2026-04-11T09:06:15.433Z</time></trkpt><trkpt lat="46.1874534" lon="9.444845"><ele>220.0</ele><time>2026-04-11T09:06:16.432Z</time></trkpt><trkpt lat="46.1875893" lon="9.4449655"><ele>220.0</ele><time>2026-04-11T09:06:17.432Z</time></trkpt><trkpt lat="46.1877183" lon="9.445094"><ele>220.0</ele><time>2026-04-11T09:06:18.433Z</time></trkpt><trkpt lat="46.187849" lon="9.4452276"><ele>220.0</ele><time>2026-04-11T09:06:19.432Z</time></trkpt><trkpt lat="46.1879682" lon="9.4453763"><ele>219.75</ele><time>2026-04-11T09:06:20.432Z</time></trkpt><trkpt lat="46.1880702" lon="9.4455304"><ele>219.5</ele><time>2026-04-11T09:06:21.432Z</time></trkpt><trkpt lat="46.1881655" lon="9.4456947"><ele>219.25</ele><time>2026-04-11T09:06:22.432Z</time></trkpt><trkpt lat="46.1882547" lon="9.4458497"><ele>219.0</ele><time>2026-04-11T09:06:23.432Z</time></trkpt><trkpt lat="46.1883374" lon="9.4460036"><ele>219.0</ele><time>2026-04-11T09:06:24.432Z</time></trkpt><trkpt lat="46.1884177" lon="9.4461487"><ele>219.0</ele><time>2026-04-11T09:06:25.432Z</time></trkpt><trkpt lat="46.1884982" lon="9.4462956"><ele>219.0</ele><time>2026-04-11T09:06:26.433Z</time></trkpt><trkpt lat="46.1885793" lon="9.4464477"><ele>219.0</ele><time>2026-04-11T09:06:27.432Z</time></trkpt><trkpt lat="46.188738" lon="9.4467728"><ele>203.0</ele><time>2026-04-11T09:06:29.432Z</time></trkpt><trkpt lat="46.1957814" lon="9.4513037"><ele>205.0</ele><time>2026-04-11T09:06:51.657Z</time></trkpt><trkpt lat="46.1978925" lon="9.451559"><ele>203.0</ele><time>2026-04-11T09:07:08.024Z</time></trkpt><trkpt lat="46.1951137" lon="9.4509447"><ele>203.0</ele><time>2026-04-11T09:07:17.431Z</time></trkpt><trkpt lat="46.1952276" lon="9.4509711"><ele>203.0</ele><time>2026-04-11T09:07:18.431Z</time></trkpt><trkpt lat="46.1953367" lon="9.4510282"><ele>203.0</ele><time>2026-04-11T09:07:19.431Z</time></trkpt><trkpt lat="46.1954329" lon="9.4510882"><ele>203.0</ele><time>2026-04-11T09:07:20.431Z</time></trkpt><trkpt lat="46.1955253" lon="9.4511477"><ele>203.0</ele><time>2026-04-11T09:07:21.431Z</time></trkpt><trkpt lat="46.1956146" lon="9.4512053"><ele>203.0</ele><time>2026-04-11T09:07:22.431Z</time></trkpt><trkpt lat="46.1957101" lon="9.451257"><ele>203.0</ele><time>2026-04-11T09:07:23.432Z</time></trkpt><trkpt lat="46.19581" lon="9.4513021"><ele>203.0</ele><time>2026-04-11T09:07:24.431Z</time></trkpt><trkpt lat="46.1959125" lon="9.4513414"><ele>203.0</ele><time>2026-04-11T09:07:25.431Z</time></trkpt><trkpt lat="46.196013" lon="9.4513833"><ele>203.0</ele><time>2026-04-11T09:07:26.431Z</time></trkpt><trkpt lat="46.196117" lon="9.4514156"><ele>203.0</ele><time>2026-04-11T09:07:27.432Z</time></trkpt><trkpt lat="46.1962221" lon="9.4514458"><ele>203.0</ele><time>2026-04-11T09:07:28.432Z</time></trkpt><trkpt lat="46.196335" lon="9.4514675"><ele>203.0</ele><time>2026-04-11T09:07:29.432Z</time></trkpt><trkpt lat="46.1964456" lon="9.4514777"><ele>203.0</ele><time>2026-04-11T09:07:30.432Z</time></trkpt><trkpt lat="46.1965579" lon="9.4514869"><ele>203.0</ele><time>2026-04-11T09:07:31.431Z</time></trkpt><trkpt lat="46.1966784" lon="9.451493"><ele>203.0</ele><time>2026-04-11T09:07:32.431Z</time></trkpt><trkpt lat="46.1968087" lon="9.4514827"><ele>203.0</ele><time>2026-04-11T09:07:33.431Z</time></trkpt><trkpt lat="46.1969443" lon="9.4514806"><ele>203.0</ele><time>2026-04-11T09:07:34.431Z</time></trkpt><trkpt lat="46.1970829" lon="9.4514774"><ele>203.0</ele><time>2026-04-11T09:07:35.431Z</time></trkpt><trkpt lat="46.1972251" lon="9.4514722"><ele>203.66666666666669</ele><time>2026-04-11T09:07:36.431Z</time></trkpt><trkpt lat="46.1973749" lon="9.451467"><ele>204.33333333333331</ele><time>2026-04-11T09:07:37.431Z</time></trkpt><trkpt lat="46.1975242" lon="9.4514618"><ele>205.0</ele><time>2026-04-11T09:07:38.431Z</time></trkpt><trkpt lat="46.1976764" lon="9.4514556"><ele>205.0</ele><time>2026-04-11T09:07:39.432Z</time></trkpt><trkpt lat="46.1978318" lon="9.451454"><ele>205.0</ele><time>2026-04-11T09:07:40.432Z</time></trkpt><trkpt lat="46.1979875" lon="9.4514515"><ele>205.0</ele><time>2026-04-11T09:07:41.432Z</time></trkpt><trkpt lat="46.1981373" lon="9.4514515"><ele>205.33333333333331</ele><time>2026-04-11T09:07:42.432Z</time></trkpt><trkpt lat="46.1982856" lon="9.4514566"><ele>205.66666666666669</ele><time>2026-04-11T09:07:43.432Z</time></trkpt><trkpt lat="46.1984358" lon="9.4514672"><ele>206.0</ele><time>2026-04-11T09:07:44.432Z</time></trkpt><trkpt lat="46.198587" lon="9.4514921"><ele>206.0</ele><time>2026-04-11T09:07:45.432Z</time></trkpt><trkpt lat="46.1987364" lon="9.4515235"><ele>206.0</ele><time>2026-04-11T09:07:46.432Z</time></trkpt><trkpt lat="46.1988834" lon="9.4515739"><ele>206.0</ele><time>2026-04-11T09:07:47.431Z</time></trkpt><trkpt lat="46.1990277" lon="9.4516227"><ele>206.0</ele><time>2026-04-11T09:07:48.431Z</time></trkpt><trkpt lat="46.1991702" lon="9.4516841"><ele>206.0</ele><time>2026-04-11T09:07:49.431Z</time></trkpt><trkpt lat="46.1993062" lon="9.4517517"><ele>206.0</ele><time>2026-04-11T09:07:50.432Z</time></trkpt><trkpt lat="46.1994352" lon="9.451824"><ele>206.0</ele><time>2026-04-11T09:07:51.432Z</time></trkpt><trkpt lat="46.1995599" lon="9.4518915"><ele>206.0</ele><time>2026-04-11T09:07:52.432Z</time></trkpt><trkpt lat="46.1996843" lon="9.4519591"><ele>206.0</ele><time>2026-04-11T09:07:53.431Z</time></trkpt><trkpt lat="46.1998096" lon="9.4520264"><ele>206.0</ele><time>2026-04-11T09:07:54.432Z</time></trkpt><trkpt lat="46.1999325" lon="9.4520993"><ele>206.0</ele><time>2026-04-11T09:07:55.431Z</time></trkpt><trkpt lat="46.2000501" lon="9.4521839"><ele>205.75</ele><time>2026-04-11T09:07:56.432Z</time></trkpt><trkpt lat="46.2001642" lon="9.452275"><ele>205.5</ele><time>2026-04-11T09:07:57.431Z</time></trkpt><trkpt lat="46.2002812" lon="9.452375"><ele>205.25</ele><time>2026-04-11T09:07:58.432Z</time></trkpt><trkpt lat="46.2003896" lon="9.4524801"><ele>205.0</ele><time>2026-04-11T09:07:59.431Z</time></trkpt><trkpt lat="46.2004963" lon="9.4525921"><ele>205.0</ele><time>2026-04-11T09:08:00.431Z</time></trkpt><trkpt lat="46.2006024" lon="9.4527121"><ele>205.0</ele><time>2026-04-11T09:08:01.431Z</time></trkpt><trkpt lat="46.200696" lon="9.4528409"><ele>205.0</ele><time>2026-04-11T09:08:02.431Z</time></trkpt><trkpt lat="46.2007878" lon="9.4529821"><ele>205.0</ele><time>2026-04-11T09:08:03.431Z</time></trkpt><trkpt lat="46.2008685" lon="9.4531376"><ele>205.25</ele><time>2026-04-11T09:08:04.431Z</time></trkpt><trkpt lat="46.2009471" lon="9.453294"><ele>205.5</ele><time>2026-04-11T09:08:05.431Z</time></trkpt><trkpt lat="46.2010248" lon="9.453455"><ele>205.75</ele><time>2026-04-11T09:08:06.432Z</time></trkpt><trkpt lat="46.2011014" lon="9.45361"><ele>206.0</ele><time>2026-04-11T09:08:07.431Z</time></trkpt><trkpt lat="46.2011711" lon="9.4537804"><ele>206.0</ele><time>2026-04-11T09:08:08.432Z</time></trkpt><trkpt lat="46.2012366" lon="9.4539467"><ele>206.0</ele><time>2026-04-11T09:08:09.431Z</time></trkpt><trkpt lat="46.2012997" lon="9.4541179"><ele>206.0</ele><time>2026-04-11T09:08:10.431Z</time></trkpt><trkpt lat="46.2013616" lon="9.4542883"><ele>206.0</ele><time>2026-04-11T09:08:11.431Z</time></trkpt><trkpt lat="46.2014286" lon="9.4544714"><ele>205.33333333333334</ele><time>2026-04-11T09:08:12.431Z</time></trkpt><trkpt lat="46.2015074" lon="9.4546756"><ele>204.66666666666669</ele><time>2026-04-11T09:08:13.431Z</time></trkpt><trkpt lat="46.20158" lon="9.454897"><ele>204.0</ele><time>2026-04-11T09:08:14.431Z</time></trkpt><trkpt lat="46.2016379" lon="9.455117"><ele>204.0</ele><time>2026-04-11T09:08:15.431Z</time></trkpt><trkpt lat="46.2016885" lon="9.4553213"><ele>204.0</ele><time>2026-04-11T09:08:16.431Z</time></trkpt><trkpt lat="46.201736" lon="9.455521"><ele>204.0</ele><time>2026-04-11T09:08:17.431Z</time></trkpt><trkpt lat="46.2017823" lon="9.455707"><ele>204.0</ele><time>2026-04-11T09:08:18.432Z</time></trkpt><trkpt lat="46.2018262" lon="9.4558923"><ele>204.25</ele><time>2026-04-11T09:08:19.431Z</time></trkpt><trkpt lat="46.2018741" lon="9.4560731"><ele>204.5</ele><time>2026-04-11T09:08:20.431Z</time></trkpt><trkpt lat="46.201923" lon="9.4562518"><ele>204.75</ele><time>2026-04-11T09:08:21.432Z</time></trkpt><trkpt lat="46.2019663" lon="9.4564298"><ele>205.0</ele><time>2026-04-11T09:08:22.431Z</time></trkpt><trkpt lat="46.2020129" lon="9.4566106"><ele>205.5</ele><time>2026-04-11T09:08:23.431Z</time></trkpt><trkpt lat="46.202059" lon="9.4567992"><ele>206.0</ele><time>2026-04-11T09:08:24.432Z</time></trkpt><trkpt lat="46.2021034" lon="9.4569848"><ele>206.5</ele><time>2026-04-11T09:08:25.432Z</time></trkpt><trkpt lat="46.2021486" lon="9.4571631"><ele>207.0</ele><time>2026-04-11T09:08:26.431Z</time></trkpt><trkpt lat="46.2021941" lon="9.4573372"><ele>207.0</ele><time>2026-04-11T09:08:27.431Z</time></trkpt><trkpt lat="46.2022368" lon="9.4575083"><ele>207.0</ele><time>2026-04-11T09:08:28.431Z</time></trkpt><trkpt lat="46.2022757" lon="9.45768"><ele>207.0</ele><time>2026-04-11T09:08:29.432Z</time></trkpt><trkpt lat="46.2023146" lon="9.4578442"><ele>207.0</ele><time>2026-04-11T09:08:30.431Z</time></trkpt><trkpt lat="46.2023506" lon="9.4580098"><ele>207.0</ele><time>2026-04-11T09:08:31.432Z</time></trkpt><trkpt lat="46.2023893" lon="9.4581757"><ele>207.0</ele><time>2026-04-11T09:08:32.431Z</time></trkpt><trkpt lat="46.2024261" lon="9.4583434"><ele>207.0</ele><time>2026-04-11T09:08:33.431Z</time></trkpt><trkpt lat="46.2024659" lon="9.4585134"><ele>207.0</ele><time>2026-04-11T09:08:34.431Z</time></trkpt><trkpt lat="46.2025089" lon="9.4586832"><ele>211.5</ele><time>2026-04-11T09:08:35.431Z</time></trkpt><trkpt lat="46.2025555" lon="9.4588429"><ele>216.0</ele><time>2026-04-11T09:08:36.432Z</time></trkpt><trkpt lat="46.2026066" lon="9.4590103"><ele>220.5</ele><time>2026-04-11T09:08:37.431Z</time></trkpt><trkpt lat="46.2026648" lon="9.4591667"><ele>225.0</ele><time>2026-04-11T09:08:38.432Z</time></trkpt><trkpt lat="46.2027323" lon="9.4593237"><ele>228.0</ele><time>2026-04-11T09:08:39.432Z</time></trkpt><trkpt lat="46.2069539" lon="9.460673"><ele>228.0</ele><time>2026-04-11T09:09:12.431Z</time></trkpt><trkpt lat="46.2070695" lon="9.4606458"><ele>228.0</ele><time>2026-04-11T09:09:13.431Z</time></trkpt><trkpt lat="46.2071812" lon="9.4605925"><ele>228.0</ele><time>2026-04-11T09:09:14.431Z</time></trkpt><trkpt lat="46.2072881" lon="9.4605598"><ele>228.0</ele><time>2026-04-11T09:09:15.431Z</time></trkpt><trkpt lat="46.2074116" lon="9.4605334"><ele>223.75</ele><time>2026-04-11T09:09:16.431Z</time></trkpt><trkpt lat="46.2075344" lon="9.4605369"><ele>219.5</ele><time>2026-04-11T09:09:17.432Z</time></trkpt><trkpt lat="46.2076546" lon="9.4605473"><ele>215.25</ele><time>2026-04-11T09:09:18.431Z</time></trkpt><trkpt lat="46.2077759" lon="9.4605622"><ele>211.0</ele><time>2026-04-11T09:09:19.431Z</time></trkpt><trkpt lat="46.2079019" lon="9.4605762"><ele>211.0</ele><time>2026-04-11T09:09:20.432Z</time></trkpt><trkpt lat="46.208029" lon="9.460582"><ele>211.0</ele><time>2026-04-11T09:09:21.431Z</time></trkpt><trkpt lat="46.2081545" lon="9.4605649"><ele>211.0</ele><time>2026-04-11T09:09:22.431Z</time></trkpt><trkpt lat="46.2082765" lon="9.4605245"><ele>211.0</ele><time>2026-04-11T09:09:23.431Z</time></trkpt><trkpt lat="46.208394" lon="9.4604751"><ele>208.75</ele><time>2026-04-11T09:09:24.431Z</time></trkpt><trkpt lat="46.2085026" lon="9.4604069"><ele>206.5</ele><time>2026-04-11T09:09:25.431Z</time></trkpt><trkpt lat="46.208603" lon="9.4603245"><ele>204.25</ele><time>2026-04-11T09:09:26.431Z</time></trkpt><trkpt lat="46.2086952" lon="9.4602401"><ele>202.0</ele><time>2026-04-11T09:09:27.431Z</time></trkpt><trkpt lat="46.2087856" lon="9.4601455"><ele>202.0</ele><time>2026-04-11T09:09:28.431Z</time></trkpt><trkpt lat="46.2088691" lon="9.4600481"><ele>202.0</ele><time>2026-04-11T09:09:29.431Z</time></trkpt><trkpt lat="46.2089589" lon="9.4599424"><ele>202.0</ele><time>2026-04-11T09:09:30.431Z</time></trkpt><trkpt lat="46.2090505" lon="9.4598229"><ele>202.0</ele><time>2026-04-11T09:09:31.431Z</time></trkpt><trkpt lat="46.2091402" lon="9.4596916"><ele>202.25</ele><time>2026-04-11T09:09:32.431Z</time></trkpt><trkpt lat="46.2092273" lon="9.4595521"><ele>202.5</ele><time>2026-04-11T09:09:33.432Z</time></trkpt><trkpt lat="46.2093136" lon="9.4594057"><ele>202.75</ele><time>2026-04-11T09:09:34.432Z</time></trkpt><trkpt lat="46.2093851" lon="9.4592331"><ele>203.0</ele><time>2026-04-11T09:09:35.431Z</time></trkpt><trkpt lat="46.2094422" lon="9.4590472"><ele>203.0</ele><time>2026-04-11T09:09:36.431Z</time></trkpt><trkpt lat="46.2094838" lon="9.458863"><ele>203.0</ele><time>2026-04-11T09:09:37.432Z</time></trkpt><trkpt lat="46.209509" lon="9.458663"><ele>203.0</ele><time>2026-04-11T09:09:38.431Z</time></trkpt><trkpt lat="46.209529" lon="9.4584495"><ele>203.0</ele><time>2026-04-11T09:09:39.431Z</time></trkpt><trkpt lat="46.2095489" lon="9.4582506"><ele>202.75</ele><time>2026-04-11T09:09:40.431Z</time></trkpt><trkpt lat="46.2095673" lon="9.4580447"><ele>202.5</ele><time>2026-04-11T09:09:41.431Z</time></trkpt><trkpt lat="46.2095868" lon="9.4578374"><ele>202.25</ele><time>2026-04-11T09:09:42.431Z</time></trkpt><trkpt lat="46.2096066" lon="9.4576291"><ele>202.0</ele><time>2026-04-11T09:09:43.431Z</time></trkpt><trkpt lat="46.2096277" lon="9.4574222"><ele>201.5</ele><time>2026-04-11T09:09:44.432Z</time></trkpt><trkpt lat="46.2096468" lon="9.4572169"><ele>201.0</ele><time>2026-04-11T09:09:45.431Z</time></trkpt><trkpt lat="46.2096721" lon="9.4570146"><ele>200.5</ele><time>2026-04-11T09:09:46.431Z</time></trkpt><trkpt lat="46.2096928" lon="9.4568073"><ele>200.0</ele><time>2026-04-11T09:09:47.431Z</time></trkpt><trkpt lat="46.2097149" lon="9.4565967"><ele>200.0</ele><time>2026-04-11T09:09:48.432Z</time></trkpt><trkpt lat="46.2097373" lon="9.4563863"><ele>200.0</ele><time>2026-04-11T09:09:49.431Z</time></trkpt><trkpt lat="46.2097577" lon="9.4561657"><ele>200.0</ele><time>2026-04-11T09:09:50.432Z</time></trkpt><trkpt lat="46.2097783" lon="9.4559393"><ele>200.66666666666669</ele><time>2026-04-11T09:09:51.432Z</time></trkpt><trkpt lat="46.2097985" lon="9.4557002"><ele>201.33333333333331</ele><time>2026-04-11T09:09:52.431Z</time></trkpt><trkpt lat="46.2098239" lon="9.4554539"><ele>202.0</ele><time>2026-04-11T09:09:53.431Z</time></trkpt><trkpt lat="46.2098493" lon="9.4551995"><ele>203.66666666666666</ele><time>2026-04-11T09:09:54.431Z</time></trkpt><trkpt lat="46.2098789" lon="9.4549339"><ele>205.33333333333331</ele><time>2026-04-11T09:09:55.431Z</time></trkpt><trkpt lat="46.2099029" lon="9.4546693"><ele>207.0</ele><time>2026-04-11T09:09:56.431Z</time></trkpt><trkpt lat="46.2099272" lon="9.4544136"><ele>207.33333333333331</ele><time>2026-04-11T09:09:57.431Z</time></trkpt><trkpt lat="46.209959" lon="9.4541669"><ele>207.66666666666666</ele><time>2026-04-11T09:09:58.431Z</time></trkpt><trkpt lat="46.2099874" lon="9.4539389"><ele>208.0</ele><time>2026-04-11T09:09:59.431Z</time></trkpt><trkpt lat="46.2100208" lon="9.4537259"><ele>207.5</ele><time>2026-04-11T09:10:00.432Z</time></trkpt><trkpt lat="46.2100509" lon="9.4535219"><ele>207.0</ele><time>2026-04-11T09:10:01.432Z</time></trkpt><trkpt lat="46.210084" lon="9.4533442"><ele>206.5</ele><time>2026-04-11T09:10:02.431Z</time></trkpt><trkpt lat="46.2101212" lon="9.4531604"><ele>206.0</ele><time>2026-04-11T09:10:03.432Z</time></trkpt><trkpt lat="46.2101594" lon="9.4529741"><ele>205.5</ele><time>2026-04-11T09:10:04.432Z</time></trkpt><trkpt lat="46.2101971" lon="9.45281"><ele>205.0</ele><time>2026-04-11T09:10:05.432Z</time></trkpt><trkpt lat="46.2102415" lon="9.4526458"><ele>204.5</ele><time>2026-04-11T09:10:06.432Z</time></trkpt><trkpt lat="46.2102806" lon="9.4524687"><ele>204.0</ele><time>2026-04-11T09:10:07.431Z</time></trkpt><trkpt lat="46.210327" lon="9.4522751"><ele>203.33333333333331</ele><time>2026-04-11T09:10:08.431Z</time></trkpt><trkpt lat="46.2103804" lon="9.4520768"><ele>202.66666666666666</ele><time>2026-04-11T09:10:09.431Z</time></trkpt><trkpt lat="46.2104356" lon="9.4518724"><ele>202.0</ele><time>2026-04-11T09:10:10.431Z</time></trkpt><trkpt lat="46.2105003" lon="9.4516687"><ele>202.0</ele><time>2026-04-11T09:10:11.431Z</time></trkpt><trkpt lat="46.2105653" lon="9.4514546"><ele>202.0</ele><time>2026-04-11T09:10:12.432Z</time></trkpt><trkpt lat="46.2106365" lon="9.4512472"><ele>202.0</ele><time>2026-04-11T09:10:13.431Z</time></trkpt><trkpt lat="46.2107144" lon="9.4510401"><ele>201.66666666666666</ele><time>2026-04-11T09:10:14.431Z</time></trkpt><trkpt lat="46.2107921" lon="9.4508346"><ele>201.33333333333331</ele><time>2026-04-11T09:10:15.432Z</time></trkpt><trkpt lat="46.2108647" lon="9.4506361"><ele>201.0</ele><time>2026-04-11T09:10:16.431Z</time></trkpt><trkpt lat="46.210935" lon="9.4504334"><ele>201.0</ele><time>2026-04-11T09:10:17.431Z</time></trkpt><trkpt lat="46.2110141" lon="9.450219"><ele>201.0</ele><time>2026-04-11T09:10:18.431Z</time></trkpt><trkpt lat="46.2110985" lon="9.4499995"><ele>201.0</ele><time>2026-04-11T09:10:19.431Z</time></trkpt><trkpt lat="46.2111949" lon="9.4497964"><ele>200.66666666666669</ele><time>2026-04-11T09:10:20.431Z</time></trkpt><trkpt lat="46.2112874" lon="9.4496082"><ele>200.33333333333334</ele><time>2026-04-11T09:10:21.431Z</time></trkpt><trkpt lat="46.2113842" lon="9.4494359"><ele>200.0</ele><time>2026-04-11T09:10:22.431Z</time></trkpt><trkpt lat="46.2114794" lon="9.4492689"><ele>200.33333333333334</ele><time>2026-04-11T09:10:23.431Z</time></trkpt><trkpt lat="46.2115805" lon="9.4491027"><ele>200.66666666666669</ele><time>2026-04-11T09:10:24.431Z</time></trkpt><trkpt lat="46.2116931" lon="9.4489247"><ele>201.0</ele><time>2026-04-11T09:10:25.431Z</time></trkpt><trkpt lat="46.2118242" lon="9.4487476"><ele>201.0</ele><time>2026-04-11T09:10:26.431Z</time></trkpt><trkpt lat="46.2119655" lon="9.4485871"><ele>201.0</ele><time>2026-04-11T09:10:27.432Z</time></trkpt><trkpt lat="46.2121202" lon="9.4484418"><ele>201.0</ele><time>2026-04-11T09:10:28.431Z</time></trkpt><trkpt lat="46.2122836" lon="9.4482946"><ele>202.0</ele><time>2026-04-11T09:10:29.431Z</time></trkpt><trkpt lat="46.2124412" lon="9.4481544"><ele>203.0</ele><time>2026-04-11T09:10:30.431Z</time></trkpt><trkpt lat="46.2125854" lon="9.4480113"><ele>204.0</ele><time>2026-04-11T09:10:31.431Z</time></trkpt><trkpt lat="46.2127226" lon="9.4478721"><ele>204.0</ele><time>2026-04-11T09:10:32.431Z</time></trkpt><trkpt lat="46.2128484" lon="9.4477452"><ele>204.0</ele><time>2026-04-11T09:10:33.431Z</time></trkpt><trkpt lat="46.2129777" lon="9.4476291"><ele>204.0</ele><time>2026-04-11T09:10:34.432Z</time></trkpt><trkpt lat="46.2131049" lon="9.4475207"><ele>204.66666666666669</ele><time>2026-04-11T09:10:35.432Z</time></trkpt><trkpt lat="46.213243" lon="9.4474265"><ele>205.33333333333334</ele><time>2026-04-11T09:10:36.431Z</time></trkpt><trkpt lat="46.2133849" lon="9.4473353"><ele>206.0</ele><time>2026-04-11T09:10:37.431Z</time></trkpt><trkpt lat="46.2135213" lon="9.4472692"><ele>206.0</ele><time>2026-04-11T09:10:38.431Z</time></trkpt><trkpt lat="46.2136432" lon="9.4472239"><ele>206.0</ele><time>2026-04-11T09:10:39.431Z</time></trkpt><trkpt lat="46.2137583" lon="9.4471791"><ele>206.0</ele><time>2026-04-11T09:10:40.432Z</time></trkpt><trkpt lat="46.2138646" lon="9.4471448"><ele>206.0</ele><time>2026-04-11T09:10:41.431Z</time></trkpt><trkpt lat="46.2139785" lon="9.4471147"><ele>205.25</ele><time>2026-04-11T09:10:42.431Z</time></trkpt><trkpt lat="46.2141033" lon="9.4470948"><ele>204.5</ele><time>2026-04-11T09:10:43.431Z</time></trkpt><trkpt lat="46.2142346" lon="9.4470818"><ele>203.75</ele><time>2026-04-11T09:10:44.431Z</time></trkpt><trkpt lat="46.2143708" lon="9.4470683"><ele>203.0</ele><time>2026-04-11T09:10:45.431Z</time></trkpt><trkpt lat="46.214524" lon="9.447039"><ele>203.0</ele><time>2026-04-11T09:10:46.432Z</time></trkpt><trkpt lat="46.2146755" lon="9.4470174"><ele>203.0</ele><time>2026-04-11T09:10:47.432Z</time></trkpt><trkpt lat="46.2148163" lon="9.4470108"><ele>203.0</ele><time>2026-04-11T09:10:48.431Z</time></trkpt><trkpt lat="46.2149474" lon="9.4470136"><ele>203.0</ele><time>2026-04-11T09:10:49.431Z</time></trkpt><trkpt lat="46.215078" lon="9.4470251"><ele>203.60000000000002</ele><time>2026-04-11T09:10:50.431Z</time></trkpt><trkpt lat="46.2151985" lon="9.4470519"><ele>204.20000000000002</ele><time>2026-04-11T09:10:51.431Z</time></trkpt><trkpt lat="46.2153143" lon="9.4470764"><ele>204.8</ele><time>2026-04-11T09:10:52.432Z</time></trkpt><trkpt lat="46.2154123" lon="9.4471209"><ele>205.4</ele><time>2026-04-11T09:10:53.432Z</time></trkpt><trkpt lat="46.2154941" lon="9.4471802"><ele>206.0</ele><time>2026-04-11T09:10:54.432Z</time></trkpt><trkpt lat="46.2155495" lon="9.4472724"><ele>206.16666666666669</ele><time>2026-04-11T09:10:55.431Z</time></trkpt><trkpt lat="46.2155958" lon="9.4473625"><ele>206.33333333333334</ele><time>2026-04-11T09:10:56.432Z</time></trkpt><trkpt lat="46.2156505" lon="9.4474122"><ele>206.5</ele><time>2026-04-11T09:10:57.431Z</time></trkpt><trkpt lat="46.2157696" lon="9.4473893"><ele>206.66666666666669</ele><time>2026-04-11T09:10:59.431Z</time></trkpt><trkpt lat="46.2158195" lon="9.4473181"><ele>206.83333333333334</ele><time>2026-04-11T09:11:00.431Z</time></trkpt><trkpt lat="46.2158765" lon="9.4472301"><ele>207.0</ele><time>2026-04-11T09:11:01.431Z</time></trkpt><trkpt lat="46.2159466" lon="9.4471613"><ele>206.75</ele><time>2026-04-11T09:11:02.431Z</time></trkpt><trkpt lat="46.2160455" lon="9.4471436"><ele>206.5</ele><time>2026-04-11T09:11:03.431Z</time></trkpt><trkpt lat="46.2161519" lon="9.4471421"><ele>206.25</ele><time>2026-04-11T09:11:04.432Z</time></trkpt><trkpt lat="46.2162726" lon="9.4471438"><ele>206.0</ele><time>2026-04-11T09:11:05.431Z</time></trkpt><trkpt lat="46.2164019" lon="9.4471126"><ele>206.0</ele><time>2026-04-11T09:11:06.431Z</time></trkpt><trkpt lat="46.216545" lon="9.4470557"><ele>206.0</ele><time>2026-04-11T09:11:07.431Z</time></trkpt><trkpt lat="46.2166887" lon="9.4469831"><ele>206.0</ele><time>2026-04-11T09:11:08.431Z</time></trkpt><trkpt lat="46.2168311" lon="9.4469035"><ele>206.0</ele><time>2026-04-11T09:11:09.431Z</time></trkpt><trkpt lat="46.2169803" lon="9.4468085"><ele>206.0</ele><time>2026-04-11T09:11:10.432Z</time></trkpt><trkpt lat="46.2171401" lon="9.4467219"><ele>206.0</ele><time>2026-04-11T09:11:11.432Z</time></trkpt><trkpt lat="46.2173146" lon="9.4466532"><ele>207.0</ele><time>2026-04-11T09:11:12.432Z</time></trkpt><trkpt lat="46.2175041" lon="9.4466016"><ele>208.0</ele><time>2026-04-11T09:11:13.431Z</time></trkpt><trkpt lat="46.2176986" lon="9.4465737"><ele>209.0</ele><time>2026-04-11T09:11:14.432Z</time></trkpt><trkpt lat="46.2179059" lon="9.4465439"><ele>209.0</ele><time>2026-04-11T09:11:15.431Z</time></trkpt><trkpt lat="46.2181314" lon="9.4465139"><ele>209.0</ele><time>2026-04-11T09:11:16.431Z</time></trkpt><trkpt lat="46.2183656" lon="9.4464745"><ele>206.0</ele><time>2026-04-11T09:11:17.431Z</time></trkpt><trkpt lat="46.2186182" lon="9.4464377"><ele>203.0</ele><time>2026-04-11T09:11:18.431Z</time></trkpt><trkpt lat="46.2188616" lon="9.4463983"><ele>203.66666666666669</ele><time>2026-04-11T09:11:19.431Z</time></trkpt><trkpt lat="46.2190848" lon="9.4463597"><ele>204.33333333333331</ele><time>2026-04-11T09:11:20.431Z</time></trkpt><trkpt lat="46.2192997" lon="9.4463371"><ele>205.0</ele><time>2026-04-11T09:11:21.431Z</time></trkpt><trkpt lat="46.219511" lon="9.4463092"><ele>204.0</ele><time>2026-04-11T09:11:22.431Z</time></trkpt><trkpt lat="46.2197104" lon="9.4462841"><ele>203.0</ele><time>2026-04-11T09:11:23.431Z</time></trkpt><trkpt lat="46.2199056" lon="9.4462567"><ele>202.0</ele><time>2026-04-11T09:11:24.431Z</time></trkpt><trkpt lat="46.2200904" lon="9.446233"><ele>202.0</ele><time>2026-04-11T09:11:25.431Z</time></trkpt><trkpt lat="46.2202653" lon="9.4462089"><ele>202.0</ele><time>2026-04-11T09:11:26.431Z</time></trkpt><trkpt lat="46.2204346" lon="9.4461778"><ele>202.0</ele><time>2026-04-11T09:11:27.431Z</time></trkpt><trkpt lat="46.2205952" lon="9.4461548"><ele>202.75</ele><time>2026-04-11T09:11:28.431Z</time></trkpt><trkpt lat="46.220745" lon="9.4461361"><ele>203.5</ele><time>2026-04-11T09:11:29.431Z</time></trkpt><trkpt lat="46.2208871" lon="9.4461082"><ele>204.25</ele><time>2026-04-11T09:11:30.431Z</time></trkpt><trkpt lat="46.2210255" lon="9.4460895"><ele>205.0</ele><time>2026-04-11T09:11:31.432Z</time></trkpt><trkpt lat="46.2211773" lon="9.4460849"><ele>205.0</ele><time>2026-04-11T09:11:32.431Z</time></trkpt><trkpt lat="46.2213397" lon="9.4460964"><ele>205.0</ele><time>2026-04-11T09:11:33.431Z</time></trkpt><trkpt lat="46.2215048" lon="9.4461129"><ele>205.0</ele><time>2026-04-11T09:11:34.432Z</time></trkpt><trkpt lat="46.2216642" lon="9.446141"><ele>204.33333333333331</ele><time>2026-04-11T09:11:35.432Z</time></trkpt><trkpt lat="46.2218227" lon="9.446184"><ele>203.66666666666669</ele><time>2026-04-11T09:11:36.431Z</time></trkpt><trkpt lat="46.2219872" lon="9.4462314"><ele>203.0</ele><time>2026-04-11T09:11:37.432Z</time></trkpt><trkpt lat="46.222156" lon="9.446298"><ele>204.33333333333334</ele><time>2026-04-11T09:11:38.432Z</time></trkpt><trkpt lat="46.2223245" lon="9.446384"><ele>205.66666666666669</ele><time>2026-04-11T09:11:39.431Z</time></trkpt><trkpt lat="46.2224976" lon="9.4464674"><ele>207.0</ele><time>2026-04-11T09:11:40.432Z</time></trkpt><trkpt lat="46.2226701" lon="9.446556"><ele>207.0</ele><time>2026-04-11T09:11:41.432Z</time></trkpt><trkpt lat="46.2228388" lon="9.4466483"><ele>207.0</ele><time>2026-04-11T09:11:42.431Z</time></trkpt><trkpt lat="46.2230018" lon="9.4467369"><ele>207.0</ele><time>2026-04-11T09:11:43.431Z</time></trkpt><trkpt lat="46.2231497" lon="9.4468152"><ele>207.0</ele><time>2026-04-11T09:11:44.432Z</time></trkpt><trkpt lat="46.223287" lon="9.446892"><ele>207.0</ele><time>2026-04-11T09:11:45.432Z</time></trkpt><trkpt lat="46.2234171" lon="9.4469642"><ele>207.0</ele><time>2026-04-11T09:11:46.431Z</time></trkpt><trkpt lat="46.2235377" lon="9.4470288"><ele>207.0</ele><time>2026-04-11T09:11:47.431Z</time></trkpt><trkpt lat="46.2236509" lon="9.4470918"><ele>207.39999999999998</ele><time>2026-04-11T09:11:48.431Z</time></trkpt><trkpt lat="46.2237562" lon="9.4471566"><ele>207.79999999999998</ele><time>2026-04-11T09:11:49.432Z</time></trkpt><trkpt lat="46.223861" lon="9.4472119"><ele>208.2</ele><time>2026-04-11T09:11:50.431Z</time></trkpt><trkpt lat="46.2239537" lon="9.4472628"><ele>208.6</ele><time>2026-04-11T09:11:51.431Z</time></trkpt><trkpt lat="46.224043" lon="9.4473136"><ele>209.0</ele><time>2026-04-11T09:11:52.431Z</time></trkpt><trkpt lat="46.2241316" lon="9.4473587"><ele>209.0</ele><time>2026-04-11T09:11:53.431Z</time></trkpt><trkpt lat="46.2242133" lon="9.4474043"><ele>209.0</ele><time>2026-04-11T09:11:54.432Z</time></trkpt><trkpt lat="46.2242938" lon="9.4474521"><ele>209.0</ele><time>2026-04-11T09:11:55.431Z</time></trkpt><trkpt lat="46.224381" lon="9.4475047"><ele>209.0</ele><time>2026-04-11T09:11:56.431Z</time></trkpt><trkpt lat="46.2244749" lon="9.4475569"><ele>209.0</ele><time>2026-04-11T09:11:57.431Z</time></trkpt><trkpt lat="46.2245717" lon="9.4476094"><ele>209.0</ele><time>2026-04-11T09:11:58.432Z</time></trkpt><trkpt lat="46.2246752" lon="9.447664"><ele>209.0</ele><time>2026-04-11T09:11:59.432Z</time></trkpt><trkpt lat="46.2247867" lon="9.4477161"><ele>209.0</ele><time>2026-04-11T09:12:00.431Z</time></trkpt><trkpt lat="46.224906" lon="9.4477609"><ele>209.0</ele><time>2026-04-11T09:12:01.431Z</time></trkpt><trkpt lat="46.2250256" lon="9.4477954"><ele>209.0</ele><time>2026-04-11T09:12:02.431Z</time></trkpt><trkpt lat="46.2251501" lon="9.4478187"><ele>209.0</ele><time>2026-04-11T09:12:03.431Z</time></trkpt><trkpt lat="46.2252798" lon="9.4478294"><ele>209.0</ele><time>2026-04-11T09:12:04.431Z</time></trkpt><trkpt lat="46.2254094" lon="9.4478272"><ele>209.0</ele><time>2026-04-11T09:12:05.432Z</time></trkpt><trkpt lat="46.2255373" lon="9.4478233"><ele>210.33333333333334</ele><time>2026-04-11T09:12:06.431Z</time></trkpt><trkpt lat="46.2256681" lon="9.4477872"><ele>211.66666666666669</ele><time>2026-04-11T09:12:07.431Z</time></trkpt><trkpt lat="46.2258093" lon="9.4477352"><ele>213.0</ele><time>2026-04-11T09:12:08.431Z</time></trkpt><trkpt lat="46.2259736" lon="9.4476574"><ele>213.0</ele><time>2026-04-11T09:12:09.431Z</time></trkpt><trkpt lat="46.2261305" lon="9.4475648"><ele>213.0</ele><time>2026-04-11T09:12:10.431Z</time></trkpt><trkpt lat="46.226279" lon="9.4474635"><ele>213.0</ele><time>2026-04-11T09:12:11.432Z</time></trkpt><trkpt lat="46.226414" lon="9.4473514"><ele>210.5</ele><time>2026-04-11T09:12:12.431Z</time></trkpt><trkpt lat="46.2265392" lon="9.4472378"><ele>208.0</ele><time>2026-04-11T09:12:13.431Z</time></trkpt><trkpt lat="46.2266629" lon="9.4471401"><ele>205.5</ele><time>2026-04-11T09:12:14.432Z</time></trkpt><trkpt lat="46.2267838" lon="9.4470428"><ele>203.0</ele><time>2026-04-11T09:12:15.431Z</time></trkpt><trkpt lat="46.2269048" lon="9.4469384"><ele>203.0</ele><time>2026-04-11T09:12:16.431Z</time></trkpt><trkpt lat="46.2270235" lon="9.4468262"><ele>203.0</ele><time>2026-04-11T09:12:17.431Z</time></trkpt><trkpt lat="46.227147" lon="9.4467"><ele>203.0</ele><time>2026-04-11T09:12:18.431Z</time></trkpt><trkpt lat="46.2272739" lon="9.4465694"><ele>203.0</ele><time>2026-04-11T09:12:19.431Z</time></trkpt><trkpt lat="46.2273999" lon="9.4464238"><ele>204.66666666666669</ele><time>2026-04-11T09:12:20.432Z</time></trkpt><trkpt lat="46.2275152" lon="9.4462531"><ele>206.33333333333331</ele><time>2026-04-11T09:12:21.431Z</time></trkpt><trkpt lat="46.2276294" lon="9.446067"><ele>208.0</ele><time>2026-04-11T09:12:22.431Z</time></trkpt><trkpt lat="46.2277282" lon="9.4458523"><ele>208.0</ele><time>2026-04-11T09:12:23.431Z</time></trkpt><trkpt lat="46.2278198" lon="9.4456319"><ele>208.0</ele><time>2026-04-11T09:12:24.431Z</time></trkpt><trkpt lat="46.2279021" lon="9.4454008"><ele>208.0</ele><time>2026-04-11T09:12:25.431Z</time></trkpt><trkpt lat="46.2279763" lon="9.4451607"><ele>209.66666666666666</ele><time>2026-04-11T09:12:26.431Z</time></trkpt><trkpt lat="46.2280461" lon="9.4449215"><ele>211.33333333333331</ele><time>2026-04-11T09:12:27.431Z</time></trkpt><trkpt lat="46.228115" lon="9.444694"><ele>213.0</ele><time>2026-04-11T09:12:28.431Z</time></trkpt><trkpt lat="46.228177" lon="9.444459"><ele>213.0</ele><time>2026-04-11T09:12:29.431Z</time></trkpt><trkpt lat="46.2282417" lon="9.4442266"><ele>213.0</ele><time>2026-04-11T09:12:30.432Z</time></trkpt><trkpt lat="46.2283069" lon="9.4439989"><ele>213.0</ele><time>2026-04-11T09:12:31.432Z</time></trkpt><trkpt lat="46.2283742" lon="9.443767"><ele>208.66666666666669</ele><time>2026-04-11T09:12:32.432Z</time></trkpt><trkpt lat="46.2284441" lon="9.443543"><ele>204.33333333333334</ele><time>2026-04-11T09:12:33.432Z</time></trkpt><trkpt lat="46.2285042" lon="9.4433187"><ele>200.0</ele><time>2026-04-11T09:12:34.432Z</time></trkpt><trkpt lat="46.228567" lon="9.443113"><ele>199.0</ele><time>2026-04-11T09:12:35.432Z</time></trkpt><trkpt lat="46.2286246" lon="9.442916"><ele>198.0</ele><time>2026-04-11T09:12:36.431Z</time></trkpt><trkpt lat="46.2286776" lon="9.4427255"><ele>197.0</ele><time>2026-04-11T09:12:37.431Z</time></trkpt><trkpt lat="46.2287285" lon="9.4425446"><ele>196.0</ele><time>2026-04-11T09:12:38.432Z</time></trkpt><trkpt lat="46.228782" lon="9.4423759"><ele>196.0</ele><time>2026-04-11T09:12:39.431Z</time></trkpt><trkpt lat="46.2288286" lon="9.4422079"><ele>196.0</ele><time>2026-04-11T09:12:40.432Z</time></trkpt><trkpt lat="46.2288791" lon="9.4420355"><ele>196.0</ele><time>2026-04-11T09:12:41.431Z</time></trkpt><trkpt lat="46.2289416" lon="9.4418652"><ele>196.0</ele><time>2026-04-11T09:12:42.432Z</time></trkpt><trkpt lat="46.229009" lon="9.4417019"><ele>197.0</ele><time>2026-04-11T09:12:43.431Z</time></trkpt><trkpt lat="46.2290866" lon="9.4415263"><ele>198.0</ele><time>2026-04-11T09:12:44.432Z</time></trkpt><trkpt lat="46.2291701" lon="9.441357"><ele>199.0</ele><time>2026-04-11T09:12:45.431Z</time></trkpt><trkpt lat="46.2292699" lon="9.4411792"><ele>200.0</ele><time>2026-04-11T09:12:46.431Z</time></trkpt><trkpt lat="46.2293829" lon="9.4410097"><ele>200.0</ele><time>2026-04-11T09:12:47.431Z</time></trkpt><trkpt lat="46.229517" lon="9.4408236"><ele>200.0</ele><time>2026-04-11T09:12:48.431Z</time></trkpt><trkpt lat="46.2296576" lon="9.4406433"><ele>200.0</ele><time>2026-04-11T09:12:49.432Z</time></trkpt><trkpt lat="46.2298161" lon="9.4404754"><ele>199.0</ele><time>2026-04-11T09:12:50.431Z</time></trkpt><trkpt lat="46.2299672" lon="9.440316"><ele>198.0</ele><time>2026-04-11T09:12:51.432Z</time></trkpt><trkpt lat="46.2301178" lon="9.4401671"><ele>197.0</ele><time>2026-04-11T09:12:52.432Z</time></trkpt><trkpt lat="46.2302663" lon="9.4400048"><ele>197.0</ele><time>2026-04-11T09:12:53.432Z</time></trkpt><trkpt lat="46.230409" lon="9.4398537"><ele>197.0</ele><time>2026-04-11T09:12:54.431Z</time></trkpt><trkpt lat="46.2305463" lon="9.4397053"><ele>197.0</ele><time>2026-04-11T09:12:55.431Z</time></trkpt><trkpt lat="46.2306822" lon="9.43956"><ele>197.33333333333334</ele><time>2026-04-11T09:12:56.431Z</time></trkpt><trkpt lat="46.2308187" lon="9.4394153"><ele>197.66666666666669</ele><time>2026-04-11T09:12:57.432Z</time></trkpt><trkpt lat="46.2309548" lon="9.4392648"><ele>198.0</ele><time>2026-04-11T09:12:58.431Z</time></trkpt><trkpt lat="46.2310932" lon="9.4391207"><ele>198.0</ele><time>2026-04-11T09:12:59.432Z</time></trkpt><trkpt lat="46.2312301" lon="9.4389733"><ele>198.0</ele><time>2026-04-11T09:13:00.431Z</time></trkpt><trkpt lat="46.2313655" lon="9.4388298"><ele>198.0</ele><time>2026-04-11T09:13:01.432Z</time></trkpt><trkpt lat="46.2315014" lon="9.4386896"><ele>197.66666666666669</ele><time>2026-04-11T09:13:02.431Z</time></trkpt><trkpt lat="46.2316412" lon="9.4385422"><ele>197.33333333333334</ele><time>2026-04-11T09:13:03.431Z</time></trkpt><trkpt lat="46.2317808" lon="9.4384023"><ele>197.0</ele><time>2026-04-11T09:13:04.431Z</time></trkpt><trkpt lat="46.231925" lon="9.4382716"><ele>197.0</ele><time>2026-04-11T09:13:05.431Z</time></trkpt><trkpt lat="46.2320733" lon="9.4381423"><ele>197.0</ele><time>2026-04-11T09:13:06.431Z</time></trkpt><trkpt lat="46.2322202" lon="9.4380169"><ele>197.0</ele><time>2026-04-11T09:13:07.431Z</time></trkpt><trkpt lat="46.2323638" lon="9.4378864"><ele>198.0</ele><time>2026-04-11T09:13:08.431Z</time></trkpt><trkpt lat="46.232505" lon="9.4377533"><ele>199.0</ele><time>2026-04-11T09:13:09.432Z</time></trkpt><trkpt lat="46.2326457" lon="9.4376271"><ele>200.0</ele><time>2026-04-11T09:13:10.432Z</time></trkpt><trkpt lat="46.2327914" lon="9.437499"><ele>200.0</ele><time>2026-04-11T09:13:11.431Z</time></trkpt><trkpt lat="46.2329402" lon="9.4373746"><ele>200.0</ele><time>2026-04-11T09:13:12.432Z</time></trkpt><trkpt lat="46.2330888" lon="9.4372489"><ele>200.0</ele><time>2026-04-11T09:13:13.431Z</time></trkpt><trkpt lat="46.2332373" lon="9.4371309"><ele>199.33333333333334</ele><time>2026-04-11T09:13:14.431Z</time></trkpt><trkpt lat="46.2333882" lon="9.4370052"><ele>198.66666666666669</ele><time>2026-04-11T09:13:15.431Z</time></trkpt><trkpt lat="46.2335391" lon="9.436882"><ele>198.0</ele><time>2026-04-11T09:13:16.431Z</time></trkpt><trkpt lat="46.2336863" lon="9.4367587"><ele>198.0</ele><time>2026-04-11T09:13:17.431Z</time></trkpt><trkpt lat="46.2338367" lon="9.4366321"><ele>198.0</ele><time>2026-04-11T09:13:18.432Z</time></trkpt><trkpt lat="46.2340016" lon="9.436495"><ele>198.0</ele><time>2026-04-11T09:13:19.431Z</time></trkpt><trkpt lat="46.2341809" lon="9.4363397"><ele>198.66666666666669</ele><time>2026-04-11T09:13:20.432Z</time></trkpt><trkpt lat="46.2343502" lon="9.4361759"><ele>199.33333333333334</ele><time>2026-04-11T09:13:21.431Z</time></trkpt><trkpt lat="46.234514" lon="9.4360239"><ele>200.0</ele><time>2026-04-11T09:13:22.431Z</time></trkpt><trkpt lat="46.2346815" lon="9.4358728"><ele>200.0</ele><time>2026-04-11T09:13:23.432Z</time></trkpt><trkpt lat="46.2348594" lon="9.435696"><ele>200.0</ele><time>2026-04-11T09:13:24.432Z</time></trkpt><trkpt lat="46.2350421" lon="9.4354956"><ele>200.0</ele><time>2026-04-11T09:13:25.431Z</time></trkpt><trkpt lat="46.2352124" lon="9.4353049"><ele>200.33333333333334</ele><time>2026-04-11T09:13:26.431Z</time></trkpt><trkpt lat="46.2353718" lon="9.4351261"><ele>200.66666666666669</ele><time>2026-04-11T09:13:27.432Z</time></trkpt><trkpt lat="46.2355226" lon="9.4349494"><ele>201.0</ele><time>2026-04-11T09:13:28.432Z</time></trkpt><trkpt lat="46.2356602" lon="9.4347799"><ele>200.33333333333331</ele><time>2026-04-11T09:13:29.431Z</time></trkpt><trkpt lat="46.2357919" lon="9.4346169"><ele>199.66666666666666</ele><time>2026-04-11T09:13:30.431Z</time></trkpt><trkpt lat="46.2359192" lon="9.4344562"><ele>199.0</ele><time>2026-04-11T09:13:31.432Z</time></trkpt><trkpt lat="46.2360506" lon="9.4343054"><ele>199.0</ele><time>2026-04-11T09:13:32.431Z</time></trkpt><trkpt lat="46.2361809" lon="9.4341512"><ele>199.0</ele><time>2026-04-11T09:13:33.431Z</time></trkpt><trkpt lat="46.2363179" lon="9.4339866"><ele>199.0</ele><time>2026-04-11T09:13:34.431Z</time></trkpt><trkpt lat="46.2364546" lon="9.4338223"><ele>199.0</ele><time>2026-04-11T09:13:35.431Z</time></trkpt><trkpt lat="46.2365839" lon="9.4336631"><ele>199.0</ele><time>2026-04-11T09:13:36.432Z</time></trkpt><trkpt lat="46.2367142" lon="9.4335134"><ele>199.0</ele><time>2026-04-11T09:13:37.431Z</time></trkpt><trkpt lat="46.2368459" lon="9.4333708"><ele>199.0</ele><time>2026-04-11T09:13:38.431Z</time></trkpt><trkpt lat="46.2369846" lon="9.4332271"><ele>199.0</ele><time>2026-04-11T09:13:39.431Z</time></trkpt><trkpt lat="46.2371362" lon="9.433083"><ele>199.0</ele><time>2026-04-11T09:13:40.431Z</time></trkpt><trkpt lat="46.2372935" lon="9.4329372"><ele>199.33333333333331</ele><time>2026-04-11T09:13:41.431Z</time></trkpt><trkpt lat="46.2374481" lon="9.4327979"><ele>199.66666666666669</ele><time>2026-04-11T09:13:42.431Z</time></trkpt><trkpt lat="46.2376036" lon="9.4326614"><ele>200.0</ele><time>2026-04-11T09:13:43.431Z</time></trkpt><trkpt lat="46.2377632" lon="9.4325106"><ele>200.0</ele><time>2026-04-11T09:13:44.431Z</time></trkpt><trkpt lat="46.2379343" lon="9.432342"><ele>200.0</ele><time>2026-04-11T09:13:45.432Z</time></trkpt><trkpt lat="46.2381255" lon="9.4321571"><ele>200.0</ele><time>2026-04-11T09:13:46.431Z</time></trkpt><trkpt lat="46.2383398" lon="9.4319618"><ele>199.0</ele><time>2026-04-11T09:13:47.431Z</time></trkpt><trkpt lat="46.238561" lon="9.4317717"><ele>198.0</ele><time>2026-04-11T09:13:48.432Z</time></trkpt><trkpt lat="46.2387844" lon="9.431566"><ele>198.5</ele><time>2026-04-11T09:13:49.431Z</time></trkpt><trkpt lat="46.2390247" lon="9.4313412"><ele>199.0</ele><time>2026-04-11T09:13:50.432Z</time></trkpt><trkpt lat="46.2392711" lon="9.4311171"><ele>200.0</ele><time>2026-04-11T09:13:51.431Z</time></trkpt><trkpt lat="46.2395146" lon="9.430898"><ele>201.0</ele><time>2026-04-11T09:13:52.431Z</time></trkpt><trkpt lat="46.2397502" lon="9.4306762"><ele>201.0</ele><time>2026-04-11T09:13:53.431Z</time></trkpt><trkpt lat="46.2399881" lon="9.4304557"><ele>201.0</ele><time>2026-04-11T09:13:54.431Z</time></trkpt><trkpt lat="46.2402225" lon="9.4302366"><ele>201.0</ele><time>2026-04-11T09:13:55.432Z</time></trkpt><trkpt lat="46.2404547" lon="9.4300225"><ele>201.0</ele><time>2026-04-11T09:13:56.431Z</time></trkpt><trkpt lat="46.2406857" lon="9.4298147"><ele>200.5</ele><time>2026-04-11T09:13:57.431Z</time></trkpt><trkpt lat="46.2409186" lon="9.4296058"><ele>200.0</ele><time>2026-04-11T09:13:58.431Z</time></trkpt><trkpt lat="46.2411531" lon="9.4294029"><ele>200.0</ele><time>2026-04-11T09:13:59.431Z</time></trkpt><trkpt lat="46.241385" lon="9.4291986"><ele>200.0</ele><time>2026-04-11T09:14:00.431Z</time></trkpt><trkpt lat="46.2416171" lon="9.4289983"><ele>200.0</ele><time>2026-04-11T09:14:01.431Z</time></trkpt><trkpt lat="46.2418388" lon="9.4287932"><ele>200.0</ele><time>2026-04-11T09:14:02.431Z</time></trkpt><trkpt lat="46.2420597" lon="9.4285882"><ele>200.0</ele><time>2026-04-11T09:14:03.431Z</time></trkpt><trkpt lat="46.2422669" lon="9.4283918"><ele>200.0</ele><time>2026-04-11T09:14:04.431Z</time></trkpt><trkpt lat="46.2424646" lon="9.4282025"><ele>200.0</ele><time>2026-04-11T09:14:05.431Z</time></trkpt><trkpt lat="46.2426645" lon="9.4280171"><ele>200.0</ele><time>2026-04-11T09:14:06.432Z</time></trkpt><trkpt lat="46.242869" lon="9.4278408"><ele>200.0</ele><time>2026-04-11T09:14:07.431Z</time></trkpt><trkpt lat="46.2430631" lon="9.4276632"><ele>200.0</ele><time>2026-04-11T09:14:08.431Z</time></trkpt><trkpt lat="46.2432413" lon="9.4274804"><ele>200.0</ele><time>2026-04-11T09:14:09.431Z</time></trkpt><trkpt lat="46.2434158" lon="9.4273018"><ele>200.0</ele><time>2026-04-11T09:14:10.431Z</time></trkpt><trkpt lat="46.2435973" lon="9.4271169"><ele>200.0</ele><time>2026-04-11T09:14:11.431Z</time></trkpt><trkpt lat="46.2437745" lon="9.4269139"><ele>200.0</ele><time>2026-04-11T09:14:12.432Z</time></trkpt><trkpt lat="46.2439451" lon="9.4267071"><ele>200.0</ele><time>2026-04-11T09:14:13.432Z</time></trkpt><trkpt lat="46.2441132" lon="9.4265092"><ele>200.0</ele><time>2026-04-11T09:14:14.431Z</time></trkpt><trkpt lat="46.2442722" lon="9.4263269"><ele>200.0</ele><time>2026-04-11T09:14:15.431Z</time></trkpt><trkpt lat="46.2444289" lon="9.4261529"><ele>201.0</ele><time>2026-04-11T09:14:16.431Z</time></trkpt><trkpt lat="46.2445774" lon="9.4259837"><ele>202.0</ele><time>2026-04-11T09:14:17.431Z</time></trkpt><trkpt lat="46.2447288" lon="9.4258194"><ele>203.0</ele><time>2026-04-11T09:14:18.432Z</time></trkpt><trkpt lat="46.2448883" lon="9.425659"><ele>203.33333333333334</ele><time>2026-04-11T09:14:19.431Z</time></trkpt><trkpt lat="46.2450555" lon="9.4255028"><ele>203.66666666666669</ele><time>2026-04-11T09:14:20.431Z</time></trkpt><trkpt lat="46.2452189" lon="9.4253621"><ele>204.0</ele><time>2026-04-11T09:14:21.432Z</time></trkpt><trkpt lat="46.2453843" lon="9.4252348"><ele>204.33333333333331</ele><time>2026-04-11T09:14:22.431Z</time></trkpt><trkpt lat="46.2455376" lon="9.4251076"><ele>204.66666666666666</ele><time>2026-04-11T09:14:23.432Z</time></trkpt><trkpt lat="46.24569" lon="9.424988"><ele>205.0</ele><time>2026-04-11T09:14:24.432Z</time></trkpt><trkpt lat="46.2458306" lon="9.4248707"><ele>205.0</ele><time>2026-04-11T09:14:25.431Z</time></trkpt><trkpt lat="46.2459663" lon="9.4247581"><ele>205.0</ele><time>2026-04-11T09:14:26.431Z</time></trkpt><trkpt lat="46.2461028" lon="9.4246532"><ele>205.0</ele><time>2026-04-11T09:14:27.431Z</time></trkpt><trkpt lat="46.246232" lon="9.4245567"><ele>204.75</ele><time>2026-04-11T09:14:28.431Z</time></trkpt><trkpt lat="46.2463618" lon="9.4244568"><ele>204.5</ele><time>2026-04-11T09:14:29.431Z</time></trkpt><trkpt lat="46.2464908" lon="9.4243594"><ele>204.25</ele><time>2026-04-11T09:14:30.432Z</time></trkpt><trkpt lat="46.2466249" lon="9.4242607"><ele>204.0</ele><time>2026-04-11T09:14:31.431Z</time></trkpt><trkpt lat="46.2467557" lon="9.4241609"><ele>204.0</ele><time>2026-04-11T09:14:32.431Z</time></trkpt><trkpt lat="46.2468806" lon="9.4240689"><ele>204.0</ele><time>2026-04-11T09:14:33.431Z</time></trkpt><trkpt lat="46.2470026" lon="9.4239708"><ele>204.0</ele><time>2026-04-11T09:14:34.431Z</time></trkpt><trkpt lat="46.2471319" lon="9.4238798"><ele>204.0</ele><time>2026-04-11T09:14:35.432Z</time></trkpt><trkpt lat="46.2472561" lon="9.4237845"><ele>204.5</ele><time>2026-04-11T09:14:36.432Z</time></trkpt><trkpt lat="46.247382" lon="9.4236961"><ele>205.0</ele><time>2026-04-11T09:14:37.43Z</time></trkpt><trkpt lat="46.2475075" lon="9.4236079"><ele>205.5</ele><time>2026-04-11T09:14:38.43Z</time></trkpt><trkpt lat="46.2476282" lon="9.4235611"><ele>206.0</ele><time>2026-04-11T09:14:39.43Z</time></trkpt><trkpt lat="46.2477481" lon="9.4235361"><ele>206.00000000000003</ele><time>2026-04-11T09:14:40.43Z</time></trkpt><trkpt lat="46.2478509" lon="9.4235399"><ele>206.0</ele><time>2026-04-11T09:14:41.431Z</time></trkpt><trkpt lat="46.2479438" lon="9.4235702"><ele>206.0</ele><time>2026-04-11T09:14:42.43Z</time></trkpt><trkpt lat="46.2480294" lon="9.4236095"><ele>206.0</ele><time>2026-04-11T09:14:43.43Z</time></trkpt><trkpt lat="46.2481018" lon="9.4236196"><ele>206.00000000000003</ele><time>2026-04-11T09:14:44.431Z</time></trkpt><trkpt lat="46.2481811" lon="9.4235775"><ele>206.0</ele><time>2026-04-11T09:14:45.43Z</time></trkpt><trkpt lat="46.2482734" lon="9.4235123"><ele>206.0</ele><time>2026-04-11T09:14:46.43Z</time></trkpt><trkpt lat="46.2483846" lon="9.4234772"><ele>206.0</ele><time>2026-04-11T09:14:47.43Z</time></trkpt><trkpt lat="46.248504" lon="9.4234675"><ele>206.0</ele><time>2026-04-11T09:14:48.43Z</time></trkpt><trkpt lat="46.2486205" lon="9.4234891"><ele>206.0</ele><time>2026-04-11T09:14:49.431Z</time></trkpt><trkpt lat="46.2487562" lon="9.4235186"><ele>206.0</ele><time>2026-04-11T09:14:50.431Z</time></trkpt><trkpt lat="46.2489038" lon="9.423559"><ele>206.0</ele><time>2026-04-11T09:14:51.43Z</time></trkpt><trkpt lat="46.2490519" lon="9.4235981"><ele>206.0</ele><time>2026-04-11T09:14:52.431Z</time></trkpt><trkpt lat="46.2491973" lon="9.4236364"><ele>206.0</ele><time>2026-04-11T09:14:53.43Z</time></trkpt><trkpt lat="46.2493395" lon="9.4236767"><ele>206.25</ele><time>2026-04-11T09:14:54.43Z</time></trkpt><trkpt lat="46.2494823" lon="9.4237159"><ele>206.5</ele><time>2026-04-11T09:14:55.431Z</time></trkpt><trkpt lat="46.2496175" lon="9.4237566"><ele>206.75</ele><time>2026-04-11T09:14:56.431Z</time></trkpt><trkpt lat="46.2497377" lon="9.4237954"><ele>207.0</ele><time>2026-04-11T09:14:57.43Z</time></trkpt><trkpt lat="46.2498591" lon="9.4238318"><ele>207.5</ele><time>2026-04-11T09:14:58.431Z</time></trkpt><trkpt lat="46.2499806" lon="9.4238693"><ele>208.0</ele><time>2026-04-11T09:14:59.43Z</time></trkpt><trkpt lat="46.2501037" lon="9.4239031"><ele>208.5</ele><time>2026-04-11T09:15:00.43Z</time></trkpt><trkpt lat="46.2502351" lon="9.4239399"><ele>209.0</ele><time>2026-04-11T09:15:01.43Z</time></trkpt><trkpt lat="46.2503704" lon="9.4239806"><ele>209.0</ele><time>2026-04-11T09:15:02.43Z</time></trkpt><trkpt lat="46.2505054" lon="9.4240197"><ele>209.0</ele><time>2026-04-11T09:15:03.43Z</time></trkpt><trkpt lat="46.2506372" lon="9.4240613"><ele>209.0</ele><time>2026-04-11T09:15:04.43Z</time></trkpt><trkpt lat="46.2507691" lon="9.424099"><ele>209.0</ele><time>2026-04-11T09:15:05.43Z</time></trkpt><trkpt lat="46.2509056" lon="9.4241393"><ele>209.25</ele><time>2026-04-11T09:15:06.43Z</time></trkpt><trkpt lat="46.2510373" lon="9.4241797"><ele>209.5</ele><time>2026-04-11T09:15:07.43Z</time></trkpt><trkpt lat="46.2511715" lon="9.4242152"><ele>209.75</ele><time>2026-04-11T09:15:08.431Z</time></trkpt><trkpt lat="46.2513072" lon="9.4242603"><ele>210.0</ele><time>2026-04-11T09:15:09.43Z</time></trkpt><trkpt lat="46.2514404" lon="9.4243077"><ele>210.0</ele><time>2026-04-11T09:15:10.43Z</time></trkpt><trkpt lat="46.2515712" lon="9.4243465"><ele>210.0</ele><time>2026-04-11T09:15:11.43Z</time></trkpt><trkpt lat="46.2517028" lon="9.424379"><ele>210.0</ele><time>2026-04-11T09:15:12.431Z</time></trkpt><trkpt lat="46.2518312" lon="9.4244002"><ele>210.0</ele><time>2026-04-11T09:15:13.43Z</time></trkpt><trkpt lat="46.2519558" lon="9.4244005"><ele>210.0</ele><time>2026-04-11T09:15:14.431Z</time></trkpt><trkpt lat="46.2520845" lon="9.4243804"><ele>210.0</ele><time>2026-04-11T09:15:15.43Z</time></trkpt><trkpt lat="46.2522169" lon="9.4243368"><ele>210.0</ele><time>2026-04-11T09:15:16.43Z</time></trkpt><trkpt lat="46.2523527" lon="9.4242771"><ele>210.0</ele><time>2026-04-11T09:15:17.43Z</time></trkpt><trkpt lat="46.252489" lon="9.4241936"><ele>209.75</ele><time>2026-04-11T09:15:18.43Z</time></trkpt><trkpt lat="46.2526178" lon="9.4240947"><ele>209.5</ele><time>2026-04-11T09:15:19.43Z</time></trkpt><trkpt lat="46.2527454" lon="9.4239905"><ele>209.25</ele><time>2026-04-11T09:15:20.43Z</time></trkpt><trkpt lat="46.2528661" lon="9.423868"><ele>209.0</ele><time>2026-04-11T09:15:21.43Z</time></trkpt><trkpt lat="46.2529813" lon="9.4237406"><ele>209.0</ele><time>2026-04-11T09:15:22.43Z</time></trkpt><trkpt lat="46.2530961" lon="9.4236237"><ele>209.0</ele><time>2026-04-11T09:15:23.431Z</time></trkpt><trkpt lat="46.253206" lon="9.4235023"><ele>209.0</ele><time>2026-04-11T09:15:24.432Z</time></trkpt><trkpt lat="46.2533208" lon="9.4233841"><ele>209.0</ele><time>2026-04-11T09:15:25.431Z</time></trkpt><trkpt lat="46.2534355" lon="9.4232706"><ele>209.0</ele><time>2026-04-11T09:15:26.431Z</time></trkpt><trkpt lat="46.2535461" lon="9.4231634"><ele>209.0</ele><time>2026-04-11T09:15:27.432Z</time></trkpt><trkpt lat="46.2536531" lon="9.4230536"><ele>209.0</ele><time>2026-04-11T09:15:28.432Z</time></trkpt><trkpt lat="46.2537587" lon="9.4229499"><ele>209.0</ele><time>2026-04-11T09:15:29.431Z</time></trkpt><trkpt lat="46.2538686" lon="9.4228393"><ele>209.5</ele><time>2026-04-11T09:15:30.432Z</time></trkpt><trkpt lat="46.2539825" lon="9.4227393"><ele>210.0</ele><time>2026-04-11T09:15:31.432Z</time></trkpt><trkpt lat="46.2541048" lon="9.4226491"><ele>210.5</ele><time>2026-04-11T09:15:32.431Z</time></trkpt><trkpt lat="46.254234" lon="9.422563"><ele>211.0</ele><time>2026-04-11T09:15:33.431Z</time></trkpt><trkpt lat="46.254367" lon="9.4224846"><ele>211.0</ele><time>2026-04-11T09:15:34.431Z</time></trkpt><trkpt lat="46.2545039" lon="9.4224013"><ele>211.0</ele><time>2026-04-11T09:15:35.431Z</time></trkpt><trkpt lat="46.2546477" lon="9.4223274"><ele>211.0</ele><time>2026-04-11T09:15:36.432Z</time></trkpt><trkpt lat="46.2547958" lon="9.4222502"><ele>211.33333333333331</ele><time>2026-04-11T09:15:37.431Z</time></trkpt><trkpt lat="46.2549416" lon="9.4221771"><ele>211.66666666666669</ele><time>2026-04-11T09:15:38.431Z</time></trkpt><trkpt lat="46.255095" lon="9.4221079"><ele>212.0</ele><time>2026-04-11T09:15:39.431Z</time></trkpt><trkpt lat="46.255247" lon="9.4220352"><ele>211.0</ele><time>2026-04-11T09:15:40.431Z</time></trkpt><trkpt lat="46.255402" lon="9.4219624"><ele>210.0</ele><time>2026-04-11T09:15:41.432Z</time></trkpt><trkpt lat="46.2555542" lon="9.4218945"><ele>209.0</ele><time>2026-04-11T09:15:42.431Z</time></trkpt><trkpt lat="46.2557009" lon="9.4218323"><ele>209.0</ele><time>2026-04-11T09:15:43.431Z</time></trkpt><trkpt lat="46.2558422" lon="9.421766"><ele>209.0</ele><time>2026-04-11T09:15:44.432Z</time></trkpt><trkpt lat="46.2559823" lon="9.4217073"><ele>209.0</ele><time>2026-04-11T09:15:45.432Z</time></trkpt><trkpt lat="46.2561218" lon="9.4216514"><ele>209.0</ele><time>2026-04-11T09:15:46.431Z</time></trkpt><trkpt lat="46.2562576" lon="9.4215976"><ele>209.0</ele><time>2026-04-11T09:15:47.431Z</time></trkpt><trkpt lat="46.2563918" lon="9.4215415"><ele>209.0</ele><time>2026-04-11T09:15:48.432Z</time></trkpt><trkpt lat="46.256523" lon="9.4214712"><ele>209.0</ele><time>2026-04-11T09:15:49.432Z</time></trkpt><trkpt lat="46.2566517" lon="9.421388"><ele>209.0</ele><time>2026-04-11T09:15:50.432Z</time></trkpt><trkpt lat="46.2567807" lon="9.4212898"><ele>208.0</ele><time>2026-04-11T09:15:51.431Z</time></trkpt><trkpt lat="46.2569003" lon="9.4211712"><ele>207.0</ele><time>2026-04-11T09:15:52.432Z</time></trkpt><trkpt lat="46.2570131" lon="9.4210415"><ele>206.0</ele><time>2026-04-11T09:15:53.431Z</time></trkpt><trkpt lat="46.257123" lon="9.4208956"><ele>205.0</ele><time>2026-04-11T09:15:54.431Z</time></trkpt><trkpt lat="46.2572265" lon="9.4207393"><ele>207.66666666666666</ele><time>2026-04-11T09:15:55.431Z</time></trkpt><trkpt lat="46.2573241" lon="9.4205786"><ele>210.33333333333331</ele><time>2026-04-11T09:15:56.431Z</time></trkpt><trkpt lat="46.2574272" lon="9.4204082"><ele>213.0</ele><time>2026-04-11T09:15:57.431Z</time></trkpt><trkpt lat="46.2575317" lon="9.4202311"><ele>213.0</ele><time>2026-04-11T09:15:58.431Z</time></trkpt><trkpt lat="46.2576419" lon="9.4200461"><ele>213.0</ele><time>2026-04-11T09:15:59.432Z</time></trkpt><trkpt lat="46.2577567" lon="9.419857"><ele>213.0</ele><time>2026-04-11T09:16:00.431Z</time></trkpt><trkpt lat="46.2578634" lon="9.4196719"><ele>211.0</ele><time>2026-04-11T09:16:01.431Z</time></trkpt><trkpt lat="46.2579634" lon="9.4194949"><ele>209.0</ele><time>2026-04-11T09:16:02.431Z</time></trkpt><trkpt lat="46.258067" lon="9.4193167"><ele>207.0</ele><time>2026-04-11T09:16:03.431Z</time></trkpt><trkpt lat="46.2581613" lon="9.4191453"><ele>206.66666666666669</ele><time>2026-04-11T09:16:04.431Z</time></trkpt><trkpt lat="46.2582615" lon="9.4189816"><ele>206.33333333333334</ele><time>2026-04-11T09:16:05.431Z</time></trkpt><trkpt lat="46.258366" lon="9.4188105"><ele>206.0</ele><time>2026-04-11T09:16:06.431Z</time></trkpt><trkpt lat="46.2584717" lon="9.418635"><ele>206.0</ele><time>2026-04-11T09:16:07.431Z</time></trkpt><trkpt lat="46.2585733" lon="9.4184622"><ele>206.0</ele><time>2026-04-11T09:16:08.431Z</time></trkpt><trkpt lat="46.2586703" lon="9.4182941"><ele>206.0</ele><time>2026-04-11T09:16:09.432Z</time></trkpt><trkpt lat="46.2587677" lon="9.4181341"><ele>206.66666666666669</ele><time>2026-04-11T09:16:10.431Z</time></trkpt><trkpt lat="46.2588663" lon="9.4179694"><ele>207.33333333333331</ele><time>2026-04-11T09:16:11.431Z</time></trkpt><trkpt lat="46.2589611" lon="9.4177978"><ele>208.0</ele><time>2026-04-11T09:16:12.432Z</time></trkpt><trkpt lat="46.2590626" lon="9.4176299"><ele>208.0</ele><time>2026-04-11T09:16:13.431Z</time></trkpt><trkpt lat="46.2591719" lon="9.4174537"><ele>208.0</ele><time>2026-04-11T09:16:14.431Z</time></trkpt><trkpt lat="46.2592932" lon="9.4172567"><ele>208.0</ele><time>2026-04-11T09:16:15.431Z</time></trkpt><trkpt lat="46.2594202" lon="9.4170307"><ele>207.5</ele><time>2026-04-11T09:16:16.431Z</time></trkpt><trkpt lat="46.2595559" lon="9.4167722"><ele>207.0</ele><time>2026-04-11T09:16:17.431Z</time></trkpt><trkpt lat="46.2597149" lon="9.416496"><ele>207.5</ele><time>2026-04-11T09:16:18.431Z</time></trkpt><trkpt lat="46.259892" lon="9.4162053"><ele>208.0</ele><time>2026-04-11T09:16:19.432Z</time></trkpt><trkpt lat="46.2600829" lon="9.415896"><ele>208.0</ele><time>2026-04-11T09:16:20.431Z</time></trkpt><trkpt lat="46.2602834" lon="9.4155583"><ele>208.0</ele><time>2026-04-11T09:16:21.432Z</time></trkpt><trkpt lat="46.2604905" lon="9.4152194"><ele>208.0</ele><time>2026-04-11T09:16:22.431Z</time></trkpt><trkpt lat="46.2606834" lon="9.4149019"><ele>208.0</ele><time>2026-04-11T09:16:23.431Z</time></trkpt><trkpt lat="46.2608659" lon="9.4146168"><ele>208.0</ele><time>2026-04-11T09:16:24.431Z</time></trkpt><trkpt lat="46.2610173" lon="9.4143673"><ele>208.0</ele><time>2026-04-11T09:16:25.432Z</time></trkpt><trkpt lat="46.2611515" lon="9.4141319"><ele>208.0</ele><time>2026-04-11T09:16:26.432Z</time></trkpt><trkpt lat="46.2612761" lon="9.4139152"><ele>207.66666666666666</ele><time>2026-04-11T09:16:27.431Z</time></trkpt><trkpt lat="46.2613828" lon="9.4137067"><ele>207.33333333333331</ele><time>2026-04-11T09:16:28.431Z</time></trkpt><trkpt lat="46.2614693" lon="9.4134564"><ele>207.0</ele><time>2026-04-11T09:16:29.432Z</time></trkpt><trkpt lat="46.2615255" lon="9.4131866"><ele>207.33333333333331</ele><time>2026-04-11T09:16:30.431Z</time></trkpt><trkpt lat="46.2615672" lon="9.4129057"><ele>207.66666666666666</ele><time>2026-04-11T09:16:31.431Z</time></trkpt><trkpt lat="46.2615968" lon="9.4126322"><ele>208.0</ele><time>2026-04-11T09:16:32.431Z</time></trkpt><trkpt lat="46.2616227" lon="9.4123709"><ele>207.66666666666666</ele><time>2026-04-11T09:16:33.431Z</time></trkpt><trkpt lat="46.2616531" lon="9.4121275"><ele>207.33333333333331</ele><time>2026-04-11T09:16:34.431Z</time></trkpt><trkpt lat="46.2617014" lon="9.4118953"><ele>207.0</ele><time>2026-04-11T09:16:35.431Z</time></trkpt><trkpt lat="46.2617647" lon="9.4116866"><ele>207.0</ele><time>2026-04-11T09:16:36.431Z</time></trkpt><trkpt lat="46.2618444" lon="9.4114887"><ele>207.0</ele><time>2026-04-11T09:16:37.431Z</time></trkpt><trkpt lat="46.2619381" lon="9.4113045"><ele>207.0</ele><time>2026-04-11T09:16:38.431Z</time></trkpt><trkpt lat="46.2620449" lon="9.4111234"><ele>207.33333333333331</ele><time>2026-04-11T09:16:39.432Z</time></trkpt><trkpt lat="46.2621448" lon="9.4109366"><ele>207.66666666666666</ele><time>2026-04-11T09:16:40.431Z</time></trkpt><trkpt lat="46.2622455" lon="9.41076"><ele>208.0</ele><time>2026-04-11T09:16:41.431Z</time></trkpt><trkpt lat="46.2623465" lon="9.4105939"><ele>208.0</ele><time>2026-04-11T09:16:42.431Z</time></trkpt><trkpt lat="46.2624452" lon="9.410424"><ele>208.0</ele><time>2026-04-11T09:16:43.432Z</time></trkpt><trkpt lat="46.2625454" lon="9.4102536"><ele>208.0</ele><time>2026-04-11T09:16:44.431Z</time></trkpt><trkpt lat="46.2626453" lon="9.4100842"><ele>208.0</ele><time>2026-04-11T09:16:45.431Z</time></trkpt><trkpt lat="46.2627483" lon="9.4099115"><ele>208.0</ele><time>2026-04-11T09:16:46.432Z</time></trkpt><trkpt lat="46.2628537" lon="9.4097355"><ele>208.0</ele><time>2026-04-11T09:16:47.431Z</time></trkpt><trkpt lat="46.2629611" lon="9.4095592"><ele>207.66666666666666</ele><time>2026-04-11T09:16:48.431Z</time></trkpt><trkpt lat="46.2630671" lon="9.4093828"><ele>207.33333333333331</ele><time>2026-04-11T09:16:49.432Z</time></trkpt><trkpt lat="46.2631775" lon="9.4091991"><ele>207.0</ele><time>2026-04-11T09:16:50.432Z</time></trkpt><trkpt lat="46.2632924" lon="9.4090253"><ele>207.66666666666669</ele><time>2026-04-11T09:16:51.432Z</time></trkpt><trkpt lat="46.2634143" lon="9.4088596"><ele>208.33333333333334</ele><time>2026-04-11T09:16:52.432Z</time></trkpt><trkpt lat="46.2635432" lon="9.4087118"><ele>209.0</ele><time>2026-04-11T09:16:53.431Z</time></trkpt><trkpt lat="46.2636832" lon="9.4085861"><ele>209.0</ele><time>2026-04-11T09:16:54.431Z</time></trkpt><trkpt lat="46.2638332" lon="9.4084814"><ele>209.0</ele><time>2026-04-11T09:16:55.431Z</time></trkpt><trkpt lat="46.2639906" lon="9.4083897"><ele>209.0</ele><time>2026-04-11T09:16:56.431Z</time></trkpt><trkpt lat="46.2641544" lon="9.4083027"><ele>209.33333333333334</ele><time>2026-04-11T09:16:57.431Z</time></trkpt><trkpt lat="46.2643206" lon="9.4082192"><ele>209.66666666666669</ele><time>2026-04-11T09:16:58.431Z</time></trkpt><trkpt lat="46.2644849" lon="9.4081292"><ele>210.0</ele><time>2026-04-11T09:16:59.431Z</time></trkpt><trkpt lat="46.2646526" lon="9.4080308"><ele>210.0</ele><time>2026-04-11T09:17:00.431Z</time></trkpt><trkpt lat="46.2648163" lon="9.4079364"><ele>210.0</ele><time>2026-04-11T09:17:01.431Z</time></trkpt><trkpt lat="46.2649731" lon="9.4078421"><ele>210.0</ele><time>2026-04-11T09:17:02.431Z</time></trkpt><trkpt lat="46.2651229" lon="9.4077575"><ele>210.0</ele><time>2026-04-11T09:17:03.431Z</time></trkpt><trkpt lat="46.2652615" lon="9.4076774"><ele>210.0</ele><time>2026-04-11T09:17:04.431Z</time></trkpt><trkpt lat="46.2653962" lon="9.4075903"><ele>210.0</ele><time>2026-04-11T09:17:05.432Z</time></trkpt><trkpt lat="46.265534" lon="9.4075096"><ele>210.0</ele><time>2026-04-11T09:17:06.431Z</time></trkpt><trkpt lat="46.2656669" lon="9.4074149"><ele>211.33333333333331</ele><time>2026-04-11T09:17:07.431Z</time></trkpt><trkpt lat="46.2658012" lon="9.4073113"><ele>212.66666666666666</ele><time>2026-04-11T09:17:08.431Z</time></trkpt><trkpt lat="46.2659383" lon="9.4071992"><ele>214.0</ele><time>2026-04-11T09:17:09.431Z</time></trkpt><trkpt lat="46.2660773" lon="9.407084"><ele>214.0</ele><time>2026-04-11T09:17:10.431Z</time></trkpt><trkpt lat="46.2662153" lon="9.4069625"><ele>214.0</ele><time>2026-04-11T09:17:11.432Z</time></trkpt><trkpt lat="46.2663425" lon="9.4068487"><ele>214.0</ele><time>2026-04-11T09:17:12.431Z</time></trkpt><trkpt lat="46.2664602" lon="9.4067337"><ele>214.75</ele><time>2026-04-11T09:17:13.432Z</time></trkpt><trkpt lat="46.2665741" lon="9.4066132"><ele>215.5</ele><time>2026-04-11T09:17:14.431Z</time></trkpt><trkpt lat="46.2666887" lon="9.4064951"><ele>216.25</ele><time>2026-04-11T09:17:15.431Z</time></trkpt><trkpt lat="46.2668021" lon="9.4063623"><ele>217.0</ele><time>2026-04-11T09:17:16.431Z</time></trkpt><trkpt lat="46.266914" lon="9.4062272"><ele>217.0</ele><time>2026-04-11T09:17:17.431Z</time></trkpt><trkpt lat="46.2670243" lon="9.4060847"><ele>217.0</ele><time>2026-04-11T09:17:18.432Z</time></trkpt><trkpt lat="46.2671283" lon="9.4059392"><ele>217.0</ele><time>2026-04-11T09:17:19.431Z</time></trkpt><trkpt lat="46.2672338" lon="9.405786"><ele>217.0</ele><time>2026-04-11T09:17:20.431Z</time></trkpt><trkpt lat="46.2673322" lon="9.4056288"><ele>217.0</ele><time>2026-04-11T09:17:21.431Z</time></trkpt><trkpt lat="46.2674322" lon="9.4054744"><ele>217.0</ele><time>2026-04-11T09:17:22.431Z</time></trkpt><trkpt lat="46.267537" lon="9.4053212"><ele>217.0</ele><time>2026-04-11T09:17:23.431Z</time></trkpt><trkpt lat="46.267635" lon="9.4051647"><ele>217.0</ele><time>2026-04-11T09:17:24.431Z</time></trkpt><trkpt lat="46.2677312" lon="9.4050051"><ele>217.0</ele><time>2026-04-11T09:17:25.431Z</time></trkpt><trkpt lat="46.2678295" lon="9.4048433"><ele>217.0</ele><time>2026-04-11T09:17:26.431Z</time></trkpt><trkpt lat="46.2679305" lon="9.4046809"><ele>217.0</ele><time>2026-04-11T09:17:27.431Z</time></trkpt><trkpt lat="46.2680292" lon="9.4045234"><ele>217.0</ele><time>2026-04-11T09:17:28.431Z</time></trkpt><trkpt lat="46.2681317" lon="9.404364"><ele>217.25</ele><time>2026-04-11T09:17:29.431Z</time></trkpt><trkpt lat="46.268236" lon="9.4042015"><ele>217.5</ele><time>2026-04-11T09:17:30.432Z</time></trkpt><trkpt lat="46.2683293" lon="9.4040497"><ele>217.75</ele><time>2026-04-11T09:17:31.43Z</time></trkpt><trkpt lat="46.2684194" lon="9.4038997"><ele>218.0</ele><time>2026-04-11T09:17:32.431Z</time></trkpt><trkpt lat="46.2685123" lon="9.4037534"><ele>217.5</ele><time>2026-04-11T09:17:33.43Z</time></trkpt><trkpt lat="46.2685997" lon="9.4036136"><ele>217.0</ele><time>2026-04-11T09:17:34.43Z</time></trkpt><trkpt lat="46.2686914" lon="9.4034692"><ele>216.5</ele><time>2026-04-11T09:17:35.43Z</time></trkpt><trkpt lat="46.2687748" lon="9.4033287"><ele>216.0</ele><time>2026-04-11T09:17:36.431Z</time></trkpt><trkpt lat="46.2688656" lon="9.4031819"><ele>216.25</ele><time>2026-04-11T09:17:37.43Z</time></trkpt><trkpt lat="46.2689575" lon="9.4030428"><ele>216.5</ele><time>2026-04-11T09:17:38.431Z</time></trkpt><trkpt lat="46.2690434" lon="9.4029027"><ele>216.75</ele><time>2026-04-11T09:17:39.431Z</time></trkpt><trkpt lat="46.2691319" lon="9.402763"><ele>217.0</ele><time>2026-04-11T09:17:40.431Z</time></trkpt><trkpt lat="46.2692179" lon="9.4026286"><ele>217.0</ele><time>2026-04-11T09:17:41.43Z</time></trkpt><trkpt lat="46.2692955" lon="9.4024969"><ele>217.0</ele><time>2026-04-11T09:17:42.43Z</time></trkpt><trkpt lat="46.2693752" lon="9.4023767"><ele>217.0</ele><time>2026-04-11T09:17:43.43Z</time></trkpt><trkpt lat="46.2694539" lon="9.4022441"><ele>217.0</ele><time>2026-04-11T09:17:44.431Z</time></trkpt><trkpt lat="46.2695371" lon="9.4021099"><ele>217.0</ele><time>2026-04-11T09:17:45.43Z</time></trkpt><trkpt lat="46.2696286" lon="9.4019696"><ele>217.0</ele><time>2026-04-11T09:17:46.431Z</time></trkpt><trkpt lat="46.2697178" lon="9.4018211"><ele>217.0</ele><time>2026-04-11T09:17:47.43Z</time></trkpt><trkpt lat="46.2698116" lon="9.4016804"><ele>217.0</ele><time>2026-04-11T09:17:48.431Z</time></trkpt><trkpt lat="46.2699007" lon="9.4015339"><ele>217.5</ele><time>2026-04-11T09:17:49.43Z</time></trkpt><trkpt lat="46.2699898" lon="9.4013953"><ele>218.0</ele><time>2026-04-11T09:17:50.431Z</time></trkpt><trkpt lat="46.2700891" lon="9.4012553"><ele>218.5</ele><time>2026-04-11T09:17:51.43Z</time></trkpt><trkpt lat="46.2701945" lon="9.4011238"><ele>219.0</ele><time>2026-04-11T09:17:52.43Z</time></trkpt><trkpt lat="46.2703025" lon="9.4010033"><ele>219.0</ele><time>2026-04-11T09:17:53.43Z</time></trkpt><trkpt lat="46.2704061" lon="9.4008943"><ele>219.0</ele><time>2026-04-11T09:17:54.431Z</time></trkpt><trkpt lat="46.2705091" lon="9.400787"><ele>219.0</ele><time>2026-04-11T09:17:55.431Z</time></trkpt><trkpt lat="46.2706089" lon="9.4006827"><ele>219.0</ele><time>2026-04-11T09:17:56.43Z</time></trkpt><trkpt lat="46.2707156" lon="9.400575"><ele>219.0</ele><time>2026-04-11T09:17:57.431Z</time></trkpt><trkpt lat="46.270822" lon="9.4004655"><ele>219.0</ele><time>2026-04-11T09:17:58.43Z</time></trkpt><trkpt lat="46.2709312" lon="9.4003557"><ele>219.0</ele><time>2026-04-11T09:17:59.43Z</time></trkpt><trkpt lat="46.2710395" lon="9.4002431"><ele>219.0</ele><time>2026-04-11T09:18:00.43Z</time></trkpt><trkpt lat="46.2711466" lon="9.4001285"><ele>219.0</ele><time>2026-04-11T09:18:01.431Z</time></trkpt><trkpt lat="46.2712556" lon="9.40001"><ele>219.0</ele><time>2026-04-11T09:18:02.431Z</time></trkpt><trkpt lat="46.2713562" lon="9.399896"><ele>219.0</ele><time>2026-04-11T09:18:03.43Z</time></trkpt><trkpt lat="46.2714435" lon="9.399764"><ele>219.0</ele><time>2026-04-11T09:18:04.43Z</time></trkpt><trkpt lat="46.2715148" lon="9.3996126"><ele>219.5</ele><time>2026-04-11T09:18:05.43Z</time></trkpt><trkpt lat="46.271565" lon="9.3994546"><ele>220.0</ele><time>2026-04-11T09:18:06.43Z</time></trkpt><trkpt lat="46.2715903" lon="9.3992782"><ele>220.5</ele><time>2026-04-11T09:18:07.43Z</time></trkpt><trkpt lat="46.2716056" lon="9.3991107"><ele>221.0</ele><time>2026-04-11T09:18:08.43Z</time></trkpt><trkpt lat="46.2716198" lon="9.3989357"><ele>220.5</ele><time>2026-04-11T09:18:09.43Z</time></trkpt><trkpt lat="46.2716482" lon="9.3987706"><ele>220.0</ele><time>2026-04-11T09:18:10.43Z</time></trkpt><trkpt lat="46.2716965" lon="9.3986085"><ele>219.5</ele><time>2026-04-11T09:18:11.43Z</time></trkpt><trkpt lat="46.2717608" lon="9.3984506"><ele>219.0</ele><time>2026-04-11T09:18:12.43Z</time></trkpt><trkpt lat="46.2718522" lon="9.3983001"><ele>219.0</ele><time>2026-04-11T09:18:13.43Z</time></trkpt><trkpt lat="46.2719601" lon="9.3981835"><ele>219.0</ele><time>2026-04-11T09:18:14.43Z</time></trkpt><trkpt lat="46.2720787" lon="9.3981043"><ele>219.0</ele><time>2026-04-11T09:18:15.43Z</time></trkpt><trkpt lat="46.272215" lon="9.3980402"><ele>219.0</ele><time>2026-04-11T09:18:16.431Z</time></trkpt><trkpt lat="46.2723499" lon="9.397991"><ele>219.0</ele><time>2026-04-11T09:18:17.43Z</time></trkpt><trkpt lat="46.27248" lon="9.3979462"><ele>219.0</ele><time>2026-04-11T09:18:18.43Z</time></trkpt><trkpt lat="46.2725986" lon="9.3979045"><ele>219.0</ele><time>2026-04-11T09:18:19.43Z</time></trkpt><trkpt lat="46.2727161" lon="9.3978663"><ele>219.0</ele><time>2026-04-11T09:18:20.431Z</time></trkpt><trkpt lat="46.27283" lon="9.3978237"><ele>219.0</ele><time>2026-04-11T09:18:21.43Z</time></trkpt><trkpt lat="46.2729459" lon="9.3977775"><ele>219.0</ele><time>2026-04-11T09:18:22.43Z</time></trkpt><trkpt lat="46.2730687" lon="9.3977365"><ele>219.0</ele><time>2026-04-11T09:18:23.431Z</time></trkpt><trkpt lat="46.2731964" lon="9.3977022"><ele>219.0</ele><time>2026-04-11T09:18:24.43Z</time></trkpt><trkpt lat="46.2733302" lon="9.3976617"><ele>219.75</ele><time>2026-04-11T09:18:25.43Z</time></trkpt><trkpt lat="46.2734669" lon="9.3976114"><ele>220.5</ele><time>2026-04-11T09:18:26.43Z</time></trkpt><trkpt lat="46.2736019" lon="9.3975665"><ele>221.25</ele><time>2026-04-11T09:18:27.431Z</time></trkpt><trkpt lat="46.2737415" lon="9.3975198"><ele>222.0</ele><time>2026-04-11T09:18:28.43Z</time></trkpt><trkpt lat="46.2738762" lon="9.397472"><ele>223.0</ele><time>2026-04-11T09:18:29.43Z</time></trkpt><trkpt lat="46.2740165" lon="9.3974272"><ele>224.0</ele><time>2026-04-11T09:18:30.431Z</time></trkpt><trkpt lat="46.2741533" lon="9.3973866"><ele>225.0</ele><time>2026-04-11T09:18:31.431Z</time></trkpt><trkpt lat="46.2742872" lon="9.3973491"><ele>226.0</ele><time>2026-04-11T09:18:32.43Z</time></trkpt><trkpt lat="46.2744123" lon="9.3973225"><ele>226.0</ele><time>2026-04-11T09:18:33.431Z</time></trkpt><trkpt lat="46.2745321" lon="9.3972985"><ele>226.0</ele><time>2026-04-11T09:18:34.431Z</time></trkpt><trkpt lat="46.2746509" lon="9.3972681"><ele>226.0</ele><time>2026-04-11T09:18:35.431Z</time></trkpt><trkpt lat="46.2747599" lon="9.3972402"><ele>226.0</ele><time>2026-04-11T09:18:36.43Z</time></trkpt><trkpt lat="46.2748685" lon="9.3972217"><ele>225.75</ele><time>2026-04-11T09:18:37.43Z</time></trkpt><trkpt lat="46.2749834" lon="9.3972039"><ele>225.5</ele><time>2026-04-11T09:18:38.43Z</time></trkpt><trkpt lat="46.2751049" lon="9.3971821"><ele>225.25</ele><time>2026-04-11T09:18:39.431Z</time></trkpt><trkpt lat="46.2752361" lon="9.3971512"><ele>225.0</ele><time>2026-04-11T09:18:40.43Z</time></trkpt><trkpt lat="46.27537" lon="9.3971173"><ele>225.0</ele><time>2026-04-11T09:18:41.431Z</time></trkpt><trkpt lat="46.2755002" lon="9.3970884"><ele>225.0</ele><time>2026-04-11T09:18:42.43Z</time></trkpt><trkpt lat="46.2756291" lon="9.3970612"><ele>225.0</ele><time>2026-04-11T09:18:43.431Z</time></trkpt><trkpt lat="46.2757527" lon="9.3970355"><ele>225.0</ele><time>2026-04-11T09:18:44.431Z</time></trkpt><trkpt lat="46.2758736" lon="9.3970093"><ele>225.0</ele><time>2026-04-11T09:18:45.43Z</time></trkpt><trkpt lat="46.2759973" lon="9.3969836"><ele>225.0</ele><time>2026-04-11T09:18:46.43Z</time></trkpt><trkpt lat="46.2761221" lon="9.3969633"><ele>225.0</ele><time>2026-04-11T09:18:47.431Z</time></trkpt><trkpt lat="46.2762477" lon="9.3969433"><ele>225.0</ele><time>2026-04-11T09:18:48.43Z</time></trkpt><trkpt lat="46.2763835" lon="9.3969266"><ele>225.5</ele><time>2026-04-11T09:18:49.43Z</time></trkpt><trkpt lat="46.2765194" lon="9.3969211"><ele>226.0</ele><time>2026-04-11T09:18:50.43Z</time></trkpt><trkpt lat="46.2766579" lon="9.3969149"><ele>226.5</ele><time>2026-04-11T09:18:51.43Z</time></trkpt><trkpt lat="46.2767979" lon="9.3969079"><ele>227.0</ele><time>2026-04-11T09:18:52.43Z</time></trkpt><trkpt lat="46.2769389" lon="9.3968981"><ele>227.0</ele><time>2026-04-11T09:18:53.431Z</time></trkpt><trkpt lat="46.2770821" lon="9.3968936"><ele>227.0</ele><time>2026-04-11T09:18:54.43Z</time></trkpt><trkpt lat="46.2772271" lon="9.3968856"><ele>227.0</ele><time>2026-04-11T09:18:55.43Z</time></trkpt><trkpt lat="46.277378" lon="9.3968816"><ele>227.0</ele><time>2026-04-11T09:18:56.43Z</time></trkpt><trkpt lat="46.2775258" lon="9.3968721"><ele>226.75</ele><time>2026-04-11T09:18:57.43Z</time></trkpt><trkpt lat="46.27767" lon="9.3968584"><ele>226.5</ele><time>2026-04-11T09:18:58.43Z</time></trkpt><trkpt lat="46.2778151" lon="9.3968367"><ele>226.25</ele><time>2026-04-11T09:18:59.431Z</time></trkpt><trkpt lat="46.2779583" lon="9.3968019"><ele>226.0</ele><time>2026-04-11T09:19:00.43Z</time></trkpt><trkpt lat="46.2781" lon="9.3967512"><ele>226.33333333333331</ele><time>2026-04-11T09:19:01.43Z</time></trkpt><trkpt lat="46.2782422" lon="9.3966873"><ele>226.66666666666669</ele><time>2026-04-11T09:19:02.43Z</time></trkpt><trkpt lat="46.2783841" lon="9.3966077"><ele>227.0</ele><time>2026-04-11T09:19:03.43Z</time></trkpt><trkpt lat="46.2785261" lon="9.39653"><ele>227.0</ele><time>2026-04-11T09:19:04.43Z</time></trkpt><trkpt lat="46.27866" lon="9.396439"><ele>227.0</ele><time>2026-04-11T09:19:05.43Z</time></trkpt><trkpt lat="46.2787986" lon="9.39635"><ele>227.0</ele><time>2026-04-11T09:19:06.43Z</time></trkpt><trkpt lat="46.2789356" lon="9.3962609"><ele>227.33333333333334</ele><time>2026-04-11T09:19:07.43Z</time></trkpt><trkpt lat="46.2790759" lon="9.3961719"><ele>227.66666666666669</ele><time>2026-04-11T09:19:08.43Z</time></trkpt><trkpt lat="46.2792173" lon="9.3960801"><ele>228.0</ele><time>2026-04-11T09:19:09.43Z</time></trkpt><trkpt lat="46.2793653" lon="9.3959837"><ele>228.0</ele><time>2026-04-11T09:19:10.431Z</time></trkpt><trkpt lat="46.2795136" lon="9.395894"><ele>228.0</ele><time>2026-04-11T09:19:11.43Z</time></trkpt><trkpt lat="46.2796671" lon="9.3958011"><ele>228.0</ele><time>2026-04-11T09:19:12.43Z</time></trkpt><trkpt lat="46.279824" lon="9.3956996"><ele>228.0</ele><time>2026-04-11T09:19:13.431Z</time></trkpt><trkpt lat="46.2799837" lon="9.3955939"><ele>228.0</ele><time>2026-04-11T09:19:14.43Z</time></trkpt><trkpt lat="46.2801467" lon="9.3954939"><ele>228.0</ele><time>2026-04-11T09:19:15.43Z</time></trkpt><trkpt lat="46.2803149" lon="9.3953971"><ele>227.66666666666669</ele><time>2026-04-11T09:19:16.43Z</time></trkpt><trkpt lat="46.2804831" lon="9.3952996"><ele>227.33333333333334</ele><time>2026-04-11T09:19:17.43Z</time></trkpt><trkpt lat="46.2806538" lon="9.3951941"><ele>227.0</ele><time>2026-04-11T09:19:18.43Z</time></trkpt><trkpt lat="46.2808215" lon="9.3950851"><ele>228.33333333333334</ele><time>2026-04-11T09:19:19.43Z</time></trkpt><trkpt lat="46.2809908" lon="9.3949768"><ele>229.66666666666669</ele><time>2026-04-11T09:19:20.43Z</time></trkpt><trkpt lat="46.281159" lon="9.394871"><ele>231.0</ele><time>2026-04-11T09:19:21.431Z</time></trkpt><trkpt lat="46.2813262" lon="9.3947651"><ele>231.0</ele><time>2026-04-11T09:19:22.43Z</time></trkpt><trkpt lat="46.2814921" lon="9.3946665"><ele>231.0</ele><time>2026-04-11T09:19:23.43Z</time></trkpt><trkpt lat="46.2816575" lon="9.3945617"><ele>231.0</ele><time>2026-04-11T09:19:24.431Z</time></trkpt><trkpt lat="46.2818195" lon="9.3944576"><ele>231.0</ele><time>2026-04-11T09:19:25.43Z</time></trkpt><trkpt lat="46.2819819" lon="9.3943589"><ele>231.0</ele><time>2026-04-11T09:19:26.431Z</time></trkpt><trkpt lat="46.2821437" lon="9.3942603"><ele>231.0</ele><time>2026-04-11T09:19:27.431Z</time></trkpt><trkpt lat="46.2823019" lon="9.3941584"><ele>230.33333333333331</ele><time>2026-04-11T09:19:28.43Z</time></trkpt><trkpt lat="46.2824605" lon="9.3940606"><ele>229.66666666666666</ele><time>2026-04-11T09:19:29.43Z</time></trkpt><trkpt lat="46.2826205" lon="9.3939663"><ele>229.0</ele><time>2026-04-11T09:19:30.431Z</time></trkpt><trkpt lat="46.2827813" lon="9.3938717"><ele>229.66666666666666</ele><time>2026-04-11T09:19:31.43Z</time></trkpt><trkpt lat="46.2829445" lon="9.3937793"><ele>230.33333333333331</ele><time>2026-04-11T09:19:32.431Z</time></trkpt><trkpt lat="46.2831109" lon="9.3936899"><ele>231.0</ele><time>2026-04-11T09:19:33.43Z</time></trkpt><trkpt lat="46.2832749" lon="9.3936108"><ele>231.66666666666669</ele><time>2026-04-11T09:19:34.43Z</time></trkpt><trkpt lat="46.2834326" lon="9.3935425"><ele>232.33333333333334</ele><time>2026-04-11T09:19:35.43Z</time></trkpt><trkpt lat="46.2835761" lon="9.3934765"><ele>233.0</ele><time>2026-04-11T09:19:36.43Z</time></trkpt><trkpt lat="46.2837123" lon="9.3934176"><ele>233.0</ele><time>2026-04-11T09:19:37.43Z</time></trkpt><trkpt lat="46.2838409" lon="9.3933597"><ele>233.0</ele><time>2026-04-11T09:19:38.43Z</time></trkpt><trkpt lat="46.2839616" lon="9.3933131"><ele>233.0</ele><time>2026-04-11T09:19:39.43Z</time></trkpt><trkpt lat="46.2840797" lon="9.3932569"><ele>233.0</ele><time>2026-04-11T09:19:40.43Z</time></trkpt><trkpt lat="46.2842005" lon="9.3932"><ele>232.75</ele><time>2026-04-11T09:19:41.43Z</time></trkpt><trkpt lat="46.2843247" lon="9.3931333"><ele>232.5</ele><time>2026-04-11T09:19:42.431Z</time></trkpt><trkpt lat="46.2844464" lon="9.3930581"><ele>232.25</ele><time>2026-04-11T09:19:43.431Z</time></trkpt><trkpt lat="46.2845746" lon="9.392978"><ele>232.0</ele><time>2026-04-11T09:19:44.43Z</time></trkpt><trkpt lat="46.2847035" lon="9.3928874"><ele>232.5</ele><time>2026-04-11T09:19:45.43Z</time></trkpt><trkpt lat="46.2848396" lon="9.3927976"><ele>233.0</ele><time>2026-04-11T09:19:46.43Z</time></trkpt><trkpt lat="46.2849762" lon="9.3927065"><ele>233.5</ele><time>2026-04-11T09:19:47.43Z</time></trkpt><trkpt lat="46.2851097" lon="9.3926226"><ele>234.0</ele><time>2026-04-11T09:19:48.43Z</time></trkpt><trkpt lat="46.2852394" lon="9.3925385"><ele>234.0</ele><time>2026-04-11T09:19:49.43Z</time></trkpt><trkpt lat="46.285363" lon="9.392455"><ele>234.0</ele><time>2026-04-11T09:19:50.431Z</time></trkpt><trkpt lat="46.2854803" lon="9.3923802"><ele>234.0</ele><time>2026-04-11T09:19:51.43Z</time></trkpt><trkpt lat="46.2855977" lon="9.3923055"><ele>234.0</ele><time>2026-04-11T09:19:52.43Z</time></trkpt><trkpt lat="46.2857158" lon="9.3922238"><ele>235.0</ele><time>2026-04-11T09:19:53.43Z</time></trkpt><trkpt lat="46.2858391" lon="9.3921421"><ele>236.0</ele><time>2026-04-11T09:19:54.431Z</time></trkpt><trkpt lat="46.2859641" lon="9.3920652"><ele>237.0</ele><time>2026-04-11T09:19:55.43Z</time></trkpt><trkpt lat="46.2860911" lon="9.3919859"><ele>238.0</ele><time>2026-04-11T09:19:56.43Z</time></trkpt><trkpt lat="46.2862178" lon="9.3919013"><ele>238.0</ele><time>2026-04-11T09:19:57.43Z</time></trkpt><trkpt lat="46.2863515" lon="9.3918115"><ele>238.0</ele><time>2026-04-11T09:19:58.43Z</time></trkpt><trkpt lat="46.2864875" lon="9.3917237"><ele>238.0</ele><time>2026-04-11T09:19:59.43Z</time></trkpt><trkpt lat="46.2866237" lon="9.3916375"><ele>238.0</ele><time>2026-04-11T09:20:00.43Z</time></trkpt><trkpt lat="46.2867581" lon="9.3915484"><ele>238.0</ele><time>2026-04-11T09:20:01.43Z</time></trkpt><trkpt lat="46.2868968" lon="9.3914609"><ele>238.0</ele><time>2026-04-11T09:20:02.43Z</time></trkpt><trkpt lat="46.2870334" lon="9.3913733"><ele>238.0</ele><time>2026-04-11T09:20:03.43Z</time></trkpt><trkpt lat="46.287173" lon="9.3912854"><ele>239.0</ele><time>2026-04-11T09:20:04.43Z</time></trkpt><trkpt lat="46.287302" lon="9.3911991"><ele>240.0</ele><time>2026-04-11T09:20:05.43Z</time></trkpt><trkpt lat="46.2874279" lon="9.3911165"><ele>241.0</ele><time>2026-04-11T09:20:06.43Z</time></trkpt><trkpt lat="46.2875542" lon="9.3910291"><ele>242.0</ele><time>2026-04-11T09:20:07.43Z</time></trkpt><trkpt lat="46.2876785" lon="9.3909427"><ele>242.0</ele><time>2026-04-11T09:20:08.43Z</time></trkpt><trkpt lat="46.2877962" lon="9.3908604"><ele>242.0</ele><time>2026-04-11T09:20:09.43Z</time></trkpt><trkpt lat="46.2879042" lon="9.3907818"><ele>242.0</ele><time>2026-04-11T09:20:10.43Z</time></trkpt><trkpt lat="46.2880071" lon="9.3907091"><ele>242.0</ele><time>2026-04-11T09:20:11.43Z</time></trkpt><trkpt lat="46.288096" lon="9.3906459"><ele>242.00000000000003</ele><time>2026-04-11T09:20:12.431Z</time></trkpt><trkpt lat="46.2881783" lon="9.3906019"><ele>242.0</ele><time>2026-04-11T09:20:13.43Z</time></trkpt><trkpt lat="46.2882527" lon="9.3905736"><ele>242.0</ele><time>2026-04-11T09:20:14.43Z</time></trkpt><trkpt lat="46.2883247" lon="9.3905712"><ele>242.0</ele><time>2026-04-11T09:20:15.431Z</time></trkpt><trkpt lat="46.2883961" lon="9.3905632"><ele>242.00000000000003</ele><time>2026-04-11T09:20:16.431Z</time></trkpt><trkpt lat="46.288462" lon="9.3905252"><ele>242.0</ele><time>2026-04-11T09:20:17.431Z</time></trkpt><trkpt lat="46.288519" lon="9.3904547"><ele>241.8</ele><time>2026-04-11T09:20:18.43Z</time></trkpt><trkpt lat="46.2885768" lon="9.3903688"><ele>241.6</ele><time>2026-04-11T09:20:19.43Z</time></trkpt><trkpt lat="46.2886524" lon="9.3902857"><ele>241.40000000000003</ele><time>2026-04-11T09:20:20.43Z</time></trkpt><trkpt lat="46.2887686" lon="9.390222"><ele>241.20000000000002</ele><time>2026-04-11T09:20:21.431Z</time></trkpt><trkpt lat="46.2888969" lon="9.3901523"><ele>241.0</ele><time>2026-04-11T09:20:22.43Z</time></trkpt><trkpt lat="46.289022" lon="9.3900755"><ele>242.25</ele><time>2026-04-11T09:20:23.43Z</time></trkpt><trkpt lat="46.2891419" lon="9.3899953"><ele>243.5</ele><time>2026-04-11T09:20:24.43Z</time></trkpt><trkpt lat="46.2892633" lon="9.3899122"><ele>244.75</ele><time>2026-04-11T09:20:25.43Z</time></trkpt><trkpt lat="46.2893882" lon="9.3898238"><ele>246.0</ele><time>2026-04-11T09:20:26.43Z</time></trkpt><trkpt lat="46.2895161" lon="9.3897294"><ele>246.25</ele><time>2026-04-11T09:20:27.43Z</time></trkpt><trkpt lat="46.2896421" lon="9.3896314"><ele>246.5</ele><time>2026-04-11T09:20:28.43Z</time></trkpt><trkpt lat="46.2897601" lon="9.3895274"><ele>246.75</ele><time>2026-04-11T09:20:29.431Z</time></trkpt><trkpt lat="46.2898728" lon="9.3894137"><ele>247.0</ele><time>2026-04-11T09:20:30.43Z</time></trkpt><trkpt lat="46.2899806" lon="9.3893131"><ele>247.2</ele><time>2026-04-11T09:20:31.43Z</time></trkpt><trkpt lat="46.2900707" lon="9.3892173"><ele>247.39999999999998</ele><time>2026-04-11T09:20:32.43Z</time></trkpt><trkpt lat="46.2901461" lon="9.3891317"><ele>247.60000000000002</ele><time>2026-04-11T09:20:33.431Z</time></trkpt><trkpt lat="46.2902225" lon="9.3890509"><ele>247.8</ele><time>2026-04-11T09:20:34.43Z</time></trkpt><trkpt lat="46.2902904" lon="9.3889714"><ele>248.0</ele><time>2026-04-11T09:20:35.43Z</time></trkpt><trkpt lat="46.2903629" lon="9.3888938"><ele>248.0</ele><time>2026-04-11T09:20:36.431Z</time></trkpt><trkpt lat="46.2904379" lon="9.3888085"><ele>248.0</ele><time>2026-04-11T09:20:37.431Z</time></trkpt><trkpt lat="46.2905252" lon="9.3887184"><ele>248.0</ele><time>2026-04-11T09:20:38.43Z</time></trkpt><trkpt lat="46.2906206" lon="9.3886139"><ele>248.0</ele><time>2026-04-11T09:20:39.431Z</time></trkpt><trkpt lat="46.2907184" lon="9.3885109"><ele>248.0</ele><time>2026-04-11T09:20:40.43Z</time></trkpt><trkpt lat="46.2908242" lon="9.3884008"><ele>248.0</ele><time>2026-04-11T09:20:41.43Z</time></trkpt><trkpt lat="46.2909285" lon="9.3882884"><ele>248.0</ele><time>2026-04-11T09:20:42.43Z</time></trkpt><trkpt lat="46.2910386" lon="9.388175"><ele>248.0</ele><time>2026-04-11T09:20:43.43Z</time></trkpt><trkpt lat="46.2911482" lon="9.3880545"><ele>248.0</ele><time>2026-04-11T09:20:44.431Z</time></trkpt><trkpt lat="46.2912584" lon="9.3879319"><ele>248.0</ele><time>2026-04-11T09:20:45.43Z</time></trkpt><trkpt lat="46.2913783" lon="9.3878169"><ele>248.0</ele><time>2026-04-11T09:20:46.43Z</time></trkpt><trkpt lat="46.2914893" lon="9.3876954"><ele>248.0</ele><time>2026-04-11T09:20:47.431Z</time></trkpt><trkpt lat="46.2916007" lon="9.3875689"><ele>248.0</ele><time>2026-04-11T09:20:48.43Z</time></trkpt><trkpt lat="46.291717" lon="9.3874508"><ele>248.0</ele><time>2026-04-11T09:20:49.43Z</time></trkpt><trkpt lat="46.2918322" lon="9.3873234"><ele>248.0</ele><time>2026-04-11T09:20:50.43Z</time></trkpt><trkpt lat="46.2919525" lon="9.3871986"><ele>248.0</ele><time>2026-04-11T09:20:51.43Z</time></trkpt><trkpt lat="46.2920743" lon="9.3870728"><ele>248.0</ele><time>2026-04-11T09:20:52.43Z</time></trkpt><trkpt lat="46.2921965" lon="9.3869404"><ele>250.0</ele><time>2026-04-11T09:20:53.431Z</time></trkpt><trkpt lat="46.2923191" lon="9.3868063"><ele>252.0</ele><time>2026-04-11T09:20:54.43Z</time></trkpt><trkpt lat="46.2924437" lon="9.3866777"><ele>254.0</ele><time>2026-04-11T09:20:55.43Z</time></trkpt><trkpt lat="46.2925644" lon="9.3865544"><ele>254.0</ele><time>2026-04-11T09:20:56.43Z</time></trkpt><trkpt lat="46.2926847" lon="9.3864333"><ele>254.0</ele><time>2026-04-11T09:20:57.431Z</time></trkpt><trkpt lat="46.2928089" lon="9.3863245"><ele>254.0</ele><time>2026-04-11T09:20:58.43Z</time></trkpt><trkpt lat="46.2929397" lon="9.3862261"><ele>254.0</ele><time>2026-04-11T09:20:59.43Z</time></trkpt><trkpt lat="46.2930743" lon="9.3861327"><ele>254.75</ele><time>2026-04-11T09:21:00.43Z</time></trkpt><trkpt lat="46.2932074" lon="9.3860518"><ele>255.5</ele><time>2026-04-11T09:21:01.43Z</time></trkpt><trkpt lat="46.2933407" lon="9.3859786"><ele>256.25</ele><time>2026-04-11T09:21:02.431Z</time></trkpt><trkpt lat="46.2934677" lon="9.3859217"><ele>257.0</ele><time>2026-04-11T09:21:03.431Z</time></trkpt><trkpt lat="46.2935999" lon="9.385878"><ele>257.0</ele><time>2026-04-11T09:21:04.431Z</time></trkpt><trkpt lat="46.293738" lon="9.3858484"><ele>257.0</ele><time>2026-04-11T09:21:05.43Z</time></trkpt><trkpt lat="46.2938751" lon="9.3858289"><ele>257.0</ele><time>2026-04-11T09:21:06.43Z</time></trkpt><trkpt lat="46.2940162" lon="9.3858121"><ele>257.0</ele><time>2026-04-11T09:21:07.43Z</time></trkpt><trkpt lat="46.2941473" lon="9.3858067"><ele>257.0</ele><time>2026-04-11T09:21:08.43Z</time></trkpt><trkpt lat="46.2942737" lon="9.3858113"><ele>257.0</ele><time>2026-04-11T09:21:09.431Z</time></trkpt><trkpt lat="46.2943868" lon="9.3858228"><ele>257.0</ele><time>2026-04-11T09:21:10.43Z</time></trkpt><trkpt lat="46.2944899" lon="9.385832"><ele>257.0</ele><time>2026-04-11T09:21:11.43Z</time></trkpt><trkpt lat="46.2945883" lon="9.3858496"><ele>257.0</ele><time>2026-04-11T09:21:12.431Z</time></trkpt><trkpt lat="46.2946798" lon="9.3858626"><ele>257.6</ele><time>2026-04-11T09:21:13.431Z</time></trkpt><trkpt lat="46.2947667" lon="9.3858725"><ele>258.2</ele><time>2026-04-11T09:21:14.43Z</time></trkpt><trkpt lat="46.2948558" lon="9.3858898"><ele>258.8</ele><time>2026-04-11T09:21:15.431Z</time></trkpt><trkpt lat="46.2949559" lon="9.3859108"><ele>259.4</ele><time>2026-04-11T09:21:16.43Z</time></trkpt><trkpt lat="46.295066" lon="9.3859236"><ele>260.0</ele><time>2026-04-11T09:21:17.43Z</time></trkpt><trkpt lat="46.2951751" lon="9.3859503"><ele>260.0</ele><time>2026-04-11T09:21:18.43Z</time></trkpt><trkpt lat="46.2952843" lon="9.3859688"><ele>260.0</ele><time>2026-04-11T09:21:19.43Z</time></trkpt><trkpt lat="46.2953997" lon="9.3859952"><ele>260.0</ele><time>2026-04-11T09:21:20.43Z</time></trkpt><trkpt lat="46.2955119" lon="9.3860141"><ele>260.0</ele><time>2026-04-11T09:21:21.43Z</time></trkpt><trkpt lat="46.2956307" lon="9.3860362"><ele>260.75</ele><time>2026-04-11T09:21:22.431Z</time></trkpt><trkpt lat="46.2957538" lon="9.3860592"><ele>261.5</ele><time>2026-04-11T09:21:23.43Z</time></trkpt><trkpt lat="46.295881" lon="9.3860791"><ele>262.25</ele><time>2026-04-11T09:21:24.43Z</time></trkpt><trkpt lat="46.2960128" lon="9.3861094"><ele>263.0</ele><time>2026-04-11T09:21:25.43Z</time></trkpt><trkpt lat="46.2961451" lon="9.3861385"><ele>263.0</ele><time>2026-04-11T09:21:26.431Z</time></trkpt><trkpt lat="46.2962721" lon="9.3861653"><ele>263.0</ele><time>2026-04-11T09:21:27.431Z</time></trkpt><trkpt lat="46.296412" lon="9.3861882"><ele>263.0</ele><time>2026-04-11T09:21:28.43Z</time></trkpt><trkpt lat="46.2965596" lon="9.3862174"><ele>263.0</ele><time>2026-04-11T09:21:29.431Z</time></trkpt><trkpt lat="46.2967145" lon="9.3862445"><ele>263.0</ele><time>2026-04-11T09:21:30.43Z</time></trkpt><trkpt lat="46.2968754" lon="9.3862728"><ele>263.0</ele><time>2026-04-11T09:21:31.431Z</time></trkpt><trkpt lat="46.2970433" lon="9.3863013"><ele>263.0</ele><time>2026-04-11T09:21:32.43Z</time></trkpt><trkpt lat="46.2972066" lon="9.3863283"><ele>266.0</ele><time>2026-04-11T09:21:33.431Z</time></trkpt><trkpt lat="46.297369" lon="9.3863548"><ele>269.0</ele><time>2026-04-11T09:21:34.43Z</time></trkpt><trkpt lat="46.2975311" lon="9.3863863"><ele>272.0</ele><time>2026-04-11T09:21:35.43Z</time></trkpt><trkpt lat="46.297714" lon="9.3864257"><ele>272.0</ele><time>2026-04-11T09:21:36.43Z</time></trkpt><trkpt lat="46.2979196" lon="9.3864585"><ele>272.0</ele><time>2026-04-11T09:21:37.43Z</time></trkpt><trkpt lat="46.2981307" lon="9.3865036"><ele>272.0</ele><time>2026-04-11T09:21:38.43Z</time></trkpt><trkpt lat="46.2983258" lon="9.3865394"><ele>272.5</ele><time>2026-04-11T09:21:39.43Z</time></trkpt><trkpt lat="46.2984909" lon="9.3865665"><ele>273.0</ele><time>2026-04-11T09:21:40.43Z</time></trkpt><trkpt lat="46.2986366" lon="9.3865988"><ele>273.5</ele><time>2026-04-11T09:21:41.43Z</time></trkpt><trkpt lat="46.2987658" lon="9.3866204"><ele>274.0</ele><time>2026-04-11T09:21:42.431Z</time></trkpt><trkpt lat="46.2988825" lon="9.3866425"><ele>274.5</ele><time>2026-04-11T09:21:43.43Z</time></trkpt><trkpt lat="46.2989982" lon="9.3866625"><ele>275.0</ele><time>2026-04-11T09:21:44.431Z</time></trkpt><trkpt lat="46.2991246" lon="9.3866838"><ele>275.5</ele><time>2026-04-11T09:21:45.43Z</time></trkpt><trkpt lat="46.2992508" lon="9.3867055"><ele>276.0</ele><time>2026-04-11T09:21:46.43Z</time></trkpt><trkpt lat="46.2993806" lon="9.386733"><ele>276.0</ele><time>2026-04-11T09:21:47.43Z</time></trkpt><trkpt lat="46.2995143" lon="9.386755"><ele>276.0</ele><time>2026-04-11T09:21:48.431Z</time></trkpt><trkpt lat="46.29965" lon="9.3867903"><ele>276.0</ele><time>2026-04-11T09:21:49.43Z</time></trkpt><trkpt lat="46.2997819" lon="9.3868387"><ele>276.0</ele><time>2026-04-11T09:21:50.43Z</time></trkpt><trkpt lat="46.2999158" lon="9.3869027"><ele>275.5</ele><time>2026-04-11T09:21:51.431Z</time></trkpt><trkpt lat="46.3000504" lon="9.3869794"><ele>275.0</ele><time>2026-04-11T09:21:52.43Z</time></trkpt><trkpt lat="46.3001793" lon="9.3870747"><ele>274.5</ele><time>2026-04-11T09:21:53.43Z</time></trkpt><trkpt lat="46.3003116" lon="9.3871664"><ele>274.0</ele><time>2026-04-11T09:21:54.43Z</time></trkpt><trkpt lat="46.3004413" lon="9.3872487"><ele>275.25</ele><time>2026-04-11T09:21:55.43Z</time></trkpt><trkpt lat="46.3005637" lon="9.3873294"><ele>276.5</ele><time>2026-04-11T09:21:56.431Z</time></trkpt><trkpt lat="46.3006835" lon="9.3874049"><ele>277.75</ele><time>2026-04-11T09:21:57.43Z</time></trkpt><trkpt lat="46.3008018" lon="9.3874803"><ele>279.0</ele><time>2026-04-11T09:21:58.43Z</time></trkpt><trkpt lat="46.3009238" lon="9.3875571"><ele>279.0</ele><time>2026-04-11T09:21:59.43Z</time></trkpt><trkpt lat="46.3010443" lon="9.3876331"><ele>279.0</ele><time>2026-04-11T09:22:00.431Z</time></trkpt><trkpt lat="46.3011685" lon="9.3877105"><ele>279.0</ele><time>2026-04-11T09:22:01.431Z</time></trkpt><trkpt lat="46.3012904" lon="9.3877894"><ele>279.0</ele><time>2026-04-11T09:22:02.431Z</time></trkpt><trkpt lat="46.3014125" lon="9.3878683"><ele>278.75</ele><time>2026-04-11T09:22:03.43Z</time></trkpt><trkpt lat="46.3015337" lon="9.3879487"><ele>278.5</ele><time>2026-04-11T09:22:04.429Z</time></trkpt><trkpt lat="46.301658" lon="9.3880297"><ele>278.25</ele><time>2026-04-11T09:22:05.429Z</time></trkpt><trkpt lat="46.3017864" lon="9.388119"><ele>278.0</ele><time>2026-04-11T09:22:06.43Z</time></trkpt><trkpt lat="46.3019167" lon="9.3882077"><ele>279.0</ele><time>2026-04-11T09:22:07.43Z</time></trkpt><trkpt lat="46.3020489" lon="9.3882919"><ele>280.0</ele><time>2026-04-11T09:22:08.429Z</time></trkpt><trkpt lat="46.3021813" lon="9.3883764"><ele>281.0</ele><time>2026-04-11T09:22:09.429Z</time></trkpt><trkpt lat="46.3023138" lon="9.3884614"><ele>282.0</ele><time>2026-04-11T09:22:10.429Z</time></trkpt><trkpt lat="46.3024466" lon="9.3885469"><ele>282.5</ele><time>2026-04-11T09:22:11.429Z</time></trkpt><trkpt lat="46.3025796" lon="9.3886243"><ele>283.0</ele><time>2026-04-11T09:22:12.429Z</time></trkpt><trkpt lat="46.3027179" lon="9.3887003"><ele>283.5</ele><time>2026-04-11T09:22:13.429Z</time></trkpt><trkpt lat="46.302853" lon="9.3887774"><ele>284.0</ele><time>2026-04-11T09:22:14.43Z</time></trkpt><trkpt lat="46.3029854" lon="9.3888556"><ele>284.6666666666667</ele><time>2026-04-11T09:22:15.429Z</time></trkpt><trkpt lat="46.3031199" lon="9.3889461"><ele>285.3333333333333</ele><time>2026-04-11T09:22:16.429Z</time></trkpt><trkpt lat="46.3032673" lon="9.3890489"><ele>286.0</ele><time>2026-04-11T09:22:17.43Z</time></trkpt><trkpt lat="46.3034371" lon="9.3891588"><ele>286.0</ele><time>2026-04-11T09:22:18.429Z</time></trkpt><trkpt lat="46.3036307" lon="9.3892829"><ele>286.0</ele><time>2026-04-11T09:22:19.429Z</time></trkpt><trkpt lat="46.3038494" lon="9.3893884"><ele>286.0</ele><time>2026-04-11T09:22:20.429Z</time></trkpt><trkpt lat="46.3040774" lon="9.3894664"><ele>286.3333333333333</ele><time>2026-04-11T09:22:21.429Z</time></trkpt><trkpt lat="46.3042849" lon="9.3895271"><ele>286.6666666666667</ele><time>2026-04-11T09:22:22.429Z</time></trkpt><trkpt lat="46.3044784" lon="9.3896002"><ele>287.0</ele><time>2026-04-11T09:22:23.429Z</time></trkpt><trkpt lat="46.3046592" lon="9.3896827"><ele>288.6666666666667</ele><time>2026-04-11T09:22:24.43Z</time></trkpt><trkpt lat="46.3048368" lon="9.3897694"><ele>290.3333333333333</ele><time>2026-04-11T09:22:25.43Z</time></trkpt><trkpt lat="46.305011" lon="9.3898597"><ele>292.0</ele><time>2026-04-11T09:22:26.43Z</time></trkpt><trkpt lat="46.3051804" lon="9.3899545"><ele>292.0</ele><time>2026-04-11T09:22:27.429Z</time></trkpt><trkpt lat="46.3053422" lon="9.3900493"><ele>292.0</ele><time>2026-04-11T09:22:28.429Z</time></trkpt><trkpt lat="46.3055002" lon="9.3901531"><ele>292.0</ele><time>2026-04-11T09:22:29.43Z</time></trkpt><trkpt lat="46.3056632" lon="9.3902676"><ele>293.0</ele><time>2026-04-11T09:22:30.429Z</time></trkpt><trkpt lat="46.3058223" lon="9.3903891"><ele>294.0</ele><time>2026-04-11T09:22:31.429Z</time></trkpt><trkpt lat="46.3059763" lon="9.3905226"><ele>295.0</ele><time>2026-04-11T09:22:32.429Z</time></trkpt><trkpt lat="46.3061193" lon="9.390649"><ele>295.0</ele><time>2026-04-11T09:22:33.429Z</time></trkpt><trkpt lat="46.3062548" lon="9.3907695"><ele>295.0</ele><time>2026-04-11T09:22:34.429Z</time></trkpt><trkpt lat="46.306384" lon="9.3908946"><ele>295.0</ele><time>2026-04-11T09:22:35.429Z</time></trkpt><trkpt lat="46.3065181" lon="9.391023"><ele>294.66666666666663</ele><time>2026-04-11T09:22:36.429Z</time></trkpt><trkpt lat="46.3066538" lon="9.3911631"><ele>294.3333333333333</ele><time>2026-04-11T09:22:37.429Z</time></trkpt><trkpt lat="46.3067888" lon="9.3912899"><ele>294.0</ele><time>2026-04-11T09:22:38.43Z</time></trkpt><trkpt lat="46.3069214" lon="9.3914101"><ele>294.0</ele><time>2026-04-11T09:22:39.43Z</time></trkpt><trkpt lat="46.3070459" lon="9.3915302"><ele>294.0</ele><time>2026-04-11T09:22:40.429Z</time></trkpt><trkpt lat="46.3071689" lon="9.3916492"><ele>294.0</ele><time>2026-04-11T09:22:41.429Z</time></trkpt><trkpt lat="46.3072895" lon="9.3917654"><ele>294.0</ele><time>2026-04-11T09:22:42.429Z</time></trkpt><trkpt lat="46.3074099" lon="9.3918806"><ele>294.0</ele><time>2026-04-11T09:22:43.429Z</time></trkpt><trkpt lat="46.3075366" lon="9.3920059"><ele>294.0</ele><time>2026-04-11T09:22:44.43Z</time></trkpt><trkpt lat="46.30766" lon="9.3921281"><ele>294.0</ele><time>2026-04-11T09:22:45.429Z</time></trkpt><trkpt lat="46.3077847" lon="9.3922621"><ele>294.0</ele><time>2026-04-11T09:22:46.429Z</time></trkpt><trkpt lat="46.307905" lon="9.3924061"><ele>294.0</ele><time>2026-04-11T09:22:47.429Z</time></trkpt><trkpt lat="46.3080223" lon="9.3925757"><ele>294.0</ele><time>2026-04-11T09:22:48.43Z</time></trkpt><trkpt lat="46.3081219" lon="9.3927607"><ele>293.3333333333333</ele><time>2026-04-11T09:22:49.429Z</time></trkpt><trkpt lat="46.3082035" lon="9.3929616"><ele>292.66666666666663</ele><time>2026-04-11T09:22:50.429Z</time></trkpt><trkpt lat="46.3082772" lon="9.3931571"><ele>292.0</ele><time>2026-04-11T09:22:51.43Z</time></trkpt><trkpt lat="46.3083382" lon="9.3933469"><ele>292.0</ele><time>2026-04-11T09:22:52.429Z</time></trkpt><trkpt lat="46.3084054" lon="9.3935264"><ele>292.0</ele><time>2026-04-11T09:22:53.429Z</time></trkpt><trkpt lat="46.3084691" lon="9.3937005"><ele>292.0</ele><time>2026-04-11T09:22:54.429Z</time></trkpt><trkpt lat="46.3085337" lon="9.3938725"><ele>292.0</ele><time>2026-04-11T09:22:55.429Z</time></trkpt><trkpt lat="46.3085971" lon="9.394057"><ele>292.75</ele><time>2026-04-11T09:22:56.429Z</time></trkpt><trkpt lat="46.3086617" lon="9.3942449"><ele>293.5</ele><time>2026-04-11T09:22:57.429Z</time></trkpt><trkpt lat="46.3087249" lon="9.39443"><ele>294.25</ele><time>2026-04-11T09:22:58.43Z</time></trkpt><trkpt lat="46.3087893" lon="9.3946135"><ele>295.0</ele><time>2026-04-11T09:22:59.429Z</time></trkpt><trkpt lat="46.3088534" lon="9.3947942"><ele>294.0</ele><time>2026-04-11T09:23:00.429Z</time></trkpt><trkpt lat="46.308918" lon="9.3949719"><ele>293.0</ele><time>2026-04-11T09:23:01.429Z</time></trkpt><trkpt lat="46.3089833" lon="9.395137"><ele>292.0</ele><time>2026-04-11T09:23:02.429Z</time></trkpt><trkpt lat="46.3090615" lon="9.395284"><ele>291.0</ele><time>2026-04-11T09:23:03.43Z</time></trkpt><trkpt lat="46.3091415" lon="9.3954237"><ele>292.0</ele><time>2026-04-11T09:23:04.429Z</time></trkpt><trkpt lat="46.3092188" lon="9.3955473"><ele>293.0</ele><time>2026-04-11T09:23:05.43Z</time></trkpt><trkpt lat="46.3093029" lon="9.395655"><ele>294.0</ele><time>2026-04-11T09:23:06.429Z</time></trkpt><trkpt lat="46.3093886" lon="9.3957566"><ele>295.0</ele><time>2026-04-11T09:23:07.43Z</time></trkpt><trkpt lat="46.3094808" lon="9.3958501"><ele>295.0</ele><time>2026-04-11T09:23:08.429Z</time></trkpt><trkpt lat="46.3095766" lon="9.3959302"><ele>295.0</ele><time>2026-04-11T09:23:09.429Z</time></trkpt><trkpt lat="46.3096778" lon="9.3960019"><ele>295.0</ele><time>2026-04-11T09:23:10.429Z</time></trkpt><trkpt lat="46.3097786" lon="9.3960632"><ele>295.0</ele><time>2026-04-11T09:23:11.43Z</time></trkpt><trkpt lat="46.3098817" lon="9.3961134"><ele>295.0</ele><time>2026-04-11T09:23:12.43Z</time></trkpt><trkpt lat="46.3099813" lon="9.3961601"><ele>294.5</ele><time>2026-04-11T09:23:13.43Z</time></trkpt><trkpt lat="46.3100714" lon="9.3961991"><ele>294.0</ele><time>2026-04-11T09:23:14.43Z</time></trkpt><trkpt lat="46.3101566" lon="9.3962246"><ele>293.5</ele><time>2026-04-11T09:23:15.43Z</time></trkpt><trkpt lat="46.3102433" lon="9.3962439"><ele>293.0</ele><time>2026-04-11T09:23:16.43Z</time></trkpt><trkpt lat="46.3103298" lon="9.3962684"><ele>292.5</ele><time>2026-04-11T09:23:17.429Z</time></trkpt><trkpt lat="46.3104079" lon="9.3962938"><ele>292.0</ele><time>2026-04-11T09:23:18.429Z</time></trkpt><trkpt lat="46.3104788" lon="9.3963234"><ele>292.2</ele><time>2026-04-11T09:23:19.429Z</time></trkpt><trkpt lat="46.3105399" lon="9.3963493"><ele>292.4</ele><time>2026-04-11T09:23:20.429Z</time></trkpt><trkpt lat="46.3106239" lon="9.3964011"><ele>292.6</ele><time>2026-04-11T09:23:22.43Z</time></trkpt><trkpt lat="46.3107067" lon="9.3965147"><ele>292.8</ele><time>2026-04-11T09:23:24.429Z</time></trkpt><trkpt lat="46.3107927" lon="9.3966408"><ele>293.0</ele><time>2026-04-11T09:23:26.429Z</time></trkpt><trkpt lat="46.3108603" lon="9.3966645"><ele>293.0</ele><time>2026-04-11T09:23:27.429Z</time></trkpt><trkpt lat="46.3109315" lon="9.3966405"><ele>293.0</ele><time>2026-04-11T09:23:28.43Z</time></trkpt><trkpt lat="46.3110097" lon="9.3966008"><ele>293.0</ele><time>2026-04-11T09:23:29.43Z</time></trkpt><trkpt lat="46.3110872" lon="9.3965877"><ele>293.0</ele><time>2026-04-11T09:23:30.43Z</time></trkpt><trkpt lat="46.3111716" lon="9.3965856"><ele>293.0</ele><time>2026-04-11T09:23:31.429Z</time></trkpt><trkpt lat="46.3112549" lon="9.3966054"><ele>293.0</ele><time>2026-04-11T09:23:32.429Z</time></trkpt><trkpt lat="46.3113361" lon="9.3966397"><ele>293.33333333333337</ele><time>2026-04-11T09:23:33.429Z</time></trkpt><trkpt lat="46.3114132" lon="9.3966733"><ele>293.6666666666667</ele><time>2026-04-11T09:23:34.43Z</time></trkpt><trkpt lat="46.3115306" lon="9.3967231"><ele>294.0</ele><time>2026-04-11T09:23:36.43Z</time></trkpt><trkpt lat="46.3115966" lon="9.396748"><ele>294.3333333333333</ele><time>2026-04-11T09:23:37.429Z</time></trkpt><trkpt lat="46.3116589" lon="9.3967761"><ele>294.66666666666663</ele><time>2026-04-11T09:23:38.429Z</time></trkpt><trkpt lat="46.3117685" lon="9.3968063"><ele>295.0</ele><time>2026-04-11T09:23:40.429Z</time></trkpt><trkpt lat="46.3118503" lon="9.3968446"><ele>295.0</ele><time>2026-04-11T09:23:42.429Z</time></trkpt><trkpt lat="46.311933" lon="9.3968693"><ele>295.0</ele><time>2026-04-11T09:23:44.429Z</time></trkpt><trkpt lat="46.3120349" lon="9.3969095"><ele>295.0</ele><time>2026-04-11T09:23:46.43Z</time></trkpt><trkpt lat="46.31215" lon="9.3969488"><ele>295.0</ele><time>2026-04-11T09:23:48.43Z</time></trkpt><trkpt lat="46.3122587" lon="9.3969872"><ele>295.0</ele><time>2026-04-11T09:23:50.43Z</time></trkpt><trkpt lat="46.3123519" lon="9.3970216"><ele>294.8333333333333</ele><time>2026-04-11T09:23:52.429Z</time></trkpt><trkpt lat="46.3124482" lon="9.3970543"><ele>294.66666666666663</ele><time>2026-04-11T09:23:54.429Z</time></trkpt><trkpt lat="46.3125588" lon="9.3970891"><ele>294.5</ele><time>2026-04-11T09:23:56.429Z</time></trkpt><trkpt lat="46.3126505" lon="9.3971194"><ele>294.3333333333333</ele><time>2026-04-11T09:23:58.429Z</time></trkpt><trkpt lat="46.3127152" lon="9.3971385"><ele>294.1666666666667</ele><time>2026-04-11T09:24:02.429Z</time></trkpt><trkpt lat="46.3127852" lon="9.3971593"><ele>294.0</ele><time>2026-04-11T09:24:04.43Z</time></trkpt><trkpt lat="46.3128787" lon="9.3971973"><ele>294.6666666666667</ele><time>2026-04-11T09:24:06.43Z</time></trkpt><trkpt lat="46.3129941" lon="9.3972294"><ele>295.3333333333333</ele><time>2026-04-11T09:24:08.429Z</time></trkpt><trkpt lat="46.3130645" lon="9.3972606"><ele>296.0</ele><time>2026-04-11T09:24:09.429Z</time></trkpt><trkpt lat="46.3131418" lon="9.3972942"><ele>296.66666666666663</ele><time>2026-04-11T09:24:10.429Z</time></trkpt><trkpt lat="46.3132195" lon="9.397323"><ele>297.3333333333333</ele><time>2026-04-11T09:24:11.429Z</time></trkpt><trkpt lat="46.3133013" lon="9.3973499"><ele>298.0</ele><time>2026-04-11T09:24:12.43Z</time></trkpt><trkpt lat="46.3133922" lon="9.3973882"><ele>298.0</ele><time>2026-04-11T09:24:13.429Z</time></trkpt><trkpt lat="46.3134915" lon="9.3974276"><ele>298.0</ele><time>2026-04-11T09:24:14.429Z</time></trkpt><trkpt lat="46.3135949" lon="9.3974666"><ele>298.0</ele><time>2026-04-11T09:24:15.429Z</time></trkpt><trkpt lat="46.313705" lon="9.397508"><ele>298.0</ele><time>2026-04-11T09:24:16.429Z</time></trkpt><trkpt lat="46.3138248" lon="9.397552"><ele>298.0</ele><time>2026-04-11T09:24:17.429Z</time></trkpt><trkpt lat="46.3139505" lon="9.3975973"><ele>298.0</ele><time>2026-04-11T09:24:18.43Z</time></trkpt><trkpt lat="46.3140742" lon="9.3976362"><ele>298.0</ele><time>2026-04-11T09:24:19.429Z</time></trkpt><trkpt lat="46.314189" lon="9.3976792"><ele>298.0</ele><time>2026-04-11T09:24:20.429Z</time></trkpt><trkpt lat="46.314309" lon="9.3977247"><ele>298.0</ele><time>2026-04-11T09:24:21.429Z</time></trkpt><trkpt lat="46.3144271" lon="9.3977737"><ele>298.0</ele><time>2026-04-11T09:24:22.429Z</time></trkpt><trkpt lat="46.3145397" lon="9.3978164"><ele>298.0</ele><time>2026-04-11T09:24:23.429Z</time></trkpt><trkpt lat="46.314643" lon="9.3978619"><ele>298.0</ele><time>2026-04-11T09:24:24.43Z</time></trkpt><trkpt lat="46.3147473" lon="9.397899"><ele>298.0</ele><time>2026-04-11T09:24:25.43Z</time></trkpt><trkpt lat="46.3148493" lon="9.3979379"><ele>298.0</ele><time>2026-04-11T09:24:26.429Z</time></trkpt><trkpt lat="46.3149502" lon="9.3979663"><ele>298.0</ele><time>2026-04-11T09:24:27.429Z</time></trkpt><trkpt lat="46.3150448" lon="9.3980004"><ele>298.0</ele><time>2026-04-11T09:24:28.43Z</time></trkpt><trkpt lat="46.3151342" lon="9.3980304"><ele>298.0</ele><time>2026-04-11T09:24:29.43Z</time></trkpt><trkpt lat="46.3152182" lon="9.3980583"><ele>298.0</ele><time>2026-04-11T09:24:30.429Z</time></trkpt><trkpt lat="46.3152947" lon="9.3980878"><ele>298.0</ele><time>2026-04-11T09:24:31.43Z</time></trkpt><trkpt lat="46.3153569" lon="9.3981079"><ele>298.0</ele><time>2026-04-11T09:24:32.429Z</time></trkpt><trkpt lat="46.3154541" lon="9.3981563"><ele>298.2</ele><time>2026-04-11T09:24:34.429Z</time></trkpt><trkpt lat="46.3155243" lon="9.3981985"><ele>298.4</ele><time>2026-04-11T09:24:36.429Z</time></trkpt><trkpt lat="46.3156158" lon="9.3982538"><ele>298.59999999999997</ele><time>2026-04-11T09:24:38.429Z</time></trkpt><trkpt lat="46.3156765" lon="9.3982855"><ele>298.8</ele><time>2026-04-11T09:24:39.429Z</time></trkpt><trkpt lat="46.3157809" lon="9.3983398"><ele>299.0</ele><time>2026-04-11T09:24:41.429Z</time></trkpt><trkpt lat="46.3158985" lon="9.3984188"><ele>299.6666666666667</ele><time>2026-04-11T09:24:43.43Z</time></trkpt><trkpt lat="46.3159678" lon="9.3984639"><ele>300.33333333333337</ele><time>2026-04-11T09:24:44.43Z</time></trkpt><trkpt lat="46.3160408" lon="9.3985157"><ele>301.0</ele><time>2026-04-11T09:24:45.43Z</time></trkpt><trkpt lat="46.3161129" lon="9.3985669"><ele>301.6666666666667</ele><time>2026-04-11T09:24:46.43Z</time></trkpt><trkpt lat="46.3161829" lon="9.3986194"><ele>302.3333333333333</ele><time>2026-04-11T09:24:47.429Z</time></trkpt><trkpt lat="46.3162493" lon="9.3986714"><ele>303.0</ele><time>2026-04-11T09:24:48.429Z</time></trkpt><trkpt lat="46.3163153" lon="9.3987242"><ele>303.0</ele><time>2026-04-11T09:24:49.429Z</time></trkpt><trkpt lat="46.3163798" lon="9.3987833"><ele>303.0</ele><time>2026-04-11T09:24:50.429Z</time></trkpt><trkpt lat="46.3164597" lon="9.3988456"><ele>303.0</ele><time>2026-04-11T09:24:51.429Z</time></trkpt><trkpt lat="46.3165539" lon="9.3989322"><ele>303.0</ele><time>2026-04-11T09:24:52.429Z</time></trkpt><trkpt lat="46.3166459" lon="9.3990203"><ele>303.0</ele><time>2026-04-11T09:24:53.43Z</time></trkpt><trkpt lat="46.3167219" lon="9.3991025"><ele>305.4</ele><time>2026-04-11T09:24:54.429Z</time></trkpt><trkpt lat="46.3168041" lon="9.399177"><ele>307.8</ele><time>2026-04-11T09:24:55.429Z</time></trkpt><trkpt lat="46.3168824" lon="9.3992455"><ele>310.2</ele><time>2026-04-11T09:24:56.429Z</time></trkpt><trkpt lat="46.3169585" lon="9.399313"><ele>312.6</ele><time>2026-04-11T09:24:57.429Z</time></trkpt><trkpt lat="46.3170332" lon="9.399378"><ele>315.0</ele><time>2026-04-11T09:24:58.429Z</time></trkpt><trkpt lat="46.3171067" lon="9.3994462"><ele>315.0</ele><time>2026-04-11T09:24:59.429Z</time></trkpt><trkpt lat="46.3171778" lon="9.3995144"><ele>315.0</ele><time>2026-04-11T09:25:00.429Z</time></trkpt><trkpt lat="46.3172486" lon="9.3995663"><ele>315.0</ele><time>2026-04-11T09:25:01.43Z</time></trkpt><trkpt lat="46.3173216" lon="9.3996133"><ele>315.0</ele><time>2026-04-11T09:25:02.429Z</time></trkpt><trkpt lat="46.3173884" lon="9.3996567"><ele>315.0</ele><time>2026-04-11T09:25:03.429Z</time></trkpt><trkpt lat="46.3174515" lon="9.399694"><ele>315.0</ele><time>2026-04-11T09:25:04.43Z</time></trkpt><trkpt lat="46.3175164" lon="9.3997245"><ele>316.1666666666667</ele><time>2026-04-11T09:25:05.429Z</time></trkpt><trkpt lat="46.317585" lon="9.3997541"><ele>317.3333333333333</ele><time>2026-04-11T09:25:06.43Z</time></trkpt><trkpt lat="46.3176537" lon="9.3997738"><ele>318.5</ele><time>2026-04-11T09:25:07.429Z</time></trkpt><trkpt lat="46.3177151" lon="9.3997946"><ele>319.66666666666663</ele><time>2026-04-11T09:25:08.429Z</time></trkpt><trkpt lat="46.3178231" lon="9.3998214"><ele>320.8333333333333</ele><time>2026-04-11T09:25:10.43Z</time></trkpt><trkpt lat="46.3178935" lon="9.3998207"><ele>322.0</ele><time>2026-04-11T09:25:11.429Z</time></trkpt><trkpt lat="46.3180063" lon="9.3998167"><ele>322.3333333333333</ele><time>2026-04-11T09:25:13.429Z</time></trkpt><trkpt lat="46.3180875" lon="9.3998048"><ele>322.66666666666663</ele><time>2026-04-11T09:25:15.429Z</time></trkpt><trkpt lat="46.3181571" lon="9.399795"><ele>323.0</ele><time>2026-04-11T09:25:17.429Z</time></trkpt><trkpt lat="46.3182368" lon="9.3997848"><ele>323.3333333333333</ele><time>2026-04-11T09:25:20.429Z</time></trkpt><trkpt lat="46.3183066" lon="9.3998017"><ele>323.6666666666667</ele><time>2026-04-11T09:25:24.429Z</time></trkpt><trkpt lat="46.3183805" lon="9.3998494"><ele>324.0</ele><time>2026-04-11T09:25:29.429Z</time></trkpt><trkpt lat="46.3184467" lon="9.3998904"><ele>324.0</ele><time>2026-04-11T09:25:32.43Z</time></trkpt><trkpt lat="46.3185234" lon="9.3999297"><ele>324.0</ele><time>2026-04-11T09:25:35.429Z</time></trkpt><trkpt lat="46.3185932" lon="9.399884"><ele>324.0</ele><time>2026-04-11T09:25:39.43Z</time></trkpt><trkpt lat="46.3186397" lon="9.3997858"><ele>324.0</ele><time>2026-04-11T09:25:42.429Z</time></trkpt><trkpt lat="46.3186813" lon="9.3996795"><ele>324.0</ele><time>2026-04-11T09:25:45.429Z</time></trkpt><trkpt lat="46.3187498" lon="9.3995945"><ele>324.0</ele><time>2026-04-11T09:25:48.43Z</time></trkpt><trkpt lat="46.3188275" lon="9.3994995"><ele>323.1666666666667</ele><time>2026-04-11T09:25:50.429Z</time></trkpt><trkpt lat="46.3189141" lon="9.3994386"><ele>322.3333333333333</ele><time>2026-04-11T09:25:52.429Z</time></trkpt><trkpt lat="46.3189871" lon="9.3993739"><ele>321.5</ele><time>2026-04-11T09:25:54.429Z</time></trkpt><trkpt lat="46.3190601" lon="9.3993181"><ele>320.66666666666663</ele><time>2026-04-11T09:25:56.43Z</time></trkpt><trkpt lat="46.3191307" lon="9.3992513"><ele>319.8333333333333</ele><time>2026-04-11T09:25:58.429Z</time></trkpt><trkpt lat="46.319206" lon="9.3991817"><ele>319.0</ele><time>2026-04-11T09:26:00.429Z</time></trkpt><trkpt lat="46.319266" lon="9.3991"><ele>319.0</ele><time>2026-04-11T09:26:02.429Z</time></trkpt><trkpt lat="46.3193268" lon="9.3990251"><ele>319.0</ele><time>2026-04-11T09:26:04.429Z</time></trkpt><trkpt lat="46.3194026" lon="9.3989765"><ele>319.0</ele><time>2026-04-11T09:26:06.429Z</time></trkpt><trkpt lat="46.3194732" lon="9.3989007"><ele>319.0</ele><time>2026-04-11T09:26:08.429Z</time></trkpt><trkpt lat="46.3195448" lon="9.3988438"><ele>319.0</ele><time>2026-04-11T09:26:10.429Z</time></trkpt><trkpt lat="46.3196316" lon="9.3987667"><ele>319.0</ele><time>2026-04-11T09:26:12.43Z</time></trkpt><trkpt lat="46.319723" lon="9.3986817"><ele>320.2</ele><time>2026-04-11T09:26:14.429Z</time></trkpt><trkpt lat="46.3198301" lon="9.3986078"><ele>321.4</ele><time>2026-04-11T09:26:16.429Z</time></trkpt><trkpt lat="46.3199299" lon="9.3985292"><ele>322.6</ele><time>2026-04-11T09:26:18.429Z</time></trkpt><trkpt lat="46.3200027" lon="9.3984786"><ele>323.8</ele><time>2026-04-11T09:26:21.429Z</time></trkpt><trkpt lat="46.3200684" lon="9.3984217"><ele>325.0</ele><time>2026-04-11T09:26:26.429Z</time></trkpt><trkpt lat="46.3201398" lon="9.3983647"><ele>325.0</ele><time>2026-04-11T09:26:34.429Z</time></trkpt><trkpt lat="46.3202032" lon="9.3983026"><ele>325.0</ele><time>2026-04-11T09:26:36.429Z</time></trkpt><trkpt lat="46.3202642" lon="9.3982409"><ele>325.0</ele><time>2026-04-11T09:26:39.429Z</time></trkpt><trkpt lat="46.3203289" lon="9.3981754"><ele>325.0</ele><time>2026-04-11T09:26:43.429Z</time></trkpt><trkpt lat="46.320397" lon="9.3981294"><ele>325.0</ele><time>2026-04-11T09:26:47.429Z</time></trkpt><trkpt lat="46.3204729" lon="9.3980826"><ele>325.0</ele><time>2026-04-11T09:26:53.429Z</time></trkpt><trkpt lat="46.3205344" lon="9.3980282"><ele>325.16666666666663</ele><time>2026-04-11T09:26:55.429Z</time></trkpt><trkpt lat="46.3205894" lon="9.3979773"><ele>325.3333333333333</ele><time>2026-04-11T09:26:57.429Z</time></trkpt><trkpt lat="46.3206454" lon="9.3979165"><ele>325.5</ele><time>2026-04-11T09:26:59.43Z</time></trkpt><trkpt lat="46.3207297" lon="9.3978339"><ele>325.6666666666667</ele><time>2026-04-11T09:27:02.43Z</time></trkpt><trkpt lat="46.32081" lon="9.3977999"><ele>325.83333333333337</ele><time>2026-04-11T09:27:04.429Z</time></trkpt><trkpt lat="46.3208786" lon="9.3977761"><ele>326.0</ele><time>2026-04-11T09:27:06.428Z</time></trkpt><trkpt lat="46.3209516" lon="9.3977527"><ele>326.0</ele><time>2026-04-11T09:27:17.428Z</time></trkpt><trkpt lat="46.3210432" lon="9.3977361"><ele>326.0</ele><time>2026-04-11T09:27:20.429Z</time></trkpt><trkpt lat="46.3211367" lon="9.3977544"><ele>326.0</ele><time>2026-04-11T09:27:22.428Z</time></trkpt><trkpt lat="46.3212407" lon="9.3978007"><ele>326.0</ele><time>2026-04-11T09:27:24.428Z</time></trkpt><trkpt lat="46.321322" lon="9.3978344"><ele>326.0</ele><time>2026-04-11T09:27:26.428Z</time></trkpt><trkpt lat="46.3213902" lon="9.3978528"><ele>326.0</ele><time>2026-04-11T09:27:29.428Z</time></trkpt><trkpt lat="46.3214513" lon="9.3977808"><ele>326.0</ele><time>2026-04-11T09:27:32.428Z</time></trkpt><trkpt lat="46.3214952" lon="9.3976535"><ele>326.0</ele><time>2026-04-11T09:27:34.428Z</time></trkpt><trkpt lat="46.3215268" lon="9.3975204"><ele>326.0</ele><time>2026-04-11T09:27:36.429Z</time></trkpt><trkpt lat="46.3215048" lon="9.3974208"><ele>326.0</ele><time>2026-04-11T09:27:38.428Z</time></trkpt><trkpt lat="46.3214351" lon="9.3974015"><ele>326.0</ele><time>2026-04-11T09:27:40.428Z</time></trkpt><trkpt lat="46.3213846" lon="9.3974612"><ele>326.0</ele><time>2026-04-11T09:27:42.428Z</time></trkpt><trkpt lat="46.3213657" lon="9.3975641"><ele>326.0</ele><time>2026-04-11T09:27:44.428Z</time></trkpt><trkpt lat="46.321367" lon="9.3976746"><ele>326.0</ele><time>2026-04-11T09:27:47.428Z</time></trkpt></trkseg><trkseg><trkpt lat="46.3217769" lon="9.398027"><ele>327.0</ele><time>2026-04-11T11:06:12.491Z</time></trkpt><trkpt lat="46.3218365" lon="9.3980687"><ele>327.0</ele><time>2026-04-11T11:07:18.491Z</time></trkpt><trkpt lat="46.3218413" lon="9.3981661"><ele>327.0</ele><time>2026-04-11T11:07:49.491Z</time></trkpt><trkpt lat="46.3218721" lon="9.3982477"><ele>327.0</ele><time>2026-04-11T11:07:50.492Z</time></trkpt><trkpt lat="46.3219232" lon="9.3983268"><ele>327.0</ele><time>2026-04-11T11:07:51.491Z</time></trkpt><trkpt lat="46.3219811" lon="9.3983949"><ele>327.0</ele><time>2026-04-11T11:07:52.491Z</time></trkpt><trkpt lat="46.3220436" lon="9.3984668"><ele>327.0</ele><time>2026-04-11T11:07:53.491Z</time></trkpt><trkpt lat="46.3221062" lon="9.3985587"><ele>327.0</ele><time>2026-04-11T11:07:54.491Z</time></trkpt><trkpt lat="46.3221677" lon="9.3986621"><ele>327.0</ele><time>2026-04-11T11:07:55.491Z</time></trkpt><trkpt lat="46.3222306" lon="9.3987753"><ele>327.0</ele><time>2026-04-11T11:07:56.491Z</time></trkpt><trkpt lat="46.3222864" lon="9.3988947"><ele>327.0</ele><time>2026-04-11T11:07:57.491Z</time></trkpt><trkpt lat="46.3223439" lon="9.3990273"><ele>327.0</ele><time>2026-04-11T11:07:58.491Z</time></trkpt><trkpt lat="46.3223906" lon="9.3991624"><ele>327.8</ele><time>2026-04-11T11:07:59.492Z</time></trkpt><trkpt lat="46.3224393" lon="9.399295"><ele>328.6</ele><time>2026-04-11T11:08:00.491Z</time></trkpt><trkpt lat="46.3224887" lon="9.3994262"><ele>329.40000000000003</ele><time>2026-04-11T11:08:01.491Z</time></trkpt><trkpt lat="46.322542" lon="9.3995557"><ele>330.20000000000005</ele><time>2026-04-11T11:08:02.491Z</time></trkpt><trkpt lat="46.322597" lon="9.3996915"><ele>331.0</ele><time>2026-04-11T11:08:03.491Z</time></trkpt><trkpt lat="46.3226552" lon="9.3998298"><ele>331.0</ele><time>2026-04-11T11:08:04.492Z</time></trkpt><trkpt lat="46.3227193" lon="9.399991"><ele>331.0</ele><time>2026-04-11T11:08:05.491Z</time></trkpt><trkpt lat="46.3227812" lon="9.4001475"><ele>331.0</ele><time>2026-04-11T11:08:06.491Z</time></trkpt><trkpt lat="46.3228409" lon="9.4002887"><ele>331.0</ele><time>2026-04-11T11:08:07.491Z</time></trkpt><trkpt lat="46.3228918" lon="9.4004254"><ele>329.8</ele><time>2026-04-11T11:08:08.492Z</time></trkpt><trkpt lat="46.3229438" lon="9.4005571"><ele>328.6</ele><time>2026-04-11T11:08:09.491Z</time></trkpt><trkpt lat="46.3229929" lon="9.4006838"><ele>327.4</ele><time>2026-04-11T11:08:10.491Z</time></trkpt><trkpt lat="46.3230441" lon="9.4008136"><ele>326.2</ele><time>2026-04-11T11:08:11.492Z</time></trkpt><trkpt lat="46.3230975" lon="9.4009441"><ele>325.0</ele><time>2026-04-11T11:08:12.491Z</time></trkpt><trkpt lat="46.3231521" lon="9.4010856"><ele>325.75</ele><time>2026-04-11T11:08:13.491Z</time></trkpt><trkpt lat="46.3232086" lon="9.4012238"><ele>326.5</ele><time>2026-04-11T11:08:14.491Z</time></trkpt><trkpt lat="46.3232674" lon="9.401361"><ele>327.25</ele><time>2026-04-11T11:08:15.491Z</time></trkpt><trkpt lat="46.323322" lon="9.4015083"><ele>328.0</ele><time>2026-04-11T11:08:16.491Z</time></trkpt><trkpt lat="46.3233784" lon="9.4016561"><ele>328.0</ele><time>2026-04-11T11:08:17.491Z</time></trkpt><trkpt lat="46.3234433" lon="9.4018123"><ele>328.0</ele><time>2026-04-11T11:08:18.492Z</time></trkpt><trkpt lat="46.3235085" lon="9.4019603"><ele>328.0</ele><time>2026-04-11T11:08:19.492Z</time></trkpt><trkpt lat="46.32357" lon="9.402114"><ele>328.0</ele><time>2026-04-11T11:08:20.491Z</time></trkpt><trkpt lat="46.323629" lon="9.4022587"><ele>327.59999999999997</ele><time>2026-04-11T11:08:21.491Z</time></trkpt><trkpt lat="46.3236863" lon="9.4023985"><ele>327.2</ele><time>2026-04-11T11:08:22.491Z</time></trkpt><trkpt lat="46.3237416" lon="9.4025176"><ele>326.8</ele><time>2026-04-11T11:08:23.491Z</time></trkpt><trkpt lat="46.323782" lon="9.4026344"><ele>326.4</ele><time>2026-04-11T11:08:24.491Z</time></trkpt><trkpt lat="46.3238229" lon="9.4027439"><ele>326.0</ele><time>2026-04-11T11:08:25.491Z</time></trkpt><trkpt lat="46.3238658" lon="9.4028554"><ele>327.0</ele><time>2026-04-11T11:08:26.491Z</time></trkpt><trkpt lat="46.3239166" lon="9.4029708"><ele>328.0</ele><time>2026-04-11T11:08:27.491Z</time></trkpt><trkpt lat="46.3239682" lon="9.4030949"><ele>329.0</ele><time>2026-04-11T11:08:28.49Z</time></trkpt><trkpt lat="46.3240166" lon="9.4032091"><ele>330.0</ele><time>2026-04-11T11:08:29.49Z</time></trkpt><trkpt lat="46.3240719" lon="9.4033827"><ele>331.0</ele><time>2026-04-11T11:08:31.49Z</time></trkpt><trkpt lat="46.3241127" lon="9.4034845"><ele>331.0</ele><time>2026-04-11T11:08:32.49Z</time></trkpt><trkpt lat="46.3241801" lon="9.4036202"><ele>331.0</ele><time>2026-04-11T11:08:33.49Z</time></trkpt><trkpt lat="46.3242416" lon="9.4037668"><ele>331.0</ele><time>2026-04-11T11:08:34.49Z</time></trkpt><trkpt lat="46.3242952" lon="9.403892"><ele>331.0</ele><time>2026-04-11T11:08:35.491Z</time></trkpt><trkpt lat="46.3243454" lon="9.4040118"><ele>331.0</ele><time>2026-04-11T11:08:36.49Z</time></trkpt><trkpt lat="46.3243933" lon="9.4041321"><ele>331.0</ele><time>2026-04-11T11:08:37.491Z</time></trkpt><trkpt lat="46.3244453" lon="9.4042601"><ele>331.0</ele><time>2026-04-11T11:08:38.49Z</time></trkpt><trkpt lat="46.3244991" lon="9.4043726"><ele>331.0</ele><time>2026-04-11T11:08:39.49Z</time></trkpt><trkpt lat="46.3245418" lon="9.4044899"><ele>331.0</ele><time>2026-04-11T11:08:40.49Z</time></trkpt><trkpt lat="46.3245813" lon="9.4046042"><ele>331.0</ele><time>2026-04-11T11:08:41.49Z</time></trkpt><trkpt lat="46.3246173" lon="9.4047156"><ele>331.20000000000005</ele><time>2026-04-11T11:08:42.49Z</time></trkpt><trkpt lat="46.3246621" lon="9.4048257"><ele>331.40000000000003</ele><time>2026-04-11T11:08:43.491Z</time></trkpt><trkpt lat="46.3247126" lon="9.4049423"><ele>331.6</ele><time>2026-04-11T11:08:44.49Z</time></trkpt><trkpt lat="46.3247603" lon="9.4050585"><ele>331.8</ele><time>2026-04-11T11:08:45.49Z</time></trkpt><trkpt lat="46.3248079" lon="9.4051833"><ele>332.0</ele><time>2026-04-11T11:08:46.49Z</time></trkpt><trkpt lat="46.3248592" lon="9.4053125"><ele>333.40000000000003</ele><time>2026-04-11T11:08:47.49Z</time></trkpt><trkpt lat="46.3249126" lon="9.4054456"><ele>334.8</ele><time>2026-04-11T11:08:48.491Z</time></trkpt><trkpt lat="46.3249681" lon="9.4055851"><ele>336.2</ele><time>2026-04-11T11:08:49.49Z</time></trkpt><trkpt lat="46.3250194" lon="9.4057246"><ele>337.6</ele><time>2026-04-11T11:08:50.49Z</time></trkpt><trkpt lat="46.3250759" lon="9.4058588"><ele>339.0</ele><time>2026-04-11T11:08:51.491Z</time></trkpt><trkpt lat="46.325125" lon="9.4060327"><ele>339.0</ele><time>2026-04-11T11:08:52.49Z</time></trkpt><trkpt lat="46.3251666" lon="9.4061879"><ele>339.0</ele><time>2026-04-11T11:08:53.491Z</time></trkpt><trkpt lat="46.3252049" lon="9.4063462"><ele>339.0</ele><time>2026-04-11T11:08:54.491Z</time></trkpt><trkpt lat="46.3252428" lon="9.4065053"><ele>339.0</ele><time>2026-04-11T11:08:55.491Z</time></trkpt><trkpt lat="46.3252807" lon="9.4066634"><ele>339.2</ele><time>2026-04-11T11:08:56.49Z</time></trkpt><trkpt lat="46.3253188" lon="9.4068196"><ele>339.4</ele><time>2026-04-11T11:08:57.49Z</time></trkpt><trkpt lat="46.3253575" lon="9.4069735"><ele>339.6</ele><time>2026-04-11T11:08:58.49Z</time></trkpt><trkpt lat="46.3253963" lon="9.4071243"><ele>339.8</ele><time>2026-04-11T11:08:59.49Z</time></trkpt><trkpt lat="46.3254351" lon="9.407274"><ele>340.0</ele><time>2026-04-11T11:09:00.49Z</time></trkpt><trkpt lat="46.325475" lon="9.4074201"><ele>340.0</ele><time>2026-04-11T11:09:01.49Z</time></trkpt><trkpt lat="46.3255262" lon="9.4075609"><ele>340.0</ele><time>2026-04-11T11:09:02.491Z</time></trkpt><trkpt lat="46.3255858" lon="9.4076932"><ele>340.0</ele><time>2026-04-11T11:09:03.491Z</time></trkpt><trkpt lat="46.3256528" lon="9.4078166"><ele>340.0</ele><time>2026-04-11T11:09:04.49Z</time></trkpt><trkpt lat="46.325724" lon="9.407936"><ele>340.0</ele><time>2026-04-11T11:09:05.49Z</time></trkpt><trkpt lat="46.3258031" lon="9.4080549"><ele>341.5</ele><time>2026-04-11T11:09:06.49Z</time></trkpt><trkpt lat="46.3258901" lon="9.4081682"><ele>343.0</ele><time>2026-04-11T11:09:07.491Z</time></trkpt><trkpt lat="46.3259803" lon="9.408269"><ele>344.5</ele><time>2026-04-11T11:09:08.49Z</time></trkpt><trkpt lat="46.3260745" lon="9.4083621"><ele>346.0</ele><time>2026-04-11T11:09:09.49Z</time></trkpt><trkpt lat="46.3261708" lon="9.4084336"><ele>346.0</ele><time>2026-04-11T11:09:10.49Z</time></trkpt><trkpt lat="46.3262834" lon="9.4085086"><ele>346.0</ele><time>2026-04-11T11:09:11.49Z</time></trkpt><trkpt lat="46.3263939" lon="9.4085525"><ele>346.0</ele><time>2026-04-11T11:09:12.49Z</time></trkpt><trkpt lat="46.326501" lon="9.4085833"><ele>346.0</ele><time>2026-04-11T11:09:13.491Z</time></trkpt><trkpt lat="46.3266062" lon="9.4086296"><ele>347.0</ele><time>2026-04-11T11:09:14.49Z</time></trkpt><trkpt lat="46.3267059" lon="9.4086804"><ele>348.0</ele><time>2026-04-11T11:09:15.49Z</time></trkpt><trkpt lat="46.3268038" lon="9.4087441"><ele>349.0</ele><time>2026-04-11T11:09:16.49Z</time></trkpt><trkpt lat="46.3269098" lon="9.408827"><ele>350.0</ele><time>2026-04-11T11:09:17.49Z</time></trkpt><trkpt lat="46.3269966" lon="9.4089623"><ele>350.0</ele><time>2026-04-11T11:09:18.49Z</time></trkpt><trkpt lat="46.3270601" lon="9.4091264"><ele>350.0</ele><time>2026-04-11T11:09:19.49Z</time></trkpt><trkpt lat="46.327104" lon="9.4092959"><ele>350.0</ele><time>2026-04-11T11:09:20.491Z</time></trkpt><trkpt lat="46.3271584" lon="9.4094723"><ele>350.0</ele><time>2026-04-11T11:09:21.49Z</time></trkpt><trkpt lat="46.3272076" lon="9.409628"><ele>353.0</ele><time>2026-04-11T11:09:22.49Z</time></trkpt><trkpt lat="46.3272649" lon="9.4097587"><ele>356.0</ele><time>2026-04-11T11:09:23.49Z</time></trkpt><trkpt lat="46.3272923" lon="9.4099016"><ele>359.0</ele><time>2026-04-11T11:09:24.49Z</time></trkpt><trkpt lat="46.3273096" lon="9.4100361"><ele>362.0</ele><time>2026-04-11T11:09:25.49Z</time></trkpt><trkpt lat="46.327322" lon="9.4101588"><ele>365.0</ele><time>2026-04-11T11:09:26.49Z</time></trkpt><trkpt lat="46.3273336" lon="9.41027"><ele>365.0</ele><time>2026-04-11T11:09:27.491Z</time></trkpt><trkpt lat="46.3273435" lon="9.410375"><ele>365.0</ele><time>2026-04-11T11:09:28.491Z</time></trkpt><trkpt lat="46.3273453" lon="9.4104962"><ele>365.0</ele><time>2026-04-11T11:09:29.49Z</time></trkpt><trkpt lat="46.3273375" lon="9.4106329"><ele>365.0</ele><time>2026-04-11T11:09:30.49Z</time></trkpt><trkpt lat="46.3273303" lon="9.4107878"><ele>365.0</ele><time>2026-04-11T11:09:31.491Z</time></trkpt><trkpt lat="46.32733" lon="9.4109509"><ele>365.25</ele><time>2026-04-11T11:09:32.49Z</time></trkpt><trkpt lat="46.3273331" lon="9.4111218"><ele>365.5</ele><time>2026-04-11T11:09:33.49Z</time></trkpt><trkpt lat="46.3273341" lon="9.4112977"><ele>365.75</ele><time>2026-04-11T11:09:34.491Z</time></trkpt><trkpt lat="46.3273363" lon="9.4114776"><ele>366.0</ele><time>2026-04-11T11:09:35.49Z</time></trkpt><trkpt lat="46.3273311" lon="9.4116582"><ele>366.5</ele><time>2026-04-11T11:09:36.49Z</time></trkpt><trkpt lat="46.3273169" lon="9.4118466"><ele>367.0</ele><time>2026-04-11T11:09:37.491Z</time></trkpt><trkpt lat="46.3272916" lon="9.412034"><ele>367.5</ele><time>2026-04-11T11:09:38.49Z</time></trkpt><trkpt lat="46.3272549" lon="9.412218"><ele>368.0</ele><time>2026-04-11T11:09:39.49Z</time></trkpt><trkpt lat="46.3272244" lon="9.412413"><ele>366.5</ele><time>2026-04-11T11:09:40.49Z</time></trkpt><trkpt lat="46.3271929" lon="9.4125907"><ele>365.0</ele><time>2026-04-11T11:09:41.491Z</time></trkpt><trkpt lat="46.3271763" lon="9.4127828"><ele>363.5</ele><time>2026-04-11T11:09:42.491Z</time></trkpt><trkpt lat="46.3271755" lon="9.4129659"><ele>362.0</ele><time>2026-04-11T11:09:43.49Z</time></trkpt><trkpt lat="46.3271962" lon="9.4131414"><ele>362.0</ele><time>2026-04-11T11:09:44.49Z</time></trkpt><trkpt lat="46.3272255" lon="9.4133116"><ele>362.0</ele><time>2026-04-11T11:09:45.49Z</time></trkpt><trkpt lat="46.3272527" lon="9.4134827"><ele>362.0</ele><time>2026-04-11T11:09:46.49Z</time></trkpt><trkpt lat="46.3272756" lon="9.4136585"><ele>362.0</ele><time>2026-04-11T11:09:47.49Z</time></trkpt><trkpt lat="46.3272919" lon="9.4138346"><ele>364.0</ele><time>2026-04-11T11:09:48.49Z</time></trkpt><trkpt lat="46.3272949" lon="9.4140132"><ele>366.0</ele><time>2026-04-11T11:09:49.491Z</time></trkpt><trkpt lat="46.3272872" lon="9.4141993"><ele>368.0</ele><time>2026-04-11T11:09:50.49Z</time></trkpt><trkpt lat="46.3272701" lon="9.4143942"><ele>370.0</ele><time>2026-04-11T11:09:51.491Z</time></trkpt><trkpt lat="46.3272505" lon="9.4146118"><ele>370.3333333333333</ele><time>2026-04-11T11:09:52.491Z</time></trkpt><trkpt lat="46.3272306" lon="9.4148351"><ele>370.6666666666667</ele><time>2026-04-11T11:09:53.49Z</time></trkpt><trkpt lat="46.3272098" lon="9.4150483"><ele>371.0</ele><time>2026-04-11T11:09:54.491Z</time></trkpt><trkpt lat="46.3271913" lon="9.4152681"><ele>370.0</ele><time>2026-04-11T11:09:55.49Z</time></trkpt><trkpt lat="46.3271742" lon="9.4154809"><ele>369.0</ele><time>2026-04-11T11:09:56.49Z</time></trkpt><trkpt lat="46.3271591" lon="9.4156933"><ele>368.0</ele><time>2026-04-11T11:09:57.491Z</time></trkpt><trkpt lat="46.3271445" lon="9.4159045"><ele>367.0</ele><time>2026-04-11T11:09:58.49Z</time></trkpt><trkpt lat="46.3271298" lon="9.4161136"><ele>367.0</ele><time>2026-04-11T11:09:59.491Z</time></trkpt><trkpt lat="46.3271195" lon="9.4163189"><ele>367.0</ele><time>2026-04-11T11:10:00.49Z</time></trkpt><trkpt lat="46.3271148" lon="9.4165209"><ele>367.0</ele><time>2026-04-11T11:10:01.49Z</time></trkpt><trkpt lat="46.3271165" lon="9.4167217"><ele>367.0</ele><time>2026-04-11T11:10:02.49Z</time></trkpt><trkpt lat="46.3271242" lon="9.4169095"><ele>367.0</ele><time>2026-04-11T11:10:03.49Z</time></trkpt><trkpt lat="46.327134" lon="9.4170862"><ele>367.0</ele><time>2026-04-11T11:10:04.49Z</time></trkpt><trkpt lat="46.3271435" lon="9.4172514"><ele>367.0</ele><time>2026-04-11T11:10:05.49Z</time></trkpt><trkpt lat="46.3271546" lon="9.4174202"><ele>367.0</ele><time>2026-04-11T11:10:06.49Z</time></trkpt><trkpt lat="46.3271662" lon="9.4175891"><ele>367.0</ele><time>2026-04-11T11:10:07.491Z</time></trkpt><trkpt lat="46.3271795" lon="9.4177603"><ele>367.0</ele><time>2026-04-11T11:10:08.49Z</time></trkpt><trkpt lat="46.3271919" lon="9.4179257"><ele>367.0</ele><time>2026-04-11T11:10:09.49Z</time></trkpt><trkpt lat="46.3272026" lon="9.4180901"><ele>367.0</ele><time>2026-04-11T11:10:10.49Z</time></trkpt><trkpt lat="46.327214" lon="9.4182548"><ele>367.20000000000005</ele><time>2026-04-11T11:10:11.491Z</time></trkpt><trkpt lat="46.3272266" lon="9.4184126"><ele>367.4</ele><time>2026-04-11T11:10:12.491Z</time></trkpt><trkpt lat="46.3272382" lon="9.418562"><ele>367.6</ele><time>2026-04-11T11:10:13.49Z</time></trkpt><trkpt lat="46.3272486" lon="9.4187117"><ele>367.79999999999995</ele><time>2026-04-11T11:10:14.49Z</time></trkpt><trkpt lat="46.3272586" lon="9.4188685"><ele>368.0</ele><time>2026-04-11T11:10:15.49Z</time></trkpt><trkpt lat="46.3272703" lon="9.4190384"><ele>369.79999999999995</ele><time>2026-04-11T11:10:16.49Z</time></trkpt><trkpt lat="46.3272844" lon="9.4191967"><ele>371.6</ele><time>2026-04-11T11:10:17.49Z</time></trkpt><trkpt lat="46.3272955" lon="9.4193455"><ele>373.4</ele><time>2026-04-11T11:10:18.49Z</time></trkpt><trkpt lat="46.3273056" lon="9.4194817"><ele>375.20000000000005</ele><time>2026-04-11T11:10:19.49Z</time></trkpt><trkpt lat="46.3273168" lon="9.4196146"><ele>377.0</ele><time>2026-04-11T11:10:20.491Z</time></trkpt><trkpt lat="46.3273232" lon="9.4197536"><ele>377.20000000000005</ele><time>2026-04-11T11:10:21.49Z</time></trkpt><trkpt lat="46.3273294" lon="9.4199018"><ele>377.4</ele><time>2026-04-11T11:10:22.49Z</time></trkpt><trkpt lat="46.3273375" lon="9.4200585"><ele>377.6</ele><time>2026-04-11T11:10:23.49Z</time></trkpt><trkpt lat="46.3273428" lon="9.420223"><ele>377.79999999999995</ele><time>2026-04-11T11:10:24.49Z</time></trkpt><trkpt lat="46.3273425" lon="9.4203951"><ele>378.0</ele><time>2026-04-11T11:10:25.49Z</time></trkpt><trkpt lat="46.3273291" lon="9.4205649"><ele>378.0</ele><time>2026-04-11T11:10:26.49Z</time></trkpt><trkpt lat="46.3273042" lon="9.4207369"><ele>378.0</ele><time>2026-04-11T11:10:27.49Z</time></trkpt><trkpt lat="46.3272729" lon="9.4209075"><ele>378.0</ele><time>2026-04-11T11:10:28.49Z</time></trkpt><trkpt lat="46.3272369" lon="9.4210754"><ele>378.0</ele><time>2026-04-11T11:10:29.49Z</time></trkpt><trkpt lat="46.327207" lon="9.4212478"><ele>377.5</ele><time>2026-04-11T11:10:30.491Z</time></trkpt><trkpt lat="46.3271739" lon="9.4214198"><ele>377.0</ele><time>2026-04-11T11:10:31.491Z</time></trkpt><trkpt lat="46.3271351" lon="9.4215908"><ele>376.5</ele><time>2026-04-11T11:10:32.49Z</time></trkpt><trkpt lat="46.3270912" lon="9.4217609"><ele>376.0</ele><time>2026-04-11T11:10:33.491Z</time></trkpt><trkpt lat="46.3270553" lon="9.4219308"><ele>376.0</ele><time>2026-04-11T11:10:34.49Z</time></trkpt><trkpt lat="46.3270122" lon="9.4220979"><ele>376.0</ele><time>2026-04-11T11:10:35.491Z</time></trkpt><trkpt lat="46.3269701" lon="9.4222631"><ele>376.0</ele><time>2026-04-11T11:10:36.49Z</time></trkpt><trkpt lat="46.3269178" lon="9.4224201"><ele>376.0</ele><time>2026-04-11T11:10:37.49Z</time></trkpt><trkpt lat="46.3268548" lon="9.4225663"><ele>377.0</ele><time>2026-04-11T11:10:38.491Z</time></trkpt><trkpt lat="46.326784" lon="9.4227025"><ele>378.0</ele><time>2026-04-11T11:10:39.49Z</time></trkpt><trkpt lat="46.3267056" lon="9.4228241"><ele>379.0</ele><time>2026-04-11T11:10:40.49Z</time></trkpt><trkpt lat="46.3266234" lon="9.4229414"><ele>380.0</ele><time>2026-04-11T11:10:41.49Z</time></trkpt><trkpt lat="46.3265418" lon="9.4230648"><ele>379.25</ele><time>2026-04-11T11:10:42.491Z</time></trkpt><trkpt lat="46.3264574" lon="9.423188"><ele>378.5</ele><time>2026-04-11T11:10:43.491Z</time></trkpt><trkpt lat="46.3263732" lon="9.4233251"><ele>377.75</ele><time>2026-04-11T11:10:44.49Z</time></trkpt><trkpt lat="46.3262905" lon="9.4234719"><ele>377.0</ele><time>2026-04-11T11:10:45.491Z</time></trkpt><trkpt lat="46.326215" lon="9.4236387"><ele>377.5</ele><time>2026-04-11T11:10:46.49Z</time></trkpt><trkpt lat="46.3261573" lon="9.4238208"><ele>378.0</ele><time>2026-04-11T11:10:47.491Z</time></trkpt><trkpt lat="46.3261183" lon="9.4240182"><ele>378.5</ele><time>2026-04-11T11:10:48.49Z</time></trkpt><trkpt lat="46.3260997" lon="9.424227"><ele>379.0</ele><time>2026-04-11T11:10:49.49Z</time></trkpt><trkpt lat="46.3260965" lon="9.424442"><ele>379.75</ele><time>2026-04-11T11:10:50.49Z</time></trkpt><trkpt lat="46.3261011" lon="9.4246568"><ele>380.5</ele><time>2026-04-11T11:10:51.49Z</time></trkpt><trkpt lat="46.3261007" lon="9.4248737"><ele>381.25</ele><time>2026-04-11T11:10:52.49Z</time></trkpt><trkpt lat="46.326101" lon="9.4250758"><ele>382.0</ele><time>2026-04-11T11:10:53.489Z</time></trkpt><trkpt lat="46.3260994" lon="9.425266"><ele>382.0</ele><time>2026-04-11T11:10:54.489Z</time></trkpt><trkpt lat="46.3261019" lon="9.4254563"><ele>382.0</ele><time>2026-04-11T11:10:55.489Z</time></trkpt><trkpt lat="46.3261054" lon="9.4256457"><ele>382.0</ele><time>2026-04-11T11:10:56.489Z</time></trkpt><trkpt lat="46.3261098" lon="9.4258343"><ele>382.0</ele><time>2026-04-11T11:10:57.489Z</time></trkpt><trkpt lat="46.3261074" lon="9.4260177"><ele>382.6</ele><time>2026-04-11T11:10:58.489Z</time></trkpt><trkpt lat="46.3261059" lon="9.4261834"><ele>383.20000000000005</ele><time>2026-04-11T11:10:59.489Z</time></trkpt><trkpt lat="46.3261061" lon="9.4263347"><ele>383.8</ele><time>2026-04-11T11:11:00.489Z</time></trkpt><trkpt lat="46.3261055" lon="9.4264742"><ele>384.4</ele><time>2026-04-11T11:11:01.49Z</time></trkpt><trkpt lat="46.3261082" lon="9.4266066"><ele>385.0</ele><time>2026-04-11T11:11:02.489Z</time></trkpt><trkpt lat="46.3261096" lon="9.4267367"><ele>385.0</ele><time>2026-04-11T11:11:03.489Z</time></trkpt><trkpt lat="46.3261127" lon="9.4268626"><ele>385.0</ele><time>2026-04-11T11:11:04.489Z</time></trkpt><trkpt lat="46.3261129" lon="9.4269998"><ele>385.0</ele><time>2026-04-11T11:11:05.49Z</time></trkpt><trkpt lat="46.3261133" lon="9.4271467"><ele>385.0</ele><time>2026-04-11T11:11:06.489Z</time></trkpt><trkpt lat="46.3261136" lon="9.4273143"><ele>385.0</ele><time>2026-04-11T11:11:07.49Z</time></trkpt><trkpt lat="46.3261114" lon="9.427495"><ele>385.0</ele><time>2026-04-11T11:11:08.489Z</time></trkpt><trkpt lat="46.3261125" lon="9.4276845"><ele>385.0</ele><time>2026-04-11T11:11:09.489Z</time></trkpt><trkpt lat="46.3261159" lon="9.4278789"><ele>385.0</ele><time>2026-04-11T11:11:10.49Z</time></trkpt><trkpt lat="46.3261237" lon="9.4280752"><ele>385.0</ele><time>2026-04-11T11:11:11.489Z</time></trkpt><trkpt lat="46.3261369" lon="9.4282748"><ele>385.25</ele><time>2026-04-11T11:11:12.489Z</time></trkpt><trkpt lat="46.3261553" lon="9.428477"><ele>385.5</ele><time>2026-04-11T11:11:13.489Z</time></trkpt><trkpt lat="46.3261794" lon="9.4286809"><ele>385.75</ele><time>2026-04-11T11:11:14.489Z</time></trkpt><trkpt lat="46.3262099" lon="9.4288848"><ele>386.0</ele><time>2026-04-11T11:11:15.489Z</time></trkpt><trkpt lat="46.3262458" lon="9.4290811"><ele>386.5</ele><time>2026-04-11T11:11:16.489Z</time></trkpt><trkpt lat="46.326289" lon="9.429275"><ele>387.0</ele><time>2026-04-11T11:11:17.489Z</time></trkpt><trkpt lat="46.3263373" lon="9.4294665"><ele>387.5</ele><time>2026-04-11T11:11:18.49Z</time></trkpt><trkpt lat="46.3263916" lon="9.429652"><ele>388.0</ele><time>2026-04-11T11:11:19.489Z</time></trkpt><trkpt lat="46.3264505" lon="9.4298283"><ele>390.0</ele><time>2026-04-11T11:11:20.49Z</time></trkpt><trkpt lat="46.3265132" lon="9.4299955"><ele>392.0</ele><time>2026-04-11T11:11:21.489Z</time></trkpt><trkpt lat="46.3265776" lon="9.4301514"><ele>394.0</ele><time>2026-04-11T11:11:22.489Z</time></trkpt><trkpt lat="46.3266451" lon="9.4303008"><ele>396.0</ele><time>2026-04-11T11:11:23.49Z</time></trkpt><trkpt lat="46.326713" lon="9.4304509"><ele>395.5</ele><time>2026-04-11T11:11:24.489Z</time></trkpt><trkpt lat="46.326777" lon="9.4306"><ele>395.0</ele><time>2026-04-11T11:11:25.489Z</time></trkpt><trkpt lat="46.326843" lon="9.4307386"><ele>394.5</ele><time>2026-04-11T11:11:26.489Z</time></trkpt><trkpt lat="46.3269174" lon="9.430874"><ele>394.0</ele><time>2026-04-11T11:11:27.489Z</time></trkpt><trkpt lat="46.3269874" lon="9.4310078"><ele>394.0</ele><time>2026-04-11T11:11:28.489Z</time></trkpt><trkpt lat="46.3270584" lon="9.431146"><ele>394.0</ele><time>2026-04-11T11:11:29.49Z</time></trkpt><trkpt lat="46.3271323" lon="9.4312921"><ele>394.0</ele><time>2026-04-11T11:11:30.49Z</time></trkpt><trkpt lat="46.3272135" lon="9.431449"><ele>394.0</ele><time>2026-04-11T11:11:31.489Z</time></trkpt><trkpt lat="46.3273039" lon="9.4316238"><ele>395.75</ele><time>2026-04-11T11:11:32.489Z</time></trkpt><trkpt lat="46.327386" lon="9.4317811"><ele>397.5</ele><time>2026-04-11T11:11:33.489Z</time></trkpt><trkpt lat="46.327456" lon="9.4319263"><ele>399.25</ele><time>2026-04-11T11:11:34.489Z</time></trkpt><trkpt lat="46.3275237" lon="9.4320597"><ele>401.0</ele><time>2026-04-11T11:11:35.489Z</time></trkpt><trkpt lat="46.3275916" lon="9.4321859"><ele>401.0</ele><time>2026-04-11T11:11:36.49Z</time></trkpt><trkpt lat="46.3276582" lon="9.4323146"><ele>401.0</ele><time>2026-04-11T11:11:37.489Z</time></trkpt><trkpt lat="46.3277254" lon="9.432446"><ele>401.0</ele><time>2026-04-11T11:11:38.489Z</time></trkpt><trkpt lat="46.3277948" lon="9.432581"><ele>401.0</ele><time>2026-04-11T11:11:39.489Z</time></trkpt><trkpt lat="46.327863" lon="9.4327182"><ele>401.0</ele><time>2026-04-11T11:11:40.489Z</time></trkpt><trkpt lat="46.3279326" lon="9.432855"><ele>401.0</ele><time>2026-04-11T11:11:41.49Z</time></trkpt><trkpt lat="46.3280022" lon="9.4329904"><ele>401.0</ele><time>2026-04-11T11:11:42.489Z</time></trkpt><trkpt lat="46.3280737" lon="9.4331248"><ele>401.0</ele><time>2026-04-11T11:11:43.489Z</time></trkpt><trkpt lat="46.3281453" lon="9.43326"><ele>402.20000000000005</ele><time>2026-04-11T11:11:44.49Z</time></trkpt><trkpt lat="46.3282133" lon="9.4333971"><ele>403.40000000000003</ele><time>2026-04-11T11:11:45.489Z</time></trkpt><trkpt lat="46.3282737" lon="9.4335361"><ele>404.6</ele><time>2026-04-11T11:11:46.489Z</time></trkpt><trkpt lat="46.3283167" lon="9.4336753"><ele>405.8</ele><time>2026-04-11T11:11:47.489Z</time></trkpt><trkpt lat="46.3283462" lon="9.4338083"><ele>407.0</ele><time>2026-04-11T11:11:48.489Z</time></trkpt><trkpt lat="46.3283667" lon="9.4339357"><ele>407.20000000000005</ele><time>2026-04-11T11:11:49.489Z</time></trkpt><trkpt lat="46.3283797" lon="9.434068"><ele>407.4</ele><time>2026-04-11T11:11:50.489Z</time></trkpt><trkpt lat="46.3283862" lon="9.43421"><ele>407.6</ele><time>2026-04-11T11:11:51.489Z</time></trkpt><trkpt lat="46.3283955" lon="9.4343658"><ele>407.79999999999995</ele><time>2026-04-11T11:11:52.489Z</time></trkpt><trkpt lat="46.3284092" lon="9.4345369"><ele>408.0</ele><time>2026-04-11T11:11:53.489Z</time></trkpt><trkpt lat="46.3284219" lon="9.4347162"><ele>408.5</ele><time>2026-04-11T11:11:54.49Z</time></trkpt><trkpt lat="46.3284339" lon="9.4349039"><ele>409.0</ele><time>2026-04-11T11:11:55.49Z</time></trkpt><trkpt lat="46.3284469" lon="9.4350924"><ele>409.5</ele><time>2026-04-11T11:11:56.489Z</time></trkpt><trkpt lat="46.328461" lon="9.435289"><ele>410.0</ele><time>2026-04-11T11:11:57.489Z</time></trkpt><trkpt lat="46.3284741" lon="9.4354873"><ele>410.0</ele><time>2026-04-11T11:11:58.489Z</time></trkpt><trkpt lat="46.3284865" lon="9.4356899"><ele>410.0</ele><time>2026-04-11T11:11:59.489Z</time></trkpt><trkpt lat="46.3285" lon="9.4358902"><ele>410.0</ele><time>2026-04-11T11:12:00.489Z</time></trkpt><trkpt lat="46.3285129" lon="9.4360748"><ele>410.0</ele><time>2026-04-11T11:12:01.489Z</time></trkpt><trkpt lat="46.3285271" lon="9.4362429"><ele>410.4</ele><time>2026-04-11T11:12:02.489Z</time></trkpt><trkpt lat="46.3285407" lon="9.4364019"><ele>410.8</ele><time>2026-04-11T11:12:03.489Z</time></trkpt><trkpt lat="46.3285502" lon="9.4365473"><ele>411.20000000000005</ele><time>2026-04-11T11:12:04.49Z</time></trkpt><trkpt lat="46.328562" lon="9.436688"><ele>411.6</ele><time>2026-04-11T11:12:05.489Z</time></trkpt><trkpt lat="46.3285729" lon="9.4368237"><ele>412.0</ele><time>2026-04-11T11:12:06.49Z</time></trkpt><trkpt lat="46.3285841" lon="9.4369519"><ele>412.00000000000006</ele><time>2026-04-11T11:12:07.489Z</time></trkpt><trkpt lat="46.3285928" lon="9.437076"><ele>412.0</ele><time>2026-04-11T11:12:08.489Z</time></trkpt><trkpt lat="46.3286012" lon="9.4371994"><ele>412.0</ele><time>2026-04-11T11:12:09.489Z</time></trkpt><trkpt lat="46.3286093" lon="9.4373273"><ele>412.0</ele><time>2026-04-11T11:12:10.49Z</time></trkpt><trkpt lat="46.3286188" lon="9.4374576"><ele>412.00000000000006</ele><time>2026-04-11T11:12:11.489Z</time></trkpt><trkpt lat="46.3286303" lon="9.4375941"><ele>412.0</ele><time>2026-04-11T11:12:12.489Z</time></trkpt><trkpt lat="46.3286412" lon="9.4377472"><ele>412.5</ele><time>2026-04-11T11:12:13.489Z</time></trkpt><trkpt lat="46.3286527" lon="9.4379213"><ele>413.0</ele><time>2026-04-11T11:12:14.489Z</time></trkpt><trkpt lat="46.3286703" lon="9.4380988"><ele>413.5</ele><time>2026-04-11T11:12:15.489Z</time></trkpt><trkpt lat="46.3286862" lon="9.4382676"><ele>414.0</ele><time>2026-04-11T11:12:16.489Z</time></trkpt><trkpt lat="46.3286981" lon="9.4384226"><ele>414.0</ele><time>2026-04-11T11:12:17.489Z</time></trkpt><trkpt lat="46.3287083" lon="9.4385815"><ele>414.0</ele><time>2026-04-11T11:12:18.489Z</time></trkpt><trkpt lat="46.3287272" lon="9.4387366"><ele>414.0</ele><time>2026-04-11T11:12:19.489Z</time></trkpt><trkpt lat="46.3287554" lon="9.4388845"><ele>414.0</ele><time>2026-04-11T11:12:20.489Z</time></trkpt><trkpt lat="46.3287896" lon="9.439024"><ele>414.0</ele><time>2026-04-11T11:12:21.489Z</time></trkpt><trkpt lat="46.3288254" lon="9.4391592"><ele>414.0</ele><time>2026-04-11T11:12:22.489Z</time></trkpt><trkpt lat="46.3288563" lon="9.4392865"><ele>414.0</ele><time>2026-04-11T11:12:23.489Z</time></trkpt><trkpt lat="46.3288918" lon="9.4394173"><ele>414.0</ele><time>2026-04-11T11:12:24.489Z</time></trkpt><trkpt lat="46.3289329" lon="9.4395472"><ele>414.0</ele><time>2026-04-11T11:12:25.49Z</time></trkpt><trkpt lat="46.3289803" lon="9.439662"><ele>414.0</ele><time>2026-04-11T11:12:26.489Z</time></trkpt><trkpt lat="46.3290295" lon="9.4397688"><ele>415.79999999999995</ele><time>2026-04-11T11:12:27.489Z</time></trkpt><trkpt lat="46.3290779" lon="9.4398722"><ele>417.59999999999997</ele><time>2026-04-11T11:12:28.489Z</time></trkpt><trkpt lat="46.3291282" lon="9.439981"><ele>419.4</ele><time>2026-04-11T11:12:29.49Z</time></trkpt><trkpt lat="46.3291743" lon="9.4400987"><ele>421.2</ele><time>2026-04-11T11:12:30.489Z</time></trkpt><trkpt lat="46.3292133" lon="9.4402327"><ele>423.0</ele><time>2026-04-11T11:12:31.489Z</time></trkpt><trkpt lat="46.3292431" lon="9.4403795"><ele>422.75</ele><time>2026-04-11T11:12:32.49Z</time></trkpt><trkpt lat="46.3292723" lon="9.4405354"><ele>422.5</ele><time>2026-04-11T11:12:33.489Z</time></trkpt><trkpt lat="46.329296" lon="9.4406894"><ele>422.25</ele><time>2026-04-11T11:12:34.489Z</time></trkpt><trkpt lat="46.3293118" lon="9.4408548"><ele>422.0</ele><time>2026-04-11T11:12:35.489Z</time></trkpt><trkpt lat="46.3293197" lon="9.4410265"><ele>422.0</ele><time>2026-04-11T11:12:36.489Z</time></trkpt><trkpt lat="46.3293149" lon="9.4412037"><ele>422.0</ele><time>2026-04-11T11:12:37.489Z</time></trkpt><trkpt lat="46.3293119" lon="9.4413875"><ele>422.0</ele><time>2026-04-11T11:12:38.489Z</time></trkpt><trkpt lat="46.3293051" lon="9.44157"><ele>422.0</ele><time>2026-04-11T11:12:39.489Z</time></trkpt><trkpt lat="46.3292984" lon="9.4417492"><ele>422.5</ele><time>2026-04-11T11:12:40.489Z</time></trkpt><trkpt lat="46.3292959" lon="9.4419252"><ele>423.0</ele><time>2026-04-11T11:12:41.489Z</time></trkpt><trkpt lat="46.3292863" lon="9.4420957"><ele>423.5</ele><time>2026-04-11T11:12:42.489Z</time></trkpt><trkpt lat="46.3292706" lon="9.4422581"><ele>424.0</ele><time>2026-04-11T11:12:43.49Z</time></trkpt><trkpt lat="46.3292412" lon="9.4424158"><ele>426.75</ele><time>2026-04-11T11:12:44.489Z</time></trkpt><trkpt lat="46.3291975" lon="9.4425683"><ele>429.5</ele><time>2026-04-11T11:12:45.489Z</time></trkpt><trkpt lat="46.3291486" lon="9.4427203"><ele>432.25</ele><time>2026-04-11T11:12:46.49Z</time></trkpt><trkpt lat="46.3290933" lon="9.4428717"><ele>435.0</ele><time>2026-04-11T11:12:47.489Z</time></trkpt><trkpt lat="46.3290314" lon="9.4430211"><ele>432.25</ele><time>2026-04-11T11:12:48.489Z</time></trkpt><trkpt lat="46.3289655" lon="9.4431723"><ele>429.5</ele><time>2026-04-11T11:12:49.489Z</time></trkpt><trkpt lat="46.3289041" lon="9.4433349"><ele>426.75</ele><time>2026-04-11T11:12:50.49Z</time></trkpt><trkpt lat="46.3288385" lon="9.4434986"><ele>424.0</ele><time>2026-04-11T11:12:51.489Z</time></trkpt><trkpt lat="46.3287818" lon="9.4436679"><ele>427.0</ele><time>2026-04-11T11:12:52.489Z</time></trkpt><trkpt lat="46.3287234" lon="9.4438288"><ele>430.0</ele><time>2026-04-11T11:12:53.49Z</time></trkpt><trkpt lat="46.328671" lon="9.4439922"><ele>433.0</ele><time>2026-04-11T11:12:54.489Z</time></trkpt><trkpt lat="46.328628" lon="9.4441594"><ele>436.0</ele><time>2026-04-11T11:12:55.489Z</time></trkpt><trkpt lat="46.3285886" lon="9.4443374"><ele>436.0</ele><time>2026-04-11T11:12:56.489Z</time></trkpt><trkpt lat="46.3285557" lon="9.4445171"><ele>436.0</ele><time>2026-04-11T11:12:57.489Z</time></trkpt><trkpt lat="46.3285123" lon="9.4446957"><ele>436.0</ele><time>2026-04-11T11:12:58.489Z</time></trkpt><trkpt lat="46.3284837" lon="9.4448827"><ele>436.0</ele><time>2026-04-11T11:12:59.489Z</time></trkpt><trkpt lat="46.3284551" lon="9.4450654"><ele>437.25</ele><time>2026-04-11T11:13:00.489Z</time></trkpt><trkpt lat="46.3284233" lon="9.4452464"><ele>438.5</ele><time>2026-04-11T11:13:01.489Z</time></trkpt><trkpt lat="46.3283887" lon="9.4454275"><ele>439.75</ele><time>2026-04-11T11:13:02.489Z</time></trkpt><trkpt lat="46.328354" lon="9.4456071"><ele>441.0</ele><time>2026-04-11T11:13:03.49Z</time></trkpt><trkpt lat="46.3283183" lon="9.4457933"><ele>443.33333333333337</ele><time>2026-04-11T11:13:04.489Z</time></trkpt><trkpt lat="46.3282798" lon="9.4459947"><ele>445.6666666666667</ele><time>2026-04-11T11:13:05.489Z</time></trkpt><trkpt lat="46.3282351" lon="9.4462227"><ele>448.0</ele><time>2026-04-11T11:13:06.489Z</time></trkpt><trkpt lat="46.3281899" lon="9.4464701"><ele>452.33333333333337</ele><time>2026-04-11T11:13:07.489Z</time></trkpt><trkpt lat="46.3281534" lon="9.4467202"><ele>456.66666666666663</ele><time>2026-04-11T11:13:08.49Z</time></trkpt><trkpt lat="46.3281315" lon="9.4469633"><ele>461.0</ele><time>2026-04-11T11:13:09.49Z</time></trkpt><trkpt lat="46.3281251" lon="9.4472012"><ele>465.0</ele><time>2026-04-11T11:13:10.489Z</time></trkpt><trkpt lat="46.3281267" lon="9.4474322"><ele>469.0</ele><time>2026-04-11T11:13:11.49Z</time></trkpt><trkpt lat="46.3281239" lon="9.4476538"><ele>473.0</ele><time>2026-04-11T11:13:12.489Z</time></trkpt><trkpt lat="46.3281058" lon="9.4478736"><ele>476.0</ele><time>2026-04-11T11:13:13.489Z</time></trkpt><trkpt lat="46.328081" lon="9.4480888"><ele>479.0</ele><time>2026-04-11T11:13:14.49Z</time></trkpt><trkpt lat="46.3280586" lon="9.4483093"><ele>482.0</ele><time>2026-04-11T11:13:15.489Z</time></trkpt><trkpt lat="46.3280445" lon="9.4485305"><ele>482.66666666666663</ele><time>2026-04-11T11:13:16.489Z</time></trkpt><trkpt lat="46.3280461" lon="9.4487519"><ele>483.33333333333337</ele><time>2026-04-11T11:13:17.49Z</time></trkpt><trkpt lat="46.3280631" lon="9.4489687"><ele>484.0</ele><time>2026-04-11T11:13:18.489Z</time></trkpt><trkpt lat="46.328092" lon="9.4491869"><ele>484.0</ele><time>2026-04-11T11:13:19.489Z</time></trkpt><trkpt lat="46.3281179" lon="9.4494071"><ele>484.0</ele><time>2026-04-11T11:13:20.489Z</time></trkpt><trkpt lat="46.3281318" lon="9.449628"><ele>484.0</ele><time>2026-04-11T11:13:21.489Z</time></trkpt><trkpt lat="46.3281208" lon="9.4498515"><ele>486.33333333333337</ele><time>2026-04-11T11:13:22.489Z</time></trkpt><trkpt lat="46.3280955" lon="9.4500855"><ele>488.66666666666663</ele><time>2026-04-11T11:13:23.489Z</time></trkpt><trkpt lat="46.3280586" lon="9.4503231"><ele>491.0</ele><time>2026-04-11T11:13:24.49Z</time></trkpt><trkpt lat="46.3280229" lon="9.4505644"><ele>478.3333333333333</ele><time>2026-04-11T11:13:25.489Z</time></trkpt><trkpt lat="46.3279994" lon="9.4508055"><ele>465.66666666666663</ele><time>2026-04-11T11:13:26.489Z</time></trkpt><trkpt lat="46.3279883" lon="9.4510334"><ele>453.0</ele><time>2026-04-11T11:13:27.489Z</time></trkpt><trkpt lat="46.3279874" lon="9.4512431"><ele>456.0</ele><time>2026-04-11T11:13:28.489Z</time></trkpt><trkpt lat="46.3279838" lon="9.451436"><ele>459.0</ele><time>2026-04-11T11:13:29.49Z</time></trkpt><trkpt lat="46.3279693" lon="9.4516128"><ele>462.0</ele><time>2026-04-11T11:13:30.489Z</time></trkpt><trkpt lat="46.3279354" lon="9.451788"><ele>465.0</ele><time>2026-04-11T11:13:31.49Z</time></trkpt><trkpt lat="46.3278695" lon="9.4519447"><ele>465.0</ele><time>2026-04-11T11:13:32.489Z</time></trkpt><trkpt lat="46.3277766" lon="9.4520853"><ele>465.0</ele><time>2026-04-11T11:13:33.489Z</time></trkpt><trkpt lat="46.3276712" lon="9.4522211"><ele>465.0</ele><time>2026-04-11T11:13:34.489Z</time></trkpt><trkpt lat="46.3275603" lon="9.4523793"><ele>465.0</ele><time>2026-04-11T11:13:35.49Z</time></trkpt><trkpt lat="46.3274431" lon="9.4525386"><ele>468.33333333333337</ele><time>2026-04-11T11:13:36.49Z</time></trkpt><trkpt lat="46.3273283" lon="9.4526962"><ele>471.6666666666667</ele><time>2026-04-11T11:13:37.49Z</time></trkpt><trkpt lat="46.3272154" lon="9.4528463"><ele>475.0</ele><time>2026-04-11T11:13:38.489Z</time></trkpt><trkpt lat="46.3271097" lon="9.4529929"><ele>477.0</ele><time>2026-04-11T11:13:39.49Z</time></trkpt><trkpt lat="46.3270113" lon="9.4531265"><ele>479.0</ele><time>2026-04-11T11:13:40.489Z</time></trkpt><trkpt lat="46.3269098" lon="9.4532605"><ele>481.0</ele><time>2026-04-11T11:13:41.489Z</time></trkpt><trkpt lat="46.3268143" lon="9.4533971"><ele>483.0</ele><time>2026-04-11T11:13:42.489Z</time></trkpt><trkpt lat="46.3267318" lon="9.4535437"><ele>483.0</ele><time>2026-04-11T11:13:43.489Z</time></trkpt><trkpt lat="46.3266689" lon="9.4536977"><ele>483.0</ele><time>2026-04-11T11:13:44.489Z</time></trkpt><trkpt lat="46.3266151" lon="9.4538522"><ele>483.0</ele><time>2026-04-11T11:13:45.489Z</time></trkpt><trkpt lat="46.3265454" lon="9.4539954"><ele>483.0</ele><time>2026-04-11T11:13:46.489Z</time></trkpt><trkpt lat="46.3264654" lon="9.4541367"><ele>484.75</ele><time>2026-04-11T11:13:47.489Z</time></trkpt><trkpt lat="46.326372" lon="9.4542624"><ele>486.5</ele><time>2026-04-11T11:13:48.489Z</time></trkpt><trkpt lat="46.3262685" lon="9.4543646"><ele>488.25</ele><time>2026-04-11T11:13:49.489Z</time></trkpt><trkpt lat="46.3261622" lon="9.454453"><ele>490.0</ele><time>2026-04-11T11:13:50.489Z</time></trkpt><trkpt lat="46.3260512" lon="9.4545172"><ele>490.0</ele><time>2026-04-11T11:13:51.49Z</time></trkpt><trkpt lat="46.3259439" lon="9.4545888"><ele>490.0</ele><time>2026-04-11T11:13:52.489Z</time></trkpt><trkpt lat="46.325842" lon="9.4546739"><ele>490.0</ele><time>2026-04-11T11:13:53.49Z</time></trkpt><trkpt lat="46.3257467" lon="9.4547822"><ele>490.0</ele><time>2026-04-11T11:13:54.489Z</time></trkpt><trkpt lat="46.3256606" lon="9.4549135"><ele>492.5</ele><time>2026-04-11T11:13:55.49Z</time></trkpt><trkpt lat="46.3255915" lon="9.4550709"><ele>495.0</ele><time>2026-04-11T11:13:56.489Z</time></trkpt><trkpt lat="46.3255392" lon="9.4552518"><ele>497.5</ele><time>2026-04-11T11:13:57.489Z</time></trkpt><trkpt lat="46.3255001" lon="9.4554329"><ele>500.0</ele><time>2026-04-11T11:13:58.49Z</time></trkpt><trkpt lat="46.3254784" lon="9.4556183"><ele>500.0</ele><time>2026-04-11T11:13:59.49Z</time></trkpt><trkpt lat="46.3254631" lon="9.4558077"><ele>500.0</ele><time>2026-04-11T11:14:00.489Z</time></trkpt><trkpt lat="46.3254427" lon="9.4559911"><ele>500.0</ele><time>2026-04-11T11:14:01.489Z</time></trkpt><trkpt lat="46.3254324" lon="9.4561625"><ele>500.0</ele><time>2026-04-11T11:14:02.489Z</time></trkpt><trkpt lat="46.3254169" lon="9.4563301"><ele>500.6</ele><time>2026-04-11T11:14:03.49Z</time></trkpt><trkpt lat="46.3253982" lon="9.4564834"><ele>501.2</ele><time>2026-04-11T11:14:04.489Z</time></trkpt><trkpt lat="46.325382" lon="9.4566267"><ele>501.79999999999995</ele><time>2026-04-11T11:14:05.489Z</time></trkpt><trkpt lat="46.3253696" lon="9.4567606"><ele>502.4</ele><time>2026-04-11T11:14:06.49Z</time></trkpt><trkpt lat="46.3253594" lon="9.4568845"><ele>503.0</ele><time>2026-04-11T11:14:07.49Z</time></trkpt><trkpt lat="46.3253507" lon="9.4570017"><ele>502.99999999999994</ele><time>2026-04-11T11:14:08.489Z</time></trkpt><trkpt lat="46.3253415" lon="9.4571178"><ele>503.0</ele><time>2026-04-11T11:14:09.49Z</time></trkpt><trkpt lat="46.325335" lon="9.4572387"><ele>503.0</ele><time>2026-04-11T11:14:10.489Z</time></trkpt><trkpt lat="46.3253429" lon="9.4573652"><ele>503.0</ele><time>2026-04-11T11:14:11.489Z</time></trkpt><trkpt lat="46.3253707" lon="9.457496"><ele>502.99999999999994</ele><time>2026-04-11T11:14:12.489Z</time></trkpt><trkpt lat="46.3254171" lon="9.4576261"><ele>503.0</ele><time>2026-04-11T11:14:13.489Z</time></trkpt><trkpt lat="46.3254656" lon="9.4577556"><ele>503.4</ele><time>2026-04-11T11:14:14.489Z</time></trkpt><trkpt lat="46.3255217" lon="9.4578853"><ele>503.79999999999995</ele><time>2026-04-11T11:14:15.489Z</time></trkpt><trkpt lat="46.32558" lon="9.4580124"><ele>504.2</ele><time>2026-04-11T11:14:16.489Z</time></trkpt><trkpt lat="46.3256453" lon="9.4581364"><ele>504.6</ele><time>2026-04-11T11:14:17.489Z</time></trkpt><trkpt lat="46.3257198" lon="9.4582504"><ele>505.0</ele><time>2026-04-11T11:14:18.489Z</time></trkpt><trkpt lat="46.3258041" lon="9.4583517"><ele>506.0</ele><time>2026-04-11T11:14:19.489Z</time></trkpt><trkpt lat="46.3258975" lon="9.4584467"><ele>507.0</ele><time>2026-04-11T11:14:20.489Z</time></trkpt><trkpt lat="46.3259929" lon="9.4585393"><ele>508.0</ele><time>2026-04-11T11:14:21.489Z</time></trkpt><trkpt lat="46.3260808" lon="9.4586534"><ele>509.0</ele><time>2026-04-11T11:14:22.489Z</time></trkpt><trkpt lat="46.3261529" lon="9.4587851"><ele>509.0</ele><time>2026-04-11T11:14:23.489Z</time></trkpt><trkpt lat="46.3262117" lon="9.4589337"><ele>509.0</ele><time>2026-04-11T11:14:24.489Z</time></trkpt><trkpt lat="46.3262525" lon="9.4590992"><ele>509.0</ele><time>2026-04-11T11:14:25.489Z</time></trkpt><trkpt lat="46.3262738" lon="9.4592766"><ele>509.0</ele><time>2026-04-11T11:14:26.49Z</time></trkpt><trkpt lat="46.3262739" lon="9.4594654"><ele>510.25</ele><time>2026-04-11T11:14:27.49Z</time></trkpt><trkpt lat="46.3262734" lon="9.4596658"><ele>511.5</ele><time>2026-04-11T11:14:28.489Z</time></trkpt><trkpt lat="46.3262827" lon="9.4598862"><ele>512.75</ele><time>2026-04-11T11:14:29.49Z</time></trkpt><trkpt lat="46.3262973" lon="9.4600986"><ele>514.0</ele><time>2026-04-11T11:14:30.49Z</time></trkpt><trkpt lat="46.3263271" lon="9.460309"><ele>516.0</ele><time>2026-04-11T11:14:31.49Z</time></trkpt><trkpt lat="46.3263812" lon="9.4605187"><ele>518.0</ele><time>2026-04-11T11:14:32.489Z</time></trkpt><trkpt lat="46.3264409" lon="9.4607269"><ele>520.0</ele><time>2026-04-11T11:14:33.489Z</time></trkpt><trkpt lat="46.3265107" lon="9.4609305"><ele>523.0</ele><time>2026-04-11T11:14:34.49Z</time></trkpt><trkpt lat="46.3265819" lon="9.4611423"><ele>526.0</ele><time>2026-04-11T11:14:35.489Z</time></trkpt><trkpt lat="46.3266517" lon="9.4613508"><ele>529.0</ele><time>2026-04-11T11:14:36.489Z</time></trkpt><trkpt lat="46.3267165" lon="9.4615563"><ele>529.0</ele><time>2026-04-11T11:14:37.489Z</time></trkpt><trkpt lat="46.3267687" lon="9.4617494"><ele>529.0</ele><time>2026-04-11T11:14:38.489Z</time></trkpt><trkpt lat="46.3268002" lon="9.4619461"><ele>529.0</ele><time>2026-04-11T11:14:39.489Z</time></trkpt><trkpt lat="46.3268027" lon="9.4621447"><ele>529.0</ele><time>2026-04-11T11:14:40.489Z</time></trkpt><trkpt lat="46.3267786" lon="9.4623453"><ele>530.0</ele><time>2026-04-11T11:14:41.49Z</time></trkpt><trkpt lat="46.3267295" lon="9.4625475"><ele>531.0</ele><time>2026-04-11T11:14:42.489Z</time></trkpt><trkpt lat="46.3266703" lon="9.4627511"><ele>532.0</ele><time>2026-04-11T11:14:43.49Z</time></trkpt><trkpt lat="46.3266091" lon="9.4629628"><ele>534.6666666666667</ele><time>2026-04-11T11:14:44.489Z</time></trkpt><trkpt lat="46.3265593" lon="9.4631756"><ele>537.3333333333334</ele><time>2026-04-11T11:14:45.489Z</time></trkpt><trkpt lat="46.3265238" lon="9.4633931"><ele>540.0</ele><time>2026-04-11T11:14:46.489Z</time></trkpt><trkpt lat="46.3265129" lon="9.4636134"><ele>540.0</ele><time>2026-04-11T11:14:47.489Z</time></trkpt><trkpt lat="46.3265285" lon="9.4638321"><ele>540.0</ele><time>2026-04-11T11:14:48.49Z</time></trkpt><trkpt lat="46.3265732" lon="9.4640458"><ele>540.0</ele><time>2026-04-11T11:14:49.49Z</time></trkpt><trkpt lat="46.3266456" lon="9.4642397"><ele>540.0</ele><time>2026-04-11T11:14:50.49Z</time></trkpt><trkpt lat="46.3267421" lon="9.4644124"><ele>540.0</ele><time>2026-04-11T11:14:51.489Z</time></trkpt><trkpt lat="46.3268608" lon="9.4645588"><ele>540.0</ele><time>2026-04-11T11:14:52.49Z</time></trkpt><trkpt lat="46.3269947" lon="9.4646779"><ele>540.0</ele><time>2026-04-11T11:14:53.49Z</time></trkpt><trkpt lat="46.3271325" lon="9.4647954"><ele>540.0</ele><time>2026-04-11T11:14:54.489Z</time></trkpt><trkpt lat="46.3272516" lon="9.4649469"><ele>540.0</ele><time>2026-04-11T11:14:55.489Z</time></trkpt><trkpt lat="46.3273609" lon="9.4651127"><ele>542.6666666666666</ele><time>2026-04-11T11:14:56.489Z</time></trkpt><trkpt lat="46.3274801" lon="9.4653024"><ele>545.3333333333333</ele><time>2026-04-11T11:14:57.489Z</time></trkpt><trkpt lat="46.3275956" lon="9.4655032"><ele>548.0</ele><time>2026-04-11T11:14:58.489Z</time></trkpt><trkpt lat="46.3277111" lon="9.465708"><ele>548.0</ele><time>2026-04-11T11:14:59.489Z</time></trkpt><trkpt lat="46.3278084" lon="9.4659141"><ele>548.0</ele><time>2026-04-11T11:15:00.489Z</time></trkpt><trkpt lat="46.3278847" lon="9.4661205"><ele>548.0</ele><time>2026-04-11T11:15:01.489Z</time></trkpt><trkpt lat="46.3279401" lon="9.4663299"><ele>546.5</ele><time>2026-04-11T11:15:02.489Z</time></trkpt><trkpt lat="46.3279533" lon="9.4665323"><ele>545.0</ele><time>2026-04-11T11:15:03.488Z</time></trkpt><trkpt lat="46.3279636" lon="9.466702"><ele>543.5</ele><time>2026-04-11T11:15:04.488Z</time></trkpt><trkpt lat="46.3279592" lon="9.46687"><ele>542.0</ele><time>2026-04-11T11:15:05.488Z</time></trkpt><trkpt lat="46.3279383" lon="9.4670444"><ele>542.5</ele><time>2026-04-11T11:15:06.489Z</time></trkpt><trkpt lat="46.3279084" lon="9.4672306"><ele>543.0</ele><time>2026-04-11T11:15:07.488Z</time></trkpt><trkpt lat="46.3278785" lon="9.4674125"><ele>543.5</ele><time>2026-04-11T11:15:08.488Z</time></trkpt><trkpt lat="46.3278532" lon="9.4675889"><ele>544.0</ele><time>2026-04-11T11:15:09.488Z</time></trkpt><trkpt lat="46.3278401" lon="9.4677683"><ele>543.25</ele><time>2026-04-11T11:15:10.489Z</time></trkpt><trkpt lat="46.3278473" lon="9.4679508"><ele>542.5</ele><time>2026-04-11T11:15:11.488Z</time></trkpt><trkpt lat="46.3278783" lon="9.4681377"><ele>541.75</ele><time>2026-04-11T11:15:12.488Z</time></trkpt><trkpt lat="46.3279154" lon="9.468326"><ele>541.0</ele><time>2026-04-11T11:15:13.488Z</time></trkpt><trkpt lat="46.3279511" lon="9.4685058"><ele>541.0</ele><time>2026-04-11T11:15:14.489Z</time></trkpt><trkpt lat="46.3279717" lon="9.4686716"><ele>541.0</ele><time>2026-04-11T11:15:15.488Z</time></trkpt><trkpt lat="46.3279641" lon="9.4688352"><ele>541.0</ele><time>2026-04-11T11:15:16.489Z</time></trkpt><trkpt lat="46.3279288" lon="9.4689988"><ele>541.0</ele><time>2026-04-11T11:15:17.488Z</time></trkpt><trkpt lat="46.3278766" lon="9.4691597"><ele>541.75</ele><time>2026-04-11T11:15:18.488Z</time></trkpt><trkpt lat="46.3278355" lon="9.4693374"><ele>542.5</ele><time>2026-04-11T11:15:19.489Z</time></trkpt><trkpt lat="46.3277966" lon="9.4695239"><ele>543.25</ele><time>2026-04-11T11:15:20.488Z</time></trkpt><trkpt lat="46.3277722" lon="9.46972"><ele>544.0</ele><time>2026-04-11T11:15:21.488Z</time></trkpt><trkpt lat="46.3277671" lon="9.4699164"><ele>544.5</ele><time>2026-04-11T11:15:22.488Z</time></trkpt><trkpt lat="46.3277842" lon="9.4701203"><ele>545.0</ele><time>2026-04-11T11:15:23.488Z</time></trkpt><trkpt lat="46.3278158" lon="9.4703174"><ele>545.5</ele><time>2026-04-11T11:15:24.489Z</time></trkpt><trkpt lat="46.3278772" lon="9.470507"><ele>546.0</ele><time>2026-04-11T11:15:25.488Z</time></trkpt><trkpt lat="46.3279486" lon="9.4706985"><ele>547.0</ele><time>2026-04-11T11:15:26.488Z</time></trkpt><trkpt lat="46.328021" lon="9.4708963"><ele>548.0</ele><time>2026-04-11T11:15:27.488Z</time></trkpt><trkpt lat="46.3280969" lon="9.4710981"><ele>549.0</ele><time>2026-04-11T11:15:28.488Z</time></trkpt><trkpt lat="46.3281715" lon="9.4713054"><ele>559.0</ele><time>2026-04-11T11:15:29.488Z</time></trkpt><trkpt lat="46.3282462" lon="9.4715031"><ele>569.0</ele><time>2026-04-11T11:15:30.488Z</time></trkpt><trkpt lat="46.3283265" lon="9.4716982"><ele>579.0</ele><time>2026-04-11T11:15:31.488Z</time></trkpt><trkpt lat="46.3284019" lon="9.4718827"><ele>579.0</ele><time>2026-04-11T11:15:32.488Z</time></trkpt><trkpt lat="46.3284673" lon="9.4720666"><ele>579.0</ele><time>2026-04-11T11:15:33.488Z</time></trkpt><trkpt lat="46.3285106" lon="9.4722614"><ele>579.0</ele><time>2026-04-11T11:15:34.488Z</time></trkpt><trkpt lat="46.3285278" lon="9.4724722"><ele>579.0</ele><time>2026-04-11T11:15:35.488Z</time></trkpt><trkpt lat="46.3285348" lon="9.4726866"><ele>577.0</ele><time>2026-04-11T11:15:36.488Z</time></trkpt><trkpt lat="46.3285428" lon="9.472912"><ele>575.0</ele><time>2026-04-11T11:15:37.488Z</time></trkpt><trkpt lat="46.3285502" lon="9.4731448"><ele>573.0</ele><time>2026-04-11T11:15:38.488Z</time></trkpt><trkpt lat="46.3285589" lon="9.4733819"><ele>573.0</ele><time>2026-04-11T11:15:39.488Z</time></trkpt><trkpt lat="46.3285681" lon="9.4736177"><ele>573.0</ele><time>2026-04-11T11:15:40.488Z</time></trkpt><trkpt lat="46.3285681" lon="9.4738539"><ele>573.0</ele><time>2026-04-11T11:15:41.488Z</time></trkpt><trkpt lat="46.3285478" lon="9.4740836"><ele>574.3333333333334</ele><time>2026-04-11T11:15:42.488Z</time></trkpt><trkpt lat="46.3285039" lon="9.4743079"><ele>575.6666666666667</ele><time>2026-04-11T11:15:43.488Z</time></trkpt><trkpt lat="46.3284579" lon="9.4745241"><ele>577.0</ele><time>2026-04-11T11:15:44.488Z</time></trkpt><trkpt lat="46.3284283" lon="9.474738"><ele>578.75</ele><time>2026-04-11T11:15:45.489Z</time></trkpt><trkpt lat="46.3284216" lon="9.4749468"><ele>580.5</ele><time>2026-04-11T11:15:46.488Z</time></trkpt><trkpt lat="46.3284363" lon="9.4751517"><ele>582.25</ele><time>2026-04-11T11:15:47.488Z</time></trkpt><trkpt lat="46.3284711" lon="9.4753583"><ele>584.0</ele><time>2026-04-11T11:15:48.488Z</time></trkpt><trkpt lat="46.328508" lon="9.4755714"><ele>584.5</ele><time>2026-04-11T11:15:49.489Z</time></trkpt><trkpt lat="46.3285443" lon="9.4757839"><ele>585.0</ele><time>2026-04-11T11:15:50.488Z</time></trkpt><trkpt lat="46.3285794" lon="9.4759973"><ele>585.5</ele><time>2026-04-11T11:15:51.488Z</time></trkpt><trkpt lat="46.3286127" lon="9.4761972"><ele>586.0</ele><time>2026-04-11T11:15:52.488Z</time></trkpt><trkpt lat="46.3286445" lon="9.4763794"><ele>586.25</ele><time>2026-04-11T11:15:53.488Z</time></trkpt><trkpt lat="46.3286746" lon="9.4765631"><ele>586.5</ele><time>2026-04-11T11:15:54.489Z</time></trkpt><trkpt lat="46.3287043" lon="9.476745"><ele>586.75</ele><time>2026-04-11T11:15:55.488Z</time></trkpt><trkpt lat="46.3287384" lon="9.4769105"><ele>587.0</ele><time>2026-04-11T11:15:56.489Z</time></trkpt><trkpt lat="46.3287858" lon="9.477077"><ele>586.0</ele><time>2026-04-11T11:15:57.488Z</time></trkpt><trkpt lat="46.3288474" lon="9.4772458"><ele>585.0</ele><time>2026-04-11T11:15:58.489Z</time></trkpt><trkpt lat="46.3289278" lon="9.4774172"><ele>584.0</ele><time>2026-04-11T11:15:59.488Z</time></trkpt><trkpt lat="46.3290309" lon="9.4775922"><ele>583.0</ele><time>2026-04-11T11:16:00.489Z</time></trkpt><trkpt lat="46.329142" lon="9.4777538"><ele>587.0</ele><time>2026-04-11T11:16:01.488Z</time></trkpt><trkpt lat="46.3292478" lon="9.4778941"><ele>591.0</ele><time>2026-04-11T11:16:02.489Z</time></trkpt><trkpt lat="46.3293474" lon="9.4780251"><ele>595.0</ele><time>2026-04-11T11:16:03.488Z</time></trkpt><trkpt lat="46.3294361" lon="9.478153"><ele>599.0</ele><time>2026-04-11T11:16:04.488Z</time></trkpt><trkpt lat="46.3295235" lon="9.478281"><ele>599.0</ele><time>2026-04-11T11:16:05.488Z</time></trkpt><trkpt lat="46.3296117" lon="9.4784098"><ele>599.0</ele><time>2026-04-11T11:16:06.489Z</time></trkpt><trkpt lat="46.3296957" lon="9.4785447"><ele>599.0</ele><time>2026-04-11T11:16:07.488Z</time></trkpt><trkpt lat="46.329772" lon="9.4786935"><ele>599.0</ele><time>2026-04-11T11:16:08.489Z</time></trkpt><trkpt lat="46.3298438" lon="9.4788605"><ele>603.0</ele><time>2026-04-11T11:16:09.488Z</time></trkpt><trkpt lat="46.3299129" lon="9.4790523"><ele>607.0</ele><time>2026-04-11T11:16:10.488Z</time></trkpt><trkpt lat="46.3299909" lon="9.4792516"><ele>611.0</ele><time>2026-04-11T11:16:11.488Z</time></trkpt><trkpt lat="46.3300667" lon="9.4794323"><ele>611.0</ele><time>2026-04-11T11:16:12.489Z</time></trkpt><trkpt lat="46.3301307" lon="9.4795913"><ele>611.0</ele><time>2026-04-11T11:16:13.488Z</time></trkpt><trkpt lat="46.330182" lon="9.479724"><ele>611.0</ele><time>2026-04-11T11:16:14.488Z</time></trkpt><trkpt lat="46.3302269" lon="9.4798519"><ele>611.0</ele><time>2026-04-11T11:16:15.489Z</time></trkpt><trkpt lat="46.3302679" lon="9.4799669"><ele>611.0</ele><time>2026-04-11T11:16:16.488Z</time></trkpt><trkpt lat="46.3303081" lon="9.4800829"><ele>610.4</ele><time>2026-04-11T11:16:17.489Z</time></trkpt><trkpt lat="46.3303487" lon="9.4801925"><ele>609.8</ele><time>2026-04-11T11:16:18.489Z</time></trkpt><trkpt lat="46.3303949" lon="9.4803168"><ele>609.1999999999999</ele><time>2026-04-11T11:16:19.488Z</time></trkpt><trkpt lat="46.3304449" lon="9.4804501"><ele>608.6</ele><time>2026-04-11T11:16:20.489Z</time></trkpt><trkpt lat="46.3304921" lon="9.4805793"><ele>608.0</ele><time>2026-04-11T11:16:21.489Z</time></trkpt><trkpt lat="46.3305386" lon="9.4807048"><ele>609.1999999999999</ele><time>2026-04-11T11:16:22.489Z</time></trkpt><trkpt lat="46.3305869" lon="9.4808266"><ele>610.4</ele><time>2026-04-11T11:16:23.489Z</time></trkpt><trkpt lat="46.3306354" lon="9.4809489"><ele>611.5999999999999</ele><time>2026-04-11T11:16:24.488Z</time></trkpt><trkpt lat="46.3306816" lon="9.4810696"><ele>612.8</ele><time>2026-04-11T11:16:25.489Z</time></trkpt><trkpt lat="46.3307265" lon="9.4811889"><ele>614.0</ele><time>2026-04-11T11:16:26.489Z</time></trkpt><trkpt lat="46.3307707" lon="9.4813022"><ele>614.0</ele><time>2026-04-11T11:16:27.488Z</time></trkpt><trkpt lat="46.3308123" lon="9.4814155"><ele>614.0</ele><time>2026-04-11T11:16:28.488Z</time></trkpt><trkpt lat="46.3308446" lon="9.4815295"><ele>614.0</ele><time>2026-04-11T11:16:29.488Z</time></trkpt><trkpt lat="46.3308856" lon="9.4816439"><ele>614.0</ele><time>2026-04-11T11:16:30.488Z</time></trkpt><trkpt lat="46.3309302" lon="9.4817629"><ele>614.0</ele><time>2026-04-11T11:16:31.018Z</time></trkpt><trkpt lat="46.3309774" lon="9.4818884"><ele>614.0</ele><time>2026-04-11T11:16:32.018Z</time></trkpt><trkpt lat="46.3310186" lon="9.4820229"><ele>614.0</ele><time>2026-04-11T11:16:33.018Z</time></trkpt><trkpt lat="46.3310396" lon="9.482158"><ele>614.0</ele><time>2026-04-11T11:16:34.018Z</time></trkpt><trkpt lat="46.3310383" lon="9.4823006"><ele>614.0</ele><time>2026-04-11T11:16:35.017Z</time></trkpt><trkpt lat="46.331019" lon="9.4824424"><ele>614.0</ele><time>2026-04-11T11:16:36.018Z</time></trkpt><trkpt lat="46.330971" lon="9.4825675"><ele>614.8</ele><time>2026-04-11T11:16:37.018Z</time></trkpt><trkpt lat="46.3308968" lon="9.482675"><ele>615.5999999999999</ele><time>2026-04-11T11:16:38.018Z</time></trkpt><trkpt lat="46.330818" lon="9.482776"><ele>616.4</ele><time>2026-04-11T11:16:39.018Z</time></trkpt><trkpt lat="46.330752" lon="9.4828672"><ele>617.1999999999999</ele><time>2026-04-11T11:16:40.017Z</time></trkpt><trkpt lat="46.3306954" lon="9.4829523"><ele>618.0</ele><time>2026-04-11T11:16:41.017Z</time></trkpt><trkpt lat="46.3306451" lon="9.48303"><ele>618.0</ele><time>2026-04-11T11:16:42.018Z</time></trkpt><trkpt lat="46.3305984" lon="9.4831027"><ele>618.0</ele><time>2026-04-11T11:16:43.018Z</time></trkpt><trkpt lat="46.3305453" lon="9.4831791"><ele>618.0</ele><time>2026-04-11T11:16:44.018Z</time></trkpt><trkpt lat="46.3304797" lon="9.4832635"><ele>618.0</ele><time>2026-04-11T11:16:45.018Z</time></trkpt><trkpt lat="46.3304013" lon="9.4833392"><ele>618.0</ele><time>2026-04-11T11:16:46.018Z</time></trkpt><trkpt lat="46.3303004" lon="9.4833945"><ele>618.0</ele><time>2026-04-11T11:16:47.018Z</time></trkpt><trkpt lat="46.330188" lon="9.4834195"><ele>618.0</ele><time>2026-04-11T11:16:48.018Z</time></trkpt><trkpt lat="46.3300761" lon="9.4834372"><ele>618.0</ele><time>2026-04-11T11:16:49.018Z</time></trkpt><trkpt lat="46.3299695" lon="9.4834513"><ele>618.0</ele><time>2026-04-11T11:16:50.018Z</time></trkpt><trkpt lat="46.3298766" lon="9.4834662"><ele>618.0</ele><time>2026-04-11T11:16:51.017Z</time></trkpt><trkpt lat="46.3297812" lon="9.4834857"><ele>618.0</ele><time>2026-04-11T11:16:52.018Z</time></trkpt><trkpt lat="46.3296897" lon="9.4835272"><ele>614.3333333333334</ele><time>2026-04-11T11:16:53.017Z</time></trkpt><trkpt lat="46.3296138" lon="9.4836078"><ele>610.6666666666666</ele><time>2026-04-11T11:16:54.018Z</time></trkpt><trkpt lat="46.3295612" lon="9.483716"><ele>607.0</ele><time>2026-04-11T11:16:55.018Z</time></trkpt><trkpt lat="46.3295327" lon="9.4838374"><ele>603.3333333333333</ele><time>2026-04-11T11:16:56.018Z</time></trkpt><trkpt lat="46.3295329" lon="9.4839622"><ele>599.6666666666666</ele><time>2026-04-11T11:16:57.018Z</time></trkpt><trkpt lat="46.3295613" lon="9.4840759"><ele>596.0</ele><time>2026-04-11T11:16:58.018Z</time></trkpt><trkpt lat="46.3296163" lon="9.4841706"><ele>595.8</ele><time>2026-04-11T11:16:59.018Z</time></trkpt><trkpt lat="46.3296862" lon="9.4842527"><ele>595.6</ele><time>2026-04-11T11:17:00.018Z</time></trkpt><trkpt lat="46.3297637" lon="9.4843265"><ele>595.4</ele><time>2026-04-11T11:17:01.018Z</time></trkpt><trkpt lat="46.3298406" lon="9.484406"><ele>595.2</ele><time>2026-04-11T11:17:02.018Z</time></trkpt><trkpt lat="46.3299214" lon="9.4844898"><ele>595.0</ele><time>2026-04-11T11:17:03.018Z</time></trkpt><trkpt lat="46.329999" lon="9.4845868"><ele>600.6</ele><time>2026-04-11T11:17:04.018Z</time></trkpt><trkpt lat="46.3300614" lon="9.4847021"><ele>606.2</ele><time>2026-04-11T11:17:05.018Z</time></trkpt><trkpt lat="46.3301044" lon="9.4848391"><ele>611.8</ele><time>2026-04-11T11:17:06.018Z</time></trkpt><trkpt lat="46.3301251" lon="9.4849874"><ele>617.4</ele><time>2026-04-11T11:17:07.018Z</time></trkpt><trkpt lat="46.3301305" lon="9.4851402"><ele>623.0</ele><time>2026-04-11T11:17:08.018Z</time></trkpt><trkpt lat="46.3301361" lon="9.4853048"><ele>619.75</ele><time>2026-04-11T11:17:09.018Z</time></trkpt><trkpt lat="46.3301567" lon="9.485478"><ele>616.5</ele><time>2026-04-11T11:17:10.018Z</time></trkpt><trkpt lat="46.3301945" lon="9.4856631"><ele>613.25</ele><time>2026-04-11T11:17:11.018Z</time></trkpt><trkpt lat="46.3302535" lon="9.4858525"><ele>610.0</ele><time>2026-04-11T11:17:12.018Z</time></trkpt><trkpt lat="46.3303183" lon="9.4860212"><ele>610.0</ele><time>2026-04-11T11:17:13.018Z</time></trkpt><trkpt lat="46.3303804" lon="9.4861836"><ele>610.0</ele><time>2026-04-11T11:17:14.018Z</time></trkpt><trkpt lat="46.330446" lon="9.4863469"><ele>610.0</ele><time>2026-04-11T11:17:15.018Z</time></trkpt><trkpt lat="46.3305199" lon="9.4865024"><ele>610.0</ele><time>2026-04-11T11:17:16.018Z</time></trkpt><trkpt lat="46.330609" lon="9.486638"><ele>612.8</ele><time>2026-04-11T11:17:17.018Z</time></trkpt><trkpt lat="46.3306996" lon="9.4867492"><ele>615.6</ele><time>2026-04-11T11:17:18.018Z</time></trkpt><trkpt lat="46.330786" lon="9.4868466"><ele>618.4</ele><time>2026-04-11T11:17:19.018Z</time></trkpt><trkpt lat="46.3308741" lon="9.4869455"><ele>621.2</ele><time>2026-04-11T11:17:20.018Z</time></trkpt><trkpt lat="46.3309469" lon="9.4870557"><ele>624.0</ele><time>2026-04-11T11:17:21.018Z</time></trkpt><trkpt lat="46.3309948" lon="9.4871794"><ele>624.0</ele><time>2026-04-11T11:17:22.018Z</time></trkpt><trkpt lat="46.3310151" lon="9.4873143"><ele>624.0</ele><time>2026-04-11T11:17:23.018Z</time></trkpt><trkpt lat="46.3310095" lon="9.4874579"><ele>624.0</ele><time>2026-04-11T11:17:24.017Z</time></trkpt><trkpt lat="46.3309699" lon="9.4876137"><ele>624.0</ele><time>2026-04-11T11:17:25.018Z</time></trkpt><trkpt lat="46.3309063" lon="9.487777"><ele>624.0</ele><time>2026-04-11T11:17:26.018Z</time></trkpt><trkpt lat="46.3308467" lon="9.4879308"><ele>626.75</ele><time>2026-04-11T11:17:27.017Z</time></trkpt><trkpt lat="46.3307951" lon="9.4880804"><ele>629.5</ele><time>2026-04-11T11:17:28.018Z</time></trkpt><trkpt lat="46.3307445" lon="9.4882281"><ele>632.25</ele><time>2026-04-11T11:17:29.018Z</time></trkpt><trkpt lat="46.3306907" lon="9.4883777"><ele>635.0</ele><time>2026-04-11T11:17:30.018Z</time></trkpt><trkpt lat="46.3306369" lon="9.488523"><ele>635.0</ele><time>2026-04-11T11:17:31.018Z</time></trkpt><trkpt lat="46.3305873" lon="9.4886649"><ele>635.0</ele><time>2026-04-11T11:17:32.018Z</time></trkpt><trkpt lat="46.3305391" lon="9.4887986"><ele>635.0</ele><time>2026-04-11T11:17:33.018Z</time></trkpt><trkpt lat="46.3304934" lon="9.4889219"><ele>635.0</ele><time>2026-04-11T11:17:34.018Z</time></trkpt><trkpt lat="46.3304509" lon="9.4890414"><ele>635.0</ele><time>2026-04-11T11:17:35.017Z</time></trkpt><trkpt lat="46.3304071" lon="9.4891645"><ele>633.0</ele><time>2026-04-11T11:17:36.018Z</time></trkpt><trkpt lat="46.3303667" lon="9.4892978"><ele>631.0</ele><time>2026-04-11T11:17:37.018Z</time></trkpt><trkpt lat="46.3303243" lon="9.4894408"><ele>629.0</ele><time>2026-04-11T11:17:38.018Z</time></trkpt><trkpt lat="46.3302959" lon="9.4895904"><ele>627.0</ele><time>2026-04-11T11:17:39.018Z</time></trkpt><trkpt lat="46.3302771" lon="9.4897408"><ele>625.0</ele><time>2026-04-11T11:17:40.018Z</time></trkpt><trkpt lat="46.3302616" lon="9.4898959"><ele>625.0</ele><time>2026-04-11T11:17:41.018Z</time></trkpt><trkpt lat="46.3302614" lon="9.4900583"><ele>625.0</ele><time>2026-04-11T11:17:42.018Z</time></trkpt><trkpt lat="46.3302638" lon="9.490222"><ele>625.0</ele><time>2026-04-11T11:17:43.018Z</time></trkpt><trkpt lat="46.3302665" lon="9.4903864"><ele>625.0</ele><time>2026-04-11T11:17:44.018Z</time></trkpt><trkpt lat="46.3302794" lon="9.490539"><ele>625.0</ele><time>2026-04-11T11:17:45.018Z</time></trkpt><trkpt lat="46.3303014" lon="9.490682"><ele>625.2</ele><time>2026-04-11T11:17:46.018Z</time></trkpt><trkpt lat="46.3303406" lon="9.4908122"><ele>625.4</ele><time>2026-04-11T11:17:47.018Z</time></trkpt><trkpt lat="46.3303964" lon="9.4909292"><ele>625.6</ele><time>2026-04-11T11:17:48.018Z</time></trkpt><trkpt lat="46.3304602" lon="9.4910231"><ele>625.8</ele><time>2026-04-11T11:17:49.017Z</time></trkpt><trkpt lat="46.3305321" lon="9.4911027"><ele>626.0</ele><time>2026-04-11T11:17:50.018Z</time></trkpt><trkpt lat="46.3306158" lon="9.4911648"><ele>628.2</ele><time>2026-04-11T11:17:51.018Z</time></trkpt><trkpt lat="46.3307033" lon="9.4912135"><ele>630.4000000000001</ele><time>2026-04-11T11:17:52.018Z</time></trkpt><trkpt lat="46.3307943" lon="9.4912564"><ele>632.6</ele><time>2026-04-11T11:17:53.018Z</time></trkpt><trkpt lat="46.33089" lon="9.491301"><ele>634.8000000000001</ele><time>2026-04-11T11:17:54.018Z</time></trkpt><trkpt lat="46.3309921" lon="9.4913527"><ele>637.0</ele><time>2026-04-11T11:17:55.018Z</time></trkpt><trkpt lat="46.3310972" lon="9.4914145"><ele>637.0</ele><time>2026-04-11T11:17:56.018Z</time></trkpt><trkpt lat="46.3311947" lon="9.4914926"><ele>637.0</ele><time>2026-04-11T11:17:57.018Z</time></trkpt><trkpt lat="46.3312749" lon="9.4915943"><ele>637.0</ele><time>2026-04-11T11:17:58.018Z</time></trkpt><trkpt lat="46.3313278" lon="9.4917199"><ele>637.0</ele><time>2026-04-11T11:17:59.018Z</time></trkpt><trkpt lat="46.3313531" lon="9.4918602"><ele>637.0</ele><time>2026-04-11T11:18:00.018Z</time></trkpt><trkpt lat="46.3313517" lon="9.492007"><ele>635.25</ele><time>2026-04-11T11:18:01.018Z</time></trkpt><trkpt lat="46.3313343" lon="9.4921625"><ele>633.5</ele><time>2026-04-11T11:18:02.018Z</time></trkpt><trkpt lat="46.331303" lon="9.4923194"><ele>631.75</ele><time>2026-04-11T11:18:03.018Z</time></trkpt><trkpt lat="46.3312627" lon="9.4924866"><ele>630.0</ele><time>2026-04-11T11:18:04.018Z</time></trkpt><trkpt lat="46.3312199" lon="9.4926563"><ele>630.0</ele><time>2026-04-11T11:18:05.018Z</time></trkpt><trkpt lat="46.331179" lon="9.4928264"><ele>630.0</ele><time>2026-04-11T11:18:06.018Z</time></trkpt><trkpt lat="46.3311422" lon="9.4929929"><ele>630.0</ele><time>2026-04-11T11:18:07.018Z</time></trkpt><trkpt lat="46.3311161" lon="9.4931579"><ele>630.0</ele><time>2026-04-11T11:18:08.018Z</time></trkpt><trkpt lat="46.3311067" lon="9.49332"><ele>630.5</ele><time>2026-04-11T11:18:09.018Z</time></trkpt><trkpt lat="46.3311149" lon="9.4934891"><ele>631.0</ele><time>2026-04-11T11:18:10.018Z</time></trkpt><trkpt lat="46.3311389" lon="9.4936636"><ele>631.5</ele><time>2026-04-11T11:18:11.017Z</time></trkpt><trkpt lat="46.3311662" lon="9.4938394"><ele>632.0</ele><time>2026-04-11T11:18:12.018Z</time></trkpt><trkpt lat="46.3311928" lon="9.494008"><ele>632.0</ele><time>2026-04-11T11:18:13.018Z</time></trkpt><trkpt lat="46.331221" lon="9.4941718"><ele>632.0</ele><time>2026-04-11T11:18:14.018Z</time></trkpt><trkpt lat="46.3312479" lon="9.4943422"><ele>632.0</ele><time>2026-04-11T11:18:15.017Z</time></trkpt><trkpt lat="46.3312688" lon="9.4945155"><ele>632.0</ele><time>2026-04-11T11:18:16.018Z</time></trkpt><trkpt lat="46.3312862" lon="9.4946929"><ele>632.0</ele><time>2026-04-11T11:18:17.018Z</time></trkpt><trkpt lat="46.3313025" lon="9.4948742"><ele>632.0</ele><time>2026-04-11T11:18:18.018Z</time></trkpt><trkpt lat="46.3313115" lon="9.4950544"><ele>632.0</ele><time>2026-04-11T11:18:19.018Z</time></trkpt><trkpt lat="46.3313191" lon="9.4952444"><ele>632.0</ele><time>2026-04-11T11:18:20.018Z</time></trkpt><trkpt lat="46.3313258" lon="9.4954352"><ele>632.5</ele><time>2026-04-11T11:18:21.018Z</time></trkpt><trkpt lat="46.3313287" lon="9.4956289"><ele>633.0</ele><time>2026-04-11T11:18:22.018Z</time></trkpt><trkpt lat="46.3313225" lon="9.4958248"><ele>633.5</ele><time>2026-04-11T11:18:23.018Z</time></trkpt><trkpt lat="46.3313002" lon="9.4960117"><ele>634.0</ele><time>2026-04-11T11:18:24.018Z</time></trkpt><trkpt lat="46.331269" lon="9.4961971"><ele>634.0</ele><time>2026-04-11T11:18:25.018Z</time></trkpt><trkpt lat="46.3312349" lon="9.4963828"><ele>634.0</ele><time>2026-04-11T11:18:26.018Z</time></trkpt><trkpt lat="46.3311999" lon="9.4965693"><ele>634.0</ele><time>2026-04-11T11:18:27.018Z</time></trkpt><trkpt lat="46.3311641" lon="9.4967561"><ele>634.0</ele><time>2026-04-11T11:18:28.018Z</time></trkpt><trkpt lat="46.3311293" lon="9.4969447"><ele>634.25</ele><time>2026-04-11T11:18:29.018Z</time></trkpt><trkpt lat="46.3311025" lon="9.4971356"><ele>634.5</ele><time>2026-04-11T11:18:30.018Z</time></trkpt><trkpt lat="46.3310925" lon="9.4973243"><ele>634.75</ele><time>2026-04-11T11:18:31.018Z</time></trkpt><trkpt lat="46.3310943" lon="9.4975116"><ele>635.0</ele><time>2026-04-11T11:18:32.018Z</time></trkpt><trkpt lat="46.3310998" lon="9.4976879"><ele>635.0</ele><time>2026-04-11T11:18:33.017Z</time></trkpt><trkpt lat="46.3311113" lon="9.4978549"><ele>635.0</ele><time>2026-04-11T11:18:34.018Z</time></trkpt><trkpt lat="46.3311132" lon="9.4980193"><ele>635.0</ele><time>2026-04-11T11:18:35.018Z</time></trkpt><trkpt lat="46.3311194" lon="9.4981939"><ele>635.0</ele><time>2026-04-11T11:18:36.018Z</time></trkpt><trkpt lat="46.3311258" lon="9.4983764"><ele>635.0</ele><time>2026-04-11T11:18:37.018Z</time></trkpt><trkpt lat="46.3311376" lon="9.4985714"><ele>635.0</ele><time>2026-04-11T11:18:38.018Z</time></trkpt><trkpt lat="46.3311503" lon="9.4987609"><ele>635.0</ele><time>2026-04-11T11:18:39.018Z</time></trkpt><trkpt lat="46.3311608" lon="9.4989441"><ele>635.0</ele><time>2026-04-11T11:18:40.018Z</time></trkpt><trkpt lat="46.3311754" lon="9.4991301"><ele>635.0</ele><time>2026-04-11T11:18:41.018Z</time></trkpt><trkpt lat="46.3312002" lon="9.499314"><ele>635.0</ele><time>2026-04-11T11:18:42.018Z</time></trkpt><trkpt lat="46.3312384" lon="9.4994931"><ele>635.0</ele><time>2026-04-11T11:18:43.018Z</time></trkpt><trkpt lat="46.3312782" lon="9.4996663"><ele>635.0</ele><time>2026-04-11T11:18:44.018Z</time></trkpt><trkpt lat="46.331311" lon="9.4998297"><ele>633.75</ele><time>2026-04-11T11:18:45.018Z</time></trkpt><trkpt lat="46.3313405" lon="9.4999864"><ele>632.5</ele><time>2026-04-11T11:18:46.018Z</time></trkpt><trkpt lat="46.33137" lon="9.5001442"><ele>631.25</ele><time>2026-04-11T11:18:47.018Z</time></trkpt><trkpt lat="46.3314038" lon="9.5003063"><ele>630.0</ele><time>2026-04-11T11:18:48.018Z</time></trkpt><trkpt lat="46.3314374" lon="9.5004757"><ele>637.5</ele><time>2026-04-11T11:18:49.018Z</time></trkpt><trkpt lat="46.3314669" lon="9.5006494"><ele>645.0</ele><time>2026-04-11T11:18:50.017Z</time></trkpt><trkpt lat="46.3314943" lon="9.5008313"><ele>652.5</ele><time>2026-04-11T11:18:51.018Z</time></trkpt><trkpt lat="46.3315094" lon="9.5010121"><ele>660.0</ele><time>2026-04-11T11:18:52.017Z</time></trkpt><trkpt lat="46.3315212" lon="9.5011925"><ele>659.25</ele><time>2026-04-11T11:18:53.018Z</time></trkpt><trkpt lat="46.3315315" lon="9.5013731"><ele>658.5</ele><time>2026-04-11T11:18:54.018Z</time></trkpt><trkpt lat="46.3315451" lon="9.5015527"><ele>657.75</ele><time>2026-04-11T11:18:55.018Z</time></trkpt><trkpt lat="46.3315552" lon="9.5017204"><ele>657.0</ele><time>2026-04-11T11:18:56.018Z</time></trkpt><trkpt lat="46.3315648" lon="9.5018867"><ele>657.0</ele><time>2026-04-11T11:18:57.018Z</time></trkpt><trkpt lat="46.3315795" lon="9.5020585"><ele>657.0</ele><time>2026-04-11T11:18:58.018Z</time></trkpt><trkpt lat="46.3315952" lon="9.5022561"><ele>657.0</ele><time>2026-04-11T11:18:59.017Z</time></trkpt><trkpt lat="46.3316176" lon="9.502455"><ele>657.0</ele><time>2026-04-11T11:19:00.018Z</time></trkpt><trkpt lat="46.3316431" lon="9.5026582"><ele>657.0</ele><time>2026-04-11T11:19:01.018Z</time></trkpt><trkpt lat="46.3316695" lon="9.502865"><ele>657.0</ele><time>2026-04-11T11:19:02.018Z</time></trkpt><trkpt lat="46.3316835" lon="9.5030815"><ele>657.0</ele><time>2026-04-11T11:19:03.018Z</time></trkpt><trkpt lat="46.3316762" lon="9.5033006"><ele>657.0</ele><time>2026-04-11T11:19:04.018Z</time></trkpt><trkpt lat="46.3316527" lon="9.5035148"><ele>657.0</ele><time>2026-04-11T11:19:05.017Z</time></trkpt><trkpt lat="46.3316249" lon="9.5037097"><ele>657.0</ele><time>2026-04-11T11:19:06.018Z</time></trkpt><trkpt lat="46.3315962" lon="9.5038987"><ele>657.0</ele><time>2026-04-11T11:19:07.017Z</time></trkpt><trkpt lat="46.331579" lon="9.5040502"><ele>657.0</ele><time>2026-04-11T11:19:08.017Z</time></trkpt><trkpt lat="46.3315712" lon="9.5041671"><ele>657.6</ele><time>2026-04-11T11:19:09.017Z</time></trkpt><trkpt lat="46.3315726" lon="9.5043277"><ele>658.2</ele><time>2026-04-11T11:19:11.017Z</time></trkpt><trkpt lat="46.3315799" lon="9.5044349"><ele>658.8</ele><time>2026-04-11T11:19:13.017Z</time></trkpt><trkpt lat="46.3316071" lon="9.5046226"><ele>659.4</ele><time>2026-04-11T11:19:15.017Z</time></trkpt><trkpt lat="46.3316254" lon="9.5047601"><ele>660.0</ele><time>2026-04-11T11:19:16.016Z</time></trkpt><trkpt lat="46.3316498" lon="9.5049418"><ele>661.3333333333334</ele><time>2026-04-11T11:19:17.017Z</time></trkpt><trkpt lat="46.3316825" lon="9.5051604"><ele>662.6666666666667</ele><time>2026-04-11T11:19:18.017Z</time></trkpt><trkpt lat="46.3317145" lon="9.5054269"><ele>664.0</ele><time>2026-04-11T11:19:19.017Z</time></trkpt><trkpt lat="46.3317403" lon="9.5057077"><ele>664.6666666666667</ele><time>2026-04-11T11:19:20.016Z</time></trkpt><trkpt lat="46.3317625" lon="9.505995"><ele>665.3333333333334</ele><time>2026-04-11T11:19:21.016Z</time></trkpt><trkpt lat="46.3317892" lon="9.5062701"><ele>666.0</ele><time>2026-04-11T11:19:22.017Z</time></trkpt><trkpt lat="46.3318127" lon="9.5065226"><ele>663.3333333333334</ele><time>2026-04-11T11:19:23.017Z</time></trkpt><trkpt lat="46.3318391" lon="9.5067656"><ele>660.6666666666667</ele><time>2026-04-11T11:19:24.017Z</time></trkpt><trkpt lat="46.3318632" lon="9.5070117"><ele>658.0</ele><time>2026-04-11T11:19:25.017Z</time></trkpt><trkpt lat="46.3318959" lon="9.507248"><ele>656.3333333333334</ele><time>2026-04-11T11:19:26.017Z</time></trkpt><trkpt lat="46.3319428" lon="9.5074875"><ele>654.6666666666666</ele><time>2026-04-11T11:19:27.017Z</time></trkpt><trkpt lat="46.3320135" lon="9.5077271"><ele>653.0</ele><time>2026-04-11T11:19:28.017Z</time></trkpt><trkpt lat="46.3321102" lon="9.5079529"><ele>651.0</ele><time>2026-04-11T11:19:29.017Z</time></trkpt><trkpt lat="46.3322204" lon="9.5081707"><ele>649.0</ele><time>2026-04-11T11:19:30.017Z</time></trkpt><trkpt lat="46.3323145" lon="9.5083893"><ele>647.0</ele><time>2026-04-11T11:19:31.017Z</time></trkpt><trkpt lat="46.3323763" lon="9.5086282"><ele>655.25</ele><time>2026-04-11T11:19:32.017Z</time></trkpt><trkpt lat="46.3324147" lon="9.508855"><ele>663.5</ele><time>2026-04-11T11:19:33.016Z</time></trkpt><trkpt lat="46.3324311" lon="9.5090539"><ele>671.75</ele><time>2026-04-11T11:19:34.016Z</time></trkpt><trkpt lat="46.3324359" lon="9.5092267"><ele>680.0</ele><time>2026-04-11T11:19:35.017Z</time></trkpt><trkpt lat="46.3324353" lon="9.5093821"><ele>680.0</ele><time>2026-04-11T11:19:36.017Z</time></trkpt><trkpt lat="46.3324154" lon="9.5095313"><ele>680.0</ele><time>2026-04-11T11:19:37.017Z</time></trkpt><trkpt lat="46.3323883" lon="9.5096847"><ele>680.0</ele><time>2026-04-11T11:19:38.017Z</time></trkpt><trkpt lat="46.3323562" lon="9.5098436"><ele>680.0</ele><time>2026-04-11T11:19:39.017Z</time></trkpt><trkpt lat="46.3323287" lon="9.5100282"><ele>678.75</ele><time>2026-04-11T11:19:40.017Z</time></trkpt><trkpt lat="46.332302" lon="9.5102223"><ele>677.5</ele><time>2026-04-11T11:19:41.017Z</time></trkpt><trkpt lat="46.3322739" lon="9.5104149"><ele>676.25</ele><time>2026-04-11T11:19:42.017Z</time></trkpt><trkpt lat="46.332246" lon="9.5106114"><ele>675.0</ele><time>2026-04-11T11:19:43.017Z</time></trkpt><trkpt lat="46.3322267" lon="9.5108246"><ele>673.0</ele><time>2026-04-11T11:19:44.017Z</time></trkpt><trkpt lat="46.3322189" lon="9.5110255"><ele>671.0</ele><time>2026-04-11T11:19:45.017Z</time></trkpt><trkpt lat="46.3322215" lon="9.5112122"><ele>669.0</ele><time>2026-04-11T11:19:46.016Z</time></trkpt><trkpt lat="46.3322351" lon="9.5113899"><ele>667.0</ele><time>2026-04-11T11:19:47.017Z</time></trkpt><trkpt lat="46.3322489" lon="9.5115555"><ele>666.8</ele><time>2026-04-11T11:19:48.017Z</time></trkpt><trkpt lat="46.3322626" lon="9.5117109"><ele>666.6</ele><time>2026-04-11T11:19:49.017Z</time></trkpt><trkpt lat="46.3322734" lon="9.5118568"><ele>666.4</ele><time>2026-04-11T11:19:50.016Z</time></trkpt><trkpt lat="46.3322852" lon="9.5120022"><ele>666.1999999999999</ele><time>2026-04-11T11:19:51.017Z</time></trkpt><trkpt lat="46.3323044" lon="9.5121612"><ele>666.0</ele><time>2026-04-11T11:19:52.017Z</time></trkpt><trkpt lat="46.3323305" lon="9.5123296"><ele>665.8</ele><time>2026-04-11T11:19:53.017Z</time></trkpt><trkpt lat="46.332359" lon="9.5124776"><ele>665.5999999999999</ele><time>2026-04-11T11:19:54.017Z</time></trkpt><trkpt lat="46.3323878" lon="9.5126139"><ele>665.4</ele><time>2026-04-11T11:19:55.017Z</time></trkpt><trkpt lat="46.3324152" lon="9.5127393"><ele>665.2</ele><time>2026-04-11T11:19:56.017Z</time></trkpt><trkpt lat="46.3324447" lon="9.5128543"><ele>665.0</ele><time>2026-04-11T11:19:57.017Z</time></trkpt><trkpt lat="46.3324721" lon="9.5129669"><ele>665.4</ele><time>2026-04-11T11:19:58.017Z</time></trkpt><trkpt lat="46.3324993" lon="9.5130741"><ele>665.8</ele><time>2026-04-11T11:19:59.017Z</time></trkpt><trkpt lat="46.332525" lon="9.5131696"><ele>666.2</ele><time>2026-04-11T11:20:00.017Z</time></trkpt><trkpt lat="46.3325711" lon="9.5133302"><ele>666.6</ele><time>2026-04-11T11:20:02.017Z</time></trkpt><trkpt lat="46.3326161" lon="9.513489"><ele>667.0</ele><time>2026-04-11T11:20:04.017Z</time></trkpt><trkpt lat="46.3326486" lon="9.5135969"><ele>667.0</ele><time>2026-04-11T11:20:05.017Z</time></trkpt><trkpt lat="46.332682" lon="9.5137266"><ele>667.0</ele><time>2026-04-11T11:20:06.017Z</time></trkpt><trkpt lat="46.3327327" lon="9.5138456"><ele>667.0</ele><time>2026-04-11T11:20:07.017Z</time></trkpt><trkpt lat="46.3327702" lon="9.5139685"><ele>667.0</ele><time>2026-04-11T11:20:08.017Z</time></trkpt><trkpt lat="46.3328067" lon="9.5140913"><ele>667.0</ele><time>2026-04-11T11:20:09.017Z</time></trkpt><trkpt lat="46.3328389" lon="9.5142067"><ele>667.8</ele><time>2026-04-11T11:20:10.017Z</time></trkpt><trkpt lat="46.3328636" lon="9.5143108"><ele>668.6</ele><time>2026-04-11T11:20:11.016Z</time></trkpt><trkpt lat="46.3328847" lon="9.5144049"><ele>669.4</ele><time>2026-04-11T11:20:12.017Z</time></trkpt><trkpt lat="46.3329091" lon="9.5145676"><ele>670.1999999999999</ele><time>2026-04-11T11:20:14.017Z</time></trkpt><trkpt lat="46.3329228" lon="9.5147352"><ele>671.0</ele><time>2026-04-11T11:20:16.017Z</time></trkpt><trkpt lat="46.3329343" lon="9.5148559"><ele>672.5999999999999</ele><time>2026-04-11T11:20:17.017Z</time></trkpt><trkpt lat="46.3329454" lon="9.5149852"><ele>674.2</ele><time>2026-04-11T11:20:18.017Z</time></trkpt><trkpt lat="46.3329396" lon="9.5150897"><ele>675.8</ele><time>2026-04-11T11:20:19.017Z</time></trkpt><trkpt lat="46.3329066" lon="9.5152431"><ele>677.4000000000001</ele><time>2026-04-11T11:20:21.017Z</time></trkpt><trkpt lat="46.3328549" lon="9.5153577"><ele>679.0</ele><time>2026-04-11T11:20:23.017Z</time></trkpt><trkpt lat="46.3328566" lon="9.5155228"><ele>680.0</ele><time>2026-04-11T11:20:25.016Z</time></trkpt><trkpt lat="46.3328803" lon="9.5156393"><ele>681.0</ele><time>2026-04-11T11:20:26.016Z</time></trkpt><trkpt lat="46.3329166" lon="9.5157921"><ele>682.0</ele><time>2026-04-11T11:20:27.017Z</time></trkpt><trkpt lat="46.3329308" lon="9.5159284"><ele>683.0</ele><time>2026-04-11T11:20:28.017Z</time></trkpt><trkpt lat="46.3329453" lon="9.5160596"><ele>684.0</ele><time>2026-04-11T11:20:29.017Z</time></trkpt><trkpt lat="46.3329545" lon="9.5161866"><ele>684.2</ele><time>2026-04-11T11:20:30.017Z</time></trkpt><trkpt lat="46.3329647" lon="9.5163083"><ele>684.4000000000001</ele><time>2026-04-11T11:20:31.017Z</time></trkpt><trkpt lat="46.3329821" lon="9.5164341"><ele>684.6</ele><time>2026-04-11T11:20:32.017Z</time></trkpt><trkpt lat="46.3330015" lon="9.5165672"><ele>684.8</ele><time>2026-04-11T11:20:33.017Z</time></trkpt><trkpt lat="46.3330181" lon="9.5167108"><ele>685.0</ele><time>2026-04-11T11:20:34.017Z</time></trkpt><trkpt lat="46.3330406" lon="9.5168901"><ele>686.25</ele><time>2026-04-11T11:20:35.017Z</time></trkpt><trkpt lat="46.3330772" lon="9.5170741"><ele>687.5</ele><time>2026-04-11T11:20:36.017Z</time></trkpt><trkpt lat="46.3331271" lon="9.5172676"><ele>688.75</ele><time>2026-04-11T11:20:37.017Z</time></trkpt><trkpt lat="46.3331874" lon="9.5174485"><ele>690.0</ele><time>2026-04-11T11:20:38.016Z</time></trkpt><trkpt lat="46.3332518" lon="9.5176182"><ele>690.0</ele><time>2026-04-11T11:20:39.017Z</time></trkpt><trkpt lat="46.3333193" lon="9.5177886"><ele>690.0</ele><time>2026-04-11T11:20:40.017Z</time></trkpt><trkpt lat="46.3333856" lon="9.5179567"><ele>690.0</ele><time>2026-04-11T11:20:41.017Z</time></trkpt><trkpt lat="46.3334468" lon="9.5181173"><ele>690.0</ele><time>2026-04-11T11:20:42.017Z</time></trkpt><trkpt lat="46.3335111" lon="9.5182833"><ele>690.25</ele><time>2026-04-11T11:20:43.017Z</time></trkpt><trkpt lat="46.3335669" lon="9.5184358"><ele>690.5</ele><time>2026-04-11T11:20:44.017Z</time></trkpt><trkpt lat="46.3336294" lon="9.5185879"><ele>690.75</ele><time>2026-04-11T11:20:45.017Z</time></trkpt><trkpt lat="46.3336844" lon="9.5187266"><ele>691.0</ele><time>2026-04-11T11:20:46.017Z</time></trkpt><trkpt lat="46.3337389" lon="9.5188639"><ele>693.75</ele><time>2026-04-11T11:20:47.017Z</time></trkpt><trkpt lat="46.3337958" lon="9.5190307"><ele>696.5</ele><time>2026-04-11T11:20:48.017Z</time></trkpt><trkpt lat="46.3338468" lon="9.5191738"><ele>699.25</ele><time>2026-04-11T11:20:49.017Z</time></trkpt><trkpt lat="46.3338963" lon="9.5193179"><ele>702.0</ele><time>2026-04-11T11:20:50.017Z</time></trkpt><trkpt lat="46.333944" lon="9.5194776"><ele>702.5</ele><time>2026-04-11T11:20:51.017Z</time></trkpt><trkpt lat="46.3339868" lon="9.5196307"><ele>703.0</ele><time>2026-04-11T11:20:52.017Z</time></trkpt><trkpt lat="46.3340232" lon="9.5198047"><ele>703.5</ele><time>2026-04-11T11:20:53.017Z</time></trkpt><trkpt lat="46.3340539" lon="9.5199807"><ele>704.0</ele><time>2026-04-11T11:20:54.017Z</time></trkpt><trkpt lat="46.334086" lon="9.5201618"><ele>704.0</ele><time>2026-04-11T11:20:55.017Z</time></trkpt><trkpt lat="46.3341233" lon="9.5203596"><ele>704.0</ele><time>2026-04-11T11:20:56.017Z</time></trkpt><trkpt lat="46.3341528" lon="9.5205225"><ele>704.0</ele><time>2026-04-11T11:20:57.017Z</time></trkpt><trkpt lat="46.3342" lon="9.5206811"><ele>704.0</ele><time>2026-04-11T11:20:58.016Z</time></trkpt><trkpt lat="46.3342178" lon="9.52084"><ele>704.75</ele><time>2026-04-11T11:20:59.017Z</time></trkpt><trkpt lat="46.3342288" lon="9.5210066"><ele>705.5</ele><time>2026-04-11T11:21:00.017Z</time></trkpt><trkpt lat="46.3342433" lon="9.5211795"><ele>706.25</ele><time>2026-04-11T11:21:01.016Z</time></trkpt><trkpt lat="46.3342444" lon="9.5213559"><ele>707.0</ele><time>2026-04-11T11:21:02.017Z</time></trkpt><trkpt lat="46.3342388" lon="9.5215279"><ele>709.0</ele><time>2026-04-11T11:21:03.016Z</time></trkpt><trkpt lat="46.3342267" lon="9.5217023"><ele>711.0</ele><time>2026-04-11T11:21:04.016Z</time></trkpt><trkpt lat="46.3342097" lon="9.5218803"><ele>713.0</ele><time>2026-04-11T11:21:05.017Z</time></trkpt><trkpt lat="46.3341871" lon="9.5220644"><ele>715.0</ele><time>2026-04-11T11:21:06.017Z</time></trkpt><trkpt lat="46.3341536" lon="9.522242"><ele>717.75</ele><time>2026-04-11T11:21:07.017Z</time></trkpt><trkpt lat="46.3341184" lon="9.5224191"><ele>720.5</ele><time>2026-04-11T11:21:08.016Z</time></trkpt><trkpt lat="46.3340791" lon="9.5225867"><ele>723.25</ele><time>2026-04-11T11:21:09.017Z</time></trkpt><trkpt lat="46.3340356" lon="9.5227523"><ele>726.0</ele><time>2026-04-11T11:21:10.016Z</time></trkpt><trkpt lat="46.3339913" lon="9.522914"><ele>727.5</ele><time>2026-04-11T11:21:11.017Z</time></trkpt><trkpt lat="46.3339477" lon="9.5230712"><ele>729.0</ele><time>2026-04-11T11:21:12.017Z</time></trkpt><trkpt lat="46.3339076" lon="9.5232286"><ele>730.5</ele><time>2026-04-11T11:21:13.017Z</time></trkpt><trkpt lat="46.333872" lon="9.5233867"><ele>732.0</ele><time>2026-04-11T11:21:14.017Z</time></trkpt><trkpt lat="46.3338415" lon="9.523549"><ele>732.0</ele><time>2026-04-11T11:21:15.017Z</time></trkpt><trkpt lat="46.3338201" lon="9.5237201"><ele>732.0</ele><time>2026-04-11T11:21:16.017Z</time></trkpt><trkpt lat="46.3338032" lon="9.5238941"><ele>732.0</ele><time>2026-04-11T11:21:17.016Z</time></trkpt><trkpt lat="46.3337929" lon="9.5240668"><ele>732.0</ele><time>2026-04-11T11:21:18.016Z</time></trkpt><trkpt lat="46.3337908" lon="9.5242443"><ele>733.0</ele><time>2026-04-11T11:21:19.016Z</time></trkpt><trkpt lat="46.333797" lon="9.524423"><ele>734.0</ele><time>2026-04-11T11:21:20.017Z</time></trkpt><trkpt lat="46.3338052" lon="9.5246068"><ele>735.0</ele><time>2026-04-11T11:21:21.017Z</time></trkpt><trkpt lat="46.3338105" lon="9.5247876"><ele>736.0</ele><time>2026-04-11T11:21:22.017Z</time></trkpt><trkpt lat="46.3338106" lon="9.524968"><ele>737.0</ele><time>2026-04-11T11:21:23.017Z</time></trkpt><trkpt lat="46.3338041" lon="9.5251502"><ele>738.0</ele><time>2026-04-11T11:21:24.017Z</time></trkpt><trkpt lat="46.3337848" lon="9.5253282"><ele>739.0</ele><time>2026-04-11T11:21:25.017Z</time></trkpt><trkpt lat="46.3337444" lon="9.5254968"><ele>740.0</ele><time>2026-04-11T11:21:26.017Z</time></trkpt><trkpt lat="46.3336898" lon="9.5256633"><ele>740.75</ele><time>2026-04-11T11:21:27.017Z</time></trkpt><trkpt lat="46.3336263" lon="9.5258215"><ele>741.5</ele><time>2026-04-11T11:21:28.017Z</time></trkpt><trkpt lat="46.3335559" lon="9.5259734"><ele>742.25</ele><time>2026-04-11T11:21:29.017Z</time></trkpt><trkpt lat="46.3334804" lon="9.5261229"><ele>743.0</ele><time>2026-04-11T11:21:30.017Z</time></trkpt><trkpt lat="46.3334085" lon="9.5262758"><ele>744.25</ele><time>2026-04-11T11:21:31.017Z</time></trkpt><trkpt lat="46.3333404" lon="9.5264289"><ele>745.5</ele><time>2026-04-11T11:21:32.017Z</time></trkpt><trkpt lat="46.3332769" lon="9.5265769"><ele>746.75</ele><time>2026-04-11T11:21:33.017Z</time></trkpt><trkpt lat="46.3332281" lon="9.5267157"><ele>748.0</ele><time>2026-04-11T11:21:34.017Z</time></trkpt><trkpt lat="46.3331953" lon="9.5268631"><ele>748.0</ele><time>2026-04-11T11:21:35.017Z</time></trkpt><trkpt lat="46.3331787" lon="9.5270225"><ele>748.0</ele><time>2026-04-11T11:21:36.017Z</time></trkpt><trkpt lat="46.3331863" lon="9.5271971"><ele>748.0</ele><time>2026-04-11T11:21:37.017Z</time></trkpt><trkpt lat="46.3332041" lon="9.527372"><ele>748.0</ele><time>2026-04-11T11:21:38.017Z</time></trkpt><trkpt lat="46.3332241" lon="9.5275436"><ele>750.5</ele><time>2026-04-11T11:21:39.017Z</time></trkpt><trkpt lat="46.3332493" lon="9.527718"><ele>753.0</ele><time>2026-04-11T11:21:40.016Z</time></trkpt><trkpt lat="46.3332788" lon="9.5279174"><ele>755.5</ele><time>2026-04-11T11:21:41.017Z</time></trkpt><trkpt lat="46.3333141" lon="9.5281505"><ele>758.0</ele><time>2026-04-11T11:21:42.017Z</time></trkpt><trkpt lat="46.3333561" lon="9.5283918"><ele>760.6666666666666</ele><time>2026-04-11T11:21:43.017Z</time></trkpt><trkpt lat="46.3333957" lon="9.5286358"><ele>763.3333333333334</ele><time>2026-04-11T11:21:44.017Z</time></trkpt><trkpt lat="46.3334299" lon="9.5288608"><ele>766.0</ele><time>2026-04-11T11:21:45.017Z</time></trkpt><trkpt lat="46.3334589" lon="9.5290659"><ele>766.0</ele><time>2026-04-11T11:21:46.017Z</time></trkpt><trkpt lat="46.3334803" lon="9.5292771"><ele>766.0</ele><time>2026-04-11T11:21:47.017Z</time></trkpt><trkpt lat="46.3334887" lon="9.5294867"><ele>766.0</ele><time>2026-04-11T11:21:48.017Z</time></trkpt><trkpt lat="46.3334805" lon="9.5297004"><ele>766.0</ele><time>2026-04-11T11:21:49.017Z</time></trkpt><trkpt lat="46.3334638" lon="9.5299108"><ele>766.0</ele><time>2026-04-11T11:21:50.017Z</time></trkpt><trkpt lat="46.3334478" lon="9.5301181"><ele>766.0</ele><time>2026-04-11T11:21:51.017Z</time></trkpt><trkpt lat="46.3334432" lon="9.5303286"><ele>766.0</ele><time>2026-04-11T11:21:52.017Z</time></trkpt><trkpt lat="46.3334518" lon="9.5305366"><ele>766.0</ele><time>2026-04-11T11:21:53.017Z</time></trkpt><trkpt lat="46.3334705" lon="9.5307391"><ele>766.0</ele><time>2026-04-11T11:21:54.017Z</time></trkpt><trkpt lat="46.3334981" lon="9.5309343"><ele>766.0</ele><time>2026-04-11T11:21:55.017Z</time></trkpt><trkpt lat="46.3335346" lon="9.5311136"><ele>766.0</ele><time>2026-04-11T11:21:56.017Z</time></trkpt><trkpt lat="46.3335854" lon="9.5312785"><ele>766.0</ele><time>2026-04-11T11:21:57.017Z</time></trkpt><trkpt lat="46.3336629" lon="9.5314332"><ele>765.75</ele><time>2026-04-11T11:21:58.017Z</time></trkpt><trkpt lat="46.3337527" lon="9.531571"><ele>765.5</ele><time>2026-04-11T11:21:59.017Z</time></trkpt><trkpt lat="46.3338505" lon="9.5317031"><ele>765.25</ele><time>2026-04-11T11:22:00.017Z</time></trkpt><trkpt lat="46.3339468" lon="9.5318362"><ele>765.0</ele><time>2026-04-11T11:22:01.017Z</time></trkpt><trkpt lat="46.3340494" lon="9.5319785"><ele>767.0</ele><time>2026-04-11T11:22:02.016Z</time></trkpt><trkpt lat="46.3341579" lon="9.5321208"><ele>769.0</ele><time>2026-04-11T11:22:03.017Z</time></trkpt><trkpt lat="46.3342574" lon="9.5322597"><ele>771.0</ele><time>2026-04-11T11:22:04.017Z</time></trkpt><trkpt lat="46.3343516" lon="9.5324169"><ele>773.0</ele><time>2026-04-11T11:22:05.017Z</time></trkpt><trkpt lat="46.3344305" lon="9.5325976"><ele>773.0</ele><time>2026-04-11T11:22:06.017Z</time></trkpt><trkpt lat="46.3344954" lon="9.5327871"><ele>773.0</ele><time>2026-04-11T11:22:07.017Z</time></trkpt><trkpt lat="46.3345444" lon="9.5329828"><ele>773.0</ele><time>2026-04-11T11:22:08.017Z</time></trkpt><trkpt lat="46.3345795" lon="9.5331895"><ele>773.0</ele><time>2026-04-11T11:22:09.016Z</time></trkpt><trkpt lat="46.3346035" lon="9.5334048"><ele>772.3333333333334</ele><time>2026-04-11T11:22:10.017Z</time></trkpt><trkpt lat="46.3346136" lon="9.533627"><ele>771.6666666666667</ele><time>2026-04-11T11:22:11.017Z</time></trkpt><trkpt lat="46.3346109" lon="9.5338518"><ele>771.0</ele><time>2026-04-11T11:22:12.017Z</time></trkpt><trkpt lat="46.3345939" lon="9.5340787"><ele>771.0</ele><time>2026-04-11T11:22:13.017Z</time></trkpt><trkpt lat="46.3345675" lon="9.5343188"><ele>771.0</ele><time>2026-04-11T11:22:14.017Z</time></trkpt><trkpt lat="46.3345441" lon="9.5345756"><ele>771.0</ele><time>2026-04-11T11:22:15.017Z</time></trkpt><trkpt lat="46.3345178" lon="9.5348718"><ele>772.6666666666667</ele><time>2026-04-11T11:22:16.017Z</time></trkpt><trkpt lat="46.3344831" lon="9.5351702"><ele>774.3333333333334</ele><time>2026-04-11T11:22:17.017Z</time></trkpt><trkpt lat="46.3344426" lon="9.5354806"><ele>776.0</ele><time>2026-04-11T11:22:18.017Z</time></trkpt><trkpt lat="46.3344078" lon="9.5357809"><ele>776.0</ele><time>2026-04-11T11:22:19.017Z</time></trkpt><trkpt lat="46.334382" lon="9.536063"><ele>776.0</ele><time>2026-04-11T11:22:20.017Z</time></trkpt><trkpt lat="46.3343675" lon="9.5363451"><ele>776.0</ele><time>2026-04-11T11:22:21.017Z</time></trkpt><trkpt lat="46.3343621" lon="9.5366291"><ele>776.0</ele><time>2026-04-11T11:22:22.017Z</time></trkpt><trkpt lat="46.3343657" lon="9.5369028"><ele>776.0</ele><time>2026-04-11T11:22:23.017Z</time></trkpt><trkpt lat="46.3343769" lon="9.537163"><ele>776.0</ele><time>2026-04-11T11:22:24.017Z</time></trkpt><trkpt lat="46.3343875" lon="9.5374138"><ele>776.3333333333334</ele><time>2026-04-11T11:22:25.017Z</time></trkpt><trkpt lat="46.3344113" lon="9.5376778"><ele>776.6666666666667</ele><time>2026-04-11T11:22:26.017Z</time></trkpt><trkpt lat="46.3344535" lon="9.537952"><ele>777.0</ele><time>2026-04-11T11:22:27.017Z</time></trkpt><trkpt lat="46.3345183" lon="9.5382264"><ele>778.3333333333333</ele><time>2026-04-11T11:22:28.017Z</time></trkpt><trkpt lat="46.3346027" lon="9.5384979"><ele>779.6666666666666</ele><time>2026-04-11T11:22:29.017Z</time></trkpt><trkpt lat="46.3346926" lon="9.5387796"><ele>781.0</ele><time>2026-04-11T11:22:30.017Z</time></trkpt><trkpt lat="46.33478" lon="9.5390608"><ele>784.3333333333333</ele><time>2026-04-11T11:22:31.017Z</time></trkpt><trkpt lat="46.3348647" lon="9.5393435"><ele>787.6666666666667</ele><time>2026-04-11T11:22:32.017Z</time></trkpt><trkpt lat="46.3349528" lon="9.5396245"><ele>791.0</ele><time>2026-04-11T11:22:33.017Z</time></trkpt><trkpt lat="46.3350556" lon="9.5399037"><ele>791.0</ele><time>2026-04-11T11:22:34.017Z</time></trkpt><trkpt lat="46.3351637" lon="9.5401782"><ele>791.0</ele><time>2026-04-11T11:22:35.017Z</time></trkpt><trkpt lat="46.3352766" lon="9.5404557"><ele>791.0</ele><time>2026-04-11T11:22:36.017Z</time></trkpt><trkpt lat="46.3353824" lon="9.540734"><ele>788.3333333333334</ele><time>2026-04-11T11:22:37.017Z</time></trkpt><trkpt lat="46.3354777" lon="9.5410077"><ele>785.6666666666667</ele><time>2026-04-11T11:22:38.017Z</time></trkpt><trkpt lat="46.3355642" lon="9.5412772"><ele>783.0</ele><time>2026-04-11T11:22:39.017Z</time></trkpt><trkpt lat="46.3356298" lon="9.5415567"><ele>786.3333333333333</ele><time>2026-04-11T11:22:40.017Z</time></trkpt><trkpt lat="46.3356845" lon="9.541837"><ele>789.6666666666666</ele><time>2026-04-11T11:22:41.017Z</time></trkpt><trkpt lat="46.3357433" lon="9.5421074"><ele>793.0</ele><time>2026-04-11T11:22:42.017Z</time></trkpt><trkpt lat="46.3358224" lon="9.5423667"><ele>793.0</ele><time>2026-04-11T11:22:43.017Z</time></trkpt><trkpt lat="46.3359242" lon="9.5426165"><ele>793.0</ele><time>2026-04-11T11:22:44.017Z</time></trkpt><trkpt lat="46.3360443" lon="9.5428543"><ele>793.0</ele><time>2026-04-11T11:22:45.016Z</time></trkpt><trkpt lat="46.3361617" lon="9.5430931"><ele>790.3333333333333</ele><time>2026-04-11T11:22:46.017Z</time></trkpt><trkpt lat="46.3362658" lon="9.5433412"><ele>787.6666666666667</ele><time>2026-04-11T11:22:47.017Z</time></trkpt><trkpt lat="46.3363558" lon="9.5436016"><ele>785.0</ele><time>2026-04-11T11:22:48.017Z</time></trkpt><trkpt lat="46.3364255" lon="9.543871"><ele>793.3333333333334</ele><time>2026-04-11T11:22:49.017Z</time></trkpt><trkpt lat="46.3364762" lon="9.5441462"><ele>801.6666666666667</ele><time>2026-04-11T11:22:50.017Z</time></trkpt><trkpt lat="46.3365105" lon="9.5444284"><ele>810.0</ele><time>2026-04-11T11:22:51.017Z</time></trkpt><trkpt lat="46.3365283" lon="9.544708"><ele>810.0</ele><time>2026-04-11T11:22:52.017Z</time></trkpt><trkpt lat="46.3365288" lon="9.5449854"><ele>810.0</ele><time>2026-04-11T11:22:53.017Z</time></trkpt><trkpt lat="46.336508" lon="9.5452571"><ele>810.0</ele><time>2026-04-11T11:22:54.017Z</time></trkpt><trkpt lat="46.3364766" lon="9.5455286"><ele>810.0</ele><time>2026-04-11T11:22:55.017Z</time></trkpt><trkpt lat="46.3364347" lon="9.5458023"><ele>810.0</ele><time>2026-04-11T11:22:56.017Z</time></trkpt><trkpt lat="46.3363846" lon="9.5460753"><ele>810.0</ele><time>2026-04-11T11:22:57.017Z</time></trkpt><trkpt lat="46.3363314" lon="9.5463519"><ele>803.6666666666667</ele><time>2026-04-11T11:22:58.017Z</time></trkpt><trkpt lat="46.3362767" lon="9.546632"><ele>797.3333333333334</ele><time>2026-04-11T11:22:59.017Z</time></trkpt><trkpt lat="46.3362216" lon="9.546913"><ele>791.0</ele><time>2026-04-11T11:23:00.017Z</time></trkpt><trkpt lat="46.3361717" lon="9.5471952"><ele>791.0</ele><time>2026-04-11T11:23:01.017Z</time></trkpt><trkpt lat="46.3361253" lon="9.5474752"><ele>791.0</ele><time>2026-04-11T11:23:02.017Z</time></trkpt><trkpt lat="46.3360888" lon="9.5477585"><ele>791.0</ele><time>2026-04-11T11:23:03.017Z</time></trkpt><trkpt lat="46.336062" lon="9.5480385"><ele>791.3333333333334</ele><time>2026-04-11T11:23:04.017Z</time></trkpt><trkpt lat="46.3360462" lon="9.5483185"><ele>791.6666666666667</ele><time>2026-04-11T11:23:05.017Z</time></trkpt><trkpt lat="46.3360408" lon="9.548599"><ele>792.0</ele><time>2026-04-11T11:23:06.017Z</time></trkpt><trkpt lat="46.3360506" lon="9.5488807"><ele>792.3333333333333</ele><time>2026-04-11T11:23:07.017Z</time></trkpt><trkpt lat="46.3360704" lon="9.5491596"><ele>792.6666666666666</ele><time>2026-04-11T11:23:08.017Z</time></trkpt><trkpt lat="46.3361026" lon="9.5494368"><ele>793.0</ele><time>2026-04-11T11:23:09.017Z</time></trkpt><trkpt lat="46.3361472" lon="9.5497113"><ele>793.6666666666666</ele><time>2026-04-11T11:23:10.017Z</time></trkpt><trkpt lat="46.3361995" lon="9.5499795"><ele>794.3333333333333</ele><time>2026-04-11T11:23:11.016Z</time></trkpt><trkpt lat="46.3362647" lon="9.5502408"><ele>795.0</ele><time>2026-04-11T11:23:12.017Z</time></trkpt><trkpt lat="46.3363398" lon="9.5504926"><ele>797.6666666666667</ele><time>2026-04-11T11:23:13.017Z</time></trkpt><trkpt lat="46.3364217" lon="9.5507424"><ele>800.3333333333334</ele><time>2026-04-11T11:23:14.017Z</time></trkpt><trkpt lat="46.3365111" lon="9.5509856"><ele>803.0</ele><time>2026-04-11T11:23:15.016Z</time></trkpt><trkpt lat="46.3365995" lon="9.5512236"><ele>803.0</ele><time>2026-04-11T11:23:16.016Z</time></trkpt><trkpt lat="46.3366834" lon="9.5514542"><ele>803.0</ele><time>2026-04-11T11:23:17.017Z</time></trkpt><trkpt lat="46.3367569" lon="9.5516698"><ele>803.0</ele><time>2026-04-11T11:23:18.017Z</time></trkpt><trkpt lat="46.3368148" lon="9.5518563"><ele>803.0</ele><time>2026-04-11T11:23:19.017Z</time></trkpt><trkpt lat="46.3368613" lon="9.5520255"><ele>803.0</ele><time>2026-04-11T11:23:20.017Z</time></trkpt><trkpt lat="46.3368926" lon="9.5521826"><ele>803.0</ele><time>2026-04-11T11:23:21.017Z</time></trkpt><trkpt lat="46.3369018" lon="9.5523171"><ele>803.0</ele><time>2026-04-11T11:23:22.017Z</time></trkpt><trkpt lat="46.336896" lon="9.5524411"><ele>803.0</ele><time>2026-04-11T11:23:23.017Z</time></trkpt><trkpt lat="46.3368755" lon="9.5525458"><ele>803.0000000000001</ele><time>2026-04-11T11:23:24.017Z</time></trkpt><trkpt lat="46.3368631" lon="9.5526354"><ele>803.0</ele><time>2026-04-11T11:23:25.016Z</time></trkpt><trkpt lat="46.3368711" lon="9.5527279"><ele>803.0</ele><time>2026-04-11T11:23:26.016Z</time></trkpt><trkpt lat="46.3369056" lon="9.5528206"><ele>803.0</ele><time>2026-04-11T11:23:27.017Z</time></trkpt><trkpt lat="46.3369676" lon="9.5529256"><ele>803.0000000000001</ele><time>2026-04-11T11:23:28.017Z</time></trkpt><trkpt lat="46.3370175" lon="9.553058"><ele>803.0</ele><time>2026-04-11T11:23:29.017Z</time></trkpt><trkpt lat="46.3370525" lon="9.5532242"><ele>804.6666666666667</ele><time>2026-04-11T11:23:30.017Z</time></trkpt><trkpt lat="46.3370781" lon="9.5534262"><ele>806.3333333333333</ele><time>2026-04-11T11:23:31.017Z</time></trkpt><trkpt lat="46.337091" lon="9.5536651"><ele>808.0</ele><time>2026-04-11T11:23:32.016Z</time></trkpt><trkpt lat="46.3370869" lon="9.5539441"><ele>808.0</ele><time>2026-04-11T11:23:33.017Z</time></trkpt><trkpt lat="46.3370778" lon="9.5542213"><ele>808.0</ele><time>2026-04-11T11:23:34.017Z</time></trkpt><trkpt lat="46.337064" lon="9.5544762"><ele>808.0</ele><time>2026-04-11T11:23:35.017Z</time></trkpt><trkpt lat="46.3370576" lon="9.5547157"><ele>808.0</ele><time>2026-04-11T11:23:36.017Z</time></trkpt><trkpt lat="46.3370433" lon="9.5549372"><ele>808.0</ele><time>2026-04-11T11:23:37.017Z</time></trkpt><trkpt lat="46.3370323" lon="9.5551529"><ele>808.0</ele><time>2026-04-11T11:23:38.017Z</time></trkpt><trkpt lat="46.3370174" lon="9.5553737"><ele>809.25</ele><time>2026-04-11T11:23:39.017Z</time></trkpt><trkpt lat="46.3370091" lon="9.5555822"><ele>810.5</ele><time>2026-04-11T11:23:40.017Z</time></trkpt><trkpt lat="46.3369959" lon="9.555793"><ele>811.75</ele><time>2026-04-11T11:23:41.017Z</time></trkpt><trkpt lat="46.3369828" lon="9.5559951"><ele>813.0</ele><time>2026-04-11T11:23:42.017Z</time></trkpt><trkpt lat="46.336979" lon="9.5561919"><ele>815.25</ele><time>2026-04-11T11:23:43.017Z</time></trkpt><trkpt lat="46.3369747" lon="9.5563904"><ele>817.5</ele><time>2026-04-11T11:23:44.017Z</time></trkpt><trkpt lat="46.3369759" lon="9.5565696"><ele>819.75</ele><time>2026-04-11T11:23:45.017Z</time></trkpt><trkpt lat="46.3369797" lon="9.5567431"><ele>822.0</ele><time>2026-04-11T11:23:46.017Z</time></trkpt><trkpt lat="46.3369869" lon="9.5569086"><ele>827.0</ele><time>2026-04-11T11:23:47.016Z</time></trkpt><trkpt lat="46.3370038" lon="9.5570668"><ele>832.0</ele><time>2026-04-11T11:23:48.017Z</time></trkpt><trkpt lat="46.3370202" lon="9.5572229"><ele>837.0</ele><time>2026-04-11T11:23:49.017Z</time></trkpt><trkpt lat="46.3394669" lon="9.5648047"><ele>859.6666666666667</ele><time>2026-04-11T11:24:26.017Z</time></trkpt><trkpt lat="46.3394746" lon="9.5650364"><ele>882.3333333333334</ele><time>2026-04-11T11:24:27.017Z</time></trkpt><trkpt lat="46.3394394" lon="9.5652926"><ele>905.0</ele><time>2026-04-11T11:24:28.017Z</time></trkpt><trkpt lat="46.3393805" lon="9.565569"><ele>906.6666666666667</ele><time>2026-04-11T11:24:29.017Z</time></trkpt><trkpt lat="46.3393328" lon="9.5658308"><ele>908.3333333333333</ele><time>2026-04-11T11:24:30.017Z</time></trkpt><trkpt lat="46.339284" lon="9.566102"><ele>910.0</ele><time>2026-04-11T11:24:31.017Z</time></trkpt><trkpt lat="46.3392449" lon="9.5663603"><ele>909.6666666666666</ele><time>2026-04-11T11:24:32.016Z</time></trkpt><trkpt lat="46.3392024" lon="9.5666206"><ele>909.3333333333333</ele><time>2026-04-11T11:24:33.017Z</time></trkpt><trkpt lat="46.3391676" lon="9.5668807"><ele>909.0</ele><time>2026-04-11T11:24:34.017Z</time></trkpt><trkpt lat="46.3391454" lon="9.5671377"><ele>909.0</ele><time>2026-04-11T11:24:35.017Z</time></trkpt><trkpt lat="46.3391239" lon="9.5673957"><ele>909.0</ele><time>2026-04-11T11:24:36.017Z</time></trkpt><trkpt lat="46.3391092" lon="9.5676514"><ele>909.0</ele><time>2026-04-11T11:24:37.017Z</time></trkpt><trkpt lat="46.3390961" lon="9.5679025"><ele>909.3333333333333</ele><time>2026-04-11T11:24:38.017Z</time></trkpt><trkpt lat="46.3390805" lon="9.5681547"><ele>909.6666666666666</ele><time>2026-04-11T11:24:39.017Z</time></trkpt><trkpt lat="46.3390641" lon="9.5684031"><ele>910.0</ele><time>2026-04-11T11:24:40.017Z</time></trkpt><trkpt lat="46.3390464" lon="9.5686504"><ele>912.6666666666666</ele><time>2026-04-11T11:24:41.016Z</time></trkpt><trkpt lat="46.3390377" lon="9.5689042"><ele>915.3333333333333</ele><time>2026-04-11T11:24:42.017Z</time></trkpt><trkpt lat="46.3390314" lon="9.5691549"><ele>918.0</ele><time>2026-04-11T11:24:43.017Z</time></trkpt><trkpt lat="46.3390384" lon="9.5694112"><ele>923.3333333333333</ele><time>2026-04-11T11:24:44.017Z</time></trkpt><trkpt lat="46.3390566" lon="9.5696613"><ele>928.6666666666666</ele><time>2026-04-11T11:24:45.017Z</time></trkpt><trkpt lat="46.3390891" lon="9.5699162"><ele>934.0</ele><time>2026-04-11T11:24:46.017Z</time></trkpt><trkpt lat="46.3391378" lon="9.5701624"><ele>936.6666666666666</ele><time>2026-04-11T11:24:47.017Z</time></trkpt><trkpt lat="46.3392013" lon="9.5704121"><ele>939.3333333333333</ele><time>2026-04-11T11:24:48.016Z</time></trkpt><trkpt lat="46.3392798" lon="9.5706561"><ele>942.0</ele><time>2026-04-11T11:24:49.017Z</time></trkpt><trkpt lat="46.3393698" lon="9.5708997"><ele>942.0</ele><time>2026-04-11T11:24:50.016Z</time></trkpt><trkpt lat="46.3394641" lon="9.5711374"><ele>942.0</ele><time>2026-04-11T11:24:51.017Z</time></trkpt><trkpt lat="46.3395543" lon="9.5713818"><ele>942.0</ele><time>2026-04-11T11:24:52.016Z</time></trkpt><trkpt lat="46.3396373" lon="9.5716283"><ele>945.6666666666667</ele><time>2026-04-11T11:24:53.017Z</time></trkpt><trkpt lat="46.3397036" lon="9.5718748"><ele>949.3333333333334</ele><time>2026-04-11T11:24:54.017Z</time></trkpt><trkpt lat="46.3397527" lon="9.5721294"><ele>953.0</ele><time>2026-04-11T11:24:55.017Z</time></trkpt><trkpt lat="46.3397964" lon="9.5723796"><ele>947.6666666666667</ele><time>2026-04-11T11:24:56.017Z</time></trkpt><trkpt lat="46.33983" lon="9.5726273"><ele>942.3333333333333</ele><time>2026-04-11T11:24:57.017Z</time></trkpt><trkpt lat="46.3398487" lon="9.5728879"><ele>937.0</ele><time>2026-04-11T11:24:58.017Z</time></trkpt><trkpt lat="46.3398596" lon="9.5731445"><ele>937.0</ele><time>2026-04-11T11:24:59.017Z</time></trkpt><trkpt lat="46.3398712" lon="9.5734016"><ele>937.0</ele><time>2026-04-11T11:25:00.016Z</time></trkpt><trkpt lat="46.3398853" lon="9.5736596"><ele>937.0</ele><time>2026-04-11T11:25:01.017Z</time></trkpt><trkpt lat="46.3398996" lon="9.5739291"><ele>940.6666666666666</ele><time>2026-04-11T11:25:02.017Z</time></trkpt><trkpt lat="46.3399143" lon="9.5741862"><ele>944.3333333333333</ele><time>2026-04-11T11:25:03.017Z</time></trkpt><trkpt lat="46.3399338" lon="9.574423"><ele>948.0</ele><time>2026-04-11T11:25:04.017Z</time></trkpt><trkpt lat="46.33996" lon="9.5746486"><ele>949.6666666666667</ele><time>2026-04-11T11:25:05.017Z</time></trkpt><trkpt lat="46.3399842" lon="9.5748781"><ele>951.3333333333334</ele><time>2026-04-11T11:25:06.017Z</time></trkpt><trkpt lat="46.3399825" lon="9.5751052"><ele>953.0</ele><time>2026-04-11T11:25:07.017Z</time></trkpt><trkpt lat="46.3399617" lon="9.5753339"><ele>954.75</ele><time>2026-04-11T11:25:08.016Z</time></trkpt><trkpt lat="46.3399273" lon="9.5755433"><ele>956.5</ele><time>2026-04-11T11:25:09.017Z</time></trkpt><trkpt lat="46.3399022" lon="9.5757579"><ele>958.25</ele><time>2026-04-11T11:25:10.017Z</time></trkpt><trkpt lat="46.3399052" lon="9.5759695"><ele>960.0</ele><time>2026-04-11T11:25:11.017Z</time></trkpt><trkpt lat="46.3399413" lon="9.5761882"><ele>961.0</ele><time>2026-04-11T11:25:12.017Z</time></trkpt><trkpt lat="46.3400082" lon="9.5763893"><ele>962.0</ele><time>2026-04-11T11:25:13.017Z</time></trkpt><trkpt lat="46.3400942" lon="9.5765819"><ele>963.0</ele><time>2026-04-11T11:25:14.016Z</time></trkpt><trkpt lat="46.3401703" lon="9.576784"><ele>963.0</ele><time>2026-04-11T11:25:15.017Z</time></trkpt><trkpt lat="46.3402117" lon="9.5769968"><ele>963.0</ele><time>2026-04-11T11:25:16.017Z</time></trkpt><trkpt lat="46.3402213" lon="9.5771977"><ele>963.0</ele><time>2026-04-11T11:25:17.017Z</time></trkpt><trkpt lat="46.3401869" lon="9.5773905"><ele>963.0</ele><time>2026-04-11T11:25:18.017Z</time></trkpt><trkpt lat="46.3401129" lon="9.5775809"><ele>963.6666666666667</ele><time>2026-04-11T11:25:19.017Z</time></trkpt><trkpt lat="46.3400206" lon="9.5777804"><ele>964.3333333333334</ele><time>2026-04-11T11:25:20.017Z</time></trkpt><trkpt lat="46.3399331" lon="9.577966"><ele>965.0</ele><time>2026-04-11T11:25:21.017Z</time></trkpt><trkpt lat="46.339888" lon="9.5782016"><ele>966.6666666666667</ele><time>2026-04-11T11:25:22.017Z</time></trkpt><trkpt lat="46.3398716" lon="9.5784534"><ele>968.3333333333333</ele><time>2026-04-11T11:25:23.017Z</time></trkpt><trkpt lat="46.3398906" lon="9.5787182"><ele>970.0</ele><time>2026-04-11T11:25:24.016Z</time></trkpt><trkpt lat="46.3399453" lon="9.5789866"><ele>973.6666666666666</ele><time>2026-04-11T11:25:25.017Z</time></trkpt><trkpt lat="46.3400173" lon="9.5792577"><ele>977.3333333333333</ele><time>2026-04-11T11:25:26.017Z</time></trkpt><trkpt lat="46.3400954" lon="9.5795271"><ele>981.0</ele><time>2026-04-11T11:25:27.017Z</time></trkpt><trkpt lat="46.3401677" lon="9.5797779"><ele>986.6666666666667</ele><time>2026-04-11T11:25:28.017Z</time></trkpt><trkpt lat="46.3402259" lon="9.5800153"><ele>992.3333333333334</ele><time>2026-04-11T11:25:29.017Z</time></trkpt><trkpt lat="46.3402841" lon="9.5802369"><ele>998.0</ele><time>2026-04-11T11:25:30.017Z</time></trkpt><trkpt lat="46.3403398" lon="9.580451"><ele>1002.6666666666667</ele><time>2026-04-11T11:25:31.017Z</time></trkpt><trkpt lat="46.3403951" lon="9.5806573"><ele>1007.3333333333333</ele><time>2026-04-11T11:25:32.017Z</time></trkpt><trkpt lat="46.340451" lon="9.5808602"><ele>1012.0</ele><time>2026-04-11T11:25:33.017Z</time></trkpt><trkpt lat="46.340516" lon="9.5810675"><ele>1000.6666666666666</ele><time>2026-04-11T11:25:34.017Z</time></trkpt><trkpt lat="46.3405851" lon="9.5812677"><ele>989.3333333333333</ele><time>2026-04-11T11:25:35.016Z</time></trkpt><trkpt lat="46.3406621" lon="9.5814621"><ele>978.0</ele><time>2026-04-11T11:25:36.017Z</time></trkpt><trkpt lat="46.3407276" lon="9.5816528"><ele>978.0</ele><time>2026-04-11T11:25:37.017Z</time></trkpt><trkpt lat="46.3407804" lon="9.5818508"><ele>978.0</ele><time>2026-04-11T11:25:38.017Z</time></trkpt><trkpt lat="46.3408142" lon="9.5820644"><ele>978.0</ele><time>2026-04-11T11:25:39.017Z</time></trkpt><trkpt lat="46.3408442" lon="9.5822807"><ele>979.3333333333333</ele><time>2026-04-11T11:25:40.017Z</time></trkpt><trkpt lat="46.3408749" lon="9.5824999"><ele>980.6666666666666</ele><time>2026-04-11T11:25:41.017Z</time></trkpt><trkpt lat="46.3409072" lon="9.5827157"><ele>982.0</ele><time>2026-04-11T11:25:42.017Z</time></trkpt><trkpt lat="46.3409437" lon="9.5829379"><ele>985.25</ele><time>2026-04-11T11:25:43.017Z</time></trkpt><trkpt lat="46.3409781" lon="9.5831519"><ele>988.5</ele><time>2026-04-11T11:25:44.017Z</time></trkpt><trkpt lat="46.3410075" lon="9.5833545"><ele>991.75</ele><time>2026-04-11T11:25:45.017Z</time></trkpt><trkpt lat="46.3410354" lon="9.5835395"><ele>995.0</ele><time>2026-04-11T11:25:46.017Z</time></trkpt><trkpt lat="46.341059" lon="9.5837234"><ele>998.75</ele><time>2026-04-11T11:25:47.017Z</time></trkpt><trkpt lat="46.3410846" lon="9.5839292"><ele>1002.5</ele><time>2026-04-11T11:25:48.017Z</time></trkpt><trkpt lat="46.3411137" lon="9.58414"><ele>1006.25</ele><time>2026-04-11T11:25:49.016Z</time></trkpt><trkpt lat="46.3411449" lon="9.5843483"><ele>1010.0</ele><time>2026-04-11T11:25:50.017Z</time></trkpt><trkpt lat="46.341174" lon="9.5845516"><ele>1012.25</ele><time>2026-04-11T11:25:51.017Z</time></trkpt><trkpt lat="46.341205" lon="9.5847418"><ele>1014.5</ele><time>2026-04-11T11:25:52.017Z</time></trkpt><trkpt lat="46.3412334" lon="9.5849161"><ele>1016.75</ele><time>2026-04-11T11:25:53.017Z</time></trkpt><trkpt lat="46.3412673" lon="9.5850846"><ele>1019.0</ele><time>2026-04-11T11:25:54.017Z</time></trkpt><trkpt lat="46.3412954" lon="9.5852592"><ele>1019.5</ele><time>2026-04-11T11:25:55.017Z</time></trkpt><trkpt lat="46.3413335" lon="9.5854403"><ele>1020.0</ele><time>2026-04-11T11:25:56.016Z</time></trkpt><trkpt lat="46.341373" lon="9.5856193"><ele>1020.5</ele><time>2026-04-11T11:25:57.016Z</time></trkpt><trkpt lat="46.3414099" lon="9.5857968"><ele>1021.0</ele><time>2026-04-11T11:25:58.016Z</time></trkpt><trkpt lat="46.3414449" lon="9.5859827"><ele>1012.25</ele><time>2026-04-11T11:25:59.017Z</time></trkpt><trkpt lat="46.3414846" lon="9.5861584"><ele>1003.5</ele><time>2026-04-11T11:26:00.017Z</time></trkpt><trkpt lat="46.3415207" lon="9.5863325"><ele>994.75</ele><time>2026-04-11T11:26:01.017Z</time></trkpt><trkpt lat="46.3415578" lon="9.5865059"><ele>986.0</ele><time>2026-04-11T11:26:02.016Z</time></trkpt><trkpt lat="46.3415971" lon="9.5866867"><ele>986.0</ele><time>2026-04-11T11:26:03.017Z</time></trkpt><trkpt lat="46.3416399" lon="9.5868757"><ele>986.0</ele><time>2026-04-11T11:26:04.017Z</time></trkpt><trkpt lat="46.3416879" lon="9.5870794"><ele>986.0</ele><time>2026-04-11T11:26:05.017Z</time></trkpt><trkpt lat="46.3417389" lon="9.587296"><ele>986.0</ele><time>2026-04-11T11:26:06.017Z</time></trkpt><trkpt lat="46.3417816" lon="9.5875217"><ele>987.6666666666667</ele><time>2026-04-11T11:26:07.016Z</time></trkpt><trkpt lat="46.341826" lon="9.5877461"><ele>989.3333333333333</ele><time>2026-04-11T11:26:08.017Z</time></trkpt><trkpt lat="46.3418742" lon="9.5879626"><ele>991.0</ele><time>2026-04-11T11:26:09.017Z</time></trkpt><trkpt lat="46.3419313" lon="9.5881731"><ele>993.6666666666666</ele><time>2026-04-11T11:26:10.017Z</time></trkpt><trkpt lat="46.3420056" lon="9.5883692"><ele>996.3333333333333</ele><time>2026-04-11T11:26:11.017Z</time></trkpt><trkpt lat="46.3420974" lon="9.5885661"><ele>999.0</ele><time>2026-04-11T11:26:12.017Z</time></trkpt><trkpt lat="46.3422095" lon="9.5887329"><ele>996.6666666666667</ele><time>2026-04-11T11:26:13.017Z</time></trkpt><trkpt lat="46.342322" lon="9.5888986"><ele>994.3333333333334</ele><time>2026-04-11T11:26:14.017Z</time></trkpt><trkpt lat="46.3424324" lon="9.5890653"><ele>992.0</ele><time>2026-04-11T11:26:15.016Z</time></trkpt><trkpt lat="46.3425417" lon="9.5892351"><ele>992.0</ele><time>2026-04-11T11:26:16.017Z</time></trkpt><trkpt lat="46.3426487" lon="9.5894101"><ele>992.0</ele><time>2026-04-11T11:26:17.017Z</time></trkpt><trkpt lat="46.3427588" lon="9.5895853"><ele>992.0</ele><time>2026-04-11T11:26:18.017Z</time></trkpt><trkpt lat="46.3428735" lon="9.5897477"><ele>994.0</ele><time>2026-04-11T11:26:19.017Z</time></trkpt><trkpt lat="46.3429864" lon="9.5899082"><ele>996.0</ele><time>2026-04-11T11:26:20.017Z</time></trkpt><trkpt lat="46.343097" lon="9.5900693"><ele>998.0</ele><time>2026-04-11T11:26:21.017Z</time></trkpt><trkpt lat="46.3431946" lon="9.5902233"><ele>999.5</ele><time>2026-04-11T11:26:22.017Z</time></trkpt><trkpt lat="46.3432806" lon="9.5903775"><ele>1001.0</ele><time>2026-04-11T11:26:23.017Z</time></trkpt><trkpt lat="46.3433585" lon="9.5905346"><ele>1002.5</ele><time>2026-04-11T11:26:24.017Z</time></trkpt><trkpt lat="46.3434146" lon="9.5907013"><ele>1004.0</ele><time>2026-04-11T11:26:25.017Z</time></trkpt><trkpt lat="46.3434614" lon="9.5908704"><ele>1004.0</ele><time>2026-04-11T11:26:26.017Z</time></trkpt><trkpt lat="46.3434996" lon="9.5910478"><ele>1004.0</ele><time>2026-04-11T11:26:27.017Z</time></trkpt><trkpt lat="46.3435399" lon="9.591237"><ele>1004.0</ele><time>2026-04-11T11:26:28.017Z</time></trkpt><trkpt lat="46.3435641" lon="9.5914337"><ele>1004.0</ele><time>2026-04-11T11:26:29.017Z</time></trkpt><trkpt lat="46.3435805" lon="9.5916286"><ele>1005.75</ele><time>2026-04-11T11:26:30.017Z</time></trkpt><trkpt lat="46.3435912" lon="9.5918332"><ele>1007.5</ele><time>2026-04-11T11:26:31.017Z</time></trkpt><trkpt lat="46.3436212" lon="9.5920375"><ele>1009.25</ele><time>2026-04-11T11:26:32.017Z</time></trkpt><trkpt lat="46.343661" lon="9.5922357"><ele>1011.0</ele><time>2026-04-11T11:26:33.017Z</time></trkpt><trkpt lat="46.3437067" lon="9.5924359"><ele>1012.3333333333333</ele><time>2026-04-11T11:26:34.017Z</time></trkpt><trkpt lat="46.3437551" lon="9.5926443"><ele>1013.6666666666666</ele><time>2026-04-11T11:26:35.017Z</time></trkpt><trkpt lat="46.343802" lon="9.5928565"><ele>1015.0</ele><time>2026-04-11T11:26:36.017Z</time></trkpt><trkpt lat="46.3438514" lon="9.5930676"><ele>1016.0</ele><time>2026-04-11T11:26:37.017Z</time></trkpt><trkpt lat="46.3439047" lon="9.5932836"><ele>1017.0</ele><time>2026-04-11T11:26:38.017Z</time></trkpt><trkpt lat="46.3439563" lon="9.593512"><ele>1018.0</ele><time>2026-04-11T11:26:39.016Z</time></trkpt><trkpt lat="46.3440124" lon="9.5937395"><ele>1018.0</ele><time>2026-04-11T11:26:40.016Z</time></trkpt><trkpt lat="46.3440782" lon="9.5939678"><ele>1018.0</ele><time>2026-04-11T11:26:41.017Z</time></trkpt><trkpt lat="46.3441584" lon="9.5941862"><ele>1018.0</ele><time>2026-04-11T11:26:42.017Z</time></trkpt><trkpt lat="46.3442443" lon="9.5943942"><ele>1019.3333333333333</ele><time>2026-04-11T11:26:43.017Z</time></trkpt><trkpt lat="46.344344" lon="9.5945918"><ele>1020.6666666666667</ele><time>2026-04-11T11:26:44.017Z</time></trkpt><trkpt lat="46.3444554" lon="9.5947655"><ele>1022.0</ele><time>2026-04-11T11:26:45.017Z</time></trkpt><trkpt lat="46.34457" lon="9.594933"><ele>1022.0</ele><time>2026-04-11T11:26:46.017Z</time></trkpt><trkpt lat="46.3446861" lon="9.5951042"><ele>1022.0</ele><time>2026-04-11T11:26:47.017Z</time></trkpt><trkpt lat="46.3448037" lon="9.5952745"><ele>1022.0</ele><time>2026-04-11T11:26:48.017Z</time></trkpt><trkpt lat="46.344921" lon="9.5954426"><ele>1023.3333333333334</ele><time>2026-04-11T11:26:49.017Z</time></trkpt><trkpt lat="46.3450391" lon="9.5956116"><ele>1024.6666666666667</ele><time>2026-04-11T11:26:50.017Z</time></trkpt><trkpt lat="46.3451594" lon="9.5957839"><ele>1026.0</ele><time>2026-04-11T11:26:51.017Z</time></trkpt><trkpt lat="46.34528" lon="9.5959548"><ele>1026.0</ele><time>2026-04-11T11:26:52.017Z</time></trkpt><trkpt lat="46.3454021" lon="9.5961269"><ele>1026.0</ele><time>2026-04-11T11:26:53.016Z</time></trkpt><trkpt lat="46.3455271" lon="9.5962984"><ele>1026.0</ele><time>2026-04-11T11:26:54.017Z</time></trkpt><trkpt lat="46.3456511" lon="9.5964792"><ele>1025.3333333333333</ele><time>2026-04-11T11:26:55.017Z</time></trkpt><trkpt lat="46.3457736" lon="9.5966539"><ele>1024.6666666666665</ele><time>2026-04-11T11:26:56.017Z</time></trkpt><trkpt lat="46.345894" lon="9.5968253"><ele>1024.0</ele><time>2026-04-11T11:26:57.017Z</time></trkpt><trkpt lat="46.3460156" lon="9.5969975"><ele>1026.0</ele><time>2026-04-11T11:26:58.017Z</time></trkpt><trkpt lat="46.3461358" lon="9.5971846"><ele>1028.0</ele><time>2026-04-11T11:26:59.017Z</time></trkpt><trkpt lat="46.3462433" lon="9.5973844"><ele>1030.0</ele><time>2026-04-11T11:27:00.017Z</time></trkpt><trkpt lat="46.3463326" lon="9.5976005"><ele>1028.0</ele><time>2026-04-11T11:27:01.017Z</time></trkpt><trkpt lat="46.3464102" lon="9.5978323"><ele>1026.0</ele><time>2026-04-11T11:27:02.016Z</time></trkpt><trkpt lat="46.3464766" lon="9.5980776"><ele>1024.0</ele><time>2026-04-11T11:27:03.017Z</time></trkpt><trkpt lat="46.3465214" lon="9.5983339"><ele>1024.0</ele><time>2026-04-11T11:27:04.017Z</time></trkpt><trkpt lat="46.3465558" lon="9.5986062"><ele>1024.0</ele><time>2026-04-11T11:27:05.017Z</time></trkpt><trkpt lat="46.3465746" lon="9.5988905"><ele>1024.0</ele><time>2026-04-11T11:27:06.017Z</time></trkpt><trkpt lat="46.3465823" lon="9.5991826"><ele>1024.0</ele><time>2026-04-11T11:27:07.017Z</time></trkpt><trkpt lat="46.3465793" lon="9.5994749"><ele>1024.0</ele><time>2026-04-11T11:27:08.017Z</time></trkpt><trkpt lat="46.3465775" lon="9.5997668"><ele>1024.0</ele><time>2026-04-11T11:27:09.016Z</time></trkpt><trkpt lat="46.3465791" lon="9.600052"><ele>1026.0</ele><time>2026-04-11T11:27:10.017Z</time></trkpt><trkpt lat="46.346602" lon="9.6003397"><ele>1028.0</ele><time>2026-04-11T11:27:11.017Z</time></trkpt><trkpt lat="46.3466359" lon="9.6006291"><ele>1030.0</ele><time>2026-04-11T11:27:12.017Z</time></trkpt><trkpt lat="46.3466948" lon="9.6009172"><ele>1031.6666666666665</ele><time>2026-04-11T11:27:13.017Z</time></trkpt><trkpt lat="46.3467664" lon="9.6011926"><ele>1033.3333333333333</ele><time>2026-04-11T11:27:14.017Z</time></trkpt><trkpt lat="46.3468507" lon="9.6014637"><ele>1035.0</ele><time>2026-04-11T11:27:15.016Z</time></trkpt><trkpt lat="46.3469524" lon="9.6017281"><ele>1035.0</ele><time>2026-04-11T11:27:16.017Z</time></trkpt><trkpt lat="46.3470683" lon="9.6019722"><ele>1035.0</ele><time>2026-04-11T11:27:17.017Z</time></trkpt><trkpt lat="46.3472057" lon="9.6021944"><ele>1035.0</ele><time>2026-04-11T11:27:18.017Z</time></trkpt><trkpt lat="46.3473494" lon="9.6024112"><ele>1034.6666666666667</ele><time>2026-04-11T11:27:19.017Z</time></trkpt><trkpt lat="46.3475084" lon="9.6026085"><ele>1034.3333333333335</ele><time>2026-04-11T11:27:20.017Z</time></trkpt><trkpt lat="46.3476722" lon="9.6027894"><ele>1034.0</ele><time>2026-04-11T11:27:21.017Z</time></trkpt><trkpt lat="46.3478433" lon="9.6029625"><ele>1035.0</ele><time>2026-04-11T11:27:22.017Z</time></trkpt><trkpt lat="46.3480109" lon="9.603138"><ele>1036.0</ele><time>2026-04-11T11:27:23.017Z</time></trkpt><trkpt lat="46.3481697" lon="9.6033268"><ele>1037.0</ele><time>2026-04-11T11:27:24.017Z</time></trkpt><trkpt lat="46.3483141" lon="9.6035355"><ele>1038.6666666666667</ele><time>2026-04-11T11:27:25.017Z</time></trkpt><trkpt lat="46.3484478" lon="9.6037698"><ele>1040.3333333333333</ele><time>2026-04-11T11:27:26.017Z</time></trkpt><trkpt lat="46.3485602" lon="9.6040177"><ele>1042.0</ele><time>2026-04-11T11:27:27.017Z</time></trkpt><trkpt lat="46.3486574" lon="9.6042897"><ele>1043.3333333333333</ele><time>2026-04-11T11:27:28.017Z</time></trkpt><trkpt lat="46.3487439" lon="9.6045654"><ele>1044.6666666666667</ele><time>2026-04-11T11:27:29.016Z</time></trkpt><trkpt lat="46.3488206" lon="9.6048568"><ele>1046.0</ele><time>2026-04-11T11:27:30.017Z</time></trkpt><trkpt lat="46.3488731" lon="9.6051535"><ele>1043.6666666666667</ele><time>2026-04-11T11:27:31.017Z</time></trkpt><trkpt lat="46.3489082" lon="9.6054469"><ele>1041.3333333333333</ele><time>2026-04-11T11:27:32.017Z</time></trkpt><trkpt lat="46.34892" lon="9.6057504"><ele>1039.0</ele><time>2026-04-11T11:27:33.016Z</time></trkpt><trkpt lat="46.3489118" lon="9.6060439"><ele>1039.0</ele><time>2026-04-11T11:27:34.017Z</time></trkpt><trkpt lat="46.3488914" lon="9.6063439"><ele>1039.0</ele><time>2026-04-11T11:27:35.017Z</time></trkpt><trkpt lat="46.3488687" lon="9.6066426"><ele>1039.0</ele><time>2026-04-11T11:27:36.017Z</time></trkpt><trkpt lat="46.3488395" lon="9.6069331"><ele>1045.0</ele><time>2026-04-11T11:27:37.017Z</time></trkpt><trkpt lat="46.3488074" lon="9.6072328"><ele>1051.0</ele><time>2026-04-11T11:27:38.017Z</time></trkpt><trkpt lat="46.3487845" lon="9.6075329"><ele>1057.0</ele><time>2026-04-11T11:27:39.017Z</time></trkpt><trkpt lat="46.3487698" lon="9.6078337"><ele>1058.0</ele><time>2026-04-11T11:27:40.017Z</time></trkpt><trkpt lat="46.3487586" lon="9.6081478"><ele>1059.0</ele><time>2026-04-11T11:27:41.017Z</time></trkpt><trkpt lat="46.3487597" lon="9.60846"><ele>1060.0</ele><time>2026-04-11T11:27:42.017Z</time></trkpt><trkpt lat="46.3487706" lon="9.6087783"><ele>1060.0</ele><time>2026-04-11T11:27:43.017Z</time></trkpt><trkpt lat="46.3487903" lon="9.6091085"><ele>1060.0</ele><time>2026-04-11T11:27:44.017Z</time></trkpt><trkpt lat="46.3488208" lon="9.6094338"><ele>1059.0</ele><time>2026-04-11T11:27:45.017Z</time></trkpt><trkpt lat="46.3488583" lon="9.6097725"><ele>1058.0</ele><time>2026-04-11T11:27:46.017Z</time></trkpt><trkpt lat="46.3488969" lon="9.6101153"><ele>1057.0</ele><time>2026-04-11T11:27:47.017Z</time></trkpt><trkpt lat="46.3489354" lon="9.6104618"><ele>1056.0</ele><time>2026-04-11T11:27:48.017Z</time></trkpt><trkpt lat="46.3489761" lon="9.6108153"><ele>1058.5</ele><time>2026-04-11T11:27:49.017Z</time></trkpt><trkpt lat="46.3490148" lon="9.6111681"><ele>1061.0</ele><time>2026-04-11T11:27:50.016Z</time></trkpt><trkpt lat="46.3490524" lon="9.6115285"><ele>1061.0</ele><time>2026-04-11T11:27:51.017Z</time></trkpt><trkpt lat="46.349096" lon="9.6118907"><ele>1061.0</ele><time>2026-04-11T11:27:52.017Z</time></trkpt><trkpt lat="46.3491399" lon="9.6122475"><ele>1065.5</ele><time>2026-04-11T11:27:53.017Z</time></trkpt><trkpt lat="46.3491844" lon="9.6125955"><ele>1070.0</ele><time>2026-04-11T11:27:54.017Z</time></trkpt><trkpt lat="46.3492279" lon="9.6129293"><ele>1070.3333333333335</ele><time>2026-04-11T11:27:55.017Z</time></trkpt><trkpt lat="46.3492709" lon="9.6132477"><ele>1070.6666666666667</ele><time>2026-04-11T11:27:56.017Z</time></trkpt><trkpt lat="46.3493117" lon="9.6135548"><ele>1071.0</ele><time>2026-04-11T11:27:57.017Z</time></trkpt><trkpt lat="46.3493482" lon="9.6138522"><ele>1071.0</ele><time>2026-04-11T11:27:58.017Z</time></trkpt><trkpt lat="46.3493776" lon="9.6141401"><ele>1071.0</ele><time>2026-04-11T11:27:59.017Z</time></trkpt><trkpt lat="46.3494107" lon="9.6144077"><ele>1071.0</ele><time>2026-04-11T11:28:00.017Z</time></trkpt><trkpt lat="46.3494392" lon="9.6146626"><ele>1069.6666666666667</ele><time>2026-04-11T11:28:01.017Z</time></trkpt><trkpt lat="46.3494699" lon="9.6149104"><ele>1068.3333333333335</ele><time>2026-04-11T11:28:02.017Z</time></trkpt><trkpt lat="46.349495" lon="9.6151439"><ele>1067.0</ele><time>2026-04-11T11:28:03.017Z</time></trkpt><trkpt lat="46.3495175" lon="9.6153696"><ele>1067.0</ele><time>2026-04-11T11:28:04.017Z</time></trkpt><trkpt lat="46.349542" lon="9.6155871"><ele>1067.0</ele><time>2026-04-11T11:28:05.017Z</time></trkpt><trkpt lat="46.3495666" lon="9.6158057"><ele>1067.0</ele><time>2026-04-11T11:28:06.017Z</time></trkpt><trkpt lat="46.349592" lon="9.6160149"><ele>1068.5</ele><time>2026-04-11T11:28:07.017Z</time></trkpt><trkpt lat="46.349616" lon="9.6162242"><ele>1070.0</ele><time>2026-04-11T11:28:08.017Z</time></trkpt><trkpt lat="46.3496449" lon="9.6164321"><ele>1071.5</ele><time>2026-04-11T11:28:09.017Z</time></trkpt><trkpt lat="46.3496672" lon="9.6166382"><ele>1073.0</ele><time>2026-04-11T11:28:10.017Z</time></trkpt><trkpt lat="46.3496846" lon="9.6168403"><ele>1074.5</ele><time>2026-04-11T11:28:11.017Z</time></trkpt><trkpt lat="46.3496973" lon="9.6170307"><ele>1076.0</ele><time>2026-04-11T11:28:12.017Z</time></trkpt><trkpt lat="46.3497129" lon="9.6172054"><ele>1077.5</ele><time>2026-04-11T11:28:13.017Z</time></trkpt><trkpt lat="46.3497298" lon="9.6173778"><ele>1079.0</ele><time>2026-04-11T11:28:14.017Z</time></trkpt><trkpt lat="46.3497441" lon="9.6175477"><ele>1075.25</ele><time>2026-04-11T11:28:15.017Z</time></trkpt><trkpt lat="46.3497574" lon="9.6177125"><ele>1071.5</ele><time>2026-04-11T11:28:16.017Z</time></trkpt><trkpt lat="46.3497776" lon="9.6178778"><ele>1067.75</ele><time>2026-04-11T11:28:17.017Z</time></trkpt><trkpt lat="46.3497984" lon="9.618051"><ele>1064.0</ele><time>2026-04-11T11:28:18.016Z</time></trkpt><trkpt lat="46.3498265" lon="9.618227"><ele>1064.0</ele><time>2026-04-11T11:28:19.017Z</time></trkpt><trkpt lat="46.3498502" lon="9.6184077"><ele>1064.0</ele><time>2026-04-11T11:28:20.017Z</time></trkpt><trkpt lat="46.3498703" lon="9.6185941"><ele>1064.0</ele><time>2026-04-11T11:28:21.016Z</time></trkpt><trkpt lat="46.3498951" lon="9.6187812"><ele>1064.0</ele><time>2026-04-11T11:28:22.017Z</time></trkpt><trkpt lat="46.3499145" lon="9.6189548"><ele>1064.75</ele><time>2026-04-11T11:28:23.017Z</time></trkpt><trkpt lat="46.349933" lon="9.6191182"><ele>1065.5</ele><time>2026-04-11T11:28:24.017Z</time></trkpt><trkpt lat="46.3499545" lon="9.6192844"><ele>1066.25</ele><time>2026-04-11T11:28:25.016Z</time></trkpt><trkpt lat="46.3499775" lon="9.6194625"><ele>1067.0</ele><time>2026-04-11T11:28:26.017Z</time></trkpt><trkpt lat="46.3500007" lon="9.6196664"><ele>1067.25</ele><time>2026-04-11T11:28:27.016Z</time></trkpt><trkpt lat="46.3500244" lon="9.619874"><ele>1067.5</ele><time>2026-04-11T11:28:28.017Z</time></trkpt><trkpt lat="46.350041" lon="9.6200875"><ele>1067.75</ele><time>2026-04-11T11:28:29.017Z</time></trkpt><trkpt lat="46.3500466" lon="9.6203019"><ele>1068.0</ele><time>2026-04-11T11:28:30.017Z</time></trkpt><trkpt lat="46.3500488" lon="9.6205086"><ele>1068.0</ele><time>2026-04-11T11:28:31.017Z</time></trkpt><trkpt lat="46.3500527" lon="9.6207181"><ele>1068.0</ele><time>2026-04-11T11:28:32.016Z</time></trkpt><trkpt lat="46.3500623" lon="9.620929"><ele>1068.0</ele><time>2026-04-11T11:28:33.017Z</time></trkpt><trkpt lat="46.3500672" lon="9.6211522"><ele>1068.0</ele><time>2026-04-11T11:28:34.017Z</time></trkpt><trkpt lat="46.3500622" lon="9.6213842"><ele>1069.3333333333333</ele><time>2026-04-11T11:28:35.017Z</time></trkpt><trkpt lat="46.3500505" lon="9.6216101"><ele>1070.6666666666665</ele><time>2026-04-11T11:28:36.016Z</time></trkpt><trkpt lat="46.3500414" lon="9.6218322"><ele>1072.0</ele><time>2026-04-11T11:28:37.017Z</time></trkpt><trkpt lat="46.3500239" lon="9.6220715"><ele>1073.0</ele><time>2026-04-11T11:28:38.017Z</time></trkpt><trkpt lat="46.3500068" lon="9.6223259"><ele>1074.0</ele><time>2026-04-11T11:28:39.017Z</time></trkpt><trkpt lat="46.3499969" lon="9.6225806"><ele>1075.0</ele><time>2026-04-11T11:28:40.017Z</time></trkpt><trkpt lat="46.3499994" lon="9.6228452"><ele>1075.0</ele><time>2026-04-11T11:28:41.017Z</time></trkpt><trkpt lat="46.3500137" lon="9.623109"><ele>1075.0</ele><time>2026-04-11T11:28:42.016Z</time></trkpt><trkpt lat="46.3500373" lon="9.623382"><ele>1075.0</ele><time>2026-04-11T11:28:43.017Z</time></trkpt><trkpt lat="46.3500706" lon="9.6236575"><ele>1075.3333333333333</ele><time>2026-04-11T11:28:44.017Z</time></trkpt><trkpt lat="46.3501184" lon="9.6239333"><ele>1075.6666666666667</ele><time>2026-04-11T11:28:45.017Z</time></trkpt><trkpt lat="46.3501769" lon="9.6242136"><ele>1076.0</ele><time>2026-04-11T11:28:46.017Z</time></trkpt><trkpt lat="46.3502472" lon="9.6244894"><ele>1077.0</ele><time>2026-04-11T11:28:47.017Z</time></trkpt><trkpt lat="46.3503175" lon="9.624774"><ele>1078.0</ele><time>2026-04-11T11:28:48.016Z</time></trkpt><trkpt lat="46.3503966" lon="9.625072"><ele>1079.0</ele><time>2026-04-11T11:28:49.017Z</time></trkpt><trkpt lat="46.3504751" lon="9.6253661"><ele>1079.3333333333335</ele><time>2026-04-11T11:28:50.017Z</time></trkpt><trkpt lat="46.3505479" lon="9.625667"><ele>1079.6666666666667</ele><time>2026-04-11T11:28:51.017Z</time></trkpt><trkpt lat="46.3506271" lon="9.6259669"><ele>1080.0</ele><time>2026-04-11T11:28:52.016Z</time></trkpt><trkpt lat="46.3507102" lon="9.6262746"><ele>1081.5</ele><time>2026-04-11T11:28:53.016Z</time></trkpt><trkpt lat="46.3507968" lon="9.626587"><ele>1083.0</ele><time>2026-04-11T11:28:54.017Z</time></trkpt><trkpt lat="46.3508847" lon="9.6268952"><ele>1083.6666666666667</ele><time>2026-04-11T11:28:55.017Z</time></trkpt><trkpt lat="46.3509713" lon="9.6271946"><ele>1084.3333333333335</ele><time>2026-04-11T11:28:56.016Z</time></trkpt><trkpt lat="46.3510538" lon="9.627488"><ele>1085.0</ele><time>2026-04-11T11:28:57.016Z</time></trkpt><trkpt lat="46.3511412" lon="9.6277675"><ele>1086.3333333333335</ele><time>2026-04-11T11:28:58.016Z</time></trkpt><trkpt lat="46.3512361" lon="9.6280376"><ele>1087.6666666666667</ele><time>2026-04-11T11:28:59.017Z</time></trkpt><trkpt lat="46.3513364" lon="9.6283037"><ele>1089.0</ele><time>2026-04-11T11:29:00.017Z</time></trkpt><trkpt lat="46.3514428" lon="9.6285601"><ele>1089.0</ele><time>2026-04-11T11:29:01.017Z</time></trkpt><trkpt lat="46.3515528" lon="9.6288074"><ele>1089.0</ele><time>2026-04-11T11:29:02.017Z</time></trkpt><trkpt lat="46.3516688" lon="9.629055"><ele>1089.0</ele><time>2026-04-11T11:29:03.017Z</time></trkpt><trkpt lat="46.3517961" lon="9.6292861"><ele>1091.0</ele><time>2026-04-11T11:29:04.017Z</time></trkpt><trkpt lat="46.3519251" lon="9.6295254"><ele>1093.0</ele><time>2026-04-11T11:29:05.017Z</time></trkpt><trkpt lat="46.3520631" lon="9.6297565"><ele>1095.0</ele><time>2026-04-11T11:29:06.017Z</time></trkpt><trkpt lat="46.3522038" lon="9.6299882"><ele>1094.6666666666667</ele><time>2026-04-11T11:29:07.017Z</time></trkpt><trkpt lat="46.3523478" lon="9.6302146"><ele>1094.3333333333335</ele><time>2026-04-11T11:29:08.017Z</time></trkpt><trkpt lat="46.3524937" lon="9.6304492"><ele>1094.0</ele><time>2026-04-11T11:29:09.016Z</time></trkpt><trkpt lat="46.3526363" lon="9.6306872"><ele>1096.6666666666667</ele><time>2026-04-11T11:29:10.017Z</time></trkpt><trkpt lat="46.3527835" lon="9.6309233"><ele>1099.3333333333333</ele><time>2026-04-11T11:29:11.017Z</time></trkpt><trkpt lat="46.3529304" lon="9.6311626"><ele>1102.0</ele><time>2026-04-11T11:29:12.017Z</time></trkpt><trkpt lat="46.353081" lon="9.6314067"><ele>1102.0</ele><time>2026-04-11T11:29:13.017Z</time></trkpt><trkpt lat="46.3532322" lon="9.63165"><ele>1102.0</ele><time>2026-04-11T11:29:14.017Z</time></trkpt><trkpt lat="46.3533838" lon="9.6318894"><ele>1104.6666666666665</ele><time>2026-04-11T11:29:15.017Z</time></trkpt><trkpt lat="46.3535347" lon="9.6321317"><ele>1107.3333333333333</ele><time>2026-04-11T11:29:16.017Z</time></trkpt><trkpt lat="46.3536818" lon="9.6323733"><ele>1110.0</ele><time>2026-04-11T11:29:17.017Z</time></trkpt><trkpt lat="46.3538266" lon="9.6326131"><ele>1111.3333333333333</ele><time>2026-04-11T11:29:18.017Z</time></trkpt><trkpt lat="46.3539752" lon="9.63285"><ele>1112.6666666666665</ele><time>2026-04-11T11:29:19.017Z</time></trkpt><trkpt lat="46.3541244" lon="9.6330875"><ele>1114.0</ele><time>2026-04-11T11:29:20.017Z</time></trkpt><trkpt lat="46.3542692" lon="9.6333208"><ele>1114.0</ele><time>2026-04-11T11:29:21.017Z</time></trkpt><trkpt lat="46.3544099" lon="9.6335565"><ele>1114.0</ele><time>2026-04-11T11:29:22.017Z</time></trkpt><trkpt lat="46.3545506" lon="9.633793"><ele>1114.0</ele><time>2026-04-11T11:29:23.017Z</time></trkpt><trkpt lat="46.3546817" lon="9.6340304"><ele>1117.3333333333333</ele><time>2026-04-11T11:29:24.016Z</time></trkpt><trkpt lat="46.3547949" lon="9.6342667"><ele>1120.6666666666667</ele><time>2026-04-11T11:29:25.017Z</time></trkpt><trkpt lat="46.3549055" lon="9.634508"><ele>1124.0</ele><time>2026-04-11T11:29:26.016Z</time></trkpt><trkpt lat="46.3550059" lon="9.6347467"><ele>1127.0</ele><time>2026-04-11T11:29:27.017Z</time></trkpt><trkpt lat="46.3551002" lon="9.6349916"><ele>1130.0</ele><time>2026-04-11T11:29:28.017Z</time></trkpt><trkpt lat="46.3551883" lon="9.6352358"><ele>1133.0</ele><time>2026-04-11T11:29:29.017Z</time></trkpt><trkpt lat="46.355269" lon="9.6354838"><ele>1135.0</ele><time>2026-04-11T11:29:30.017Z</time></trkpt><trkpt lat="46.3553475" lon="9.6357402"><ele>1137.0</ele><time>2026-04-11T11:29:31.017Z</time></trkpt><trkpt lat="46.3554272" lon="9.635993"><ele>1139.0</ele><time>2026-04-11T11:29:32.017Z</time></trkpt><trkpt lat="46.3555066" lon="9.6362461"><ele>1139.3333333333335</ele><time>2026-04-11T11:29:33.017Z</time></trkpt><trkpt lat="46.3555917" lon="9.6365028"><ele>1139.6666666666667</ele><time>2026-04-11T11:29:34.017Z</time></trkpt><trkpt lat="46.3556751" lon="9.6367576"><ele>1140.0</ele><time>2026-04-11T11:29:35.017Z</time></trkpt><trkpt lat="46.3557598" lon="9.6370145"><ele>1141.3333333333333</ele><time>2026-04-11T11:29:36.016Z</time></trkpt><trkpt lat="46.3558485" lon="9.6372707"><ele>1142.6666666666665</ele><time>2026-04-11T11:29:37.017Z</time></trkpt><trkpt lat="46.355948" lon="9.6375233"><ele>1144.0</ele><time>2026-04-11T11:29:38.017Z</time></trkpt><trkpt lat="46.3560579" lon="9.6377658"><ele>1145.0</ele><time>2026-04-11T11:29:39.017Z</time></trkpt><trkpt lat="46.3561783" lon="9.6380046"><ele>1146.0</ele><time>2026-04-11T11:29:40.017Z</time></trkpt><trkpt lat="46.3563047" lon="9.6382338"><ele>1147.0</ele><time>2026-04-11T11:29:41.017Z</time></trkpt><trkpt lat="46.3564407" lon="9.6384481"><ele>1150.6666666666665</ele><time>2026-04-11T11:29:42.017Z</time></trkpt><trkpt lat="46.3565695" lon="9.6386431"><ele>1154.3333333333333</ele><time>2026-04-11T11:29:43.017Z</time></trkpt><trkpt lat="46.3566984" lon="9.6388283"><ele>1158.0</ele><time>2026-04-11T11:29:44.017Z</time></trkpt><trkpt lat="46.3568195" lon="9.6390141"><ele>1158.0</ele><time>2026-04-11T11:29:45.017Z</time></trkpt><trkpt lat="46.3569388" lon="9.6392035"><ele>1158.0</ele><time>2026-04-11T11:29:46.017Z</time></trkpt><trkpt lat="46.357063" lon="9.6393902"><ele>1158.0</ele><time>2026-04-11T11:29:47.016Z</time></trkpt><trkpt lat="46.3571925" lon="9.639568"><ele>1158.3333333333333</ele><time>2026-04-11T11:29:48.017Z</time></trkpt><trkpt lat="46.3573251" lon="9.6397641"><ele>1158.6666666666665</ele><time>2026-04-11T11:29:49.017Z</time></trkpt><trkpt lat="46.3574625" lon="9.6399527"><ele>1159.0</ele><time>2026-04-11T11:29:50.016Z</time></trkpt><trkpt lat="46.3575962" lon="9.6401468"><ele>1161.6666666666665</ele><time>2026-04-11T11:29:51.017Z</time></trkpt><trkpt lat="46.357714" lon="9.6403217"><ele>1164.3333333333333</ele><time>2026-04-11T11:29:52.017Z</time></trkpt><trkpt lat="46.357826" lon="9.6404772"><ele>1167.0</ele><time>2026-04-11T11:29:53.017Z</time></trkpt><trkpt lat="46.357925" lon="9.6406205"><ele>1167.0</ele><time>2026-04-11T11:29:54.017Z</time></trkpt><trkpt lat="46.3580138" lon="9.6407618"><ele>1167.0</ele><time>2026-04-11T11:29:55.017Z</time></trkpt><trkpt lat="46.3580973" lon="9.6408934"><ele>1167.0</ele><time>2026-04-11T11:29:56.017Z</time></trkpt><trkpt lat="46.3581802" lon="9.6410053"><ele>1167.0</ele><time>2026-04-11T11:29:57.017Z</time></trkpt><trkpt lat="46.3582668" lon="9.6411088"><ele>1169.25</ele><time>2026-04-11T11:29:58.017Z</time></trkpt><trkpt lat="46.3583758" lon="9.6411928"><ele>1171.5</ele><time>2026-04-11T11:29:59.017Z</time></trkpt><trkpt lat="46.358504" lon="9.6412298"><ele>1173.75</ele><time>2026-04-11T11:30:00.017Z</time></trkpt><trkpt lat="46.3586468" lon="9.6412418"><ele>1176.0</ele><time>2026-04-11T11:30:01.017Z</time></trkpt><trkpt lat="46.3587837" lon="9.6412783"><ele>1176.5</ele><time>2026-04-11T11:30:02.017Z</time></trkpt><trkpt lat="46.3589131" lon="9.6413836"><ele>1177.0</ele><time>2026-04-11T11:30:03.017Z</time></trkpt><trkpt lat="46.359023" lon="9.6415104"><ele>1177.5</ele><time>2026-04-11T11:30:04.017Z</time></trkpt><trkpt lat="46.3591217" lon="9.6416748"><ele>1178.0</ele><time>2026-04-11T11:30:05.017Z</time></trkpt><trkpt lat="46.3592085" lon="9.6418638"><ele>1179.5</ele><time>2026-04-11T11:30:06.017Z</time></trkpt><trkpt lat="46.3592967" lon="9.6420521"><ele>1181.0</ele><time>2026-04-11T11:30:07.017Z</time></trkpt><trkpt lat="46.3593785" lon="9.6422199"><ele>1182.5</ele><time>2026-04-11T11:30:08.016Z</time></trkpt><trkpt lat="46.3594569" lon="9.6423703"><ele>1184.0</ele><time>2026-04-11T11:30:09.017Z</time></trkpt><trkpt lat="46.359511" lon="9.642508"><ele>1184.0</ele><time>2026-04-11T11:30:10.017Z</time></trkpt><trkpt lat="46.3595358" lon="9.6426347"><ele>1184.0</ele><time>2026-04-11T11:30:11.017Z</time></trkpt><trkpt lat="46.3595281" lon="9.6427535"><ele>1184.0</ele><time>2026-04-11T11:30:12.017Z</time></trkpt><trkpt lat="46.3594837" lon="9.6428605"><ele>1184.0</ele><time>2026-04-11T11:30:13.017Z</time></trkpt><trkpt lat="46.3594142" lon="9.6429314"><ele>1184.0</ele><time>2026-04-11T11:30:14.017Z</time></trkpt><trkpt lat="46.3593223" lon="9.6430029"><ele>1184.0</ele><time>2026-04-11T11:30:15.017Z</time></trkpt><trkpt lat="46.359204" lon="9.6430649"><ele>1186.3333333333335</ele><time>2026-04-11T11:30:16.017Z</time></trkpt><trkpt lat="46.3590695" lon="9.643146"><ele>1188.6666666666667</ele><time>2026-04-11T11:30:17.016Z</time></trkpt><trkpt lat="46.3589268" lon="9.6432558"><ele>1191.0</ele><time>2026-04-11T11:30:18.017Z</time></trkpt><trkpt lat="46.3587951" lon="9.6433626"><ele>1191.0</ele><time>2026-04-11T11:30:19.017Z</time></trkpt><trkpt lat="46.358677" lon="9.6434584"><ele>1191.0</ele><time>2026-04-11T11:30:20.017Z</time></trkpt><trkpt lat="46.3585705" lon="9.6435411"><ele>1191.0</ele><time>2026-04-11T11:30:21.017Z</time></trkpt><trkpt lat="46.3584677" lon="9.643613"><ele>1191.0</ele><time>2026-04-11T11:30:22.016Z</time></trkpt><trkpt lat="46.3583778" lon="9.6436808"><ele>1192.8333333333333</ele><time>2026-04-11T11:30:23.017Z</time></trkpt><trkpt lat="46.3583026" lon="9.6437564"><ele>1194.6666666666667</ele><time>2026-04-11T11:30:24.017Z</time></trkpt><trkpt lat="46.358246" lon="9.6438431"><ele>1196.5</ele><time>2026-04-11T11:30:25.017Z</time></trkpt><trkpt lat="46.3582179" lon="9.6439331"><ele>1198.3333333333335</ele><time>2026-04-11T11:30:26.017Z</time></trkpt><trkpt lat="46.3582379" lon="9.6440341"><ele>1200.1666666666667</ele><time>2026-04-11T11:30:27.017Z</time></trkpt><trkpt lat="46.3582837" lon="9.6441142"><ele>1202.0</ele><time>2026-04-11T11:30:28.017Z</time></trkpt><trkpt lat="46.3583664" lon="9.6441644"><ele>1202.0</ele><time>2026-04-11T11:30:29.017Z</time></trkpt><trkpt lat="46.3584589" lon="9.6442026"><ele>1202.0</ele><time>2026-04-11T11:30:30.017Z</time></trkpt><trkpt lat="46.3585612" lon="9.644244"><ele>1202.0</ele><time>2026-04-11T11:30:31.017Z</time></trkpt><trkpt lat="46.3586791" lon="9.6442913"><ele>1202.0</ele><time>2026-04-11T11:30:32.017Z</time></trkpt><trkpt lat="46.3588045" lon="9.6443538"><ele>1203.25</ele><time>2026-04-11T11:30:33.017Z</time></trkpt><trkpt lat="46.3589247" lon="9.6444102"><ele>1204.5</ele><time>2026-04-11T11:30:34.017Z</time></trkpt><trkpt lat="46.3590418" lon="9.6444802"><ele>1205.75</ele><time>2026-04-11T11:30:35.017Z</time></trkpt><trkpt lat="46.3591647" lon="9.6445557"><ele>1207.0</ele><time>2026-04-11T11:30:36.017Z</time></trkpt><trkpt lat="46.3592898" lon="9.644634"><ele>1210.25</ele><time>2026-04-11T11:30:37.017Z</time></trkpt><trkpt lat="46.3594151" lon="9.6447108"><ele>1213.5</ele><time>2026-04-11T11:30:38.017Z</time></trkpt><trkpt lat="46.3595348" lon="9.6448107"><ele>1216.75</ele><time>2026-04-11T11:30:39.017Z</time></trkpt><trkpt lat="46.3596422" lon="9.6449212"><ele>1220.0</ele><time>2026-04-11T11:30:40.017Z</time></trkpt><trkpt lat="46.3597498" lon="9.6450573"><ele>1220.0</ele><time>2026-04-11T11:30:41.017Z</time></trkpt><trkpt lat="46.3598643" lon="9.6451767"><ele>1220.0</ele><time>2026-04-11T11:30:42.016Z</time></trkpt><trkpt lat="46.3599957" lon="9.6452632"><ele>1220.0</ele><time>2026-04-11T11:30:43.017Z</time></trkpt><trkpt lat="46.3601416" lon="9.6453158"><ele>1220.0</ele><time>2026-04-11T11:30:44.017Z</time></trkpt><trkpt lat="46.3602825" lon="9.6453598"><ele>1224.0</ele><time>2026-04-11T11:30:45.017Z</time></trkpt><trkpt lat="46.360426" lon="9.6454151"><ele>1228.0</ele><time>2026-04-11T11:30:46.017Z</time></trkpt><trkpt lat="46.3605614" lon="9.6454995"><ele>1232.0</ele><time>2026-04-11T11:30:47.017Z</time></trkpt><trkpt lat="46.3606964" lon="9.6455764"><ele>1236.0</ele><time>2026-04-11T11:30:48.017Z</time></trkpt><trkpt lat="46.3608284" lon="9.6456628"><ele>1236.0</ele><time>2026-04-11T11:30:49.017Z</time></trkpt><trkpt lat="46.3609569" lon="9.6457703"><ele>1236.0</ele><time>2026-04-11T11:30:50.017Z</time></trkpt><trkpt lat="46.3610732" lon="9.6459042"><ele>1236.0</ele><time>2026-04-11T11:30:51.016Z</time></trkpt><trkpt lat="46.3611829" lon="9.6460213"><ele>1236.0</ele><time>2026-04-11T11:30:52.016Z</time></trkpt><trkpt lat="46.361302" lon="9.6461149"><ele>1238.5</ele><time>2026-04-11T11:30:53.016Z</time></trkpt><trkpt lat="46.3614353" lon="9.6461876"><ele>1241.0</ele><time>2026-04-11T11:30:54.016Z</time></trkpt><trkpt lat="46.3615664" lon="9.6462373"><ele>1243.5</ele><time>2026-04-11T11:30:55.016Z</time></trkpt><trkpt lat="46.3616845" lon="9.6462809"><ele>1246.0</ele><time>2026-04-11T11:30:56.016Z</time></trkpt><trkpt lat="46.3617923" lon="9.6463221"><ele>1246.0</ele><time>2026-04-11T11:30:57.016Z</time></trkpt><trkpt lat="46.3618871" lon="9.6463593"><ele>1246.0</ele><time>2026-04-11T11:30:58.016Z</time></trkpt><trkpt lat="46.3619722" lon="9.6463886"><ele>1246.0</ele><time>2026-04-11T11:30:59.016Z</time></trkpt><trkpt lat="46.3620464" lon="9.6464253"><ele>1246.0</ele><time>2026-04-11T11:31:00.016Z</time></trkpt><trkpt lat="46.3621031" lon="9.6464691"><ele>1246.0</ele><time>2026-04-11T11:31:01.016Z</time></trkpt><trkpt lat="46.3621621" lon="9.6466279"><ele>1246.0</ele><time>2026-04-11T11:31:03.016Z</time></trkpt><trkpt lat="46.3621313" lon="9.6467152"><ele>1246.0</ele><time>2026-04-11T11:31:04.016Z</time></trkpt><trkpt lat="46.3620839" lon="9.646793"><ele>1246.0</ele><time>2026-04-11T11:31:05.016Z</time></trkpt><trkpt lat="46.3620134" lon="9.646872"><ele>1246.0</ele><time>2026-04-11T11:31:06.016Z</time></trkpt><trkpt lat="46.3619318" lon="9.6469606"><ele>1246.0</ele><time>2026-04-11T11:31:07.016Z</time></trkpt><trkpt lat="46.3618446" lon="9.6470681"><ele>1246.0</ele><time>2026-04-11T11:31:08.016Z</time></trkpt><trkpt lat="46.3617497" lon="9.6471827"><ele>1249.25</ele><time>2026-04-11T11:31:09.016Z</time></trkpt><trkpt lat="46.3616453" lon="9.6473008"><ele>1252.5</ele><time>2026-04-11T11:31:10.016Z</time></trkpt><trkpt lat="46.3615468" lon="9.6474085"><ele>1255.75</ele><time>2026-04-11T11:31:11.015Z</time></trkpt><trkpt lat="46.3614387" lon="9.647494"><ele>1259.0</ele><time>2026-04-11T11:31:12.016Z</time></trkpt><trkpt lat="46.3613311" lon="9.6475443"><ele>1259.0</ele><time>2026-04-11T11:31:13.016Z</time></trkpt><trkpt lat="46.3612115" lon="9.6475754"><ele>1259.0</ele><time>2026-04-11T11:31:14.016Z</time></trkpt><trkpt lat="46.3610987" lon="9.6475668"><ele>1259.0</ele><time>2026-04-11T11:31:15.016Z</time></trkpt><trkpt lat="46.3609909" lon="9.6475632"><ele>1259.0</ele><time>2026-04-11T11:31:16.016Z</time></trkpt><trkpt lat="46.3609019" lon="9.6475933"><ele>1259.0</ele><time>2026-04-11T11:31:17.016Z</time></trkpt><trkpt lat="46.3608461" lon="9.6476747"><ele>1259.0</ele><time>2026-04-11T11:31:18.016Z</time></trkpt><trkpt lat="46.3608216" lon="9.6477833"><ele>1259.0</ele><time>2026-04-11T11:31:19.016Z</time></trkpt><trkpt lat="46.3608421" lon="9.6479061"><ele>1259.0</ele><time>2026-04-11T11:31:20.016Z</time></trkpt><trkpt lat="46.3609005" lon="9.6480273"><ele>1259.0</ele><time>2026-04-11T11:31:21.016Z</time></trkpt><trkpt lat="46.3609836" lon="9.648123"><ele>1259.0</ele><time>2026-04-11T11:31:22.015Z</time></trkpt><trkpt lat="46.361076" lon="9.6482065"><ele>1261.75</ele><time>2026-04-11T11:31:23.016Z</time></trkpt><trkpt lat="46.361172" lon="9.6483114"><ele>1264.5</ele><time>2026-04-11T11:31:24.015Z</time></trkpt><trkpt lat="46.3612679" lon="9.6484298"><ele>1267.25</ele><time>2026-04-11T11:31:25.016Z</time></trkpt><trkpt lat="46.361372" lon="9.6485527"><ele>1270.0</ele><time>2026-04-11T11:31:26.016Z</time></trkpt><trkpt lat="46.3615003" lon="9.6486699"><ele>1274.5</ele><time>2026-04-11T11:31:27.016Z</time></trkpt><trkpt lat="46.3616262" lon="9.6487557"><ele>1279.0</ele><time>2026-04-11T11:31:28.016Z</time></trkpt><trkpt lat="46.3617507" lon="9.6488417"><ele>1283.5</ele><time>2026-04-11T11:31:29.016Z</time></trkpt><trkpt lat="46.3618697" lon="9.6489096"><ele>1288.0</ele><time>2026-04-11T11:31:30.016Z</time></trkpt><trkpt lat="46.3619914" lon="9.6489554"><ele>1288.0</ele><time>2026-04-11T11:31:31.016Z</time></trkpt><trkpt lat="46.3621195" lon="9.6489642"><ele>1288.0</ele><time>2026-04-11T11:31:32.016Z</time></trkpt><trkpt lat="46.3622414" lon="9.6489488"><ele>1288.0</ele><time>2026-04-11T11:31:33.016Z</time></trkpt><trkpt lat="46.3623566" lon="9.6489413"><ele>1288.0</ele><time>2026-04-11T11:31:34.016Z</time></trkpt><trkpt lat="46.3624712" lon="9.6489742"><ele>1288.0</ele><time>2026-04-11T11:31:35.015Z</time></trkpt><trkpt lat="46.3625755" lon="9.6490679"><ele>1288.0</ele><time>2026-04-11T11:31:36.016Z</time></trkpt><trkpt lat="46.36266" lon="9.6491815"><ele>1288.0</ele><time>2026-04-11T11:31:37.016Z</time></trkpt><trkpt lat="46.362738" lon="9.6493017"><ele>1288.0</ele><time>2026-04-11T11:31:38.016Z</time></trkpt><trkpt lat="46.3628284" lon="9.6494291"><ele>1288.0</ele><time>2026-04-11T11:31:39.015Z</time></trkpt><trkpt lat="46.3629447" lon="9.6495592"><ele>1288.0</ele><time>2026-04-11T11:31:40.016Z</time></trkpt><trkpt lat="46.3630548" lon="9.6496837"><ele>1288.0</ele><time>2026-04-11T11:31:41.016Z</time></trkpt><trkpt lat="46.3631525" lon="9.6497914"><ele>1288.0</ele><time>2026-04-11T11:31:42.016Z</time></trkpt><trkpt lat="46.3632455" lon="9.6498932"><ele>1288.0</ele><time>2026-04-11T11:31:43.016Z</time></trkpt><trkpt lat="46.3633422" lon="9.6499911"><ele>1288.0</ele><time>2026-04-11T11:31:44.016Z</time></trkpt><trkpt lat="46.3634437" lon="9.6500741"><ele>1288.0</ele><time>2026-04-11T11:31:45.016Z</time></trkpt><trkpt lat="46.3635588" lon="9.6501388"><ele>1288.0</ele><time>2026-04-11T11:31:46.015Z</time></trkpt><trkpt lat="46.3636786" lon="9.6501709"><ele>1288.0</ele><time>2026-04-11T11:31:47.016Z</time></trkpt><trkpt lat="46.3637961" lon="9.6501915"><ele>1288.0</ele><time>2026-04-11T11:31:48.016Z</time></trkpt><trkpt lat="46.3638923" lon="9.6502003"><ele>1288.0</ele><time>2026-04-11T11:31:49.016Z</time></trkpt><trkpt lat="46.3639628" lon="9.650238"><ele>1288.0</ele><time>2026-04-11T11:31:50.016Z</time></trkpt><trkpt lat="46.3640089" lon="9.6503151"><ele>1288.0</ele><time>2026-04-11T11:31:51.016Z</time></trkpt><trkpt lat="46.3640258" lon="9.6504041"><ele>1288.0</ele><time>2026-04-11T11:31:52.016Z</time></trkpt><trkpt lat="46.3640156" lon="9.6505059"><ele>1289.2</ele><time>2026-04-11T11:31:53.016Z</time></trkpt><trkpt lat="46.3639745" lon="9.650588"><ele>1290.4</ele><time>2026-04-11T11:31:54.016Z</time></trkpt><trkpt lat="46.3639101" lon="9.6506911"><ele>1291.6000000000001</ele><time>2026-04-11T11:31:55.016Z</time></trkpt><trkpt lat="46.3638464" lon="9.6508172"><ele>1292.8000000000002</ele><time>2026-04-11T11:31:56.016Z</time></trkpt><trkpt lat="46.3638097" lon="9.6509734"><ele>1294.0</ele><time>2026-04-11T11:31:57.016Z</time></trkpt><trkpt lat="46.3637759" lon="9.651126"><ele>1298.25</ele><time>2026-04-11T11:31:58.016Z</time></trkpt><trkpt lat="46.3637221" lon="9.6512534"><ele>1302.5</ele><time>2026-04-11T11:31:59.016Z</time></trkpt><trkpt lat="46.3636331" lon="9.6513479"><ele>1306.75</ele><time>2026-04-11T11:32:00.016Z</time></trkpt><trkpt lat="46.3635167" lon="9.6513924"><ele>1311.0</ele><time>2026-04-11T11:32:01.016Z</time></trkpt><trkpt lat="46.3634005" lon="9.6514214"><ele>1311.0</ele><time>2026-04-11T11:32:02.016Z</time></trkpt><trkpt lat="46.3632738" lon="9.6513933"><ele>1311.0</ele><time>2026-04-11T11:32:03.016Z</time></trkpt><trkpt lat="46.3631384" lon="9.6513654"><ele>1311.0</ele><time>2026-04-11T11:32:04.016Z</time></trkpt><trkpt lat="46.3630177" lon="9.6513515"><ele>1311.0</ele><time>2026-04-11T11:32:05.016Z</time></trkpt><trkpt lat="46.3629149" lon="9.6513348"><ele>1312.8333333333333</ele><time>2026-04-11T11:32:06.016Z</time></trkpt><trkpt lat="46.3628153" lon="9.651328"><ele>1314.6666666666667</ele><time>2026-04-11T11:32:07.016Z</time></trkpt><trkpt lat="46.3627281" lon="9.6513452"><ele>1316.5</ele><time>2026-04-11T11:32:08.016Z</time></trkpt><trkpt lat="46.3626545" lon="9.651401"><ele>1318.3333333333335</ele><time>2026-04-11T11:32:09.016Z</time></trkpt><trkpt lat="46.3626134" lon="9.6514811"><ele>1320.1666666666667</ele><time>2026-04-11T11:32:10.015Z</time></trkpt><trkpt lat="46.362604" lon="9.6515892"><ele>1322.0</ele><time>2026-04-11T11:32:11.016Z</time></trkpt><trkpt lat="46.3626336" lon="9.6516853"><ele>1322.0</ele><time>2026-04-11T11:32:12.016Z</time></trkpt><trkpt lat="46.3626931" lon="9.6517575"><ele>1322.0</ele><time>2026-04-11T11:32:13.016Z</time></trkpt><trkpt lat="46.3627772" lon="9.6517937"><ele>1322.0</ele><time>2026-04-11T11:32:14.015Z</time></trkpt><trkpt lat="46.3628791" lon="9.6518142"><ele>1322.0</ele><time>2026-04-11T11:32:15.016Z</time></trkpt><trkpt lat="46.3629836" lon="9.6518527"><ele>1322.0</ele><time>2026-04-11T11:32:16.016Z</time></trkpt><trkpt lat="46.3630934" lon="9.6519286"><ele>1322.75</ele><time>2026-04-11T11:32:17.016Z</time></trkpt><trkpt lat="46.3632049" lon="9.6520374"><ele>1323.5</ele><time>2026-04-11T11:32:18.016Z</time></trkpt><trkpt lat="46.3633085" lon="9.6521928"><ele>1324.25</ele><time>2026-04-11T11:32:19.016Z</time></trkpt><trkpt lat="46.3634107" lon="9.6523707"><ele>1325.0</ele><time>2026-04-11T11:32:20.015Z</time></trkpt><trkpt lat="46.3635084" lon="9.6525528"><ele>1325.0</ele><time>2026-04-11T11:32:21.016Z</time></trkpt><trkpt lat="46.3636127" lon="9.6527222"><ele>1325.0</ele><time>2026-04-11T11:32:22.016Z</time></trkpt><trkpt lat="46.3637322" lon="9.6528801"><ele>1325.0</ele><time>2026-04-11T11:32:23.016Z</time></trkpt><trkpt lat="46.3638578" lon="9.6530224"><ele>1327.3333333333335</ele><time>2026-04-11T11:32:24.016Z</time></trkpt><trkpt lat="46.3640046" lon="9.6531584"><ele>1329.6666666666667</ele><time>2026-04-11T11:32:25.016Z</time></trkpt><trkpt lat="46.3641712" lon="9.6532692"><ele>1332.0</ele><time>2026-04-11T11:32:26.016Z</time></trkpt><trkpt lat="46.3643453" lon="9.6533575"><ele>1332.0</ele><time>2026-04-11T11:32:27.016Z</time></trkpt><trkpt lat="46.3645254" lon="9.6534126"><ele>1332.0</ele><time>2026-04-11T11:32:28.016Z</time></trkpt><trkpt lat="46.3646958" lon="9.6534628"><ele>1332.0</ele><time>2026-04-11T11:32:29.016Z</time></trkpt><trkpt lat="46.3648728" lon="9.6535078"><ele>1330.0</ele><time>2026-04-11T11:32:30.016Z</time></trkpt><trkpt lat="46.3650514" lon="9.6535527"><ele>1328.0</ele><time>2026-04-11T11:32:31.016Z</time></trkpt><trkpt lat="46.3652289" lon="9.6535898"><ele>1326.0</ele><time>2026-04-11T11:32:32.016Z</time></trkpt><trkpt lat="46.3654135" lon="9.6536228"><ele>1329.0</ele><time>2026-04-11T11:32:33.016Z</time></trkpt><trkpt lat="46.365617" lon="9.6536737"><ele>1332.0</ele><time>2026-04-11T11:32:34.016Z</time></trkpt><trkpt lat="46.3658141" lon="9.6537212"><ele>1335.0</ele><time>2026-04-11T11:32:35.016Z</time></trkpt><trkpt lat="46.365987" lon="9.653776"><ele>1335.0</ele><time>2026-04-11T11:32:36.016Z</time></trkpt><trkpt lat="46.3661398" lon="9.6538094"><ele>1335.0</ele><time>2026-04-11T11:32:37.016Z</time></trkpt><trkpt lat="46.3662832" lon="9.6538472"><ele>1335.0</ele><time>2026-04-11T11:32:38.015Z</time></trkpt><trkpt lat="46.366409" lon="9.6538894"><ele>1335.0</ele><time>2026-04-11T11:32:39.015Z</time></trkpt><trkpt lat="46.3665192" lon="9.6539337"><ele>1335.2</ele><time>2026-04-11T11:32:40.016Z</time></trkpt><trkpt lat="46.3666086" lon="9.6539982"><ele>1335.4</ele><time>2026-04-11T11:32:41.016Z</time></trkpt><trkpt lat="46.3666655" lon="9.6540966"><ele>1335.6</ele><time>2026-04-11T11:32:42.016Z</time></trkpt><trkpt lat="46.3667033" lon="9.6542101"><ele>1335.8</ele><time>2026-04-11T11:32:43.016Z</time></trkpt><trkpt lat="46.3667126" lon="9.6543475"><ele>1336.0</ele><time>2026-04-11T11:32:44.016Z</time></trkpt><trkpt lat="46.3666898" lon="9.6544892"><ele>1338.75</ele><time>2026-04-11T11:32:45.016Z</time></trkpt><trkpt lat="46.366649" lon="9.6546379"><ele>1341.5</ele><time>2026-04-11T11:32:46.016Z</time></trkpt><trkpt lat="46.3665796" lon="9.6548003"><ele>1344.25</ele><time>2026-04-11T11:32:47.015Z</time></trkpt><trkpt lat="46.3664994" lon="9.6549877"><ele>1347.0</ele><time>2026-04-11T11:32:48.016Z</time></trkpt><trkpt lat="46.3663953" lon="9.6551815"><ele>1348.3333333333333</ele><time>2026-04-11T11:32:49.016Z</time></trkpt><trkpt lat="46.3662607" lon="9.6553556"><ele>1349.6666666666665</ele><time>2026-04-11T11:32:50.016Z</time></trkpt><trkpt lat="46.3661078" lon="9.6555192"><ele>1351.0</ele><time>2026-04-11T11:32:51.016Z</time></trkpt><trkpt lat="46.3659381" lon="9.655682"><ele>1351.0</ele><time>2026-04-11T11:32:52.016Z</time></trkpt><trkpt lat="46.3657677" lon="9.6558396"><ele>1351.0</ele><time>2026-04-11T11:32:53.016Z</time></trkpt><trkpt lat="46.3656142" lon="9.6559742"><ele>1351.0</ele><time>2026-04-11T11:32:54.015Z</time></trkpt><trkpt lat="46.3654875" lon="9.656095"><ele>1354.4</ele><time>2026-04-11T11:32:55.015Z</time></trkpt><trkpt lat="46.3653862" lon="9.6562005"><ele>1357.8</ele><time>2026-04-11T11:32:56.016Z</time></trkpt><trkpt lat="46.3653141" lon="9.6563042"><ele>1361.2</ele><time>2026-04-11T11:32:57.016Z</time></trkpt><trkpt lat="46.3652798" lon="9.6564128"><ele>1364.6000000000001</ele><time>2026-04-11T11:32:58.016Z</time></trkpt><trkpt lat="46.365278" lon="9.6565228"><ele>1368.0</ele><time>2026-04-11T11:32:59.015Z</time></trkpt><trkpt lat="46.3653084" lon="9.6566324"><ele>1368.0</ele><time>2026-04-11T11:33:00.016Z</time></trkpt><trkpt lat="46.3653704" lon="9.6567284"><ele>1368.0</ele><time>2026-04-11T11:33:01.016Z</time></trkpt><trkpt lat="46.3654692" lon="9.6567942"><ele>1368.0</ele><time>2026-04-11T11:33:02.016Z</time></trkpt><trkpt lat="46.3655915" lon="9.6568473"><ele>1368.0</ele><time>2026-04-11T11:33:03.015Z</time></trkpt><trkpt lat="46.3657319" lon="9.6569048"><ele>1370.0</ele><time>2026-04-11T11:33:04.016Z</time></trkpt><trkpt lat="46.3659015" lon="9.6569769"><ele>1372.0</ele><time>2026-04-11T11:33:05.016Z</time></trkpt><trkpt lat="46.3660677" lon="9.6570607"><ele>1374.0</ele><time>2026-04-11T11:33:06.015Z</time></trkpt><trkpt lat="46.3662417" lon="9.6571503"><ele>1375.0</ele><time>2026-04-11T11:33:07.015Z</time></trkpt><trkpt lat="46.3664184" lon="9.6572348"><ele>1376.0</ele><time>2026-04-11T11:33:08.016Z</time></trkpt><trkpt lat="46.3665862" lon="9.657299"><ele>1377.0</ele><time>2026-04-11T11:33:09.016Z</time></trkpt><trkpt lat="46.3667657" lon="9.6573248"><ele>1377.0</ele><time>2026-04-11T11:33:10.016Z</time></trkpt><trkpt lat="46.3669518" lon="9.6573183"><ele>1377.0</ele><time>2026-04-11T11:33:11.016Z</time></trkpt><trkpt lat="46.3671459" lon="9.6572874"><ele>1377.0</ele><time>2026-04-11T11:33:12.016Z</time></trkpt><trkpt lat="46.3673454" lon="9.6572633"><ele>1379.0</ele><time>2026-04-11T11:33:13.016Z</time></trkpt><trkpt lat="46.3675526" lon="9.6572636"><ele>1381.0</ele><time>2026-04-11T11:33:14.016Z</time></trkpt><trkpt lat="46.367775" lon="9.6573153"><ele>1383.0</ele><time>2026-04-11T11:33:15.016Z</time></trkpt><trkpt lat="46.3679943" lon="9.657385"><ele>1386.5</ele><time>2026-04-11T11:33:16.016Z</time></trkpt><trkpt lat="46.3682176" lon="9.6574858"><ele>1390.0</ele><time>2026-04-11T11:33:17.016Z</time></trkpt><trkpt lat="46.3684345" lon="9.6576062"><ele>1390.0</ele><time>2026-04-11T11:33:18.016Z</time></trkpt><trkpt lat="46.3686368" lon="9.6577307"><ele>1390.0</ele><time>2026-04-11T11:33:19.016Z</time></trkpt><trkpt lat="46.3688295" lon="9.6578243"><ele>1390.0</ele><time>2026-04-11T11:33:20.015Z</time></trkpt><trkpt lat="46.3690185" lon="9.6578886"><ele>1394.3333333333333</ele><time>2026-04-11T11:33:21.016Z</time></trkpt><trkpt lat="46.369208" lon="9.6579183"><ele>1398.6666666666667</ele><time>2026-04-11T11:33:22.016Z</time></trkpt><trkpt lat="46.3694006" lon="9.6579411"><ele>1403.0</ele><time>2026-04-11T11:33:23.016Z</time></trkpt><trkpt lat="46.369586" lon="9.6579992"><ele>1405.6666666666667</ele><time>2026-04-11T11:33:24.016Z</time></trkpt><trkpt lat="46.3697641" lon="9.6580908"><ele>1408.3333333333333</ele><time>2026-04-11T11:33:25.015Z</time></trkpt><trkpt lat="46.3699371" lon="9.6582043"><ele>1411.0</ele><time>2026-04-11T11:33:26.016Z</time></trkpt><trkpt lat="46.3701101" lon="9.6583342"><ele>1411.0</ele><time>2026-04-11T11:33:27.016Z</time></trkpt><trkpt lat="46.370287" lon="9.6584847"><ele>1411.0</ele><time>2026-04-11T11:33:28.016Z</time></trkpt><trkpt lat="46.3704721" lon="9.6586459"><ele>1411.0</ele><time>2026-04-11T11:33:29.016Z</time></trkpt><trkpt lat="46.3706614" lon="9.6588367"><ele>1414.3333333333333</ele><time>2026-04-11T11:33:30.016Z</time></trkpt><trkpt lat="46.3708399" lon="9.6590172"><ele>1417.6666666666667</ele><time>2026-04-11T11:33:31.016Z</time></trkpt><trkpt lat="46.3710051" lon="9.6591899"><ele>1421.0</ele><time>2026-04-11T11:33:32.016Z</time></trkpt><trkpt lat="46.3711434" lon="9.6593509"><ele>1424.5</ele><time>2026-04-11T11:33:33.016Z</time></trkpt><trkpt lat="46.3712507" lon="9.6595008"><ele>1428.0</ele><time>2026-04-11T11:33:34.016Z</time></trkpt><trkpt lat="46.3713482" lon="9.6596302"><ele>1431.5</ele><time>2026-04-11T11:33:35.016Z</time></trkpt><trkpt lat="46.3714553" lon="9.6597111"><ele>1435.0</ele><time>2026-04-11T11:33:36.016Z</time></trkpt><trkpt lat="46.3715713" lon="9.6597353"><ele>1435.3333333333333</ele><time>2026-04-11T11:33:37.016Z</time></trkpt><trkpt lat="46.3717152" lon="9.6597094"><ele>1435.6666666666667</ele><time>2026-04-11T11:33:38.016Z</time></trkpt><trkpt lat="46.371874" lon="9.659679"><ele>1436.0</ele><time>2026-04-11T11:33:39.016Z</time></trkpt><trkpt lat="46.3720541" lon="9.6596627"><ele>1438.0</ele><time>2026-04-11T11:33:40.016Z</time></trkpt><trkpt lat="46.3722397" lon="9.6596783"><ele>1440.0</ele><time>2026-04-11T11:33:41.016Z</time></trkpt><trkpt lat="46.372426" lon="9.6597174"><ele>1442.0</ele><time>2026-04-11T11:33:42.015Z</time></trkpt><trkpt lat="46.3726192" lon="9.6597689"><ele>1442.0</ele><time>2026-04-11T11:33:43.016Z</time></trkpt><trkpt lat="46.3727979" lon="9.6597805"><ele>1442.0</ele><time>2026-04-11T11:33:44.016Z</time></trkpt><trkpt lat="46.372971" lon="9.6597613"><ele>1442.0</ele><time>2026-04-11T11:33:45.016Z</time></trkpt><trkpt lat="46.3731498" lon="9.6596922"><ele>1438.6666666666667</ele><time>2026-04-11T11:33:46.016Z</time></trkpt><trkpt lat="46.3733344" lon="9.6596008"><ele>1435.3333333333333</ele><time>2026-04-11T11:33:47.016Z</time></trkpt><trkpt lat="46.373522" lon="9.6595047"><ele>1432.0</ele><time>2026-04-11T11:33:48.016Z</time></trkpt><trkpt lat="46.3737061" lon="9.6594344"><ele>1432.6666666666665</ele><time>2026-04-11T11:33:49.016Z</time></trkpt><trkpt lat="46.3738878" lon="9.6593916"><ele>1433.3333333333333</ele><time>2026-04-11T11:33:50.016Z</time></trkpt><trkpt lat="46.3740752" lon="9.6593874"><ele>1434.0</ele><time>2026-04-11T11:33:51.016Z</time></trkpt><trkpt lat="46.3742701" lon="9.6594217"><ele>1436.0</ele><time>2026-04-11T11:33:52.016Z</time></trkpt><trkpt lat="46.3744662" lon="9.659491"><ele>1438.0</ele><time>2026-04-11T11:33:53.016Z</time></trkpt><trkpt lat="46.3746784" lon="9.6596009"><ele>1440.0</ele><time>2026-04-11T11:33:54.016Z</time></trkpt><trkpt lat="46.374909" lon="9.6597294"><ele>1440.0</ele><time>2026-04-11T11:33:55.016Z</time></trkpt><trkpt lat="46.3751486" lon="9.6598484"><ele>1440.0</ele><time>2026-04-11T11:33:56.015Z</time></trkpt><trkpt lat="46.375402" lon="9.6599463"><ele>1436.5</ele><time>2026-04-11T11:33:57.016Z</time></trkpt><trkpt lat="46.3756798" lon="9.6600419"><ele>1433.0</ele><time>2026-04-11T11:33:58.016Z</time></trkpt><trkpt lat="46.3759608" lon="9.6601421"><ele>1433.0</ele><time>2026-04-11T11:33:59.016Z</time></trkpt><trkpt lat="46.3762422" lon="9.6602407"><ele>1433.0</ele><time>2026-04-11T11:34:00.015Z</time></trkpt><trkpt lat="46.3765209" lon="9.6603471"><ele>1436.0</ele><time>2026-04-11T11:34:01.016Z</time></trkpt><trkpt lat="46.3768072" lon="9.660445"><ele>1439.0</ele><time>2026-04-11T11:34:02.016Z</time></trkpt><trkpt lat="46.377098" lon="9.660538"><ele>1438.5</ele><time>2026-04-11T11:34:03.016Z</time></trkpt><trkpt lat="46.3774057" lon="9.6606208"><ele>1438.0</ele><time>2026-04-11T11:34:04.015Z</time></trkpt><trkpt lat="46.3777189" lon="9.6606822"><ele>1437.0</ele><time>2026-04-11T11:34:05.016Z</time></trkpt><trkpt lat="46.3780396" lon="9.660728"><ele>1436.0</ele><time>2026-04-11T11:34:06.016Z</time></trkpt><trkpt lat="46.3783636" lon="9.6607587"><ele>1436.0</ele><time>2026-04-11T11:34:07.016Z</time></trkpt><trkpt lat="46.3786904" lon="9.6607941"><ele>1436.0</ele><time>2026-04-11T11:34:08.016Z</time></trkpt><trkpt lat="46.3790189" lon="9.6608345"><ele>1437.0</ele><time>2026-04-11T11:34:09.016Z</time></trkpt><trkpt lat="46.3793458" lon="9.6608695"><ele>1438.0</ele><time>2026-04-11T11:34:10.016Z</time></trkpt><trkpt lat="46.3796678" lon="9.6609101"><ele>1438.5</ele><time>2026-04-11T11:34:11.015Z</time></trkpt><trkpt lat="46.3799862" lon="9.6609496"><ele>1439.0</ele><time>2026-04-11T11:34:12.016Z</time></trkpt><trkpt lat="46.380295" lon="9.6609892"><ele>1441.5</ele><time>2026-04-11T11:34:13.016Z</time></trkpt><trkpt lat="46.3805842" lon="9.6610264"><ele>1444.0</ele><time>2026-04-11T11:34:14.016Z</time></trkpt><trkpt lat="46.3808597" lon="9.6610555"><ele>1444.0</ele><time>2026-04-11T11:34:15.016Z</time></trkpt><trkpt lat="46.3811156" lon="9.6610896"><ele>1444.0</ele><time>2026-04-11T11:34:16.016Z</time></trkpt><trkpt lat="46.381352" lon="9.6611204"><ele>1446.0</ele><time>2026-04-11T11:34:17.016Z</time></trkpt><trkpt lat="46.3815733" lon="9.6611621"><ele>1448.0</ele><time>2026-04-11T11:34:18.016Z</time></trkpt><trkpt lat="46.3817754" lon="9.6612168"><ele>1450.0</ele><time>2026-04-11T11:34:19.016Z</time></trkpt><trkpt lat="46.3819737" lon="9.66129"><ele>1450.0</ele><time>2026-04-11T11:34:20.016Z</time></trkpt><trkpt lat="46.3821612" lon="9.6613829"><ele>1450.0</ele><time>2026-04-11T11:34:21.016Z</time></trkpt><trkpt lat="46.3823524" lon="9.6614835"><ele>1450.0</ele><time>2026-04-11T11:34:22.016Z</time></trkpt><trkpt lat="46.3825605" lon="9.6615904"><ele>1447.3333333333333</ele><time>2026-04-11T11:34:23.016Z</time></trkpt><trkpt lat="46.3827613" lon="9.6616874"><ele>1444.6666666666667</ele><time>2026-04-11T11:34:24.015Z</time></trkpt><trkpt lat="46.3829592" lon="9.6617818"><ele>1442.0</ele><time>2026-04-11T11:34:25.016Z</time></trkpt><trkpt lat="46.3831509" lon="9.6618753"><ele>1442.6666666666667</ele><time>2026-04-11T11:34:26.016Z</time></trkpt><trkpt lat="46.3833361" lon="9.6619677"><ele>1443.3333333333333</ele><time>2026-04-11T11:34:27.016Z</time></trkpt><trkpt lat="46.3835179" lon="9.6620607"><ele>1444.0</ele><time>2026-04-11T11:34:28.016Z</time></trkpt><trkpt lat="46.383698" lon="9.6621591"><ele>1444.0</ele><time>2026-04-11T11:34:29.016Z</time></trkpt><trkpt lat="46.38388" lon="9.6622514"><ele>1444.0</ele><time>2026-04-11T11:34:30.016Z</time></trkpt><trkpt lat="46.3840568" lon="9.6623344"><ele>1444.0</ele><time>2026-04-11T11:34:31.016Z</time></trkpt><trkpt lat="46.3842281" lon="9.6624209"><ele>1444.0</ele><time>2026-04-11T11:34:32.016Z</time></trkpt><trkpt lat="46.3844051" lon="9.6625141"><ele>1444.0</ele><time>2026-04-11T11:34:33.016Z</time></trkpt><trkpt lat="46.3845811" lon="9.6626086"><ele>1444.0</ele><time>2026-04-11T11:34:34.016Z</time></trkpt><trkpt lat="46.3847583" lon="9.6626992"><ele>1445.0</ele><time>2026-04-11T11:34:35.016Z</time></trkpt><trkpt lat="46.3849325" lon="9.6627895"><ele>1446.0</ele><time>2026-04-11T11:34:36.016Z</time></trkpt><trkpt lat="46.3851097" lon="9.6628834"><ele>1447.0</ele><time>2026-04-11T11:34:37.016Z</time></trkpt><trkpt lat="46.3852847" lon="9.6629677"><ele>1447.0</ele><time>2026-04-11T11:34:38.016Z</time></trkpt><trkpt lat="46.3854498" lon="9.6630451"><ele>1447.0</ele><time>2026-04-11T11:34:39.016Z</time></trkpt><trkpt lat="46.3856038" lon="9.6631129"><ele>1447.0</ele><time>2026-04-11T11:34:40.016Z</time></trkpt><trkpt lat="46.3857451" lon="9.6631816"><ele>1447.6666666666665</ele><time>2026-04-11T11:34:41.016Z</time></trkpt><trkpt lat="46.3858827" lon="9.66326"><ele>1448.3333333333333</ele><time>2026-04-11T11:34:42.016Z</time></trkpt><trkpt lat="46.3860201" lon="9.6633341"><ele>1449.0</ele><time>2026-04-11T11:34:43.016Z</time></trkpt><trkpt lat="46.3861654" lon="9.6634163"><ele>1449.0</ele><time>2026-04-11T11:34:44.016Z</time></trkpt><trkpt lat="46.3863214" lon="9.6634969"><ele>1449.0</ele><time>2026-04-11T11:34:45.016Z</time></trkpt><trkpt lat="46.3864765" lon="9.6635776"><ele>1449.0</ele><time>2026-04-11T11:34:46.016Z</time></trkpt><trkpt lat="46.3866339" lon="9.6636564"><ele>1449.0</ele><time>2026-04-11T11:34:47.016Z</time></trkpt><trkpt lat="46.3867894" lon="9.6637384"><ele>1449.0</ele><time>2026-04-11T11:34:48.015Z</time></trkpt><trkpt lat="46.3869456" lon="9.6638172"><ele>1449.0</ele><time>2026-04-11T11:34:49.015Z</time></trkpt><trkpt lat="46.387107" lon="9.6639011"><ele>1449.6666666666667</ele><time>2026-04-11T11:34:50.016Z</time></trkpt><trkpt lat="46.3872727" lon="9.6639873"><ele>1450.3333333333335</ele><time>2026-04-11T11:34:51.016Z</time></trkpt><trkpt lat="46.3874374" lon="9.6640713"><ele>1451.0</ele><time>2026-04-11T11:34:52.016Z</time></trkpt><trkpt lat="46.3876031" lon="9.6641562"><ele>1451.0</ele><time>2026-04-11T11:34:53.015Z</time></trkpt><trkpt lat="46.38777" lon="9.6642382"><ele>1451.0</ele><time>2026-04-11T11:34:54.015Z</time></trkpt><trkpt lat="46.3879344" lon="9.6643221"><ele>1451.0</ele><time>2026-04-11T11:34:55.016Z</time></trkpt><trkpt lat="46.3880879" lon="9.6643997"><ele>1452.6666666666667</ele><time>2026-04-11T11:34:56.015Z</time></trkpt><trkpt lat="46.3882369" lon="9.6644787"><ele>1454.3333333333333</ele><time>2026-04-11T11:34:57.016Z</time></trkpt><trkpt lat="46.388381" lon="9.6645499"><ele>1456.0</ele><time>2026-04-11T11:34:58.016Z</time></trkpt><trkpt lat="46.3885122" lon="9.6646212"><ele>1456.0</ele><time>2026-04-11T11:34:59.016Z</time></trkpt><trkpt lat="46.388641" lon="9.6646837"><ele>1456.0</ele><time>2026-04-11T11:35:00.016Z</time></trkpt><trkpt lat="46.3887667" lon="9.6647456"><ele>1456.0</ele><time>2026-04-11T11:35:01.016Z</time></trkpt><trkpt lat="46.3888829" lon="9.6648116"><ele>1456.0</ele><time>2026-04-11T11:35:02.016Z</time></trkpt><trkpt lat="46.3889914" lon="9.6648698"><ele>1456.0</ele><time>2026-04-11T11:35:03.016Z</time></trkpt><trkpt lat="46.3890992" lon="9.664928"><ele>1456.0</ele><time>2026-04-11T11:35:04.016Z</time></trkpt><trkpt lat="46.3892046" lon="9.6649869"><ele>1456.0</ele><time>2026-04-11T11:35:05.016Z</time></trkpt><trkpt lat="46.3893136" lon="9.6650464"><ele>1456.0</ele><time>2026-04-11T11:35:06.016Z</time></trkpt><trkpt lat="46.3894328" lon="9.6651109"><ele>1456.0</ele><time>2026-04-11T11:35:07.016Z</time></trkpt><trkpt lat="46.3895609" lon="9.6651695"><ele>1456.0</ele><time>2026-04-11T11:35:08.016Z</time></trkpt><trkpt lat="46.389687" lon="9.6652347"><ele>1456.0</ele><time>2026-04-11T11:35:09.016Z</time></trkpt><trkpt lat="46.3898077" lon="9.6652925"><ele>1456.0</ele><time>2026-04-11T11:35:10.015Z</time></trkpt><trkpt lat="46.3899303" lon="9.6653548"><ele>1456.5</ele><time>2026-04-11T11:35:11.016Z</time></trkpt><trkpt lat="46.3900506" lon="9.6654177"><ele>1457.0</ele><time>2026-04-11T11:35:12.016Z</time></trkpt><trkpt lat="46.3901762" lon="9.665496"><ele>1457.5</ele><time>2026-04-11T11:35:13.016Z</time></trkpt><trkpt lat="46.3902947" lon="9.6655766"><ele>1458.0</ele><time>2026-04-11T11:35:14.016Z</time></trkpt><trkpt lat="46.3904117" lon="9.665675"><ele>1459.5</ele><time>2026-04-11T11:35:15.016Z</time></trkpt><trkpt lat="46.3905233" lon="9.6657881"><ele>1461.0</ele><time>2026-04-11T11:35:16.016Z</time></trkpt><trkpt lat="46.3906417" lon="9.6659117"><ele>1462.5</ele><time>2026-04-11T11:35:17.016Z</time></trkpt><trkpt lat="46.3907478" lon="9.666026"><ele>1464.0</ele><time>2026-04-11T11:35:18.016Z</time></trkpt><trkpt lat="46.3908577" lon="9.6661373"><ele>1464.0</ele><time>2026-04-11T11:35:19.016Z</time></trkpt><trkpt lat="46.3909718" lon="9.6662361"><ele>1464.0</ele><time>2026-04-11T11:35:20.016Z</time></trkpt><trkpt lat="46.3910871" lon="9.6663271"><ele>1464.0</ele><time>2026-04-11T11:35:21.015Z</time></trkpt><trkpt lat="46.3912131" lon="9.6664157"><ele>1464.0</ele><time>2026-04-11T11:35:22.016Z</time></trkpt><trkpt lat="46.3913402" lon="9.6665145"><ele>1464.0</ele><time>2026-04-11T11:35:23.016Z</time></trkpt><trkpt lat="46.3914649" lon="9.6666153"><ele>1464.0</ele><time>2026-04-11T11:35:24.016Z</time></trkpt><trkpt lat="46.3915888" lon="9.6667328"><ele>1464.0</ele><time>2026-04-11T11:35:25.016Z</time></trkpt><trkpt lat="46.3917138" lon="9.6668566"><ele>1464.0</ele><time>2026-04-11T11:35:26.016Z</time></trkpt><trkpt lat="46.39184" lon="9.6669824"><ele>1466.0</ele><time>2026-04-11T11:35:27.016Z</time></trkpt><trkpt lat="46.3919635" lon="9.6671183"><ele>1468.0</ele><time>2026-04-11T11:35:28.016Z</time></trkpt><trkpt lat="46.3920913" lon="9.667257"><ele>1470.0</ele><time>2026-04-11T11:35:29.016Z</time></trkpt><trkpt lat="46.3922225" lon="9.6674014"><ele>1470.0</ele><time>2026-04-11T11:35:30.016Z</time></trkpt><trkpt lat="46.3923551" lon="9.6675519"><ele>1470.0</ele><time>2026-04-11T11:35:31.016Z</time></trkpt><trkpt lat="46.3924898" lon="9.6677038"><ele>1470.0</ele><time>2026-04-11T11:35:32.016Z</time></trkpt><trkpt lat="46.3926266" lon="9.667862"><ele>1471.0</ele><time>2026-04-11T11:35:33.016Z</time></trkpt><trkpt lat="46.3927725" lon="9.6680195"><ele>1472.0</ele><time>2026-04-11T11:35:34.016Z</time></trkpt><trkpt lat="46.3929171" lon="9.6681705"><ele>1473.0</ele><time>2026-04-11T11:35:35.016Z</time></trkpt><trkpt lat="46.3930547" lon="9.6683139"><ele>1475.6666666666667</ele><time>2026-04-11T11:35:36.016Z</time></trkpt><trkpt lat="46.3931858" lon="9.668466"><ele>1478.3333333333335</ele><time>2026-04-11T11:35:37.016Z</time></trkpt><trkpt lat="46.3933106" lon="9.668621"><ele>1481.0</ele><time>2026-04-11T11:35:38.016Z</time></trkpt><trkpt lat="46.3934282" lon="9.6687842"><ele>1481.0</ele><time>2026-04-11T11:35:39.016Z</time></trkpt><trkpt lat="46.3935269" lon="9.6689649"><ele>1481.0</ele><time>2026-04-11T11:35:40.016Z</time></trkpt><trkpt lat="46.3936101" lon="9.6691564"><ele>1481.0</ele><time>2026-04-11T11:35:41.016Z</time></trkpt><trkpt lat="46.3936842" lon="9.6693636"><ele>1485.3333333333335</ele><time>2026-04-11T11:35:42.015Z</time></trkpt><trkpt lat="46.393743" lon="9.669591"><ele>1489.6666666666667</ele><time>2026-04-11T11:35:43.016Z</time></trkpt><trkpt lat="46.3937907" lon="9.6698308"><ele>1494.0</ele><time>2026-04-11T11:35:44.016Z</time></trkpt><trkpt lat="46.3938327" lon="9.6700714"><ele>1497.3333333333333</ele><time>2026-04-11T11:35:45.016Z</time></trkpt><trkpt lat="46.3938682" lon="9.6703035"><ele>1500.6666666666665</ele><time>2026-04-11T11:35:46.016Z</time></trkpt><trkpt lat="46.393899" lon="9.6705168"><ele>1504.0</ele><time>2026-04-11T11:35:47.016Z</time></trkpt><trkpt lat="46.393917" lon="9.6707224"><ele>1504.0</ele><time>2026-04-11T11:35:48.016Z</time></trkpt><trkpt lat="46.3939226" lon="9.6709183"><ele>1504.0</ele><time>2026-04-11T11:35:49.016Z</time></trkpt><trkpt lat="46.3939131" lon="9.6710876"><ele>1504.0</ele><time>2026-04-11T11:35:50.016Z</time></trkpt><trkpt lat="46.3938956" lon="9.6712309"><ele>1504.0</ele><time>2026-04-11T11:35:51.016Z</time></trkpt><trkpt lat="46.3938899" lon="9.6713489"><ele>1504.0</ele><time>2026-04-11T11:35:52.016Z</time></trkpt><trkpt lat="46.3939109" lon="9.6714455"><ele>1505.2857142857142</ele><time>2026-04-11T11:35:53.015Z</time></trkpt><trkpt lat="46.3939573" lon="9.6715237"><ele>1506.5714285714284</ele><time>2026-04-11T11:35:54.016Z</time></trkpt><trkpt lat="46.3940263" lon="9.67155"><ele>1507.857142857143</ele><time>2026-04-11T11:35:55.016Z</time></trkpt><trkpt lat="46.3941006" lon="9.671538"><ele>1509.142857142857</ele><time>2026-04-11T11:35:56.016Z</time></trkpt><trkpt lat="46.3941581" lon="9.6714829"><ele>1510.4285714285716</ele><time>2026-04-11T11:35:57.016Z</time></trkpt><trkpt lat="46.3941971" lon="9.6713963"><ele>1511.7142857142858</ele><time>2026-04-11T11:35:58.016Z</time></trkpt><trkpt lat="46.3942202" lon="9.6712884"><ele>1513.0</ele><time>2026-04-11T11:35:59.016Z</time></trkpt><trkpt lat="46.3942447" lon="9.6711639"><ele>1513.0</ele><time>2026-04-11T11:36:00.016Z</time></trkpt><trkpt lat="46.3942831" lon="9.6710545"><ele>1513.0</ele><time>2026-04-11T11:36:01.016Z</time></trkpt><trkpt lat="46.394342" lon="9.6709837"><ele>1513.0</ele><time>2026-04-11T11:36:02.016Z</time></trkpt><trkpt lat="46.3944098" lon="9.6709371"><ele>1513.0</ele><time>2026-04-11T11:36:03.016Z</time></trkpt><trkpt lat="46.3944797" lon="9.6709459"><ele>1513.0</ele><time>2026-04-11T11:36:04.016Z</time></trkpt><trkpt lat="46.3945316" lon="9.6710162"><ele>1513.0</ele><time>2026-04-11T11:36:05.016Z</time></trkpt><trkpt lat="46.3945526" lon="9.6711144"><ele>1513.0</ele><time>2026-04-11T11:36:06.016Z</time></trkpt><trkpt lat="46.3945546" lon="9.6712171"><ele>1513.0</ele><time>2026-04-11T11:36:07.015Z</time></trkpt><trkpt lat="46.3945281" lon="9.6713324"><ele>1513.0</ele><time>2026-04-11T11:36:08.015Z</time></trkpt><trkpt lat="46.394485" lon="9.6714579"><ele>1513.0</ele><time>2026-04-11T11:36:09.015Z</time></trkpt><trkpt lat="46.3944089" lon="9.6715924"><ele>1513.0</ele><time>2026-04-11T11:36:10.016Z</time></trkpt><trkpt lat="46.3943327" lon="9.6717426"><ele>1513.0</ele><time>2026-04-11T11:36:11.016Z</time></trkpt><trkpt lat="46.3942629" lon="9.6719003"><ele>1514.5</ele><time>2026-04-11T11:36:12.016Z</time></trkpt><trkpt lat="46.3942119" lon="9.6720702"><ele>1516.0</ele><time>2026-04-11T11:36:13.015Z</time></trkpt><trkpt lat="46.3941982" lon="9.6722545"><ele>1517.5</ele><time>2026-04-11T11:36:14.016Z</time></trkpt><trkpt lat="46.3942117" lon="9.6724391"><ele>1519.0</ele><time>2026-04-11T11:36:15.016Z</time></trkpt><trkpt lat="46.3942537" lon="9.6726119"><ele>1521.0</ele><time>2026-04-11T11:36:16.016Z</time></trkpt><trkpt lat="46.3943169" lon="9.6727912"><ele>1523.0</ele><time>2026-04-11T11:36:17.016Z</time></trkpt><trkpt lat="46.3943597" lon="9.6729779"><ele>1525.0</ele><time>2026-04-11T11:36:18.016Z</time></trkpt><trkpt lat="46.3943695" lon="9.6731806"><ele>1527.0</ele><time>2026-04-11T11:36:19.016Z</time></trkpt><trkpt lat="46.3943705" lon="9.6733825"><ele>1527.0</ele><time>2026-04-11T11:36:20.016Z</time></trkpt><trkpt lat="46.3943524" lon="9.6735948"><ele>1527.0</ele><time>2026-04-11T11:36:21.016Z</time></trkpt><trkpt lat="46.3943467" lon="9.6738098"><ele>1527.0</ele><time>2026-04-11T11:36:22.016Z</time></trkpt><trkpt lat="46.3943696" lon="9.674031"><ele>1530.5</ele><time>2026-04-11T11:36:23.016Z</time></trkpt><trkpt lat="46.3944106" lon="9.6742336"><ele>1534.0</ele><time>2026-04-11T11:36:24.016Z</time></trkpt><trkpt lat="46.3944552" lon="9.6744343"><ele>1537.5</ele><time>2026-04-11T11:36:25.016Z</time></trkpt><trkpt lat="46.394475" lon="9.6746517"><ele>1541.0</ele><time>2026-04-11T11:36:26.016Z</time></trkpt><trkpt lat="46.3944467" lon="9.6748604"><ele>1544.0</ele><time>2026-04-11T11:36:27.016Z</time></trkpt><trkpt lat="46.3944262" lon="9.675067"><ele>1547.0</ele><time>2026-04-11T11:36:28.016Z</time></trkpt><trkpt lat="46.3944143" lon="9.6752612"><ele>1550.0</ele><time>2026-04-11T11:36:29.015Z</time></trkpt><trkpt lat="46.3944367" lon="9.6754761"><ele>1553.0</ele><time>2026-04-11T11:36:30.015Z</time></trkpt><trkpt lat="46.3944939" lon="9.6756648"><ele>1554.0</ele><time>2026-04-11T11:36:31.016Z</time></trkpt><trkpt lat="46.3945641" lon="9.6758567"><ele>1555.0</ele><time>2026-04-11T11:36:32.016Z</time></trkpt><trkpt lat="46.3946298" lon="9.6760587"><ele>1556.0</ele><time>2026-04-11T11:36:33.016Z</time></trkpt><trkpt lat="46.3946767" lon="9.6762775"><ele>1556.0</ele><time>2026-04-11T11:36:34.016Z</time></trkpt><trkpt lat="46.3947204" lon="9.6764922"><ele>1556.0</ele><time>2026-04-11T11:36:35.016Z</time></trkpt><trkpt lat="46.3947767" lon="9.676684"><ele>1556.0</ele><time>2026-04-11T11:36:36.016Z</time></trkpt><trkpt lat="46.3948503" lon="9.6768449"><ele>1556.0</ele><time>2026-04-11T11:36:37.016Z</time></trkpt><trkpt lat="46.3949305" lon="9.6769692"><ele>1555.25</ele><time>2026-04-11T11:36:38.016Z</time></trkpt><trkpt lat="46.3950323" lon="9.6770455"><ele>1554.5</ele><time>2026-04-11T11:36:39.016Z</time></trkpt><trkpt lat="46.3951457" lon="9.6771015"><ele>1553.75</ele><time>2026-04-11T11:36:40.016Z</time></trkpt><trkpt lat="46.3952697" lon="9.6771359"><ele>1553.0</ele><time>2026-04-11T11:36:41.015Z</time></trkpt><trkpt lat="46.3954112" lon="9.6771801"><ele>1554.0</ele><time>2026-04-11T11:36:42.016Z</time></trkpt><trkpt lat="46.395556" lon="9.6772698"><ele>1555.0</ele><time>2026-04-11T11:36:43.015Z</time></trkpt><trkpt lat="46.395704" lon="9.6773884"><ele>1556.0</ele><time>2026-04-11T11:36:44.015Z</time></trkpt><trkpt lat="46.3958582" lon="9.6775609"><ele>1556.0</ele><time>2026-04-11T11:36:45.015Z</time></trkpt><trkpt lat="46.3960173" lon="9.6777516"><ele>1556.0</ele><time>2026-04-11T11:36:46.015Z</time></trkpt><trkpt lat="46.396174" lon="9.6779581"><ele>1556.0</ele><time>2026-04-11T11:36:47.015Z</time></trkpt><trkpt lat="46.3963506" lon="9.6781477"><ele>1558.5</ele><time>2026-04-11T11:36:48.015Z</time></trkpt><trkpt lat="46.3965499" lon="9.6783262"><ele>1561.0</ele><time>2026-04-11T11:36:49.014Z</time></trkpt><trkpt lat="46.3967622" lon="9.6784977"><ele>1562.3333333333335</ele><time>2026-04-11T11:36:50.014Z</time></trkpt><trkpt lat="46.3969605" lon="9.6786724"><ele>1563.6666666666665</ele><time>2026-04-11T11:36:51.015Z</time></trkpt><trkpt lat="46.3971295" lon="9.6788578"><ele>1565.0</ele><time>2026-04-11T11:36:52.015Z</time></trkpt><trkpt lat="46.3972838" lon="9.6790728"><ele>1565.0</ele><time>2026-04-11T11:36:53.014Z</time></trkpt><trkpt lat="46.3974292" lon="9.679307"><ele>1565.0</ele><time>2026-04-11T11:36:54.014Z</time></trkpt><trkpt lat="46.3975596" lon="9.6795559"><ele>1565.0</ele><time>2026-04-11T11:36:55.015Z</time></trkpt><trkpt lat="46.3976741" lon="9.6798299"><ele>1560.6666666666665</ele><time>2026-04-11T11:36:56.015Z</time></trkpt><trkpt lat="46.3977716" lon="9.6801153"><ele>1556.3333333333335</ele><time>2026-04-11T11:36:57.015Z</time></trkpt><trkpt lat="46.397866" lon="9.6804133"><ele>1552.0</ele><time>2026-04-11T11:36:58.014Z</time></trkpt><trkpt lat="46.3979665" lon="9.6807099"><ele>1556.5</ele><time>2026-04-11T11:36:59.015Z</time></trkpt><trkpt lat="46.3980872" lon="9.680994"><ele>1561.0</ele><time>2026-04-11T11:37:00.014Z</time></trkpt><trkpt lat="46.3982058" lon="9.681264"><ele>1561.0</ele><time>2026-04-11T11:37:01.015Z</time></trkpt><trkpt lat="46.3983257" lon="9.6815186"><ele>1561.0</ele><time>2026-04-11T11:37:02.015Z</time></trkpt><trkpt lat="46.3984301" lon="9.6817734"><ele>1561.0</ele><time>2026-04-11T11:37:03.015Z</time></trkpt><trkpt lat="46.3985231" lon="9.682029"><ele>1559.6666666666667</ele><time>2026-04-11T11:37:04.015Z</time></trkpt><trkpt lat="46.3985924" lon="9.6823102"><ele>1558.3333333333335</ele><time>2026-04-11T11:37:05.015Z</time></trkpt><trkpt lat="46.3986354" lon="9.6826067"><ele>1557.0</ele><time>2026-04-11T11:37:06.015Z</time></trkpt><trkpt lat="46.3986628" lon="9.6829133"><ele>1557.0</ele><time>2026-04-11T11:37:07.015Z</time></trkpt><trkpt lat="46.3986737" lon="9.6832269"><ele>1557.0</ele><time>2026-04-11T11:37:08.015Z</time></trkpt><trkpt lat="46.3986692" lon="9.6835464"><ele>1557.0</ele><time>2026-04-11T11:37:09.015Z</time></trkpt><trkpt lat="46.3986464" lon="9.6838659"><ele>1558.3333333333335</ele><time>2026-04-11T11:37:10.015Z</time></trkpt><trkpt lat="46.3986083" lon="9.6841791"><ele>1559.6666666666667</ele><time>2026-04-11T11:37:11.015Z</time></trkpt><trkpt lat="46.3985517" lon="9.684486"><ele>1561.0</ele><time>2026-04-11T11:37:12.014Z</time></trkpt><trkpt lat="46.3984783" lon="9.6847786"><ele>1561.0</ele><time>2026-04-11T11:37:13.015Z</time></trkpt><trkpt lat="46.3983822" lon="9.6850692"><ele>1561.0</ele><time>2026-04-11T11:37:14.015Z</time></trkpt><trkpt lat="46.3982581" lon="9.6853323"><ele>1561.0</ele><time>2026-04-11T11:37:15.015Z</time></trkpt><trkpt lat="46.3981107" lon="9.6855726"><ele>1561.6666666666667</ele><time>2026-04-11T11:37:16.014Z</time></trkpt><trkpt lat="46.3979712" lon="9.6858245"><ele>1562.3333333333335</ele><time>2026-04-11T11:37:17.015Z</time></trkpt><trkpt lat="46.3978572" lon="9.6860752"><ele>1563.0</ele><time>2026-04-11T11:37:18.015Z</time></trkpt><trkpt lat="46.397771" lon="9.6863331"><ele>1565.0</ele><time>2026-04-11T11:37:19.015Z</time></trkpt><trkpt lat="46.3977059" lon="9.6865827"><ele>1567.0</ele><time>2026-04-11T11:37:20.015Z</time></trkpt><trkpt lat="46.3976498" lon="9.6868291"><ele>1569.0</ele><time>2026-04-11T11:37:21.015Z</time></trkpt><trkpt lat="46.397581" lon="9.6870608"><ele>1571.0</ele><time>2026-04-11T11:37:22.015Z</time></trkpt><trkpt lat="46.3974819" lon="9.6872678"><ele>1573.0</ele><time>2026-04-11T11:37:23.015Z</time></trkpt><trkpt lat="46.3973671" lon="9.687423"><ele>1575.0</ele><time>2026-04-11T11:37:24.015Z</time></trkpt><trkpt lat="46.3972528" lon="9.6875586"><ele>1575.0</ele><time>2026-04-11T11:37:25.015Z</time></trkpt><trkpt lat="46.3971538" lon="9.6876861"><ele>1575.0</ele><time>2026-04-11T11:37:26.015Z</time></trkpt><trkpt lat="46.3970933" lon="9.6878136"><ele>1575.0</ele><time>2026-04-11T11:37:27.015Z</time></trkpt><trkpt lat="46.3970618" lon="9.6879472"><ele>1575.0</ele><time>2026-04-11T11:37:28.015Z</time></trkpt><trkpt lat="46.3970711" lon="9.6880693"><ele>1575.0</ele><time>2026-04-11T11:37:29.015Z</time></trkpt><trkpt lat="46.3971133" lon="9.6881647"><ele>1578.8</ele><time>2026-04-11T11:37:30.014Z</time></trkpt><trkpt lat="46.3971837" lon="9.6882391"><ele>1582.6</ele><time>2026-04-11T11:37:31.015Z</time></trkpt><trkpt lat="46.3972788" lon="9.6882673"><ele>1586.4</ele><time>2026-04-11T11:37:32.015Z</time></trkpt><trkpt lat="46.3973825" lon="9.688254"><ele>1590.2</ele><time>2026-04-11T11:37:33.015Z</time></trkpt><trkpt lat="46.3974752" lon="9.6881898"><ele>1594.0</ele><time>2026-04-11T11:37:34.015Z</time></trkpt><trkpt lat="46.3975474" lon="9.6880789"><ele>1594.0</ele><time>2026-04-11T11:37:35.014Z</time></trkpt><trkpt lat="46.3976296" lon="9.6879607"><ele>1594.0</ele><time>2026-04-11T11:37:36.015Z</time></trkpt><trkpt lat="46.3977383" lon="9.6878315"><ele>1594.0</ele><time>2026-04-11T11:37:37.015Z</time></trkpt><trkpt lat="46.3978708" lon="9.6876834"><ele>1594.0</ele><time>2026-04-11T11:37:38.015Z</time></trkpt><trkpt lat="46.3980104" lon="9.6875295"><ele>1592.3333333333335</ele><time>2026-04-11T11:37:39.015Z</time></trkpt><trkpt lat="46.3981457" lon="9.6873786"><ele>1590.6666666666665</ele><time>2026-04-11T11:37:40.014Z</time></trkpt><trkpt lat="46.3982793" lon="9.6872191"><ele>1589.0</ele><time>2026-04-11T11:37:41.015Z</time></trkpt><trkpt lat="46.3983932" lon="9.6870639"><ele>1589.0</ele><time>2026-04-11T11:37:42.015Z</time></trkpt><trkpt lat="46.3984875" lon="9.6869321"><ele>1589.0</ele><time>2026-04-11T11:37:43.014Z</time></trkpt><trkpt lat="46.3985717" lon="9.6868321"><ele>1589.0</ele><time>2026-04-11T11:37:44.015Z</time></trkpt><trkpt lat="46.3986531" lon="9.6867659"><ele>1589.0</ele><time>2026-04-11T11:37:45.014Z</time></trkpt><trkpt lat="46.3987256" lon="9.6867393"><ele>1589.0</ele><time>2026-04-11T11:37:46.015Z</time></trkpt><trkpt lat="46.3987956" lon="9.6867811"><ele>1588.9999999999998</ele><time>2026-04-11T11:37:47.014Z</time></trkpt><trkpt lat="46.3988421" lon="9.6868704"><ele>1589.0</ele><time>2026-04-11T11:37:48.014Z</time></trkpt><trkpt lat="46.3988632" lon="9.6869834"><ele>1589.0</ele><time>2026-04-11T11:37:49.015Z</time></trkpt><trkpt lat="46.3988488" lon="9.6871034"><ele>1589.0</ele><time>2026-04-11T11:37:50.015Z</time></trkpt><trkpt lat="46.3988061" lon="9.6872113"><ele>1588.9999999999998</ele><time>2026-04-11T11:37:51.015Z</time></trkpt><trkpt lat="46.3987374" lon="9.6873083"><ele>1589.0</ele><time>2026-04-11T11:37:52.014Z</time></trkpt><trkpt lat="46.3986442" lon="9.6873934"><ele>1589.0</ele><time>2026-04-11T11:37:53.015Z</time></trkpt><trkpt lat="46.3985269" lon="9.6874713"><ele>1589.0</ele><time>2026-04-11T11:37:54.015Z</time></trkpt><trkpt lat="46.3984081" lon="9.6875807"><ele>1589.0</ele><time>2026-04-11T11:37:55.015Z</time></trkpt><trkpt lat="46.3982869" lon="9.6877324"><ele>1589.0</ele><time>2026-04-11T11:37:56.015Z</time></trkpt><trkpt lat="46.3981769" lon="9.6878999"><ele>1590.6666666666665</ele><time>2026-04-11T11:37:57.015Z</time></trkpt><trkpt lat="46.3980872" lon="9.6880937"><ele>1592.3333333333335</ele><time>2026-04-11T11:37:58.014Z</time></trkpt><trkpt lat="46.3980101" lon="9.6883048"><ele>1594.0</ele><time>2026-04-11T11:37:59.015Z</time></trkpt><trkpt lat="46.3979564" lon="9.6885383"><ele>1602.0</ele><time>2026-04-11T11:38:00.015Z</time></trkpt><trkpt lat="46.3979046" lon="9.6887539"><ele>1610.0</ele><time>2026-04-11T11:38:01.014Z</time></trkpt><trkpt lat="46.3978447" lon="9.6889483"><ele>1618.0</ele><time>2026-04-11T11:38:02.015Z</time></trkpt><trkpt lat="46.3977677" lon="9.6891352"><ele>1618.0</ele><time>2026-04-11T11:38:03.015Z</time></trkpt><trkpt lat="46.397666" lon="9.6893102"><ele>1618.0</ele><time>2026-04-11T11:38:04.015Z</time></trkpt><trkpt lat="46.39756" lon="9.689479"><ele>1618.0</ele><time>2026-04-11T11:38:05.015Z</time></trkpt><trkpt lat="46.3974544" lon="9.6896371"><ele>1625.25</ele><time>2026-04-11T11:38:06.015Z</time></trkpt><trkpt lat="46.3973644" lon="9.6898031"><ele>1632.5</ele><time>2026-04-11T11:38:07.015Z</time></trkpt><trkpt lat="46.397293" lon="9.6899722"><ele>1639.75</ele><time>2026-04-11T11:38:08.015Z</time></trkpt><trkpt lat="46.3972411" lon="9.6901521"><ele>1647.0</ele><time>2026-04-11T11:38:09.015Z</time></trkpt><trkpt lat="46.3971847" lon="9.6903324"><ele>1647.75</ele><time>2026-04-11T11:38:10.014Z</time></trkpt><trkpt lat="46.3971143" lon="9.6905129"><ele>1648.5</ele><time>2026-04-11T11:38:11.014Z</time></trkpt><trkpt lat="46.3970443" lon="9.6906416"><ele>1649.25</ele><time>2026-04-11T11:38:12.015Z</time></trkpt><trkpt lat="46.3969524" lon="9.6907348"><ele>1650.0</ele><time>2026-04-11T11:38:13.015Z</time></trkpt><trkpt lat="46.3968596" lon="9.6907769"><ele>1650.0</ele><time>2026-04-11T11:38:14.015Z</time></trkpt><trkpt lat="46.3967542" lon="9.6907733"><ele>1650.0</ele><time>2026-04-11T11:38:15.015Z</time></trkpt><trkpt lat="46.3966367" lon="9.690741"><ele>1650.0</ele><time>2026-04-11T11:38:16.015Z</time></trkpt><trkpt lat="46.3965116" lon="9.690694"><ele>1650.0</ele><time>2026-04-11T11:38:17.015Z</time></trkpt><trkpt lat="46.3963946" lon="9.6906375"><ele>1653.2</ele><time>2026-04-11T11:38:18.015Z</time></trkpt><trkpt lat="46.3962843" lon="9.6905723"><ele>1656.4</ele><time>2026-04-11T11:38:19.015Z</time></trkpt><trkpt lat="46.3961938" lon="9.6905005"><ele>1659.6</ele><time>2026-04-11T11:38:20.015Z</time></trkpt><trkpt lat="46.3961168" lon="9.6904182"><ele>1662.8</ele><time>2026-04-11T11:38:21.015Z</time></trkpt><trkpt lat="46.3960711" lon="9.6903201"><ele>1666.0</ele><time>2026-04-11T11:38:22.015Z</time></trkpt><trkpt lat="46.396003" lon="9.6901833"><ele>1666.0</ele><time>2026-04-11T11:38:24.015Z</time></trkpt><trkpt lat="46.3959077" lon="9.6901815"><ele>1666.0</ele><time>2026-04-11T11:38:26.015Z</time></trkpt><trkpt lat="46.3959015" lon="9.6903493"><ele>1666.0</ele><time>2026-04-11T11:38:28.015Z</time></trkpt><trkpt lat="46.3959397" lon="9.6904561"><ele>1666.0</ele><time>2026-04-11T11:38:29.015Z</time></trkpt><trkpt lat="46.3960064" lon="9.6905462"><ele>1666.0</ele><time>2026-04-11T11:38:30.015Z</time></trkpt><trkpt lat="46.3960833" lon="9.6906581"><ele>1669.75</ele><time>2026-04-11T11:38:31.015Z</time></trkpt><trkpt lat="46.3961777" lon="9.6907851"><ele>1673.5</ele><time>2026-04-11T11:38:32.015Z</time></trkpt><trkpt lat="46.3962785" lon="9.6909255"><ele>1677.25</ele><time>2026-04-11T11:38:33.015Z</time></trkpt><trkpt lat="46.3963841" lon="9.6910342"><ele>1681.0</ele><time>2026-04-11T11:38:34.015Z</time></trkpt><trkpt lat="46.3964968" lon="9.6911288"><ele>1683.6</ele><time>2026-04-11T11:38:35.015Z</time></trkpt><trkpt lat="46.3966146" lon="9.6911996"><ele>1686.1999999999998</ele><time>2026-04-11T11:38:36.015Z</time></trkpt><trkpt lat="46.3967288" lon="9.6912401"><ele>1688.8000000000002</ele><time>2026-04-11T11:38:37.015Z</time></trkpt><trkpt lat="46.396837" lon="9.6912506"><ele>1691.4</ele><time>2026-04-11T11:38:38.015Z</time></trkpt><trkpt lat="46.3969204" lon="9.6912286"><ele>1694.0</ele><time>2026-04-11T11:38:39.015Z</time></trkpt><trkpt lat="46.396986" lon="9.6912062"><ele>1694.0</ele><time>2026-04-11T11:38:40.014Z</time></trkpt><trkpt lat="46.3970547" lon="9.6913077"><ele>1694.0</ele><time>2026-04-11T11:38:43.015Z</time></trkpt><trkpt lat="46.3969836" lon="9.6914004"><ele>1694.0</ele><time>2026-04-11T11:38:45.015Z</time></trkpt><trkpt lat="46.3969086" lon="9.6914046"><ele>1694.0</ele><time>2026-04-11T11:38:46.014Z</time></trkpt><trkpt lat="46.3968056" lon="9.6913946"><ele>1694.0</ele><time>2026-04-11T11:38:47.015Z</time></trkpt><trkpt lat="46.3966813" lon="9.6913844"><ele>1694.0</ele><time>2026-04-11T11:38:48.015Z</time></trkpt><trkpt lat="46.3965397" lon="9.6913634"><ele>1694.0</ele><time>2026-04-11T11:38:49.015Z</time></trkpt><trkpt lat="46.3963964" lon="9.6913346"><ele>1694.0</ele><time>2026-04-11T11:38:50.015Z</time></trkpt><trkpt lat="46.3962577" lon="9.6912709"><ele>1694.0</ele><time>2026-04-11T11:38:51.015Z</time></trkpt><trkpt lat="46.3961365" lon="9.6911467"><ele>1690.75</ele><time>2026-04-11T11:38:52.015Z</time></trkpt><trkpt lat="46.3960152" lon="9.6910197"><ele>1687.5</ele><time>2026-04-11T11:38:53.015Z</time></trkpt><trkpt lat="46.3958945" lon="9.6909275"><ele>1684.25</ele><time>2026-04-11T11:38:54.015Z</time></trkpt><trkpt lat="46.395778" lon="9.6908317"><ele>1681.0</ele><time>2026-04-11T11:38:55.015Z</time></trkpt><trkpt lat="46.395677" lon="9.6907083"><ele>1681.0</ele><time>2026-04-11T11:38:56.015Z</time></trkpt><trkpt lat="46.3955884" lon="9.6905652"><ele>1681.0</ele><time>2026-04-11T11:38:57.015Z</time></trkpt><trkpt lat="46.3955216" lon="9.6903968"><ele>1681.0</ele><time>2026-04-11T11:38:58.015Z</time></trkpt><trkpt lat="46.3954764" lon="9.6902116"><ele>1681.0</ele><time>2026-04-11T11:38:59.015Z</time></trkpt><trkpt lat="46.3954527" lon="9.6900247"><ele>1685.6</ele><time>2026-04-11T11:39:00.015Z</time></trkpt><trkpt lat="46.3954547" lon="9.689836"><ele>1690.1999999999998</ele><time>2026-04-11T11:39:01.015Z</time></trkpt><trkpt lat="46.3954633" lon="9.6896828"><ele>1694.8000000000002</ele><time>2026-04-11T11:39:02.015Z</time></trkpt><trkpt lat="46.3954711" lon="9.6895528"><ele>1699.4</ele><time>2026-04-11T11:39:03.015Z</time></trkpt><trkpt lat="46.3954209" lon="9.6894345"><ele>1704.0</ele><time>2026-04-11T11:39:05.015Z</time></trkpt><trkpt lat="46.3953223" lon="9.6894775"><ele>1704.0</ele><time>2026-04-11T11:39:07.015Z</time></trkpt><trkpt lat="46.3952796" lon="9.6896425"><ele>1704.0</ele><time>2026-04-11T11:39:09.015Z</time></trkpt><trkpt lat="46.3952976" lon="9.6897625"><ele>1704.0</ele><time>2026-04-11T11:39:10.015Z</time></trkpt><trkpt lat="46.3953202" lon="9.6898973"><ele>1704.0</ele><time>2026-04-11T11:39:11.015Z</time></trkpt><trkpt lat="46.3953354" lon="9.6900615"><ele>1704.0</ele><time>2026-04-11T11:39:12.015Z</time></trkpt><trkpt lat="46.3953368" lon="9.690253"><ele>1707.75</ele><time>2026-04-11T11:39:13.015Z</time></trkpt><trkpt lat="46.395335" lon="9.6904385"><ele>1711.5</ele><time>2026-04-11T11:39:14.015Z</time></trkpt><trkpt lat="46.3953586" lon="9.6906234"><ele>1715.25</ele><time>2026-04-11T11:39:15.015Z</time></trkpt><trkpt lat="46.3954075" lon="9.6908116"><ele>1719.0</ele><time>2026-04-11T11:39:16.015Z</time></trkpt><trkpt lat="46.3954699" lon="9.6909943"><ele>1717.75</ele><time>2026-04-11T11:39:17.015Z</time></trkpt><trkpt lat="46.3955437" lon="9.6911479"><ele>1716.5</ele><time>2026-04-11T11:39:18.015Z</time></trkpt><trkpt lat="46.3956245" lon="9.6912695"><ele>1715.25</ele><time>2026-04-11T11:39:19.015Z</time></trkpt><trkpt lat="46.3957178" lon="9.6913781"><ele>1714.0</ele><time>2026-04-11T11:39:20.015Z</time></trkpt><trkpt lat="46.3958053" lon="9.6914664"><ele>1714.0</ele><time>2026-04-11T11:39:21.015Z</time></trkpt><trkpt lat="46.3958776" lon="9.6915387"><ele>1714.0</ele><time>2026-04-11T11:39:22.015Z</time></trkpt><trkpt lat="46.395923" lon="9.6916171"><ele>1714.0</ele><time>2026-04-11T11:39:23.015Z</time></trkpt><trkpt lat="46.3959314" lon="9.691752"><ele>1714.0</ele><time>2026-04-11T11:39:25.015Z</time></trkpt><trkpt lat="46.3958579" lon="9.6918186"><ele>1714.0</ele><time>2026-04-11T11:39:27.015Z</time></trkpt><trkpt lat="46.3957686" lon="9.691698"><ele>1714.0</ele><time>2026-04-11T11:39:29.015Z</time></trkpt><trkpt lat="46.3957057" lon="9.6916063"><ele>1714.0</ele><time>2026-04-11T11:39:30.014Z</time></trkpt><trkpt lat="46.395628" lon="9.6915299"><ele>1714.0</ele><time>2026-04-11T11:39:31.015Z</time></trkpt><trkpt lat="46.3955148" lon="9.6914562"><ele>1714.0</ele><time>2026-04-11T11:39:32.015Z</time></trkpt><trkpt lat="46.3953868" lon="9.6913786"><ele>1714.0</ele><time>2026-04-11T11:39:33.015Z</time></trkpt><trkpt lat="46.3952547" lon="9.6912942"><ele>1715.25</ele><time>2026-04-11T11:39:34.015Z</time></trkpt><trkpt lat="46.3951387" lon="9.6912074"><ele>1716.5</ele><time>2026-04-11T11:39:35.015Z</time></trkpt><trkpt lat="46.3950383" lon="9.6911159"><ele>1717.75</ele><time>2026-04-11T11:39:36.015Z</time></trkpt><trkpt lat="46.394967" lon="9.6910062"><ele>1719.0</ele><time>2026-04-11T11:39:37.015Z</time></trkpt><trkpt lat="46.3949185" lon="9.6908743"><ele>1719.0</ele><time>2026-04-11T11:39:38.015Z</time></trkpt><trkpt lat="46.3949042" lon="9.6907304"><ele>1719.0</ele><time>2026-04-11T11:39:39.014Z</time></trkpt><trkpt lat="46.3949219" lon="9.6905747"><ele>1719.0</ele><time>2026-04-11T11:39:40.015Z</time></trkpt><trkpt lat="46.39496" lon="9.6904447"><ele>1719.0</ele><time>2026-04-11T11:39:41.015Z</time></trkpt><trkpt lat="46.3949881" lon="9.6903297"><ele>1719.0</ele><time>2026-04-11T11:39:42.014Z</time></trkpt><trkpt lat="46.3949672" lon="9.6902332"><ele>1719.0</ele><time>2026-04-11T11:39:43.015Z</time></trkpt><trkpt lat="46.3948618" lon="9.6901859"><ele>1719.0</ele><time>2026-04-11T11:39:45.015Z</time></trkpt><trkpt lat="46.3948056" lon="9.6902454"><ele>1719.0</ele><time>2026-04-11T11:39:46.015Z</time></trkpt><trkpt lat="46.3947733" lon="9.690339"><ele>1719.0</ele><time>2026-04-11T11:39:47.014Z</time></trkpt><trkpt lat="46.3947649" lon="9.6904312"><ele>1719.0</ele><time>2026-04-11T11:39:48.015Z</time></trkpt><trkpt lat="46.394766" lon="9.6905465"><ele>1719.0</ele><time>2026-04-11T11:39:49.015Z</time></trkpt><trkpt lat="46.394745" lon="9.6906719"><ele>1719.0</ele><time>2026-04-11T11:39:50.015Z</time></trkpt><trkpt lat="46.3947204" lon="9.6908121"><ele>1719.0</ele><time>2026-04-11T11:39:51.015Z</time></trkpt><trkpt lat="46.3947241" lon="9.6909528"><ele>1719.0</ele><time>2026-04-11T11:39:52.015Z</time></trkpt><trkpt lat="46.3947537" lon="9.6910736"><ele>1719.0</ele><time>2026-04-11T11:39:53.014Z</time></trkpt><trkpt lat="46.3948058" lon="9.691152"><ele>1719.0</ele><time>2026-04-11T11:39:54.015Z</time></trkpt><trkpt lat="46.3948543" lon="9.6912182"><ele>1719.0</ele><time>2026-04-11T11:39:55.014Z</time></trkpt><trkpt lat="46.3948632" lon="9.6913449"><ele>1723.6</ele><time>2026-04-11T11:39:57.014Z</time></trkpt><trkpt lat="46.3948007" lon="9.6913906"><ele>1728.2</ele><time>2026-04-11T11:39:59.015Z</time></trkpt><trkpt lat="46.3947248" lon="9.6912376"><ele>1732.7999999999997</ele><time>2026-04-11T11:40:01.015Z</time></trkpt><trkpt lat="46.3946845" lon="9.69112"><ele>1737.3999999999999</ele><time>2026-04-11T11:40:02.015Z</time></trkpt><trkpt lat="46.3946422" lon="9.6909935"><ele>1742.0</ele><time>2026-04-11T11:40:03.015Z</time></trkpt><trkpt lat="46.3946226" lon="9.6908594"><ele>1739.6666666666665</ele><time>2026-04-11T11:40:04.014Z</time></trkpt><trkpt lat="46.3946321" lon="9.6907244"><ele>1737.3333333333333</ele><time>2026-04-11T11:40:05.015Z</time></trkpt><trkpt lat="46.3946546" lon="9.6905969"><ele>1735.0</ele><time>2026-04-11T11:40:06.015Z</time></trkpt><trkpt lat="46.3946681" lon="9.6904753"><ele>1732.6666666666665</ele><time>2026-04-11T11:40:07.014Z</time></trkpt><trkpt lat="46.3946547" lon="9.6903493"><ele>1730.3333333333333</ele><time>2026-04-11T11:40:08.015Z</time></trkpt><trkpt lat="46.3946256" lon="9.6902404"><ele>1728.0</ele><time>2026-04-11T11:40:09.015Z</time></trkpt><trkpt lat="46.3945741" lon="9.6901567"><ele>1728.0</ele><time>2026-04-11T11:40:10.015Z</time></trkpt><trkpt lat="46.3944835" lon="9.6901411"><ele>1728.0000000000002</ele><time>2026-04-11T11:40:12.015Z</time></trkpt><trkpt lat="46.3944352" lon="9.6902644"><ele>1728.0000000000002</ele><time>2026-04-11T11:40:14.015Z</time></trkpt><trkpt lat="46.3944751" lon="9.6904483"><ele>1728.0</ele><time>2026-04-11T11:40:16.015Z</time></trkpt><trkpt lat="46.3944819" lon="9.6905591"><ele>1728.0</ele><time>2026-04-11T11:40:17.015Z</time></trkpt><trkpt lat="46.3944679" lon="9.6906861"><ele>1735.0</ele><time>2026-04-11T11:40:18.015Z</time></trkpt><trkpt lat="46.394442" lon="9.6908203"><ele>1742.0000000000002</ele><time>2026-04-11T11:40:19.014Z</time></trkpt><trkpt lat="46.3944211" lon="9.6909668"><ele>1749.0000000000002</ele><time>2026-04-11T11:40:20.015Z</time></trkpt><trkpt lat="46.394426" lon="9.6911147"><ele>1756.0</ele><time>2026-04-11T11:40:21.014Z</time></trkpt><trkpt lat="46.3944526" lon="9.6912688"><ele>1763.0</ele><time>2026-04-11T11:40:22.015Z</time></trkpt><trkpt lat="46.3944876" lon="9.6914102"><ele>1766.0</ele><time>2026-04-11T11:40:23.015Z</time></trkpt><trkpt lat="46.3945325" lon="9.6915351"><ele>1769.0000000000002</ele><time>2026-04-11T11:40:24.015Z</time></trkpt><trkpt lat="46.3945933" lon="9.6916444"><ele>1772.0000000000002</ele><time>2026-04-11T11:40:25.015Z</time></trkpt><trkpt lat="46.3946712" lon="9.691734"><ele>1775.0</ele><time>2026-04-11T11:40:26.015Z</time></trkpt><trkpt lat="46.3947649" lon="9.6918104"><ele>1778.0</ele><time>2026-04-11T11:40:27.015Z</time></trkpt><trkpt lat="46.3948693" lon="9.6918774"><ele>1775.8000000000002</ele><time>2026-04-11T11:40:28.015Z</time></trkpt><trkpt lat="46.3949627" lon="9.6919458"><ele>1773.6000000000001</ele><time>2026-04-11T11:40:29.014Z</time></trkpt><trkpt lat="46.3950233" lon="9.692005"><ele>1771.3999999999999</ele><time>2026-04-11T11:40:30.015Z</time></trkpt><trkpt lat="46.3950564" lon="9.6921502"><ele>1769.1999999999998</ele><time>2026-04-11T11:40:32.015Z</time></trkpt><trkpt lat="46.3949758" lon="9.6922054"><ele>1767.0</ele><time>2026-04-11T11:40:35.015Z</time></trkpt><trkpt lat="46.3948816" lon="9.6920926"><ele>1767.0</ele><time>2026-04-11T11:40:37.015Z</time></trkpt><trkpt lat="46.3948049" lon="9.6920152"><ele>1766.9999999999998</ele><time>2026-04-11T11:40:39.015Z</time></trkpt><trkpt lat="46.3947243" lon="9.6920712"><ele>1766.9999999999998</ele><time>2026-04-11T11:40:41.015Z</time></trkpt><trkpt lat="46.3947535" lon="9.6922249"><ele>1767.0</ele><time>2026-04-11T11:40:43.015Z</time></trkpt><trkpt lat="46.394815" lon="9.6923091"><ele>1767.0</ele><time>2026-04-11T11:40:44.015Z</time></trkpt><trkpt lat="46.3948769" lon="9.6924046"><ele>1767.0</ele><time>2026-04-11T11:40:45.015Z</time></trkpt><trkpt lat="46.3949565" lon="9.6925062"><ele>1767.0</ele><time>2026-04-11T11:40:46.015Z</time></trkpt><trkpt lat="46.3950505" lon="9.6926012"><ele>1767.0</ele><time>2026-04-11T11:40:47.015Z</time></trkpt><trkpt lat="46.3951553" lon="9.6926663"><ele>1767.0</ele><time>2026-04-11T11:40:48.015Z</time></trkpt><trkpt lat="46.3952726" lon="9.6927051"><ele>1767.0</ele><time>2026-04-11T11:40:49.014Z</time></trkpt><trkpt lat="46.3953945" lon="9.6927474"><ele>1766.9999999999998</ele><time>2026-04-11T11:40:50.015Z</time></trkpt><trkpt lat="46.3955113" lon="9.6927695"><ele>1766.9999999999998</ele><time>2026-04-11T11:40:51.015Z</time></trkpt><trkpt lat="46.3956088" lon="9.6927948"><ele>1767.0</ele><time>2026-04-11T11:40:52.015Z</time></trkpt><trkpt lat="46.3956871" lon="9.6928234"><ele>1767.0</ele><time>2026-04-11T11:40:53.015Z</time></trkpt><trkpt lat="46.3957494" lon="9.6928748"><ele>1769.0</ele><time>2026-04-11T11:40:54.015Z</time></trkpt><trkpt lat="46.3957813" lon="9.6929585"><ele>1771.0</ele><time>2026-04-11T11:40:55.015Z</time></trkpt><trkpt lat="46.3957999" lon="9.6930726"><ele>1773.0</ele><time>2026-04-11T11:40:56.015Z</time></trkpt><trkpt lat="46.3958161" lon="9.6931839"><ele>1775.0</ele><time>2026-04-11T11:40:57.015Z</time></trkpt><trkpt lat="46.3958626" lon="9.6932591"><ele>1777.0</ele><time>2026-04-11T11:40:58.015Z</time></trkpt><trkpt lat="46.3959362" lon="9.6933139"><ele>1779.0</ele><time>2026-04-11T11:40:59.015Z</time></trkpt><trkpt lat="46.3960203" lon="9.6933239"><ele>1779.0</ele><time>2026-04-11T11:41:00.015Z</time></trkpt><trkpt lat="46.3960885" lon="9.6933239"><ele>1779.0</ele><time>2026-04-11T11:41:01.015Z</time></trkpt><trkpt lat="46.3961652" lon="9.693403"><ele>1779.0</ele><time>2026-04-11T11:41:03.015Z</time></trkpt><trkpt lat="46.3961491" lon="9.6935323"><ele>1779.0</ele><time>2026-04-11T11:41:05.015Z</time></trkpt><trkpt lat="46.3960572" lon="9.6935233"><ele>1779.0</ele><time>2026-04-11T11:41:07.015Z</time></trkpt><trkpt lat="46.3959192" lon="9.6934635"><ele>1779.0</ele><time>2026-04-11T11:41:09.015Z</time></trkpt><trkpt lat="46.3958445" lon="9.693444"><ele>1779.0</ele><time>2026-04-11T11:41:10.014Z</time></trkpt><trkpt lat="46.3957446" lon="9.693477"><ele>1779.0</ele><time>2026-04-11T11:41:12.015Z</time></trkpt><trkpt lat="46.3957295" lon="9.6936054"><ele>1779.0</ele><time>2026-04-11T11:41:14.015Z</time></trkpt><trkpt lat="46.3957729" lon="9.693673"><ele>1779.0</ele><time>2026-04-11T11:41:15.015Z</time></trkpt><trkpt lat="46.3958406" lon="9.6937119"><ele>1779.0</ele><time>2026-04-11T11:41:16.015Z</time></trkpt><trkpt lat="46.3959161" lon="9.6937198"><ele>1781.6666666666667</ele><time>2026-04-11T11:41:17.015Z</time></trkpt><trkpt lat="46.3959792" lon="9.6937205"><ele>1784.3333333333335</ele><time>2026-04-11T11:41:18.015Z</time></trkpt><trkpt lat="46.3960439" lon="9.6937278"><ele>1787.0</ele><time>2026-04-11T11:41:19.014Z</time></trkpt><trkpt lat="46.3961281" lon="9.6938528"><ele>1789.6666666666667</ele><time>2026-04-11T11:41:21.015Z</time></trkpt><trkpt lat="46.3961348" lon="9.693961"><ele>1792.3333333333335</ele><time>2026-04-11T11:41:22.015Z</time></trkpt><trkpt lat="46.3961237" lon="9.6940749"><ele>1795.0</ele><time>2026-04-11T11:41:23.015Z</time></trkpt><trkpt lat="46.3960862" lon="9.69419"><ele>1795.0000000000002</ele><time>2026-04-11T11:41:24.014Z</time></trkpt><trkpt lat="46.396034" lon="9.6943123"><ele>1795.0</ele><time>2026-04-11T11:41:25.015Z</time></trkpt><trkpt lat="46.3959771" lon="9.6944385"><ele>1795.0</ele><time>2026-04-11T11:41:26.015Z</time></trkpt><trkpt lat="46.3959289" lon="9.6945514"><ele>1795.0</ele><time>2026-04-11T11:41:27.015Z</time></trkpt><trkpt lat="46.3959015" lon="9.6946496"><ele>1795.0000000000002</ele><time>2026-04-11T11:41:28.015Z</time></trkpt><trkpt lat="46.3959106" lon="9.6947514"><ele>1795.0</ele><time>2026-04-11T11:41:29.015Z</time></trkpt><trkpt lat="46.3959513" lon="9.6948341"><ele>1795.6</ele><time>2026-04-11T11:41:30.015Z</time></trkpt><trkpt lat="46.396027" lon="9.6948891"><ele>1796.2</ele><time>2026-04-11T11:41:31.014Z</time></trkpt><trkpt lat="46.3960963" lon="9.6948906"><ele>1796.8000000000002</ele><time>2026-04-11T11:41:32.014Z</time></trkpt><trkpt lat="46.396174" lon="9.6948726"><ele>1797.4</ele><time>2026-04-11T11:41:33.015Z</time></trkpt><trkpt lat="46.3962763" lon="9.6948228"><ele>1798.0</ele><time>2026-04-11T11:41:34.015Z</time></trkpt><trkpt lat="46.3963845" lon="9.6947761"><ele>1798.6000000000001</ele><time>2026-04-11T11:41:35.015Z</time></trkpt><trkpt lat="46.3964994" lon="9.694738"><ele>1799.2000000000003</ele><time>2026-04-11T11:41:36.015Z</time></trkpt><trkpt lat="46.3966075" lon="9.6947068"><ele>1799.8</ele><time>2026-04-11T11:41:37.015Z</time></trkpt><trkpt lat="46.3967191" lon="9.6947001"><ele>1800.4</ele><time>2026-04-11T11:41:38.014Z</time></trkpt><trkpt lat="46.3968207" lon="9.6947161"><ele>1801.0</ele><time>2026-04-11T11:41:39.015Z</time></trkpt><trkpt lat="46.3969144" lon="9.6947377"><ele>1801.0000000000002</ele><time>2026-04-11T11:41:40.014Z</time></trkpt><trkpt lat="46.3969964" lon="9.6947529"><ele>1801.0</ele><time>2026-04-11T11:41:41.015Z</time></trkpt><trkpt lat="46.3970714" lon="9.6947661"><ele>1801.0</ele><time>2026-04-11T11:41:42.014Z</time></trkpt><trkpt lat="46.3971427" lon="9.6947766"><ele>1801.0</ele><time>2026-04-11T11:41:43.015Z</time></trkpt><trkpt lat="46.3972437" lon="9.6947684"><ele>1801.0000000000002</ele><time>2026-04-11T11:41:45.015Z</time></trkpt><trkpt lat="46.3973098" lon="9.6947121"><ele>1801.0</ele><time>2026-04-11T11:41:47.015Z</time></trkpt><trkpt lat="46.397376" lon="9.6946696"><ele>1807.0</ele><time>2026-04-11T11:41:50.015Z</time></trkpt><trkpt lat="46.3974665" lon="9.6946548"><ele>1807.0</ele><time>2026-04-11T11:41:53.015Z</time></trkpt><trkpt lat="46.3975326" lon="9.6946024"><ele>1807.0</ele><time>2026-04-11T11:41:56.015Z</time></trkpt></trkseg><trkseg><trkpt lat="46.3975004" lon="9.6946126"><ele>1807.0000000000002</ele><time>2026-04-11T11:58:26.02Z</time></trkpt><trkpt lat="46.3974284" lon="9.6946328"><ele>1807.0</ele><time>2026-04-11T11:58:29.02Z</time></trkpt><trkpt lat="46.3973576" lon="9.6946583"><ele>1807.0</ele><time>2026-04-11T11:58:32.02Z</time></trkpt><trkpt lat="46.397313" lon="9.6947434"><ele>1807.0</ele><time>2026-04-11T11:58:36.02Z</time></trkpt><trkpt lat="46.3973813" lon="9.6948307"><ele>1807.0000000000002</ele><time>2026-04-11T11:58:39.019Z</time></trkpt><trkpt lat="46.3974877" lon="9.6948537"><ele>1807.0</ele><time>2026-04-11T11:58:41.02Z</time></trkpt><trkpt lat="46.397551" lon="9.6948783"><ele>1807.0000000000002</ele><time>2026-04-11T11:58:42.02Z</time></trkpt><trkpt lat="46.397623" lon="9.6948956"><ele>1807.0</ele><time>2026-04-11T11:58:43.019Z</time></trkpt><trkpt lat="46.3976903" lon="9.6949142"><ele>1807.0</ele><time>2026-04-11T11:58:44.02Z</time></trkpt><trkpt lat="46.397759" lon="9.6949284"><ele>1807.0</ele><time>2026-04-11T11:58:45.02Z</time></trkpt><trkpt lat="46.3978369" lon="9.6949296"><ele>1807.0000000000002</ele><time>2026-04-11T11:58:46.019Z</time></trkpt><trkpt lat="46.397917" lon="9.694926"><ele>1807.0</ele><time>2026-04-11T11:58:47.019Z</time></trkpt><trkpt lat="46.3980019" lon="9.6949074"><ele>1808.0</ele><time>2026-04-11T11:58:48.019Z</time></trkpt><trkpt lat="46.3980855" lon="9.6948858"><ele>1808.9999999999998</ele><time>2026-04-11T11:58:49.019Z</time></trkpt><trkpt lat="46.3981691" lon="9.6948581"><ele>1809.9999999999998</ele><time>2026-04-11T11:58:50.02Z</time></trkpt><trkpt lat="46.3982678" lon="9.6948266"><ele>1811.0</ele><time>2026-04-11T11:58:51.02Z</time></trkpt><trkpt lat="46.3983729" lon="9.6948008"><ele>1812.0</ele><time>2026-04-11T11:58:52.02Z</time></trkpt><trkpt lat="46.3984686" lon="9.6947924"><ele>1812.0</ele><time>2026-04-11T11:58:53.02Z</time></trkpt><trkpt lat="46.3985597" lon="9.6947948"><ele>1811.9999999999998</ele><time>2026-04-11T11:58:54.02Z</time></trkpt><trkpt lat="46.398654" lon="9.6948167"><ele>1811.9999999999998</ele><time>2026-04-11T11:58:55.02Z</time></trkpt><trkpt lat="46.3987565" lon="9.6948685"><ele>1812.0</ele><time>2026-04-11T11:58:56.02Z</time></trkpt><trkpt lat="46.3988586" lon="9.6949364"><ele>1812.0</ele><time>2026-04-11T11:58:57.02Z</time></trkpt><trkpt lat="46.398959" lon="9.6950167"><ele>1812.5</ele><time>2026-04-11T11:58:58.02Z</time></trkpt><trkpt lat="46.3990639" lon="9.6950967"><ele>1813.0</ele><time>2026-04-11T11:58:59.02Z</time></trkpt><trkpt lat="46.3991694" lon="9.6951831"><ele>1813.5</ele><time>2026-04-11T11:59:00.02Z</time></trkpt><trkpt lat="46.3992765" lon="9.6952742"><ele>1814.0</ele><time>2026-04-11T11:59:01.02Z</time></trkpt><trkpt lat="46.3993878" lon="9.6953656"><ele>1814.0</ele><time>2026-04-11T11:59:02.02Z</time></trkpt><trkpt lat="46.3994921" lon="9.6954717"><ele>1814.0</ele><time>2026-04-11T11:59:03.02Z</time></trkpt><trkpt lat="46.3995975" lon="9.6955666"><ele>1814.0</ele><time>2026-04-11T11:59:04.019Z</time></trkpt><trkpt lat="46.3997008" lon="9.695653"><ele>1814.0</ele><time>2026-04-11T11:59:05.02Z</time></trkpt><trkpt lat="46.3997962" lon="9.6957391"><ele>1815.0</ele><time>2026-04-11T11:59:06.02Z</time></trkpt><trkpt lat="46.3998817" lon="9.6958053"><ele>1816.0</ele><time>2026-04-11T11:59:07.02Z</time></trkpt><trkpt lat="46.399973" lon="9.6958341"><ele>1817.0</ele><time>2026-04-11T11:59:08.02Z</time></trkpt><trkpt lat="46.4000591" lon="9.6958242"><ele>1818.0</ele><time>2026-04-11T11:59:09.02Z</time></trkpt><trkpt lat="46.4001547" lon="9.6957811"><ele>1819.0</ele><time>2026-04-11T11:59:10.02Z</time></trkpt><trkpt lat="46.4002517" lon="9.6957103"><ele>1819.0</ele><time>2026-04-11T11:59:11.02Z</time></trkpt><trkpt lat="46.4003532" lon="9.6956341"><ele>1819.0</ele><time>2026-04-11T11:59:12.02Z</time></trkpt><trkpt lat="46.4004615" lon="9.6955688"><ele>1819.0</ele><time>2026-04-11T11:59:13.02Z</time></trkpt><trkpt lat="46.4005683" lon="9.6955113"><ele>1819.0</ele><time>2026-04-11T11:59:14.02Z</time></trkpt><trkpt lat="46.400663" lon="9.6954478"><ele>1819.0</ele><time>2026-04-11T11:59:15.019Z</time></trkpt><trkpt lat="46.4007583" lon="9.6953955"><ele>1819.0</ele><time>2026-04-11T11:59:16.019Z</time></trkpt><trkpt lat="46.4008523" lon="9.6953392"><ele>1819.0</ele><time>2026-04-11T11:59:17.018Z</time></trkpt><trkpt lat="46.4009559" lon="9.695292"><ele>1819.0</ele><time>2026-04-11T11:59:18.019Z</time></trkpt><trkpt lat="46.4010559" lon="9.6952655"><ele>1819.0</ele><time>2026-04-11T11:59:19.019Z</time></trkpt><trkpt lat="46.4011639" lon="9.6952763"><ele>1819.0</ele><time>2026-04-11T11:59:20.019Z</time></trkpt><trkpt lat="46.4012872" lon="9.6953305"><ele>1819.0</ele><time>2026-04-11T11:59:21.019Z</time></trkpt><trkpt lat="46.4013984" lon="9.695386"><ele>1819.0</ele><time>2026-04-11T11:59:22.019Z</time></trkpt><trkpt lat="46.4015147" lon="9.6954559"><ele>1819.0</ele><time>2026-04-11T11:59:23.018Z</time></trkpt><trkpt lat="46.4016344" lon="9.6955264"><ele>1818.25</ele><time>2026-04-11T11:59:24.019Z</time></trkpt><trkpt lat="46.4017565" lon="9.6955645"><ele>1817.5</ele><time>2026-04-11T11:59:25.019Z</time></trkpt><trkpt lat="46.4018795" lon="9.6955916"><ele>1816.75</ele><time>2026-04-11T11:59:26.018Z</time></trkpt><trkpt lat="46.4020223" lon="9.6956066"><ele>1816.0</ele><time>2026-04-11T11:59:27.019Z</time></trkpt><trkpt lat="46.402179" lon="9.6956087"><ele>1815.5</ele><time>2026-04-11T11:59:28.019Z</time></trkpt><trkpt lat="46.4023338" lon="9.6956129"><ele>1815.0</ele><time>2026-04-11T11:59:29.019Z</time></trkpt><trkpt lat="46.4024758" lon="9.695614"><ele>1814.5</ele><time>2026-04-11T11:59:30.019Z</time></trkpt><trkpt lat="46.4026099" lon="9.6956201"><ele>1814.0</ele><time>2026-04-11T11:59:31.018Z</time></trkpt><trkpt lat="46.4027384" lon="9.6956263"><ele>1814.0</ele><time>2026-04-11T11:59:32.019Z</time></trkpt><trkpt lat="46.4028606" lon="9.6956412"><ele>1814.0</ele><time>2026-04-11T11:59:33.019Z</time></trkpt><trkpt lat="46.4029762" lon="9.6956621"><ele>1814.0</ele><time>2026-04-11T11:59:34.019Z</time></trkpt><trkpt lat="46.4030948" lon="9.6956685"><ele>1814.0</ele><time>2026-04-11T11:59:35.019Z</time></trkpt><trkpt lat="46.4032124" lon="9.6956597"><ele>1813.25</ele><time>2026-04-11T11:59:36.018Z</time></trkpt><trkpt lat="46.4033349" lon="9.6956437"><ele>1812.5</ele><time>2026-04-11T11:59:37.019Z</time></trkpt><trkpt lat="46.4034548" lon="9.6955985"><ele>1811.75</ele><time>2026-04-11T11:59:38.019Z</time></trkpt><trkpt lat="46.4035716" lon="9.6955441"><ele>1811.0</ele><time>2026-04-11T11:59:39.019Z</time></trkpt><trkpt lat="46.4036822" lon="9.6954675"><ele>1811.0</ele><time>2026-04-11T11:59:40.019Z</time></trkpt><trkpt lat="46.4037858" lon="9.6953801"><ele>1811.0</ele><time>2026-04-11T11:59:41.019Z</time></trkpt><trkpt lat="46.4038895" lon="9.6952876"><ele>1811.0</ele><time>2026-04-11T11:59:42.022Z</time></trkpt><trkpt lat="46.4039883" lon="9.6951697"><ele>1811.0</ele><time>2026-04-11T11:59:43.023Z</time></trkpt><trkpt lat="46.4040923" lon="9.6950544"><ele>1811.0</ele><time>2026-04-11T11:59:44.022Z</time></trkpt><trkpt lat="46.4041902" lon="9.6949352"><ele>1811.0</ele><time>2026-04-11T11:59:45.023Z</time></trkpt><trkpt lat="46.404293" lon="9.6948364"><ele>1811.0</ele><time>2026-04-11T11:59:46.023Z</time></trkpt><trkpt lat="46.4044032" lon="9.6947732"><ele>1811.0</ele><time>2026-04-11T11:59:47.023Z</time></trkpt><trkpt lat="46.4045061" lon="9.6947328"><ele>1811.0</ele><time>2026-04-11T11:59:48.022Z</time></trkpt><trkpt lat="46.4046091" lon="9.6947384"><ele>1811.0</ele><time>2026-04-11T11:59:49.023Z</time></trkpt><trkpt lat="46.4047112" lon="9.6947819"><ele>1811.0</ele><time>2026-04-11T11:59:50.023Z</time></trkpt><trkpt lat="46.4048218" lon="9.6948513"><ele>1811.0</ele><time>2026-04-11T11:59:51.023Z</time></trkpt><trkpt lat="46.40494" lon="9.6949277"><ele>1811.25</ele><time>2026-04-11T11:59:52.023Z</time></trkpt><trkpt lat="46.4050633" lon="9.6950146"><ele>1811.5</ele><time>2026-04-11T11:59:53.022Z</time></trkpt><trkpt lat="46.4051903" lon="9.6951142"><ele>1811.75</ele><time>2026-04-11T11:59:54.023Z</time></trkpt><trkpt lat="46.4053188" lon="9.6952336"><ele>1812.0</ele><time>2026-04-11T11:59:55.023Z</time></trkpt><trkpt lat="46.4054413" lon="9.6953736"><ele>1812.3333333333335</ele><time>2026-04-11T11:59:56.023Z</time></trkpt><trkpt lat="46.4055621" lon="9.6955391"><ele>1812.6666666666667</ele><time>2026-04-11T11:59:57.023Z</time></trkpt><trkpt lat="46.4056907" lon="9.6957253"><ele>1813.0</ele><time>2026-04-11T11:59:58.023Z</time></trkpt><trkpt lat="46.4058251" lon="9.695935"><ele>1811.0</ele><time>2026-04-11T11:59:59.023Z</time></trkpt><trkpt lat="46.4059542" lon="9.6961256"><ele>1809.0</ele><time>2026-04-11T12:00:00.023Z</time></trkpt><trkpt lat="46.4060763" lon="9.6962983"><ele>1807.0</ele><time>2026-04-11T12:00:01.023Z</time></trkpt><trkpt lat="46.4061873" lon="9.6964811"><ele>1807.0</ele><time>2026-04-11T12:00:02.023Z</time></trkpt><trkpt lat="46.4062843" lon="9.696664"><ele>1807.0</ele><time>2026-04-11T12:00:03.023Z</time></trkpt><trkpt lat="46.4063572" lon="9.6968552"><ele>1807.0</ele><time>2026-04-11T12:00:04.022Z</time></trkpt><trkpt lat="46.4064106" lon="9.69705"><ele>1807.6666666666667</ele><time>2026-04-11T12:00:05.023Z</time></trkpt><trkpt lat="46.4064397" lon="9.6972568"><ele>1808.3333333333335</ele><time>2026-04-11T12:00:06.023Z</time></trkpt><trkpt lat="46.4064557" lon="9.6974813"><ele>1809.0</ele><time>2026-04-11T12:00:07.023Z</time></trkpt><trkpt lat="46.4064739" lon="9.6977207"><ele>1807.6666666666665</ele><time>2026-04-11T12:00:08.023Z</time></trkpt><trkpt lat="46.4064999" lon="9.6979678"><ele>1806.3333333333333</ele><time>2026-04-11T12:00:09.023Z</time></trkpt><trkpt lat="46.406538" lon="9.6982076"><ele>1805.0</ele><time>2026-04-11T12:00:10.023Z</time></trkpt><trkpt lat="46.4065779" lon="9.6984479"><ele>1804.6666666666665</ele><time>2026-04-11T12:00:11.023Z</time></trkpt><trkpt lat="46.4066282" lon="9.6986888"><ele>1804.3333333333335</ele><time>2026-04-11T12:00:12.023Z</time></trkpt><trkpt lat="46.4066807" lon="9.6989242"><ele>1804.0</ele><time>2026-04-11T12:00:13.023Z</time></trkpt><trkpt lat="46.4067407" lon="9.6991416"><ele>1804.0</ele><time>2026-04-11T12:00:14.023Z</time></trkpt><trkpt lat="46.406805" lon="9.6993508"><ele>1804.0</ele><time>2026-04-11T12:00:15.023Z</time></trkpt><trkpt lat="46.4068706" lon="9.6995491"><ele>1804.0</ele><time>2026-04-11T12:00:16.023Z</time></trkpt><trkpt lat="46.4069395" lon="9.6997358"><ele>1804.0</ele><time>2026-04-11T12:00:17.023Z</time></trkpt><trkpt lat="46.4070144" lon="9.6999115"><ele>1804.0</ele><time>2026-04-11T12:00:18.023Z</time></trkpt><trkpt lat="46.4071016" lon="9.700082"><ele>1804.0</ele><time>2026-04-11T12:00:19.023Z</time></trkpt><trkpt lat="46.4072009" lon="9.7002529"><ele>1804.0</ele><time>2026-04-11T12:00:20.023Z</time></trkpt><trkpt lat="46.4073111" lon="9.7004256"><ele>1804.3333333333335</ele><time>2026-04-11T12:00:21.023Z</time></trkpt><trkpt lat="46.4074259" lon="9.7006036"><ele>1804.6666666666665</ele><time>2026-04-11T12:00:22.023Z</time></trkpt><trkpt lat="46.4075437" lon="9.7007826"><ele>1805.0</ele><time>2026-04-11T12:00:23.023Z</time></trkpt><trkpt lat="46.4076636" lon="9.7009675"><ele>1806.0</ele><time>2026-04-11T12:00:24.023Z</time></trkpt><trkpt lat="46.4077833" lon="9.7011494"><ele>1807.0</ele><time>2026-04-11T12:00:25.023Z</time></trkpt><trkpt lat="46.4079056" lon="9.7013411"><ele>1808.0</ele><time>2026-04-11T12:00:26.023Z</time></trkpt><trkpt lat="46.4080273" lon="9.701528"><ele>1808.0</ele><time>2026-04-11T12:00:27.023Z</time></trkpt><trkpt lat="46.4081322" lon="9.7017202"><ele>1808.0</ele><time>2026-04-11T12:00:28.023Z</time></trkpt><trkpt lat="46.408226" lon="9.701907"><ele>1808.0</ele><time>2026-04-11T12:00:29.023Z</time></trkpt><trkpt lat="46.4083" lon="9.7021057"><ele>1806.25</ele><time>2026-04-11T12:00:30.022Z</time></trkpt><trkpt lat="46.4083532" lon="9.7023069"><ele>1804.5</ele><time>2026-04-11T12:00:31.022Z</time></trkpt><trkpt lat="46.4084034" lon="9.7025044"><ele>1802.75</ele><time>2026-04-11T12:00:32.023Z</time></trkpt><trkpt lat="46.4084434" lon="9.7027134"><ele>1801.0</ele><time>2026-04-11T12:00:33.022Z</time></trkpt><trkpt lat="46.4084921" lon="9.7029136"><ele>1800.5</ele><time>2026-04-11T12:00:34.023Z</time></trkpt><trkpt lat="46.4085497" lon="9.7031058"><ele>1800.0</ele><time>2026-04-11T12:00:35.023Z</time></trkpt><trkpt lat="46.4086261" lon="9.7032858"><ele>1799.5</ele><time>2026-04-11T12:00:36.023Z</time></trkpt><trkpt lat="46.4087202" lon="9.7034561"><ele>1799.0</ele><time>2026-04-11T12:00:37.023Z</time></trkpt><trkpt lat="46.4088298" lon="9.7036027"><ele>1799.0</ele><time>2026-04-11T12:00:38.023Z</time></trkpt><trkpt lat="46.4089552" lon="9.7037184"><ele>1799.0</ele><time>2026-04-11T12:00:39.023Z</time></trkpt><trkpt lat="46.4090975" lon="9.7038303"><ele>1799.0</ele><time>2026-04-11T12:00:40.023Z</time></trkpt><trkpt lat="46.4092353" lon="9.7039254"><ele>1799.0</ele><time>2026-04-11T12:00:41.023Z</time></trkpt><trkpt lat="46.4093654" lon="9.704021"><ele>1799.0</ele><time>2026-04-11T12:00:42.023Z</time></trkpt><trkpt lat="46.4094931" lon="9.7041173"><ele>1799.0</ele><time>2026-04-11T12:00:43.023Z</time></trkpt><trkpt lat="46.4096143" lon="9.7042206"><ele>1799.0</ele><time>2026-04-11T12:00:44.023Z</time></trkpt><trkpt lat="46.409732" lon="9.7043377"><ele>1802.6666666666665</ele><time>2026-04-11T12:00:45.022Z</time></trkpt><trkpt lat="46.4098459" lon="9.7044776"><ele>1806.3333333333335</ele><time>2026-04-11T12:00:46.022Z</time></trkpt><trkpt lat="46.4099519" lon="9.7046347"><ele>1810.0</ele><time>2026-04-11T12:00:47.023Z</time></trkpt><trkpt lat="46.4100503" lon="9.7048098"><ele>1810.0</ele><time>2026-04-11T12:00:48.022Z</time></trkpt><trkpt lat="46.4101321" lon="9.7050068"><ele>1810.0</ele><time>2026-04-11T12:00:49.023Z</time></trkpt><trkpt lat="46.4102017" lon="9.7052195"><ele>1810.0</ele><time>2026-04-11T12:00:50.023Z</time></trkpt><trkpt lat="46.4102626" lon="9.7054511"><ele>1808.0</ele><time>2026-04-11T12:00:51.022Z</time></trkpt><trkpt lat="46.4103161" lon="9.7056927"><ele>1806.0</ele><time>2026-04-11T12:00:52.023Z</time></trkpt><trkpt lat="46.4103675" lon="9.7059369"><ele>1804.0</ele><time>2026-04-11T12:00:53.023Z</time></trkpt><trkpt lat="46.4104148" lon="9.7061875"><ele>1803.0</ele><time>2026-04-11T12:00:54.023Z</time></trkpt><trkpt lat="46.4104628" lon="9.7064377"><ele>1802.0</ele><time>2026-04-11T12:00:55.023Z</time></trkpt><trkpt lat="46.4105104" lon="9.7066963"><ele>1801.0</ele><time>2026-04-11T12:00:56.023Z</time></trkpt><trkpt lat="46.4105605" lon="9.7069526"><ele>1806.3333333333335</ele><time>2026-04-11T12:00:57.023Z</time></trkpt><trkpt lat="46.4106079" lon="9.7072081"><ele>1811.6666666666665</ele><time>2026-04-11T12:00:58.022Z</time></trkpt><trkpt lat="46.410648" lon="9.7074676"><ele>1817.0</ele><time>2026-04-11T12:00:59.023Z</time></trkpt><trkpt lat="46.4106829" lon="9.7077267"><ele>1813.3333333333333</ele><time>2026-04-11T12:01:00.023Z</time></trkpt><trkpt lat="46.410714" lon="9.7079931"><ele>1809.6666666666665</ele><time>2026-04-11T12:01:01.023Z</time></trkpt><trkpt lat="46.4107424" lon="9.7082579"><ele>1806.0</ele><time>2026-04-11T12:01:02.023Z</time></trkpt><trkpt lat="46.4107872" lon="9.7085142"><ele>1804.6666666666665</ele><time>2026-04-11T12:01:03.023Z</time></trkpt><trkpt lat="46.4108432" lon="9.7087475"><ele>1803.3333333333333</ele><time>2026-04-11T12:01:04.022Z</time></trkpt><trkpt lat="46.4109272" lon="9.7089571"><ele>1802.0</ele><time>2026-04-11T12:01:05.023Z</time></trkpt><trkpt lat="46.4110301" lon="9.7091351"><ele>1802.0</ele><time>2026-04-11T12:01:06.023Z</time></trkpt><trkpt lat="46.4111534" lon="9.7093077"><ele>1802.0</ele><time>2026-04-11T12:01:07.023Z</time></trkpt><trkpt lat="46.4112779" lon="9.7094748"><ele>1802.0</ele><time>2026-04-11T12:01:08.022Z</time></trkpt><trkpt lat="46.4113964" lon="9.7096543"><ele>1805.0</ele><time>2026-04-11T12:01:09.022Z</time></trkpt><trkpt lat="46.4114939" lon="9.7098503"><ele>1808.0</ele><time>2026-04-11T12:01:10.023Z</time></trkpt><trkpt lat="46.4115744" lon="9.7100493"><ele>1811.0</ele><time>2026-04-11T12:01:11.023Z</time></trkpt><trkpt lat="46.4116386" lon="9.7102324"><ele>1809.6666666666665</ele><time>2026-04-11T12:01:12.023Z</time></trkpt><trkpt lat="46.4116833" lon="9.7103698"><ele>1808.3333333333333</ele><time>2026-04-11T12:01:13.023Z</time></trkpt><trkpt lat="46.4117154" lon="9.7104702"><ele>1807.0</ele><time>2026-04-11T12:01:14.023Z</time></trkpt><trkpt lat="46.4117374" lon="9.7105566"><ele>1805.6666666666665</ele><time>2026-04-11T12:01:15.023Z</time></trkpt><trkpt lat="46.4117665" lon="9.7106804"><ele>1804.3333333333333</ele><time>2026-04-11T12:01:17.022Z</time></trkpt><trkpt lat="46.411749" lon="9.7107844"><ele>1803.0</ele><time>2026-04-11T12:01:21.023Z</time></trkpt><trkpt lat="46.4118075" lon="9.7108372"><ele>1803.0</ele><time>2026-04-11T12:04:57.022Z</time></trkpt><trkpt lat="46.4118566" lon="9.7109336"><ele>1803.0</ele><time>2026-04-11T12:04:59.022Z</time></trkpt><trkpt lat="46.4119227" lon="9.7110988"><ele>1803.0</ele><time>2026-04-11T12:05:01.022Z</time></trkpt><trkpt lat="46.4119652" lon="9.7111819"><ele>1803.0</ele><time>2026-04-11T12:05:02.022Z</time></trkpt><trkpt lat="46.4120087" lon="9.7112663"><ele>1803.0</ele><time>2026-04-11T12:05:03.022Z</time></trkpt><trkpt lat="46.4120595" lon="9.7113578"><ele>1803.0</ele><time>2026-04-11T12:05:04.022Z</time></trkpt><trkpt lat="46.4121181" lon="9.7114591"><ele>1802.8000000000002</ele><time>2026-04-11T12:05:05.022Z</time></trkpt><trkpt lat="46.4121848" lon="9.7115744"><ele>1802.6000000000001</ele><time>2026-04-11T12:05:06.022Z</time></trkpt><trkpt lat="46.4122533" lon="9.7116945"><ele>1802.3999999999999</ele><time>2026-04-11T12:05:07.022Z</time></trkpt><trkpt lat="46.4123188" lon="9.7118107"><ele>1802.1999999999998</ele><time>2026-04-11T12:05:08.021Z</time></trkpt><trkpt lat="46.412389" lon="9.711929"><ele>1802.0</ele><time>2026-04-11T12:05:09.022Z</time></trkpt><trkpt lat="46.412465" lon="9.7120517"><ele>1802.0</ele><time>2026-04-11T12:05:10.022Z</time></trkpt><trkpt lat="46.4125418" lon="9.7121754"><ele>1802.0</ele><time>2026-04-11T12:05:11.022Z</time></trkpt><trkpt lat="46.4126281" lon="9.7123074"><ele>1802.0</ele><time>2026-04-11T12:05:12.021Z</time></trkpt><trkpt lat="46.4127363" lon="9.7124443"><ele>1802.0</ele><time>2026-04-11T12:05:13.022Z</time></trkpt><trkpt lat="46.4128662" lon="9.7125913"><ele>1802.0</ele><time>2026-04-11T12:05:14.022Z</time></trkpt><trkpt lat="46.4129976" lon="9.712737"><ele>1802.0</ele><time>2026-04-11T12:05:15.022Z</time></trkpt><trkpt lat="46.4131268" lon="9.7128777"><ele>1802.0</ele><time>2026-04-11T12:05:16.022Z</time></trkpt><trkpt lat="46.4132483" lon="9.7130108"><ele>1802.0</ele><time>2026-04-11T12:05:17.021Z</time></trkpt><trkpt lat="46.4133639" lon="9.7131554"><ele>1802.0</ele><time>2026-04-11T12:05:18.022Z</time></trkpt><trkpt lat="46.4134716" lon="9.7133069"><ele>1802.0</ele><time>2026-04-11T12:05:19.021Z</time></trkpt><trkpt lat="46.413581" lon="9.7134565"><ele>1800.3333333333333</ele><time>2026-04-11T12:05:20.022Z</time></trkpt><trkpt lat="46.4136901" lon="9.7136114"><ele>1798.6666666666665</ele><time>2026-04-11T12:05:21.022Z</time></trkpt><trkpt lat="46.4137942" lon="9.7137732"><ele>1797.0</ele><time>2026-04-11T12:05:22.022Z</time></trkpt><trkpt lat="46.4138866" lon="9.7139619"><ele>1800.3333333333335</ele><time>2026-04-11T12:05:23.022Z</time></trkpt><trkpt lat="46.4139714" lon="9.7141603"><ele>1803.6666666666667</ele><time>2026-04-11T12:05:24.022Z</time></trkpt><trkpt lat="46.4140411" lon="9.7143503"><ele>1807.0</ele><time>2026-04-11T12:05:25.022Z</time></trkpt><trkpt lat="46.4141183" lon="9.7145412"><ele>1807.0</ele><time>2026-04-11T12:05:26.021Z</time></trkpt><trkpt lat="46.4142045" lon="9.7147435"><ele>1807.0</ele><time>2026-04-11T12:05:27.022Z</time></trkpt><trkpt lat="46.4143027" lon="9.7149702"><ele>1807.0</ele><time>2026-04-11T12:05:28.022Z</time></trkpt><trkpt lat="46.4144136" lon="9.7152072"><ele>1804.6666666666667</ele><time>2026-04-11T12:05:29.021Z</time></trkpt><trkpt lat="46.4145205" lon="9.7154547"><ele>1802.3333333333335</ele><time>2026-04-11T12:05:30.022Z</time></trkpt><trkpt lat="46.4146175" lon="9.7156883"><ele>1800.0</ele><time>2026-04-11T12:05:31.022Z</time></trkpt><trkpt lat="46.4147236" lon="9.7159343"><ele>1805.3333333333335</ele><time>2026-04-11T12:05:32.022Z</time></trkpt><trkpt lat="46.4148006" lon="9.7161648"><ele>1810.6666666666667</ele><time>2026-04-11T12:05:33.022Z</time></trkpt><trkpt lat="46.4148661" lon="9.7164246"><ele>1816.0</ele><time>2026-04-11T12:05:34.022Z</time></trkpt><trkpt lat="46.4149264" lon="9.7166953"><ele>1813.0</ele><time>2026-04-11T12:05:35.022Z</time></trkpt><trkpt lat="46.4149871" lon="9.7169453"><ele>1810.0</ele><time>2026-04-11T12:05:36.022Z</time></trkpt><trkpt lat="46.4150423" lon="9.7171713"><ele>1807.0</ele><time>2026-04-11T12:05:37.022Z</time></trkpt><trkpt lat="46.4151001" lon="9.7173898"><ele>1807.0</ele><time>2026-04-11T12:05:38.022Z</time></trkpt><trkpt lat="46.4151596" lon="9.7175806"><ele>1807.0</ele><time>2026-04-11T12:05:39.022Z</time></trkpt><trkpt lat="46.415231" lon="9.717777"><ele>1807.0</ele><time>2026-04-11T12:05:40.022Z</time></trkpt><trkpt lat="46.4153247" lon="9.7179751"><ele>1805.3333333333335</ele><time>2026-04-11T12:05:41.022Z</time></trkpt><trkpt lat="46.4154485" lon="9.7181728"><ele>1803.6666666666665</ele><time>2026-04-11T12:05:42.022Z</time></trkpt><trkpt lat="46.4155781" lon="9.7183538"><ele>1802.0</ele><time>2026-04-11T12:05:43.022Z</time></trkpt><trkpt lat="46.4157076" lon="9.7185414"><ele>1805.6666666666665</ele><time>2026-04-11T12:05:44.022Z</time></trkpt><trkpt lat="46.4158306" lon="9.7187795"><ele>1809.3333333333335</ele><time>2026-04-11T12:05:45.021Z</time></trkpt><trkpt lat="46.4159291" lon="9.719059"><ele>1813.0</ele><time>2026-04-11T12:05:46.022Z</time></trkpt><trkpt lat="46.4160101" lon="9.7193439"><ele>1811.0</ele><time>2026-04-11T12:05:47.022Z</time></trkpt><trkpt lat="46.4160737" lon="9.7196147"><ele>1809.0</ele><time>2026-04-11T12:05:48.021Z</time></trkpt><trkpt lat="46.4161422" lon="9.7198635"><ele>1807.0</ele><time>2026-04-11T12:05:49.022Z</time></trkpt><trkpt lat="46.4162196" lon="9.7200862"><ele>1814.6666666666667</ele><time>2026-04-11T12:05:50.022Z</time></trkpt><trkpt lat="46.4163444" lon="9.7203204"><ele>1822.3333333333335</ele><time>2026-04-11T12:05:51.022Z</time></trkpt><trkpt lat="46.416433" lon="9.7205478"><ele>1830.0</ele><time>2026-04-11T12:05:52.022Z</time></trkpt><trkpt lat="46.4165291" lon="9.7207643"><ele>1830.0</ele><time>2026-04-11T12:05:53.022Z</time></trkpt><trkpt lat="46.4166265" lon="9.7210084"><ele>1830.0</ele><time>2026-04-11T12:05:54.022Z</time></trkpt><trkpt lat="46.4167272" lon="9.7212766"><ele>1830.0</ele><time>2026-04-11T12:05:55.022Z</time></trkpt><trkpt lat="46.4168153" lon="9.7215574"><ele>1826.0</ele><time>2026-04-11T12:05:56.022Z</time></trkpt><trkpt lat="46.4168988" lon="9.7218382"><ele>1822.0</ele><time>2026-04-11T12:05:57.021Z</time></trkpt><trkpt lat="46.4169793" lon="9.7221382"><ele>1818.0</ele><time>2026-04-11T12:05:58.022Z</time></trkpt><trkpt lat="46.4170665" lon="9.7224331"><ele>1814.6666666666665</ele><time>2026-04-11T12:05:59.022Z</time></trkpt><trkpt lat="46.4171483" lon="9.7227154"><ele>1811.3333333333333</ele><time>2026-04-11T12:06:00.022Z</time></trkpt><trkpt lat="46.4172291" lon="9.7229861"><ele>1808.0</ele><time>2026-04-11T12:06:01.021Z</time></trkpt><trkpt lat="46.4173113" lon="9.7232591"><ele>1812.0</ele><time>2026-04-11T12:06:02.022Z</time></trkpt><trkpt lat="46.4174044" lon="9.7235119"><ele>1816.0</ele><time>2026-04-11T12:06:03.022Z</time></trkpt><trkpt lat="46.4174019" lon="9.7236518"><ele>1820.0</ele><time>2026-04-11T12:06:04.022Z</time></trkpt><trkpt lat="46.4174966" lon="9.7239113"><ele>1820.0</ele><time>2026-04-11T12:06:05.022Z</time></trkpt><trkpt lat="46.4175836" lon="9.7241679"><ele>1820.0</ele><time>2026-04-11T12:06:06.022Z</time></trkpt><trkpt lat="46.4176548" lon="9.724422"><ele>1820.0</ele><time>2026-04-11T12:06:07.022Z</time></trkpt><trkpt lat="46.4177151" lon="9.7246862"><ele>1816.0</ele><time>2026-04-11T12:06:08.022Z</time></trkpt><trkpt lat="46.4177798" lon="9.7249532"><ele>1812.0</ele><time>2026-04-11T12:06:09.022Z</time></trkpt><trkpt lat="46.4178443" lon="9.7252242"><ele>1808.0</ele><time>2026-04-11T12:06:10.021Z</time></trkpt><trkpt lat="46.4179189" lon="9.7254832"><ele>1809.6666666666665</ele><time>2026-04-11T12:06:11.022Z</time></trkpt><trkpt lat="46.4180044" lon="9.7257248"><ele>1811.3333333333335</ele><time>2026-04-11T12:06:12.022Z</time></trkpt><trkpt lat="46.4180943" lon="9.7259574"><ele>1813.0</ele><time>2026-04-11T12:06:13.022Z</time></trkpt><trkpt lat="46.4181917" lon="9.7261855"><ele>1813.0</ele><time>2026-04-11T12:06:14.021Z</time></trkpt><trkpt lat="46.4182929" lon="9.7264174"><ele>1813.0</ele><time>2026-04-11T12:06:15.022Z</time></trkpt><trkpt lat="46.418386" lon="9.7266364"><ele>1813.0</ele><time>2026-04-11T12:06:16.022Z</time></trkpt><trkpt lat="46.4184757" lon="9.7268484"><ele>1812.3333333333335</ele><time>2026-04-11T12:06:17.022Z</time></trkpt><trkpt lat="46.4185683" lon="9.727055"><ele>1811.6666666666665</ele><time>2026-04-11T12:06:18.022Z</time></trkpt><trkpt lat="46.4186708" lon="9.7272369"><ele>1811.0</ele><time>2026-04-11T12:06:19.022Z</time></trkpt><trkpt lat="46.418784" lon="9.7273812"><ele>1812.0</ele><time>2026-04-11T12:06:20.022Z</time></trkpt><trkpt lat="46.4189065" lon="9.7274834"><ele>1813.0</ele><time>2026-04-11T12:06:21.022Z</time></trkpt><trkpt lat="46.4190423" lon="9.7275447"><ele>1814.0</ele><time>2026-04-11T12:06:22.021Z</time></trkpt><trkpt lat="46.4191712" lon="9.7275365"><ele>1815.0</ele><time>2026-04-11T12:06:23.021Z</time></trkpt><trkpt lat="46.4192912" lon="9.7274975"><ele>1815.0</ele><time>2026-04-11T12:06:24.02Z</time></trkpt><trkpt lat="46.4194227" lon="9.7273921"><ele>1815.0</ele><time>2026-04-11T12:06:25.021Z</time></trkpt><trkpt lat="46.4195474" lon="9.7272496"><ele>1815.0</ele><time>2026-04-11T12:06:26.021Z</time></trkpt><trkpt lat="46.4196813" lon="9.727082"><ele>1812.0</ele><time>2026-04-11T12:06:27.021Z</time></trkpt><trkpt lat="46.4198229" lon="9.7269196"><ele>1809.0</ele><time>2026-04-11T12:06:28.021Z</time></trkpt><trkpt lat="46.4199626" lon="9.7268"><ele>1806.0</ele><time>2026-04-11T12:06:29.021Z</time></trkpt><trkpt lat="46.4201133" lon="9.7266905"><ele>1806.0</ele><time>2026-04-11T12:06:30.021Z</time></trkpt><trkpt lat="46.4202632" lon="9.726608"><ele>1806.0</ele><time>2026-04-11T12:06:31.021Z</time></trkpt><trkpt lat="46.42043" lon="9.7265382"><ele>1806.0</ele><time>2026-04-11T12:06:32.021Z</time></trkpt><trkpt lat="46.4206126" lon="9.726479"><ele>1803.3333333333335</ele><time>2026-04-11T12:06:33.021Z</time></trkpt><trkpt lat="46.4208017" lon="9.7264444"><ele>1800.6666666666667</ele><time>2026-04-11T12:06:34.021Z</time></trkpt><trkpt lat="46.4209811" lon="9.7264321"><ele>1798.0</ele><time>2026-04-11T12:06:35.021Z</time></trkpt><trkpt lat="46.4211548" lon="9.7264178"><ele>1798.0</ele><time>2026-04-11T12:06:36.021Z</time></trkpt><trkpt lat="46.4213144" lon="9.7264141"><ele>1798.0</ele><time>2026-04-11T12:06:37.021Z</time></trkpt><trkpt lat="46.4214769" lon="9.7264073"><ele>1798.0</ele><time>2026-04-11T12:06:38.021Z</time></trkpt><trkpt lat="46.4216428" lon="9.7264048"><ele>1798.0</ele><time>2026-04-11T12:06:39.021Z</time></trkpt><trkpt lat="46.4218027" lon="9.7263977"><ele>1798.0</ele><time>2026-04-11T12:06:40.021Z</time></trkpt><trkpt lat="46.4219566" lon="9.7263884"><ele>1798.0</ele><time>2026-04-11T12:06:41.021Z</time></trkpt><trkpt lat="46.4221159" lon="9.7263807"><ele>1799.3333333333335</ele><time>2026-04-11T12:06:42.021Z</time></trkpt><trkpt lat="46.422273" lon="9.7263723"><ele>1800.6666666666665</ele><time>2026-04-11T12:06:43.021Z</time></trkpt><trkpt lat="46.4224325" lon="9.7263721"><ele>1802.0</ele><time>2026-04-11T12:06:44.02Z</time></trkpt><trkpt lat="46.4226008" lon="9.7263821"><ele>1802.0</ele><time>2026-04-11T12:06:45.021Z</time></trkpt><trkpt lat="46.4227728" lon="9.7264075"><ele>1802.0</ele><time>2026-04-11T12:06:46.021Z</time></trkpt><trkpt lat="46.4229427" lon="9.7264479"><ele>1802.0</ele><time>2026-04-11T12:06:47.021Z</time></trkpt><trkpt lat="46.4231094" lon="9.726509"><ele>1807.6666666666665</ele><time>2026-04-11T12:06:48.021Z</time></trkpt><trkpt lat="46.4232821" lon="9.7265895"><ele>1813.3333333333335</ele><time>2026-04-11T12:06:49.021Z</time></trkpt><trkpt lat="46.4234658" lon="9.7267075"><ele>1819.0</ele><time>2026-04-11T12:06:50.021Z</time></trkpt><trkpt lat="46.4236474" lon="9.7268553"><ele>1819.0</ele><time>2026-04-11T12:06:51.02Z</time></trkpt><trkpt lat="46.4238183" lon="9.7270191"><ele>1819.0</ele><time>2026-04-11T12:06:52.021Z</time></trkpt><trkpt lat="46.4239812" lon="9.7272008"><ele>1819.0</ele><time>2026-04-11T12:06:53.021Z</time></trkpt><trkpt lat="46.4241571" lon="9.7274072"><ele>1819.0</ele><time>2026-04-11T12:06:54.021Z</time></trkpt><trkpt lat="46.4243424" lon="9.7276466"><ele>1819.0</ele><time>2026-04-11T12:06:55.021Z</time></trkpt><trkpt lat="46.424538" lon="9.7279091"><ele>1823.5</ele><time>2026-04-11T12:06:56.021Z</time></trkpt><trkpt lat="46.4247372" lon="9.7281937"><ele>1828.0</ele><time>2026-04-11T12:06:57.021Z</time></trkpt><trkpt lat="46.4249266" lon="9.728466"><ele>1816.0</ele><time>2026-04-11T12:06:58.021Z</time></trkpt><trkpt lat="46.4250948" lon="9.728736"><ele>1804.0</ele><time>2026-04-11T12:06:59.021Z</time></trkpt><trkpt lat="46.4252407" lon="9.729016"><ele>1804.0</ele><time>2026-04-11T12:07:00.021Z</time></trkpt><trkpt lat="46.4253742" lon="9.7293109"><ele>1804.0</ele><time>2026-04-11T12:07:01.021Z</time></trkpt><trkpt lat="46.4254974" lon="9.729598"><ele>1807.0</ele><time>2026-04-11T12:07:02.02Z</time></trkpt><trkpt lat="46.425607" lon="9.7298827"><ele>1810.0</ele><time>2026-04-11T12:07:03.021Z</time></trkpt><trkpt lat="46.4257224" lon="9.7301483"><ele>1813.0</ele><time>2026-04-11T12:07:04.021Z</time></trkpt><trkpt lat="46.4258431" lon="9.7304174"><ele>1813.0</ele><time>2026-04-11T12:07:05.021Z</time></trkpt><trkpt lat="46.4259881" lon="9.7306818"><ele>1813.0</ele><time>2026-04-11T12:07:06.021Z</time></trkpt><trkpt lat="46.4261527" lon="9.7309603"><ele>1818.0</ele><time>2026-04-11T12:07:07.021Z</time></trkpt><trkpt lat="46.4263311" lon="9.731256"><ele>1823.0</ele><time>2026-04-11T12:07:08.021Z</time></trkpt><trkpt lat="46.4265193" lon="9.731554"><ele>1823.0</ele><time>2026-04-11T12:07:09.02Z</time></trkpt><trkpt lat="46.4267068" lon="9.7318616"><ele>1823.0</ele><time>2026-04-11T12:07:10.021Z</time></trkpt><trkpt lat="46.4268779" lon="9.7321683"><ele>1821.5</ele><time>2026-04-11T12:07:11.021Z</time></trkpt><trkpt lat="46.4270269" lon="9.7324758"><ele>1820.0</ele><time>2026-04-11T12:07:12.021Z</time></trkpt><trkpt lat="46.4271636" lon="9.7327583"><ele>1820.0</ele><time>2026-04-11T12:07:13.021Z</time></trkpt><trkpt lat="46.4273024" lon="9.7330185"><ele>1820.0</ele><time>2026-04-11T12:07:14.02Z</time></trkpt><trkpt lat="46.4274571" lon="9.7332604"><ele>1820.0</ele><time>2026-04-11T12:07:15.02Z</time></trkpt><trkpt lat="46.4276282" lon="9.7334726"><ele>1820.0</ele><time>2026-04-11T12:07:16.021Z</time></trkpt><trkpt lat="46.4277967" lon="9.7336742"><ele>1820.0</ele><time>2026-04-11T12:07:17.021Z</time></trkpt><trkpt lat="46.4279665" lon="9.7338597"><ele>1822.0</ele><time>2026-04-11T12:07:18.021Z</time></trkpt><trkpt lat="46.4281359" lon="9.7340111"><ele>1824.0</ele><time>2026-04-11T12:07:19.021Z</time></trkpt><trkpt lat="46.4283001" lon="9.7341316"><ele>1826.0</ele><time>2026-04-11T12:07:20.021Z</time></trkpt><trkpt lat="46.4284465" lon="9.7342512"><ele>1821.3333333333333</ele><time>2026-04-11T12:07:21.021Z</time></trkpt><trkpt lat="46.4285694" lon="9.7343948"><ele>1816.6666666666665</ele><time>2026-04-11T12:07:22.021Z</time></trkpt><trkpt lat="46.4286689" lon="9.7345708"><ele>1812.0</ele><time>2026-04-11T12:07:23.021Z</time></trkpt><trkpt lat="46.4287461" lon="9.7347335"><ele>1812.0</ele><time>2026-04-11T12:07:24.021Z</time></trkpt><trkpt lat="46.4287958" lon="9.7349085"><ele>1812.0</ele><time>2026-04-11T12:07:25.02Z</time></trkpt><trkpt lat="46.4288031" lon="9.7351018"><ele>1812.0</ele><time>2026-04-11T12:07:26.021Z</time></trkpt><trkpt lat="46.428779" lon="9.7353203"><ele>1812.0</ele><time>2026-04-11T12:07:27.021Z</time></trkpt><trkpt lat="46.4287329" lon="9.7355352"><ele>1809.6666666666665</ele><time>2026-04-11T12:07:28.021Z</time></trkpt><trkpt lat="46.4287021" lon="9.7357783"><ele>1807.3333333333333</ele><time>2026-04-11T12:07:29.021Z</time></trkpt><trkpt lat="46.428691" lon="9.7360461"><ele>1805.0</ele><time>2026-04-11T12:07:30.021Z</time></trkpt><trkpt lat="46.428693" lon="9.7362835"><ele>1805.0</ele><time>2026-04-11T12:07:31.021Z</time></trkpt><trkpt lat="46.4286929" lon="9.7364831"><ele>1805.0</ele><time>2026-04-11T12:07:32.021Z</time></trkpt><trkpt lat="46.4287144" lon="9.7366598"><ele>1805.0</ele><time>2026-04-11T12:07:33.021Z</time></trkpt><trkpt lat="46.4287805" lon="9.7368301"><ele>1805.0</ele><time>2026-04-11T12:07:34.021Z</time></trkpt><trkpt lat="46.4288808" lon="9.7370398"><ele>1804.6666666666665</ele><time>2026-04-11T12:07:35.021Z</time></trkpt><trkpt lat="46.4289898" lon="9.7372681"><ele>1804.3333333333335</ele><time>2026-04-11T12:07:36.021Z</time></trkpt><trkpt lat="46.4291121" lon="9.7375182"><ele>1804.0</ele><time>2026-04-11T12:07:37.021Z</time></trkpt><trkpt lat="46.4292457" lon="9.73777"><ele>1804.0</ele><time>2026-04-11T12:07:38.02Z</time></trkpt><trkpt lat="46.4293871" lon="9.7380041"><ele>1804.0</ele><time>2026-04-11T12:07:39.02Z</time></trkpt><trkpt lat="46.4295223" lon="9.7382188"><ele>1804.0</ele><time>2026-04-11T12:07:40.021Z</time></trkpt><trkpt lat="46.4296608" lon="9.7384131"><ele>1804.0</ele><time>2026-04-11T12:07:41.021Z</time></trkpt><trkpt lat="46.4298026" lon="9.7385855"><ele>1804.0</ele><time>2026-04-11T12:07:42.021Z</time></trkpt><trkpt lat="46.4299467" lon="9.7387297"><ele>1804.0</ele><time>2026-04-11T12:07:43.021Z</time></trkpt><trkpt lat="46.4300875" lon="9.7388721"><ele>1804.0</ele><time>2026-04-11T12:07:44.021Z</time></trkpt><trkpt lat="46.4302126" lon="9.7390386"><ele>1804.0</ele><time>2026-04-11T12:07:45.021Z</time></trkpt><trkpt lat="46.4303245" lon="9.7392223"><ele>1804.0</ele><time>2026-04-11T12:07:46.02Z</time></trkpt><trkpt lat="46.4304275" lon="9.7394196"><ele>1811.3333333333335</ele><time>2026-04-11T12:07:47.021Z</time></trkpt><trkpt lat="46.4305274" lon="9.739626"><ele>1818.6666666666665</ele><time>2026-04-11T12:07:48.02Z</time></trkpt><trkpt lat="46.4306205" lon="9.7398533"><ele>1826.0</ele><time>2026-04-11T12:07:49.021Z</time></trkpt><trkpt lat="46.4307112" lon="9.7400855"><ele>1822.0</ele><time>2026-04-11T12:07:50.021Z</time></trkpt><trkpt lat="46.4308003" lon="9.7403095"><ele>1818.0</ele><time>2026-04-11T12:07:51.021Z</time></trkpt><trkpt lat="46.430892" lon="9.7405236"><ele>1814.0</ele><time>2026-04-11T12:07:52.021Z</time></trkpt><trkpt lat="46.4309788" lon="9.740734"><ele>1814.0</ele><time>2026-04-11T12:07:53.021Z</time></trkpt><trkpt lat="46.4310606" lon="9.7409475"><ele>1814.0</ele><time>2026-04-11T12:07:54.021Z</time></trkpt><trkpt lat="46.4311238" lon="9.7411728"><ele>1814.0</ele><time>2026-04-11T12:07:55.021Z</time></trkpt><trkpt lat="46.4311729" lon="9.7414015"><ele>1811.0</ele><time>2026-04-11T12:07:56.021Z</time></trkpt><trkpt lat="46.4312166" lon="9.7416352"><ele>1808.0</ele><time>2026-04-11T12:07:57.021Z</time></trkpt><trkpt lat="46.4312599" lon="9.7418737"><ele>1805.0</ele><time>2026-04-11T12:07:58.021Z</time></trkpt><trkpt lat="46.4313026" lon="9.7421008"><ele>1805.6666666666665</ele><time>2026-04-11T12:07:59.021Z</time></trkpt><trkpt lat="46.4313565" lon="9.7423197"><ele>1806.3333333333335</ele><time>2026-04-11T12:08:00.021Z</time></trkpt><trkpt lat="46.4314156" lon="9.742543"><ele>1807.0</ele><time>2026-04-11T12:08:01.021Z</time></trkpt><trkpt lat="46.4314862" lon="9.7427689"><ele>1807.0</ele><time>2026-04-11T12:08:02.021Z</time></trkpt><trkpt lat="46.4315688" lon="9.7429734"><ele>1807.0</ele><time>2026-04-11T12:08:03.021Z</time></trkpt><trkpt lat="46.4316767" lon="9.7431569"><ele>1807.0</ele><time>2026-04-11T12:08:04.021Z</time></trkpt><trkpt lat="46.4318125" lon="9.74335"><ele>1807.0</ele><time>2026-04-11T12:08:05.021Z</time></trkpt><trkpt lat="46.4319482" lon="9.7435337"><ele>1807.0</ele><time>2026-04-11T12:08:06.021Z</time></trkpt><trkpt lat="46.4320768" lon="9.7437165"><ele>1807.0</ele><time>2026-04-11T12:08:07.02Z</time></trkpt><trkpt lat="46.4321969" lon="9.743891"><ele>1807.3333333333335</ele><time>2026-04-11T12:08:08.021Z</time></trkpt><trkpt lat="46.4323107" lon="9.7440784"><ele>1807.6666666666665</ele><time>2026-04-11T12:08:09.021Z</time></trkpt><trkpt lat="46.4324187" lon="9.744284"><ele>1808.0</ele><time>2026-04-11T12:08:10.021Z</time></trkpt><trkpt lat="46.4325171" lon="9.7444949"><ele>1808.0</ele><time>2026-04-11T12:08:11.02Z</time></trkpt><trkpt lat="46.4326008" lon="9.7447157"><ele>1808.0</ele><time>2026-04-11T12:08:12.021Z</time></trkpt><trkpt lat="46.4326699" lon="9.7449549"><ele>1808.0</ele><time>2026-04-11T12:08:13.02Z</time></trkpt><trkpt lat="46.4327312" lon="9.7452124"><ele>1806.0</ele><time>2026-04-11T12:08:14.021Z</time></trkpt><trkpt lat="46.4327676" lon="9.745469"><ele>1804.0</ele><time>2026-04-11T12:08:15.021Z</time></trkpt><trkpt lat="46.4327873" lon="9.7457469"><ele>1802.0</ele><time>2026-04-11T12:08:16.02Z</time></trkpt><trkpt lat="46.4327862" lon="9.7460179"><ele>1803.0</ele><time>2026-04-11T12:08:17.021Z</time></trkpt><trkpt lat="46.4327636" lon="9.7462868"><ele>1804.0</ele><time>2026-04-11T12:08:18.02Z</time></trkpt><trkpt lat="46.4327397" lon="9.7465466"><ele>1805.0</ele><time>2026-04-11T12:08:19.021Z</time></trkpt><trkpt lat="46.4327084" lon="9.7468102"><ele>1805.0</ele><time>2026-04-11T12:08:20.021Z</time></trkpt><trkpt lat="46.4326769" lon="9.7470797"><ele>1805.0</ele><time>2026-04-11T12:08:21.021Z</time></trkpt><trkpt lat="46.4326536" lon="9.7473292"><ele>1805.0</ele><time>2026-04-11T12:08:22.021Z</time></trkpt><trkpt lat="46.4326419" lon="9.7475864"><ele>1804.3333333333333</ele><time>2026-04-11T12:08:23.021Z</time></trkpt><trkpt lat="46.4326439" lon="9.7478479"><ele>1803.6666666666665</ele><time>2026-04-11T12:08:24.021Z</time></trkpt><trkpt lat="46.4326604" lon="9.7481054"><ele>1803.0</ele><time>2026-04-11T12:08:25.021Z</time></trkpt><trkpt lat="46.4326962" lon="9.7483734"><ele>1801.6666666666665</ele><time>2026-04-11T12:08:26.021Z</time></trkpt><trkpt lat="46.4327491" lon="9.7486505"><ele>1800.3333333333333</ele><time>2026-04-11T12:08:27.021Z</time></trkpt><trkpt lat="46.4328201" lon="9.7489241"><ele>1799.0</ele><time>2026-04-11T12:08:28.021Z</time></trkpt><trkpt lat="46.4328974" lon="9.7491859"><ele>1798.0</ele><time>2026-04-11T12:08:29.021Z</time></trkpt><trkpt lat="46.4329722" lon="9.7494365"><ele>1797.0</ele><time>2026-04-11T12:08:30.021Z</time></trkpt><trkpt lat="46.4330501" lon="9.7496845"><ele>1796.0</ele><time>2026-04-11T12:08:31.021Z</time></trkpt><trkpt lat="46.4331382" lon="9.7499309"><ele>1799.0</ele><time>2026-04-11T12:08:32.02Z</time></trkpt><trkpt lat="46.4332294" lon="9.7501747"><ele>1802.0</ele><time>2026-04-11T12:08:33.021Z</time></trkpt><trkpt lat="46.4333325" lon="9.7504175"><ele>1805.0</ele><time>2026-04-11T12:08:34.021Z</time></trkpt><trkpt lat="46.433435" lon="9.7506383"><ele>1805.0</ele><time>2026-04-11T12:08:35.021Z</time></trkpt><trkpt lat="46.4335372" lon="9.7508483"><ele>1805.0</ele><time>2026-04-11T12:08:36.021Z</time></trkpt><trkpt lat="46.4336388" lon="9.7510456"><ele>1805.0</ele><time>2026-04-11T12:08:37.021Z</time></trkpt><trkpt lat="46.4337472" lon="9.7512334"><ele>1809.0</ele><time>2026-04-11T12:08:38.021Z</time></trkpt><trkpt lat="46.433848" lon="9.7514124"><ele>1813.0</ele><time>2026-04-11T12:08:39.02Z</time></trkpt><trkpt lat="46.4339433" lon="9.7515884"><ele>1817.0</ele><time>2026-04-11T12:08:40.021Z</time></trkpt><trkpt lat="46.4340349" lon="9.7517746"><ele>1812.6666666666665</ele><time>2026-04-11T12:08:41.021Z</time></trkpt><trkpt lat="46.4341272" lon="9.7519746"><ele>1808.3333333333335</ele><time>2026-04-11T12:08:42.021Z</time></trkpt><trkpt lat="46.4342139" lon="9.7521858"><ele>1804.0</ele><time>2026-04-11T12:08:43.021Z</time></trkpt><trkpt lat="46.4342966" lon="9.7524163"><ele>1804.0</ele><time>2026-04-11T12:08:44.021Z</time></trkpt><trkpt lat="46.4343738" lon="9.7526877"><ele>1804.0</ele><time>2026-04-11T12:08:45.021Z</time></trkpt><trkpt lat="46.4344492" lon="9.7529895"><ele>1804.0</ele><time>2026-04-11T12:08:46.021Z</time></trkpt><trkpt lat="46.4345151" lon="9.7532881"><ele>1803.3333333333335</ele><time>2026-04-11T12:08:47.021Z</time></trkpt><trkpt lat="46.4345871" lon="9.7535709"><ele>1802.6666666666665</ele><time>2026-04-11T12:08:48.021Z</time></trkpt><trkpt lat="46.434668" lon="9.7538436"><ele>1802.0</ele><time>2026-04-11T12:08:49.021Z</time></trkpt><trkpt lat="46.4347613" lon="9.7541151"><ele>1801.6666666666665</ele><time>2026-04-11T12:08:50.02Z</time></trkpt><trkpt lat="46.4348659" lon="9.7543795"><ele>1801.3333333333335</ele><time>2026-04-11T12:08:51.021Z</time></trkpt><trkpt lat="46.4349841" lon="9.754628"><ele>1801.0</ele><time>2026-04-11T12:08:52.021Z</time></trkpt><trkpt lat="46.4351055" lon="9.7548672"><ele>1801.0</ele><time>2026-04-11T12:08:53.021Z</time></trkpt><trkpt lat="46.4352352" lon="9.7550945"><ele>1801.0</ele><time>2026-04-11T12:08:54.021Z</time></trkpt><trkpt lat="46.4353716" lon="9.7553265"><ele>1801.0</ele><time>2026-04-11T12:08:55.021Z</time></trkpt><trkpt lat="46.4355095" lon="9.7555641"><ele>1802.3333333333335</ele><time>2026-04-11T12:08:56.021Z</time></trkpt><trkpt lat="46.4356459" lon="9.7558063"><ele>1803.6666666666665</ele><time>2026-04-11T12:08:57.021Z</time></trkpt><trkpt lat="46.4357747" lon="9.7560544"><ele>1805.0</ele><time>2026-04-11T12:08:58.021Z</time></trkpt><trkpt lat="46.4358902" lon="9.7563111"><ele>1805.0</ele><time>2026-04-11T12:08:59.021Z</time></trkpt><trkpt lat="46.4359915" lon="9.7565671"><ele>1805.0</ele><time>2026-04-11T12:09:00.021Z</time></trkpt><trkpt lat="46.4360796" lon="9.7568362"><ele>1805.0</ele><time>2026-04-11T12:09:01.021Z</time></trkpt><trkpt lat="46.4361605" lon="9.7571108"><ele>1803.0</ele><time>2026-04-11T12:09:02.021Z</time></trkpt><trkpt lat="46.4362272" lon="9.7573954"><ele>1801.0</ele><time>2026-04-11T12:09:03.021Z</time></trkpt><trkpt lat="46.4362908" lon="9.7576632"><ele>1799.0</ele><time>2026-04-11T12:09:04.021Z</time></trkpt><trkpt lat="46.4363588" lon="9.7579253"><ele>1801.3333333333333</ele><time>2026-04-11T12:09:05.021Z</time></trkpt><trkpt lat="46.436435" lon="9.7581833"><ele>1803.6666666666665</ele><time>2026-04-11T12:09:06.021Z</time></trkpt><trkpt lat="46.4365328" lon="9.7584382"><ele>1806.0</ele><time>2026-04-11T12:09:07.021Z</time></trkpt><trkpt lat="46.4366396" lon="9.7586902"><ele>1806.0</ele><time>2026-04-11T12:09:08.021Z</time></trkpt><trkpt lat="46.4367485" lon="9.7589355"><ele>1806.0</ele><time>2026-04-11T12:09:09.021Z</time></trkpt><trkpt lat="46.4368585" lon="9.7591593"><ele>1806.0</ele><time>2026-04-11T12:09:10.021Z</time></trkpt><trkpt lat="46.4369669" lon="9.7593838"><ele>1803.0</ele><time>2026-04-11T12:09:11.02Z</time></trkpt><trkpt lat="46.4370717" lon="9.7596123"><ele>1800.0</ele><time>2026-04-11T12:09:12.021Z</time></trkpt><trkpt lat="46.4371767" lon="9.7598383"><ele>1797.0</ele><time>2026-04-11T12:09:13.02Z</time></trkpt><trkpt lat="46.437277" lon="9.7600627"><ele>1803.6666666666665</ele><time>2026-04-11T12:09:14.021Z</time></trkpt><trkpt lat="46.4373779" lon="9.7602923"><ele>1810.3333333333333</ele><time>2026-04-11T12:09:15.021Z</time></trkpt><trkpt lat="46.4374691" lon="9.7605325"><ele>1817.0</ele><time>2026-04-11T12:09:16.021Z</time></trkpt><trkpt lat="46.4375534" lon="9.7607759"><ele>1817.0</ele><time>2026-04-11T12:09:17.021Z</time></trkpt><trkpt lat="46.4376218" lon="9.761024"><ele>1817.0</ele><time>2026-04-11T12:09:18.021Z</time></trkpt><trkpt lat="46.4376837" lon="9.7612738"><ele>1817.0</ele><time>2026-04-11T12:09:19.021Z</time></trkpt><trkpt lat="46.4377272" lon="9.761525"><ele>1812.3333333333333</ele><time>2026-04-11T12:09:20.02Z</time></trkpt><trkpt lat="46.4377604" lon="9.7617874"><ele>1807.6666666666665</ele><time>2026-04-11T12:09:21.021Z</time></trkpt><trkpt lat="46.4377802" lon="9.7620573"><ele>1803.0</ele><time>2026-04-11T12:09:22.021Z</time></trkpt><trkpt lat="46.4377976" lon="9.7623352"><ele>1802.3333333333335</ele><time>2026-04-11T12:09:23.021Z</time></trkpt><trkpt lat="46.4378248" lon="9.762603"><ele>1801.6666666666667</ele><time>2026-04-11T12:09:24.021Z</time></trkpt><trkpt lat="46.437868" lon="9.7628763"><ele>1801.0</ele><time>2026-04-11T12:09:25.021Z</time></trkpt><trkpt lat="46.4379234" lon="9.7631751"><ele>1801.0</ele><time>2026-04-11T12:09:26.021Z</time></trkpt><trkpt lat="46.4379955" lon="9.7634768"><ele>1801.0</ele><time>2026-04-11T12:09:27.021Z</time></trkpt><trkpt lat="46.4380758" lon="9.7637593"><ele>1801.0</ele><time>2026-04-11T12:09:28.021Z</time></trkpt><trkpt lat="46.4381611" lon="9.7640145"><ele>1801.0</ele><time>2026-04-11T12:09:29.021Z</time></trkpt><trkpt lat="46.4382421" lon="9.7642559"><ele>1801.0</ele><time>2026-04-11T12:09:30.021Z</time></trkpt><trkpt lat="46.4383256" lon="9.7644824"><ele>1801.0</ele><time>2026-04-11T12:09:31.021Z</time></trkpt><trkpt lat="46.4384086" lon="9.7646962"><ele>1801.0</ele><time>2026-04-11T12:09:32.021Z</time></trkpt><trkpt lat="46.4384814" lon="9.7649039"><ele>1801.0</ele><time>2026-04-11T12:09:33.02Z</time></trkpt><trkpt lat="46.4385542" lon="9.7650879"><ele>1801.0</ele><time>2026-04-11T12:09:34.021Z</time></trkpt><trkpt lat="46.4386316" lon="9.7652437"><ele>1801.0</ele><time>2026-04-11T12:09:35.021Z</time></trkpt><trkpt lat="46.4386931" lon="9.7653805"><ele>1801.0000000000002</ele><time>2026-04-11T12:09:36.02Z</time></trkpt><trkpt lat="46.438752" lon="9.7654942"><ele>1801.0</ele><time>2026-04-11T12:09:37.021Z</time></trkpt><trkpt lat="46.4388031" lon="9.7655971"><ele>1801.0</ele><time>2026-04-11T12:09:38.021Z</time></trkpt><trkpt lat="46.4388341" lon="9.7656925"><ele>1801.0</ele><time>2026-04-11T12:09:39.021Z</time></trkpt><trkpt lat="46.4388403" lon="9.765791"><ele>1801.0000000000002</ele><time>2026-04-11T12:09:40.021Z</time></trkpt><trkpt lat="46.4388414" lon="9.765895"><ele>1801.0</ele><time>2026-04-11T12:09:41.021Z</time></trkpt><trkpt lat="46.4388688" lon="9.7660032"><ele>1800.25</ele><time>2026-04-11T12:09:42.021Z</time></trkpt><trkpt lat="46.4389313" lon="9.766102"><ele>1799.5</ele><time>2026-04-11T12:09:43.021Z</time></trkpt><trkpt lat="46.439009" lon="9.7662281"><ele>1798.75</ele><time>2026-04-11T12:09:44.021Z</time></trkpt><trkpt lat="46.4390806" lon="9.7663711"><ele>1798.0</ele><time>2026-04-11T12:09:45.021Z</time></trkpt><trkpt lat="46.4391453" lon="9.7665262"><ele>1798.0</ele><time>2026-04-11T12:09:46.021Z</time></trkpt><trkpt lat="46.4392194" lon="9.7667173"><ele>1798.0</ele><time>2026-04-11T12:09:47.021Z</time></trkpt><trkpt lat="46.4393012" lon="9.7669361"><ele>1798.0</ele><time>2026-04-11T12:09:48.021Z</time></trkpt><trkpt lat="46.4393845" lon="9.7671522"><ele>1798.0</ele><time>2026-04-11T12:09:49.021Z</time></trkpt><trkpt lat="46.4394705" lon="9.7673616"><ele>1798.0</ele><time>2026-04-11T12:09:50.021Z</time></trkpt><trkpt lat="46.439557" lon="9.7675714"><ele>1798.0</ele><time>2026-04-11T12:09:51.021Z</time></trkpt><trkpt lat="46.4396412" lon="9.7677841"><ele>1797.6666666666667</ele><time>2026-04-11T12:09:52.02Z</time></trkpt><trkpt lat="46.4397304" lon="9.7680017"><ele>1797.3333333333335</ele><time>2026-04-11T12:09:53.021Z</time></trkpt><trkpt lat="46.4398178" lon="9.7682196"><ele>1797.0</ele><time>2026-04-11T12:09:54.021Z</time></trkpt><trkpt lat="46.4399113" lon="9.7684393"><ele>1796.3333333333335</ele><time>2026-04-11T12:09:55.021Z</time></trkpt><trkpt lat="46.4400103" lon="9.7686642"><ele>1795.6666666666667</ele><time>2026-04-11T12:09:56.021Z</time></trkpt><trkpt lat="46.4401053" lon="9.7688979"><ele>1795.0</ele><time>2026-04-11T12:09:57.021Z</time></trkpt><trkpt lat="46.4402024" lon="9.7691342"><ele>1795.0</ele><time>2026-04-11T12:09:58.021Z</time></trkpt><trkpt lat="46.4403014" lon="9.7693769"><ele>1795.0</ele><time>2026-04-11T12:09:59.021Z</time></trkpt><trkpt lat="46.4403964" lon="9.7696262"><ele>1795.0</ele><time>2026-04-11T12:10:00.021Z</time></trkpt><trkpt lat="46.4404983" lon="9.7698737"><ele>1795.3333333333335</ele><time>2026-04-11T12:10:01.021Z</time></trkpt><trkpt lat="46.4406013" lon="9.7701241"><ele>1795.6666666666665</ele><time>2026-04-11T12:10:02.02Z</time></trkpt><trkpt lat="46.4407116" lon="9.7703845"><ele>1796.0</ele><time>2026-04-11T12:10:03.02Z</time></trkpt><trkpt lat="46.4408218" lon="9.7706584"><ele>1796.0</ele><time>2026-04-11T12:10:04.021Z</time></trkpt><trkpt lat="46.4409348" lon="9.7709376"><ele>1796.0</ele><time>2026-04-11T12:10:05.021Z</time></trkpt><trkpt lat="46.441054" lon="9.7712213"><ele>1796.0</ele><time>2026-04-11T12:10:06.021Z</time></trkpt><trkpt lat="46.4411738" lon="9.7715124"><ele>1796.0</ele><time>2026-04-11T12:10:07.02Z</time></trkpt><trkpt lat="46.4412963" lon="9.7718084"><ele>1794.5</ele><time>2026-04-11T12:10:08.021Z</time></trkpt><trkpt lat="46.4414218" lon="9.7721083"><ele>1793.0</ele><time>2026-04-11T12:10:09.021Z</time></trkpt><trkpt lat="46.4415511" lon="9.7724115"><ele>1793.0</ele><time>2026-04-11T12:10:10.02Z</time></trkpt><trkpt lat="46.4416812" lon="9.7727234"><ele>1793.0</ele><time>2026-04-11T12:10:11.021Z</time></trkpt><trkpt lat="46.4418048" lon="9.7730385"><ele>1793.0</ele><time>2026-04-11T12:10:12.02Z</time></trkpt><trkpt lat="46.4419248" lon="9.7733389"><ele>1793.0</ele><time>2026-04-11T12:10:13.021Z</time></trkpt><trkpt lat="46.4420439" lon="9.7736321"><ele>1792.6666666666665</ele><time>2026-04-11T12:10:14.02Z</time></trkpt><trkpt lat="46.4421603" lon="9.7739162"><ele>1792.3333333333335</ele><time>2026-04-11T12:10:15.021Z</time></trkpt><trkpt lat="46.4422724" lon="9.7741883"><ele>1792.0</ele><time>2026-04-11T12:10:16.021Z</time></trkpt><trkpt lat="46.4423813" lon="9.774456"><ele>1792.0</ele><time>2026-04-11T12:10:17.021Z</time></trkpt><trkpt lat="46.4424968" lon="9.7747061"><ele>1792.0</ele><time>2026-04-11T12:10:18.02Z</time></trkpt><trkpt lat="46.4426218" lon="9.7749389"><ele>1792.0</ele><time>2026-04-11T12:10:19.021Z</time></trkpt><trkpt lat="46.4427759" lon="9.7751466"><ele>1791.0</ele><time>2026-04-11T12:10:20.021Z</time></trkpt><trkpt lat="46.4429495" lon="9.7753379"><ele>1790.0</ele><time>2026-04-11T12:10:21.02Z</time></trkpt><trkpt lat="46.443144" lon="9.7755297"><ele>1795.0</ele><time>2026-04-11T12:10:22.021Z</time></trkpt><trkpt lat="46.4433466" lon="9.7757049"><ele>1800.0</ele><time>2026-04-11T12:10:23.021Z</time></trkpt><trkpt lat="46.4435387" lon="9.77588"><ele>1801.6666666666665</ele><time>2026-04-11T12:10:24.021Z</time></trkpt><trkpt lat="46.4437226" lon="9.7760522"><ele>1803.3333333333333</ele><time>2026-04-11T12:10:25.021Z</time></trkpt><trkpt lat="46.4438938" lon="9.7762276"><ele>1805.0</ele><time>2026-04-11T12:10:26.021Z</time></trkpt><trkpt lat="46.4440552" lon="9.7764114"><ele>1805.0</ele><time>2026-04-11T12:10:27.021Z</time></trkpt><trkpt lat="46.444203" lon="9.7766137"><ele>1805.0</ele><time>2026-04-11T12:10:28.021Z</time></trkpt><trkpt lat="46.4443302" lon="9.7768196"><ele>1805.0</ele><time>2026-04-11T12:10:29.021Z</time></trkpt><trkpt lat="46.4444434" lon="9.7770296"><ele>1805.6666666666665</ele><time>2026-04-11T12:10:30.021Z</time></trkpt><trkpt lat="46.4445495" lon="9.7772532"><ele>1806.3333333333335</ele><time>2026-04-11T12:10:31.021Z</time></trkpt><trkpt lat="46.4446516" lon="9.777475"><ele>1807.0</ele><time>2026-04-11T12:10:32.021Z</time></trkpt><trkpt lat="46.4447469" lon="9.7776856"><ele>1807.0</ele><time>2026-04-11T12:10:33.021Z</time></trkpt><trkpt lat="46.4448348" lon="9.7778993"><ele>1807.0</ele><time>2026-04-11T12:10:34.02Z</time></trkpt><trkpt lat="46.4449043" lon="9.7781401"><ele>1807.0</ele><time>2026-04-11T12:10:35.021Z</time></trkpt><trkpt lat="46.4449564" lon="9.7783937"><ele>1805.0</ele><time>2026-04-11T12:10:36.021Z</time></trkpt><trkpt lat="46.4450016" lon="9.7786449"><ele>1803.0</ele><time>2026-04-11T12:10:37.021Z</time></trkpt><trkpt lat="46.4450459" lon="9.778858"><ele>1801.0</ele><time>2026-04-11T12:10:38.021Z</time></trkpt><trkpt lat="46.4451153" lon="9.7790388"><ele>1801.0</ele><time>2026-04-11T12:10:39.021Z</time></trkpt><trkpt lat="46.4452077" lon="9.7791927"><ele>1801.0</ele><time>2026-04-11T12:10:40.021Z</time></trkpt><trkpt lat="46.4453196" lon="9.7793188"><ele>1801.0</ele><time>2026-04-11T12:10:41.021Z</time></trkpt><trkpt lat="46.4454572" lon="9.7794393"><ele>1801.0</ele><time>2026-04-11T12:10:42.021Z</time></trkpt><trkpt lat="46.4456032" lon="9.779566"><ele>1802.0</ele><time>2026-04-11T12:10:43.021Z</time></trkpt><trkpt lat="46.4457434" lon="9.7797045"><ele>1803.0</ele><time>2026-04-11T12:10:44.021Z</time></trkpt><trkpt lat="46.4458694" lon="9.7798651"><ele>1804.0</ele><time>2026-04-11T12:10:45.02Z</time></trkpt><trkpt lat="46.4459868" lon="9.7800551"><ele>1800.3333333333335</ele><time>2026-04-11T12:10:46.021Z</time></trkpt><trkpt lat="46.4460887" lon="9.7802795"><ele>1796.6666666666665</ele><time>2026-04-11T12:10:47.021Z</time></trkpt><trkpt lat="46.4461942" lon="9.7805168"><ele>1793.0</ele><time>2026-04-11T12:10:48.021Z</time></trkpt><trkpt lat="46.4463153" lon="9.7807343"><ele>1795.3333333333333</ele><time>2026-04-11T12:10:49.021Z</time></trkpt><trkpt lat="46.4464501" lon="9.780929"><ele>1797.6666666666665</ele><time>2026-04-11T12:10:50.02Z</time></trkpt><trkpt lat="46.446583" lon="9.7811083"><ele>1800.0</ele><time>2026-04-11T12:10:51.021Z</time></trkpt><trkpt lat="46.4467095" lon="9.7812825"><ele>1800.0</ele><time>2026-04-11T12:10:52.02Z</time></trkpt><trkpt lat="46.4468206" lon="9.7814479"><ele>1800.0</ele><time>2026-04-11T12:10:53.021Z</time></trkpt><trkpt lat="46.4469393" lon="9.7815867"><ele>1800.0</ele><time>2026-04-11T12:10:54.021Z</time></trkpt><trkpt lat="46.4470629" lon="9.7817022"><ele>1800.75</ele><time>2026-04-11T12:10:55.021Z</time></trkpt><trkpt lat="46.4471873" lon="9.7818014"><ele>1801.5</ele><time>2026-04-11T12:10:56.021Z</time></trkpt><trkpt lat="46.4473003" lon="9.7819081"><ele>1802.25</ele><time>2026-04-11T12:10:57.02Z</time></trkpt><trkpt lat="46.4474025" lon="9.7820323"><ele>1803.0</ele><time>2026-04-11T12:10:58.021Z</time></trkpt><trkpt lat="46.4474906" lon="9.7821764"><ele>1803.0</ele><time>2026-04-11T12:10:59.021Z</time></trkpt><trkpt lat="46.44755" lon="9.7823435"><ele>1803.0</ele><time>2026-04-11T12:11:00.021Z</time></trkpt><trkpt lat="46.4475906" lon="9.7825277"><ele>1803.0</ele><time>2026-04-11T12:11:01.021Z</time></trkpt><trkpt lat="46.4476263" lon="9.7827125"><ele>1803.0</ele><time>2026-04-11T12:11:02.021Z</time></trkpt><trkpt lat="46.4476777" lon="9.7828991"><ele>1801.25</ele><time>2026-04-11T12:11:03.021Z</time></trkpt><trkpt lat="46.4477508" lon="9.7830568"><ele>1799.5</ele><time>2026-04-11T12:11:04.02Z</time></trkpt><trkpt lat="46.4478425" lon="9.7831827"><ele>1797.75</ele><time>2026-04-11T12:11:05.021Z</time></trkpt><trkpt lat="46.4479461" lon="9.783294"><ele>1796.0</ele><time>2026-04-11T12:11:06.02Z</time></trkpt><trkpt lat="46.4480653" lon="9.7833871"><ele>1796.0</ele><time>2026-04-11T12:11:07.021Z</time></trkpt><trkpt lat="46.4481984" lon="9.7834819"><ele>1796.0</ele><time>2026-04-11T12:11:08.021Z</time></trkpt><trkpt lat="46.4483311" lon="9.7835954"><ele>1796.0</ele><time>2026-04-11T12:11:09.02Z</time></trkpt><trkpt lat="46.4484826" lon="9.7837253"><ele>1796.0</ele><time>2026-04-11T12:11:10.021Z</time></trkpt><trkpt lat="46.4486433" lon="9.783846"><ele>1796.0</ele><time>2026-04-11T12:11:11.021Z</time></trkpt><trkpt lat="46.448808" lon="9.7839492"><ele>1796.0</ele><time>2026-04-11T12:11:12.021Z</time></trkpt><trkpt lat="46.4489635" lon="9.7840381"><ele>1795.0</ele><time>2026-04-11T12:11:13.021Z</time></trkpt><trkpt lat="46.4491169" lon="9.7841269"><ele>1794.0</ele><time>2026-04-11T12:11:14.021Z</time></trkpt><trkpt lat="46.4492636" lon="9.7842266"><ele>1793.0</ele><time>2026-04-11T12:11:15.021Z</time></trkpt><trkpt lat="46.4494119" lon="9.7843464"><ele>1793.0</ele><time>2026-04-11T12:11:16.021Z</time></trkpt><trkpt lat="46.4495508" lon="9.7844888"><ele>1793.0</ele><time>2026-04-11T12:11:17.021Z</time></trkpt><trkpt lat="46.4496817" lon="9.7846448"><ele>1793.0</ele><time>2026-04-11T12:11:18.021Z</time></trkpt><trkpt lat="46.4497978" lon="9.7848035"><ele>1793.0</ele><time>2026-04-11T12:11:19.021Z</time></trkpt><trkpt lat="46.4499043" lon="9.7849718"><ele>1793.0</ele><time>2026-04-11T12:11:20.021Z</time></trkpt><trkpt lat="46.4500218" lon="9.785119"><ele>1793.0</ele><time>2026-04-11T12:11:21.021Z</time></trkpt><trkpt lat="46.4501535" lon="9.7852551"><ele>1793.0</ele><time>2026-04-11T12:11:22.021Z</time></trkpt><trkpt lat="46.4502982" lon="9.7853652"><ele>1793.0</ele><time>2026-04-11T12:11:23.021Z</time></trkpt><trkpt lat="46.4504506" lon="9.785474"><ele>1793.0</ele><time>2026-04-11T12:11:24.021Z</time></trkpt><trkpt lat="46.4505999" lon="9.7855823"><ele>1796.3333333333333</ele><time>2026-04-11T12:11:25.021Z</time></trkpt><trkpt lat="46.4507473" lon="9.7856929"><ele>1799.6666666666665</ele><time>2026-04-11T12:11:26.021Z</time></trkpt><trkpt lat="46.4508873" lon="9.7858054"><ele>1803.0</ele><time>2026-04-11T12:11:27.021Z</time></trkpt><trkpt lat="46.4510325" lon="9.7859183"><ele>1803.6666666666665</ele><time>2026-04-11T12:11:28.021Z</time></trkpt><trkpt lat="46.451178" lon="9.7860369"><ele>1804.3333333333333</ele><time>2026-04-11T12:11:29.021Z</time></trkpt><trkpt lat="46.4513269" lon="9.7861532"><ele>1805.0</ele><time>2026-04-11T12:11:30.021Z</time></trkpt><trkpt lat="46.4514708" lon="9.7862826"><ele>1805.0</ele><time>2026-04-11T12:11:31.021Z</time></trkpt><trkpt lat="46.4516109" lon="9.7864317"><ele>1805.0</ele><time>2026-04-11T12:11:32.021Z</time></trkpt><trkpt lat="46.4517475" lon="9.7865921"><ele>1805.0</ele><time>2026-04-11T12:11:33.021Z</time></trkpt><trkpt lat="46.4518869" lon="9.7867516"><ele>1807.0</ele><time>2026-04-11T12:11:34.021Z</time></trkpt><trkpt lat="46.4520276" lon="9.7869009"><ele>1809.0</ele><time>2026-04-11T12:11:35.021Z</time></trkpt><trkpt lat="46.4521676" lon="9.7870543"><ele>1811.0</ele><time>2026-04-11T12:11:36.021Z</time></trkpt><trkpt lat="46.4523109" lon="9.7872055"><ele>1811.0</ele><time>2026-04-11T12:11:37.021Z</time></trkpt><trkpt lat="46.4524535" lon="9.7873552"><ele>1811.0</ele><time>2026-04-11T12:11:38.021Z</time></trkpt><trkpt lat="46.4525931" lon="9.7875101"><ele>1811.0</ele><time>2026-04-11T12:11:39.021Z</time></trkpt><trkpt lat="46.4527331" lon="9.7876669"><ele>1810.3333333333333</ele><time>2026-04-11T12:11:40.021Z</time></trkpt><trkpt lat="46.4528771" lon="9.787822"><ele>1809.6666666666665</ele><time>2026-04-11T12:11:41.021Z</time></trkpt><trkpt lat="46.4530244" lon="9.7879623"><ele>1809.0</ele><time>2026-04-11T12:11:42.021Z</time></trkpt><trkpt lat="46.453177" lon="9.78809"><ele>1809.0</ele><time>2026-04-11T12:11:43.021Z</time></trkpt><trkpt lat="46.4533271" lon="9.7882109"><ele>1809.0</ele><time>2026-04-11T12:11:44.021Z</time></trkpt><trkpt lat="46.4534765" lon="9.7883401"><ele>1809.0</ele><time>2026-04-11T12:11:45.021Z</time></trkpt><trkpt lat="46.4536219" lon="9.7884672"><ele>1808.0</ele><time>2026-04-11T12:11:46.021Z</time></trkpt><trkpt lat="46.4537669" lon="9.788591"><ele>1807.0</ele><time>2026-04-11T12:11:47.021Z</time></trkpt><trkpt lat="46.4539113" lon="9.7887259"><ele>1806.0</ele><time>2026-04-11T12:11:48.021Z</time></trkpt><trkpt lat="46.4540549" lon="9.7888587"><ele>1806.0</ele><time>2026-04-11T12:11:49.021Z</time></trkpt><trkpt lat="46.4542048" lon="9.7889768"><ele>1806.0</ele><time>2026-04-11T12:11:50.021Z</time></trkpt><trkpt lat="46.4543549" lon="9.7891143"><ele>1806.0</ele><time>2026-04-11T12:11:51.021Z</time></trkpt><trkpt lat="46.4544936" lon="9.7892614"><ele>1804.6666666666665</ele><time>2026-04-11T12:11:52.021Z</time></trkpt><trkpt lat="46.4546204" lon="9.7894135"><ele>1803.3333333333333</ele><time>2026-04-11T12:11:53.021Z</time></trkpt><trkpt lat="46.4547536" lon="9.7895459"><ele>1802.0</ele><time>2026-04-11T12:11:54.021Z</time></trkpt><trkpt lat="46.4548958" lon="9.7896612"><ele>1802.0</ele><time>2026-04-11T12:11:55.02Z</time></trkpt><trkpt lat="46.4550374" lon="9.7897868"><ele>1802.0</ele><time>2026-04-11T12:11:56.021Z</time></trkpt><trkpt lat="46.4551797" lon="9.7899203"><ele>1802.0</ele><time>2026-04-11T12:11:57.021Z</time></trkpt><trkpt lat="46.4553195" lon="9.790057"><ele>1801.3333333333333</ele><time>2026-04-11T12:11:58.021Z</time></trkpt><trkpt lat="46.4554527" lon="9.7902098"><ele>1800.6666666666665</ele><time>2026-04-11T12:11:59.021Z</time></trkpt><trkpt lat="46.4555808" lon="9.7903722"><ele>1800.0</ele><time>2026-04-11T12:12:00.02Z</time></trkpt><trkpt lat="46.4556965" lon="9.7905397"><ele>1800.0</ele><time>2026-04-11T12:12:01.021Z</time></trkpt><trkpt lat="46.455808" lon="9.7907036"><ele>1800.0</ele><time>2026-04-11T12:12:02.02Z</time></trkpt><trkpt lat="46.4559137" lon="9.7908716"><ele>1800.0</ele><time>2026-04-11T12:12:03.021Z</time></trkpt><trkpt lat="46.4560173" lon="9.7910221"><ele>1799.6</ele><time>2026-04-11T12:12:04.021Z</time></trkpt><trkpt lat="46.4560967" lon="9.7911551"><ele>1799.2</ele><time>2026-04-11T12:12:05.02Z</time></trkpt><trkpt lat="46.4561665" lon="9.7912772"><ele>1798.8000000000002</ele><time>2026-04-11T12:12:06.02Z</time></trkpt><trkpt lat="46.4562209" lon="9.7914031"><ele>1798.4</ele><time>2026-04-11T12:12:07.02Z</time></trkpt><trkpt lat="46.4562509" lon="9.7915229"><ele>1798.0</ele><time>2026-04-11T12:12:08.021Z</time></trkpt><trkpt lat="46.4562582" lon="9.7916286"><ele>1798.0</ele><time>2026-04-11T12:12:09.02Z</time></trkpt><trkpt lat="46.4562642" lon="9.7917369"><ele>1798.0000000000002</ele><time>2026-04-11T12:12:10.021Z</time></trkpt><trkpt lat="46.4562948" lon="9.7918351"><ele>1798.0000000000002</ele><time>2026-04-11T12:12:11.021Z</time></trkpt><trkpt lat="46.4563585" lon="9.7919418"><ele>1798.0</ele><time>2026-04-11T12:12:12.02Z</time></trkpt><trkpt lat="46.4564239" lon="9.7920805"><ele>1798.0</ele><time>2026-04-11T12:12:13.021Z</time></trkpt><trkpt lat="46.4564741" lon="9.7922509"><ele>1799.25</ele><time>2026-04-11T12:12:14.021Z</time></trkpt><trkpt lat="46.4565067" lon="9.7924544"><ele>1800.5</ele><time>2026-04-11T12:12:15.021Z</time></trkpt><trkpt lat="46.4565312" lon="9.7926574"><ele>1801.75</ele><time>2026-04-11T12:12:16.021Z</time></trkpt><trkpt lat="46.4565614" lon="9.7928569"><ele>1803.0</ele><time>2026-04-11T12:12:17.021Z</time></trkpt><trkpt lat="46.4565933" lon="9.7930514"><ele>1803.25</ele><time>2026-04-11T12:12:18.021Z</time></trkpt><trkpt lat="46.4566272" lon="9.7932396"><ele>1803.5</ele><time>2026-04-11T12:12:19.021Z</time></trkpt><trkpt lat="46.456661" lon="9.793431"><ele>1803.75</ele><time>2026-04-11T12:12:20.021Z</time></trkpt><trkpt lat="46.4566933" lon="9.7936256"><ele>1804.0</ele><time>2026-04-11T12:12:21.021Z</time></trkpt><trkpt lat="46.4567259" lon="9.7938253"><ele>1803.5</ele><time>2026-04-11T12:12:22.021Z</time></trkpt><trkpt lat="46.4567591" lon="9.7940225"><ele>1803.0</ele><time>2026-04-11T12:12:23.021Z</time></trkpt><trkpt lat="46.4567973" lon="9.794224"><ele>1802.5</ele><time>2026-04-11T12:12:24.021Z</time></trkpt><trkpt lat="46.4568405" lon="9.7944364"><ele>1802.0</ele><time>2026-04-11T12:12:25.021Z</time></trkpt><trkpt lat="46.4568858" lon="9.7946475"><ele>1801.3333333333333</ele><time>2026-04-11T12:12:26.021Z</time></trkpt><trkpt lat="46.4569344" lon="9.7948617"><ele>1800.6666666666665</ele><time>2026-04-11T12:12:27.021Z</time></trkpt><trkpt lat="46.4569912" lon="9.7950761"><ele>1800.0</ele><time>2026-04-11T12:12:28.021Z</time></trkpt><trkpt lat="46.4570534" lon="9.7952926"><ele>1802.3333333333335</ele><time>2026-04-11T12:12:29.02Z</time></trkpt><trkpt lat="46.457121" lon="9.7955069"><ele>1804.6666666666667</ele><time>2026-04-11T12:12:30.021Z</time></trkpt><trkpt lat="46.4571951" lon="9.7957225"><ele>1807.0</ele><time>2026-04-11T12:12:31.021Z</time></trkpt><trkpt lat="46.4572801" lon="9.7959363"><ele>1806.3333333333335</ele><time>2026-04-11T12:12:32.021Z</time></trkpt><trkpt lat="46.457373" lon="9.7961411"><ele>1805.6666666666665</ele><time>2026-04-11T12:12:33.021Z</time></trkpt><trkpt lat="46.4574859" lon="9.7963495"><ele>1805.0</ele><time>2026-04-11T12:12:34.021Z</time></trkpt><trkpt lat="46.4575995" lon="9.7965435"><ele>1805.0</ele><time>2026-04-11T12:12:35.021Z</time></trkpt><trkpt lat="46.4577285" lon="9.7967354"><ele>1805.0</ele><time>2026-04-11T12:12:36.021Z</time></trkpt><trkpt lat="46.4578621" lon="9.7969208"><ele>1805.0</ele><time>2026-04-11T12:12:37.021Z</time></trkpt><trkpt lat="46.4580101" lon="9.7970982"><ele>1804.6666666666665</ele><time>2026-04-11T12:12:38.021Z</time></trkpt><trkpt lat="46.4581727" lon="9.7972628"><ele>1804.3333333333335</ele><time>2026-04-11T12:12:39.021Z</time></trkpt><trkpt lat="46.458333" lon="9.797414"><ele>1804.0</ele><time>2026-04-11T12:12:40.021Z</time></trkpt><trkpt lat="46.4585048" lon="9.7975518"><ele>1803.3333333333335</ele><time>2026-04-11T12:12:41.02Z</time></trkpt><trkpt lat="46.4586861" lon="9.7976932"><ele>1802.6666666666665</ele><time>2026-04-11T12:12:42.021Z</time></trkpt><trkpt lat="46.4588933" lon="9.7978195"><ele>1802.0</ele><time>2026-04-11T12:12:43.021Z</time></trkpt><trkpt lat="46.4590992" lon="9.7979183"><ele>1802.0</ele><time>2026-04-11T12:12:44.021Z</time></trkpt><trkpt lat="46.4592939" lon="9.797983"><ele>1802.0</ele><time>2026-04-11T12:12:45.02Z</time></trkpt><trkpt lat="46.4594793" lon="9.7980102"><ele>1802.0</ele><time>2026-04-11T12:12:46.021Z</time></trkpt><trkpt lat="46.4596252" lon="9.7980291"><ele>1801.3999999999999</ele><time>2026-04-11T12:12:47.021Z</time></trkpt><trkpt lat="46.4597413" lon="9.7980377"><ele>1800.7999999999997</ele><time>2026-04-11T12:12:48.021Z</time></trkpt><trkpt lat="46.4598398" lon="9.7980673"><ele>1800.2</ele><time>2026-04-11T12:12:49.021Z</time></trkpt><trkpt lat="46.4599216" lon="9.7981194"><ele>1799.6</ele><time>2026-04-11T12:12:50.021Z</time></trkpt><trkpt lat="46.4599969" lon="9.7981704"><ele>1799.0</ele><time>2026-04-11T12:12:51.021Z</time></trkpt><trkpt lat="46.4600694" lon="9.7981913"><ele>1799.0</ele><time>2026-04-11T12:12:52.021Z</time></trkpt><trkpt lat="46.4601423" lon="9.7981812"><ele>1799.0</ele><time>2026-04-11T12:12:53.021Z</time></trkpt><trkpt lat="46.4602358" lon="9.7981231"><ele>1799.0</ele><time>2026-04-11T12:12:54.021Z</time></trkpt><trkpt lat="46.4603492" lon="9.7980554"><ele>1799.0</ele><time>2026-04-11T12:12:55.021Z</time></trkpt><trkpt lat="46.4604955" lon="9.7980054"><ele>1799.0</ele><time>2026-04-11T12:12:56.021Z</time></trkpt><trkpt lat="46.4606783" lon="9.7979595"><ele>1798.6666666666665</ele><time>2026-04-11T12:12:57.021Z</time></trkpt><trkpt lat="46.4608665" lon="9.7979183"><ele>1798.3333333333335</ele><time>2026-04-11T12:12:58.02Z</time></trkpt><trkpt lat="46.4610573" lon="9.7978637"><ele>1798.0</ele><time>2026-04-11T12:12:59.02Z</time></trkpt><trkpt lat="46.4612422" lon="9.7978105"><ele>1797.3333333333335</ele><time>2026-04-11T12:13:00.021Z</time></trkpt><trkpt lat="46.4614174" lon="9.7977525"><ele>1796.6666666666665</ele><time>2026-04-11T12:13:01.021Z</time></trkpt><trkpt lat="46.4615838" lon="9.797694"><ele>1796.0</ele><time>2026-04-11T12:13:02.021Z</time></trkpt><trkpt lat="46.4617404" lon="9.7976439"><ele>1797.6666666666665</ele><time>2026-04-11T12:13:03.019Z</time></trkpt><trkpt lat="46.4618934" lon="9.7975986"><ele>1799.3333333333335</ele><time>2026-04-11T12:13:04.02Z</time></trkpt><trkpt lat="46.462043" lon="9.7975491"><ele>1801.0</ele><time>2026-04-11T12:13:05.02Z</time></trkpt><trkpt lat="46.462198" lon="9.7975101"><ele>1801.0</ele><time>2026-04-11T12:13:06.019Z</time></trkpt><trkpt lat="46.4623605" lon="9.7974769"><ele>1801.0</ele><time>2026-04-11T12:13:07.02Z</time></trkpt><trkpt lat="46.462522" lon="9.7974474"><ele>1801.0</ele><time>2026-04-11T12:13:08.02Z</time></trkpt><trkpt lat="46.4626887" lon="9.7974211"><ele>1801.0</ele><time>2026-04-11T12:13:09.02Z</time></trkpt><trkpt lat="46.4628562" lon="9.7974125"><ele>1801.0</ele><time>2026-04-11T12:13:10.02Z</time></trkpt><trkpt lat="46.4630288" lon="9.7974184"><ele>1801.0</ele><time>2026-04-11T12:13:11.019Z</time></trkpt><trkpt lat="46.4631993" lon="9.797433"><ele>1801.0</ele><time>2026-04-11T12:13:12.02Z</time></trkpt><trkpt lat="46.4633777" lon="9.7974598"><ele>1801.0</ele><time>2026-04-11T12:13:13.02Z</time></trkpt><trkpt lat="46.4635627" lon="9.7974959"><ele>1801.0</ele><time>2026-04-11T12:13:14.02Z</time></trkpt><trkpt lat="46.463751" lon="9.7975489"><ele>1797.6666666666667</ele><time>2026-04-11T12:13:15.02Z</time></trkpt><trkpt lat="46.4639408" lon="9.7976264"><ele>1794.3333333333335</ele><time>2026-04-11T12:13:16.02Z</time></trkpt><trkpt lat="46.4641389" lon="9.7977036"><ele>1791.0</ele><time>2026-04-11T12:13:17.02Z</time></trkpt><trkpt lat="46.4643388" lon="9.797795"><ele>1791.0</ele><time>2026-04-11T12:13:18.02Z</time></trkpt><trkpt lat="46.4645348" lon="9.7978866"><ele>1791.0</ele><time>2026-04-11T12:13:19.019Z</time></trkpt><trkpt lat="46.4647273" lon="9.7979797"><ele>1791.0</ele><time>2026-04-11T12:13:20.019Z</time></trkpt><trkpt lat="46.4649205" lon="9.7980711"><ele>1794.0</ele><time>2026-04-11T12:13:21.02Z</time></trkpt><trkpt lat="46.4651153" lon="9.7981739"><ele>1797.0</ele><time>2026-04-11T12:13:22.02Z</time></trkpt><trkpt lat="46.4653069" lon="9.7982752"><ele>1800.0</ele><time>2026-04-11T12:13:23.019Z</time></trkpt><trkpt lat="46.465486" lon="9.7983747"><ele>1798.6666666666665</ele><time>2026-04-11T12:13:24.02Z</time></trkpt><trkpt lat="46.46566" lon="9.798488"><ele>1797.3333333333333</ele><time>2026-04-11T12:13:25.02Z</time></trkpt><trkpt lat="46.465821" lon="9.798616"><ele>1796.0</ele><time>2026-04-11T12:13:26.02Z</time></trkpt><trkpt lat="46.4659644" lon="9.7987577"><ele>1796.0</ele><time>2026-04-11T12:13:27.02Z</time></trkpt><trkpt lat="46.4660964" lon="9.798926"><ele>1796.0</ele><time>2026-04-11T12:13:28.02Z</time></trkpt><trkpt lat="46.4662151" lon="9.7991048"><ele>1796.0</ele><time>2026-04-11T12:13:29.02Z</time></trkpt><trkpt lat="46.4663234" lon="9.7992917"><ele>1797.3333333333333</ele><time>2026-04-11T12:13:30.02Z</time></trkpt><trkpt lat="46.4664174" lon="9.7994831"><ele>1798.6666666666665</ele><time>2026-04-11T12:13:31.02Z</time></trkpt><trkpt lat="46.4664984" lon="9.7996795"><ele>1800.0</ele><time>2026-04-11T12:13:32.019Z</time></trkpt><trkpt lat="46.4665712" lon="9.7998847"><ele>1800.0</ele><time>2026-04-11T12:13:33.02Z</time></trkpt><trkpt lat="46.4666454" lon="9.8000995"><ele>1800.0</ele><time>2026-04-11T12:13:34.02Z</time></trkpt><trkpt lat="46.4667132" lon="9.8003198"><ele>1800.0</ele><time>2026-04-11T12:13:35.02Z</time></trkpt><trkpt lat="46.4667794" lon="9.8005316"><ele>1799.0</ele><time>2026-04-11T12:13:36.02Z</time></trkpt><trkpt lat="46.4668489" lon="9.8007366"><ele>1798.0</ele><time>2026-04-11T12:13:37.02Z</time></trkpt><trkpt lat="46.4669283" lon="9.8009352"><ele>1797.0</ele><time>2026-04-11T12:13:38.02Z</time></trkpt><trkpt lat="46.4670204" lon="9.8011246"><ele>1798.6666666666665</ele><time>2026-04-11T12:13:39.02Z</time></trkpt><trkpt lat="46.4671185" lon="9.8012965"><ele>1800.3333333333333</ele><time>2026-04-11T12:13:40.02Z</time></trkpt><trkpt lat="46.4672399" lon="9.8014536"><ele>1802.0</ele><time>2026-04-11T12:13:41.02Z</time></trkpt><trkpt lat="46.4673635" lon="9.8015811"><ele>1802.0</ele><time>2026-04-11T12:13:42.02Z</time></trkpt><trkpt lat="46.467476" lon="9.8016849"><ele>1802.0</ele><time>2026-04-11T12:13:43.02Z</time></trkpt><trkpt lat="46.4675831" lon="9.8017567"><ele>1802.0</ele><time>2026-04-11T12:13:44.02Z</time></trkpt><trkpt lat="46.4676883" lon="9.8018157"><ele>1802.0</ele><time>2026-04-11T12:13:45.02Z</time></trkpt><trkpt lat="46.467771" lon="9.8018526"><ele>1801.1666666666665</ele><time>2026-04-11T12:13:46.02Z</time></trkpt><trkpt lat="46.4678321" lon="9.801881"><ele>1800.3333333333333</ele><time>2026-04-11T12:13:47.02Z</time></trkpt><trkpt lat="46.4679066" lon="9.8019051"><ele>1799.5</ele><time>2026-04-11T12:13:49.02Z</time></trkpt><trkpt lat="46.4679889" lon="9.801903"><ele>1798.6666666666665</ele><time>2026-04-11T12:13:53.02Z</time></trkpt><trkpt lat="46.468063" lon="9.8019368"><ele>1797.8333333333333</ele><time>2026-04-11T12:13:56.02Z</time></trkpt><trkpt lat="46.4681654" lon="9.8020242"><ele>1797.0</ele><time>2026-04-11T12:13:58.02Z</time></trkpt><trkpt lat="46.4682669" lon="9.8020916"><ele>1797.0</ele><time>2026-04-11T12:14:00.02Z</time></trkpt><trkpt lat="46.4683464" lon="9.802037"><ele>1796.9999999999998</ele><time>2026-04-11T12:14:02.02Z</time></trkpt><trkpt lat="46.4683691" lon="9.801849"><ele>1796.9999999999998</ele><time>2026-04-11T12:14:04.02Z</time></trkpt><trkpt lat="46.4683524" lon="9.8017398"><ele>1797.0</ele><time>2026-04-11T12:14:05.02Z</time></trkpt><trkpt lat="46.4683222" lon="9.8016058"><ele>1797.0</ele><time>2026-04-11T12:14:06.02Z</time></trkpt><trkpt lat="46.4682849" lon="9.8014589"><ele>1799.5</ele><time>2026-04-11T12:14:07.019Z</time></trkpt><trkpt lat="46.4682293" lon="9.8013126"><ele>1802.0</ele><time>2026-04-11T12:14:08.02Z</time></trkpt><trkpt lat="46.4681489" lon="9.8011719"><ele>1804.5</ele><time>2026-04-11T12:14:09.02Z</time></trkpt><trkpt lat="46.4680546" lon="9.8010379"><ele>1807.0</ele><time>2026-04-11T12:14:10.02Z</time></trkpt><trkpt lat="46.467952" lon="9.8009189"><ele>1807.25</ele><time>2026-04-11T12:14:11.02Z</time></trkpt><trkpt lat="46.4678494" lon="9.8007926"><ele>1807.5</ele><time>2026-04-11T12:14:12.02Z</time></trkpt><trkpt lat="46.4677671" lon="9.8006441"><ele>1807.75</ele><time>2026-04-11T12:14:13.02Z</time></trkpt><trkpt lat="46.4676958" lon="9.8004744"><ele>1808.0</ele><time>2026-04-11T12:14:14.02Z</time></trkpt><trkpt lat="46.4676366" lon="9.8002992"><ele>1811.6666666666665</ele><time>2026-04-11T12:14:15.02Z</time></trkpt><trkpt lat="46.4675913" lon="9.8001079"><ele>1815.3333333333335</ele><time>2026-04-11T12:14:16.02Z</time></trkpt><trkpt lat="46.4675521" lon="9.7999157"><ele>1819.0</ele><time>2026-04-11T12:14:17.02Z</time></trkpt><trkpt lat="46.46747" lon="9.7993611"><ele>1866.0</ele><time>2026-04-11T12:14:20.02Z</time></trkpt><trkpt lat="46.4633715" lon="9.7944974"><ele>1866.0</ele><time>2026-04-11T12:14:58.019Z</time></trkpt><trkpt lat="46.4632735" lon="9.7944383"><ele>1866.0</ele><time>2026-04-11T12:14:59.019Z</time></trkpt><trkpt lat="46.4631824" lon="9.7943787"><ele>1866.0</ele><time>2026-04-11T12:15:00.02Z</time></trkpt><trkpt lat="46.463087" lon="9.7943523"><ele>1866.0</ele><time>2026-04-11T12:15:01.02Z</time></trkpt><trkpt lat="46.4629814" lon="9.7943105"><ele>1866.0</ele><time>2026-04-11T12:15:02.02Z</time></trkpt><trkpt lat="46.4628743" lon="9.7942819"><ele>1869.1999999999998</ele><time>2026-04-11T12:15:03.019Z</time></trkpt><trkpt lat="46.4627634" lon="9.7942786"><ele>1872.3999999999999</ele><time>2026-04-11T12:15:04.02Z</time></trkpt><trkpt lat="46.4626541" lon="9.7942716"><ele>1875.6</ele><time>2026-04-11T12:15:05.02Z</time></trkpt><trkpt lat="46.4625551" lon="9.7942644"><ele>1878.8</ele><time>2026-04-11T12:15:06.02Z</time></trkpt><trkpt lat="46.4624647" lon="9.7942409"><ele>1882.0</ele><time>2026-04-11T12:15:07.02Z</time></trkpt><trkpt lat="46.4624036" lon="9.7942025"><ele>1882.0</ele><time>2026-04-11T12:15:08.02Z</time></trkpt><trkpt lat="46.4623639" lon="9.7940589"><ele>1882.0</ele><time>2026-04-11T12:15:10.02Z</time></trkpt><trkpt lat="46.4624184" lon="9.7939748"><ele>1882.0</ele><time>2026-04-11T12:15:12.02Z</time></trkpt><trkpt lat="46.4625796" lon="9.7939629"><ele>1882.0</ele><time>2026-04-11T12:15:14.019Z</time></trkpt><trkpt lat="46.4627242" lon="9.7939629"><ele>1882.0</ele><time>2026-04-11T12:15:15.02Z</time></trkpt><trkpt lat="46.4628786" lon="9.7939809"><ele>1882.0</ele><time>2026-04-11T12:15:16.02Z</time></trkpt><trkpt lat="46.463027" lon="9.7940068"><ele>1882.0</ele><time>2026-04-11T12:15:17.02Z</time></trkpt><trkpt lat="46.4631875" lon="9.7940254"><ele>1885.6666666666667</ele><time>2026-04-11T12:15:18.02Z</time></trkpt><trkpt lat="46.4633559" lon="9.7940621"><ele>1889.3333333333335</ele><time>2026-04-11T12:15:19.02Z</time></trkpt><trkpt lat="46.463524" lon="9.7941131"><ele>1893.0</ele><time>2026-04-11T12:15:20.02Z</time></trkpt><trkpt lat="46.4636838" lon="9.7941746"><ele>1893.6666666666665</ele><time>2026-04-11T12:15:21.019Z</time></trkpt><trkpt lat="46.4638354" lon="9.7942574"><ele>1894.3333333333333</ele><time>2026-04-11T12:15:22.019Z</time></trkpt><trkpt lat="46.4639765" lon="9.7943598"><ele>1895.0</ele><time>2026-04-11T12:15:23.02Z</time></trkpt><trkpt lat="46.4641078" lon="9.7944775"><ele>1895.0</ele><time>2026-04-11T12:15:24.02Z</time></trkpt><trkpt lat="46.4642244" lon="9.7946067"><ele>1895.0</ele><time>2026-04-11T12:15:25.02Z</time></trkpt><trkpt lat="46.4643377" lon="9.7947274"><ele>1895.0</ele><time>2026-04-11T12:15:26.02Z</time></trkpt><trkpt lat="46.4644618" lon="9.7948288"><ele>1895.0</ele><time>2026-04-11T12:15:27.02Z</time></trkpt><trkpt lat="46.4645898" lon="9.7948949"><ele>1900.5</ele><time>2026-04-11T12:15:28.019Z</time></trkpt><trkpt lat="46.4647268" lon="9.7949431"><ele>1906.0</ele><time>2026-04-11T12:15:29.02Z</time></trkpt><trkpt lat="46.4648655" lon="9.7949636"><ele>1911.5</ele><time>2026-04-11T12:15:30.02Z</time></trkpt><trkpt lat="46.4650063" lon="9.7949598"><ele>1917.0</ele><time>2026-04-11T12:15:31.02Z</time></trkpt><trkpt lat="46.465142" lon="9.7949225"><ele>1917.0</ele><time>2026-04-11T12:15:32.02Z</time></trkpt><trkpt lat="46.465275" lon="9.7948604"><ele>1917.0</ele><time>2026-04-11T12:15:33.02Z</time></trkpt><trkpt lat="46.4654065" lon="9.7947747"><ele>1917.0</ele><time>2026-04-11T12:15:34.02Z</time></trkpt><trkpt lat="46.4655442" lon="9.7947007"><ele>1917.0</ele><time>2026-04-11T12:15:35.02Z</time></trkpt><trkpt lat="46.4656885" lon="9.7946591"><ele>1917.25</ele><time>2026-04-11T12:15:36.02Z</time></trkpt><trkpt lat="46.4658431" lon="9.7946431"><ele>1917.5</ele><time>2026-04-11T12:15:37.02Z</time></trkpt><trkpt lat="46.4659763" lon="9.7946394"><ele>1917.75</ele><time>2026-04-11T12:15:38.019Z</time></trkpt><trkpt lat="46.4660953" lon="9.7946483"><ele>1918.0</ele><time>2026-04-11T12:15:39.02Z</time></trkpt><trkpt lat="46.4661953" lon="9.7946594"><ele>1920.4</ele><time>2026-04-11T12:15:40.02Z</time></trkpt><trkpt lat="46.4662878" lon="9.794651"><ele>1922.8000000000002</ele><time>2026-04-11T12:15:41.02Z</time></trkpt><trkpt lat="46.4663669" lon="9.794587"><ele>1925.2</ele><time>2026-04-11T12:15:42.02Z</time></trkpt><trkpt lat="46.4664303" lon="9.7944844"><ele>1927.6</ele><time>2026-04-11T12:15:43.02Z</time></trkpt><trkpt lat="46.4664502" lon="9.7943634"><ele>1930.0</ele><time>2026-04-11T12:15:44.02Z</time></trkpt><trkpt lat="46.4664468" lon="9.7942371"><ele>1929.8</ele><time>2026-04-11T12:15:45.019Z</time></trkpt><trkpt lat="46.4664007" lon="9.7941263"><ele>1929.6</ele><time>2026-04-11T12:15:46.02Z</time></trkpt><trkpt lat="46.4663259" lon="9.7940228"><ele>1929.4</ele><time>2026-04-11T12:15:47.02Z</time></trkpt><trkpt lat="46.4662273" lon="9.793933"><ele>1929.2</ele><time>2026-04-11T12:15:48.02Z</time></trkpt><trkpt lat="46.4661079" lon="9.7938264"><ele>1929.0</ele><time>2026-04-11T12:15:49.019Z</time></trkpt><trkpt lat="46.4659771" lon="9.7937019"><ele>1929.0</ele><time>2026-04-11T12:15:50.02Z</time></trkpt><trkpt lat="46.4658344" lon="9.7935498"><ele>1929.0</ele><time>2026-04-11T12:15:51.02Z</time></trkpt><trkpt lat="46.4656987" lon="9.7933846"><ele>1929.0</ele><time>2026-04-11T12:15:52.02Z</time></trkpt><trkpt lat="46.4655632" lon="9.7932142"><ele>1931.6666666666665</ele><time>2026-04-11T12:15:53.02Z</time></trkpt><trkpt lat="46.465424" lon="9.7930356"><ele>1934.3333333333333</ele><time>2026-04-11T12:15:54.02Z</time></trkpt><trkpt lat="46.4652816" lon="9.7928531"><ele>1937.0</ele><time>2026-04-11T12:15:55.02Z</time></trkpt><trkpt lat="46.4651324" lon="9.7926584"><ele>1942.0</ele><time>2026-04-11T12:15:56.02Z</time></trkpt><trkpt lat="46.4649848" lon="9.7924516"><ele>1947.0</ele><time>2026-04-11T12:15:57.02Z</time></trkpt><trkpt lat="46.4648272" lon="9.7922151"><ele>1952.0</ele><time>2026-04-11T12:15:58.02Z</time></trkpt><trkpt lat="46.4646768" lon="9.7919763"><ele>1953.5</ele><time>2026-04-11T12:15:59.02Z</time></trkpt><trkpt lat="46.4645206" lon="9.7917366"><ele>1955.0</ele><time>2026-04-11T12:16:00.02Z</time></trkpt><trkpt lat="46.4643562" lon="9.7915059"><ele>1955.0</ele><time>2026-04-11T12:16:01.02Z</time></trkpt><trkpt lat="46.4641993" lon="9.791282"><ele>1955.0</ele><time>2026-04-11T12:16:02.02Z</time></trkpt><trkpt lat="46.4640445" lon="9.7910691"><ele>1955.0</ele><time>2026-04-11T12:16:03.02Z</time></trkpt><trkpt lat="46.4638927" lon="9.7908676"><ele>1955.6666666666665</ele><time>2026-04-11T12:16:04.019Z</time></trkpt><trkpt lat="46.4637378" lon="9.7906678"><ele>1956.3333333333335</ele><time>2026-04-11T12:16:05.019Z</time></trkpt><trkpt lat="46.4635905" lon="9.7904631"><ele>1957.0</ele><time>2026-04-11T12:16:06.02Z</time></trkpt><trkpt lat="46.4634434" lon="9.7902614"><ele>1962.6666666666667</ele><time>2026-04-11T12:16:07.02Z</time></trkpt><trkpt lat="46.4633047" lon="9.7900616"><ele>1968.3333333333335</ele><time>2026-04-11T12:16:08.019Z</time></trkpt><trkpt lat="46.4631692" lon="9.7898586"><ele>1974.0</ele><time>2026-04-11T12:16:09.019Z</time></trkpt><trkpt lat="46.4630421" lon="9.7896422"><ele>1974.6666666666665</ele><time>2026-04-11T12:16:10.02Z</time></trkpt><trkpt lat="46.4629222" lon="9.7894284"><ele>1975.3333333333333</ele><time>2026-04-11T12:16:11.02Z</time></trkpt><trkpt lat="46.4628044" lon="9.7892029"><ele>1976.0</ele><time>2026-04-11T12:16:12.02Z</time></trkpt><trkpt lat="46.462695" lon="9.788969"><ele>1976.0</ele><time>2026-04-11T12:16:13.02Z</time></trkpt><trkpt lat="46.4625806" lon="9.7887225"><ele>1976.0</ele><time>2026-04-11T12:16:14.02Z</time></trkpt><trkpt lat="46.4624608" lon="9.7884726"><ele>1976.0</ele><time>2026-04-11T12:16:15.02Z</time></trkpt><trkpt lat="46.4623481" lon="9.7882226"><ele>1973.3333333333333</ele><time>2026-04-11T12:16:16.02Z</time></trkpt><trkpt lat="46.4622392" lon="9.7879914"><ele>1970.6666666666665</ele><time>2026-04-11T12:16:17.019Z</time></trkpt><trkpt lat="46.4621502" lon="9.7877773"><ele>1968.0</ele><time>2026-04-11T12:16:18.02Z</time></trkpt><trkpt lat="46.4620846" lon="9.7875635"><ele>1968.0</ele><time>2026-04-11T12:16:19.02Z</time></trkpt><trkpt lat="46.4620441" lon="9.7873713"><ele>1968.0</ele><time>2026-04-11T12:16:20.02Z</time></trkpt><trkpt lat="46.4620355" lon="9.7871601"><ele>1968.0</ele><time>2026-04-11T12:16:21.02Z</time></trkpt><trkpt lat="46.4620532" lon="9.7869512"><ele>1968.0</ele><time>2026-04-11T12:16:22.02Z</time></trkpt><trkpt lat="46.4621146" lon="9.786725"><ele>1977.3333333333335</ele><time>2026-04-11T12:16:23.02Z</time></trkpt><trkpt lat="46.462194" lon="9.7865061"><ele>1986.6666666666667</ele><time>2026-04-11T12:16:24.02Z</time></trkpt><trkpt lat="46.4623048" lon="9.7863"><ele>1996.0</ele><time>2026-04-11T12:16:25.02Z</time></trkpt><trkpt lat="46.462415" lon="9.7860977"><ele>1995.0</ele><time>2026-04-11T12:16:26.02Z</time></trkpt><trkpt lat="46.4624986" lon="9.7858853"><ele>1994.0</ele><time>2026-04-11T12:16:27.02Z</time></trkpt><trkpt lat="46.4625649" lon="9.7856392"><ele>1993.0</ele><time>2026-04-11T12:16:28.02Z</time></trkpt><trkpt lat="46.4626121" lon="9.7853773"><ele>1992.6666666666667</ele><time>2026-04-11T12:16:29.02Z</time></trkpt><trkpt lat="46.4626424" lon="9.7850975"><ele>1992.3333333333335</ele><time>2026-04-11T12:16:30.02Z</time></trkpt><trkpt lat="46.4626619" lon="9.784813"><ele>1992.0</ele><time>2026-04-11T12:16:31.02Z</time></trkpt><trkpt lat="46.4626815" lon="9.7845135"><ele>1992.0</ele><time>2026-04-11T12:16:32.02Z</time></trkpt><trkpt lat="46.4627046" lon="9.7842026"><ele>1992.0</ele><time>2026-04-11T12:16:33.02Z</time></trkpt><trkpt lat="46.4627253" lon="9.7838918"><ele>1992.0</ele><time>2026-04-11T12:16:34.02Z</time></trkpt><trkpt lat="46.4627474" lon="9.783575"><ele>1993.3333333333335</ele><time>2026-04-11T12:16:35.02Z</time></trkpt><trkpt lat="46.4627599" lon="9.7832583"><ele>1994.6666666666667</ele><time>2026-04-11T12:16:36.02Z</time></trkpt><trkpt lat="46.4627679" lon="9.7829434"><ele>1996.0</ele><time>2026-04-11T12:16:37.019Z</time></trkpt><trkpt lat="46.4627669" lon="9.7826308"><ele>1998.3333333333335</ele><time>2026-04-11T12:16:38.02Z</time></trkpt><trkpt lat="46.4627575" lon="9.7823189"><ele>2000.6666666666665</ele><time>2026-04-11T12:16:39.02Z</time></trkpt><trkpt lat="46.4627258" lon="9.7820083"><ele>2003.0</ele><time>2026-04-11T12:16:40.019Z</time></trkpt><trkpt lat="46.4626921" lon="9.7816981"><ele>2006.0</ele><time>2026-04-11T12:16:41.019Z</time></trkpt><trkpt lat="46.4626691" lon="9.7813912"><ele>2009.0</ele><time>2026-04-11T12:16:42.02Z</time></trkpt><trkpt lat="46.4626672" lon="9.7810743"><ele>2012.0</ele><time>2026-04-11T12:16:43.02Z</time></trkpt><trkpt lat="46.4626747" lon="9.7807606"><ele>2014.6666666666665</ele><time>2026-04-11T12:16:44.019Z</time></trkpt><trkpt lat="46.4626892" lon="9.7804444"><ele>2017.3333333333335</ele><time>2026-04-11T12:16:45.02Z</time></trkpt><trkpt lat="46.4627018" lon="9.780125"><ele>2020.0</ele><time>2026-04-11T12:16:46.02Z</time></trkpt><trkpt lat="46.4627062" lon="9.7798102"><ele>2023.3333333333335</ele><time>2026-04-11T12:16:47.02Z</time></trkpt><trkpt lat="46.4627143" lon="9.7794935"><ele>2026.6666666666665</ele><time>2026-04-11T12:16:48.02Z</time></trkpt><trkpt lat="46.4627344" lon="9.7791921"><ele>2030.0</ele><time>2026-04-11T12:16:49.02Z</time></trkpt><trkpt lat="46.4627848" lon="9.77892"><ele>2033.0</ele><time>2026-04-11T12:16:50.02Z</time></trkpt><trkpt lat="46.4628539" lon="9.7786786"><ele>2036.0</ele><time>2026-04-11T12:16:51.02Z</time></trkpt><trkpt lat="46.4629584" lon="9.7784483"><ele>2039.0</ele><time>2026-04-11T12:16:52.02Z</time></trkpt><trkpt lat="46.4630705" lon="9.7782333"><ele>2043.0</ele><time>2026-04-11T12:16:53.02Z</time></trkpt><trkpt lat="46.4631786" lon="9.778021"><ele>2047.0</ele><time>2026-04-11T12:16:54.02Z</time></trkpt><trkpt lat="46.4632598" lon="9.7777931"><ele>2051.0</ele><time>2026-04-11T12:16:55.02Z</time></trkpt><trkpt lat="46.4633098" lon="9.7775434"><ele>2051.0</ele><time>2026-04-11T12:16:56.02Z</time></trkpt><trkpt lat="46.4633325" lon="9.7772874"><ele>2051.0</ele><time>2026-04-11T12:16:57.02Z</time></trkpt><trkpt lat="46.463346" lon="9.7770265"><ele>2051.0</ele><time>2026-04-11T12:16:58.02Z</time></trkpt><trkpt lat="46.4633659" lon="9.7767814"><ele>2052.0</ele><time>2026-04-11T12:16:59.02Z</time></trkpt><trkpt lat="46.4634057" lon="9.7765556"><ele>2053.0</ele><time>2026-04-11T12:17:00.019Z</time></trkpt><trkpt lat="46.4634798" lon="9.7763308"><ele>2054.0</ele><time>2026-04-11T12:17:01.02Z</time></trkpt><trkpt lat="46.463576" lon="9.7761142"><ele>2053.333333333333</ele><time>2026-04-11T12:17:02.02Z</time></trkpt><trkpt lat="46.4636958" lon="9.7759173"><ele>2052.6666666666665</ele><time>2026-04-11T12:17:03.02Z</time></trkpt><trkpt lat="46.463844" lon="9.775755"><ele>2052.0</ele><time>2026-04-11T12:17:04.02Z</time></trkpt><trkpt lat="46.4640102" lon="9.7755879"><ele>2054.3333333333335</ele><time>2026-04-11T12:17:05.02Z</time></trkpt><trkpt lat="46.4641797" lon="9.7754087"><ele>2056.666666666667</ele><time>2026-04-11T12:17:06.02Z</time></trkpt><trkpt lat="46.4643474" lon="9.7752092"><ele>2059.0</ele><time>2026-04-11T12:17:07.02Z</time></trkpt><trkpt lat="46.4645196" lon="9.7749839"><ele>2065.5</ele><time>2026-04-11T12:17:08.02Z</time></trkpt><trkpt lat="46.4646969" lon="9.7747306"><ele>2072.0</ele><time>2026-04-11T12:17:09.02Z</time></trkpt><trkpt lat="46.4648587" lon="9.7744638"><ele>2068.5</ele><time>2026-04-11T12:17:10.02Z</time></trkpt><trkpt lat="46.4650189" lon="9.7741891"><ele>2065.0</ele><time>2026-04-11T12:17:11.02Z</time></trkpt><trkpt lat="46.4651771" lon="9.7738915"><ele>2065.0</ele><time>2026-04-11T12:17:12.019Z</time></trkpt><trkpt lat="46.465328" lon="9.7735884"><ele>2065.0</ele><time>2026-04-11T12:17:13.02Z</time></trkpt><trkpt lat="46.4654637" lon="9.7732644"><ele>2069.5</ele><time>2026-04-11T12:17:14.02Z</time></trkpt><trkpt lat="46.4655928" lon="9.7729313"><ele>2074.0</ele><time>2026-04-11T12:17:15.02Z</time></trkpt><trkpt lat="46.4657147" lon="9.7725963"><ele>2074.0</ele><time>2026-04-11T12:17:16.02Z</time></trkpt><trkpt lat="46.4658432" lon="9.7722631"><ele>2074.0</ele><time>2026-04-11T12:17:17.02Z</time></trkpt><trkpt lat="46.4659708" lon="9.7719343"><ele>2073.0</ele><time>2026-04-11T12:17:18.02Z</time></trkpt><trkpt lat="46.4660924" lon="9.7716112"><ele>2072.0</ele><time>2026-04-11T12:17:19.02Z</time></trkpt><trkpt lat="46.466214" lon="9.7713003"><ele>2078.0</ele><time>2026-04-11T12:17:20.02Z</time></trkpt><trkpt lat="46.4663312" lon="9.7709986"><ele>2084.0</ele><time>2026-04-11T12:17:21.019Z</time></trkpt><trkpt lat="46.4664499" lon="9.7706941"><ele>2084.0</ele><time>2026-04-11T12:17:22.02Z</time></trkpt><trkpt lat="46.4665834" lon="9.7704043"><ele>2084.0</ele><time>2026-04-11T12:17:23.019Z</time></trkpt><trkpt lat="46.466739" lon="9.7701259"><ele>2082.0</ele><time>2026-04-11T12:17:24.02Z</time></trkpt><trkpt lat="46.4669028" lon="9.769866"><ele>2080.0</ele><time>2026-04-11T12:17:25.02Z</time></trkpt><trkpt lat="46.4670732" lon="9.769608"><ele>2082.5</ele><time>2026-04-11T12:17:26.02Z</time></trkpt><trkpt lat="46.4672386" lon="9.7693498"><ele>2085.0</ele><time>2026-04-11T12:17:27.02Z</time></trkpt><trkpt lat="46.4674164" lon="9.7690931"><ele>2085.0</ele><time>2026-04-11T12:17:28.02Z</time></trkpt><trkpt lat="46.4675775" lon="9.7688374"><ele>2085.0</ele><time>2026-04-11T12:17:29.02Z</time></trkpt><trkpt lat="46.4677308" lon="9.7685839"><ele>2085.6666666666665</ele><time>2026-04-11T12:17:30.019Z</time></trkpt><trkpt lat="46.4678624" lon="9.768325"><ele>2086.333333333333</ele><time>2026-04-11T12:17:31.019Z</time></trkpt><trkpt lat="46.4679709" lon="9.7680619"><ele>2087.0</ele><time>2026-04-11T12:17:32.02Z</time></trkpt><trkpt lat="46.4680629" lon="9.7677757"><ele>2092.0</ele><time>2026-04-11T12:17:33.02Z</time></trkpt><trkpt lat="46.4681481" lon="9.767477"><ele>2097.0</ele><time>2026-04-11T12:17:34.02Z</time></trkpt><trkpt lat="46.4682283" lon="9.76715"><ele>2095.5</ele><time>2026-04-11T12:17:35.019Z</time></trkpt><trkpt lat="46.4683109" lon="9.766804"><ele>2094.0</ele><time>2026-04-11T12:17:36.019Z</time></trkpt><trkpt lat="46.4683878" lon="9.7664573"><ele>2094.0</ele><time>2026-04-11T12:17:37.02Z</time></trkpt><trkpt lat="46.4684744" lon="9.7660962"><ele>2094.0</ele><time>2026-04-11T12:17:38.02Z</time></trkpt><trkpt lat="46.4685729" lon="9.765732"><ele>2093.5</ele><time>2026-04-11T12:17:39.02Z</time></trkpt><trkpt lat="46.4686681" lon="9.7653572"><ele>2093.0</ele><time>2026-04-11T12:17:40.02Z</time></trkpt><trkpt lat="46.4687599" lon="9.7649726"><ele>2101.0</ele><time>2026-04-11T12:17:41.02Z</time></trkpt><trkpt lat="46.4688448" lon="9.7645685"><ele>2109.0</ele><time>2026-04-11T12:17:42.02Z</time></trkpt><trkpt lat="46.4689207" lon="9.7641547"><ele>2109.0</ele><time>2026-04-11T12:17:43.02Z</time></trkpt><trkpt lat="46.4689883" lon="9.7637348"><ele>2109.0</ele><time>2026-04-11T12:17:44.02Z</time></trkpt><trkpt lat="46.469048" lon="9.7633271"><ele>2109.0</ele><time>2026-04-11T12:17:45.019Z</time></trkpt><trkpt lat="46.4691098" lon="9.7629463"><ele>2109.0</ele><time>2026-04-11T12:17:46.02Z</time></trkpt><trkpt lat="46.4691571" lon="9.76259"><ele>2110.0</ele><time>2026-04-11T12:17:47.02Z</time></trkpt><trkpt lat="46.4691894" lon="9.7622295"><ele>2111.0</ele><time>2026-04-11T12:17:48.02Z</time></trkpt><trkpt lat="46.4692042" lon="9.7618623"><ele>2112.5</ele><time>2026-04-11T12:17:49.019Z</time></trkpt><trkpt lat="46.469217" lon="9.7614943"><ele>2114.0</ele><time>2026-04-11T12:17:50.02Z</time></trkpt><trkpt lat="46.4692255" lon="9.7611531"><ele>2115.6666666666665</ele><time>2026-04-11T12:17:51.019Z</time></trkpt><trkpt lat="46.4692455" lon="9.7608619"><ele>2117.3333333333335</ele><time>2026-04-11T12:17:52.02Z</time></trkpt><trkpt lat="46.469277" lon="9.7605998"><ele>2119.0</ele><time>2026-04-11T12:17:53.02Z</time></trkpt><trkpt lat="46.469337" lon="9.760342"><ele>2119.666666666667</ele><time>2026-04-11T12:17:54.02Z</time></trkpt><trkpt lat="46.4694275" lon="9.7600834"><ele>2120.3333333333335</ele><time>2026-04-11T12:17:55.02Z</time></trkpt><trkpt lat="46.469535" lon="9.7598206"><ele>2121.0</ele><time>2026-04-11T12:17:56.02Z</time></trkpt><trkpt lat="46.4696421" lon="9.7595576"><ele>2125.0</ele><time>2026-04-11T12:17:57.02Z</time></trkpt><trkpt lat="46.4697501" lon="9.7593017"><ele>2129.0</ele><time>2026-04-11T12:17:58.02Z</time></trkpt><trkpt lat="46.4698505" lon="9.7590495"><ele>2133.0</ele><time>2026-04-11T12:17:59.02Z</time></trkpt><trkpt lat="46.4699496" lon="9.7588056"><ele>2133.0</ele><time>2026-04-11T12:18:00.02Z</time></trkpt><trkpt lat="46.4700393" lon="9.7585794"><ele>2133.0</ele><time>2026-04-11T12:18:01.02Z</time></trkpt><trkpt lat="46.4701235" lon="9.7583767"><ele>2133.0</ele><time>2026-04-11T12:18:02.02Z</time></trkpt><trkpt lat="46.4701907" lon="9.7581962"><ele>2133.0</ele><time>2026-04-11T12:18:03.02Z</time></trkpt><trkpt lat="46.4702195" lon="9.7580082"><ele>2133.0</ele><time>2026-04-11T12:18:04.02Z</time></trkpt><trkpt lat="46.4702045" lon="9.7578225"><ele>2133.0</ele><time>2026-04-11T12:18:05.02Z</time></trkpt><trkpt lat="46.4701659" lon="9.7576249"><ele>2133.0</ele><time>2026-04-11T12:18:06.02Z</time></trkpt><trkpt lat="46.4701142" lon="9.7574318"><ele>2134.5</ele><time>2026-04-11T12:18:07.02Z</time></trkpt><trkpt lat="46.4700875" lon="9.757239"><ele>2136.0</ele><time>2026-04-11T12:18:08.02Z</time></trkpt><trkpt lat="46.4700875" lon="9.757037"><ele>2137.5</ele><time>2026-04-11T12:18:09.02Z</time></trkpt><trkpt lat="46.4701212" lon="9.7568279"><ele>2139.0</ele><time>2026-04-11T12:18:10.02Z</time></trkpt><trkpt lat="46.4701732" lon="9.7565964"><ele>2142.3333333333335</ele><time>2026-04-11T12:18:11.02Z</time></trkpt><trkpt lat="46.4702304" lon="9.7563562"><ele>2145.666666666667</ele><time>2026-04-11T12:18:12.02Z</time></trkpt><trkpt lat="46.4702937" lon="9.7561385"><ele>2149.0</ele><time>2026-04-11T12:18:13.02Z</time></trkpt><trkpt lat="46.4703711" lon="9.7559542"><ele>2150.75</ele><time>2026-04-11T12:18:14.02Z</time></trkpt><trkpt lat="46.4704389" lon="9.755795"><ele>2152.5</ele><time>2026-04-11T12:18:15.02Z</time></trkpt><trkpt lat="46.4705036" lon="9.7556395"><ele>2154.25</ele><time>2026-04-11T12:18:16.02Z</time></trkpt><trkpt lat="46.4705418" lon="9.7554809"><ele>2156.0</ele><time>2026-04-11T12:18:17.019Z</time></trkpt><trkpt lat="46.4705495" lon="9.7552994"><ele>2158.0</ele><time>2026-04-11T12:18:18.02Z</time></trkpt><trkpt lat="46.4705181" lon="9.7551129"><ele>2160.0</ele><time>2026-04-11T12:18:19.02Z</time></trkpt><trkpt lat="46.4704965" lon="9.7549375"><ele>2162.0</ele><time>2026-04-11T12:18:20.02Z</time></trkpt><trkpt lat="46.4704962" lon="9.7547813"><ele>2164.0</ele><time>2026-04-11T12:18:21.02Z</time></trkpt><trkpt lat="46.4705341" lon="9.7546255"><ele>2164.0</ele><time>2026-04-11T12:18:22.02Z</time></trkpt><trkpt lat="46.4706014" lon="9.7544612"><ele>2164.0</ele><time>2026-04-11T12:18:23.02Z</time></trkpt><trkpt lat="46.4707019" lon="9.7542842"><ele>2164.0</ele><time>2026-04-11T12:18:24.02Z</time></trkpt><trkpt lat="46.4707958" lon="9.7540917"><ele>2164.0</ele><time>2026-04-11T12:18:25.02Z</time></trkpt><trkpt lat="46.4708728" lon="9.7538581"><ele>2164.0</ele><time>2026-04-11T12:18:26.02Z</time></trkpt><trkpt lat="46.4709277" lon="9.7535874"><ele>2164.0</ele><time>2026-04-11T12:18:27.02Z</time></trkpt><trkpt lat="46.4709574" lon="9.753306"><ele>2164.0</ele><time>2026-04-11T12:18:28.02Z</time></trkpt><trkpt lat="46.4709671" lon="9.7530053"><ele>2164.0</ele><time>2026-04-11T12:18:29.02Z</time></trkpt><trkpt lat="46.4709629" lon="9.7526844"><ele>2164.0</ele><time>2026-04-11T12:18:30.02Z</time></trkpt><trkpt lat="46.4709545" lon="9.7523624"><ele>2165.0</ele><time>2026-04-11T12:18:31.02Z</time></trkpt><trkpt lat="46.4709276" lon="9.7520632"><ele>2166.0</ele><time>2026-04-11T12:18:32.02Z</time></trkpt><trkpt lat="46.4708989" lon="9.7517989"><ele>2167.0</ele><time>2026-04-11T12:18:33.02Z</time></trkpt><trkpt lat="46.4708769" lon="9.7515714"><ele>2168.25</ele><time>2026-04-11T12:18:34.02Z</time></trkpt><trkpt lat="46.4708802" lon="9.7513758"><ele>2169.5</ele><time>2026-04-11T12:18:35.02Z</time></trkpt><trkpt lat="46.4709298" lon="9.7511959"><ele>2170.75</ele><time>2026-04-11T12:18:36.02Z</time></trkpt><trkpt lat="46.471014" lon="9.751005"><ele>2172.0</ele><time>2026-04-11T12:18:37.02Z</time></trkpt><trkpt lat="46.4711227" lon="9.7508113"><ele>2173.6666666666665</ele><time>2026-04-11T12:18:38.02Z</time></trkpt><trkpt lat="46.4712629" lon="9.7506484"><ele>2175.333333333333</ele><time>2026-04-11T12:18:39.019Z</time></trkpt><trkpt lat="46.4714268" lon="9.750507"><ele>2177.0</ele><time>2026-04-11T12:18:40.019Z</time></trkpt><trkpt lat="46.4716113" lon="9.7503638"><ele>2178.6666666666665</ele><time>2026-04-11T12:18:41.02Z</time></trkpt><trkpt lat="46.4718013" lon="9.750236"><ele>2180.3333333333335</ele><time>2026-04-11T12:18:42.019Z</time></trkpt><trkpt lat="46.4719785" lon="9.7501096"><ele>2182.0</ele><time>2026-04-11T12:18:43.02Z</time></trkpt><trkpt lat="46.4721286" lon="9.7499967"><ele>2184.75</ele><time>2026-04-11T12:18:44.02Z</time></trkpt><trkpt lat="46.4722569" lon="9.7498888"><ele>2187.5</ele><time>2026-04-11T12:18:45.019Z</time></trkpt><trkpt lat="46.4723639" lon="9.7497596"><ele>2190.25</ele><time>2026-04-11T12:18:46.02Z</time></trkpt><trkpt lat="46.472459" lon="9.7496072"><ele>2193.0</ele><time>2026-04-11T12:18:47.02Z</time></trkpt><trkpt lat="46.4725117" lon="9.7494289"><ele>2192.0</ele><time>2026-04-11T12:18:48.02Z</time></trkpt><trkpt lat="46.472523" lon="9.7492248"><ele>2191.0</ele><time>2026-04-11T12:18:49.02Z</time></trkpt><trkpt lat="46.4725177" lon="9.7489737"><ele>2190.0</ele><time>2026-04-11T12:18:50.02Z</time></trkpt><trkpt lat="46.4725119" lon="9.7486917"><ele>2190.0</ele><time>2026-04-11T12:18:51.02Z</time></trkpt><trkpt lat="46.4725102" lon="9.7483887"><ele>2190.0</ele><time>2026-04-11T12:18:52.02Z</time></trkpt><trkpt lat="46.4725013" lon="9.7480591"><ele>2190.0</ele><time>2026-04-11T12:18:53.02Z</time></trkpt><trkpt lat="46.4725062" lon="9.7477296"><ele>2190.5</ele><time>2026-04-11T12:18:54.02Z</time></trkpt><trkpt lat="46.4725066" lon="9.7473986"><ele>2191.0</ele><time>2026-04-11T12:18:55.02Z</time></trkpt><trkpt lat="46.4725036" lon="9.7470523"><ele>2191.5</ele><time>2026-04-11T12:18:56.02Z</time></trkpt><trkpt lat="46.4725018" lon="9.7466869"><ele>2192.0</ele><time>2026-04-11T12:18:57.02Z</time></trkpt><trkpt lat="46.4724985" lon="9.7463284"><ele>2192.5</ele><time>2026-04-11T12:18:58.02Z</time></trkpt><trkpt lat="46.4724935" lon="9.745966"><ele>2193.0</ele><time>2026-04-11T12:18:59.02Z</time></trkpt><trkpt lat="46.4724876" lon="9.7455951"><ele>2193.0</ele><time>2026-04-11T12:19:00.02Z</time></trkpt><trkpt lat="46.4724848" lon="9.7452218"><ele>2193.0</ele><time>2026-04-11T12:19:01.02Z</time></trkpt><trkpt lat="46.4724864" lon="9.7448422"><ele>2195.5</ele><time>2026-04-11T12:19:02.02Z</time></trkpt><trkpt lat="46.4724879" lon="9.7444787"><ele>2198.0</ele><time>2026-04-11T12:19:03.02Z</time></trkpt><trkpt lat="46.4724874" lon="9.7441235"><ele>2201.0</ele><time>2026-04-11T12:19:04.02Z</time></trkpt><trkpt lat="46.4724831" lon="9.74377"><ele>2204.0</ele><time>2026-04-11T12:19:05.02Z</time></trkpt><trkpt lat="46.4724863" lon="9.7434291"><ele>2205.0</ele><time>2026-04-11T12:19:06.02Z</time></trkpt><trkpt lat="46.4724884" lon="9.7430877"><ele>2206.0</ele><time>2026-04-11T12:19:07.02Z</time></trkpt><trkpt lat="46.4724868" lon="9.7427393"><ele>2208.0</ele><time>2026-04-11T12:19:08.02Z</time></trkpt><trkpt lat="46.4724864" lon="9.7424096"><ele>2210.0</ele><time>2026-04-11T12:19:09.02Z</time></trkpt><trkpt lat="46.4724764" lon="9.7420713"><ele>2211.0</ele><time>2026-04-11T12:19:10.02Z</time></trkpt><trkpt lat="46.4724753" lon="9.741744"><ele>2212.0</ele><time>2026-04-11T12:19:11.02Z</time></trkpt><trkpt lat="46.4724753" lon="9.7414095"><ele>2212.0</ele><time>2026-04-11T12:19:12.02Z</time></trkpt><trkpt lat="46.4724791" lon="9.7410828"><ele>2212.0</ele><time>2026-04-11T12:19:13.02Z</time></trkpt><trkpt lat="46.4724802" lon="9.740753"><ele>2213.0</ele><time>2026-04-11T12:19:14.02Z</time></trkpt><trkpt lat="46.4724814" lon="9.7404172"><ele>2214.0</ele><time>2026-04-11T12:19:15.02Z</time></trkpt><trkpt lat="46.4724788" lon="9.7400704"><ele>2215.0</ele><time>2026-04-11T12:19:16.02Z</time></trkpt><trkpt lat="46.4724766" lon="9.7397145"><ele>2216.0</ele><time>2026-04-11T12:19:17.02Z</time></trkpt><trkpt lat="46.4724776" lon="9.7393567"><ele>2221.0</ele><time>2026-04-11T12:19:18.02Z</time></trkpt><trkpt lat="46.4724799" lon="9.7390096"><ele>2226.0</ele><time>2026-04-11T12:19:19.02Z</time></trkpt><trkpt lat="46.4724813" lon="9.738676"><ele>2226.6666666666665</ele><time>2026-04-11T12:19:20.019Z</time></trkpt><trkpt lat="46.4724867" lon="9.7383708"><ele>2227.333333333333</ele><time>2026-04-11T12:19:21.02Z</time></trkpt><trkpt lat="46.4724828" lon="9.7380832"><ele>2228.0</ele><time>2026-04-11T12:19:22.02Z</time></trkpt><trkpt lat="46.472463" lon="9.7377986"><ele>2230.0</ele><time>2026-04-11T12:19:23.02Z</time></trkpt><trkpt lat="46.4724201" lon="9.737529"><ele>2232.0</ele><time>2026-04-11T12:19:24.02Z</time></trkpt><trkpt lat="46.4723451" lon="9.7372712"><ele>2234.0</ele><time>2026-04-11T12:19:25.02Z</time></trkpt><trkpt lat="46.4722657" lon="9.7370139"><ele>2233.6666666666665</ele><time>2026-04-11T12:19:26.02Z</time></trkpt><trkpt lat="46.4721833" lon="9.7367487"><ele>2233.3333333333335</ele><time>2026-04-11T12:19:27.02Z</time></trkpt><trkpt lat="46.4721119" lon="9.7365112"><ele>2233.0</ele><time>2026-04-11T12:19:28.02Z</time></trkpt><trkpt lat="46.4720641" lon="9.7362958"><ele>2233.0</ele><time>2026-04-11T12:19:29.02Z</time></trkpt><trkpt lat="46.4720247" lon="9.7360846"><ele>2233.0</ele><time>2026-04-11T12:19:30.02Z</time></trkpt><trkpt lat="46.4720072" lon="9.7358802"><ele>2233.0</ele><time>2026-04-11T12:19:31.02Z</time></trkpt><trkpt lat="46.4720277" lon="9.7356663"><ele>2233.0</ele><time>2026-04-11T12:19:32.02Z</time></trkpt><trkpt lat="46.4720832" lon="9.7354545"><ele>2236.75</ele><time>2026-04-11T12:19:33.02Z</time></trkpt><trkpt lat="46.4721532" lon="9.7352474"><ele>2240.5</ele><time>2026-04-11T12:19:34.02Z</time></trkpt><trkpt lat="46.4722146" lon="9.7350509"><ele>2244.25</ele><time>2026-04-11T12:19:35.019Z</time></trkpt><trkpt lat="46.4722524" lon="9.7348694"><ele>2248.0</ele><time>2026-04-11T12:19:36.02Z</time></trkpt><trkpt lat="46.4722637" lon="9.7346734"><ele>2248.25</ele><time>2026-04-11T12:19:37.02Z</time></trkpt><trkpt lat="46.4722419" lon="9.734476"><ele>2248.5</ele><time>2026-04-11T12:19:38.02Z</time></trkpt><trkpt lat="46.472195" lon="9.7342792"><ele>2248.75</ele><time>2026-04-11T12:19:39.02Z</time></trkpt><trkpt lat="46.4721125" lon="9.7340916"><ele>2249.0</ele><time>2026-04-11T12:19:40.02Z</time></trkpt><trkpt lat="46.472023" lon="9.7338885"><ele>2249.0</ele><time>2026-04-11T12:19:41.02Z</time></trkpt><trkpt lat="46.4719331" lon="9.7336674"><ele>2249.0</ele><time>2026-04-11T12:19:42.02Z</time></trkpt><trkpt lat="46.4718429" lon="9.7334438"><ele>2249.0</ele><time>2026-04-11T12:19:43.02Z</time></trkpt><trkpt lat="46.4717664" lon="9.7332471"><ele>2252.0</ele><time>2026-04-11T12:19:44.02Z</time></trkpt><trkpt lat="46.4717017" lon="9.7330295"><ele>2255.0</ele><time>2026-04-11T12:19:45.021Z</time></trkpt><trkpt lat="46.4716577" lon="9.7327889"><ele>2258.0</ele><time>2026-04-11T12:19:46.021Z</time></trkpt><trkpt lat="46.4716232" lon="9.7325299"><ele>2259.0</ele><time>2026-04-11T12:19:47.021Z</time></trkpt><trkpt lat="46.471601" lon="9.732253"><ele>2260.0</ele><time>2026-04-11T12:19:48.021Z</time></trkpt><trkpt lat="46.4715901" lon="9.7319974"><ele>2261.0</ele><time>2026-04-11T12:19:49.021Z</time></trkpt><trkpt lat="46.4715858" lon="9.7317497"><ele>2261.333333333333</ele><time>2026-04-11T12:19:50.021Z</time></trkpt><trkpt lat="46.4716179" lon="9.7315244"><ele>2261.6666666666665</ele><time>2026-04-11T12:19:51.021Z</time></trkpt><trkpt lat="46.4716886" lon="9.7313014"><ele>2262.0</ele><time>2026-04-11T12:19:52.021Z</time></trkpt><trkpt lat="46.4717859" lon="9.7310767"><ele>2263.0</ele><time>2026-04-11T12:19:53.021Z</time></trkpt><trkpt lat="46.4718925" lon="9.7308405"><ele>2264.0</ele><time>2026-04-11T12:19:54.02Z</time></trkpt><trkpt lat="46.472001" lon="9.7306071"><ele>2265.0</ele><time>2026-04-11T12:19:55.021Z</time></trkpt><trkpt lat="46.4720918" lon="9.7303946"><ele>2271.6666666666665</ele><time>2026-04-11T12:19:56.02Z</time></trkpt><trkpt lat="46.4721566" lon="9.7301938"><ele>2278.333333333333</ele><time>2026-04-11T12:19:57.021Z</time></trkpt><trkpt lat="46.4721971" lon="9.7299769"><ele>2285.0</ele><time>2026-04-11T12:19:58.021Z</time></trkpt><trkpt lat="46.4722189" lon="9.7297253"><ele>2285.0</ele><time>2026-04-11T12:19:59.021Z</time></trkpt><trkpt lat="46.4722189" lon="9.729466"><ele>2285.0</ele><time>2026-04-11T12:20:00.021Z</time></trkpt><trkpt lat="46.4722206" lon="9.7291912"><ele>2285.0</ele><time>2026-04-11T12:20:01.021Z</time></trkpt><trkpt lat="46.4722242" lon="9.7289209"><ele>2286.0</ele><time>2026-04-11T12:20:02.021Z</time></trkpt><trkpt lat="46.4722206" lon="9.728696"><ele>2287.0</ele><time>2026-04-11T12:20:03.021Z</time></trkpt><trkpt lat="46.4722222" lon="9.7285023"><ele>2288.0</ele><time>2026-04-11T12:20:04.02Z</time></trkpt><trkpt lat="46.4722376" lon="9.7283285"><ele>2289.0</ele><time>2026-04-11T12:20:05.021Z</time></trkpt><trkpt lat="46.4722383" lon="9.7281873"><ele>2289.6666666666665</ele><time>2026-04-11T12:20:06.021Z</time></trkpt><trkpt lat="46.4722312" lon="9.7280678"><ele>2290.3333333333335</ele><time>2026-04-11T12:20:07.02Z</time></trkpt><trkpt lat="46.4722303" lon="9.7279669"><ele>2291.0</ele><time>2026-04-11T12:20:08.021Z</time></trkpt><trkpt lat="46.4722235" lon="9.7278472"><ele>2291.666666666667</ele><time>2026-04-11T12:20:10.021Z</time></trkpt><trkpt lat="46.4721593" lon="9.7277447"><ele>2292.3333333333335</ele><time>2026-04-11T12:20:23.021Z</time></trkpt><trkpt lat="46.4720699" lon="9.7277383"><ele>2293.0</ele><time>2026-04-11T12:23:46.02Z</time></trkpt><trkpt lat="46.4721381" lon="9.7277771"><ele>2293.0</ele><time>2026-04-11T12:23:53.021Z</time></trkpt><trkpt lat="46.4721772" lon="9.7278543"><ele>2293.0</ele><time>2026-04-11T12:23:59.021Z</time></trkpt><trkpt lat="46.4721605" lon="9.7277636"><ele>2293.0</ele><time>2026-04-11T12:24:37.021Z</time></trkpt><trkpt lat="46.4721932" lon="9.727897"><ele>2293.0</ele><time>2026-04-11T12:26:55.02Z</time></trkpt><trkpt lat="46.4721968" lon="9.7279886"><ele>2293.0</ele><time>2026-04-11T12:26:56.02Z</time></trkpt><trkpt lat="46.4722047" lon="9.7281714"><ele>2293.0</ele><time>2026-04-11T12:26:58.02Z</time></trkpt><trkpt lat="46.4721991" lon="9.7282636"><ele>2293.0</ele><time>2026-04-11T12:26:59.02Z</time></trkpt><trkpt lat="46.4721986" lon="9.7283766"><ele>2293.0</ele><time>2026-04-11T12:27:00.02Z</time></trkpt><trkpt lat="46.4721999" lon="9.7285133"><ele>2293.0</ele><time>2026-04-11T12:27:01.02Z</time></trkpt><trkpt lat="46.472203" lon="9.7286569"><ele>2293.0</ele><time>2026-04-11T12:27:02.02Z</time></trkpt><trkpt lat="46.4722024" lon="9.7288258"><ele>2293.0</ele><time>2026-04-11T12:27:03.02Z</time></trkpt><trkpt lat="46.4721981" lon="9.7290063"><ele>2292.0</ele><time>2026-04-11T12:27:04.02Z</time></trkpt><trkpt lat="46.4722001" lon="9.729182"><ele>2291.0</ele><time>2026-04-11T12:27:05.019Z</time></trkpt><trkpt lat="46.4722022" lon="9.7293577"><ele>2290.0</ele><time>2026-04-11T12:27:06.019Z</time></trkpt><trkpt lat="46.4722011" lon="9.729531"><ele>2289.0</ele><time>2026-04-11T12:27:07.02Z</time></trkpt><trkpt lat="46.4722014" lon="9.7297046"><ele>2288.0</ele><time>2026-04-11T12:27:08.02Z</time></trkpt><trkpt lat="46.4721906" lon="9.7298742"><ele>2287.0</ele><time>2026-04-11T12:27:09.02Z</time></trkpt><trkpt lat="46.4721629" lon="9.7300398"><ele>2286.0</ele><time>2026-04-11T12:27:10.02Z</time></trkpt><trkpt lat="46.4721121" lon="9.7302029"><ele>2285.0</ele><time>2026-04-11T12:27:11.019Z</time></trkpt><trkpt lat="46.4720499" lon="9.7303502"><ele>2281.0</ele><time>2026-04-11T12:27:12.019Z</time></trkpt><trkpt lat="46.47199" lon="9.7304861"><ele>2277.0</ele><time>2026-04-11T12:27:13.019Z</time></trkpt><trkpt lat="46.4719314" lon="9.7306217"><ele>2273.0</ele><time>2026-04-11T12:27:14.02Z</time></trkpt><trkpt lat="46.4718764" lon="9.7307623"><ele>2269.0</ele><time>2026-04-11T12:27:15.02Z</time></trkpt><trkpt lat="46.4718211" lon="9.7308964"><ele>2265.0</ele><time>2026-04-11T12:27:16.02Z</time></trkpt><trkpt lat="46.4717638" lon="9.7310242"><ele>2264.5</ele><time>2026-04-11T12:27:17.02Z</time></trkpt><trkpt lat="46.4717099" lon="9.7311478"><ele>2264.0</ele><time>2026-04-11T12:27:18.02Z</time></trkpt><trkpt lat="46.4716633" lon="9.7312601"><ele>2263.5</ele><time>2026-04-11T12:27:19.02Z</time></trkpt><trkpt lat="46.4716231" lon="9.7313584"><ele>2263.0</ele><time>2026-04-11T12:27:20.02Z</time></trkpt><trkpt lat="46.4715962" lon="9.7314413"><ele>2262.5</ele><time>2026-04-11T12:27:21.019Z</time></trkpt><trkpt lat="46.4715702" lon="9.7315535"><ele>2262.0</ele><time>2026-04-11T12:27:23.02Z</time></trkpt><trkpt lat="46.4715525" lon="9.7316635"><ele>2262.0</ele><time>2026-04-11T12:27:27.02Z</time></trkpt><trkpt lat="46.4715494" lon="9.7317953"><ele>2262.0</ele><time>2026-04-11T12:27:30.019Z</time></trkpt><trkpt lat="46.4715617" lon="9.7319795"><ele>2262.0</ele><time>2026-04-11T12:27:32.02Z</time></trkpt><trkpt lat="46.4715683" lon="9.7320927"><ele>2262.0</ele><time>2026-04-11T12:27:33.02Z</time></trkpt><trkpt lat="46.4715779" lon="9.732214"><ele>2262.0</ele><time>2026-04-11T12:27:34.02Z</time></trkpt><trkpt lat="46.4715869" lon="9.7323453"><ele>2261.7999999999997</ele><time>2026-04-11T12:27:35.02Z</time></trkpt><trkpt lat="46.471595" lon="9.7324918"><ele>2261.6</ele><time>2026-04-11T12:27:36.02Z</time></trkpt><trkpt lat="46.4716045" lon="9.7326379"><ele>2261.3999999999996</ele><time>2026-04-11T12:27:37.02Z</time></trkpt><trkpt lat="46.4716183" lon="9.7327978"><ele>2261.2</ele><time>2026-04-11T12:27:38.019Z</time></trkpt><trkpt lat="46.4716447" lon="9.7329635"><ele>2261.0</ele><time>2026-04-11T12:27:39.02Z</time></trkpt><trkpt lat="46.4716852" lon="9.733124"><ele>2260.25</ele><time>2026-04-11T12:27:40.02Z</time></trkpt><trkpt lat="46.4717471" lon="9.7332756"><ele>2259.5</ele><time>2026-04-11T12:27:41.02Z</time></trkpt><trkpt lat="46.4718179" lon="9.7334398"><ele>2258.75</ele><time>2026-04-11T12:27:42.02Z</time></trkpt><trkpt lat="46.471892" lon="9.733607"><ele>2258.0</ele><time>2026-04-11T12:27:43.02Z</time></trkpt><trkpt lat="46.4719671" lon="9.733777"><ele>2258.0</ele><time>2026-04-11T12:27:44.019Z</time></trkpt><trkpt lat="46.4720413" lon="9.7339469"><ele>2258.0</ele><time>2026-04-11T12:27:45.019Z</time></trkpt><trkpt lat="46.472108" lon="9.734116"><ele>2258.0</ele><time>2026-04-11T12:27:46.02Z</time></trkpt><trkpt lat="46.4721688" lon="9.7342756"><ele>2258.0</ele><time>2026-04-11T12:27:47.02Z</time></trkpt><trkpt lat="46.4722071" lon="9.7344331"><ele>2256.5</ele><time>2026-04-11T12:27:48.02Z</time></trkpt><trkpt lat="46.4722219" lon="9.7346011"><ele>2255.0</ele><time>2026-04-11T12:27:49.02Z</time></trkpt><trkpt lat="46.4722084" lon="9.7347688"><ele>2253.5</ele><time>2026-04-11T12:27:50.02Z</time></trkpt><trkpt lat="46.4721777" lon="9.7349471"><ele>2252.0</ele><time>2026-04-11T12:27:51.019Z</time></trkpt><trkpt lat="46.4721315" lon="9.7351583"><ele>2248.5</ele><time>2026-04-11T12:27:52.02Z</time></trkpt><trkpt lat="46.4720739" lon="9.7353657"><ele>2245.0</ele><time>2026-04-11T12:27:53.02Z</time></trkpt><trkpt lat="46.4720197" lon="9.7355477"><ele>2241.5</ele><time>2026-04-11T12:27:54.02Z</time></trkpt><trkpt lat="46.4719821" lon="9.7357262"><ele>2238.0</ele><time>2026-04-11T12:27:55.019Z</time></trkpt><trkpt lat="46.4719646" lon="9.7359106"><ele>2236.3333333333335</ele><time>2026-04-11T12:27:56.02Z</time></trkpt><trkpt lat="46.471986" lon="9.7361083"><ele>2234.666666666667</ele><time>2026-04-11T12:27:57.02Z</time></trkpt><trkpt lat="46.4720436" lon="9.7363027"><ele>2233.0</ele><time>2026-04-11T12:27:58.02Z</time></trkpt><trkpt lat="46.4721143" lon="9.7365335"><ele>2233.3333333333335</ele><time>2026-04-11T12:27:59.02Z</time></trkpt><trkpt lat="46.4721928" lon="9.7367753"><ele>2233.6666666666665</ele><time>2026-04-11T12:28:00.02Z</time></trkpt><trkpt lat="46.4722629" lon="9.7370205"><ele>2234.0</ele><time>2026-04-11T12:28:01.02Z</time></trkpt><trkpt lat="46.4723337" lon="9.737277"><ele>2234.0</ele><time>2026-04-11T12:28:02.019Z</time></trkpt><trkpt lat="46.4723909" lon="9.7375328"><ele>2234.0</ele><time>2026-04-11T12:28:03.02Z</time></trkpt><trkpt lat="46.4724288" lon="9.7377987"><ele>2234.0</ele><time>2026-04-11T12:28:04.02Z</time></trkpt><trkpt lat="46.4724442" lon="9.7380705"><ele>2232.0</ele><time>2026-04-11T12:28:05.02Z</time></trkpt><trkpt lat="46.472445" lon="9.7383497"><ele>2230.0</ele><time>2026-04-11T12:28:06.02Z</time></trkpt><trkpt lat="46.4724398" lon="9.7386325"><ele>2228.0</ele><time>2026-04-11T12:28:07.02Z</time></trkpt><trkpt lat="46.4724384" lon="9.7389175"><ele>2227.333333333333</ele><time>2026-04-11T12:28:08.02Z</time></trkpt><trkpt lat="46.47244" lon="9.7391889"><ele>2226.6666666666665</ele><time>2026-04-11T12:28:09.02Z</time></trkpt><trkpt lat="46.4724364" lon="9.739463"><ele>2226.0</ele><time>2026-04-11T12:28:10.02Z</time></trkpt><trkpt lat="46.4724358" lon="9.7397305"><ele>2222.6666666666665</ele><time>2026-04-11T12:28:11.019Z</time></trkpt><trkpt lat="46.4724374" lon="9.7400019"><ele>2219.333333333333</ele><time>2026-04-11T12:28:12.019Z</time></trkpt><trkpt lat="46.4724413" lon="9.7402592"><ele>2216.0</ele><time>2026-04-11T12:28:13.02Z</time></trkpt><trkpt lat="46.4724468" lon="9.740516"><ele>2215.333333333333</ele><time>2026-04-11T12:28:14.02Z</time></trkpt><trkpt lat="46.472452" lon="9.7407818"><ele>2214.6666666666665</ele><time>2026-04-11T12:28:15.02Z</time></trkpt><trkpt lat="46.4724509" lon="9.7410496"><ele>2214.0</ele><time>2026-04-11T12:28:16.02Z</time></trkpt><trkpt lat="46.4724475" lon="9.741321"><ele>2213.3333333333335</ele><time>2026-04-11T12:28:17.02Z</time></trkpt><trkpt lat="46.4724459" lon="9.7415939"><ele>2212.666666666667</ele><time>2026-04-11T12:28:18.02Z</time></trkpt><trkpt lat="46.4724429" lon="9.7418743"><ele>2212.0</ele><time>2026-04-11T12:28:19.02Z</time></trkpt><trkpt lat="46.4724471" lon="9.7421538"><ele>2211.3333333333335</ele><time>2026-04-11T12:28:20.02Z</time></trkpt><trkpt lat="46.4724483" lon="9.7424445"><ele>2210.6666666666665</ele><time>2026-04-11T12:28:21.02Z</time></trkpt><trkpt lat="46.4724516" lon="9.742737"><ele>2210.0</ele><time>2026-04-11T12:28:22.02Z</time></trkpt><trkpt lat="46.4724467" lon="9.7430351"><ele>2208.6666666666665</ele><time>2026-04-11T12:28:23.02Z</time></trkpt><trkpt lat="46.4724418" lon="9.7433416"><ele>2207.3333333333335</ele><time>2026-04-11T12:28:24.019Z</time></trkpt><trkpt lat="46.4724434" lon="9.74365"><ele>2206.0</ele><time>2026-04-11T12:28:25.02Z</time></trkpt><trkpt lat="46.4724473" lon="9.7439579"><ele>2205.3333333333335</ele><time>2026-04-11T12:28:26.02Z</time></trkpt><trkpt lat="46.4724501" lon="9.7442649"><ele>2204.6666666666665</ele><time>2026-04-11T12:28:27.02Z</time></trkpt><trkpt lat="46.4724511" lon="9.7445616"><ele>2204.0</ele><time>2026-04-11T12:28:28.02Z</time></trkpt><trkpt lat="46.4724554" lon="9.7448569"><ele>2202.0</ele><time>2026-04-11T12:28:29.02Z</time></trkpt><trkpt lat="46.4724605" lon="9.7451444"><ele>2200.0</ele><time>2026-04-11T12:28:30.02Z</time></trkpt><trkpt lat="46.4724618" lon="9.745425"><ele>2198.0</ele><time>2026-04-11T12:28:31.02Z</time></trkpt><trkpt lat="46.4724641" lon="9.7457018"><ele>2196.333333333333</ele><time>2026-04-11T12:28:32.02Z</time></trkpt><trkpt lat="46.4724683" lon="9.7459671"><ele>2194.6666666666665</ele><time>2026-04-11T12:28:33.02Z</time></trkpt><trkpt lat="46.4724672" lon="9.7462278"><ele>2193.0</ele><time>2026-04-11T12:28:34.02Z</time></trkpt><trkpt lat="46.4724698" lon="9.7464871"><ele>2192.6666666666665</ele><time>2026-04-11T12:28:35.02Z</time></trkpt><trkpt lat="46.4724731" lon="9.7467519"><ele>2192.333333333333</ele><time>2026-04-11T12:28:36.02Z</time></trkpt><trkpt lat="46.4724742" lon="9.7470118"><ele>2192.0</ele><time>2026-04-11T12:28:37.02Z</time></trkpt><trkpt lat="46.4724744" lon="9.7472753"><ele>2191.6666666666665</ele><time>2026-04-11T12:28:38.019Z</time></trkpt><trkpt lat="46.4724765" lon="9.7475335"><ele>2191.3333333333335</ele><time>2026-04-11T12:28:39.019Z</time></trkpt><trkpt lat="46.4724778" lon="9.7477915"><ele>2191.0</ele><time>2026-04-11T12:28:40.02Z</time></trkpt><trkpt lat="46.4724792" lon="9.7480514"><ele>2190.666666666667</ele><time>2026-04-11T12:28:41.02Z</time></trkpt><trkpt lat="46.4724777" lon="9.7483064"><ele>2190.3333333333335</ele><time>2026-04-11T12:28:42.02Z</time></trkpt><trkpt lat="46.4724748" lon="9.7485556"><ele>2190.0</ele><time>2026-04-11T12:28:43.02Z</time></trkpt><trkpt lat="46.4724773" lon="9.7487959"><ele>2190.0</ele><time>2026-04-11T12:28:44.02Z</time></trkpt><trkpt lat="46.4724785" lon="9.7490205"><ele>2190.0</ele><time>2026-04-11T12:28:45.019Z</time></trkpt><trkpt lat="46.4724776" lon="9.7492308"><ele>2190.0</ele><time>2026-04-11T12:28:46.02Z</time></trkpt><trkpt lat="46.4724608" lon="9.7494198"><ele>2190.0</ele><time>2026-04-11T12:28:47.02Z</time></trkpt><trkpt lat="46.4724121" lon="9.7495822"><ele>2190.75</ele><time>2026-04-11T12:28:48.02Z</time></trkpt><trkpt lat="46.4723382" lon="9.7497199"><ele>2191.5</ele><time>2026-04-11T12:28:49.02Z</time></trkpt><trkpt lat="46.4722452" lon="9.7498389"><ele>2192.25</ele><time>2026-04-11T12:28:50.02Z</time></trkpt><trkpt lat="46.4721095" lon="9.7499472"><ele>2193.0</ele><time>2026-04-11T12:28:51.02Z</time></trkpt><trkpt lat="46.471957" lon="9.7500567"><ele>2190.3333333333335</ele><time>2026-04-11T12:28:52.02Z</time></trkpt><trkpt lat="46.4717817" lon="9.7501755"><ele>2187.666666666667</ele><time>2026-04-11T12:28:53.02Z</time></trkpt><trkpt lat="46.4716065" lon="9.7502991"><ele>2185.0</ele><time>2026-04-11T12:28:54.02Z</time></trkpt><trkpt lat="46.4714355" lon="9.7504214"><ele>2185.0</ele><time>2026-04-11T12:28:55.02Z</time></trkpt><trkpt lat="46.4712779" lon="9.7505545"><ele>2185.0</ele><time>2026-04-11T12:28:56.02Z</time></trkpt><trkpt lat="46.4711346" lon="9.7507127"><ele>2185.0</ele><time>2026-04-11T12:28:57.02Z</time></trkpt><trkpt lat="46.4710121" lon="9.7509053"><ele>2180.666666666667</ele><time>2026-04-11T12:28:58.019Z</time></trkpt><trkpt lat="46.4709237" lon="9.7511099"><ele>2176.3333333333335</ele><time>2026-04-11T12:28:59.02Z</time></trkpt><trkpt lat="46.4708655" lon="9.7513157"><ele>2172.0</ele><time>2026-04-11T12:29:00.019Z</time></trkpt><trkpt lat="46.4708377" lon="9.7515137"><ele>2172.0</ele><time>2026-04-11T12:29:01.02Z</time></trkpt><trkpt lat="46.4708523" lon="9.7517167"><ele>2172.0</ele><time>2026-04-11T12:29:02.019Z</time></trkpt><trkpt lat="46.4708915" lon="9.7519392"><ele>2172.0</ele><time>2026-04-11T12:29:03.02Z</time></trkpt><trkpt lat="46.470934" lon="9.752206"><ele>2170.3333333333335</ele><time>2026-04-11T12:29:04.02Z</time></trkpt><trkpt lat="46.4709692" lon="9.7524919"><ele>2168.666666666667</ele><time>2026-04-11T12:29:05.019Z</time></trkpt><trkpt lat="46.4709686" lon="9.7527977"><ele>2167.0</ele><time>2026-04-11T12:29:06.02Z</time></trkpt><trkpt lat="46.4709531" lon="9.7530976"><ele>2166.0</ele><time>2026-04-11T12:29:07.02Z</time></trkpt><trkpt lat="46.4709313" lon="9.7533883"><ele>2165.0</ele><time>2026-04-11T12:29:08.02Z</time></trkpt><trkpt lat="46.4708924" lon="9.7536583"><ele>2164.0</ele><time>2026-04-11T12:29:09.02Z</time></trkpt><trkpt lat="46.4708254" lon="9.7539011"><ele>2164.0</ele><time>2026-04-11T12:29:10.019Z</time></trkpt><trkpt lat="46.4707255" lon="9.7541117"><ele>2164.0</ele><time>2026-04-11T12:29:11.02Z</time></trkpt><trkpt lat="46.470622" lon="9.7543078"><ele>2164.0</ele><time>2026-04-11T12:29:12.02Z</time></trkpt><trkpt lat="46.4705252" lon="9.7544916"><ele>2164.0</ele><time>2026-04-11T12:29:13.02Z</time></trkpt><trkpt lat="46.470461" lon="9.7546494"><ele>2164.0</ele><time>2026-04-11T12:29:14.02Z</time></trkpt><trkpt lat="46.4704367" lon="9.7548157"><ele>2164.0</ele><time>2026-04-11T12:29:15.02Z</time></trkpt><trkpt lat="46.4704476" lon="9.754976"><ele>2164.0</ele><time>2026-04-11T12:29:16.02Z</time></trkpt><trkpt lat="46.4704794" lon="9.7551366"><ele>2164.0</ele><time>2026-04-11T12:29:17.02Z</time></trkpt><trkpt lat="46.4705034" lon="9.7552969"><ele>2164.0</ele><time>2026-04-11T12:29:18.02Z</time></trkpt><trkpt lat="46.4704935" lon="9.7554581"><ele>2164.0</ele><time>2026-04-11T12:29:19.02Z</time></trkpt><trkpt lat="46.470435" lon="9.7556421"><ele>2164.0</ele><time>2026-04-11T12:29:20.02Z</time></trkpt><trkpt lat="46.4703514" lon="9.7558559"><ele>2159.0</ele><time>2026-04-11T12:29:21.02Z</time></trkpt><trkpt lat="46.4702555" lon="9.7560899"><ele>2154.0</ele><time>2026-04-11T12:29:22.02Z</time></trkpt><trkpt lat="46.4701766" lon="9.7563575"><ele>2149.0</ele><time>2026-04-11T12:29:23.02Z</time></trkpt><trkpt lat="46.4701104" lon="9.7566266"><ele>2149.0</ele><time>2026-04-11T12:29:24.02Z</time></trkpt><trkpt lat="46.4700647" lon="9.7568645"><ele>2149.0</ele><time>2026-04-11T12:29:25.02Z</time></trkpt><trkpt lat="46.4700441" lon="9.7570778"><ele>2149.0</ele><time>2026-04-11T12:29:26.02Z</time></trkpt><trkpt lat="46.4700519" lon="9.7572867"><ele>2146.5</ele><time>2026-04-11T12:29:27.02Z</time></trkpt><trkpt lat="46.4700914" lon="9.7574904"><ele>2144.0</ele><time>2026-04-11T12:29:28.02Z</time></trkpt><trkpt lat="46.4701455" lon="9.7576861"><ele>2141.5</ele><time>2026-04-11T12:29:29.02Z</time></trkpt><trkpt lat="46.4701759" lon="9.7578866"><ele>2139.0</ele><time>2026-04-11T12:29:30.019Z</time></trkpt><trkpt lat="46.4701514" lon="9.7581022"><ele>2137.0</ele><time>2026-04-11T12:29:31.02Z</time></trkpt><trkpt lat="46.470094" lon="9.7583254"><ele>2135.0</ele><time>2026-04-11T12:29:32.019Z</time></trkpt><trkpt lat="46.470005" lon="9.7585533"><ele>2133.0</ele><time>2026-04-11T12:29:33.02Z</time></trkpt><trkpt lat="46.4698949" lon="9.7587943"><ele>2133.0</ele><time>2026-04-11T12:29:34.02Z</time></trkpt><trkpt lat="46.4697831" lon="9.7590476"><ele>2133.0</ele><time>2026-04-11T12:29:35.02Z</time></trkpt><trkpt lat="46.4696775" lon="9.7593165"><ele>2133.0</ele><time>2026-04-11T12:29:36.019Z</time></trkpt><trkpt lat="46.4695653" lon="9.7595935"><ele>2129.0</ele><time>2026-04-11T12:29:37.02Z</time></trkpt><trkpt lat="46.4694555" lon="9.7598637"><ele>2125.0</ele><time>2026-04-11T12:29:38.02Z</time></trkpt><trkpt lat="46.4693636" lon="9.7601236"><ele>2121.0</ele><time>2026-04-11T12:29:39.02Z</time></trkpt><trkpt lat="46.4692891" lon="9.7603747"><ele>2120.3333333333335</ele><time>2026-04-11T12:29:40.02Z</time></trkpt><trkpt lat="46.4692427" lon="9.7606301"><ele>2119.666666666667</ele><time>2026-04-11T12:29:41.02Z</time></trkpt><trkpt lat="46.4692097" lon="9.7609094"><ele>2119.0</ele><time>2026-04-11T12:29:42.02Z</time></trkpt><trkpt lat="46.469197" lon="9.7612147"><ele>2116.5</ele><time>2026-04-11T12:29:43.02Z</time></trkpt><trkpt lat="46.469193" lon="9.7615307"><ele>2114.0</ele><time>2026-04-11T12:29:44.02Z</time></trkpt><trkpt lat="46.469182" lon="9.7618817"><ele>2112.5</ele><time>2026-04-11T12:29:45.019Z</time></trkpt><trkpt lat="46.4691604" lon="9.762258"><ele>2111.0</ele><time>2026-04-11T12:29:46.02Z</time></trkpt><trkpt lat="46.4691208" lon="9.7626477"><ele>2110.0</ele><time>2026-04-11T12:29:47.02Z</time></trkpt><trkpt lat="46.4690642" lon="9.7630491"><ele>2109.0</ele><time>2026-04-11T12:29:48.02Z</time></trkpt><trkpt lat="46.4690013" lon="9.7634552"><ele>2109.0</ele><time>2026-04-11T12:29:49.02Z</time></trkpt><trkpt lat="46.4689354" lon="9.7638532"><ele>2109.0</ele><time>2026-04-11T12:29:50.02Z</time></trkpt><trkpt lat="46.4688766" lon="9.7642409"><ele>2109.5</ele><time>2026-04-11T12:29:51.02Z</time></trkpt><trkpt lat="46.4688049" lon="9.7646254"><ele>2110.0</ele><time>2026-04-11T12:29:52.019Z</time></trkpt><trkpt lat="46.468717" lon="9.7650133"><ele>2101.5</ele><time>2026-04-11T12:29:53.02Z</time></trkpt><trkpt lat="46.4686209" lon="9.7653857"><ele>2093.0</ele><time>2026-04-11T12:29:54.02Z</time></trkpt><trkpt lat="46.4685266" lon="9.7657448"><ele>2093.5</ele><time>2026-04-11T12:29:55.02Z</time></trkpt><trkpt lat="46.4684404" lon="9.7661011"><ele>2094.0</ele><time>2026-04-11T12:29:56.02Z</time></trkpt><trkpt lat="46.4683537" lon="9.7664497"><ele>2094.0</ele><time>2026-04-11T12:29:57.02Z</time></trkpt><trkpt lat="46.4682694" lon="9.7667876"><ele>2094.0</ele><time>2026-04-11T12:29:58.02Z</time></trkpt><trkpt lat="46.4681843" lon="9.767119"><ele>2095.5</ele><time>2026-04-11T12:29:59.019Z</time></trkpt><trkpt lat="46.4681022" lon="9.7674456"><ele>2097.0</ele><time>2026-04-11T12:30:00.02Z</time></trkpt><trkpt lat="46.4680219" lon="9.7677646"><ele>2092.0</ele><time>2026-04-11T12:30:01.02Z</time></trkpt><trkpt lat="46.4679256" lon="9.7680633"><ele>2087.0</ele><time>2026-04-11T12:30:02.02Z</time></trkpt><trkpt lat="46.4677995" lon="9.7683493"><ele>2086.0</ele><time>2026-04-11T12:30:03.02Z</time></trkpt><trkpt lat="46.4676475" lon="9.7686251"><ele>2085.0</ele><time>2026-04-11T12:30:04.02Z</time></trkpt><trkpt lat="46.467471" lon="9.7689029"><ele>2085.0</ele><time>2026-04-11T12:30:05.019Z</time></trkpt><trkpt lat="46.4672869" lon="9.7691722"><ele>2085.0</ele><time>2026-04-11T12:30:06.02Z</time></trkpt><trkpt lat="46.4671102" lon="9.7694388"><ele>2082.5</ele><time>2026-04-11T12:30:07.02Z</time></trkpt><trkpt lat="46.4669389" lon="9.7696954"><ele>2080.0</ele><time>2026-04-11T12:30:08.02Z</time></trkpt><trkpt lat="46.4667789" lon="9.769945"><ele>2082.0</ele><time>2026-04-11T12:30:09.02Z</time></trkpt><trkpt lat="46.4666332" lon="9.7702008"><ele>2084.0</ele><time>2026-04-11T12:30:10.02Z</time></trkpt><trkpt lat="46.4665003" lon="9.7704852"><ele>2084.0</ele><time>2026-04-11T12:30:11.02Z</time></trkpt><trkpt lat="46.4663749" lon="9.7707868"><ele>2084.0</ele><time>2026-04-11T12:30:12.02Z</time></trkpt><trkpt lat="46.4662585" lon="9.7711093"><ele>2078.0</ele><time>2026-04-11T12:30:13.02Z</time></trkpt><trkpt lat="46.4661363" lon="9.7714435"><ele>2072.0</ele><time>2026-04-11T12:30:14.02Z</time></trkpt><trkpt lat="46.4660063" lon="9.7717836"><ele>2073.0</ele><time>2026-04-11T12:30:15.02Z</time></trkpt><trkpt lat="46.4658776" lon="9.7721339"><ele>2074.0</ele><time>2026-04-11T12:30:16.02Z</time></trkpt><trkpt lat="46.4657473" lon="9.7724786"><ele>2077.0</ele><time>2026-04-11T12:30:17.019Z</time></trkpt><trkpt lat="46.4656226" lon="9.7728119"><ele>2080.0</ele><time>2026-04-11T12:30:18.02Z</time></trkpt><trkpt lat="46.4654956" lon="9.7731426"><ele>2073.5</ele><time>2026-04-11T12:30:19.02Z</time></trkpt><trkpt lat="46.4653611" lon="9.7734602"><ele>2067.0</ele><time>2026-04-11T12:30:20.02Z</time></trkpt><trkpt lat="46.4652157" lon="9.7737688"><ele>2066.0</ele><time>2026-04-11T12:30:21.02Z</time></trkpt><trkpt lat="46.4650418" lon="9.77408"><ele>2065.0</ele><time>2026-04-11T12:30:22.019Z</time></trkpt><trkpt lat="46.4648653" lon="9.7743663"><ele>2062.0</ele><time>2026-04-11T12:30:23.02Z</time></trkpt><trkpt lat="46.4646913" lon="9.7746322"><ele>2059.0</ele><time>2026-04-11T12:30:24.02Z</time></trkpt><trkpt lat="46.4645243" lon="9.7748802"><ele>2059.0</ele><time>2026-04-11T12:30:25.02Z</time></trkpt><trkpt lat="46.4643586" lon="9.7751029"><ele>2059.0</ele><time>2026-04-11T12:30:26.02Z</time></trkpt><trkpt lat="46.4641877" lon="9.7752926"><ele>2059.0</ele><time>2026-04-11T12:30:27.02Z</time></trkpt><trkpt lat="46.4640143" lon="9.7754714"><ele>2060.666666666667</ele><time>2026-04-11T12:30:28.02Z</time></trkpt><trkpt lat="46.4638565" lon="9.77563"><ele>2062.3333333333335</ele><time>2026-04-11T12:30:29.02Z</time></trkpt><trkpt lat="46.4637156" lon="9.7757894"><ele>2064.0</ele><time>2026-04-11T12:30:30.02Z</time></trkpt><trkpt lat="46.4635855" lon="9.7759739"><ele>2060.6666666666665</ele><time>2026-04-11T12:30:31.02Z</time></trkpt><trkpt lat="46.4634828" lon="9.7761792"><ele>2057.333333333333</ele><time>2026-04-11T12:30:32.02Z</time></trkpt><trkpt lat="46.4634044" lon="9.776406"><ele>2054.0</ele><time>2026-04-11T12:30:33.02Z</time></trkpt><trkpt lat="46.4633517" lon="9.7766633"><ele>2053.0</ele><time>2026-04-11T12:30:34.02Z</time></trkpt><trkpt lat="46.4633229" lon="9.7769523"><ele>2052.0</ele><time>2026-04-11T12:30:35.02Z</time></trkpt><trkpt lat="46.463308" lon="9.7772214"><ele>2051.0</ele><time>2026-04-11T12:30:36.02Z</time></trkpt><trkpt lat="46.463285" lon="9.7774821"><ele>2052.333333333333</ele><time>2026-04-11T12:30:37.019Z</time></trkpt><trkpt lat="46.4632333" lon="9.7777357"><ele>2053.6666666666665</ele><time>2026-04-11T12:30:38.02Z</time></trkpt><trkpt lat="46.463142" lon="9.7779861"><ele>2055.0</ele><time>2026-04-11T12:30:39.02Z</time></trkpt><trkpt lat="46.4630256" lon="9.7782396"><ele>2050.6666666666665</ele><time>2026-04-11T12:30:40.02Z</time></trkpt><trkpt lat="46.4629078" lon="9.7784782"><ele>2046.3333333333333</ele><time>2026-04-11T12:30:41.02Z</time></trkpt><trkpt lat="46.4628099" lon="9.7787085"><ele>2042.0</ele><time>2026-04-11T12:30:42.019Z</time></trkpt><trkpt lat="46.4627485" lon="9.7789535"><ele>2041.0</ele><time>2026-04-11T12:30:43.02Z</time></trkpt><trkpt lat="46.4627145" lon="9.7792215"><ele>2040.0</ele><time>2026-04-11T12:30:44.02Z</time></trkpt><trkpt lat="46.4626989" lon="9.7795316"><ele>2039.0</ele><time>2026-04-11T12:30:45.019Z</time></trkpt><trkpt lat="46.4626922" lon="9.7798675"><ele>2029.5</ele><time>2026-04-11T12:30:46.02Z</time></trkpt><trkpt lat="46.4626858" lon="9.7802163"><ele>2020.0</ele><time>2026-04-11T12:30:47.02Z</time></trkpt><trkpt lat="46.4626679" lon="9.7805641"><ele>2020.0</ele><time>2026-04-11T12:30:48.02Z</time></trkpt><trkpt lat="46.462648" lon="9.7809077"><ele>2020.0</ele><time>2026-04-11T12:30:49.02Z</time></trkpt><trkpt lat="46.4626392" lon="9.7812612"><ele>2016.0</ele><time>2026-04-11T12:30:50.02Z</time></trkpt><trkpt lat="46.4626566" lon="9.7816333"><ele>2012.0</ele><time>2026-04-11T12:30:51.02Z</time></trkpt><trkpt lat="46.4626963" lon="9.7819886"><ele>2007.5</ele><time>2026-04-11T12:30:52.02Z</time></trkpt><trkpt lat="46.4627317" lon="9.7823189"><ele>2003.0</ele><time>2026-04-11T12:30:53.02Z</time></trkpt><trkpt lat="46.4627404" lon="9.7826391"><ele>1999.5</ele><time>2026-04-11T12:30:54.019Z</time></trkpt><trkpt lat="46.4627319" lon="9.7829707"><ele>1996.0</ele><time>2026-04-11T12:30:55.019Z</time></trkpt><trkpt lat="46.4627198" lon="9.7832928"><ele>1994.6666666666667</ele><time>2026-04-11T12:30:56.02Z</time></trkpt><trkpt lat="46.4627066" lon="9.7836075"><ele>1993.3333333333335</ele><time>2026-04-11T12:30:57.02Z</time></trkpt><trkpt lat="46.4626955" lon="9.7839046"><ele>1992.0</ele><time>2026-04-11T12:30:58.02Z</time></trkpt><trkpt lat="46.4626771" lon="9.7841827"><ele>1992.0</ele><time>2026-04-11T12:30:59.02Z</time></trkpt><trkpt lat="46.4626634" lon="9.7844495"><ele>1992.0</ele><time>2026-04-11T12:31:00.02Z</time></trkpt><trkpt lat="46.4626468" lon="9.7847093"><ele>1992.0</ele><time>2026-04-11T12:31:01.02Z</time></trkpt><trkpt lat="46.4626289" lon="9.7849645"><ele>1992.3333333333335</ele><time>2026-04-11T12:31:02.02Z</time></trkpt><trkpt lat="46.4626072" lon="9.7852064"><ele>1992.6666666666667</ele><time>2026-04-11T12:31:03.019Z</time></trkpt><trkpt lat="46.4625686" lon="9.7854491"><ele>1993.0</ele><time>2026-04-11T12:31:04.02Z</time></trkpt><trkpt lat="46.4625158" lon="9.7856751"><ele>1993.0</ele><time>2026-04-11T12:31:05.02Z</time></trkpt><trkpt lat="46.4624532" lon="9.7858839"><ele>1993.0</ele><time>2026-04-11T12:31:06.02Z</time></trkpt><trkpt lat="46.4623632" lon="9.7860872"><ele>1993.0</ele><time>2026-04-11T12:31:07.02Z</time></trkpt><trkpt lat="46.4622571" lon="9.7862983"><ele>1994.0</ele><time>2026-04-11T12:31:08.02Z</time></trkpt><trkpt lat="46.4621542" lon="9.7864988"><ele>1995.0</ele><time>2026-04-11T12:31:09.019Z</time></trkpt><trkpt lat="46.4620732" lon="9.7867027"><ele>1996.0</ele><time>2026-04-11T12:31:10.02Z</time></trkpt><trkpt lat="46.4620192" lon="9.7869142"><ele>1986.6666666666667</ele><time>2026-04-11T12:31:11.02Z</time></trkpt><trkpt lat="46.4619956" lon="9.7871371"><ele>1977.3333333333335</ele><time>2026-04-11T12:31:12.019Z</time></trkpt><trkpt lat="46.462005" lon="9.7873581"><ele>1968.0</ele><time>2026-04-11T12:31:13.02Z</time></trkpt><trkpt lat="46.4620621" lon="9.7875871"><ele>1974.0</ele><time>2026-04-11T12:31:14.02Z</time></trkpt><trkpt lat="46.462156" lon="9.7878214"><ele>1980.0</ele><time>2026-04-11T12:31:15.02Z</time></trkpt><trkpt lat="46.4622676" lon="9.7880647"><ele>1986.0</ele><time>2026-04-11T12:31:16.019Z</time></trkpt><trkpt lat="46.4623829" lon="9.7883131"><ele>1982.6666666666665</ele><time>2026-04-11T12:31:17.02Z</time></trkpt><trkpt lat="46.4624975" lon="9.7885682"><ele>1979.3333333333333</ele><time>2026-04-11T12:31:18.02Z</time></trkpt><trkpt lat="46.4626086" lon="9.7888232"><ele>1976.0</ele><time>2026-04-11T12:31:19.02Z</time></trkpt><trkpt lat="46.4627276" lon="9.7890792"><ele>1976.0</ele><time>2026-04-11T12:31:20.02Z</time></trkpt><trkpt lat="46.4628457" lon="9.7893307"><ele>1976.0</ele><time>2026-04-11T12:31:21.02Z</time></trkpt><trkpt lat="46.4629681" lon="9.7895725"><ele>1976.0</ele><time>2026-04-11T12:31:22.02Z</time></trkpt><trkpt lat="46.4631047" lon="9.7898047"><ele>1975.3333333333333</ele><time>2026-04-11T12:31:23.02Z</time></trkpt><trkpt lat="46.4632498" lon="9.7900263"><ele>1974.6666666666665</ele><time>2026-04-11T12:31:24.02Z</time></trkpt><trkpt lat="46.4634014" lon="9.7902409"><ele>1974.0</ele><time>2026-04-11T12:31:25.02Z</time></trkpt><trkpt lat="46.4635602" lon="9.7904528"><ele>1972.6666666666665</ele><time>2026-04-11T12:31:26.02Z</time></trkpt><trkpt lat="46.4637184" lon="9.7906682"><ele>1971.3333333333333</ele><time>2026-04-11T12:31:27.02Z</time></trkpt><trkpt lat="46.463875" lon="9.7908832"><ele>1970.0</ele><time>2026-04-11T12:31:28.02Z</time></trkpt><trkpt lat="46.4640281" lon="9.7910971"><ele>1965.0</ele><time>2026-04-11T12:31:29.02Z</time></trkpt><trkpt lat="46.4641823" lon="9.7913064"><ele>1960.0</ele><time>2026-04-11T12:31:30.02Z</time></trkpt><trkpt lat="46.4643394" lon="9.7915272"><ele>1955.0</ele><time>2026-04-11T12:31:31.02Z</time></trkpt><trkpt lat="46.4644912" lon="9.7917459"><ele>1954.0</ele><time>2026-04-11T12:31:32.02Z</time></trkpt><trkpt lat="46.4646343" lon="9.7919694"><ele>1953.0</ele><time>2026-04-11T12:31:33.02Z</time></trkpt><trkpt lat="46.4647769" lon="9.7921937"><ele>1952.0</ele><time>2026-04-11T12:31:34.02Z</time></trkpt><trkpt lat="46.4649214" lon="9.7924128"><ele>1952.0</ele><time>2026-04-11T12:31:35.019Z</time></trkpt><trkpt lat="46.4650679" lon="9.7926257"><ele>1952.0</ele><time>2026-04-11T12:31:36.02Z</time></trkpt><trkpt lat="46.4652203" lon="9.7928319"><ele>1952.0</ele><time>2026-04-11T12:31:37.02Z</time></trkpt><trkpt lat="46.4653784" lon="9.7930252"><ele>1948.3333333333333</ele><time>2026-04-11T12:31:38.02Z</time></trkpt><trkpt lat="46.4655285" lon="9.7932137"><ele>1944.6666666666665</ele><time>2026-04-11T12:31:39.02Z</time></trkpt><trkpt lat="46.4656648" lon="9.7933863"><ele>1941.0</ele><time>2026-04-11T12:31:40.02Z</time></trkpt><trkpt lat="46.4657894" lon="9.7935381"><ele>1938.0</ele><time>2026-04-11T12:31:41.02Z</time></trkpt><trkpt lat="46.4659049" lon="9.7936706"><ele>1935.0</ele><time>2026-04-11T12:31:42.02Z</time></trkpt><trkpt lat="46.4660083" lon="9.7937892"><ele>1932.0</ele><time>2026-04-11T12:31:43.02Z</time></trkpt><trkpt lat="46.466114" lon="9.7938867"><ele>1929.0</ele><time>2026-04-11T12:31:44.018Z</time></trkpt><trkpt lat="46.4662126" lon="9.7939721"><ele>1929.1666666666667</ele><time>2026-04-11T12:31:45.019Z</time></trkpt><trkpt lat="46.4662974" lon="9.7940409"><ele>1929.3333333333335</ele><time>2026-04-11T12:31:46.018Z</time></trkpt><trkpt lat="46.466366" lon="9.7941193"><ele>1929.5</ele><time>2026-04-11T12:31:47.018Z</time></trkpt><trkpt lat="46.4664067" lon="9.7942089"><ele>1929.6666666666667</ele><time>2026-04-11T12:31:48.019Z</time></trkpt><trkpt lat="46.4664226" lon="9.7943011"><ele>1929.8333333333335</ele><time>2026-04-11T12:31:49.019Z</time></trkpt><trkpt lat="46.4664099" lon="9.794406"><ele>1930.0</ele><time>2026-04-11T12:31:50.019Z</time></trkpt><trkpt lat="46.4663668" lon="9.7944963"><ele>1930.0</ele><time>2026-04-11T12:31:51.019Z</time></trkpt><trkpt lat="46.466299" lon="9.794559"><ele>1930.0</ele><time>2026-04-11T12:31:52.019Z</time></trkpt><trkpt lat="46.4662012" lon="9.7945989"><ele>1930.0</ele><time>2026-04-11T12:31:53.019Z</time></trkpt><trkpt lat="46.4661017" lon="9.7945883"><ele>1930.0</ele><time>2026-04-11T12:31:54.019Z</time></trkpt><trkpt lat="46.4659889" lon="9.7945682"><ele>1930.0</ele><time>2026-04-11T12:31:55.019Z</time></trkpt><trkpt lat="46.4658805" lon="9.7945752"><ele>1927.0</ele><time>2026-04-11T12:31:56.019Z</time></trkpt><trkpt lat="46.4657615" lon="9.7945905"><ele>1924.0</ele><time>2026-04-11T12:31:57.019Z</time></trkpt><trkpt lat="46.4656359" lon="9.7946315"><ele>1921.0</ele><time>2026-04-11T12:31:58.019Z</time></trkpt><trkpt lat="46.4655205" lon="9.7946766"><ele>1918.0</ele><time>2026-04-11T12:31:59.018Z</time></trkpt><trkpt lat="46.4654124" lon="9.794737"><ele>1917.75</ele><time>2026-04-11T12:32:00.019Z</time></trkpt><trkpt lat="46.4652997" lon="9.7947988"><ele>1917.5</ele><time>2026-04-11T12:32:01.019Z</time></trkpt><trkpt lat="46.4651763" lon="9.7948578"><ele>1917.25</ele><time>2026-04-11T12:32:02.019Z</time></trkpt><trkpt lat="46.46506" lon="9.7948994"><ele>1917.0</ele><time>2026-04-11T12:32:03.019Z</time></trkpt><trkpt lat="46.4649361" lon="9.7949232"><ele>1917.0</ele><time>2026-04-11T12:32:04.019Z</time></trkpt><trkpt lat="46.4648146" lon="9.7949191"><ele>1917.0</ele><time>2026-04-11T12:32:05.019Z</time></trkpt><trkpt lat="46.4646933" lon="9.7948772"><ele>1917.0</ele><time>2026-04-11T12:32:06.019Z</time></trkpt><trkpt lat="46.4645685" lon="9.794823"><ele>1917.0</ele><time>2026-04-11T12:32:07.019Z</time></trkpt><trkpt lat="46.4644536" lon="9.7947444"><ele>1911.5</ele><time>2026-04-11T12:32:08.019Z</time></trkpt><trkpt lat="46.4643456" lon="9.7946565"><ele>1906.0</ele><time>2026-04-11T12:32:09.019Z</time></trkpt><trkpt lat="46.464241" lon="9.7945603"><ele>1900.5</ele><time>2026-04-11T12:32:10.019Z</time></trkpt><trkpt lat="46.4641398" lon="9.7944604"><ele>1895.0</ele><time>2026-04-11T12:32:11.018Z</time></trkpt><trkpt lat="46.464033" lon="9.7943632"><ele>1894.5</ele><time>2026-04-11T12:32:12.019Z</time></trkpt><trkpt lat="46.4639127" lon="9.7942775"><ele>1894.0</ele><time>2026-04-11T12:32:13.019Z</time></trkpt><trkpt lat="46.463779" lon="9.7941871"><ele>1893.5</ele><time>2026-04-11T12:32:14.019Z</time></trkpt><trkpt lat="46.4636367" lon="9.7941142"><ele>1893.0</ele><time>2026-04-11T12:32:15.019Z</time></trkpt><trkpt lat="46.4634924" lon="9.794055"><ele>1893.0</ele><time>2026-04-11T12:32:16.019Z</time></trkpt><trkpt lat="46.4633478" lon="9.7940109"><ele>1893.0</ele><time>2026-04-11T12:32:17.019Z</time></trkpt><trkpt lat="46.4631943" lon="9.793983"><ele>1893.0</ele><time>2026-04-11T12:32:18.019Z</time></trkpt><trkpt lat="46.463051" lon="9.793963"><ele>1893.0</ele><time>2026-04-11T12:32:19.018Z</time></trkpt><trkpt lat="46.4629291" lon="9.7939439"><ele>1891.1666666666667</ele><time>2026-04-11T12:32:20.019Z</time></trkpt><trkpt lat="46.4628243" lon="9.7939302"><ele>1889.3333333333335</ele><time>2026-04-11T12:32:21.019Z</time></trkpt><trkpt lat="46.4627241" lon="9.7939158"><ele>1887.5</ele><time>2026-04-11T12:32:22.019Z</time></trkpt><trkpt lat="46.4626408" lon="9.7939094"><ele>1885.6666666666667</ele><time>2026-04-11T12:32:23.019Z</time></trkpt><trkpt lat="46.4625659" lon="9.7939042"><ele>1883.8333333333335</ele><time>2026-04-11T12:32:24.019Z</time></trkpt><trkpt lat="46.462497" lon="9.7938921"><ele>1882.0</ele><time>2026-04-11T12:32:25.019Z</time></trkpt><trkpt lat="46.4624313" lon="9.7938892"><ele>1882.0</ele><time>2026-04-11T12:32:26.019Z</time></trkpt><trkpt lat="46.4623225" lon="9.7939398"><ele>1881.9999999999998</ele><time>2026-04-11T12:32:28.019Z</time></trkpt><trkpt lat="46.4622825" lon="9.7940763"><ele>1881.9999999999998</ele><time>2026-04-11T12:32:30.019Z</time></trkpt><trkpt lat="46.4623585" lon="9.7942116"><ele>1882.0</ele><time>2026-04-11T12:32:32.019Z</time></trkpt><trkpt lat="46.4624238" lon="9.7942402"><ele>1882.0</ele><time>2026-04-11T12:32:33.018Z</time></trkpt><trkpt lat="46.4625056" lon="9.7942529"><ele>1882.0</ele><time>2026-04-11T12:32:34.019Z</time></trkpt><trkpt lat="46.462586" lon="9.7942537"><ele>1881.9999999999998</ele><time>2026-04-11T12:32:35.018Z</time></trkpt><trkpt lat="46.4626776" lon="9.7942632"><ele>1881.9999999999998</ele><time>2026-04-11T12:32:36.019Z</time></trkpt><trkpt lat="46.4627816" lon="9.7942794"><ele>1882.0</ele><time>2026-04-11T12:32:37.019Z</time></trkpt><trkpt lat="46.4628928" lon="9.7943005"><ele>1882.0</ele><time>2026-04-11T12:32:38.019Z</time></trkpt><trkpt lat="46.4630161" lon="9.7943358"><ele>1878.0</ele><time>2026-04-11T12:32:39.019Z</time></trkpt><trkpt lat="46.4631474" lon="9.7943853"><ele>1874.0</ele><time>2026-04-11T12:32:40.019Z</time></trkpt><trkpt lat="46.4632871" lon="9.7944472"><ele>1870.0</ele><time>2026-04-11T12:32:41.018Z</time></trkpt><trkpt lat="46.4634323" lon="9.7945239"><ele>1866.0</ele><time>2026-04-11T12:32:42.019Z</time></trkpt><trkpt lat="46.4635742" lon="9.7946028"><ele>1866.0</ele><time>2026-04-11T12:32:43.019Z</time></trkpt><trkpt lat="46.4637233" lon="9.794681"><ele>1866.0</ele><time>2026-04-11T12:32:44.019Z</time></trkpt><trkpt lat="46.4638377" lon="9.794743"><ele>1866.0</ele><time>2026-04-11T12:32:45.019Z</time></trkpt><trkpt lat="46.4639525" lon="9.7948032"><ele>1866.0</ele><time>2026-04-11T12:32:46.018Z</time></trkpt><trkpt lat="46.4640611" lon="9.7948584"><ele>1871.8</ele><time>2026-04-11T12:32:47.019Z</time></trkpt><trkpt lat="46.4641634" lon="9.7949078"><ele>1877.6</ele><time>2026-04-11T12:32:48.019Z</time></trkpt><trkpt lat="46.464261" lon="9.7949502"><ele>1883.4</ele><time>2026-04-11T12:32:49.019Z</time></trkpt><trkpt lat="46.4643539" lon="9.7949828"><ele>1889.2</ele><time>2026-04-11T12:32:50.019Z</time></trkpt><trkpt lat="46.4644423" lon="9.7950079"><ele>1895.0</ele><time>2026-04-11T12:32:51.019Z</time></trkpt><trkpt lat="46.4645251" lon="9.7950247"><ele>1807.0</ele><time>2026-04-11T12:32:52.019Z</time></trkpt><trkpt lat="46.4680996" lon="9.8011493"><ele>1807.0000000000002</ele><time>2026-04-11T12:33:32.019Z</time></trkpt><trkpt lat="46.4681516" lon="9.8012335"><ele>1807.0</ele><time>2026-04-11T12:33:33.019Z</time></trkpt><trkpt lat="46.4682093" lon="9.8013677"><ele>1807.0</ele><time>2026-04-11T12:33:35.019Z</time></trkpt><trkpt lat="46.4682286" lon="9.8014693"><ele>1807.0</ele><time>2026-04-11T12:33:37.019Z</time></trkpt><trkpt lat="46.468229" lon="9.8015894"><ele>1807.0000000000002</ele><time>2026-04-11T12:33:39.019Z</time></trkpt><trkpt lat="46.4681933" lon="9.801717"><ele>1807.0</ele><time>2026-04-11T12:33:41.019Z</time></trkpt><trkpt lat="46.4681367" lon="9.8018593"><ele>1805.3333333333335</ele><time>2026-04-11T12:33:43.019Z</time></trkpt><trkpt lat="46.4681527" lon="9.8020158"><ele>1803.6666666666667</ele><time>2026-04-11T12:33:45.019Z</time></trkpt><trkpt lat="46.4682585" lon="9.8020898"><ele>1802.0</ele><time>2026-04-11T12:33:47.019Z</time></trkpt><trkpt lat="46.4683232" lon="9.8020935"><ele>1800.3333333333335</ele><time>2026-04-11T12:33:48.019Z</time></trkpt><trkpt lat="46.4683976" lon="9.8020841"><ele>1798.6666666666667</ele><time>2026-04-11T12:33:49.019Z</time></trkpt><trkpt lat="46.4684747" lon="9.8020937"><ele>1797.0</ele><time>2026-04-11T12:33:50.019Z</time></trkpt><trkpt lat="46.4685712" lon="9.8021174"><ele>1797.0</ele><time>2026-04-11T12:33:51.019Z</time></trkpt><trkpt lat="46.468687" lon="9.8021548"><ele>1797.0</ele><time>2026-04-11T12:33:52.019Z</time></trkpt><trkpt lat="46.4688142" lon="9.8021864"><ele>1797.0</ele><time>2026-04-11T12:33:53.019Z</time></trkpt><trkpt lat="46.4689592" lon="9.8022189"><ele>1797.0</ele><time>2026-04-11T12:33:54.018Z</time></trkpt><trkpt lat="46.4691242" lon="9.8022646"><ele>1798.3333333333335</ele><time>2026-04-11T12:33:55.019Z</time></trkpt><trkpt lat="46.4693034" lon="9.8023276"><ele>1799.6666666666667</ele><time>2026-04-11T12:33:56.019Z</time></trkpt><trkpt lat="46.4694934" lon="9.8023976"><ele>1801.0</ele><time>2026-04-11T12:33:57.019Z</time></trkpt><trkpt lat="46.4696993" lon="9.8024813"><ele>1798.3333333333335</ele><time>2026-04-11T12:33:58.019Z</time></trkpt><trkpt lat="46.4699188" lon="9.8025672"><ele>1795.6666666666665</ele><time>2026-04-11T12:33:59.019Z</time></trkpt><trkpt lat="46.4701222" lon="9.8026562"><ele>1793.0</ele><time>2026-04-11T12:34:00.019Z</time></trkpt><trkpt lat="46.4703173" lon="9.8027634"><ele>1795.3333333333333</ele><time>2026-04-11T12:34:01.019Z</time></trkpt><trkpt lat="46.4705031" lon="9.8028848"><ele>1797.6666666666665</ele><time>2026-04-11T12:34:02.019Z</time></trkpt><trkpt lat="46.4706782" lon="9.8030245"><ele>1800.0</ele><time>2026-04-11T12:34:03.019Z</time></trkpt><trkpt lat="46.4708368" lon="9.8031883"><ele>1800.0</ele><time>2026-04-11T12:34:04.019Z</time></trkpt><trkpt lat="46.470981" lon="9.8033814"><ele>1800.0</ele><time>2026-04-11T12:34:05.019Z</time></trkpt><trkpt lat="46.4711056" lon="9.8035889"><ele>1800.0</ele><time>2026-04-11T12:34:06.019Z</time></trkpt><trkpt lat="46.4712167" lon="9.803822"><ele>1798.6666666666665</ele><time>2026-04-11T12:34:07.019Z</time></trkpt><trkpt lat="46.4713205" lon="9.8040604"><ele>1797.3333333333333</ele><time>2026-04-11T12:34:08.019Z</time></trkpt><trkpt lat="46.4714286" lon="9.8042835"><ele>1796.0</ele><time>2026-04-11T12:34:09.019Z</time></trkpt><trkpt lat="46.4715567" lon="9.8044864"><ele>1796.0</ele><time>2026-04-11T12:34:10.019Z</time></trkpt><trkpt lat="46.4717058" lon="9.8046714"><ele>1796.0</ele><time>2026-04-11T12:34:11.019Z</time></trkpt><trkpt lat="46.4718749" lon="9.8048641"><ele>1796.0</ele><time>2026-04-11T12:34:12.019Z</time></trkpt><trkpt lat="46.4720639" lon="9.8050566"><ele>1796.0</ele><time>2026-04-11T12:34:13.019Z</time></trkpt><trkpt lat="46.472264" lon="9.8052433"><ele>1796.0</ele><time>2026-04-11T12:34:14.019Z</time></trkpt><trkpt lat="46.472463" lon="9.8054318"><ele>1796.0</ele><time>2026-04-11T12:34:15.018Z</time></trkpt><trkpt lat="46.4726473" lon="9.8056173"><ele>1796.0</ele><time>2026-04-11T12:34:16.018Z</time></trkpt><trkpt lat="46.4728094" lon="9.8058055"><ele>1796.0</ele><time>2026-04-11T12:34:17.019Z</time></trkpt><trkpt lat="46.4729617" lon="9.8059999"><ele>1796.6666666666665</ele><time>2026-04-11T12:34:18.019Z</time></trkpt><trkpt lat="46.4731101" lon="9.8062124"><ele>1797.3333333333335</ele><time>2026-04-11T12:34:19.019Z</time></trkpt><trkpt lat="46.4732536" lon="9.806452"><ele>1798.0</ele><time>2026-04-11T12:34:20.018Z</time></trkpt><trkpt lat="46.4733869" lon="9.8067379"><ele>1795.0</ele><time>2026-04-11T12:34:21.018Z</time></trkpt><trkpt lat="46.4735118" lon="9.8070384"><ele>1792.0</ele><time>2026-04-11T12:34:22.018Z</time></trkpt><trkpt lat="46.4736204" lon="9.807365"><ele>1791.5</ele><time>2026-04-11T12:34:23.018Z</time></trkpt><trkpt lat="46.4737174" lon="9.807707"><ele>1791.0</ele><time>2026-04-11T12:34:24.019Z</time></trkpt><trkpt lat="46.4737987" lon="9.8080562"><ele>1791.5</ele><time>2026-04-11T12:34:25.019Z</time></trkpt><trkpt lat="46.4738704" lon="9.8083932"><ele>1792.0</ele><time>2026-04-11T12:34:26.018Z</time></trkpt><trkpt lat="46.4739384" lon="9.8087279"><ele>1792.0</ele><time>2026-04-11T12:34:27.019Z</time></trkpt><trkpt lat="46.4739997" lon="9.8090516"><ele>1792.0</ele><time>2026-04-11T12:34:28.019Z</time></trkpt><trkpt lat="46.4740625" lon="9.8093713"><ele>1791.5</ele><time>2026-04-11T12:34:29.019Z</time></trkpt><trkpt lat="46.4741311" lon="9.8096886"><ele>1791.0</ele><time>2026-04-11T12:34:30.019Z</time></trkpt><trkpt lat="46.4742015" lon="9.8099987"><ele>1791.6666666666665</ele><time>2026-04-11T12:34:31.019Z</time></trkpt><trkpt lat="46.474279" lon="9.8103013"><ele>1792.3333333333333</ele><time>2026-04-11T12:34:32.019Z</time></trkpt><trkpt lat="46.4743642" lon="9.8106029"><ele>1793.0</ele><time>2026-04-11T12:34:33.018Z</time></trkpt><trkpt lat="46.4744561" lon="9.8108998"><ele>1792.0</ele><time>2026-04-11T12:34:34.019Z</time></trkpt><trkpt lat="46.4745511" lon="9.8111927"><ele>1791.0</ele><time>2026-04-11T12:34:35.019Z</time></trkpt><trkpt lat="46.4746568" lon="9.8114854"><ele>1792.0</ele><time>2026-04-11T12:34:36.018Z</time></trkpt><trkpt lat="46.4747654" lon="9.8117638"><ele>1793.0</ele><time>2026-04-11T12:34:37.019Z</time></trkpt><trkpt lat="46.4748735" lon="9.8120409"><ele>1794.0</ele><time>2026-04-11T12:34:38.019Z</time></trkpt><trkpt lat="46.4749801" lon="9.8123081"><ele>1794.0</ele><time>2026-04-11T12:34:39.019Z</time></trkpt><trkpt lat="46.4750819" lon="9.8125642"><ele>1794.0</ele><time>2026-04-11T12:34:40.018Z</time></trkpt><trkpt lat="46.4751837" lon="9.8128277"><ele>1794.0</ele><time>2026-04-11T12:34:41.019Z</time></trkpt><trkpt lat="46.4752831" lon="9.8130913"><ele>1793.0</ele><time>2026-04-11T12:34:42.019Z</time></trkpt><trkpt lat="46.4753748" lon="9.8133565"><ele>1792.0</ele><time>2026-04-11T12:34:43.019Z</time></trkpt><trkpt lat="46.4754603" lon="9.8136273"><ele>1791.0</ele><time>2026-04-11T12:34:44.019Z</time></trkpt><trkpt lat="46.475542" lon="9.813903"><ele>1793.0</ele><time>2026-04-11T12:34:45.018Z</time></trkpt><trkpt lat="46.475621" lon="9.8141811"><ele>1795.0</ele><time>2026-04-11T12:34:46.019Z</time></trkpt><trkpt lat="46.4756933" lon="9.814473"><ele>1797.0</ele><time>2026-04-11T12:34:47.019Z</time></trkpt><trkpt lat="46.4757653" lon="9.8147723"><ele>1797.0</ele><time>2026-04-11T12:34:48.018Z</time></trkpt><trkpt lat="46.4758299" lon="9.8150704"><ele>1797.0</ele><time>2026-04-11T12:34:49.019Z</time></trkpt><trkpt lat="46.4758879" lon="9.8153769"><ele>1797.0</ele><time>2026-04-11T12:34:50.019Z</time></trkpt><trkpt lat="46.475941" lon="9.8156926"><ele>1795.5</ele><time>2026-04-11T12:34:51.019Z</time></trkpt><trkpt lat="46.4759912" lon="9.8160099"><ele>1794.0</ele><time>2026-04-11T12:34:52.019Z</time></trkpt><trkpt lat="46.4760452" lon="9.8163276"><ele>1794.0</ele><time>2026-04-11T12:34:53.019Z</time></trkpt><trkpt lat="46.4760981" lon="9.8166482"><ele>1794.0</ele><time>2026-04-11T12:34:54.018Z</time></trkpt><trkpt lat="46.4761455" lon="9.8169638"><ele>1794.0</ele><time>2026-04-11T12:34:55.019Z</time></trkpt><trkpt lat="46.4761964" lon="9.8172764"><ele>1794.6666666666665</ele><time>2026-04-11T12:34:56.019Z</time></trkpt><trkpt lat="46.476247" lon="9.817586"><ele>1795.3333333333333</ele><time>2026-04-11T12:34:57.019Z</time></trkpt><trkpt lat="46.4762978" lon="9.817893"><ele>1796.0</ele><time>2026-04-11T12:34:58.019Z</time></trkpt><trkpt lat="46.4763496" lon="9.8181953"><ele>1800.6666666666665</ele><time>2026-04-11T12:34:59.019Z</time></trkpt><trkpt lat="46.4764042" lon="9.8185042"><ele>1805.3333333333335</ele><time>2026-04-11T12:35:00.019Z</time></trkpt><trkpt lat="46.4764586" lon="9.8188105"><ele>1810.0</ele><time>2026-04-11T12:35:01.018Z</time></trkpt><trkpt lat="46.4765229" lon="9.8191147"><ele>1808.0</ele><time>2026-04-11T12:35:02.019Z</time></trkpt><trkpt lat="46.4765946" lon="9.8194168"><ele>1806.0</ele><time>2026-04-11T12:35:03.019Z</time></trkpt><trkpt lat="46.4766784" lon="9.8197172"><ele>1804.0</ele><time>2026-04-11T12:35:04.018Z</time></trkpt><trkpt lat="46.4767712" lon="9.8200114"><ele>1802.0</ele><time>2026-04-11T12:35:05.018Z</time></trkpt><trkpt lat="46.4768804" lon="9.8202971"><ele>1800.0</ele><time>2026-04-11T12:35:06.019Z</time></trkpt><trkpt lat="46.4769944" lon="9.8205887"><ele>1800.0</ele><time>2026-04-11T12:35:07.019Z</time></trkpt><trkpt lat="46.4771182" lon="9.8208768"><ele>1800.0</ele><time>2026-04-11T12:35:08.019Z</time></trkpt><trkpt lat="46.4772475" lon="9.8211466"><ele>1800.0</ele><time>2026-04-11T12:35:09.019Z</time></trkpt><trkpt lat="46.4773742" lon="9.821408"><ele>1800.0</ele><time>2026-04-11T12:35:10.019Z</time></trkpt><trkpt lat="46.4775037" lon="9.8216611"><ele>1800.0</ele><time>2026-04-11T12:35:11.018Z</time></trkpt><trkpt lat="46.4776358" lon="9.8219025"><ele>1799.6666666666665</ele><time>2026-04-11T12:35:12.019Z</time></trkpt><trkpt lat="46.4777731" lon="9.8221396"><ele>1799.3333333333333</ele><time>2026-04-11T12:35:13.019Z</time></trkpt><trkpt lat="46.4779101" lon="9.8223727"><ele>1799.0</ele><time>2026-04-11T12:35:14.019Z</time></trkpt><trkpt lat="46.4780567" lon="9.8225997"><ele>1795.6666666666665</ele><time>2026-04-11T12:35:15.019Z</time></trkpt><trkpt lat="46.4781978" lon="9.8228216"><ele>1792.3333333333335</ele><time>2026-04-11T12:35:16.019Z</time></trkpt><trkpt lat="46.4783416" lon="9.8230299"><ele>1789.0</ele><time>2026-04-11T12:35:17.019Z</time></trkpt><trkpt lat="46.478477" lon="9.8232329"><ele>1789.0</ele><time>2026-04-11T12:35:18.018Z</time></trkpt><trkpt lat="46.4786102" lon="9.8234324"><ele>1789.0</ele><time>2026-04-11T12:35:19.019Z</time></trkpt><trkpt lat="46.4787515" lon="9.8236261"><ele>1789.0</ele><time>2026-04-11T12:35:20.019Z</time></trkpt><trkpt lat="46.4788875" lon="9.8238172"><ele>1787.6666666666667</ele><time>2026-04-11T12:35:21.019Z</time></trkpt><trkpt lat="46.479018" lon="9.8240095"><ele>1786.3333333333335</ele><time>2026-04-11T12:35:22.019Z</time></trkpt><trkpt lat="46.4791507" lon="9.8241892"><ele>1785.0</ele><time>2026-04-11T12:35:23.019Z</time></trkpt><trkpt lat="46.4792882" lon="9.8243739"><ele>1784.3333333333335</ele><time>2026-04-11T12:35:24.019Z</time></trkpt><trkpt lat="46.4794301" lon="9.8245586"><ele>1783.6666666666667</ele><time>2026-04-11T12:35:25.019Z</time></trkpt><trkpt lat="46.4795704" lon="9.8247526"><ele>1783.0</ele><time>2026-04-11T12:35:26.019Z</time></trkpt><trkpt lat="46.4797081" lon="9.8249766"><ele>1786.6666666666667</ele><time>2026-04-11T12:35:27.018Z</time></trkpt><trkpt lat="46.4798358" lon="9.8252008"><ele>1790.3333333333335</ele><time>2026-04-11T12:35:28.018Z</time></trkpt><trkpt lat="46.4799371" lon="9.8254404"><ele>1794.0</ele><time>2026-04-11T12:35:29.019Z</time></trkpt><trkpt lat="46.4800193" lon="9.825678"><ele>1794.0</ele><time>2026-04-11T12:35:30.019Z</time></trkpt><trkpt lat="46.480088" lon="9.8259239"><ele>1794.0</ele><time>2026-04-11T12:35:31.019Z</time></trkpt><trkpt lat="46.4801471" lon="9.8261715"><ele>1794.0</ele><time>2026-04-11T12:35:32.019Z</time></trkpt><trkpt lat="46.4801899" lon="9.8264174"><ele>1791.6666666666665</ele><time>2026-04-11T12:35:33.019Z</time></trkpt><trkpt lat="46.4802224" lon="9.82665"><ele>1789.3333333333333</ele><time>2026-04-11T12:35:34.019Z</time></trkpt><trkpt lat="46.4802576" lon="9.8268801"><ele>1787.0</ele><time>2026-04-11T12:35:35.019Z</time></trkpt><trkpt lat="46.4802955" lon="9.8270978"><ele>1785.3333333333333</ele><time>2026-04-11T12:35:36.018Z</time></trkpt><trkpt lat="46.4803452" lon="9.8273181"><ele>1783.6666666666665</ele><time>2026-04-11T12:35:37.019Z</time></trkpt><trkpt lat="46.4803847" lon="9.8275314"><ele>1782.0</ele><time>2026-04-11T12:35:38.019Z</time></trkpt><trkpt lat="46.4804193" lon="9.8277431"><ele>1782.0</ele><time>2026-04-11T12:35:39.019Z</time></trkpt><trkpt lat="46.4804547" lon="9.8279395"><ele>1782.0</ele><time>2026-04-11T12:35:40.019Z</time></trkpt><trkpt lat="46.4804864" lon="9.8281305"><ele>1782.0</ele><time>2026-04-11T12:35:41.019Z</time></trkpt><trkpt lat="46.4805171" lon="9.8283176"><ele>1782.0</ele><time>2026-04-11T12:35:42.018Z</time></trkpt><trkpt lat="46.4805429" lon="9.8284973"><ele>1782.0</ele><time>2026-04-11T12:35:43.019Z</time></trkpt><trkpt lat="46.4805715" lon="9.8286662"><ele>1782.0</ele><time>2026-04-11T12:35:44.019Z</time></trkpt><trkpt lat="46.4806129" lon="9.8288435"><ele>1782.0</ele><time>2026-04-11T12:35:45.019Z</time></trkpt><trkpt lat="46.4806649" lon="9.8290207"><ele>1782.0</ele><time>2026-04-11T12:35:46.019Z</time></trkpt><trkpt lat="46.4807332" lon="9.8291995"><ele>1781.5</ele><time>2026-04-11T12:35:47.019Z</time></trkpt><trkpt lat="46.4808162" lon="9.8293764"><ele>1781.0</ele><time>2026-04-11T12:35:48.019Z</time></trkpt><trkpt lat="46.4809017" lon="9.8295456"><ele>1780.5</ele><time>2026-04-11T12:35:49.019Z</time></trkpt><trkpt lat="46.4809884" lon="9.8297085"><ele>1780.0</ele><time>2026-04-11T12:35:50.019Z</time></trkpt><trkpt lat="46.4810685" lon="9.8298631"><ele>1780.0</ele><time>2026-04-11T12:35:51.018Z</time></trkpt><trkpt lat="46.4811437" lon="9.8300256"><ele>1780.0</ele><time>2026-04-11T12:35:52.019Z</time></trkpt><trkpt lat="46.4812201" lon="9.8301818"><ele>1780.0</ele><time>2026-04-11T12:35:53.018Z</time></trkpt><trkpt lat="46.4812952" lon="9.830327"><ele>1780.0</ele><time>2026-04-11T12:35:54.019Z</time></trkpt><trkpt lat="46.4813664" lon="9.8304708"><ele>1779.8</ele><time>2026-04-11T12:35:55.019Z</time></trkpt><trkpt lat="46.4814348" lon="9.8306083"><ele>1779.6</ele><time>2026-04-11T12:35:56.019Z</time></trkpt><trkpt lat="46.4815044" lon="9.8307408"><ele>1779.4</ele><time>2026-04-11T12:35:57.019Z</time></trkpt><trkpt lat="46.4815766" lon="9.8308649"><ele>1779.2</ele><time>2026-04-11T12:35:58.019Z</time></trkpt><trkpt lat="46.4816416" lon="9.8309749"><ele>1779.0</ele><time>2026-04-11T12:35:59.019Z</time></trkpt><trkpt lat="46.481695" lon="9.8310746"><ele>1779.0</ele><time>2026-04-11T12:36:00.019Z</time></trkpt><trkpt lat="46.48174" lon="9.8311673"><ele>1779.0</ele><time>2026-04-11T12:36:01.019Z</time></trkpt><trkpt lat="46.4817717" lon="9.8312579"><ele>1779.0</ele><time>2026-04-11T12:36:02.019Z</time></trkpt><trkpt lat="46.4817941" lon="9.8313589"><ele>1779.0</ele><time>2026-04-11T12:36:03.019Z</time></trkpt><trkpt lat="46.4818359" lon="9.8314435"><ele>1779.0</ele><time>2026-04-11T12:36:04.019Z</time></trkpt><trkpt lat="46.4818976" lon="9.8315055"><ele>1779.0</ele><time>2026-04-11T12:36:05.019Z</time></trkpt><trkpt lat="46.4819759" lon="9.8315402"><ele>1779.0</ele><time>2026-04-11T12:36:06.019Z</time></trkpt><trkpt lat="46.4820719" lon="9.8315906"><ele>1779.0</ele><time>2026-04-11T12:36:07.019Z</time></trkpt><trkpt lat="46.482166" lon="9.8316732"><ele>1779.0</ele><time>2026-04-11T12:36:08.019Z</time></trkpt><trkpt lat="46.4822653" lon="9.8317763"><ele>1779.0</ele><time>2026-04-11T12:36:09.019Z</time></trkpt><trkpt lat="46.4823633" lon="9.8318996"><ele>1778.25</ele><time>2026-04-11T12:36:10.019Z</time></trkpt><trkpt lat="46.4824596" lon="9.8320119"><ele>1777.5</ele><time>2026-04-11T12:36:11.019Z</time></trkpt><trkpt lat="46.4825511" lon="9.8321202"><ele>1776.75</ele><time>2026-04-11T12:36:12.019Z</time></trkpt><trkpt lat="46.4826481" lon="9.832237"><ele>1776.0</ele><time>2026-04-11T12:36:13.019Z</time></trkpt><trkpt lat="46.4827409" lon="9.8323613"><ele>1776.0</ele><time>2026-04-11T12:36:14.019Z</time></trkpt><trkpt lat="46.4828366" lon="9.8324784"><ele>1776.0</ele><time>2026-04-11T12:36:15.018Z</time></trkpt><trkpt lat="46.4829328" lon="9.8325875"><ele>1776.0</ele><time>2026-04-11T12:36:16.019Z</time></trkpt><trkpt lat="46.4830269" lon="9.83269"><ele>1776.0</ele><time>2026-04-11T12:36:17.019Z</time></trkpt><trkpt lat="46.4831176" lon="9.8327984"><ele>1776.0</ele><time>2026-04-11T12:36:18.019Z</time></trkpt><trkpt lat="46.4832036" lon="9.8329063"><ele>1776.0</ele><time>2026-04-11T12:36:19.019Z</time></trkpt><trkpt lat="46.4832865" lon="9.8330017"><ele>1776.0</ele><time>2026-04-11T12:36:20.019Z</time></trkpt><trkpt lat="46.4833647" lon="9.8330887"><ele>1776.0</ele><time>2026-04-11T12:36:21.019Z</time></trkpt><trkpt lat="46.4834357" lon="9.8331664"><ele>1776.0</ele><time>2026-04-11T12:36:22.019Z</time></trkpt><trkpt lat="46.4834949" lon="9.8332394"><ele>1776.0</ele><time>2026-04-11T12:36:23.019Z</time></trkpt><trkpt lat="46.4835497" lon="9.8333004"><ele>1776.0</ele><time>2026-04-11T12:36:24.019Z</time></trkpt><trkpt lat="46.4836285" lon="9.8334372"><ele>1776.0</ele><time>2026-04-11T12:36:26.019Z</time></trkpt><trkpt lat="46.4836708" lon="9.8335131"><ele>1776.0</ele><time>2026-04-11T12:36:27.018Z</time></trkpt><trkpt lat="46.4837386" lon="9.8335695"><ele>1776.0</ele><time>2026-04-11T12:36:28.019Z</time></trkpt><trkpt lat="46.4838275" lon="9.833637"><ele>1776.0</ele><time>2026-04-11T12:36:29.018Z</time></trkpt><trkpt lat="46.4839213" lon="9.8337149"><ele>1775.75</ele><time>2026-04-11T12:36:30.018Z</time></trkpt><trkpt lat="46.4840246" lon="9.8338111"><ele>1775.5</ele><time>2026-04-11T12:36:31.019Z</time></trkpt><trkpt lat="46.4841178" lon="9.8339173"><ele>1775.25</ele><time>2026-04-11T12:36:32.019Z</time></trkpt><trkpt lat="46.4842056" lon="9.8340171"><ele>1775.0</ele><time>2026-04-11T12:36:33.019Z</time></trkpt><trkpt lat="46.4842994" lon="9.8341073"><ele>1775.0</ele><time>2026-04-11T12:36:34.018Z</time></trkpt><trkpt lat="46.4843975" lon="9.8341923"><ele>1775.0</ele><time>2026-04-11T12:36:35.019Z</time></trkpt><trkpt lat="46.484496" lon="9.8342805"><ele>1775.0</ele><time>2026-04-11T12:36:36.019Z</time></trkpt><trkpt lat="46.4846012" lon="9.8343623"><ele>1775.0</ele><time>2026-04-11T12:36:37.019Z</time></trkpt><trkpt lat="46.4847134" lon="9.8344459"><ele>1775.75</ele><time>2026-04-11T12:36:38.018Z</time></trkpt><trkpt lat="46.484825" lon="9.8345343"><ele>1776.5</ele><time>2026-04-11T12:36:39.019Z</time></trkpt><trkpt lat="46.4849267" lon="9.8346163"><ele>1777.25</ele><time>2026-04-11T12:36:40.019Z</time></trkpt><trkpt lat="46.4850242" lon="9.8347014"><ele>1778.0</ele><time>2026-04-11T12:36:41.019Z</time></trkpt><trkpt lat="46.485116" lon="9.8347809"><ele>1778.0</ele><time>2026-04-11T12:36:42.018Z</time></trkpt><trkpt lat="46.4852069" lon="9.8348491"><ele>1778.0000000000002</ele><time>2026-04-11T12:36:43.019Z</time></trkpt><trkpt lat="46.4852915" lon="9.8349166"><ele>1778.0000000000002</ele><time>2026-04-11T12:36:44.018Z</time></trkpt><trkpt lat="46.4853762" lon="9.8349796"><ele>1778.0</ele><time>2026-04-11T12:36:45.019Z</time></trkpt><trkpt lat="46.4854602" lon="9.8350455"><ele>1778.0</ele><time>2026-04-11T12:36:46.019Z</time></trkpt><trkpt lat="46.4855488" lon="9.8351157"><ele>1777.4</ele><time>2026-04-11T12:36:47.019Z</time></trkpt><trkpt lat="46.485643" lon="9.8351912"><ele>1776.8000000000002</ele><time>2026-04-11T12:36:48.019Z</time></trkpt><trkpt lat="46.4857436" lon="9.8352554"><ele>1776.2</ele><time>2026-04-11T12:36:49.019Z</time></trkpt><trkpt lat="46.4858429" lon="9.835326"><ele>1775.6</ele><time>2026-04-11T12:36:50.019Z</time></trkpt><trkpt lat="46.4859388" lon="9.8353996"><ele>1775.0</ele><time>2026-04-11T12:36:51.019Z</time></trkpt><trkpt lat="46.4860352" lon="9.8354719"><ele>1775.0</ele><time>2026-04-11T12:36:52.019Z</time></trkpt><trkpt lat="46.4861278" lon="9.8355424"><ele>1775.0</ele><time>2026-04-11T12:36:53.019Z</time></trkpt><trkpt lat="46.4862255" lon="9.8356151"><ele>1775.0</ele><time>2026-04-11T12:36:54.018Z</time></trkpt><trkpt lat="46.4863269" lon="9.8356853"><ele>1775.0</ele><time>2026-04-11T12:36:55.019Z</time></trkpt><trkpt lat="46.486431" lon="9.8357522"><ele>1775.0</ele><time>2026-04-11T12:36:56.019Z</time></trkpt><trkpt lat="46.4865405" lon="9.8358162"><ele>1775.25</ele><time>2026-04-11T12:36:57.019Z</time></trkpt><trkpt lat="46.486658" lon="9.8358669"><ele>1775.5</ele><time>2026-04-11T12:36:58.019Z</time></trkpt><trkpt lat="46.4867744" lon="9.83591"><ele>1775.75</ele><time>2026-04-11T12:36:59.019Z</time></trkpt><trkpt lat="46.4868995" lon="9.8359491"><ele>1776.0</ele><time>2026-04-11T12:37:00.019Z</time></trkpt><trkpt lat="46.4870242" lon="9.8359866"><ele>1775.8</ele><time>2026-04-11T12:37:01.019Z</time></trkpt><trkpt lat="46.4871413" lon="9.8360262"><ele>1775.6</ele><time>2026-04-11T12:37:02.019Z</time></trkpt><trkpt lat="46.4872462" lon="9.8360675"><ele>1775.4</ele><time>2026-04-11T12:37:03.019Z</time></trkpt><trkpt lat="46.4873486" lon="9.836101"><ele>1775.2</ele><time>2026-04-11T12:37:04.019Z</time></trkpt><trkpt lat="46.4874535" lon="9.8361343"><ele>1775.0</ele><time>2026-04-11T12:37:05.019Z</time></trkpt><trkpt lat="46.4875471" lon="9.8361671"><ele>1774.9999999999998</ele><time>2026-04-11T12:37:06.019Z</time></trkpt><trkpt lat="46.4876349" lon="9.8362043"><ele>1775.0</ele><time>2026-04-11T12:37:07.019Z</time></trkpt><trkpt lat="46.4877178" lon="9.8362325"><ele>1775.0</ele><time>2026-04-11T12:37:08.018Z</time></trkpt><trkpt lat="46.4877995" lon="9.8362576"><ele>1775.0</ele><time>2026-04-11T12:37:09.019Z</time></trkpt><trkpt lat="46.4878852" lon="9.8362864"><ele>1774.9999999999998</ele><time>2026-04-11T12:37:10.019Z</time></trkpt><trkpt lat="46.487964" lon="9.8363068"><ele>1775.0</ele><time>2026-04-11T12:37:11.019Z</time></trkpt><trkpt lat="46.4880427" lon="9.8363345"><ele>1774.8333333333333</ele><time>2026-04-11T12:37:12.019Z</time></trkpt><trkpt lat="46.4881122" lon="9.8363908"><ele>1774.6666666666665</ele><time>2026-04-11T12:37:13.018Z</time></trkpt><trkpt lat="46.4881794" lon="9.8364457"><ele>1774.5</ele><time>2026-04-11T12:37:14.019Z</time></trkpt><trkpt lat="46.4882465" lon="9.8364919"><ele>1774.3333333333335</ele><time>2026-04-11T12:37:15.019Z</time></trkpt><trkpt lat="46.4883235" lon="9.8364878"><ele>1774.1666666666667</ele><time>2026-04-11T12:37:16.019Z</time></trkpt><trkpt lat="46.4884154" lon="9.8364469"><ele>1774.0</ele><time>2026-04-11T12:37:17.019Z</time></trkpt><trkpt lat="46.4885126" lon="9.8364039"><ele>1774.0000000000002</ele><time>2026-04-11T12:37:18.018Z</time></trkpt><trkpt lat="46.4886128" lon="9.8363633"><ele>1774.0</ele><time>2026-04-11T12:37:19.019Z</time></trkpt><trkpt lat="46.4887" lon="9.8363287"><ele>1774.0</ele><time>2026-04-11T12:37:20.019Z</time></trkpt><trkpt lat="46.4887766" lon="9.8362881"><ele>1774.0</ele><time>2026-04-11T12:37:21.019Z</time></trkpt><trkpt lat="46.4888456" lon="9.8362414"><ele>1774.0000000000002</ele><time>2026-04-11T12:37:22.019Z</time></trkpt><trkpt lat="46.4889088" lon="9.8361992"><ele>1774.0</ele><time>2026-04-11T12:37:23.019Z</time></trkpt><trkpt lat="46.4889705" lon="9.8361601"><ele>1774.0000000000002</ele><time>2026-04-11T12:37:24.019Z</time></trkpt><trkpt lat="46.4890283" lon="9.8361155"><ele>1774.0</ele><time>2026-04-11T12:37:25.019Z</time></trkpt><trkpt lat="46.4890846" lon="9.8360631"><ele>1774.0</ele><time>2026-04-11T12:37:26.019Z</time></trkpt><trkpt lat="46.4891496" lon="9.8359999"><ele>1774.0</ele><time>2026-04-11T12:37:27.019Z</time></trkpt><trkpt lat="46.4892209" lon="9.8359266"><ele>1774.0000000000002</ele><time>2026-04-11T12:37:28.019Z</time></trkpt><trkpt lat="46.4892981" lon="9.8358572"><ele>1774.0</ele><time>2026-04-11T12:37:29.019Z</time></trkpt><trkpt lat="46.4893661" lon="9.8357932"><ele>1774.0000000000002</ele><time>2026-04-11T12:37:30.018Z</time></trkpt><trkpt lat="46.4894334" lon="9.8357326"><ele>1774.0</ele><time>2026-04-11T12:37:31.019Z</time></trkpt><trkpt lat="46.4895032" lon="9.8356765"><ele>1774.0</ele><time>2026-04-11T12:37:32.019Z</time></trkpt><trkpt lat="46.4895761" lon="9.8356272"><ele>1774.0</ele><time>2026-04-11T12:37:33.018Z</time></trkpt><trkpt lat="46.4896705" lon="9.8355779"><ele>1774.0000000000002</ele><time>2026-04-11T12:37:34.019Z</time></trkpt><trkpt lat="46.4897734" lon="9.8355354"><ele>1774.0</ele><time>2026-04-11T12:37:35.019Z</time></trkpt><trkpt lat="46.4898821" lon="9.8355007"><ele>1774.0</ele><time>2026-04-11T12:37:36.019Z</time></trkpt><trkpt lat="46.4899894" lon="9.8354817"><ele>1774.0</ele><time>2026-04-11T12:37:37.019Z</time></trkpt><trkpt lat="46.4900974" lon="9.8354673"><ele>1774.0</ele><time>2026-04-11T12:37:38.019Z</time></trkpt><trkpt lat="46.490188" lon="9.8354611"><ele>1774.0</ele><time>2026-04-11T12:37:39.019Z</time></trkpt><trkpt lat="46.4902657" lon="9.8354636"><ele>1774.0</ele><time>2026-04-11T12:37:40.019Z</time></trkpt><trkpt lat="46.4903461" lon="9.8354647"><ele>1774.0000000000002</ele><time>2026-04-11T12:37:41.019Z</time></trkpt><trkpt lat="46.490424" lon="9.835469"><ele>1774.0</ele><time>2026-04-11T12:37:42.019Z</time></trkpt><trkpt lat="46.4905024" lon="9.8354662"><ele>1774.0</ele><time>2026-04-11T12:37:43.019Z</time></trkpt><trkpt lat="46.4905868" lon="9.8354741"><ele>1774.0</ele><time>2026-04-11T12:37:44.019Z</time></trkpt><trkpt lat="46.4906732" lon="9.8354856"><ele>1774.0000000000002</ele><time>2026-04-11T12:37:45.019Z</time></trkpt><trkpt lat="46.4907654" lon="9.8355015"><ele>1774.0</ele><time>2026-04-11T12:37:46.019Z</time></trkpt><trkpt lat="46.4908611" lon="9.8355123"><ele>1773.8333333333335</ele><time>2026-04-11T12:37:47.019Z</time></trkpt><trkpt lat="46.4909459" lon="9.8355319"><ele>1773.6666666666667</ele><time>2026-04-11T12:37:48.018Z</time></trkpt><trkpt lat="46.4910316" lon="9.8355517"><ele>1773.5</ele><time>2026-04-11T12:37:49.019Z</time></trkpt><trkpt lat="46.4911109" lon="9.8355667"><ele>1773.3333333333335</ele><time>2026-04-11T12:37:50.019Z</time></trkpt><trkpt lat="46.4911887" lon="9.8355796"><ele>1773.1666666666667</ele><time>2026-04-11T12:37:51.019Z</time></trkpt><trkpt lat="46.4912651" lon="9.8355942"><ele>1773.0</ele><time>2026-04-11T12:37:52.019Z</time></trkpt><trkpt lat="46.4913451" lon="9.8356019"><ele>1773.0</ele><time>2026-04-11T12:37:53.019Z</time></trkpt><trkpt lat="46.4914307" lon="9.8356132"><ele>1773.0000000000002</ele><time>2026-04-11T12:37:54.019Z</time></trkpt><trkpt lat="46.4915181" lon="9.8356345"><ele>1773.0000000000002</ele><time>2026-04-11T12:37:55.018Z</time></trkpt><trkpt lat="46.4916078" lon="9.835661"><ele>1773.0</ele><time>2026-04-11T12:37:56.019Z</time></trkpt><trkpt lat="46.4916991" lon="9.8356847"><ele>1773.0</ele><time>2026-04-11T12:37:57.019Z</time></trkpt><trkpt lat="46.4917923" lon="9.8357072"><ele>1773.0</ele><time>2026-04-11T12:37:58.019Z</time></trkpt><trkpt lat="46.4918883" lon="9.8357301"><ele>1773.0000000000002</ele><time>2026-04-11T12:37:59.019Z</time></trkpt><trkpt lat="46.4919842" lon="9.8357446"><ele>1773.0000000000002</ele><time>2026-04-11T12:38:00.019Z</time></trkpt><trkpt lat="46.492073" lon="9.8357669"><ele>1773.0</ele><time>2026-04-11T12:38:01.019Z</time></trkpt><trkpt lat="46.4921613" lon="9.8357835"><ele>1773.0</ele><time>2026-04-11T12:38:02.019Z</time></trkpt><trkpt lat="46.4922505" lon="9.8357992"><ele>1773.6000000000001</ele><time>2026-04-11T12:38:03.019Z</time></trkpt><trkpt lat="46.4923435" lon="9.8358237"><ele>1774.2000000000003</ele><time>2026-04-11T12:38:04.019Z</time></trkpt><trkpt lat="46.4924409" lon="9.8358479"><ele>1774.8</ele><time>2026-04-11T12:38:05.019Z</time></trkpt><trkpt lat="46.4925391" lon="9.8358784"><ele>1775.4</ele><time>2026-04-11T12:38:06.019Z</time></trkpt><trkpt lat="46.4926382" lon="9.8359139"><ele>1776.0</ele><time>2026-04-11T12:38:07.018Z</time></trkpt><trkpt lat="46.4927425" lon="9.8359607"><ele>1775.8</ele><time>2026-04-11T12:38:08.019Z</time></trkpt><trkpt lat="46.4928456" lon="9.8360147"><ele>1775.6</ele><time>2026-04-11T12:38:09.019Z</time></trkpt><trkpt lat="46.4929449" lon="9.836079"><ele>1775.4</ele><time>2026-04-11T12:38:10.018Z</time></trkpt><trkpt lat="46.4930436" lon="9.8361452"><ele>1775.2</ele><time>2026-04-11T12:38:11.019Z</time></trkpt><trkpt lat="46.4931425" lon="9.8362178"><ele>1775.0</ele><time>2026-04-11T12:38:12.019Z</time></trkpt><trkpt lat="46.4932281" lon="9.8362946"><ele>1775.0</ele><time>2026-04-11T12:38:13.019Z</time></trkpt><trkpt lat="46.4933243" lon="9.8363742"><ele>1775.0</ele><time>2026-04-11T12:38:14.019Z</time></trkpt><trkpt lat="46.4934188" lon="9.8364731"><ele>1775.0</ele><time>2026-04-11T12:38:15.019Z</time></trkpt><trkpt lat="46.4935135" lon="9.8365859"><ele>1775.0</ele><time>2026-04-11T12:38:16.019Z</time></trkpt><trkpt lat="46.4936038" lon="9.8367078"><ele>1776.0</ele><time>2026-04-11T12:38:17.019Z</time></trkpt><trkpt lat="46.4936917" lon="9.8368438"><ele>1777.0</ele><time>2026-04-11T12:38:18.018Z</time></trkpt><trkpt lat="46.4937699" lon="9.8369911"><ele>1778.0</ele><time>2026-04-11T12:38:19.019Z</time></trkpt><trkpt lat="46.4938368" lon="9.8371394"><ele>1779.0</ele><time>2026-04-11T12:38:20.019Z</time></trkpt><trkpt lat="46.4938985" lon="9.8372793"><ele>1779.0</ele><time>2026-04-11T12:38:21.019Z</time></trkpt><trkpt lat="46.4939577" lon="9.8374221"><ele>1779.0</ele><time>2026-04-11T12:38:22.019Z</time></trkpt><trkpt lat="46.4940181" lon="9.8375661"><ele>1779.0</ele><time>2026-04-11T12:38:23.019Z</time></trkpt><trkpt lat="46.4940742" lon="9.8377097"><ele>1779.0</ele><time>2026-04-11T12:38:24.019Z</time></trkpt><trkpt lat="46.4941301" lon="9.837858"><ele>1778.0</ele><time>2026-04-11T12:38:25.019Z</time></trkpt><trkpt lat="46.4941814" lon="9.8380092"><ele>1777.0</ele><time>2026-04-11T12:38:26.019Z</time></trkpt><trkpt lat="46.4942317" lon="9.838162"><ele>1776.0</ele><time>2026-04-11T12:38:27.019Z</time></trkpt><trkpt lat="46.4942803" lon="9.8383141"><ele>1775.0</ele><time>2026-04-11T12:38:28.019Z</time></trkpt><trkpt lat="46.494329" lon="9.838467"><ele>1775.0</ele><time>2026-04-11T12:38:29.019Z</time></trkpt><trkpt lat="46.4943831" lon="9.8386148"><ele>1775.0</ele><time>2026-04-11T12:38:30.019Z</time></trkpt><trkpt lat="46.4944345" lon="9.8387611"><ele>1775.0</ele><time>2026-04-11T12:38:31.019Z</time></trkpt><trkpt lat="46.4944914" lon="9.8389111"><ele>1775.0</ele><time>2026-04-11T12:38:32.019Z</time></trkpt><trkpt lat="46.4945477" lon="9.8390455"><ele>1774.8</ele><time>2026-04-11T12:38:33.018Z</time></trkpt><trkpt lat="46.4946093" lon="9.8391816"><ele>1774.6</ele><time>2026-04-11T12:38:34.018Z</time></trkpt><trkpt lat="46.4946662" lon="9.839307"><ele>1774.4</ele><time>2026-04-11T12:38:35.019Z</time></trkpt><trkpt lat="46.4947229" lon="9.839425"><ele>1774.2</ele><time>2026-04-11T12:38:36.019Z</time></trkpt><trkpt lat="46.4947843" lon="9.8395466"><ele>1774.0</ele><time>2026-04-11T12:38:37.019Z</time></trkpt><trkpt lat="46.4948478" lon="9.8396707"><ele>1774.0</ele><time>2026-04-11T12:38:38.019Z</time></trkpt><trkpt lat="46.494921" lon="9.8397903"><ele>1774.0</ele><time>2026-04-11T12:38:39.019Z</time></trkpt><trkpt lat="46.4949991" lon="9.8399117"><ele>1774.0</ele><time>2026-04-11T12:38:40.019Z</time></trkpt><trkpt lat="46.4950806" lon="9.840028"><ele>1774.0</ele><time>2026-04-11T12:38:41.019Z</time></trkpt><trkpt lat="46.4951646" lon="9.8401408"><ele>1774.8000000000002</ele><time>2026-04-11T12:38:42.019Z</time></trkpt><trkpt lat="46.4952488" lon="9.840247"><ele>1775.6000000000001</ele><time>2026-04-11T12:38:43.018Z</time></trkpt><trkpt lat="46.4953279" lon="9.840352"><ele>1776.4</ele><time>2026-04-11T12:38:44.019Z</time></trkpt><trkpt lat="46.4954063" lon="9.8404578"><ele>1777.2</ele><time>2026-04-11T12:38:45.019Z</time></trkpt><trkpt lat="46.4954832" lon="9.8405624"><ele>1778.0</ele><time>2026-04-11T12:38:46.019Z</time></trkpt><trkpt lat="46.4955632" lon="9.8406648"><ele>1778.0</ele><time>2026-04-11T12:38:47.019Z</time></trkpt><trkpt lat="46.4956429" lon="9.8407686"><ele>1778.0000000000002</ele><time>2026-04-11T12:38:48.019Z</time></trkpt><trkpt lat="46.4957268" lon="9.8408749"><ele>1778.0000000000002</ele><time>2026-04-11T12:38:49.019Z</time></trkpt><trkpt lat="46.4958068" lon="9.8409893"><ele>1778.0</ele><time>2026-04-11T12:38:50.019Z</time></trkpt><trkpt lat="46.4958786" lon="9.8411159"><ele>1778.0</ele><time>2026-04-11T12:38:51.019Z</time></trkpt><trkpt lat="46.4959503" lon="9.8412457"><ele>1776.4</ele><time>2026-04-11T12:38:52.019Z</time></trkpt><trkpt lat="46.4960231" lon="9.8413775"><ele>1774.8000000000002</ele><time>2026-04-11T12:38:53.019Z</time></trkpt><trkpt lat="46.4960861" lon="9.8415101"><ele>1773.2</ele><time>2026-04-11T12:38:54.019Z</time></trkpt><trkpt lat="46.4961464" lon="9.841638"><ele>1771.6</ele><time>2026-04-11T12:38:55.019Z</time></trkpt><trkpt lat="46.4962002" lon="9.8417645"><ele>1770.0</ele><time>2026-04-11T12:38:56.019Z</time></trkpt><trkpt lat="46.4962484" lon="9.8418853"><ele>1772.6</ele><time>2026-04-11T12:38:57.019Z</time></trkpt><trkpt lat="46.4962915" lon="9.8420089"><ele>1775.2</ele><time>2026-04-11T12:38:58.019Z</time></trkpt><trkpt lat="46.4963325" lon="9.842142"><ele>1777.8000000000002</ele><time>2026-04-11T12:38:59.019Z</time></trkpt><trkpt lat="46.4963667" lon="9.8422891"><ele>1780.4</ele><time>2026-04-11T12:39:00.019Z</time></trkpt><trkpt lat="46.4963963" lon="9.8424341"><ele>1783.0</ele><time>2026-04-11T12:39:01.019Z</time></trkpt><trkpt lat="46.496424" lon="9.8425693"><ele>1781.8333333333335</ele><time>2026-04-11T12:39:02.018Z</time></trkpt><trkpt lat="46.4964521" lon="9.8427019"><ele>1780.6666666666667</ele><time>2026-04-11T12:39:03.019Z</time></trkpt><trkpt lat="46.4964774" lon="9.8428301"><ele>1779.5</ele><time>2026-04-11T12:39:04.019Z</time></trkpt><trkpt lat="46.4965014" lon="9.8429502"><ele>1778.3333333333335</ele><time>2026-04-11T12:39:05.019Z</time></trkpt><trkpt lat="46.496527" lon="9.8430631"><ele>1777.1666666666667</ele><time>2026-04-11T12:39:06.019Z</time></trkpt><trkpt lat="46.4965482" lon="9.843174"><ele>1776.0</ele><time>2026-04-11T12:39:07.018Z</time></trkpt><trkpt lat="46.4965697" lon="9.8432719"><ele>1776.0</ele><time>2026-04-11T12:39:08.018Z</time></trkpt><trkpt lat="46.4965892" lon="9.8433617"><ele>1776.0</ele><time>2026-04-11T12:39:09.018Z</time></trkpt><trkpt lat="46.4966256" lon="9.8435251"><ele>1776.0</ele><time>2026-04-11T12:39:11.019Z</time></trkpt><trkpt lat="46.496647" lon="9.8436681"><ele>1776.0</ele><time>2026-04-11T12:39:13.019Z</time></trkpt><trkpt lat="46.4966502" lon="9.8438399"><ele>1776.0</ele><time>2026-04-11T12:39:15.019Z</time></trkpt><trkpt lat="46.4966601" lon="9.8439367"><ele>1775.1999999999998</ele><time>2026-04-11T12:39:16.019Z</time></trkpt><trkpt lat="46.4966901" lon="9.8440222"><ele>1774.3999999999999</ele><time>2026-04-11T12:39:17.019Z</time></trkpt><trkpt lat="46.4967676" lon="9.8441634"><ele>1773.6</ele><time>2026-04-11T12:39:19.019Z</time></trkpt><trkpt lat="46.4968054" lon="9.8442672"><ele>1772.8</ele><time>2026-04-11T12:39:20.018Z</time></trkpt><trkpt lat="46.4968391" lon="9.8443931"><ele>1772.0</ele><time>2026-04-11T12:39:21.019Z</time></trkpt><trkpt lat="46.4968715" lon="9.8445336"><ele>1771.6</ele><time>2026-04-11T12:39:22.019Z</time></trkpt><trkpt lat="46.4969088" lon="9.844664"><ele>1771.1999999999998</ele><time>2026-04-11T12:39:23.019Z</time></trkpt><trkpt lat="46.4969434" lon="9.8447968"><ele>1770.8</ele><time>2026-04-11T12:39:24.019Z</time></trkpt><trkpt lat="46.4969754" lon="9.8449325"><ele>1770.4</ele><time>2026-04-11T12:39:25.018Z</time></trkpt><trkpt lat="46.4970043" lon="9.8450668"><ele>1770.0</ele><time>2026-04-11T12:39:26.019Z</time></trkpt><trkpt lat="46.4970369" lon="9.8452044"><ele>1769.4</ele><time>2026-04-11T12:39:27.018Z</time></trkpt><trkpt lat="46.4970743" lon="9.8453464"><ele>1768.8</ele><time>2026-04-11T12:39:28.019Z</time></trkpt><trkpt lat="46.4971113" lon="9.8454831"><ele>1768.1999999999998</ele><time>2026-04-11T12:39:29.018Z</time></trkpt><trkpt lat="46.4971455" lon="9.8456245"><ele>1767.6</ele><time>2026-04-11T12:39:30.019Z</time></trkpt><trkpt lat="46.4971812" lon="9.8457561"><ele>1767.0</ele><time>2026-04-11T12:39:31.019Z</time></trkpt><trkpt lat="46.4972161" lon="9.8458928"><ele>1768.3999999999999</ele><time>2026-04-11T12:39:32.019Z</time></trkpt><trkpt lat="46.4972511" lon="9.8460293"><ele>1769.7999999999997</ele><time>2026-04-11T12:39:33.019Z</time></trkpt><trkpt lat="46.4972859" lon="9.8461645"><ele>1771.2</ele><time>2026-04-11T12:39:34.018Z</time></trkpt><trkpt lat="46.497326" lon="9.8462946"><ele>1772.6</ele><time>2026-04-11T12:39:35.019Z</time></trkpt><trkpt lat="46.4973687" lon="9.846419"><ele>1774.0</ele><time>2026-04-11T12:39:36.019Z</time></trkpt><trkpt lat="46.4974009" lon="9.8465411"><ele>1774.0000000000002</ele><time>2026-04-11T12:39:37.019Z</time></trkpt><trkpt lat="46.4974359" lon="9.8466509"><ele>1774.0</ele><time>2026-04-11T12:39:38.019Z</time></trkpt><trkpt lat="46.4974617" lon="9.8467444"><ele>1774.0</ele><time>2026-04-11T12:39:39.019Z</time></trkpt><trkpt lat="46.497493" lon="9.8468614"><ele>1774.0</ele><time>2026-04-11T12:39:41.019Z</time></trkpt><trkpt lat="46.4975254" lon="9.8469807"><ele>1774.0000000000002</ele><time>2026-04-11T12:39:44.019Z</time></trkpt><trkpt lat="46.4975631" lon="9.8470709"><ele>1774.0</ele><time>2026-04-11T12:39:46.018Z</time></trkpt><trkpt lat="46.4976129" lon="9.8471972"><ele>1774.0</ele><time>2026-04-11T12:39:48.017Z</time></trkpt><trkpt lat="46.4976389" lon="9.8472815"><ele>1774.0</ele><time>2026-04-11T12:39:49.018Z</time></trkpt><trkpt lat="46.4976602" lon="9.8474224"><ele>1774.0</ele><time>2026-04-11T12:39:51.018Z</time></trkpt><trkpt lat="46.4976954" lon="9.8475672"><ele>1774.0</ele><time>2026-04-11T12:39:53.018Z</time></trkpt><trkpt lat="46.4977992" lon="9.8476538"><ele>1774.0</ele><time>2026-04-11T12:39:55.018Z</time></trkpt><trkpt lat="46.4978786" lon="9.8477071"><ele>1773.8000000000002</ele><time>2026-04-11T12:39:56.018Z</time></trkpt><trkpt lat="46.4979585" lon="9.8477877"><ele>1773.6000000000001</ele><time>2026-04-11T12:39:57.017Z</time></trkpt><trkpt lat="46.4980372" lon="9.847912"><ele>1773.4</ele><time>2026-04-11T12:39:58.017Z</time></trkpt><trkpt lat="46.4981125" lon="9.8480334"><ele>1773.2</ele><time>2026-04-11T12:39:59.018Z</time></trkpt><trkpt lat="46.4981895" lon="9.8481673"><ele>1773.0</ele><time>2026-04-11T12:40:00.017Z</time></trkpt><trkpt lat="46.4982727" lon="9.8483042"><ele>1773.0</ele><time>2026-04-11T12:40:01.017Z</time></trkpt><trkpt lat="46.4983633" lon="9.8484428"><ele>1773.0</ele><time>2026-04-11T12:40:02.018Z</time></trkpt><trkpt lat="46.4984544" lon="9.8485931"><ele>1773.0</ele><time>2026-04-11T12:40:03.018Z</time></trkpt><trkpt lat="46.4985465" lon="9.8487412"><ele>1773.0</ele><time>2026-04-11T12:40:04.018Z</time></trkpt><trkpt lat="46.498638" lon="9.8488889"><ele>1772.5</ele><time>2026-04-11T12:40:05.018Z</time></trkpt><trkpt lat="46.4987352" lon="9.8490296"><ele>1772.0</ele><time>2026-04-11T12:40:06.018Z</time></trkpt><trkpt lat="46.4988352" lon="9.8491816"><ele>1771.5</ele><time>2026-04-11T12:40:07.018Z</time></trkpt><trkpt lat="46.4989318" lon="9.8493389"><ele>1771.0</ele><time>2026-04-11T12:40:08.018Z</time></trkpt><trkpt lat="46.4990326" lon="9.8495007"><ele>1769.6666666666667</ele><time>2026-04-11T12:40:09.018Z</time></trkpt><trkpt lat="46.4991371" lon="9.8496579"><ele>1768.3333333333335</ele><time>2026-04-11T12:40:10.018Z</time></trkpt><trkpt lat="46.4992418" lon="9.8498199"><ele>1767.0</ele><time>2026-04-11T12:40:11.018Z</time></trkpt><trkpt lat="46.4993507" lon="9.8499804"><ele>1766.3333333333335</ele><time>2026-04-11T12:40:12.018Z</time></trkpt><trkpt lat="46.4994612" lon="9.8501557"><ele>1765.6666666666667</ele><time>2026-04-11T12:40:13.018Z</time></trkpt><trkpt lat="46.4995826" lon="9.8503422"><ele>1765.0</ele><time>2026-04-11T12:40:14.018Z</time></trkpt><trkpt lat="46.4997026" lon="9.8505285"><ele>1765.0</ele><time>2026-04-11T12:40:15.018Z</time></trkpt><trkpt lat="46.4998258" lon="9.8507243"><ele>1765.0</ele><time>2026-04-11T12:40:16.018Z</time></trkpt><trkpt lat="46.4999523" lon="9.8509171"><ele>1765.0</ele><time>2026-04-11T12:40:17.018Z</time></trkpt><trkpt lat="46.500077" lon="9.8511097"><ele>1765.0</ele><time>2026-04-11T12:40:18.018Z</time></trkpt><trkpt lat="46.5001982" lon="9.8512989"><ele>1765.0</ele><time>2026-04-11T12:40:19.017Z</time></trkpt><trkpt lat="46.5003144" lon="9.8514732"><ele>1765.0</ele><time>2026-04-11T12:40:20.018Z</time></trkpt><trkpt lat="46.5004356" lon="9.8516515"><ele>1766.6666666666667</ele><time>2026-04-11T12:40:21.018Z</time></trkpt><trkpt lat="46.5005598" lon="9.8518348"><ele>1768.3333333333335</ele><time>2026-04-11T12:40:22.017Z</time></trkpt><trkpt lat="46.5006888" lon="9.8520092"><ele>1770.0</ele><time>2026-04-11T12:40:23.018Z</time></trkpt><trkpt lat="46.5008603" lon="9.8522011"><ele>1770.0</ele><time>2026-04-11T12:40:24.018Z</time></trkpt><trkpt lat="46.5010324" lon="9.852376"><ele>1770.0</ele><time>2026-04-11T12:40:25.018Z</time></trkpt><trkpt lat="46.5012045" lon="9.8525491"><ele>1770.0</ele><time>2026-04-11T12:40:26.018Z</time></trkpt><trkpt lat="46.5013779" lon="9.8527137"><ele>1769.6666666666665</ele><time>2026-04-11T12:40:27.018Z</time></trkpt><trkpt lat="46.5015599" lon="9.8528834"><ele>1769.3333333333333</ele><time>2026-04-11T12:40:28.018Z</time></trkpt><trkpt lat="46.5017441" lon="9.8530546"><ele>1769.0</ele><time>2026-04-11T12:40:29.018Z</time></trkpt><trkpt lat="46.5019311" lon="9.8532222"><ele>1771.3333333333333</ele><time>2026-04-11T12:40:30.018Z</time></trkpt><trkpt lat="46.5021054" lon="9.8533951"><ele>1773.6666666666665</ele><time>2026-04-11T12:40:31.017Z</time></trkpt><trkpt lat="46.5022683" lon="9.8535709"><ele>1776.0</ele><time>2026-04-11T12:40:32.018Z</time></trkpt><trkpt lat="46.5024354" lon="9.8537442"><ele>1776.0</ele><time>2026-04-11T12:40:33.018Z</time></trkpt><trkpt lat="46.5026017" lon="9.8539107"><ele>1776.0</ele><time>2026-04-11T12:40:34.018Z</time></trkpt><trkpt lat="46.5027682" lon="9.8540799"><ele>1776.0</ele><time>2026-04-11T12:40:35.018Z</time></trkpt><trkpt lat="46.502935" lon="9.8542496"><ele>1772.6666666666665</ele><time>2026-04-11T12:40:36.018Z</time></trkpt><trkpt lat="46.5031009" lon="9.8544142"><ele>1769.3333333333333</ele><time>2026-04-11T12:40:37.018Z</time></trkpt><trkpt lat="46.5032673" lon="9.8545765"><ele>1766.0</ele><time>2026-04-11T12:40:38.018Z</time></trkpt><trkpt lat="46.5034288" lon="9.8547449"><ele>1766.0</ele><time>2026-04-11T12:40:39.017Z</time></trkpt><trkpt lat="46.5035918" lon="9.8549119"><ele>1766.0</ele><time>2026-04-11T12:40:40.018Z</time></trkpt><trkpt lat="46.5037584" lon="9.8550719"><ele>1766.0</ele><time>2026-04-11T12:40:41.018Z</time></trkpt><trkpt lat="46.5039262" lon="9.8552325"><ele>1764.3333333333333</ele><time>2026-04-11T12:40:42.018Z</time></trkpt><trkpt lat="46.5040872" lon="9.8553895"><ele>1762.6666666666665</ele><time>2026-04-11T12:40:43.018Z</time></trkpt><trkpt lat="46.5042459" lon="9.8555466"><ele>1761.0</ele><time>2026-04-11T12:40:44.018Z</time></trkpt><trkpt lat="46.5044047" lon="9.8557039"><ele>1761.0</ele><time>2026-04-11T12:40:45.018Z</time></trkpt><trkpt lat="46.5045634" lon="9.8558558"><ele>1761.0</ele><time>2026-04-11T12:40:46.018Z</time></trkpt><trkpt lat="46.5047227" lon="9.8560102"><ele>1761.0</ele><time>2026-04-11T12:40:47.018Z</time></trkpt><trkpt lat="46.5048825" lon="9.8561619"><ele>1752.6666666666665</ele><time>2026-04-11T12:40:48.018Z</time></trkpt><trkpt lat="46.5050436" lon="9.8563094"><ele>1744.3333333333333</ele><time>2026-04-11T12:40:49.018Z</time></trkpt><trkpt lat="46.5052012" lon="9.8564612"><ele>1736.0</ele><time>2026-04-11T12:40:50.018Z</time></trkpt><trkpt lat="46.5053583" lon="9.8566109"><ele>1731.0</ele><time>2026-04-11T12:40:51.018Z</time></trkpt><trkpt lat="46.5055181" lon="9.8567642"><ele>1726.0</ele><time>2026-04-11T12:40:52.018Z</time></trkpt><trkpt lat="46.5056862" lon="9.8569299"><ele>1721.0</ele><time>2026-04-11T12:40:53.018Z</time></trkpt><trkpt lat="46.5058672" lon="9.8571061"><ele>1721.0</ele><time>2026-04-11T12:40:54.017Z</time></trkpt><trkpt lat="46.5060548" lon="9.85728"><ele>1721.0</ele><time>2026-04-11T12:40:55.018Z</time></trkpt><trkpt lat="46.5062346" lon="9.8574508"><ele>1721.0</ele><time>2026-04-11T12:40:56.018Z</time></trkpt><trkpt lat="46.5064054" lon="9.8576182"><ele>1719.3333333333333</ele><time>2026-04-11T12:40:57.018Z</time></trkpt><trkpt lat="46.5065694" lon="9.8577851"><ele>1717.6666666666665</ele><time>2026-04-11T12:40:58.018Z</time></trkpt><trkpt lat="46.5067302" lon="9.857951"><ele>1716.0</ele><time>2026-04-11T12:40:59.018Z</time></trkpt><trkpt lat="46.5068874" lon="9.8581141"><ele>1716.0</ele><time>2026-04-11T12:41:00.018Z</time></trkpt><trkpt lat="46.507045" lon="9.8582834"><ele>1716.0</ele><time>2026-04-11T12:41:01.018Z</time></trkpt><trkpt lat="46.5072018" lon="9.8584606"><ele>1716.0</ele><time>2026-04-11T12:41:02.018Z</time></trkpt><trkpt lat="46.5073585" lon="9.8586329"><ele>1716.0</ele><time>2026-04-11T12:41:03.018Z</time></trkpt><trkpt lat="46.5075173" lon="9.858814"><ele>1716.0</ele><time>2026-04-11T12:41:04.018Z</time></trkpt><trkpt lat="46.5076705" lon="9.8589989"><ele>1716.0</ele><time>2026-04-11T12:41:05.018Z</time></trkpt><trkpt lat="46.5078197" lon="9.8591833"><ele>1715.6666666666665</ele><time>2026-04-11T12:41:06.018Z</time></trkpt><trkpt lat="46.5079663" lon="9.8593764"><ele>1715.3333333333333</ele><time>2026-04-11T12:41:07.018Z</time></trkpt><trkpt lat="46.5081053" lon="9.8595757"><ele>1715.0</ele><time>2026-04-11T12:41:08.018Z</time></trkpt><trkpt lat="46.5082413" lon="9.8597833"><ele>1715.0</ele><time>2026-04-11T12:41:09.018Z</time></trkpt><trkpt lat="46.5083755" lon="9.8599895"><ele>1715.0</ele><time>2026-04-11T12:41:10.018Z</time></trkpt><trkpt lat="46.5085047" lon="9.8602065"><ele>1715.0</ele><time>2026-04-11T12:41:11.018Z</time></trkpt><trkpt lat="46.5086332" lon="9.860422"><ele>1715.6666666666665</ele><time>2026-04-11T12:41:12.018Z</time></trkpt><trkpt lat="46.5087553" lon="9.8606514"><ele>1716.3333333333335</ele><time>2026-04-11T12:41:13.018Z</time></trkpt><trkpt lat="46.508873" lon="9.8608819"><ele>1717.0</ele><time>2026-04-11T12:41:14.018Z</time></trkpt><trkpt lat="46.5089853" lon="9.8611111"><ele>1717.0</ele><time>2026-04-11T12:41:15.018Z</time></trkpt><trkpt lat="46.509088" lon="9.8613346"><ele>1717.0</ele><time>2026-04-11T12:41:16.017Z</time></trkpt><trkpt lat="46.5091848" lon="9.8615659"><ele>1717.0</ele><time>2026-04-11T12:41:17.018Z</time></trkpt><trkpt lat="46.5092765" lon="9.8618038"><ele>1717.0</ele><time>2026-04-11T12:41:18.018Z</time></trkpt><trkpt lat="46.5093679" lon="9.8620409"><ele>1717.0</ele><time>2026-04-11T12:41:19.018Z</time></trkpt><trkpt lat="46.5094547" lon="9.8622867"><ele>1717.0</ele><time>2026-04-11T12:41:20.017Z</time></trkpt><trkpt lat="46.5095373" lon="9.8625321"><ele>1716.3333333333335</ele><time>2026-04-11T12:41:21.018Z</time></trkpt><trkpt lat="46.509617" lon="9.862783"><ele>1715.6666666666665</ele><time>2026-04-11T12:41:22.018Z</time></trkpt><trkpt lat="46.5096907" lon="9.8630387"><ele>1715.0</ele><time>2026-04-11T12:41:23.018Z</time></trkpt><trkpt lat="46.5097559" lon="9.8632933"><ele>1715.3333333333333</ele><time>2026-04-11T12:41:24.017Z</time></trkpt><trkpt lat="46.5098179" lon="9.8635474"><ele>1715.6666666666665</ele><time>2026-04-11T12:41:25.018Z</time></trkpt><trkpt lat="46.5098767" lon="9.8637967"><ele>1716.0</ele><time>2026-04-11T12:41:26.018Z</time></trkpt><trkpt lat="46.5099302" lon="9.8640424"><ele>1716.3333333333335</ele><time>2026-04-11T12:41:27.018Z</time></trkpt><trkpt lat="46.509978" lon="9.8642891"><ele>1716.6666666666667</ele><time>2026-04-11T12:41:28.018Z</time></trkpt><trkpt lat="46.510022" lon="9.8645364"><ele>1717.0</ele><time>2026-04-11T12:41:29.018Z</time></trkpt><trkpt lat="46.5100729" lon="9.8647966"><ele>1717.0</ele><time>2026-04-11T12:41:30.018Z</time></trkpt><trkpt lat="46.5101314" lon="9.865057"><ele>1717.0</ele><time>2026-04-11T12:41:31.018Z</time></trkpt><trkpt lat="46.510188" lon="9.8653245"><ele>1717.0</ele><time>2026-04-11T12:41:32.018Z</time></trkpt><trkpt lat="46.510244" lon="9.865594"><ele>1717.0</ele><time>2026-04-11T12:41:33.018Z</time></trkpt><trkpt lat="46.510299" lon="9.8658658"><ele>1717.0</ele><time>2026-04-11T12:41:34.018Z</time></trkpt><trkpt lat="46.5103546" lon="9.8661238"><ele>1717.0</ele><time>2026-04-11T12:41:35.018Z</time></trkpt><trkpt lat="46.5104076" lon="9.8663783"><ele>1716.6666666666667</ele><time>2026-04-11T12:41:36.018Z</time></trkpt><trkpt lat="46.510461" lon="9.866629"><ele>1716.3333333333335</ele><time>2026-04-11T12:41:37.018Z</time></trkpt><trkpt lat="46.510516" lon="9.8668808"><ele>1716.0</ele><time>2026-04-11T12:41:38.018Z</time></trkpt><trkpt lat="46.5105728" lon="9.8671364"><ele>1715.6666666666665</ele><time>2026-04-11T12:41:39.018Z</time></trkpt><trkpt lat="46.5106278" lon="9.8673933"><ele>1715.3333333333333</ele><time>2026-04-11T12:41:40.018Z</time></trkpt><trkpt lat="46.5106892" lon="9.8676537"><ele>1715.0</ele><time>2026-04-11T12:41:41.017Z</time></trkpt><trkpt lat="46.5107495" lon="9.8679083"><ele>1714.6666666666665</ele><time>2026-04-11T12:41:42.018Z</time></trkpt><trkpt lat="46.5108096" lon="9.8681667"><ele>1714.3333333333335</ele><time>2026-04-11T12:41:43.018Z</time></trkpt><trkpt lat="46.5108751" lon="9.8684294"><ele>1714.0</ele><time>2026-04-11T12:41:44.017Z</time></trkpt><trkpt lat="46.5109393" lon="9.868691"><ele>1714.6666666666667</ele><time>2026-04-11T12:41:45.018Z</time></trkpt><trkpt lat="46.5110025" lon="9.8689516"><ele>1715.3333333333335</ele><time>2026-04-11T12:41:46.017Z</time></trkpt><trkpt lat="46.5110722" lon="9.8692079"><ele>1716.0</ele><time>2026-04-11T12:41:47.017Z</time></trkpt><trkpt lat="46.511143" lon="9.8694679"><ele>1716.3333333333335</ele><time>2026-04-11T12:41:48.018Z</time></trkpt><trkpt lat="46.5112124" lon="9.8697267"><ele>1716.6666666666667</ele><time>2026-04-11T12:41:49.018Z</time></trkpt><trkpt lat="46.5112849" lon="9.869987"><ele>1717.0</ele><time>2026-04-11T12:41:50.018Z</time></trkpt><trkpt lat="46.5113586" lon="9.8702432"><ele>1717.3333333333335</ele><time>2026-04-11T12:41:51.018Z</time></trkpt><trkpt lat="46.5114316" lon="9.870504"><ele>1717.6666666666665</ele><time>2026-04-11T12:41:52.018Z</time></trkpt><trkpt lat="46.5115081" lon="9.8707691"><ele>1718.0</ele><time>2026-04-11T12:41:53.018Z</time></trkpt><trkpt lat="46.511581" lon="9.8710195"><ele>1719.3333333333333</ele><time>2026-04-11T12:41:54.018Z</time></trkpt><trkpt lat="46.5116534" lon="9.8712656"><ele>1720.6666666666665</ele><time>2026-04-11T12:41:55.018Z</time></trkpt><trkpt lat="46.5117257" lon="9.8715068"><ele>1722.0</ele><time>2026-04-11T12:41:56.018Z</time></trkpt><trkpt lat="46.5117963" lon="9.8717495"><ele>1723.3333333333335</ele><time>2026-04-11T12:41:57.018Z</time></trkpt><trkpt lat="46.5118607" lon="9.8719975"><ele>1724.6666666666667</ele><time>2026-04-11T12:41:58.018Z</time></trkpt><trkpt lat="46.5119197" lon="9.872246"><ele>1726.0</ele><time>2026-04-11T12:41:59.018Z</time></trkpt><trkpt lat="46.5119636" lon="9.8725086"><ele>1726.6666666666667</ele><time>2026-04-11T12:42:00.018Z</time></trkpt><trkpt lat="46.5119935" lon="9.8727826"><ele>1727.3333333333335</ele><time>2026-04-11T12:42:01.018Z</time></trkpt><trkpt lat="46.5120085" lon="9.8730639"><ele>1728.0</ele><time>2026-04-11T12:42:02.018Z</time></trkpt><trkpt lat="46.5120137" lon="9.8733425"><ele>1728.3333333333335</ele><time>2026-04-11T12:42:03.018Z</time></trkpt><trkpt lat="46.5120028" lon="9.8736301"><ele>1728.6666666666667</ele><time>2026-04-11T12:42:04.017Z</time></trkpt><trkpt lat="46.5119702" lon="9.8739125"><ele>1729.0</ele><time>2026-04-11T12:42:05.018Z</time></trkpt><trkpt lat="46.5119239" lon="9.8741908"><ele>1728.3333333333335</ele><time>2026-04-11T12:42:06.018Z</time></trkpt><trkpt lat="46.511862" lon="9.8744481"><ele>1727.6666666666665</ele><time>2026-04-11T12:42:07.018Z</time></trkpt><trkpt lat="46.5118009" lon="9.87469"><ele>1727.0</ele><time>2026-04-11T12:42:08.018Z</time></trkpt><trkpt lat="46.5117376" lon="9.8749193"><ele>1726.0</ele><time>2026-04-11T12:42:09.017Z</time></trkpt><trkpt lat="46.5116819" lon="9.8751401"><ele>1725.0</ele><time>2026-04-11T12:42:10.018Z</time></trkpt><trkpt lat="46.5116307" lon="9.8753465"><ele>1724.0</ele><time>2026-04-11T12:42:11.018Z</time></trkpt><trkpt lat="46.5115829" lon="9.875543"><ele>1724.0</ele><time>2026-04-11T12:42:12.018Z</time></trkpt><trkpt lat="46.5115323" lon="9.8757436"><ele>1724.0</ele><time>2026-04-11T12:42:13.018Z</time></trkpt><trkpt lat="46.5114806" lon="9.8759393"><ele>1724.0</ele><time>2026-04-11T12:42:14.018Z</time></trkpt><trkpt lat="46.5114343" lon="9.8761299"><ele>1724.0</ele><time>2026-04-11T12:42:15.018Z</time></trkpt><trkpt lat="46.5113878" lon="9.8763091"><ele>1724.25</ele><time>2026-04-11T12:42:16.018Z</time></trkpt><trkpt lat="46.5113537" lon="9.8764938"><ele>1724.5</ele><time>2026-04-11T12:42:17.018Z</time></trkpt><trkpt lat="46.5113364" lon="9.876685"><ele>1724.75</ele><time>2026-04-11T12:42:18.018Z</time></trkpt><trkpt lat="46.5113426" lon="9.8768707"><ele>1725.0</ele><time>2026-04-11T12:42:19.018Z</time></trkpt><trkpt lat="46.51136" lon="9.8770659"><ele>1725.0</ele><time>2026-04-11T12:42:20.018Z</time></trkpt><trkpt lat="46.5113853" lon="9.8772588"><ele>1725.0</ele><time>2026-04-11T12:42:21.018Z</time></trkpt><trkpt lat="46.5114147" lon="9.8774409"><ele>1725.0</ele><time>2026-04-11T12:42:22.018Z</time></trkpt><trkpt lat="46.5114325" lon="9.8776127"><ele>1725.0</ele><time>2026-04-11T12:42:23.018Z</time></trkpt><trkpt lat="46.5114415" lon="9.8777721"><ele>1725.4</ele><time>2026-04-11T12:42:24.018Z</time></trkpt><trkpt lat="46.5114422" lon="9.8779272"><ele>1725.8</ele><time>2026-04-11T12:42:25.018Z</time></trkpt><trkpt lat="46.5114352" lon="9.8780733"><ele>1726.1999999999998</ele><time>2026-04-11T12:42:26.018Z</time></trkpt><trkpt lat="46.511426" lon="9.8782067"><ele>1726.6</ele><time>2026-04-11T12:42:27.018Z</time></trkpt><trkpt lat="46.5114048" lon="9.8783341"><ele>1727.0</ele><time>2026-04-11T12:42:28.018Z</time></trkpt><trkpt lat="46.5113764" lon="9.8784433"><ele>1726.9999999999998</ele><time>2026-04-11T12:42:29.018Z</time></trkpt><trkpt lat="46.5113356" lon="9.8785537"><ele>1727.0</ele><time>2026-04-11T12:42:30.018Z</time></trkpt><trkpt lat="46.5112889" lon="9.8786666"><ele>1727.0</ele><time>2026-04-11T12:42:31.017Z</time></trkpt><trkpt lat="46.5112532" lon="9.8787783"><ele>1727.0</ele><time>2026-04-11T12:42:32.017Z</time></trkpt><trkpt lat="46.511217" lon="9.878896"><ele>1726.9999999999998</ele><time>2026-04-11T12:42:33.018Z</time></trkpt><trkpt lat="46.5111583" lon="9.8789976"><ele>1727.0</ele><time>2026-04-11T12:42:34.018Z</time></trkpt><trkpt lat="46.511081" lon="9.8790987"><ele>1727.0</ele><time>2026-04-11T12:42:35.018Z</time></trkpt><trkpt lat="46.5109872" lon="9.8791971"><ele>1727.0</ele><time>2026-04-11T12:42:36.018Z</time></trkpt><trkpt lat="46.5108818" lon="9.879291"><ele>1727.0</ele><time>2026-04-11T12:42:37.018Z</time></trkpt><trkpt lat="46.5107724" lon="9.8793883"><ele>1727.0</ele><time>2026-04-11T12:42:38.018Z</time></trkpt><trkpt lat="46.5106611" lon="9.879479"><ele>1726.75</ele><time>2026-04-11T12:42:39.017Z</time></trkpt><trkpt lat="46.5105614" lon="9.8795647"><ele>1726.5</ele><time>2026-04-11T12:42:40.018Z</time></trkpt><trkpt lat="46.5104677" lon="9.8796496"><ele>1726.25</ele><time>2026-04-11T12:42:41.017Z</time></trkpt><trkpt lat="46.510371" lon="9.8797353"><ele>1726.0</ele><time>2026-04-11T12:42:42.018Z</time></trkpt><trkpt lat="46.51027" lon="9.8798167"><ele>1727.0</ele><time>2026-04-11T12:42:43.018Z</time></trkpt><trkpt lat="46.5101742" lon="9.8799047"><ele>1728.0</ele><time>2026-04-11T12:42:44.018Z</time></trkpt><trkpt lat="46.5100765" lon="9.8799932"><ele>1729.0</ele><time>2026-04-11T12:42:45.018Z</time></trkpt><trkpt lat="46.5099729" lon="9.880083"><ele>1730.0</ele><time>2026-04-11T12:42:46.017Z</time></trkpt><trkpt lat="46.5098668" lon="9.8801762"><ele>1730.25</ele><time>2026-04-11T12:42:47.018Z</time></trkpt><trkpt lat="46.5097651" lon="9.8802785"><ele>1730.5</ele><time>2026-04-11T12:42:48.017Z</time></trkpt><trkpt lat="46.5096533" lon="9.8803954"><ele>1730.75</ele><time>2026-04-11T12:42:49.018Z</time></trkpt><trkpt lat="46.5095277" lon="9.8805327"><ele>1731.0</ele><time>2026-04-11T12:42:50.017Z</time></trkpt><trkpt lat="46.5094065" lon="9.8806792"><ele>1731.6666666666665</ele><time>2026-04-11T12:42:51.018Z</time></trkpt><trkpt lat="46.5092864" lon="9.8808302"><ele>1732.3333333333333</ele><time>2026-04-11T12:42:52.018Z</time></trkpt><trkpt lat="46.5091702" lon="9.880991"><ele>1733.0</ele><time>2026-04-11T12:42:53.018Z</time></trkpt><trkpt lat="46.5090598" lon="9.8811461"><ele>1733.25</ele><time>2026-04-11T12:42:54.018Z</time></trkpt><trkpt lat="46.5089684" lon="9.8813071"><ele>1733.5</ele><time>2026-04-11T12:42:55.018Z</time></trkpt><trkpt lat="46.5088729" lon="9.8814658"><ele>1733.75</ele><time>2026-04-11T12:42:56.018Z</time></trkpt><trkpt lat="46.5087839" lon="9.8816266"><ele>1734.0</ele><time>2026-04-11T12:42:57.018Z</time></trkpt><trkpt lat="46.508698" lon="9.8817919"><ele>1734.0</ele><time>2026-04-11T12:42:58.018Z</time></trkpt><trkpt lat="46.5086241" lon="9.8819621"><ele>1734.0</ele><time>2026-04-11T12:42:59.017Z</time></trkpt><trkpt lat="46.5085474" lon="9.8821336"><ele>1734.0</ele><time>2026-04-11T12:43:00.018Z</time></trkpt><trkpt lat="46.5084715" lon="9.8823032"><ele>1734.0</ele><time>2026-04-11T12:43:01.018Z</time></trkpt><trkpt lat="46.5083842" lon="9.8824739"><ele>1736.3333333333335</ele><time>2026-04-11T12:43:02.018Z</time></trkpt><trkpt lat="46.5082974" lon="9.8826523"><ele>1738.6666666666667</ele><time>2026-04-11T12:43:03.018Z</time></trkpt><trkpt lat="46.5082101" lon="9.8828347"><ele>1741.0</ele><time>2026-04-11T12:43:04.017Z</time></trkpt><trkpt lat="46.508119" lon="9.8830167"><ele>1741.0</ele><time>2026-04-11T12:43:05.018Z</time></trkpt><trkpt lat="46.5080308" lon="9.8832006"><ele>1741.0</ele><time>2026-04-11T12:43:06.018Z</time></trkpt><trkpt lat="46.5079352" lon="9.8833858"><ele>1741.0</ele><time>2026-04-11T12:43:07.017Z</time></trkpt><trkpt lat="46.5078322" lon="9.8835681"><ele>1740.0</ele><time>2026-04-11T12:43:08.018Z</time></trkpt><trkpt lat="46.5077291" lon="9.8837409"><ele>1739.0</ele><time>2026-04-11T12:43:09.018Z</time></trkpt><trkpt lat="46.5076289" lon="9.8839038"><ele>1738.0</ele><time>2026-04-11T12:43:10.018Z</time></trkpt><trkpt lat="46.5075228" lon="9.8840599"><ele>1738.0</ele><time>2026-04-11T12:43:11.018Z</time></trkpt><trkpt lat="46.5074188" lon="9.8842146"><ele>1738.0</ele><time>2026-04-11T12:43:12.017Z</time></trkpt><trkpt lat="46.507314" lon="9.8843618"><ele>1738.0</ele><time>2026-04-11T12:43:13.018Z</time></trkpt><trkpt lat="46.5072047" lon="9.8845019"><ele>1738.0</ele><time>2026-04-11T12:43:14.017Z</time></trkpt><trkpt lat="46.507089" lon="9.8846425"><ele>1737.3333333333335</ele><time>2026-04-11T12:43:15.017Z</time></trkpt><trkpt lat="46.5069726" lon="9.884785"><ele>1736.6666666666665</ele><time>2026-04-11T12:43:16.018Z</time></trkpt><trkpt lat="46.5068572" lon="9.8849282"><ele>1736.0</ele><time>2026-04-11T12:43:17.018Z</time></trkpt><trkpt lat="46.5067407" lon="9.8850711"><ele>1739.3333333333333</ele><time>2026-04-11T12:43:18.017Z</time></trkpt><trkpt lat="46.5066162" lon="9.8852194"><ele>1742.6666666666665</ele><time>2026-04-11T12:43:19.018Z</time></trkpt><trkpt lat="46.5064938" lon="9.8853669"><ele>1746.0</ele><time>2026-04-11T12:43:20.018Z</time></trkpt><trkpt lat="46.5063667" lon="9.8855187"><ele>1747.3333333333335</ele><time>2026-04-11T12:43:21.017Z</time></trkpt><trkpt lat="46.506233" lon="9.8856672"><ele>1748.6666666666667</ele><time>2026-04-11T12:43:22.018Z</time></trkpt><trkpt lat="46.5060965" lon="9.8858082"><ele>1750.0</ele><time>2026-04-11T12:43:23.018Z</time></trkpt><trkpt lat="46.505953" lon="9.8859436"><ele>1750.0</ele><time>2026-04-11T12:43:24.018Z</time></trkpt><trkpt lat="46.5058039" lon="9.8860629"><ele>1750.0</ele><time>2026-04-11T12:43:25.017Z</time></trkpt><trkpt lat="46.5056468" lon="9.8861645"><ele>1750.0</ele><time>2026-04-11T12:43:26.018Z</time></trkpt><trkpt lat="46.5054835" lon="9.8862392"><ele>1750.3333333333335</ele><time>2026-04-11T12:43:27.017Z</time></trkpt><trkpt lat="46.5053145" lon="9.8862944"><ele>1750.6666666666665</ele><time>2026-04-11T12:43:28.017Z</time></trkpt><trkpt lat="46.5051425" lon="9.8863376"><ele>1751.0</ele><time>2026-04-11T12:43:29.018Z</time></trkpt><trkpt lat="46.5049732" lon="9.8863863"><ele>1751.0</ele><time>2026-04-11T12:43:30.018Z</time></trkpt><trkpt lat="46.5047986" lon="9.8864376"><ele>1751.0</ele><time>2026-04-11T12:43:31.018Z</time></trkpt><trkpt lat="46.5046192" lon="9.8865093"><ele>1751.0</ele><time>2026-04-11T12:43:32.018Z</time></trkpt><trkpt lat="46.5044248" lon="9.8865965"><ele>1750.3333333333333</ele><time>2026-04-11T12:43:33.018Z</time></trkpt><trkpt lat="46.5042266" lon="9.8867123"><ele>1749.6666666666665</ele><time>2026-04-11T12:43:34.018Z</time></trkpt><trkpt lat="46.5040198" lon="9.886845"><ele>1749.0</ele><time>2026-04-11T12:43:35.018Z</time></trkpt><trkpt lat="46.5038102" lon="9.8870069"><ele>1750.6666666666665</ele><time>2026-04-11T12:43:36.018Z</time></trkpt><trkpt lat="46.5036144" lon="9.8871728"><ele>1752.3333333333333</ele><time>2026-04-11T12:43:37.018Z</time></trkpt><trkpt lat="46.5034269" lon="9.8873154"><ele>1754.0</ele><time>2026-04-11T12:43:38.018Z</time></trkpt><trkpt lat="46.5032391" lon="9.8874487"><ele>1754.0</ele><time>2026-04-11T12:43:39.018Z</time></trkpt><trkpt lat="46.503051" lon="9.8875721"><ele>1754.0</ele><time>2026-04-11T12:43:40.018Z</time></trkpt><trkpt lat="46.5028554" lon="9.8876882"><ele>1754.0</ele><time>2026-04-11T12:43:41.018Z</time></trkpt><trkpt lat="46.5026535" lon="9.8878022"><ele>1753.3333333333333</ele><time>2026-04-11T12:43:42.018Z</time></trkpt><trkpt lat="46.5024517" lon="9.8879111"><ele>1752.6666666666665</ele><time>2026-04-11T12:43:43.018Z</time></trkpt><trkpt lat="46.5022466" lon="9.8880215"><ele>1752.0</ele><time>2026-04-11T12:43:44.018Z</time></trkpt><trkpt lat="46.502042" lon="9.8881358"><ele>1749.3333333333335</ele><time>2026-04-11T12:43:45.018Z</time></trkpt><trkpt lat="46.5018352" lon="9.8882478"><ele>1746.6666666666667</ele><time>2026-04-11T12:43:46.018Z</time></trkpt><trkpt lat="46.50163" lon="9.8883595"><ele>1744.0</ele><time>2026-04-11T12:43:47.018Z</time></trkpt><trkpt lat="46.5014282" lon="9.8884654"><ele>1743.6666666666667</ele><time>2026-04-11T12:43:48.018Z</time></trkpt><trkpt lat="46.501233" lon="9.8885711"><ele>1743.3333333333335</ele><time>2026-04-11T12:43:49.018Z</time></trkpt><trkpt lat="46.5010328" lon="9.8886838"><ele>1743.0</ele><time>2026-04-11T12:43:50.018Z</time></trkpt><trkpt lat="46.5008353" lon="9.8887985"><ele>1743.0</ele><time>2026-04-11T12:43:51.018Z</time></trkpt><trkpt lat="46.5006353" lon="9.8889104"><ele>1743.0</ele><time>2026-04-11T12:43:52.018Z</time></trkpt><trkpt lat="46.5004334" lon="9.8890212"><ele>1743.0</ele><time>2026-04-11T12:43:53.017Z</time></trkpt><trkpt lat="46.5002351" lon="9.8891388"><ele>1743.0</ele><time>2026-04-11T12:43:54.018Z</time></trkpt><trkpt lat="46.5000396" lon="9.889252"><ele>1743.0</ele><time>2026-04-11T12:43:55.018Z</time></trkpt><trkpt lat="46.4998461" lon="9.8893714"><ele>1743.0</ele><time>2026-04-11T12:43:56.017Z</time></trkpt><trkpt lat="46.4996544" lon="9.8894957"><ele>1744.6666666666665</ele><time>2026-04-11T12:43:57.018Z</time></trkpt><trkpt lat="46.4994648" lon="9.8896279"><ele>1746.3333333333333</ele><time>2026-04-11T12:43:58.018Z</time></trkpt><trkpt lat="46.4992758" lon="9.889762"><ele>1748.0</ele><time>2026-04-11T12:43:59.018Z</time></trkpt><trkpt lat="46.4990801" lon="9.8899008"><ele>1748.0</ele><time>2026-04-11T12:44:00.017Z</time></trkpt><trkpt lat="46.4988873" lon="9.8900431"><ele>1748.0</ele><time>2026-04-11T12:44:01.018Z</time></trkpt><trkpt lat="46.4986951" lon="9.8901961"><ele>1748.0</ele><time>2026-04-11T12:44:02.017Z</time></trkpt><trkpt lat="46.4985079" lon="9.8903587"><ele>1748.5</ele><time>2026-04-11T12:44:03.017Z</time></trkpt><trkpt lat="46.4983091" lon="9.8905232"><ele>1749.0</ele><time>2026-04-11T12:44:04.018Z</time></trkpt><trkpt lat="46.4981102" lon="9.8906933"><ele>1750.0</ele><time>2026-04-11T12:44:05.018Z</time></trkpt><trkpt lat="46.4979093" lon="9.8908756"><ele>1751.0</ele><time>2026-04-11T12:44:06.018Z</time></trkpt><trkpt lat="46.497711" lon="9.8910666"><ele>1752.0</ele><time>2026-04-11T12:44:07.018Z</time></trkpt><trkpt lat="46.4975101" lon="9.8912591"><ele>1753.0</ele><time>2026-04-11T12:44:08.018Z</time></trkpt><trkpt lat="46.4973104" lon="9.8914556"><ele>1753.0</ele><time>2026-04-11T12:44:09.018Z</time></trkpt><trkpt lat="46.4971078" lon="9.891652"><ele>1753.0</ele><time>2026-04-11T12:44:10.018Z</time></trkpt><trkpt lat="46.49691" lon="9.89185"><ele>1752.0</ele><time>2026-04-11T12:44:11.018Z</time></trkpt><trkpt lat="46.4967145" lon="9.8920452"><ele>1751.0</ele><time>2026-04-11T12:44:12.018Z</time></trkpt><trkpt lat="46.4965194" lon="9.8922396"><ele>1751.0</ele><time>2026-04-11T12:44:13.017Z</time></trkpt><trkpt lat="46.4963263" lon="9.892435"><ele>1751.0</ele><time>2026-04-11T12:44:14.018Z</time></trkpt><trkpt lat="46.4961372" lon="9.8926282"><ele>1752.5</ele><time>2026-04-11T12:44:15.018Z</time></trkpt><trkpt lat="46.4959453" lon="9.892822"><ele>1754.0</ele><time>2026-04-11T12:44:16.018Z</time></trkpt><trkpt lat="46.4957608" lon="9.8930168"><ele>1754.0</ele><time>2026-04-11T12:44:17.018Z</time></trkpt><trkpt lat="46.4955761" lon="9.8932103"><ele>1754.0</ele><time>2026-04-11T12:44:18.018Z</time></trkpt><trkpt lat="46.4953932" lon="9.8934029"><ele>1754.0</ele><time>2026-04-11T12:44:19.018Z</time></trkpt><trkpt lat="46.4952106" lon="9.8935911"><ele>1754.0</ele><time>2026-04-11T12:44:20.018Z</time></trkpt><trkpt lat="46.4950278" lon="9.893776"><ele>1754.0</ele><time>2026-04-11T12:44:21.017Z</time></trkpt><trkpt lat="46.4948445" lon="9.893955"><ele>1754.0</ele><time>2026-04-11T12:44:22.018Z</time></trkpt><trkpt lat="46.4946669" lon="9.8941412"><ele>1754.0</ele><time>2026-04-11T12:44:23.018Z</time></trkpt><trkpt lat="46.4944918" lon="9.8943236"><ele>1754.0</ele><time>2026-04-11T12:44:24.018Z</time></trkpt><trkpt lat="46.4943194" lon="9.8945054"><ele>1755.0</ele><time>2026-04-11T12:44:25.018Z</time></trkpt><trkpt lat="46.4941467" lon="9.8946818"><ele>1756.0</ele><time>2026-04-11T12:44:26.018Z</time></trkpt><trkpt lat="46.4939761" lon="9.8948604"><ele>1757.0</ele><time>2026-04-11T12:44:27.018Z</time></trkpt><trkpt lat="46.4938024" lon="9.8950403"><ele>1759.6666666666665</ele><time>2026-04-11T12:44:28.017Z</time></trkpt><trkpt lat="46.4936321" lon="9.8952178"><ele>1762.3333333333335</ele><time>2026-04-11T12:44:29.018Z</time></trkpt><trkpt lat="46.493457" lon="9.8953937"><ele>1765.0</ele><time>2026-04-11T12:44:30.018Z</time></trkpt><trkpt lat="46.4932825" lon="9.8955668"><ele>1765.0</ele><time>2026-04-11T12:44:31.018Z</time></trkpt><trkpt lat="46.4931192" lon="9.8957445"><ele>1765.0</ele><time>2026-04-11T12:44:32.018Z</time></trkpt><trkpt lat="46.4929593" lon="9.8959102"><ele>1765.0</ele><time>2026-04-11T12:44:33.018Z</time></trkpt><trkpt lat="46.4928088" lon="9.8960692"><ele>1765.3333333333335</ele><time>2026-04-11T12:44:34.018Z</time></trkpt><trkpt lat="46.4926631" lon="9.896219"><ele>1765.6666666666665</ele><time>2026-04-11T12:44:35.018Z</time></trkpt><trkpt lat="46.4925238" lon="9.8963697"><ele>1766.0</ele><time>2026-04-11T12:44:36.018Z</time></trkpt><trkpt lat="46.4923845" lon="9.8965352"><ele>1766.0</ele><time>2026-04-11T12:44:37.017Z</time></trkpt><trkpt lat="46.4922545" lon="9.8967137"><ele>1766.0</ele><time>2026-04-11T12:44:38.018Z</time></trkpt><trkpt lat="46.4921235" lon="9.8969126"><ele>1766.0</ele><time>2026-04-11T12:44:39.018Z</time></trkpt><trkpt lat="46.4919979" lon="9.8971292"><ele>1765.6666666666665</ele><time>2026-04-11T12:44:40.017Z</time></trkpt><trkpt lat="46.4918768" lon="9.8973586"><ele>1765.3333333333335</ele><time>2026-04-11T12:44:41.018Z</time></trkpt><trkpt lat="46.4917665" lon="9.897575"><ele>1765.0</ele><time>2026-04-11T12:44:42.018Z</time></trkpt><trkpt lat="46.4916789" lon="9.897781"><ele>1766.25</ele><time>2026-04-11T12:44:43.018Z</time></trkpt><trkpt lat="46.4916083" lon="9.8979817"><ele>1767.5</ele><time>2026-04-11T12:44:44.018Z</time></trkpt><trkpt lat="46.4915415" lon="9.898161"><ele>1768.75</ele><time>2026-04-11T12:44:45.018Z</time></trkpt><trkpt lat="46.4914828" lon="9.898315"><ele>1770.0</ele><time>2026-04-11T12:44:46.018Z</time></trkpt><trkpt lat="46.4914199" lon="9.8984523"><ele>1771.3333333333333</ele><time>2026-04-11T12:44:47.018Z</time></trkpt><trkpt lat="46.4913526" lon="9.8985677"><ele>1772.6666666666665</ele><time>2026-04-11T12:44:48.018Z</time></trkpt><trkpt lat="46.4912937" lon="9.8986635"><ele>1774.0</ele><time>2026-04-11T12:44:49.018Z</time></trkpt><trkpt lat="46.4912595" lon="9.8987634"><ele>1775.3333333333333</ele><time>2026-04-11T12:44:50.018Z</time></trkpt><trkpt lat="46.4912537" lon="9.8988733"><ele>1776.6666666666665</ele><time>2026-04-11T12:44:51.018Z</time></trkpt><trkpt lat="46.4912578" lon="9.8990114"><ele>1778.0</ele><time>2026-04-11T12:44:52.018Z</time></trkpt><trkpt lat="46.4912594" lon="9.8991891"><ele>1778.6666666666665</ele><time>2026-04-11T12:44:53.018Z</time></trkpt><trkpt lat="46.4912175" lon="9.8993962"><ele>1779.3333333333335</ele><time>2026-04-11T12:44:54.018Z</time></trkpt><trkpt lat="46.4911637" lon="9.8996276"><ele>1780.0</ele><time>2026-04-11T12:44:55.018Z</time></trkpt><trkpt lat="46.4910988" lon="9.899884"><ele>1781.6666666666667</ele><time>2026-04-11T12:44:56.018Z</time></trkpt><trkpt lat="46.4910243" lon="9.900145"><ele>1783.3333333333335</ele><time>2026-04-11T12:44:57.018Z</time></trkpt><trkpt lat="46.4909446" lon="9.9004136"><ele>1785.0</ele><time>2026-04-11T12:44:58.018Z</time></trkpt><trkpt lat="46.4908595" lon="9.9006576"><ele>1785.0</ele><time>2026-04-11T12:44:59.018Z</time></trkpt><trkpt lat="46.4907746" lon="9.9008832"><ele>1785.0</ele><time>2026-04-11T12:45:00.018Z</time></trkpt><trkpt lat="46.4906867" lon="9.9010867"><ele>1785.0</ele><time>2026-04-11T12:45:01.018Z</time></trkpt><trkpt lat="46.4906048" lon="9.9012836"><ele>1785.6666666666665</ele><time>2026-04-11T12:45:02.018Z</time></trkpt><trkpt lat="46.490517" lon="9.901475"><ele>1786.3333333333333</ele><time>2026-04-11T12:45:03.018Z</time></trkpt><trkpt lat="46.4904272" lon="9.9016617"><ele>1787.0</ele><time>2026-04-11T12:45:04.018Z</time></trkpt><trkpt lat="46.4903317" lon="9.9018451"><ele>1790.0</ele><time>2026-04-11T12:45:05.018Z</time></trkpt><trkpt lat="46.4902376" lon="9.9020207"><ele>1793.0</ele><time>2026-04-11T12:45:06.018Z</time></trkpt><trkpt lat="46.4901422" lon="9.9021932"><ele>1796.0</ele><time>2026-04-11T12:45:07.018Z</time></trkpt><trkpt lat="46.4900407" lon="9.9023527"><ele>1796.0</ele><time>2026-04-11T12:45:08.018Z</time></trkpt><trkpt lat="46.4899291" lon="9.9025044"><ele>1796.0</ele><time>2026-04-11T12:45:09.018Z</time></trkpt><trkpt lat="46.489812" lon="9.9026436"><ele>1796.0</ele><time>2026-04-11T12:45:10.018Z</time></trkpt><trkpt lat="46.4896898" lon="9.9027889"><ele>1799.3333333333333</ele><time>2026-04-11T12:45:11.018Z</time></trkpt><trkpt lat="46.4895631" lon="9.9029412"><ele>1802.6666666666665</ele><time>2026-04-11T12:45:12.018Z</time></trkpt><trkpt lat="46.4894289" lon="9.9030894"><ele>1806.0</ele><time>2026-04-11T12:45:13.018Z</time></trkpt><trkpt lat="46.4892942" lon="9.9032361"><ele>1806.0</ele><time>2026-04-11T12:45:14.018Z</time></trkpt><trkpt lat="46.4891498" lon="9.9033767"><ele>1806.0</ele><time>2026-04-11T12:45:15.018Z</time></trkpt><trkpt lat="46.4889945" lon="9.9035053"><ele>1806.0</ele><time>2026-04-11T12:45:16.018Z</time></trkpt><trkpt lat="46.4888376" lon="9.9036341"><ele>1808.3333333333335</ele><time>2026-04-11T12:45:17.018Z</time></trkpt><trkpt lat="46.4886724" lon="9.9037687"><ele>1810.6666666666667</ele><time>2026-04-11T12:45:18.018Z</time></trkpt><trkpt lat="46.4885093" lon="9.9039062"><ele>1813.0</ele><time>2026-04-11T12:45:19.017Z</time></trkpt><trkpt lat="46.488353" lon="9.9040395"><ele>1813.0</ele><time>2026-04-11T12:45:20.018Z</time></trkpt><trkpt lat="46.4882041" lon="9.9041725"><ele>1813.0</ele><time>2026-04-11T12:45:21.018Z</time></trkpt><trkpt lat="46.4880653" lon="9.9043089"><ele>1813.0</ele><time>2026-04-11T12:45:22.018Z</time></trkpt><trkpt lat="46.4879337" lon="9.9044571"><ele>1814.6666666666667</ele><time>2026-04-11T12:45:23.018Z</time></trkpt><trkpt lat="46.487805" lon="9.9046066"><ele>1816.3333333333335</ele><time>2026-04-11T12:45:24.018Z</time></trkpt><trkpt lat="46.487684" lon="9.9047615"><ele>1818.0</ele><time>2026-04-11T12:45:25.018Z</time></trkpt><trkpt lat="46.4875649" lon="9.9049199"><ele>1816.3333333333335</ele><time>2026-04-11T12:45:26.018Z</time></trkpt><trkpt lat="46.4874552" lon="9.9050873"><ele>1814.6666666666667</ele><time>2026-04-11T12:45:27.018Z</time></trkpt><trkpt lat="46.4873469" lon="9.9052621"><ele>1813.0</ele><time>2026-04-11T12:45:28.018Z</time></trkpt><trkpt lat="46.4872435" lon="9.9054442"><ele>1813.0</ele><time>2026-04-11T12:45:29.018Z</time></trkpt><trkpt lat="46.487146" lon="9.9056362"><ele>1813.0</ele><time>2026-04-11T12:45:30.018Z</time></trkpt><trkpt lat="46.487051" lon="9.905827"><ele>1813.0</ele><time>2026-04-11T12:45:31.018Z</time></trkpt><trkpt lat="46.4869487" lon="9.9060218"><ele>1811.6666666666667</ele><time>2026-04-11T12:45:32.018Z</time></trkpt><trkpt lat="46.4868492" lon="9.9062207"><ele>1810.3333333333335</ele><time>2026-04-11T12:45:33.017Z</time></trkpt><trkpt lat="46.4867578" lon="9.9064077"><ele>1809.0</ele><time>2026-04-11T12:45:34.018Z</time></trkpt><trkpt lat="46.4866696" lon="9.9065947"><ele>1812.3333333333335</ele><time>2026-04-11T12:45:35.018Z</time></trkpt><trkpt lat="46.4865755" lon="9.9067802"><ele>1815.6666666666667</ele><time>2026-04-11T12:45:36.018Z</time></trkpt><trkpt lat="46.4864808" lon="9.9069607"><ele>1819.0</ele><time>2026-04-11T12:45:37.018Z</time></trkpt><trkpt lat="46.4863874" lon="9.9071439"><ele>1819.0</ele><time>2026-04-11T12:45:38.018Z</time></trkpt><trkpt lat="46.4862934" lon="9.9073251"><ele>1819.0</ele><time>2026-04-11T12:45:39.018Z</time></trkpt><trkpt lat="46.4862024" lon="9.9074978"><ele>1819.0</ele><time>2026-04-11T12:45:40.018Z</time></trkpt><trkpt lat="46.4861187" lon="9.9076612"><ele>1819.0</ele><time>2026-04-11T12:45:41.018Z</time></trkpt><trkpt lat="46.4860371" lon="9.9078214"><ele>1819.25</ele><time>2026-04-11T12:45:42.018Z</time></trkpt><trkpt lat="46.4859575" lon="9.9079773"><ele>1819.5</ele><time>2026-04-11T12:45:43.017Z</time></trkpt><trkpt lat="46.4858743" lon="9.908141"><ele>1819.75</ele><time>2026-04-11T12:45:44.018Z</time></trkpt><trkpt lat="46.4857818" lon="9.9083084"><ele>1820.0</ele><time>2026-04-11T12:45:45.018Z</time></trkpt><trkpt lat="46.4856909" lon="9.9084865"><ele>1820.3333333333333</ele><time>2026-04-11T12:45:46.018Z</time></trkpt><trkpt lat="46.4856035" lon="9.9086766"><ele>1820.6666666666665</ele><time>2026-04-11T12:45:47.018Z</time></trkpt><trkpt lat="46.4855059" lon="9.9088692"><ele>1821.0</ele><time>2026-04-11T12:45:48.018Z</time></trkpt><trkpt lat="46.4854159" lon="9.909056"><ele>1821.0</ele><time>2026-04-11T12:45:49.017Z</time></trkpt><trkpt lat="46.4853209" lon="9.9092401"><ele>1821.0</ele><time>2026-04-11T12:45:50.018Z</time></trkpt><trkpt lat="46.4852255" lon="9.9094286"><ele>1821.0</ele><time>2026-04-11T12:45:51.017Z</time></trkpt><trkpt lat="46.4851307" lon="9.9096066"><ele>1821.75</ele><time>2026-04-11T12:45:52.018Z</time></trkpt><trkpt lat="46.4850419" lon="9.9097743"><ele>1822.5</ele><time>2026-04-11T12:45:53.018Z</time></trkpt><trkpt lat="46.4849569" lon="9.9099348"><ele>1823.25</ele><time>2026-04-11T12:45:54.018Z</time></trkpt><trkpt lat="46.4848652" lon="9.9100877"><ele>1824.0</ele><time>2026-04-11T12:45:55.018Z</time></trkpt><trkpt lat="46.4847784" lon="9.9102379"><ele>1823.25</ele><time>2026-04-11T12:45:56.018Z</time></trkpt><trkpt lat="46.4846926" lon="9.9103805"><ele>1822.5</ele><time>2026-04-11T12:45:57.018Z</time></trkpt><trkpt lat="46.4846048" lon="9.910528"><ele>1821.75</ele><time>2026-04-11T12:45:58.018Z</time></trkpt><trkpt lat="46.4845157" lon="9.9106736"><ele>1821.0</ele><time>2026-04-11T12:45:59.018Z</time></trkpt><trkpt lat="46.4844203" lon="9.9108237"><ele>1823.25</ele><time>2026-04-11T12:46:00.017Z</time></trkpt><trkpt lat="46.4843238" lon="9.9109731"><ele>1825.5</ele><time>2026-04-11T12:46:01.018Z</time></trkpt><trkpt lat="46.4842187" lon="9.911128"><ele>1827.75</ele><time>2026-04-11T12:46:02.018Z</time></trkpt><trkpt lat="46.4841158" lon="9.9112819"><ele>1830.0</ele><time>2026-04-11T12:46:03.018Z</time></trkpt><trkpt lat="46.484007" lon="9.9114361"><ele>1830.0</ele><time>2026-04-11T12:46:04.018Z</time></trkpt><trkpt lat="46.4838938" lon="9.9115975"><ele>1830.0</ele><time>2026-04-11T12:46:05.018Z</time></trkpt><trkpt lat="46.4837813" lon="9.9117685"><ele>1830.0</ele><time>2026-04-11T12:46:06.018Z</time></trkpt><trkpt lat="46.4836669" lon="9.9119401"><ele>1827.6666666666665</ele><time>2026-04-11T12:46:07.018Z</time></trkpt><trkpt lat="46.4835467" lon="9.9121086"><ele>1825.3333333333333</ele><time>2026-04-11T12:46:08.018Z</time></trkpt><trkpt lat="46.4834307" lon="9.9122809"><ele>1823.0</ele><time>2026-04-11T12:46:09.017Z</time></trkpt><trkpt lat="46.4833124" lon="9.9124534"><ele>1825.0</ele><time>2026-04-11T12:46:10.018Z</time></trkpt><trkpt lat="46.483195" lon="9.9126244"><ele>1827.0</ele><time>2026-04-11T12:46:11.018Z</time></trkpt><trkpt lat="46.4830815" lon="9.9127899"><ele>1829.0</ele><time>2026-04-11T12:46:12.018Z</time></trkpt><trkpt lat="46.4829726" lon="9.912957"><ele>1829.0</ele><time>2026-04-11T12:46:13.018Z</time></trkpt><trkpt lat="46.4828694" lon="9.9131185"><ele>1829.0</ele><time>2026-04-11T12:46:14.018Z</time></trkpt><trkpt lat="46.4827677" lon="9.9132671"><ele>1829.0</ele><time>2026-04-11T12:46:15.018Z</time></trkpt><trkpt lat="46.4826657" lon="9.9134167"><ele>1829.0</ele><time>2026-04-11T12:46:16.018Z</time></trkpt><trkpt lat="46.4825637" lon="9.9135612"><ele>1829.0</ele><time>2026-04-11T12:46:17.017Z</time></trkpt><trkpt lat="46.4824688" lon="9.9137059"><ele>1829.0</ele><time>2026-04-11T12:46:18.018Z</time></trkpt><trkpt lat="46.482373" lon="9.9138498"><ele>1829.0</ele><time>2026-04-11T12:46:19.017Z</time></trkpt><trkpt lat="46.4822765" lon="9.9139951"><ele>1829.0</ele><time>2026-04-11T12:46:20.018Z</time></trkpt><trkpt lat="46.4821785" lon="9.9141367"><ele>1828.75</ele><time>2026-04-11T12:46:21.018Z</time></trkpt><trkpt lat="46.4820854" lon="9.914275"><ele>1828.5</ele><time>2026-04-11T12:46:22.017Z</time></trkpt><trkpt lat="46.4819911" lon="9.9144187"><ele>1828.25</ele><time>2026-04-11T12:46:23.018Z</time></trkpt><trkpt lat="46.4818919" lon="9.9145596"><ele>1828.0</ele><time>2026-04-11T12:46:24.018Z</time></trkpt><trkpt lat="46.4817967" lon="9.9147002"><ele>1828.0</ele><time>2026-04-11T12:46:25.018Z</time></trkpt><trkpt lat="46.4816974" lon="9.9148466"><ele>1828.0</ele><time>2026-04-11T12:46:26.018Z</time></trkpt><trkpt lat="46.481599" lon="9.9149932"><ele>1828.0</ele><time>2026-04-11T12:46:27.018Z</time></trkpt><trkpt lat="46.4814986" lon="9.9151446"><ele>1828.0</ele><time>2026-04-11T12:46:28.018Z</time></trkpt><trkpt lat="46.4814026" lon="9.9152945"><ele>1828.0</ele><time>2026-04-11T12:46:29.018Z</time></trkpt><trkpt lat="46.4813058" lon="9.915448"><ele>1828.0</ele><time>2026-04-11T12:46:30.018Z</time></trkpt><trkpt lat="46.481205" lon="9.9156139"><ele>1828.0</ele><time>2026-04-11T12:46:31.018Z</time></trkpt><trkpt lat="46.4810917" lon="9.9157986"><ele>1829.3333333333335</ele><time>2026-04-11T12:46:32.018Z</time></trkpt><trkpt lat="46.4809766" lon="9.9160171"><ele>1830.6666666666665</ele><time>2026-04-11T12:46:33.018Z</time></trkpt><trkpt lat="46.4808695" lon="9.9162369"><ele>1832.0</ele><time>2026-04-11T12:46:34.018Z</time></trkpt><trkpt lat="46.4807645" lon="9.9164665"><ele>1832.0</ele><time>2026-04-11T12:46:35.018Z</time></trkpt><trkpt lat="46.4806586" lon="9.9166968"><ele>1832.0</ele><time>2026-04-11T12:46:36.018Z</time></trkpt><trkpt lat="46.4805576" lon="9.916925"><ele>1832.0</ele><time>2026-04-11T12:46:37.017Z</time></trkpt><trkpt lat="46.4804605" lon="9.9171497"><ele>1831.6666666666665</ele><time>2026-04-11T12:46:38.018Z</time></trkpt><trkpt lat="46.480365" lon="9.9173699"><ele>1831.3333333333335</ele><time>2026-04-11T12:46:39.018Z</time></trkpt><trkpt lat="46.4802648" lon="9.917589"><ele>1831.0</ele><time>2026-04-11T12:46:40.018Z</time></trkpt><trkpt lat="46.480162" lon="9.9177948"><ele>1832.0</ele><time>2026-04-11T12:46:41.018Z</time></trkpt><trkpt lat="46.4800652" lon="9.9180095"><ele>1833.0</ele><time>2026-04-11T12:46:42.018Z</time></trkpt><trkpt lat="46.4799734" lon="9.9182261"><ele>1834.0</ele><time>2026-04-11T12:46:43.018Z</time></trkpt><trkpt lat="46.47988" lon="9.9184369"><ele>1836.6666666666667</ele><time>2026-04-11T12:46:44.018Z</time></trkpt><trkpt lat="46.4797894" lon="9.9186475"><ele>1839.3333333333335</ele><time>2026-04-11T12:46:45.018Z</time></trkpt><trkpt lat="46.4796941" lon="9.9188571"><ele>1842.0</ele><time>2026-04-11T12:46:46.018Z</time></trkpt><trkpt lat="46.4796012" lon="9.9190634"><ele>1840.0</ele><time>2026-04-11T12:46:47.018Z</time></trkpt><trkpt lat="46.4795024" lon="9.9192709"><ele>1838.0</ele><time>2026-04-11T12:46:48.018Z</time></trkpt><trkpt lat="46.4793961" lon="9.9194768"><ele>1836.0</ele><time>2026-04-11T12:46:49.018Z</time></trkpt><trkpt lat="46.4792776" lon="9.9196903"><ele>1836.0</ele><time>2026-04-11T12:46:50.018Z</time></trkpt><trkpt lat="46.4791503" lon="9.9199006"><ele>1836.0</ele><time>2026-04-11T12:46:51.017Z</time></trkpt><trkpt lat="46.4790145" lon="9.9200996"><ele>1836.0</ele><time>2026-04-11T12:46:52.018Z</time></trkpt><trkpt lat="46.4788595" lon="9.920303"><ele>1834.6666666666665</ele><time>2026-04-11T12:46:53.017Z</time></trkpt><trkpt lat="46.4786944" lon="9.9204951"><ele>1833.3333333333333</ele><time>2026-04-11T12:46:54.018Z</time></trkpt><trkpt lat="46.4785139" lon="9.9206831"><ele>1832.0</ele><time>2026-04-11T12:46:55.018Z</time></trkpt><trkpt lat="46.4783302" lon="9.9208609"><ele>1834.0</ele><time>2026-04-11T12:46:56.018Z</time></trkpt><trkpt lat="46.4781521" lon="9.9210363"><ele>1836.0</ele><time>2026-04-11T12:46:57.018Z</time></trkpt><trkpt lat="46.4779742" lon="9.9212166"><ele>1838.0</ele><time>2026-04-11T12:46:58.018Z</time></trkpt><trkpt lat="46.477804" lon="9.9213922"><ele>1838.0</ele><time>2026-04-11T12:46:59.018Z</time></trkpt><trkpt lat="46.4776334" lon="9.9215636"><ele>1838.0</ele><time>2026-04-11T12:47:00.018Z</time></trkpt><trkpt lat="46.4774668" lon="9.9217353"><ele>1838.0</ele><time>2026-04-11T12:47:01.018Z</time></trkpt><trkpt lat="46.477302" lon="9.9219014"><ele>1840.0</ele><time>2026-04-11T12:47:02.018Z</time></trkpt><trkpt lat="46.4771407" lon="9.9220676"><ele>1842.0</ele><time>2026-04-11T12:47:03.018Z</time></trkpt><trkpt lat="46.4769784" lon="9.9222307"><ele>1844.0</ele><time>2026-04-11T12:47:04.018Z</time></trkpt><trkpt lat="46.4768155" lon="9.9223872"><ele>1844.0</ele><time>2026-04-11T12:47:05.018Z</time></trkpt><trkpt lat="46.476648" lon="9.9225312"><ele>1844.0</ele><time>2026-04-11T12:47:06.018Z</time></trkpt><trkpt lat="46.4764758" lon="9.9226573"><ele>1844.0</ele><time>2026-04-11T12:47:07.018Z</time></trkpt><trkpt lat="46.4763036" lon="9.9227677"><ele>1846.6666666666665</ele><time>2026-04-11T12:47:08.018Z</time></trkpt><trkpt lat="46.4761251" lon="9.9228592"><ele>1849.3333333333335</ele><time>2026-04-11T12:47:09.018Z</time></trkpt><trkpt lat="46.4759421" lon="9.9229308"><ele>1852.0</ele><time>2026-04-11T12:47:10.018Z</time></trkpt><trkpt lat="46.4757569" lon="9.9229946"><ele>1852.0</ele><time>2026-04-11T12:47:11.018Z</time></trkpt><trkpt lat="46.4755707" lon="9.923044"><ele>1852.0</ele><time>2026-04-11T12:47:12.018Z</time></trkpt><trkpt lat="46.4753794" lon="9.9230847"><ele>1852.0</ele><time>2026-04-11T12:47:13.018Z</time></trkpt><trkpt lat="46.4751825" lon="9.9231158"><ele>1849.6666666666667</ele><time>2026-04-11T12:47:14.017Z</time></trkpt><trkpt lat="46.4749982" lon="9.9231601"><ele>1847.3333333333335</ele><time>2026-04-11T12:47:15.018Z</time></trkpt><trkpt lat="46.4748225" lon="9.9232294"><ele>1845.0</ele><time>2026-04-11T12:47:16.017Z</time></trkpt><trkpt lat="46.4746676" lon="9.9233371"><ele>1846.0</ele><time>2026-04-11T12:47:17.018Z</time></trkpt><trkpt lat="46.4745228" lon="9.9234811"><ele>1847.0</ele><time>2026-04-11T12:47:18.017Z</time></trkpt><trkpt lat="46.4743812" lon="9.923649"><ele>1848.0</ele><time>2026-04-11T12:47:19.017Z</time></trkpt><trkpt lat="46.4742476" lon="9.9238405"><ele>1848.0</ele><time>2026-04-11T12:47:20.018Z</time></trkpt><trkpt lat="46.4741203" lon="9.9240433"><ele>1848.0</ele><time>2026-04-11T12:47:21.018Z</time></trkpt><trkpt lat="46.4739926" lon="9.9242397"><ele>1848.0</ele><time>2026-04-11T12:47:22.018Z</time></trkpt><trkpt lat="46.4738603" lon="9.9244236"><ele>1846.6666666666665</ele><time>2026-04-11T12:47:23.018Z</time></trkpt><trkpt lat="46.473707" lon="9.9245843"><ele>1845.3333333333333</ele><time>2026-04-11T12:47:24.018Z</time></trkpt><trkpt lat="46.4735381" lon="9.9247496"><ele>1844.0</ele><time>2026-04-11T12:47:25.018Z</time></trkpt><trkpt lat="46.4733632" lon="9.9249085"><ele>1845.0</ele><time>2026-04-11T12:47:26.018Z</time></trkpt><trkpt lat="46.4731853" lon="9.9250721"><ele>1846.0</ele><time>2026-04-11T12:47:27.018Z</time></trkpt><trkpt lat="46.4730151" lon="9.9252347"><ele>1847.0</ele><time>2026-04-11T12:47:28.018Z</time></trkpt><trkpt lat="46.4728569" lon="9.9253912"><ele>1847.0</ele><time>2026-04-11T12:47:29.018Z</time></trkpt><trkpt lat="46.4726997" lon="9.925541"><ele>1847.0</ele><time>2026-04-11T12:47:30.018Z</time></trkpt><trkpt lat="46.4725524" lon="9.9256851"><ele>1847.0</ele><time>2026-04-11T12:47:31.018Z</time></trkpt><trkpt lat="46.472405" lon="9.9258257"><ele>1848.6666666666665</ele><time>2026-04-11T12:47:32.018Z</time></trkpt><trkpt lat="46.4722533" lon="9.9259664"><ele>1850.3333333333335</ele><time>2026-04-11T12:47:33.017Z</time></trkpt><trkpt lat="46.4721005" lon="9.9261074"><ele>1852.0</ele><time>2026-04-11T12:47:34.018Z</time></trkpt><trkpt lat="46.4719478" lon="9.9262429"><ele>1852.0</ele><time>2026-04-11T12:47:35.018Z</time></trkpt><trkpt lat="46.4717925" lon="9.926378"><ele>1852.0</ele><time>2026-04-11T12:47:36.017Z</time></trkpt><trkpt lat="46.4716381" lon="9.9265178"><ele>1852.0</ele><time>2026-04-11T12:47:37.018Z</time></trkpt><trkpt lat="46.4714813" lon="9.926661"><ele>1853.3333333333335</ele><time>2026-04-11T12:47:38.017Z</time></trkpt><trkpt lat="46.4713222" lon="9.9267987"><ele>1854.6666666666665</ele><time>2026-04-11T12:47:39.018Z</time></trkpt><trkpt lat="46.4711584" lon="9.9269376"><ele>1856.0</ele><time>2026-04-11T12:47:40.018Z</time></trkpt><trkpt lat="46.4709887" lon="9.9270698"><ele>1856.0</ele><time>2026-04-11T12:47:41.018Z</time></trkpt><trkpt lat="46.4708158" lon="9.9272006"><ele>1856.0</ele><time>2026-04-11T12:47:42.018Z</time></trkpt><trkpt lat="46.47064" lon="9.9273312"><ele>1856.0</ele><time>2026-04-11T12:47:43.018Z</time></trkpt><trkpt lat="46.4704654" lon="9.9274629"><ele>1857.3333333333333</ele><time>2026-04-11T12:47:44.017Z</time></trkpt><trkpt lat="46.4702887" lon="9.9275866"><ele>1858.6666666666665</ele><time>2026-04-11T12:47:45.018Z</time></trkpt><trkpt lat="46.4701116" lon="9.9277148"><ele>1860.0</ele><time>2026-04-11T12:47:46.018Z</time></trkpt><trkpt lat="46.4699372" lon="9.9278449"><ele>1860.0</ele><time>2026-04-11T12:47:47.018Z</time></trkpt><trkpt lat="46.469764" lon="9.927973"><ele>1860.0</ele><time>2026-04-11T12:47:48.018Z</time></trkpt><trkpt lat="46.4695887" lon="9.9280964"><ele>1860.0</ele><time>2026-04-11T12:47:49.018Z</time></trkpt><trkpt lat="46.4694257" lon="9.9282146"><ele>1860.3333333333335</ele><time>2026-04-11T12:47:50.017Z</time></trkpt><trkpt lat="46.4692636" lon="9.928334"><ele>1860.6666666666667</ele><time>2026-04-11T12:47:51.018Z</time></trkpt><trkpt lat="46.4691033" lon="9.9284562"><ele>1861.0</ele><time>2026-04-11T12:47:52.018Z</time></trkpt><trkpt lat="46.4689359" lon="9.9285742"><ele>1861.3333333333335</ele><time>2026-04-11T12:47:53.018Z</time></trkpt><trkpt lat="46.4687676" lon="9.9286944"><ele>1861.6666666666665</ele><time>2026-04-11T12:47:54.017Z</time></trkpt><trkpt lat="46.4685977" lon="9.9288155"><ele>1862.0</ele><time>2026-04-11T12:47:55.018Z</time></trkpt><trkpt lat="46.468432" lon="9.9289365"><ele>1862.0</ele><time>2026-04-11T12:47:56.018Z</time></trkpt><trkpt lat="46.4682667" lon="9.9290646"><ele>1862.0</ele><time>2026-04-11T12:47:57.018Z</time></trkpt><trkpt lat="46.4681022" lon="9.9292018"><ele>1862.0</ele><time>2026-04-11T12:47:58.018Z</time></trkpt><trkpt lat="46.4679433" lon="9.9293537"><ele>1864.0</ele><time>2026-04-11T12:47:59.018Z</time></trkpt><trkpt lat="46.4677905" lon="9.9295172"><ele>1866.0</ele><time>2026-04-11T12:48:00.018Z</time></trkpt><trkpt lat="46.4676382" lon="9.9296822"><ele>1868.0</ele><time>2026-04-11T12:48:01.017Z</time></trkpt><trkpt lat="46.4674879" lon="9.9298476"><ele>1868.0</ele><time>2026-04-11T12:48:02.018Z</time></trkpt><trkpt lat="46.4673365" lon="9.9300202"><ele>1868.0</ele><time>2026-04-11T12:48:03.018Z</time></trkpt><trkpt lat="46.4671851" lon="9.9301878"><ele>1868.0</ele><time>2026-04-11T12:48:04.018Z</time></trkpt><trkpt lat="46.4670343" lon="9.9303583"><ele>1867.6666666666665</ele><time>2026-04-11T12:48:05.017Z</time></trkpt><trkpt lat="46.4668791" lon="9.9305277"><ele>1867.3333333333335</ele><time>2026-04-11T12:48:06.018Z</time></trkpt><trkpt lat="46.4667233" lon="9.9307008"><ele>1867.0</ele><time>2026-04-11T12:48:07.018Z</time></trkpt><trkpt lat="46.4665692" lon="9.9308777"><ele>1867.6666666666667</ele><time>2026-04-11T12:48:08.017Z</time></trkpt><trkpt lat="46.466422" lon="9.9310536"><ele>1868.3333333333335</ele><time>2026-04-11T12:48:09.018Z</time></trkpt><trkpt lat="46.4662811" lon="9.9312358"><ele>1869.0</ele><time>2026-04-11T12:48:10.018Z</time></trkpt><trkpt lat="46.4661468" lon="9.9314373"><ele>1869.0</ele><time>2026-04-11T12:48:11.018Z</time></trkpt><trkpt lat="46.4660233" lon="9.9316414"><ele>1869.0</ele><time>2026-04-11T12:48:12.018Z</time></trkpt><trkpt lat="46.4659045" lon="9.9318544"><ele>1869.0</ele><time>2026-04-11T12:48:13.018Z</time></trkpt><trkpt lat="46.4657849" lon="9.9320678"><ele>1872.3333333333335</ele><time>2026-04-11T12:48:14.018Z</time></trkpt><trkpt lat="46.4656642" lon="9.9322604"><ele>1875.6666666666667</ele><time>2026-04-11T12:48:15.018Z</time></trkpt><trkpt lat="46.4655336" lon="9.9324268"><ele>1879.0</ele><time>2026-04-11T12:48:16.018Z</time></trkpt><trkpt lat="46.4653852" lon="9.9325596"><ele>1880.3333333333335</ele><time>2026-04-11T12:48:17.017Z</time></trkpt><trkpt lat="46.4652231" lon="9.9326791"><ele>1881.6666666666665</ele><time>2026-04-11T12:48:18.017Z</time></trkpt><trkpt lat="46.4650547" lon="9.9327921"><ele>1883.0</ele><time>2026-04-11T12:48:19.018Z</time></trkpt><trkpt lat="46.4648886" lon="9.9329293"><ele>1883.0</ele><time>2026-04-11T12:48:20.017Z</time></trkpt><trkpt lat="46.4647128" lon="9.9330873"><ele>1883.0</ele><time>2026-04-11T12:48:21.018Z</time></trkpt><trkpt lat="46.4645327" lon="9.9332708"><ele>1883.0</ele><time>2026-04-11T12:48:22.018Z</time></trkpt><trkpt lat="46.4643615" lon="9.9334841"><ele>1882.3333333333333</ele><time>2026-04-11T12:48:23.018Z</time></trkpt><trkpt lat="46.4642" lon="9.9336918"><ele>1881.6666666666665</ele><time>2026-04-11T12:48:24.018Z</time></trkpt><trkpt lat="46.4640585" lon="9.9338937"><ele>1881.0</ele><time>2026-04-11T12:48:25.018Z</time></trkpt><trkpt lat="46.4639159" lon="9.9340763"><ele>1881.3333333333335</ele><time>2026-04-11T12:48:26.018Z</time></trkpt><trkpt lat="46.4637758" lon="9.9342556"><ele>1881.6666666666667</ele><time>2026-04-11T12:48:27.017Z</time></trkpt><trkpt lat="46.4636511" lon="9.9344292"><ele>1882.0</ele><time>2026-04-11T12:48:28.018Z</time></trkpt><trkpt lat="46.463524" lon="9.9345907"><ele>1882.0</ele><time>2026-04-11T12:48:29.018Z</time></trkpt><trkpt lat="46.4633912" lon="9.9347468"><ele>1882.0</ele><time>2026-04-11T12:48:30.018Z</time></trkpt><trkpt lat="46.463249" lon="9.9348906"><ele>1882.0</ele><time>2026-04-11T12:48:31.018Z</time></trkpt><trkpt lat="46.4631075" lon="9.9350386"><ele>1882.6666666666667</ele><time>2026-04-11T12:48:32.018Z</time></trkpt><trkpt lat="46.4629679" lon="9.935197"><ele>1883.3333333333335</ele><time>2026-04-11T12:48:33.018Z</time></trkpt><trkpt lat="46.462839" lon="9.9353725"><ele>1884.0</ele><time>2026-04-11T12:48:34.018Z</time></trkpt><trkpt lat="46.4627196" lon="9.9355659"><ele>1884.0</ele><time>2026-04-11T12:48:35.017Z</time></trkpt><trkpt lat="46.4626106" lon="9.9357619"><ele>1884.0</ele><time>2026-04-11T12:48:36.018Z</time></trkpt><trkpt lat="46.4624999" lon="9.9359685"><ele>1884.0</ele><time>2026-04-11T12:48:37.018Z</time></trkpt><trkpt lat="46.4623961" lon="9.9361805"><ele>1887.6666666666665</ele><time>2026-04-11T12:48:38.018Z</time></trkpt><trkpt lat="46.4623077" lon="9.9363943"><ele>1891.3333333333333</ele><time>2026-04-11T12:48:39.018Z</time></trkpt><trkpt lat="46.4622252" lon="9.9366122"><ele>1895.0</ele><time>2026-04-11T12:48:40.018Z</time></trkpt><trkpt lat="46.4621536" lon="9.9368262"><ele>1894.6666666666665</ele><time>2026-04-11T12:48:41.018Z</time></trkpt><trkpt lat="46.4620791" lon="9.9370322"><ele>1894.3333333333335</ele><time>2026-04-11T12:48:42.017Z</time></trkpt><trkpt lat="46.4620072" lon="9.937234"><ele>1894.0</ele><time>2026-04-11T12:48:43.018Z</time></trkpt><trkpt lat="46.4619398" lon="9.9374313"><ele>1897.5</ele><time>2026-04-11T12:48:44.018Z</time></trkpt><trkpt lat="46.4618752" lon="9.9376269"><ele>1901.0</ele><time>2026-04-11T12:48:45.018Z</time></trkpt><trkpt lat="46.4618062" lon="9.9378136"><ele>1904.5</ele><time>2026-04-11T12:48:46.017Z</time></trkpt><trkpt lat="46.4617258" lon="9.9379957"><ele>1908.0</ele><time>2026-04-11T12:48:47.018Z</time></trkpt><trkpt lat="46.461642" lon="9.9381668"><ele>1908.0</ele><time>2026-04-11T12:48:48.018Z</time></trkpt><trkpt lat="46.4615564" lon="9.9383441"><ele>1908.0</ele><time>2026-04-11T12:48:49.017Z</time></trkpt><trkpt lat="46.461473" lon="9.9385183"><ele>1908.0</ele><time>2026-04-11T12:48:50.018Z</time></trkpt><trkpt lat="46.4613884" lon="9.9386848"><ele>1908.0</ele><time>2026-04-11T12:48:51.018Z</time></trkpt><trkpt lat="46.4612838" lon="9.9388288"><ele>1908.25</ele><time>2026-04-11T12:48:52.018Z</time></trkpt><trkpt lat="46.4611623" lon="9.9389445"><ele>1908.5</ele><time>2026-04-11T12:48:53.018Z</time></trkpt><trkpt lat="46.4610425" lon="9.939032"><ele>1908.75</ele><time>2026-04-11T12:48:54.018Z</time></trkpt><trkpt lat="46.4609124" lon="9.9391192"><ele>1909.0</ele><time>2026-04-11T12:48:55.018Z</time></trkpt><trkpt lat="46.4607873" lon="9.9392184"><ele>1910.0</ele><time>2026-04-11T12:48:56.017Z</time></trkpt><trkpt lat="46.4606638" lon="9.9393382"><ele>1911.0</ele><time>2026-04-11T12:48:57.018Z</time></trkpt><trkpt lat="46.4605533" lon="9.9394523"><ele>1912.0</ele><time>2026-04-11T12:48:58.017Z</time></trkpt><trkpt lat="46.4604454" lon="9.9395684"><ele>1913.0</ele><time>2026-04-11T12:48:59.018Z</time></trkpt><trkpt lat="46.4603324" lon="9.9396857"><ele>1913.0</ele><time>2026-04-11T12:49:00.018Z</time></trkpt><trkpt lat="46.4602173" lon="9.9397944"><ele>1913.0</ele><time>2026-04-11T12:49:01.018Z</time></trkpt><trkpt lat="46.4600984" lon="9.9399063"><ele>1913.0</ele><time>2026-04-11T12:49:02.018Z</time></trkpt><trkpt lat="46.4599746" lon="9.9400041"><ele>1913.0</ele><time>2026-04-11T12:49:03.018Z</time></trkpt><trkpt lat="46.4598468" lon="9.9400924"><ele>1917.25</ele><time>2026-04-11T12:49:04.018Z</time></trkpt><trkpt lat="46.4597117" lon="9.9401753"><ele>1921.5</ele><time>2026-04-11T12:49:05.018Z</time></trkpt><trkpt lat="46.459582" lon="9.9402458"><ele>1925.75</ele><time>2026-04-11T12:49:06.018Z</time></trkpt><trkpt lat="46.4594591" lon="9.9402917"><ele>1930.0</ele><time>2026-04-11T12:49:07.018Z</time></trkpt><trkpt lat="46.4593466" lon="9.9403234"><ele>1933.0</ele><time>2026-04-11T12:49:08.018Z</time></trkpt><trkpt lat="46.4592365" lon="9.940356"><ele>1936.0</ele><time>2026-04-11T12:49:09.018Z</time></trkpt><trkpt lat="46.4591306" lon="9.9404008"><ele>1939.0</ele><time>2026-04-11T12:49:10.018Z</time></trkpt><trkpt lat="46.4590308" lon="9.9404746"><ele>1942.0</ele><time>2026-04-11T12:49:11.017Z</time></trkpt><trkpt lat="46.4589248" lon="9.9405607"><ele>1942.0</ele><time>2026-04-11T12:49:12.018Z</time></trkpt><trkpt lat="46.4588235" lon="9.9406635"><ele>1942.0</ele><time>2026-04-11T12:49:13.018Z</time></trkpt><trkpt lat="46.4587197" lon="9.9407696"><ele>1942.0</ele><time>2026-04-11T12:49:14.018Z</time></trkpt><trkpt lat="46.4586252" lon="9.940874"><ele>1942.0</ele><time>2026-04-11T12:49:15.018Z</time></trkpt><trkpt lat="46.4585362" lon="9.940981"><ele>1942.0</ele><time>2026-04-11T12:49:16.018Z</time></trkpt><trkpt lat="46.4584511" lon="9.941081"><ele>1941.9999999999998</ele><time>2026-04-11T12:49:17.018Z</time></trkpt><trkpt lat="46.4583756" lon="9.9411774"><ele>1941.9999999999998</ele><time>2026-04-11T12:49:18.018Z</time></trkpt><trkpt lat="46.4582922" lon="9.9412385"><ele>1942.0</ele><time>2026-04-11T12:49:19.018Z</time></trkpt><trkpt lat="46.4581901" lon="9.9412595"><ele>1942.0</ele><time>2026-04-11T12:49:20.018Z</time></trkpt><trkpt lat="46.4580816" lon="9.941241"><ele>1942.0</ele><time>2026-04-11T12:49:21.018Z</time></trkpt><trkpt lat="46.4579719" lon="9.9411988"><ele>1942.0</ele><time>2026-04-11T12:49:22.018Z</time></trkpt><trkpt lat="46.4578727" lon="9.9411672"><ele>1942.0</ele><time>2026-04-11T12:49:23.018Z</time></trkpt><trkpt lat="46.4577578" lon="9.9411605"><ele>1942.0</ele><time>2026-04-11T12:49:24.018Z</time></trkpt><trkpt lat="46.4576331" lon="9.9411965"><ele>1940.25</ele><time>2026-04-11T12:49:25.017Z</time></trkpt><trkpt lat="46.4575164" lon="9.9412684"><ele>1938.5</ele><time>2026-04-11T12:49:26.018Z</time></trkpt><trkpt lat="46.457413" lon="9.9413544"><ele>1936.75</ele><time>2026-04-11T12:49:27.018Z</time></trkpt><trkpt lat="46.4573268" lon="9.9414549"><ele>1935.0</ele><time>2026-04-11T12:49:28.018Z</time></trkpt><trkpt lat="46.4572406" lon="9.9415597"><ele>1935.0</ele><time>2026-04-11T12:49:29.017Z</time></trkpt><trkpt lat="46.4571689" lon="9.9416623"><ele>1935.0</ele><time>2026-04-11T12:49:30.017Z</time></trkpt><trkpt lat="46.4571047" lon="9.9417727"><ele>1935.0</ele><time>2026-04-11T12:49:31.016Z</time></trkpt><trkpt lat="46.4570417" lon="9.9418629"><ele>1935.0</ele><time>2026-04-11T12:49:32.017Z</time></trkpt><trkpt lat="46.4569889" lon="9.9419432"><ele>1935.0</ele><time>2026-04-11T12:49:33.016Z</time></trkpt><trkpt lat="46.4569349" lon="9.9420111"><ele>1935.0</ele><time>2026-04-11T12:49:34.017Z</time></trkpt><trkpt lat="46.4568329" lon="9.9421007"><ele>1936.75</ele><time>2026-04-11T12:49:36.016Z</time></trkpt><trkpt lat="46.456729" lon="9.9421819"><ele>1938.5</ele><time>2026-04-11T12:49:38.017Z</time></trkpt><trkpt lat="46.4566762" lon="9.9423265"><ele>1940.25</ele><time>2026-04-11T12:49:40.016Z</time></trkpt><trkpt lat="46.4567404" lon="9.9424383"><ele>1942.0</ele><time>2026-04-11T12:49:42.017Z</time></trkpt><trkpt lat="46.4568621" lon="9.9424224"><ele>1942.0</ele><time>2026-04-11T12:49:44.017Z</time></trkpt><trkpt lat="46.4569323" lon="9.9423541"><ele>1941.9999999999998</ele><time>2026-04-11T12:49:45.016Z</time></trkpt><trkpt lat="46.4570042" lon="9.94228"><ele>1941.9999999999998</ele><time>2026-04-11T12:49:46.017Z</time></trkpt><trkpt lat="46.4570878" lon="9.9422099"><ele>1942.0</ele><time>2026-04-11T12:49:47.017Z</time></trkpt><trkpt lat="46.4571828" lon="9.9421406"><ele>1942.0</ele><time>2026-04-11T12:49:48.017Z</time></trkpt><trkpt lat="46.4572906" lon="9.9420832"><ele>1944.3999999999999</ele><time>2026-04-11T12:49:49.017Z</time></trkpt><trkpt lat="46.4573982" lon="9.9420366"><ele>1946.7999999999997</ele><time>2026-04-11T12:49:50.016Z</time></trkpt><trkpt lat="46.4575071" lon="9.9420152"><ele>1949.2</ele><time>2026-04-11T12:49:51.017Z</time></trkpt><trkpt lat="46.4576094" lon="9.9420224"><ele>1951.6</ele><time>2026-04-11T12:49:52.016Z</time></trkpt><trkpt lat="46.4577103" lon="9.9420281"><ele>1954.0</ele><time>2026-04-11T12:49:53.017Z</time></trkpt><trkpt lat="46.4578013" lon="9.9420385"><ele>1954.0</ele><time>2026-04-11T12:49:54.017Z</time></trkpt><trkpt lat="46.4578746" lon="9.9420499"><ele>1954.0</ele><time>2026-04-11T12:49:55.017Z</time></trkpt><trkpt lat="46.4579791" lon="9.942081"><ele>1954.0</ele><time>2026-04-11T12:49:57.017Z</time></trkpt><trkpt lat="46.4580668" lon="9.9421512"><ele>1954.0</ele><time>2026-04-11T12:49:59.017Z</time></trkpt><trkpt lat="46.4580877" lon="9.9423292"><ele>1954.0</ele><time>2026-04-11T12:50:01.017Z</time></trkpt><trkpt lat="46.458001" lon="9.9424158"><ele>1954.0000000000002</ele><time>2026-04-11T12:50:03.017Z</time></trkpt><trkpt lat="46.457937" lon="9.9424273"><ele>1954.0</ele><time>2026-04-11T12:50:04.016Z</time></trkpt><trkpt lat="46.4578694" lon="9.9424272"><ele>1954.0</ele><time>2026-04-11T12:50:05.017Z</time></trkpt><trkpt lat="46.4578005" lon="9.9424457"><ele>1954.0</ele><time>2026-04-11T12:50:06.017Z</time></trkpt><trkpt lat="46.457676" lon="9.9424842"><ele>1954.0000000000002</ele><time>2026-04-11T12:50:08.017Z</time></trkpt><trkpt lat="46.4575814" lon="9.9425483"><ele>1954.0</ele><time>2026-04-11T12:50:10.017Z</time></trkpt><trkpt lat="46.4575026" lon="9.9426228"><ele>1955.1666666666667</ele><time>2026-04-11T12:50:12.017Z</time></trkpt><trkpt lat="46.457412" lon="9.9426986"><ele>1956.3333333333335</ele><time>2026-04-11T12:50:14.017Z</time></trkpt><trkpt lat="46.4572996" lon="9.9427855"><ele>1957.5</ele><time>2026-04-11T12:50:16.017Z</time></trkpt><trkpt lat="46.4572392" lon="9.9428182"><ele>1958.6666666666665</ele><time>2026-04-11T12:50:17.017Z</time></trkpt><trkpt lat="46.4571747" lon="9.9428416"><ele>1959.8333333333333</ele><time>2026-04-11T12:50:18.017Z</time></trkpt><trkpt lat="46.4571092" lon="9.9428684"><ele>1961.0</ele><time>2026-04-11T12:50:19.017Z</time></trkpt><trkpt lat="46.4570464" lon="9.9429034"><ele>1960.9999999999998</ele><time>2026-04-11T12:50:20.017Z</time></trkpt><trkpt lat="46.4569847" lon="9.9429492"><ele>1961.0</ele><time>2026-04-11T12:50:21.016Z</time></trkpt><trkpt lat="46.4569254" lon="9.9430145"><ele>1961.0</ele><time>2026-04-11T12:50:22.017Z</time></trkpt><trkpt lat="46.4568639" lon="9.9430978"><ele>1961.0</ele><time>2026-04-11T12:50:23.017Z</time></trkpt><trkpt lat="46.4568081" lon="9.9431942"><ele>1960.9999999999998</ele><time>2026-04-11T12:50:24.017Z</time></trkpt><trkpt lat="46.4567577" lon="9.943304"><ele>1961.0</ele><time>2026-04-11T12:50:25.017Z</time></trkpt><trkpt lat="46.4567008" lon="9.943419"><ele>1963.6</ele><time>2026-04-11T12:50:26.017Z</time></trkpt><trkpt lat="46.4566394" lon="9.9435477"><ele>1966.1999999999998</ele><time>2026-04-11T12:50:27.017Z</time></trkpt><trkpt lat="46.456584" lon="9.9436645"><ele>1968.8000000000002</ele><time>2026-04-11T12:50:28.017Z</time></trkpt><trkpt lat="46.456528" lon="9.943777"><ele>1971.4</ele><time>2026-04-11T12:50:29.017Z</time></trkpt><trkpt lat="46.4564722" lon="9.9439025"><ele>1974.0</ele><time>2026-04-11T12:50:30.016Z</time></trkpt><trkpt lat="46.4564131" lon="9.9440332"><ele>1974.0</ele><time>2026-04-11T12:50:31.017Z</time></trkpt><trkpt lat="46.4563486" lon="9.9441675"><ele>1974.0</ele><time>2026-04-11T12:50:32.017Z</time></trkpt><trkpt lat="46.456274" lon="9.94429"><ele>1974.0</ele><time>2026-04-11T12:50:33.016Z</time></trkpt><trkpt lat="46.456178" lon="9.944392"><ele>1974.0</ele><time>2026-04-11T12:50:34.017Z</time></trkpt><trkpt lat="46.4560716" lon="9.9444729"><ele>1977.0</ele><time>2026-04-11T12:50:35.016Z</time></trkpt><trkpt lat="46.4559625" lon="9.9445377"><ele>1980.0</ele><time>2026-04-11T12:50:36.017Z</time></trkpt><trkpt lat="46.4558479" lon="9.9445945"><ele>1983.0</ele><time>2026-04-11T12:50:37.017Z</time></trkpt><trkpt lat="46.45573" lon="9.9446414"><ele>1986.0</ele><time>2026-04-11T12:50:38.017Z</time></trkpt><trkpt lat="46.4556175" lon="9.9446862"><ele>1986.0</ele><time>2026-04-11T12:50:39.017Z</time></trkpt><trkpt lat="46.4555073" lon="9.9447336"><ele>1986.0</ele><time>2026-04-11T12:50:40.016Z</time></trkpt><trkpt lat="46.4553998" lon="9.9447991"><ele>1986.0</ele><time>2026-04-11T12:50:41.017Z</time></trkpt><trkpt lat="46.4553034" lon="9.9448912"><ele>1986.0</ele><time>2026-04-11T12:50:42.016Z</time></trkpt><trkpt lat="46.4552177" lon="9.9450148"><ele>1986.75</ele><time>2026-04-11T12:50:43.017Z</time></trkpt><trkpt lat="46.4551351" lon="9.9451469"><ele>1987.5</ele><time>2026-04-11T12:50:44.017Z</time></trkpt><trkpt lat="46.4550485" lon="9.9452891"><ele>1988.25</ele><time>2026-04-11T12:50:45.017Z</time></trkpt><trkpt lat="46.4549611" lon="9.9454383"><ele>1989.0</ele><time>2026-04-11T12:50:46.017Z</time></trkpt><trkpt lat="46.454864" lon="9.9455799"><ele>1989.0</ele><time>2026-04-11T12:50:47.016Z</time></trkpt><trkpt lat="46.4547549" lon="9.945711"><ele>1989.0</ele><time>2026-04-11T12:50:48.017Z</time></trkpt><trkpt lat="46.454641" lon="9.9458339"><ele>1989.0</ele><time>2026-04-11T12:50:49.017Z</time></trkpt><trkpt lat="46.4545159" lon="9.9459448"><ele>1989.0</ele><time>2026-04-11T12:50:50.016Z</time></trkpt><trkpt lat="46.4543836" lon="9.9460453"><ele>1991.25</ele><time>2026-04-11T12:50:51.017Z</time></trkpt><trkpt lat="46.454259" lon="9.9461458"><ele>1993.5</ele><time>2026-04-11T12:50:52.017Z</time></trkpt><trkpt lat="46.4541379" lon="9.9462542"><ele>1995.75</ele><time>2026-04-11T12:50:53.017Z</time></trkpt><trkpt lat="46.4540249" lon="9.946358"><ele>1998.0</ele><time>2026-04-11T12:50:54.016Z</time></trkpt><trkpt lat="46.4539199" lon="9.9464701"><ele>1998.0</ele><time>2026-04-11T12:50:55.017Z</time></trkpt><trkpt lat="46.4538239" lon="9.9465912"><ele>1998.0</ele><time>2026-04-11T12:50:56.017Z</time></trkpt><trkpt lat="46.4537429" lon="9.9467339"><ele>1998.0</ele><time>2026-04-11T12:50:57.017Z</time></trkpt><trkpt lat="46.4536777" lon="9.9468979"><ele>1998.0</ele><time>2026-04-11T12:50:58.017Z</time></trkpt><trkpt lat="46.4536232" lon="9.9470701"><ele>1998.0</ele><time>2026-04-11T12:50:59.017Z</time></trkpt><trkpt lat="46.4535689" lon="9.9472527"><ele>1998.0</ele><time>2026-04-11T12:51:00.017Z</time></trkpt><trkpt lat="46.4535088" lon="9.9474357"><ele>1998.0</ele><time>2026-04-11T12:51:01.017Z</time></trkpt><trkpt lat="46.4534476" lon="9.9476228"><ele>1998.0</ele><time>2026-04-11T12:51:02.017Z</time></trkpt><trkpt lat="46.4533912" lon="9.9478106"><ele>2000.25</ele><time>2026-04-11T12:51:03.016Z</time></trkpt><trkpt lat="46.4533332" lon="9.9479979"><ele>2002.5</ele><time>2026-04-11T12:51:04.017Z</time></trkpt><trkpt lat="46.453277" lon="9.9481842"><ele>2004.75</ele><time>2026-04-11T12:51:05.017Z</time></trkpt><trkpt lat="46.4532198" lon="9.9483671"><ele>2007.0</ele><time>2026-04-11T12:51:06.017Z</time></trkpt><trkpt lat="46.4531639" lon="9.9485493"><ele>2008.5</ele><time>2026-04-11T12:51:07.017Z</time></trkpt><trkpt lat="46.4531061" lon="9.9487297"><ele>2010.0</ele><time>2026-04-11T12:51:08.016Z</time></trkpt><trkpt lat="46.4530462" lon="9.9489051"><ele>2011.5</ele><time>2026-04-11T12:51:09.016Z</time></trkpt><trkpt lat="46.452975" lon="9.9490759"><ele>2013.0</ele><time>2026-04-11T12:51:10.016Z</time></trkpt><trkpt lat="46.4528839" lon="9.949221"><ele>2013.0</ele><time>2026-04-11T12:51:11.017Z</time></trkpt><trkpt lat="46.4527808" lon="9.9493594"><ele>2013.0</ele><time>2026-04-11T12:51:12.017Z</time></trkpt><trkpt lat="46.4526717" lon="9.9494875"><ele>2013.0</ele><time>2026-04-11T12:51:13.016Z</time></trkpt><trkpt lat="46.4525722" lon="9.9496238"><ele>2013.0</ele><time>2026-04-11T12:51:14.017Z</time></trkpt><trkpt lat="46.4524993" lon="9.9497841"><ele>2013.0</ele><time>2026-04-11T12:51:15.017Z</time></trkpt><trkpt lat="46.4524529" lon="9.9499685"><ele>2013.0</ele><time>2026-04-11T12:51:16.017Z</time></trkpt><trkpt lat="46.4524337" lon="9.9501625"><ele>2013.0</ele><time>2026-04-11T12:51:17.017Z</time></trkpt><trkpt lat="46.4524596" lon="9.9503528"><ele>2013.0</ele><time>2026-04-11T12:51:18.017Z</time></trkpt><trkpt lat="46.4524969" lon="9.9505445"><ele>2014.25</ele><time>2026-04-11T12:51:19.017Z</time></trkpt><trkpt lat="46.4525406" lon="9.9507431"><ele>2015.5</ele><time>2026-04-11T12:51:20.017Z</time></trkpt><trkpt lat="46.4525791" lon="9.9509546"><ele>2016.75</ele><time>2026-04-11T12:51:21.017Z</time></trkpt><trkpt lat="46.4526" lon="9.951174"><ele>2018.0</ele><time>2026-04-11T12:51:22.017Z</time></trkpt><trkpt lat="46.4525979" lon="9.9513978"><ele>2019.0</ele><time>2026-04-11T12:51:23.017Z</time></trkpt><trkpt lat="46.4525666" lon="9.9516101"><ele>2020.0</ele><time>2026-04-11T12:51:24.017Z</time></trkpt><trkpt lat="46.4525118" lon="9.9518281"><ele>2021.0</ele><time>2026-04-11T12:51:25.017Z</time></trkpt><trkpt lat="46.452427" lon="9.9520491"><ele>2022.3333333333333</ele><time>2026-04-11T12:51:26.017Z</time></trkpt><trkpt lat="46.4523246" lon="9.9522666"><ele>2023.6666666666665</ele><time>2026-04-11T12:51:27.017Z</time></trkpt><trkpt lat="46.4522005" lon="9.9524604"><ele>2025.0</ele><time>2026-04-11T12:51:28.017Z</time></trkpt><trkpt lat="46.4520551" lon="9.9526426"><ele>2025.0</ele><time>2026-04-11T12:51:29.017Z</time></trkpt><trkpt lat="46.4518939" lon="9.9527961"><ele>2025.0</ele><time>2026-04-11T12:51:30.017Z</time></trkpt><trkpt lat="46.4517171" lon="9.9529368"><ele>2025.0</ele><time>2026-04-11T12:51:31.017Z</time></trkpt><trkpt lat="46.4515396" lon="9.9530866"><ele>2025.0</ele><time>2026-04-11T12:51:32.017Z</time></trkpt><trkpt lat="46.4513593" lon="9.9532418"><ele>2025.0</ele><time>2026-04-11T12:51:33.017Z</time></trkpt><trkpt lat="46.4511786" lon="9.9534011"><ele>2025.0</ele><time>2026-04-11T12:51:34.017Z</time></trkpt><trkpt lat="46.4510026" lon="9.9535538"><ele>2023.6666666666665</ele><time>2026-04-11T12:51:35.017Z</time></trkpt><trkpt lat="46.4508381" lon="9.9537164"><ele>2022.3333333333333</ele><time>2026-04-11T12:51:36.017Z</time></trkpt><trkpt lat="46.4506826" lon="9.9538888"><ele>2021.0</ele><time>2026-04-11T12:51:37.017Z</time></trkpt><trkpt lat="46.4505347" lon="9.9540785"><ele>2022.3333333333333</ele><time>2026-04-11T12:51:38.017Z</time></trkpt><trkpt lat="46.4503856" lon="9.9542725"><ele>2023.6666666666665</ele><time>2026-04-11T12:51:39.017Z</time></trkpt><trkpt lat="46.4502416" lon="9.95448"><ele>2025.0</ele><time>2026-04-11T12:51:40.017Z</time></trkpt><trkpt lat="46.4501051" lon="9.9547018"><ele>2025.0</ele><time>2026-04-11T12:51:41.017Z</time></trkpt><trkpt lat="46.4499708" lon="9.9549264"><ele>2025.0</ele><time>2026-04-11T12:51:42.017Z</time></trkpt><trkpt lat="46.449837" lon="9.9551494"><ele>2025.0</ele><time>2026-04-11T12:51:43.017Z</time></trkpt><trkpt lat="46.4497082" lon="9.9553721"><ele>2024.3333333333335</ele><time>2026-04-11T12:51:44.017Z</time></trkpt><trkpt lat="46.4495786" lon="9.9555953"><ele>2023.6666666666667</ele><time>2026-04-11T12:51:45.017Z</time></trkpt><trkpt lat="46.4494473" lon="9.9558125"><ele>2023.0</ele><time>2026-04-11T12:51:46.017Z</time></trkpt><trkpt lat="46.4493184" lon="9.9560232"><ele>2023.0</ele><time>2026-04-11T12:51:47.016Z</time></trkpt><trkpt lat="46.4491873" lon="9.9562353"><ele>2023.0</ele><time>2026-04-11T12:51:48.017Z</time></trkpt><trkpt lat="46.4490692" lon="9.9564501"><ele>2023.0</ele><time>2026-04-11T12:51:49.017Z</time></trkpt><trkpt lat="46.4489566" lon="9.9566714"><ele>2024.3333333333335</ele><time>2026-04-11T12:51:50.017Z</time></trkpt><trkpt lat="46.4488611" lon="9.9569053"><ele>2025.6666666666665</ele><time>2026-04-11T12:51:51.017Z</time></trkpt><trkpt lat="46.4487774" lon="9.9571528"><ele>2027.0</ele><time>2026-04-11T12:51:52.017Z</time></trkpt><trkpt lat="46.4487062" lon="9.9574172"><ele>2027.0</ele><time>2026-04-11T12:51:53.017Z</time></trkpt><trkpt lat="46.448642" lon="9.9576864"><ele>2027.0</ele><time>2026-04-11T12:51:54.017Z</time></trkpt><trkpt lat="46.4485834" lon="9.9579595"><ele>2027.0</ele><time>2026-04-11T12:51:55.017Z</time></trkpt><trkpt lat="46.4485246" lon="9.9582353"><ele>2029.0</ele><time>2026-04-11T12:51:56.017Z</time></trkpt><trkpt lat="46.4484628" lon="9.958508"><ele>2031.0</ele><time>2026-04-11T12:51:57.017Z</time></trkpt><trkpt lat="46.4484044" lon="9.9587765"><ele>2033.0</ele><time>2026-04-11T12:51:58.016Z</time></trkpt><trkpt lat="46.4483429" lon="9.9590425"><ele>2034.3333333333333</ele><time>2026-04-11T12:51:59.017Z</time></trkpt><trkpt lat="46.448281" lon="9.9593168"><ele>2035.6666666666665</ele><time>2026-04-11T12:52:00.017Z</time></trkpt><trkpt lat="46.4482179" lon="9.9595959"><ele>2037.0</ele><time>2026-04-11T12:52:01.017Z</time></trkpt><trkpt lat="46.4481526" lon="9.9598724"><ele>2039.0</ele><time>2026-04-11T12:52:02.017Z</time></trkpt><trkpt lat="46.4480903" lon="9.9601429"><ele>2041.0</ele><time>2026-04-11T12:52:03.017Z</time></trkpt><trkpt lat="46.4480303" lon="9.9604043"><ele>2043.0</ele><time>2026-04-11T12:52:04.017Z</time></trkpt><trkpt lat="46.4479731" lon="9.9606497"><ele>2040.3333333333335</ele><time>2026-04-11T12:52:05.017Z</time></trkpt><trkpt lat="46.4479195" lon="9.9608799"><ele>2037.6666666666667</ele><time>2026-04-11T12:52:06.016Z</time></trkpt><trkpt lat="46.4478697" lon="9.9610869"><ele>2035.0</ele><time>2026-04-11T12:52:07.017Z</time></trkpt><trkpt lat="46.4478255" lon="9.9612783"><ele>2035.0</ele><time>2026-04-11T12:52:08.017Z</time></trkpt><trkpt lat="46.4477739" lon="9.9614613"><ele>2035.0</ele><time>2026-04-11T12:52:09.017Z</time></trkpt><trkpt lat="46.4477225" lon="9.961663"><ele>2035.0</ele><time>2026-04-11T12:52:10.017Z</time></trkpt><trkpt lat="46.4476753" lon="9.961874"><ele>2035.0</ele><time>2026-04-11T12:52:11.016Z</time></trkpt><trkpt lat="46.4476338" lon="9.9620793"><ele>2035.6666666666667</ele><time>2026-04-11T12:52:12.017Z</time></trkpt><trkpt lat="46.4475852" lon="9.9622736"><ele>2036.3333333333335</ele><time>2026-04-11T12:52:13.017Z</time></trkpt><trkpt lat="46.4475335" lon="9.9624986"><ele>2037.0</ele><time>2026-04-11T12:52:14.016Z</time></trkpt><trkpt lat="46.4474806" lon="9.9627522"><ele>2038.6666666666665</ele><time>2026-04-11T12:52:15.017Z</time></trkpt><trkpt lat="46.4474285" lon="9.9630345"><ele>2040.3333333333333</ele><time>2026-04-11T12:52:16.016Z</time></trkpt><trkpt lat="46.4473671" lon="9.9633275"><ele>2042.0</ele><time>2026-04-11T12:52:17.016Z</time></trkpt><trkpt lat="46.4472967" lon="9.9636266"><ele>2042.5</ele><time>2026-04-11T12:52:18.017Z</time></trkpt><trkpt lat="46.4472171" lon="9.9639343"><ele>2043.0</ele><time>2026-04-11T12:52:19.017Z</time></trkpt><trkpt lat="46.447135" lon="9.9642451"><ele>2041.0</ele><time>2026-04-11T12:52:20.016Z</time></trkpt><trkpt lat="46.4470613" lon="9.9645717"><ele>2039.0</ele><time>2026-04-11T12:52:21.017Z</time></trkpt><trkpt lat="46.4469947" lon="9.9648881"><ele>2039.5</ele><time>2026-04-11T12:52:22.017Z</time></trkpt><trkpt lat="46.4469194" lon="9.9652052"><ele>2040.0</ele><time>2026-04-11T12:52:23.017Z</time></trkpt><trkpt lat="46.4468398" lon="9.9655358"><ele>2040.0</ele><time>2026-04-11T12:52:24.017Z</time></trkpt><trkpt lat="46.4467601" lon="9.9658552"><ele>2040.0</ele><time>2026-04-11T12:52:25.017Z</time></trkpt><trkpt lat="46.4466817" lon="9.966153"><ele>2041.6666666666665</ele><time>2026-04-11T12:52:26.017Z</time></trkpt><trkpt lat="46.446593" lon="9.9664284"><ele>2043.3333333333333</ele><time>2026-04-11T12:52:27.017Z</time></trkpt><trkpt lat="46.4464858" lon="9.9666903"><ele>2045.0</ele><time>2026-04-11T12:52:28.017Z</time></trkpt><trkpt lat="46.446363" lon="9.9669412"><ele>2044.6666666666665</ele><time>2026-04-11T12:52:29.017Z</time></trkpt><trkpt lat="46.4462365" lon="9.9671775"><ele>2044.3333333333335</ele><time>2026-04-11T12:52:30.017Z</time></trkpt><trkpt lat="46.4461074" lon="9.9674017"><ele>2044.0</ele><time>2026-04-11T12:52:31.016Z</time></trkpt><trkpt lat="46.4459821" lon="9.9676287"><ele>2044.0</ele><time>2026-04-11T12:52:32.017Z</time></trkpt><trkpt lat="46.4458554" lon="9.9678543"><ele>2044.0</ele><time>2026-04-11T12:52:33.017Z</time></trkpt><trkpt lat="46.4457255" lon="9.9680886"><ele>2044.0</ele><time>2026-04-11T12:52:34.016Z</time></trkpt><trkpt lat="46.4455903" lon="9.9683173"><ele>2043.3333333333335</ele><time>2026-04-11T12:52:35.017Z</time></trkpt><trkpt lat="46.4454634" lon="9.9685499"><ele>2042.6666666666665</ele><time>2026-04-11T12:52:36.017Z</time></trkpt><trkpt lat="46.4453475" lon="9.9687869"><ele>2042.0</ele><time>2026-04-11T12:52:37.017Z</time></trkpt><trkpt lat="46.4452434" lon="9.9690425"><ele>2043.6666666666665</ele><time>2026-04-11T12:52:38.017Z</time></trkpt><trkpt lat="46.4451551" lon="9.9693"><ele>2045.3333333333335</ele><time>2026-04-11T12:52:39.016Z</time></trkpt><trkpt lat="46.4450806" lon="9.9695781"><ele>2047.0</ele><time>2026-04-11T12:52:40.017Z</time></trkpt><trkpt lat="46.4450277" lon="9.9698659"><ele>2047.6666666666667</ele><time>2026-04-11T12:52:41.017Z</time></trkpt><trkpt lat="46.4449899" lon="9.9701662"><ele>2048.3333333333335</ele><time>2026-04-11T12:52:42.017Z</time></trkpt><trkpt lat="46.4449535" lon="9.9704716"><ele>2049.0</ele><time>2026-04-11T12:52:43.017Z</time></trkpt><trkpt lat="46.4449068" lon="9.9707742"><ele>2048.6666666666665</ele><time>2026-04-11T12:52:44.016Z</time></trkpt><trkpt lat="46.4448476" lon="9.9710818"><ele>2048.333333333333</ele><time>2026-04-11T12:52:45.017Z</time></trkpt><trkpt lat="46.4447801" lon="9.9713833"><ele>2048.0</ele><time>2026-04-11T12:52:46.017Z</time></trkpt><trkpt lat="46.4446923" lon="9.9716752"><ele>2050.6666666666665</ele><time>2026-04-11T12:52:47.016Z</time></trkpt><trkpt lat="46.4445975" lon="9.9719517"><ele>2053.3333333333335</ele><time>2026-04-11T12:52:48.016Z</time></trkpt><trkpt lat="46.4444899" lon="9.9722151"><ele>2056.0</ele><time>2026-04-11T12:52:49.017Z</time></trkpt><trkpt lat="46.4443763" lon="9.9724473"><ele>2055.3333333333335</ele><time>2026-04-11T12:52:50.017Z</time></trkpt><trkpt lat="46.4442577" lon="9.972655"><ele>2054.6666666666665</ele><time>2026-04-11T12:52:51.017Z</time></trkpt><trkpt lat="46.4441322" lon="9.9728578"><ele>2054.0</ele><time>2026-04-11T12:52:52.017Z</time></trkpt><trkpt lat="46.4439873" lon="9.9730617"><ele>2054.0</ele><time>2026-04-11T12:52:53.017Z</time></trkpt><trkpt lat="46.4438314" lon="9.9732662"><ele>2054.0</ele><time>2026-04-11T12:52:54.016Z</time></trkpt><trkpt lat="46.4436773" lon="9.9734597"><ele>2054.0</ele><time>2026-04-11T12:52:55.017Z</time></trkpt><trkpt lat="46.4435303" lon="9.9736533"><ele>2055.0</ele><time>2026-04-11T12:52:56.017Z</time></trkpt><trkpt lat="46.4433891" lon="9.9738717"><ele>2056.0</ele><time>2026-04-11T12:52:57.017Z</time></trkpt><trkpt lat="46.4432494" lon="9.9741277"><ele>2057.0</ele><time>2026-04-11T12:52:58.017Z</time></trkpt><trkpt lat="46.4431288" lon="9.9743981"><ele>2057.0</ele><time>2026-04-11T12:52:59.016Z</time></trkpt><trkpt lat="46.4430222" lon="9.974677"><ele>2057.0</ele><time>2026-04-11T12:53:00.017Z</time></trkpt><trkpt lat="46.4429228" lon="9.9749614"><ele>2057.0</ele><time>2026-04-11T12:53:01.017Z</time></trkpt><trkpt lat="46.4428288" lon="9.97523"><ele>2059.333333333333</ele><time>2026-04-11T12:53:02.017Z</time></trkpt><trkpt lat="46.4427492" lon="9.9754942"><ele>2061.6666666666665</ele><time>2026-04-11T12:53:03.017Z</time></trkpt><trkpt lat="46.4426882" lon="9.9757537"><ele>2064.0</ele><time>2026-04-11T12:53:04.017Z</time></trkpt><trkpt lat="46.442663" lon="9.9760138"><ele>2064.3333333333335</ele><time>2026-04-11T12:53:05.016Z</time></trkpt><trkpt lat="46.4426714" lon="9.9762732"><ele>2064.666666666667</ele><time>2026-04-11T12:53:06.017Z</time></trkpt><trkpt lat="46.4427059" lon="9.9765363"><ele>2065.0</ele><time>2026-04-11T12:53:07.017Z</time></trkpt><trkpt lat="46.4427598" lon="9.9768062"><ele>2066.666666666667</ele><time>2026-04-11T12:53:08.018Z</time></trkpt><trkpt lat="46.4428165" lon="9.9770804"><ele>2068.3333333333335</ele><time>2026-04-11T12:53:09.018Z</time></trkpt><trkpt lat="46.4428688" lon="9.9773538"><ele>2070.0</ele><time>2026-04-11T12:53:10.018Z</time></trkpt><trkpt lat="46.4429035" lon="9.9776367"><ele>2071.0</ele><time>2026-04-11T12:53:11.018Z</time></trkpt><trkpt lat="46.442913" lon="9.9779247"><ele>2072.0</ele><time>2026-04-11T12:53:12.018Z</time></trkpt><trkpt lat="46.4428974" lon="9.9782118"><ele>2073.0</ele><time>2026-04-11T12:53:13.018Z</time></trkpt><trkpt lat="46.4428681" lon="9.9784928"><ele>2073.0</ele><time>2026-04-11T12:53:14.018Z</time></trkpt><trkpt lat="46.4428236" lon="9.9787754"><ele>2073.0</ele><time>2026-04-11T12:53:15.018Z</time></trkpt><trkpt lat="46.4427794" lon="9.9790699"><ele>2073.0</ele><time>2026-04-11T12:53:16.018Z</time></trkpt><trkpt lat="46.4427327" lon="9.9793598"><ele>2073.3333333333335</ele><time>2026-04-11T12:53:17.018Z</time></trkpt><trkpt lat="46.4426822" lon="9.9796473"><ele>2073.666666666667</ele><time>2026-04-11T12:53:18.018Z</time></trkpt><trkpt lat="46.4426328" lon="9.9799398"><ele>2074.0</ele><time>2026-04-11T12:53:19.017Z</time></trkpt><trkpt lat="46.4425844" lon="9.9802329"><ele>2075.0</ele><time>2026-04-11T12:53:20.018Z</time></trkpt><trkpt lat="46.4425418" lon="9.9805241"><ele>2076.0</ele><time>2026-04-11T12:53:21.018Z</time></trkpt><trkpt lat="46.4425025" lon="9.9808105"><ele>2077.0</ele><time>2026-04-11T12:53:22.018Z</time></trkpt><trkpt lat="46.4424638" lon="9.9810925"><ele>2077.3333333333335</ele><time>2026-04-11T12:53:23.018Z</time></trkpt><trkpt lat="46.4424277" lon="9.9813612"><ele>2077.6666666666665</ele><time>2026-04-11T12:53:24.018Z</time></trkpt><trkpt lat="46.4423908" lon="9.9816201"><ele>2078.0</ele><time>2026-04-11T12:53:25.018Z</time></trkpt><trkpt lat="46.4423594" lon="9.9818772"><ele>2078.0</ele><time>2026-04-11T12:53:26.018Z</time></trkpt><trkpt lat="46.442327" lon="9.9821318"><ele>2078.0</ele><time>2026-04-11T12:53:27.018Z</time></trkpt><trkpt lat="46.4422973" lon="9.9823894"><ele>2078.0</ele><time>2026-04-11T12:53:28.018Z</time></trkpt><trkpt lat="46.442267" lon="9.9826532"><ele>2077.0</ele><time>2026-04-11T12:53:29.018Z</time></trkpt><trkpt lat="46.4422411" lon="9.9829219"><ele>2076.0</ele><time>2026-04-11T12:53:30.018Z</time></trkpt><trkpt lat="46.4422193" lon="9.983198"><ele>2075.0</ele><time>2026-04-11T12:53:31.018Z</time></trkpt><trkpt lat="46.4422036" lon="9.9834808"><ele>2075.0</ele><time>2026-04-11T12:53:32.018Z</time></trkpt><trkpt lat="46.4421857" lon="9.9837712"><ele>2075.0</ele><time>2026-04-11T12:53:33.018Z</time></trkpt><trkpt lat="46.4421667" lon="9.9840709"><ele>2075.0</ele><time>2026-04-11T12:53:34.018Z</time></trkpt><trkpt lat="46.4421514" lon="9.9843669"><ele>2075.333333333333</ele><time>2026-04-11T12:53:35.018Z</time></trkpt><trkpt lat="46.4421348" lon="9.9846537"><ele>2075.6666666666665</ele><time>2026-04-11T12:53:36.018Z</time></trkpt><trkpt lat="46.4421111" lon="9.9849334"><ele>2076.0</ele><time>2026-04-11T12:53:37.018Z</time></trkpt><trkpt lat="46.4420684" lon="9.985173"><ele>2078.3333333333335</ele><time>2026-04-11T12:53:38.018Z</time></trkpt><trkpt lat="46.4419948" lon="9.9853806"><ele>2080.666666666667</ele><time>2026-04-11T12:53:39.018Z</time></trkpt><trkpt lat="46.4419028" lon="9.9855665"><ele>2083.0</ele><time>2026-04-11T12:53:40.018Z</time></trkpt><trkpt lat="46.4417802" lon="9.9857223"><ele>2084.3333333333335</ele><time>2026-04-11T12:53:41.018Z</time></trkpt><trkpt lat="46.4416303" lon="9.9858517"><ele>2085.6666666666665</ele><time>2026-04-11T12:53:42.018Z</time></trkpt><trkpt lat="46.4414576" lon="9.9859447"><ele>2087.0</ele><time>2026-04-11T12:53:43.018Z</time></trkpt><trkpt lat="46.4412695" lon="9.9860157"><ele>2087.0</ele><time>2026-04-11T12:53:44.018Z</time></trkpt><trkpt lat="46.4410877" lon="9.9860891"><ele>2087.0</ele><time>2026-04-11T12:53:45.018Z</time></trkpt><trkpt lat="46.4409201" lon="9.9861742"><ele>2087.0</ele><time>2026-04-11T12:53:46.018Z</time></trkpt><trkpt lat="46.4407733" lon="9.9863028"><ele>2087.0</ele><time>2026-04-11T12:53:47.017Z</time></trkpt><trkpt lat="46.4406404" lon="9.986461"><ele>2087.0</ele><time>2026-04-11T12:53:48.018Z</time></trkpt><trkpt lat="46.4405252" lon="9.9866703"><ele>2087.0</ele><time>2026-04-11T12:53:49.018Z</time></trkpt><trkpt lat="46.4404246" lon="9.9869016"><ele>2087.0</ele><time>2026-04-11T12:53:50.018Z</time></trkpt><trkpt lat="46.4403313" lon="9.9871622"><ele>2087.0</ele><time>2026-04-11T12:53:51.018Z</time></trkpt><trkpt lat="46.4402372" lon="9.9874312"><ele>2087.0</ele><time>2026-04-11T12:53:52.018Z</time></trkpt><trkpt lat="46.4401236" lon="9.9877056"><ele>2088.5</ele><time>2026-04-11T12:53:53.018Z</time></trkpt><trkpt lat="46.4399822" lon="9.9879737"><ele>2090.0</ele><time>2026-04-11T12:53:54.018Z</time></trkpt><trkpt lat="46.4398228" lon="9.9882441"><ele>2091.5</ele><time>2026-04-11T12:53:55.018Z</time></trkpt><trkpt lat="46.4396528" lon="9.9885206"><ele>2093.0</ele><time>2026-04-11T12:53:56.018Z</time></trkpt><trkpt lat="46.4394768" lon="9.9888045"><ele>2092.5</ele><time>2026-04-11T12:53:57.018Z</time></trkpt><trkpt lat="46.4392974" lon="9.9890948"><ele>2092.0</ele><time>2026-04-11T12:53:58.018Z</time></trkpt><trkpt lat="46.4391152" lon="9.989385"><ele>2092.0</ele><time>2026-04-11T12:53:59.018Z</time></trkpt><trkpt lat="46.4389325" lon="9.9896742"><ele>2092.0</ele><time>2026-04-11T12:54:00.018Z</time></trkpt><trkpt lat="46.438759" lon="9.9899577"><ele>2092.0</ele><time>2026-04-11T12:54:01.017Z</time></trkpt><trkpt lat="46.4385817" lon="9.9902314"><ele>2092.0</ele><time>2026-04-11T12:54:02.018Z</time></trkpt><trkpt lat="46.4384176" lon="9.9904923"><ele>2092.0</ele><time>2026-04-11T12:54:03.018Z</time></trkpt><trkpt lat="46.4382516" lon="9.9907366"><ele>2092.0</ele><time>2026-04-11T12:54:04.018Z</time></trkpt><trkpt lat="46.4380978" lon="9.9909728"><ele>2093.0</ele><time>2026-04-11T12:54:05.018Z</time></trkpt><trkpt lat="46.4379489" lon="9.9911945"><ele>2094.0</ele><time>2026-04-11T12:54:06.018Z</time></trkpt><trkpt lat="46.4378108" lon="9.9913966"><ele>2095.0</ele><time>2026-04-11T12:54:07.018Z</time></trkpt><trkpt lat="46.4376769" lon="9.9916004"><ele>2095.0</ele><time>2026-04-11T12:54:08.018Z</time></trkpt><trkpt lat="46.4375481" lon="9.9918053"><ele>2095.0</ele><time>2026-04-11T12:54:09.018Z</time></trkpt><trkpt lat="46.4374199" lon="9.9919992"><ele>2095.0</ele><time>2026-04-11T12:54:10.018Z</time></trkpt><trkpt lat="46.4372943" lon="9.9921933"><ele>2095.0</ele><time>2026-04-11T12:54:11.018Z</time></trkpt><trkpt lat="46.4371758" lon="9.9923962"><ele>2095.0</ele><time>2026-04-11T12:54:12.018Z</time></trkpt><trkpt lat="46.4370634" lon="9.9925976"><ele>2095.0</ele><time>2026-04-11T12:54:13.018Z</time></trkpt><trkpt lat="46.4369652" lon="9.992805"><ele>2097.666666666667</ele><time>2026-04-11T12:54:14.018Z</time></trkpt><trkpt lat="46.4368766" lon="9.9930161"><ele>2100.3333333333335</ele><time>2026-04-11T12:54:15.017Z</time></trkpt><trkpt lat="46.43679" lon="9.9932325"><ele>2103.0</ele><time>2026-04-11T12:54:16.018Z</time></trkpt><trkpt lat="46.436704" lon="9.9934484"><ele>2104.3333333333335</ele><time>2026-04-11T12:54:17.018Z</time></trkpt><trkpt lat="46.4366108" lon="9.9936734"><ele>2105.666666666667</ele><time>2026-04-11T12:54:18.018Z</time></trkpt><trkpt lat="46.4365188" lon="9.99389"><ele>2107.0</ele><time>2026-04-11T12:54:19.018Z</time></trkpt><trkpt lat="46.4364306" lon="9.9941046"><ele>2108.0</ele><time>2026-04-11T12:54:20.018Z</time></trkpt><trkpt lat="46.4363453" lon="9.994315"><ele>2109.0</ele><time>2026-04-11T12:54:21.018Z</time></trkpt><trkpt lat="46.4362584" lon="9.9945179"><ele>2110.0</ele><time>2026-04-11T12:54:22.018Z</time></trkpt><trkpt lat="46.4361722" lon="9.9947175"><ele>2110.3333333333335</ele><time>2026-04-11T12:54:23.017Z</time></trkpt><trkpt lat="46.4360827" lon="9.9949035"><ele>2110.6666666666665</ele><time>2026-04-11T12:54:24.018Z</time></trkpt><trkpt lat="46.4359782" lon="9.9950664"><ele>2111.0</ele><time>2026-04-11T12:54:25.018Z</time></trkpt><trkpt lat="46.4358515" lon="9.9952327"><ele>2111.6666666666665</ele><time>2026-04-11T12:54:26.018Z</time></trkpt><trkpt lat="46.4357126" lon="9.9953811"><ele>2112.3333333333335</ele><time>2026-04-11T12:54:27.017Z</time></trkpt><trkpt lat="46.4355548" lon="9.9955202"><ele>2113.0</ele><time>2026-04-11T12:54:28.018Z</time></trkpt><trkpt lat="46.4353843" lon="9.9956327"><ele>2114.3333333333335</ele><time>2026-04-11T12:54:29.018Z</time></trkpt><trkpt lat="46.4352042" lon="9.9957408"><ele>2115.6666666666665</ele><time>2026-04-11T12:54:30.017Z</time></trkpt><trkpt lat="46.4350241" lon="9.9958521"><ele>2117.0</ele><time>2026-04-11T12:54:31.018Z</time></trkpt><trkpt lat="46.4348529" lon="9.9959775"><ele>2117.6666666666665</ele><time>2026-04-11T12:54:32.017Z</time></trkpt><trkpt lat="46.4346831" lon="9.9961206"><ele>2118.3333333333335</ele><time>2026-04-11T12:54:33.018Z</time></trkpt><trkpt lat="46.4345171" lon="9.9962799"><ele>2119.0</ele><time>2026-04-11T12:54:34.018Z</time></trkpt><trkpt lat="46.4343647" lon="9.9964337"><ele>2120.3333333333335</ele><time>2026-04-11T12:54:35.018Z</time></trkpt><trkpt lat="46.4342069" lon="9.9965724"><ele>2121.6666666666665</ele><time>2026-04-11T12:54:36.018Z</time></trkpt><trkpt lat="46.4340425" lon="9.9966602"><ele>2123.0</ele><time>2026-04-11T12:54:37.017Z</time></trkpt><trkpt lat="46.4338814" lon="9.9967336"><ele>2125.333333333333</ele><time>2026-04-11T12:54:38.018Z</time></trkpt><trkpt lat="46.4337054" lon="9.9967695"><ele>2127.6666666666665</ele><time>2026-04-11T12:54:39.018Z</time></trkpt><trkpt lat="46.4335327" lon="9.9968001"><ele>2130.0</ele><time>2026-04-11T12:54:40.018Z</time></trkpt><trkpt lat="46.4333802" lon="9.9968483"><ele>2130.0</ele><time>2026-04-11T12:54:41.018Z</time></trkpt><trkpt lat="46.4332378" lon="9.9969371"><ele>2130.0</ele><time>2026-04-11T12:54:42.017Z</time></trkpt><trkpt lat="46.4330917" lon="9.9970547"><ele>2130.0</ele><time>2026-04-11T12:54:43.018Z</time></trkpt><trkpt lat="46.4329691" lon="9.997226"><ele>2130.0</ele><time>2026-04-11T12:54:44.018Z</time></trkpt><trkpt lat="46.4328653" lon="9.9974164"><ele>2130.0</ele><time>2026-04-11T12:54:45.018Z</time></trkpt><trkpt lat="46.4327607" lon="9.9975938"><ele>2130.0</ele><time>2026-04-11T12:54:46.018Z</time></trkpt><trkpt lat="46.4326485" lon="9.9977371"><ele>2131.0</ele><time>2026-04-11T12:54:47.017Z</time></trkpt><trkpt lat="46.4325047" lon="9.9978292"><ele>2132.0</ele><time>2026-04-11T12:54:48.018Z</time></trkpt><trkpt lat="46.4323511" lon="9.9978959"><ele>2133.0</ele><time>2026-04-11T12:54:49.018Z</time></trkpt><trkpt lat="46.4321675" lon="9.9979234"><ele>2133.0</ele><time>2026-04-11T12:54:50.018Z</time></trkpt><trkpt lat="46.4319935" lon="9.9979176"><ele>2133.0</ele><time>2026-04-11T12:54:51.017Z</time></trkpt><trkpt lat="46.4318242" lon="9.99796"><ele>2133.0</ele><time>2026-04-11T12:54:52.018Z</time></trkpt><trkpt lat="46.4316609" lon="9.9980513"><ele>2133.0</ele><time>2026-04-11T12:54:53.018Z</time></trkpt><trkpt lat="46.4315092" lon="9.9981947"><ele>2133.0</ele><time>2026-04-11T12:54:54.017Z</time></trkpt><trkpt lat="46.4313649" lon="9.9983668"><ele>2133.0</ele><time>2026-04-11T12:54:55.018Z</time></trkpt><trkpt lat="46.4312128" lon="9.9985393"><ele>2136.3333333333335</ele><time>2026-04-11T12:54:56.017Z</time></trkpt><trkpt lat="46.4310419" lon="9.9986933"><ele>2139.666666666667</ele><time>2026-04-11T12:54:57.018Z</time></trkpt><trkpt lat="46.4308269" lon="9.9987971"><ele>2143.0</ele><time>2026-04-11T12:54:58.018Z</time></trkpt><trkpt lat="46.430618" lon="9.9988891"><ele>2141.0</ele><time>2026-04-11T12:54:59.018Z</time></trkpt><trkpt lat="46.4303812" lon="9.9989591"><ele>2139.0</ele><time>2026-04-11T12:55:00.018Z</time></trkpt><trkpt lat="46.4301345" lon="9.9990419"><ele>2139.0</ele><time>2026-04-11T12:55:01.017Z</time></trkpt><trkpt lat="46.4298977" lon="9.9991123"><ele>2139.0</ele><time>2026-04-11T12:55:02.018Z</time></trkpt><trkpt lat="46.4296759" lon="9.9991687"><ele>2148.3333333333335</ele><time>2026-04-11T12:55:03.018Z</time></trkpt><trkpt lat="46.429466" lon="9.9992004"><ele>2157.666666666667</ele><time>2026-04-11T12:55:04.018Z</time></trkpt><trkpt lat="46.4292647" lon="9.9992289"><ele>2167.0</ele><time>2026-04-11T12:55:05.018Z</time></trkpt><trkpt lat="46.4290672" lon="9.9992512"><ele>2167.0</ele><time>2026-04-11T12:55:06.018Z</time></trkpt><trkpt lat="46.4288611" lon="9.9992528"><ele>2167.0</ele><time>2026-04-11T12:55:07.018Z</time></trkpt><trkpt lat="46.4286378" lon="9.9992475"><ele>2167.0</ele><time>2026-04-11T12:55:08.017Z</time></trkpt><trkpt lat="46.4284068" lon="9.9992268"><ele>2167.0</ele><time>2026-04-11T12:55:09.018Z</time></trkpt><trkpt lat="46.4281671" lon="9.9992105"><ele>2167.0</ele><time>2026-04-11T12:55:10.017Z</time></trkpt><trkpt lat="46.4279257" lon="9.9991966"><ele>2167.0</ele><time>2026-04-11T12:55:11.018Z</time></trkpt><trkpt lat="46.4276979" lon="9.9991727"><ele>2167.0</ele><time>2026-04-11T12:55:12.018Z</time></trkpt><trkpt lat="46.427484" lon="9.9991548"><ele>2167.0</ele><time>2026-04-11T12:55:13.018Z</time></trkpt><trkpt lat="46.4272838" lon="9.9991358"><ele>2162.666666666667</ele><time>2026-04-11T12:55:14.018Z</time></trkpt><trkpt lat="46.4270963" lon="9.9991192"><ele>2158.3333333333335</ele><time>2026-04-11T12:55:15.018Z</time></trkpt><trkpt lat="46.4269219" lon="9.999109"><ele>2154.0</ele><time>2026-04-11T12:55:16.018Z</time></trkpt><trkpt lat="46.4267374" lon="9.9991149"><ele>2154.0</ele><time>2026-04-11T12:55:17.018Z</time></trkpt><trkpt lat="46.4265472" lon="9.9991648"><ele>2154.0</ele><time>2026-04-11T12:55:18.018Z</time></trkpt><trkpt lat="46.4263559" lon="9.9992464"><ele>2154.0</ele><time>2026-04-11T12:55:19.018Z</time></trkpt><trkpt lat="46.4261569" lon="9.9993599"><ele>2158.0</ele><time>2026-04-11T12:55:20.018Z</time></trkpt><trkpt lat="46.4259447" lon="9.9994941"><ele>2162.0</ele><time>2026-04-11T12:55:21.018Z</time></trkpt><trkpt lat="46.4257311" lon="9.9996383"><ele>2162.0</ele><time>2026-04-11T12:55:22.018Z</time></trkpt><trkpt lat="46.4255079" lon="9.9997843"><ele>2162.0</ele><time>2026-04-11T12:55:23.018Z</time></trkpt><trkpt lat="46.4252863" lon="9.9999266"><ele>2165.5</ele><time>2026-04-11T12:55:24.018Z</time></trkpt><trkpt lat="46.4250718" lon="10.0000602"><ele>2169.0</ele><time>2026-04-11T12:55:25.018Z</time></trkpt><trkpt lat="46.4248622" lon="10.000195"><ele>2169.0</ele><time>2026-04-11T12:55:26.018Z</time></trkpt><trkpt lat="46.424657" lon="10.0003239"><ele>2169.0</ele><time>2026-04-11T12:55:27.018Z</time></trkpt><trkpt lat="46.4244482" lon="10.0004595"><ele>2169.6666666666665</ele><time>2026-04-11T12:55:28.018Z</time></trkpt><trkpt lat="46.4242482" lon="10.0006036"><ele>2170.333333333333</ele><time>2026-04-11T12:55:29.018Z</time></trkpt><trkpt lat="46.4240533" lon="10.0007556"><ele>2171.0</ele><time>2026-04-11T12:55:30.018Z</time></trkpt><trkpt lat="46.4238616" lon="10.0009206"><ele>2174.333333333333</ele><time>2026-04-11T12:55:31.018Z</time></trkpt><trkpt lat="46.4236803" lon="10.0011033"><ele>2177.6666666666665</ele><time>2026-04-11T12:55:32.018Z</time></trkpt><trkpt lat="46.423498" lon="10.001278"><ele>2181.0</ele><time>2026-04-11T12:55:33.018Z</time></trkpt><trkpt lat="46.4233108" lon="10.0014466"><ele>2181.0</ele><time>2026-04-11T12:55:34.017Z</time></trkpt><trkpt lat="46.4231212" lon="10.0016059"><ele>2181.0</ele><time>2026-04-11T12:55:35.018Z</time></trkpt><trkpt lat="46.4229323" lon="10.0017581"><ele>2181.0</ele><time>2026-04-11T12:55:36.018Z</time></trkpt><trkpt lat="46.422735" lon="10.0018975"><ele>2185.5</ele><time>2026-04-11T12:55:37.018Z</time></trkpt><trkpt lat="46.4225321" lon="10.0020299"><ele>2190.0</ele><time>2026-04-11T12:55:38.018Z</time></trkpt><trkpt lat="46.4223165" lon="10.0021553"><ele>2190.5</ele><time>2026-04-11T12:55:39.018Z</time></trkpt><trkpt lat="46.4220951" lon="10.0022826"><ele>2191.0</ele><time>2026-04-11T12:55:40.018Z</time></trkpt><trkpt lat="46.4218631" lon="10.0024161"><ele>2195.5</ele><time>2026-04-11T12:55:41.018Z</time></trkpt><trkpt lat="46.4216289" lon="10.0025698"><ele>2200.0</ele><time>2026-04-11T12:55:42.018Z</time></trkpt><trkpt lat="46.4213955" lon="10.0027182"><ele>2203.5</ele><time>2026-04-11T12:55:43.018Z</time></trkpt><trkpt lat="46.4211653" lon="10.0028495"><ele>2207.0</ele><time>2026-04-11T12:55:44.017Z</time></trkpt><trkpt lat="46.4209555" lon="10.0029708"><ele>2207.0</ele><time>2026-04-11T12:55:45.018Z</time></trkpt><trkpt lat="46.4207741" lon="10.0030721"><ele>2207.0</ele><time>2026-04-11T12:55:46.018Z</time></trkpt><trkpt lat="46.4206144" lon="10.0031879"><ele>2207.0</ele><time>2026-04-11T12:55:47.018Z</time></trkpt><trkpt lat="46.4204619" lon="10.0033085"><ele>2211.333333333333</ele><time>2026-04-11T12:55:48.018Z</time></trkpt><trkpt lat="46.4203207" lon="10.0034456"><ele>2215.6666666666665</ele><time>2026-04-11T12:55:49.018Z</time></trkpt><trkpt lat="46.4201908" lon="10.0036107"><ele>2220.0</ele><time>2026-04-11T12:55:50.018Z</time></trkpt><trkpt lat="46.420061" lon="10.003803"><ele>2220.0</ele><time>2026-04-11T12:55:51.017Z</time></trkpt><trkpt lat="46.4199424" lon="10.0040281"><ele>2220.0</ele><time>2026-04-11T12:55:52.018Z</time></trkpt><trkpt lat="46.4198427" lon="10.0042717"><ele>2220.0</ele><time>2026-04-11T12:55:53.018Z</time></trkpt><trkpt lat="46.4197502" lon="10.0045297"><ele>2220.3333333333335</ele><time>2026-04-11T12:55:54.018Z</time></trkpt><trkpt lat="46.4196779" lon="10.0048068"><ele>2220.666666666667</ele><time>2026-04-11T12:55:55.018Z</time></trkpt><trkpt lat="46.4196352" lon="10.0051114"><ele>2221.0</ele><time>2026-04-11T12:55:56.018Z</time></trkpt><trkpt lat="46.419595" lon="10.0054311"><ele>2221.0</ele><time>2026-04-11T12:55:57.018Z</time></trkpt><trkpt lat="46.419559" lon="10.0057527"><ele>2221.0</ele><time>2026-04-11T12:55:58.018Z</time></trkpt><trkpt lat="46.4195219" lon="10.0060721"><ele>2221.0</ele><time>2026-04-11T12:55:59.018Z</time></trkpt><trkpt lat="46.4194845" lon="10.0063773"><ele>2223.3333333333335</ele><time>2026-04-11T12:56:00.018Z</time></trkpt><trkpt lat="46.4194473" lon="10.006668"><ele>2225.6666666666665</ele><time>2026-04-11T12:56:01.018Z</time></trkpt><trkpt lat="46.4193933" lon="10.0069293"><ele>2228.0</ele><time>2026-04-11T12:56:02.018Z</time></trkpt><trkpt lat="46.4193186" lon="10.0071897"><ele>2228.0</ele><time>2026-04-11T12:56:03.018Z</time></trkpt><trkpt lat="46.4192325" lon="10.0074368"><ele>2228.0</ele><time>2026-04-11T12:56:04.018Z</time></trkpt><trkpt lat="46.4191179" lon="10.007674"><ele>2228.0</ele><time>2026-04-11T12:56:05.018Z</time></trkpt><trkpt lat="46.418982" lon="10.0078982"><ele>2228.333333333333</ele><time>2026-04-11T12:56:06.018Z</time></trkpt><trkpt lat="46.4188392" lon="10.0081014"><ele>2228.6666666666665</ele><time>2026-04-11T12:56:07.017Z</time></trkpt><trkpt lat="46.4186858" lon="10.0082801"><ele>2229.0</ele><time>2026-04-11T12:56:08.018Z</time></trkpt><trkpt lat="46.4185397" lon="10.0084586"><ele>2230.6666666666665</ele><time>2026-04-11T12:56:09.018Z</time></trkpt><trkpt lat="46.4184016" lon="10.0086682"><ele>2232.333333333333</ele><time>2026-04-11T12:56:10.018Z</time></trkpt><trkpt lat="46.4182795" lon="10.0088921"><ele>2234.0</ele><time>2026-04-11T12:56:11.018Z</time></trkpt><trkpt lat="46.4181713" lon="10.0091165"><ele>2233.333333333333</ele><time>2026-04-11T12:56:12.018Z</time></trkpt><trkpt lat="46.4180706" lon="10.0093221"><ele>2232.6666666666665</ele><time>2026-04-11T12:56:13.018Z</time></trkpt><trkpt lat="46.4179877" lon="10.0094943"><ele>2232.0</ele><time>2026-04-11T12:56:14.017Z</time></trkpt><trkpt lat="46.4179332" lon="10.0096804"><ele>2232.0</ele><time>2026-04-11T12:56:15.018Z</time></trkpt><trkpt lat="46.417906" lon="10.0098824"><ele>2232.0</ele><time>2026-04-11T12:56:16.017Z</time></trkpt><trkpt lat="46.417912" lon="10.0101313"><ele>2232.0</ele><time>2026-04-11T12:56:17.018Z</time></trkpt><trkpt lat="46.4179332" lon="10.0103998"><ele>2232.3333333333335</ele><time>2026-04-11T12:56:18.018Z</time></trkpt><trkpt lat="46.4179521" lon="10.0106771"><ele>2232.666666666667</ele><time>2026-04-11T12:56:19.018Z</time></trkpt><trkpt lat="46.4179493" lon="10.0109648"><ele>2233.0</ele><time>2026-04-11T12:56:20.018Z</time></trkpt><trkpt lat="46.4179321" lon="10.0112433"><ele>2235.0</ele><time>2026-04-11T12:56:21.018Z</time></trkpt><trkpt lat="46.4179114" lon="10.0115036"><ele>2237.0</ele><time>2026-04-11T12:56:22.018Z</time></trkpt><trkpt lat="46.4178735" lon="10.0117439"><ele>2239.0</ele><time>2026-04-11T12:56:23.018Z</time></trkpt><trkpt lat="46.4178061" lon="10.0119845"><ele>2241.666666666667</ele><time>2026-04-11T12:56:24.018Z</time></trkpt><trkpt lat="46.4177119" lon="10.0122133"><ele>2244.3333333333335</ele><time>2026-04-11T12:56:25.018Z</time></trkpt><trkpt lat="46.4175804" lon="10.0124082"><ele>2247.0</ele><time>2026-04-11T12:56:26.018Z</time></trkpt><trkpt lat="46.4174175" lon="10.0125785"><ele>2248.3333333333335</ele><time>2026-04-11T12:56:27.018Z</time></trkpt><trkpt lat="46.4172489" lon="10.0127324"><ele>2249.666666666667</ele><time>2026-04-11T12:56:28.017Z</time></trkpt><trkpt lat="46.4170753" lon="10.0128871"><ele>2251.0</ele><time>2026-04-11T12:56:29.018Z</time></trkpt><trkpt lat="46.4169087" lon="10.0130516"><ele>2251.0</ele><time>2026-04-11T12:56:30.018Z</time></trkpt><trkpt lat="46.4167506" lon="10.013205"><ele>2251.0</ele><time>2026-04-11T12:56:31.018Z</time></trkpt><trkpt lat="46.4165813" lon="10.0133283"><ele>2251.0</ele><time>2026-04-11T12:56:32.018Z</time></trkpt><trkpt lat="46.4164207" lon="10.0134125"><ele>2252.0</ele><time>2026-04-11T12:56:33.018Z</time></trkpt><trkpt lat="46.4162678" lon="10.0134721"><ele>2253.0</ele><time>2026-04-11T12:56:34.018Z</time></trkpt><trkpt lat="46.4161271" lon="10.0135561"><ele>2254.0</ele><time>2026-04-11T12:56:35.018Z</time></trkpt><trkpt lat="46.4160187" lon="10.0136582"><ele>2255.0</ele><time>2026-04-11T12:56:36.018Z</time></trkpt><trkpt lat="46.4159244" lon="10.0137943"><ele>2255.0</ele><time>2026-04-11T12:56:37.017Z</time></trkpt><trkpt lat="46.4158451" lon="10.0139554"><ele>2255.0</ele><time>2026-04-11T12:56:38.018Z</time></trkpt><trkpt lat="46.4157728" lon="10.0141551"><ele>2255.0</ele><time>2026-04-11T12:56:39.018Z</time></trkpt><trkpt lat="46.4156935" lon="10.0143698"><ele>2258.0</ele><time>2026-04-11T12:56:40.018Z</time></trkpt><trkpt lat="46.415623" lon="10.0145909"><ele>2261.0</ele><time>2026-04-11T12:56:41.018Z</time></trkpt><trkpt lat="46.4155764" lon="10.0148295"><ele>2264.0</ele><time>2026-04-11T12:56:42.017Z</time></trkpt><trkpt lat="46.4155459" lon="10.0150814"><ele>2266.333333333333</ele><time>2026-04-11T12:56:43.018Z</time></trkpt><trkpt lat="46.4155368" lon="10.015347"><ele>2268.6666666666665</ele><time>2026-04-11T12:56:44.018Z</time></trkpt><trkpt lat="46.415529" lon="10.0156218"><ele>2271.0</ele><time>2026-04-11T12:56:45.018Z</time></trkpt><trkpt lat="46.4155199" lon="10.0159047"><ele>2271.0</ele><time>2026-04-11T12:56:46.018Z</time></trkpt><trkpt lat="46.4155084" lon="10.0161897"><ele>2271.0</ele><time>2026-04-11T12:56:47.017Z</time></trkpt><trkpt lat="46.4155016" lon="10.0164673"><ele>2271.0</ele><time>2026-04-11T12:56:48.018Z</time></trkpt><trkpt lat="46.415493" lon="10.0167248"><ele>2271.0</ele><time>2026-04-11T12:56:49.018Z</time></trkpt><trkpt lat="46.4154919" lon="10.0169749"><ele>2271.0</ele><time>2026-04-11T12:56:50.018Z</time></trkpt><trkpt lat="46.4155019" lon="10.0172181"><ele>2271.0</ele><time>2026-04-11T12:56:51.018Z</time></trkpt><trkpt lat="46.4155508" lon="10.0174668"><ele>2270.6666666666665</ele><time>2026-04-11T12:56:52.018Z</time></trkpt><trkpt lat="46.4156182" lon="10.0177281"><ele>2270.333333333333</ele><time>2026-04-11T12:56:53.018Z</time></trkpt><trkpt lat="46.4156983" lon="10.0179987"><ele>2270.0</ele><time>2026-04-11T12:56:54.017Z</time></trkpt><trkpt lat="46.4157665" lon="10.0182577"><ele>2269.6666666666665</ele><time>2026-04-11T12:56:55.018Z</time></trkpt><trkpt lat="46.4158465" lon="10.0185161"><ele>2269.3333333333335</ele><time>2026-04-11T12:56:56.018Z</time></trkpt><trkpt lat="46.4159448" lon="10.0187649"><ele>2269.0</ele><time>2026-04-11T12:56:57.017Z</time></trkpt><trkpt lat="46.4160624" lon="10.0190158"><ele>2268.666666666667</ele><time>2026-04-11T12:56:58.018Z</time></trkpt><trkpt lat="46.4161829" lon="10.0192647"><ele>2268.3333333333335</ele><time>2026-04-11T12:56:59.018Z</time></trkpt><trkpt lat="46.4162999" lon="10.0195077"><ele>2268.0</ele><time>2026-04-11T12:57:00.018Z</time></trkpt><trkpt lat="46.4163992" lon="10.0197257"><ele>2273.6666666666665</ele><time>2026-04-11T12:57:01.018Z</time></trkpt><trkpt lat="46.4164943" lon="10.019928"><ele>2279.333333333333</ele><time>2026-04-11T12:57:02.018Z</time></trkpt><trkpt lat="46.416584" lon="10.0201052"><ele>2285.0</ele><time>2026-04-11T12:57:03.018Z</time></trkpt><trkpt lat="46.416663" lon="10.0202667"><ele>2285.0</ele><time>2026-04-11T12:57:04.018Z</time></trkpt><trkpt lat="46.4167144" lon="10.0204337"><ele>2285.0</ele><time>2026-04-11T12:57:05.018Z</time></trkpt><trkpt lat="46.4167239" lon="10.0206006"><ele>2285.0</ele><time>2026-04-11T12:57:06.018Z</time></trkpt><trkpt lat="46.4166969" lon="10.020761"><ele>2285.0</ele><time>2026-04-11T12:57:07.018Z</time></trkpt><trkpt lat="46.4166345" lon="10.020889"><ele>2285.25</ele><time>2026-04-11T12:57:08.018Z</time></trkpt><trkpt lat="46.4165472" lon="10.020982"><ele>2285.5</ele><time>2026-04-11T12:57:09.018Z</time></trkpt><trkpt lat="46.4164531" lon="10.0210208"><ele>2285.75</ele><time>2026-04-11T12:57:10.018Z</time></trkpt><trkpt lat="46.4163385" lon="10.0210099"><ele>2286.0</ele><time>2026-04-11T12:57:11.018Z</time></trkpt><trkpt lat="46.4162105" lon="10.0209552"><ele>2286.0</ele><time>2026-04-11T12:57:12.018Z</time></trkpt><trkpt lat="46.4160644" lon="10.020867"><ele>2286.0</ele><time>2026-04-11T12:57:13.018Z</time></trkpt><trkpt lat="46.4159123" lon="10.0207913"><ele>2286.0</ele><time>2026-04-11T12:57:14.018Z</time></trkpt><trkpt lat="46.4157401" lon="10.0207539"><ele>2282.3333333333335</ele><time>2026-04-11T12:57:15.018Z</time></trkpt><trkpt lat="46.4155557" lon="10.0207533"><ele>2278.666666666667</ele><time>2026-04-11T12:57:16.018Z</time></trkpt><trkpt lat="46.4153429" lon="10.0207559"><ele>2275.0</ele><time>2026-04-11T12:57:17.017Z</time></trkpt><trkpt lat="46.4151308" lon="10.0207424"><ele>2273.666666666667</ele><time>2026-04-11T12:57:18.018Z</time></trkpt><trkpt lat="46.4149311" lon="10.0206999"><ele>2272.3333333333335</ele><time>2026-04-11T12:57:19.018Z</time></trkpt><trkpt lat="46.4147438" lon="10.0206625"><ele>2271.0</ele><time>2026-04-11T12:57:20.018Z</time></trkpt><trkpt lat="46.4145703" lon="10.0206316"><ele>2270.0</ele><time>2026-04-11T12:57:21.018Z</time></trkpt><trkpt lat="46.4144102" lon="10.0206205"><ele>2269.0</ele><time>2026-04-11T12:57:22.017Z</time></trkpt><trkpt lat="46.4142514" lon="10.02066"><ele>2268.0</ele><time>2026-04-11T12:57:23.018Z</time></trkpt><trkpt lat="46.4140898" lon="10.0207352"><ele>2268.0</ele><time>2026-04-11T12:57:24.017Z</time></trkpt><trkpt lat="46.4139188" lon="10.0207776"><ele>2268.0</ele><time>2026-04-11T12:57:25.017Z</time></trkpt><trkpt lat="46.4137467" lon="10.0207824"><ele>2268.0</ele><time>2026-04-11T12:57:26.018Z</time></trkpt><trkpt lat="46.4135985" lon="10.0207866"><ele>2276.0</ele><time>2026-04-11T12:57:27.018Z</time></trkpt><trkpt lat="46.4134558" lon="10.0208403"><ele>2284.0</ele><time>2026-04-11T12:57:28.018Z</time></trkpt><trkpt lat="46.4133007" lon="10.0209384"><ele>2292.0</ele><time>2026-04-11T12:57:29.018Z</time></trkpt><trkpt lat="46.4131391" lon="10.0210516"><ele>2290.6666666666665</ele><time>2026-04-11T12:57:30.018Z</time></trkpt><trkpt lat="46.4129767" lon="10.021178"><ele>2289.333333333333</ele><time>2026-04-11T12:57:31.018Z</time></trkpt><trkpt lat="46.4128211" lon="10.0212875"><ele>2288.0</ele><time>2026-04-11T12:57:32.018Z</time></trkpt><trkpt lat="46.4126676" lon="10.0213747"><ele>2288.0</ele><time>2026-04-11T12:57:33.018Z</time></trkpt><trkpt lat="46.4125149" lon="10.0214299"><ele>2288.0</ele><time>2026-04-11T12:57:34.017Z</time></trkpt><trkpt lat="46.4123451" lon="10.0214218"><ele>2288.0</ele><time>2026-04-11T12:57:35.018Z</time></trkpt><trkpt lat="46.412168" lon="10.02137"><ele>2289.6666666666665</ele><time>2026-04-11T12:57:36.018Z</time></trkpt><trkpt lat="46.4119949" lon="10.0213018"><ele>2291.3333333333335</ele><time>2026-04-11T12:57:37.018Z</time></trkpt><trkpt lat="46.4118406" lon="10.0212429"><ele>2293.0</ele><time>2026-04-11T12:57:38.018Z</time></trkpt><trkpt lat="46.4116963" lon="10.0212303"><ele>2293.0</ele><time>2026-04-11T12:57:39.018Z</time></trkpt><trkpt lat="46.4115619" lon="10.0212425"><ele>2293.0</ele><time>2026-04-11T12:57:40.018Z</time></trkpt><trkpt lat="46.4114218" lon="10.0212844"><ele>2293.0</ele><time>2026-04-11T12:57:41.018Z</time></trkpt><trkpt lat="46.4112794" lon="10.0213787"><ele>2293.0</ele><time>2026-04-11T12:57:42.018Z</time></trkpt><trkpt lat="46.411145" lon="10.0214823"><ele>2293.25</ele><time>2026-04-11T12:57:43.018Z</time></trkpt><trkpt lat="46.4110376" lon="10.0216028"><ele>2293.5</ele><time>2026-04-11T12:57:44.017Z</time></trkpt><trkpt lat="46.4109513" lon="10.0217398"><ele>2293.75</ele><time>2026-04-11T12:57:45.018Z</time></trkpt><trkpt lat="46.4108771" lon="10.0218882"><ele>2294.0</ele><time>2026-04-11T12:57:46.018Z</time></trkpt><trkpt lat="46.41082" lon="10.0220367"><ele>2295.5</ele><time>2026-04-11T12:57:47.017Z</time></trkpt><trkpt lat="46.4107809" lon="10.0221761"><ele>2297.0</ele><time>2026-04-11T12:57:48.018Z</time></trkpt><trkpt lat="46.4107592" lon="10.0222988"><ele>2298.5</ele><time>2026-04-11T12:57:49.018Z</time></trkpt><trkpt lat="46.4107448" lon="10.0223987"><ele>2300.0</ele><time>2026-04-11T12:57:50.018Z</time></trkpt><trkpt lat="46.4107373" lon="10.0225399"><ele>2301.5</ele><time>2026-04-11T12:57:52.018Z</time></trkpt><trkpt lat="46.4107258" lon="10.0226346"><ele>2303.0</ele><time>2026-04-11T12:57:55.018Z</time></trkpt><trkpt lat="46.4106671" lon="10.0225823"><ele>2305.0</ele><time>2026-04-11T12:58:16.018Z</time></trkpt><trkpt lat="46.410665" lon="10.0224865"><ele>2305.0</ele><time>2026-04-11T12:58:19.018Z</time></trkpt></trkseg><trkseg><trkpt lat="46.4106867" lon="10.0225145"><ele>2305.0</ele><time>2026-04-11T13:14:46.025Z</time></trkpt><trkpt lat="46.4106914" lon="10.0226077"><ele>2305.0</ele><time>2026-04-11T13:14:49.025Z</time></trkpt><trkpt lat="46.4107283" lon="10.0227139"><ele>2305.0</ele><time>2026-04-11T13:14:52.025Z</time></trkpt><trkpt lat="46.4107375" lon="10.0228456"><ele>2305.0</ele><time>2026-04-11T13:14:54.024Z</time></trkpt><trkpt lat="46.410727" lon="10.0229387"><ele>2305.0</ele><time>2026-04-11T13:14:55.025Z</time></trkpt><trkpt lat="46.410719" lon="10.0230402"><ele>2305.0</ele><time>2026-04-11T13:14:56.025Z</time></trkpt><trkpt lat="46.410711" lon="10.0231444"><ele>2305.0</ele><time>2026-04-11T13:14:57.025Z</time></trkpt><trkpt lat="46.4107055" lon="10.0232585"><ele>2304.8333333333335</ele><time>2026-04-11T13:14:58.025Z</time></trkpt><trkpt lat="46.4106999" lon="10.0233847"><ele>2304.666666666667</ele><time>2026-04-11T13:14:59.024Z</time></trkpt><trkpt lat="46.4106934" lon="10.0235032"><ele>2304.5</ele><time>2026-04-11T13:15:00.025Z</time></trkpt><trkpt lat="46.4106881" lon="10.0236255"><ele>2304.3333333333335</ele><time>2026-04-11T13:15:01.025Z</time></trkpt><trkpt lat="46.4106829" lon="10.0237548"><ele>2304.1666666666665</ele><time>2026-04-11T13:15:02.025Z</time></trkpt><trkpt lat="46.4106731" lon="10.0238874"><ele>2304.0</ele><time>2026-04-11T13:15:03.025Z</time></trkpt><trkpt lat="46.4106682" lon="10.0240204"><ele>2304.2</ele><time>2026-04-11T13:15:04.025Z</time></trkpt><trkpt lat="46.4106632" lon="10.0241588"><ele>2304.4</ele><time>2026-04-11T13:15:05.025Z</time></trkpt><trkpt lat="46.4106585" lon="10.0243044"><ele>2304.6</ele><time>2026-04-11T13:15:06.025Z</time></trkpt><trkpt lat="46.4106495" lon="10.0244591"><ele>2304.8</ele><time>2026-04-11T13:15:07.024Z</time></trkpt><trkpt lat="46.4106441" lon="10.0246356"><ele>2305.0</ele><time>2026-04-11T13:15:08.025Z</time></trkpt><trkpt lat="46.4106355" lon="10.0248326"><ele>2307.0</ele><time>2026-04-11T13:15:09.025Z</time></trkpt><trkpt lat="46.4106332" lon="10.0250361"><ele>2309.0</ele><time>2026-04-11T13:15:10.024Z</time></trkpt><trkpt lat="46.410637" lon="10.025241"><ele>2311.0</ele><time>2026-04-11T13:15:11.025Z</time></trkpt><trkpt lat="46.4106407" lon="10.0254231"><ele>2313.0</ele><time>2026-04-11T13:15:12.025Z</time></trkpt><trkpt lat="46.4106468" lon="10.0255828"><ele>2313.0</ele><time>2026-04-11T13:15:13.024Z</time></trkpt><trkpt lat="46.4106497" lon="10.0257375"><ele>2313.0</ele><time>2026-04-11T13:15:14.025Z</time></trkpt><trkpt lat="46.4106625" lon="10.0258999"><ele>2313.0</ele><time>2026-04-11T13:15:15.025Z</time></trkpt><trkpt lat="46.4106804" lon="10.0260782"><ele>2313.0</ele><time>2026-04-11T13:15:16.025Z</time></trkpt><trkpt lat="46.410697" lon="10.0262502"><ele>2313.75</ele><time>2026-04-11T13:15:17.025Z</time></trkpt><trkpt lat="46.4107176" lon="10.0264203"><ele>2314.5</ele><time>2026-04-11T13:15:18.025Z</time></trkpt><trkpt lat="46.4107417" lon="10.0265835"><ele>2315.25</ele><time>2026-04-11T13:15:19.025Z</time></trkpt><trkpt lat="46.4107695" lon="10.0267496"><ele>2316.0</ele><time>2026-04-11T13:15:20.025Z</time></trkpt><trkpt lat="46.4107949" lon="10.0269141"><ele>2317.0</ele><time>2026-04-11T13:15:21.025Z</time></trkpt><trkpt lat="46.4108227" lon="10.0270656"><ele>2318.0</ele><time>2026-04-11T13:15:22.025Z</time></trkpt><trkpt lat="46.4108481" lon="10.0271983"><ele>2319.0</ele><time>2026-04-11T13:15:23.025Z</time></trkpt><trkpt lat="46.410866" lon="10.0273238"><ele>2320.0</ele><time>2026-04-11T13:15:24.024Z</time></trkpt><trkpt lat="46.4108796" lon="10.0274373"><ele>2321.0</ele><time>2026-04-11T13:15:25.025Z</time></trkpt><trkpt lat="46.4108926" lon="10.0275366"><ele>2322.0</ele><time>2026-04-11T13:15:26.025Z</time></trkpt><trkpt lat="46.4109089" lon="10.0276298"><ele>2323.0</ele><time>2026-04-11T13:15:27.025Z</time></trkpt><trkpt lat="46.4109187" lon="10.0277339"><ele>2324.0</ele><time>2026-04-11T13:15:28.025Z</time></trkpt><trkpt lat="46.4109355" lon="10.0278413"><ele>2325.0</ele><time>2026-04-11T13:15:29.025Z</time></trkpt><trkpt lat="46.4109533" lon="10.027951"><ele>2326.0</ele><time>2026-04-11T13:15:30.025Z</time></trkpt><trkpt lat="46.4109761" lon="10.0280574"><ele>2327.0</ele><time>2026-04-11T13:15:31.025Z</time></trkpt><trkpt lat="46.4110044" lon="10.0281768"><ele>2328.0</ele><time>2026-04-11T13:15:32.025Z</time></trkpt><trkpt lat="46.4110386" lon="10.0283062"><ele>2326.8</ele><time>2026-04-11T13:15:33.025Z</time></trkpt><trkpt lat="46.4110783" lon="10.0284364"><ele>2325.6000000000004</ele><time>2026-04-11T13:15:34.025Z</time></trkpt><trkpt lat="46.411125" lon="10.0285662"><ele>2324.3999999999996</ele><time>2026-04-11T13:15:35.025Z</time></trkpt><trkpt lat="46.4111806" lon="10.0286958"><ele>2323.2</ele><time>2026-04-11T13:15:36.025Z</time></trkpt><trkpt lat="46.4112393" lon="10.0288212"><ele>2322.0</ele><time>2026-04-11T13:15:37.025Z</time></trkpt><trkpt lat="46.4112977" lon="10.028944"><ele>2323.4</ele><time>2026-04-11T13:15:38.025Z</time></trkpt><trkpt lat="46.4113542" lon="10.0290663"><ele>2324.7999999999997</ele><time>2026-04-11T13:15:39.025Z</time></trkpt><trkpt lat="46.411403" lon="10.0291924"><ele>2326.2</ele><time>2026-04-11T13:15:40.025Z</time></trkpt><trkpt lat="46.4114457" lon="10.0293238"><ele>2327.6</ele><time>2026-04-11T13:15:41.025Z</time></trkpt><trkpt lat="46.4114742" lon="10.0294629"><ele>2329.0</ele><time>2026-04-11T13:15:42.025Z</time></trkpt><trkpt lat="46.4114801" lon="10.0296074"><ele>2329.0</ele><time>2026-04-11T13:15:43.025Z</time></trkpt><trkpt lat="46.4114689" lon="10.0297505"><ele>2329.0</ele><time>2026-04-11T13:15:44.025Z</time></trkpt><trkpt lat="46.4114432" lon="10.0299085"><ele>2329.0</ele><time>2026-04-11T13:15:45.025Z</time></trkpt><trkpt lat="46.4114019" lon="10.0300702"><ele>2329.0</ele><time>2026-04-11T13:15:46.024Z</time></trkpt><trkpt lat="46.4113576" lon="10.0302321"><ele>2328.75</ele><time>2026-04-11T13:15:47.025Z</time></trkpt><trkpt lat="46.4113268" lon="10.0304012"><ele>2328.5</ele><time>2026-04-11T13:15:48.025Z</time></trkpt><trkpt lat="46.4113192" lon="10.0305872"><ele>2328.25</ele><time>2026-04-11T13:15:49.025Z</time></trkpt><trkpt lat="46.411334" lon="10.0307876"><ele>2328.0</ele><time>2026-04-11T13:15:50.025Z</time></trkpt><trkpt lat="46.4113727" lon="10.030972"><ele>2327.2000000000003</ele><time>2026-04-11T13:15:51.025Z</time></trkpt><trkpt lat="46.4114124" lon="10.0311329"><ele>2326.4</ele><time>2026-04-11T13:15:52.025Z</time></trkpt><trkpt lat="46.4114393" lon="10.0312914"><ele>2325.6000000000004</ele><time>2026-04-11T13:15:53.025Z</time></trkpt><trkpt lat="46.4114593" lon="10.0314504"><ele>2324.8</ele><time>2026-04-11T13:15:54.025Z</time></trkpt><trkpt lat="46.4114592" lon="10.0316061"><ele>2324.0</ele><time>2026-04-11T13:15:55.025Z</time></trkpt><trkpt lat="46.4114507" lon="10.0317651"><ele>2322.2</ele><time>2026-04-11T13:15:56.024Z</time></trkpt><trkpt lat="46.411435" lon="10.0319188"><ele>2320.4</ele><time>2026-04-11T13:15:57.025Z</time></trkpt><trkpt lat="46.4114208" lon="10.0320729"><ele>2318.6</ele><time>2026-04-11T13:15:58.025Z</time></trkpt><trkpt lat="46.4114156" lon="10.0322287"><ele>2316.8</ele><time>2026-04-11T13:15:59.025Z</time></trkpt><trkpt lat="46.4114247" lon="10.0323899"><ele>2315.0</ele><time>2026-04-11T13:16:00.024Z</time></trkpt><trkpt lat="46.4114583" lon="10.0325494"><ele>2311.0</ele><time>2026-04-11T13:16:01.025Z</time></trkpt><trkpt lat="46.4115057" lon="10.0327034"><ele>2307.0</ele><time>2026-04-11T13:16:02.025Z</time></trkpt><trkpt lat="46.4115704" lon="10.0328391"><ele>2303.0</ele><time>2026-04-11T13:16:03.025Z</time></trkpt><trkpt lat="46.4116513" lon="10.0329469"><ele>2299.0</ele><time>2026-04-11T13:16:04.024Z</time></trkpt><trkpt lat="46.4117453" lon="10.0330467"><ele>2299.0</ele><time>2026-04-11T13:16:05.025Z</time></trkpt><trkpt lat="46.4118481" lon="10.0331439"><ele>2299.0</ele><time>2026-04-11T13:16:06.025Z</time></trkpt><trkpt lat="46.4119478" lon="10.0332462"><ele>2299.0</ele><time>2026-04-11T13:16:07.025Z</time></trkpt><trkpt lat="46.4120443" lon="10.0333579"><ele>2299.0</ele><time>2026-04-11T13:16:08.025Z</time></trkpt><trkpt lat="46.412127" lon="10.0334816"><ele>2300.75</ele><time>2026-04-11T13:16:09.025Z</time></trkpt><trkpt lat="46.4121946" lon="10.0336228"><ele>2302.5</ele><time>2026-04-11T13:16:10.025Z</time></trkpt><trkpt lat="46.412249" lon="10.0337695"><ele>2304.25</ele><time>2026-04-11T13:16:11.024Z</time></trkpt><trkpt lat="46.4122906" lon="10.0339263"><ele>2306.0</ele><time>2026-04-11T13:16:12.025Z</time></trkpt><trkpt lat="46.412331" lon="10.0340763"><ele>2301.4</ele><time>2026-04-11T13:16:13.025Z</time></trkpt><trkpt lat="46.4123782" lon="10.0342017"><ele>2296.8</ele><time>2026-04-11T13:16:14.025Z</time></trkpt><trkpt lat="46.4124326" lon="10.0343255"><ele>2292.2000000000003</ele><time>2026-04-11T13:16:15.025Z</time></trkpt><trkpt lat="46.412499" lon="10.0344374"><ele>2287.6</ele><time>2026-04-11T13:16:16.025Z</time></trkpt><trkpt lat="46.4125785" lon="10.0345295"><ele>2283.0</ele><time>2026-04-11T13:16:17.025Z</time></trkpt><trkpt lat="46.4126821" lon="10.0346051"><ele>2283.0</ele><time>2026-04-11T13:16:18.025Z</time></trkpt><trkpt lat="46.412792" lon="10.0346765"><ele>2283.0</ele><time>2026-04-11T13:16:19.025Z</time></trkpt><trkpt lat="46.4129144" lon="10.0347333"><ele>2283.0</ele><time>2026-04-11T13:16:20.025Z</time></trkpt><trkpt lat="46.4130421" lon="10.0348161"><ele>2283.0</ele><time>2026-04-11T13:16:21.025Z</time></trkpt><trkpt lat="46.4131634" lon="10.0349211"><ele>2282.25</ele><time>2026-04-11T13:16:22.025Z</time></trkpt><trkpt lat="46.4132796" lon="10.0350485"><ele>2281.5</ele><time>2026-04-11T13:16:23.025Z</time></trkpt><trkpt lat="46.4133879" lon="10.0351942"><ele>2280.75</ele><time>2026-04-11T13:16:24.025Z</time></trkpt><trkpt lat="46.4134842" lon="10.0353559"><ele>2280.0</ele><time>2026-04-11T13:16:25.025Z</time></trkpt><trkpt lat="46.4135691" lon="10.0355328"><ele>2280.0</ele><time>2026-04-11T13:16:26.025Z</time></trkpt><trkpt lat="46.413643" lon="10.0357125"><ele>2280.0</ele><time>2026-04-11T13:16:27.025Z</time></trkpt><trkpt lat="46.413724" lon="10.0359002"><ele>2280.0</ele><time>2026-04-11T13:16:28.025Z</time></trkpt><trkpt lat="46.4138168" lon="10.03608"><ele>2280.6666666666665</ele><time>2026-04-11T13:16:29.025Z</time></trkpt><trkpt lat="46.413922" lon="10.0362479"><ele>2281.333333333333</ele><time>2026-04-11T13:16:30.025Z</time></trkpt><trkpt lat="46.4140289" lon="10.0364131"><ele>2282.0</ele><time>2026-04-11T13:16:31.025Z</time></trkpt><trkpt lat="46.4141261" lon="10.0365933"><ele>2275.25</ele><time>2026-04-11T13:16:32.025Z</time></trkpt><trkpt lat="46.4141994" lon="10.0367852"><ele>2268.5</ele><time>2026-04-11T13:16:33.025Z</time></trkpt><trkpt lat="46.4142455" lon="10.0369829"><ele>2261.75</ele><time>2026-04-11T13:16:34.025Z</time></trkpt><trkpt lat="46.4142684" lon="10.0371742"><ele>2255.0</ele><time>2026-04-11T13:16:35.025Z</time></trkpt><trkpt lat="46.414268" lon="10.037375"><ele>2251.75</ele><time>2026-04-11T13:16:36.025Z</time></trkpt><trkpt lat="46.4142571" lon="10.0375597"><ele>2248.5</ele><time>2026-04-11T13:16:37.025Z</time></trkpt><trkpt lat="46.4142635" lon="10.0377562"><ele>2245.25</ele><time>2026-04-11T13:16:38.024Z</time></trkpt><trkpt lat="46.4143061" lon="10.0379357"><ele>2242.0</ele><time>2026-04-11T13:16:39.025Z</time></trkpt><trkpt lat="46.4143742" lon="10.0381053"><ele>2242.0</ele><time>2026-04-11T13:16:40.025Z</time></trkpt><trkpt lat="46.4144611" lon="10.0382578"><ele>2242.0</ele><time>2026-04-11T13:16:41.025Z</time></trkpt><trkpt lat="46.4145742" lon="10.038395"><ele>2242.0</ele><time>2026-04-11T13:16:42.025Z</time></trkpt><trkpt lat="46.4147055" lon="10.0385349"><ele>2242.0</ele><time>2026-04-11T13:16:43.025Z</time></trkpt><trkpt lat="46.4148341" lon="10.0387023"><ele>2243.666666666667</ele><time>2026-04-11T13:16:44.025Z</time></trkpt><trkpt lat="46.4149563" lon="10.038903"><ele>2245.3333333333335</ele><time>2026-04-11T13:16:45.025Z</time></trkpt><trkpt lat="46.4150648" lon="10.0391405"><ele>2247.0</ele><time>2026-04-11T13:16:46.025Z</time></trkpt><trkpt lat="46.4151684" lon="10.039376"><ele>2249.0</ele><time>2026-04-11T13:16:47.025Z</time></trkpt><trkpt lat="46.4152808" lon="10.0395922"><ele>2251.0</ele><time>2026-04-11T13:16:48.025Z</time></trkpt><trkpt lat="46.4153976" lon="10.0397841"><ele>2253.0</ele><time>2026-04-11T13:16:49.024Z</time></trkpt><trkpt lat="46.4155081" lon="10.0399459"><ele>2250.4</ele><time>2026-04-11T13:16:50.025Z</time></trkpt><trkpt lat="46.4156125" lon="10.0400719"><ele>2247.8</ele><time>2026-04-11T13:16:51.025Z</time></trkpt><trkpt lat="46.4156998" lon="10.0401725"><ele>2245.2</ele><time>2026-04-11T13:16:52.024Z</time></trkpt><trkpt lat="46.4157767" lon="10.0402759"><ele>2242.6</ele><time>2026-04-11T13:16:53.025Z</time></trkpt><trkpt lat="46.4158272" lon="10.0403788"><ele>2240.0</ele><time>2026-04-11T13:16:54.025Z</time></trkpt><trkpt lat="46.4158496" lon="10.0404859"><ele>2240.0</ele><time>2026-04-11T13:16:55.025Z</time></trkpt><trkpt lat="46.4158235" lon="10.0405746"><ele>2240.0</ele><time>2026-04-11T13:16:56.025Z</time></trkpt><trkpt lat="46.4157173" lon="10.0406137"><ele>2240.0</ele><time>2026-04-11T13:16:58.025Z</time></trkpt><trkpt lat="46.415649" lon="10.0405771"><ele>2240.0</ele><time>2026-04-11T13:16:59.025Z</time></trkpt><trkpt lat="46.4155696" lon="10.040465"><ele>2240.0</ele><time>2026-04-11T13:17:00.025Z</time></trkpt><trkpt lat="46.4154811" lon="10.0402945"><ele>2236.333333333333</ele><time>2026-04-11T13:17:01.025Z</time></trkpt><trkpt lat="46.4153735" lon="10.040113"><ele>2232.6666666666665</ele><time>2026-04-11T13:17:02.025Z</time></trkpt><trkpt lat="46.4152556" lon="10.0399448"><ele>2229.0</ele><time>2026-04-11T13:17:03.024Z</time></trkpt><trkpt lat="46.4151138" lon="10.0397773"><ele>2229.0</ele><time>2026-04-11T13:17:04.025Z</time></trkpt><trkpt lat="46.4149445" lon="10.0396323"><ele>2229.0</ele><time>2026-04-11T13:17:05.024Z</time></trkpt><trkpt lat="46.4147653" lon="10.0395035"><ele>2229.0</ele><time>2026-04-11T13:17:06.024Z</time></trkpt><trkpt lat="46.4145787" lon="10.0394054"><ele>2223.0</ele><time>2026-04-11T13:17:07.025Z</time></trkpt><trkpt lat="46.4143822" lon="10.0393227"><ele>2217.0</ele><time>2026-04-11T13:17:08.025Z</time></trkpt><trkpt lat="46.4141916" lon="10.0392579"><ele>2211.0</ele><time>2026-04-11T13:17:09.025Z</time></trkpt><trkpt lat="46.4140045" lon="10.0391813"><ele>2210.3333333333335</ele><time>2026-04-11T13:17:10.025Z</time></trkpt><trkpt lat="46.4138226" lon="10.0390863"><ele>2209.666666666667</ele><time>2026-04-11T13:17:11.025Z</time></trkpt><trkpt lat="46.4136414" lon="10.0389646"><ele>2209.0</ele><time>2026-04-11T13:17:12.025Z</time></trkpt><trkpt lat="46.4134621" lon="10.038816"><ele>2209.0</ele><time>2026-04-11T13:17:13.025Z</time></trkpt><trkpt lat="46.4132918" lon="10.0386308"><ele>2209.0</ele><time>2026-04-11T13:17:14.025Z</time></trkpt><trkpt lat="46.4131235" lon="10.0384422"><ele>2209.0</ele><time>2026-04-11T13:17:15.025Z</time></trkpt><trkpt lat="46.4129545" lon="10.0382661"><ele>2202.666666666667</ele><time>2026-04-11T13:17:16.025Z</time></trkpt><trkpt lat="46.412803" lon="10.0381133"><ele>2196.3333333333335</ele><time>2026-04-11T13:17:17.025Z</time></trkpt><trkpt lat="46.4126731" lon="10.0380135"><ele>2190.0</ele><time>2026-04-11T13:17:18.025Z</time></trkpt><trkpt lat="46.4125438" lon="10.0379439"><ele>2190.0</ele><time>2026-04-11T13:17:19.025Z</time></trkpt><trkpt lat="46.4124272" lon="10.0379203"><ele>2190.0</ele><time>2026-04-11T13:17:20.025Z</time></trkpt><trkpt lat="46.4123091" lon="10.0379633"><ele>2190.0</ele><time>2026-04-11T13:17:21.024Z</time></trkpt><trkpt lat="46.412203" lon="10.0380389"><ele>2190.0</ele><time>2026-04-11T13:17:22.025Z</time></trkpt><trkpt lat="46.4121104" lon="10.0381505"><ele>2186.5</ele><time>2026-04-11T13:17:23.025Z</time></trkpt><trkpt lat="46.4120439" lon="10.0382993"><ele>2183.0</ele><time>2026-04-11T13:17:24.025Z</time></trkpt><trkpt lat="46.4120037" lon="10.0384671"><ele>2179.5</ele><time>2026-04-11T13:17:25.025Z</time></trkpt><trkpt lat="46.4120028" lon="10.0386422"><ele>2176.0</ele><time>2026-04-11T13:17:26.025Z</time></trkpt><trkpt lat="46.4120434" lon="10.0388107"><ele>2176.0</ele><time>2026-04-11T13:17:27.025Z</time></trkpt><trkpt lat="46.4121099" lon="10.0389753"><ele>2176.0</ele><time>2026-04-11T13:17:28.025Z</time></trkpt><trkpt lat="46.412206" lon="10.0390991"><ele>2176.0</ele><time>2026-04-11T13:17:29.025Z</time></trkpt><trkpt lat="46.4123147" lon="10.039215"><ele>2176.0</ele><time>2026-04-11T13:17:30.025Z</time></trkpt><trkpt lat="46.4124034" lon="10.0393296"><ele>2175.25</ele><time>2026-04-11T13:17:31.025Z</time></trkpt><trkpt lat="46.4124652" lon="10.0394716"><ele>2174.5</ele><time>2026-04-11T13:17:32.024Z</time></trkpt><trkpt lat="46.4125091" lon="10.0396498"><ele>2173.75</ele><time>2026-04-11T13:17:33.025Z</time></trkpt><trkpt lat="46.4125221" lon="10.0398457"><ele>2173.0</ele><time>2026-04-11T13:17:34.025Z</time></trkpt><trkpt lat="46.4125241" lon="10.0400474"><ele>2173.0</ele><time>2026-04-11T13:17:35.025Z</time></trkpt><trkpt lat="46.4125435" lon="10.040233"><ele>2173.0</ele><time>2026-04-11T13:17:36.025Z</time></trkpt><trkpt lat="46.4125872" lon="10.0404078"><ele>2173.0</ele><time>2026-04-11T13:17:37.024Z</time></trkpt><trkpt lat="46.4126611" lon="10.0405689"><ele>2173.0</ele><time>2026-04-11T13:17:38.025Z</time></trkpt><trkpt lat="46.4127512" lon="10.040708"><ele>2172.666666666667</ele><time>2026-04-11T13:17:39.025Z</time></trkpt><trkpt lat="46.4128752" lon="10.0408141"><ele>2172.3333333333335</ele><time>2026-04-11T13:17:40.025Z</time></trkpt><trkpt lat="46.4130095" lon="10.0409135"><ele>2172.0</ele><time>2026-04-11T13:17:41.025Z</time></trkpt><trkpt lat="46.4131554" lon="10.0410174"><ele>2172.0</ele><time>2026-04-11T13:17:42.025Z</time></trkpt><trkpt lat="46.4133046" lon="10.0411182"><ele>2172.0</ele><time>2026-04-11T13:17:43.025Z</time></trkpt><trkpt lat="46.4134461" lon="10.0412199"><ele>2172.0</ele><time>2026-04-11T13:17:44.025Z</time></trkpt><trkpt lat="46.4135773" lon="10.0413047"><ele>2172.0</ele><time>2026-04-11T13:17:45.025Z</time></trkpt><trkpt lat="46.4136876" lon="10.0413944"><ele>2172.0</ele><time>2026-04-11T13:17:46.024Z</time></trkpt><trkpt lat="46.413771" lon="10.0415101"><ele>2172.0</ele><time>2026-04-11T13:17:47.025Z</time></trkpt><trkpt lat="46.4138313" lon="10.0416637"><ele>2172.0</ele><time>2026-04-11T13:17:48.025Z</time></trkpt><trkpt lat="46.4138616" lon="10.0418369"><ele>2171.0</ele><time>2026-04-11T13:17:49.024Z</time></trkpt><trkpt lat="46.4138733" lon="10.0420535"><ele>2170.0</ele><time>2026-04-11T13:17:50.025Z</time></trkpt><trkpt lat="46.4138734" lon="10.0422799"><ele>2169.0</ele><time>2026-04-11T13:17:51.025Z</time></trkpt><trkpt lat="46.4138683" lon="10.0425174"><ele>2168.6666666666665</ele><time>2026-04-11T13:17:52.025Z</time></trkpt><trkpt lat="46.4138347" lon="10.0427655"><ele>2168.333333333333</ele><time>2026-04-11T13:17:53.025Z</time></trkpt><trkpt lat="46.4137713" lon="10.0430243"><ele>2168.0</ele><time>2026-04-11T13:17:54.024Z</time></trkpt><trkpt lat="46.4136981" lon="10.0432578"><ele>2159.0</ele><time>2026-04-11T13:17:55.024Z</time></trkpt><trkpt lat="46.4136363" lon="10.0434702"><ele>2150.0</ele><time>2026-04-11T13:17:56.025Z</time></trkpt><trkpt lat="46.4136014" lon="10.0436772"><ele>2141.0</ele><time>2026-04-11T13:17:57.025Z</time></trkpt><trkpt lat="46.4135915" lon="10.0439108"><ele>2141.0</ele><time>2026-04-11T13:17:58.025Z</time></trkpt><trkpt lat="46.4136015" lon="10.0441506"><ele>2141.0</ele><time>2026-04-11T13:17:59.025Z</time></trkpt><trkpt lat="46.4136101" lon="10.0443631"><ele>2141.0</ele><time>2026-04-11T13:18:00.025Z</time></trkpt><trkpt lat="46.4136176" lon="10.0445554"><ele>2141.0</ele><time>2026-04-11T13:18:01.025Z</time></trkpt><trkpt lat="46.4136017" lon="10.0447236"><ele>2141.0</ele><time>2026-04-11T13:18:02.025Z</time></trkpt><trkpt lat="46.4135569" lon="10.0448752"><ele>2141.0</ele><time>2026-04-11T13:18:03.025Z</time></trkpt><trkpt lat="46.4134758" lon="10.0449937"><ele>2141.0</ele><time>2026-04-11T13:18:04.025Z</time></trkpt><trkpt lat="46.413368" lon="10.0450949"><ele>2141.0</ele><time>2026-04-11T13:18:05.025Z</time></trkpt><trkpt lat="46.4132352" lon="10.0451531"><ele>2140.75</ele><time>2026-04-11T13:18:06.024Z</time></trkpt><trkpt lat="46.4130966" lon="10.045187"><ele>2140.5</ele><time>2026-04-11T13:18:07.025Z</time></trkpt><trkpt lat="46.412971" lon="10.0452214"><ele>2140.25</ele><time>2026-04-11T13:18:08.025Z</time></trkpt><trkpt lat="46.4128788" lon="10.0452794"><ele>2140.0</ele><time>2026-04-11T13:18:09.025Z</time></trkpt><trkpt lat="46.4128083" lon="10.0453616"><ele>2139.4</ele><time>2026-04-11T13:18:10.025Z</time></trkpt><trkpt lat="46.4127694" lon="10.0454712"><ele>2138.8</ele><time>2026-04-11T13:18:11.025Z</time></trkpt><trkpt lat="46.4127635" lon="10.0455806"><ele>2138.2</ele><time>2026-04-11T13:18:12.025Z</time></trkpt><trkpt lat="46.4127726" lon="10.045717"><ele>2137.6</ele><time>2026-04-11T13:18:13.024Z</time></trkpt><trkpt lat="46.4127937" lon="10.0458786"><ele>2137.0</ele><time>2026-04-11T13:18:14.023Z</time></trkpt><trkpt lat="46.4128119" lon="10.0460584"><ele>2134.2</ele><time>2026-04-11T13:18:15.024Z</time></trkpt><trkpt lat="46.4128221" lon="10.0462209"><ele>2131.3999999999996</ele><time>2026-04-11T13:18:16.024Z</time></trkpt><trkpt lat="46.4128519" lon="10.0463638"><ele>2128.6000000000004</ele><time>2026-04-11T13:18:17.023Z</time></trkpt><trkpt lat="46.4128951" lon="10.0464776"><ele>2125.8</ele><time>2026-04-11T13:18:18.024Z</time></trkpt><trkpt lat="46.41296" lon="10.0465788"><ele>2123.0</ele><time>2026-04-11T13:18:19.024Z</time></trkpt><trkpt lat="46.4130527" lon="10.0466557"><ele>2121.5</ele><time>2026-04-11T13:18:20.024Z</time></trkpt><trkpt lat="46.4131644" lon="10.0467107"><ele>2120.0</ele><time>2026-04-11T13:18:21.024Z</time></trkpt><trkpt lat="46.4132914" lon="10.0467175"><ele>2118.5</ele><time>2026-04-11T13:18:22.024Z</time></trkpt><trkpt lat="46.4134198" lon="10.0467053"><ele>2117.0</ele><time>2026-04-11T13:18:23.024Z</time></trkpt><trkpt lat="46.4135464" lon="10.0467028"><ele>2117.0</ele><time>2026-04-11T13:18:24.024Z</time></trkpt><trkpt lat="46.4136632" lon="10.0467314"><ele>2117.0</ele><time>2026-04-11T13:18:25.024Z</time></trkpt><trkpt lat="46.4137695" lon="10.0467826"><ele>2117.0</ele><time>2026-04-11T13:18:26.024Z</time></trkpt><trkpt lat="46.4138502" lon="10.0468593"><ele>2117.0</ele><time>2026-04-11T13:18:27.024Z</time></trkpt><trkpt lat="46.4139134" lon="10.0469573"><ele>2117.0</ele><time>2026-04-11T13:18:28.024Z</time></trkpt><trkpt lat="46.4139528" lon="10.0470763"><ele>2117.0</ele><time>2026-04-11T13:18:29.024Z</time></trkpt><trkpt lat="46.4139542" lon="10.0471883"><ele>2117.0</ele><time>2026-04-11T13:18:30.024Z</time></trkpt><trkpt lat="46.4139176" lon="10.0472751"><ele>2117.0</ele><time>2026-04-11T13:18:31.023Z</time></trkpt><trkpt lat="46.4138552" lon="10.0473356"><ele>2117.0</ele><time>2026-04-11T13:18:32.023Z</time></trkpt><trkpt lat="46.4137756" lon="10.0473575"><ele>2117.0</ele><time>2026-04-11T13:18:33.024Z</time></trkpt><trkpt lat="46.4136697" lon="10.0473637"><ele>2117.0</ele><time>2026-04-11T13:18:34.024Z</time></trkpt><trkpt lat="46.4135465" lon="10.047367"><ele>2117.0</ele><time>2026-04-11T13:18:35.024Z</time></trkpt><trkpt lat="46.4134186" lon="10.0473854"><ele>2117.0</ele><time>2026-04-11T13:18:36.024Z</time></trkpt><trkpt lat="46.4132957" lon="10.0473983"><ele>2117.0</ele><time>2026-04-11T13:18:37.024Z</time></trkpt><trkpt lat="46.4131959" lon="10.04742"><ele>2117.0</ele><time>2026-04-11T13:18:38.024Z</time></trkpt><trkpt lat="46.413118" lon="10.047461"><ele>2117.0</ele><time>2026-04-11T13:18:39.023Z</time></trkpt><trkpt lat="46.4130639" lon="10.047539"><ele>2114.4</ele><time>2026-04-11T13:18:40.023Z</time></trkpt><trkpt lat="46.4130389" lon="10.0476473"><ele>2111.7999999999997</ele><time>2026-04-11T13:18:41.023Z</time></trkpt><trkpt lat="46.413052" lon="10.0477527"><ele>2109.2</ele><time>2026-04-11T13:18:42.024Z</time></trkpt><trkpt lat="46.4130999" lon="10.0478774"><ele>2106.6</ele><time>2026-04-11T13:18:43.024Z</time></trkpt><trkpt lat="46.4131548" lon="10.0480049"><ele>2104.0</ele><time>2026-04-11T13:18:44.024Z</time></trkpt><trkpt lat="46.4131878" lon="10.0481345"><ele>2104.0</ele><time>2026-04-11T13:18:45.024Z</time></trkpt><trkpt lat="46.4131838" lon="10.0482549"><ele>2104.0</ele><time>2026-04-11T13:18:46.024Z</time></trkpt><trkpt lat="46.4131428" lon="10.0483586"><ele>2104.0</ele><time>2026-04-11T13:18:47.024Z</time></trkpt><trkpt lat="46.4130733" lon="10.0484223"><ele>2104.0</ele><time>2026-04-11T13:18:48.024Z</time></trkpt><trkpt lat="46.412997" lon="10.0484399"><ele>2104.0</ele><time>2026-04-11T13:18:49.024Z</time></trkpt><trkpt lat="46.4129329" lon="10.0484"><ele>2104.0</ele><time>2026-04-11T13:18:50.024Z</time></trkpt><trkpt lat="46.4128634" lon="10.0482767"><ele>2100.75</ele><time>2026-04-11T13:18:51.024Z</time></trkpt><trkpt lat="46.4127892" lon="10.0481046"><ele>2097.5</ele><time>2026-04-11T13:18:52.024Z</time></trkpt><trkpt lat="46.4127139" lon="10.0479485"><ele>2094.25</ele><time>2026-04-11T13:18:53.024Z</time></trkpt><trkpt lat="46.4126379" lon="10.0478228"><ele>2091.0</ele><time>2026-04-11T13:18:54.024Z</time></trkpt><trkpt lat="46.412566" lon="10.0477597"><ele>2091.0</ele><time>2026-04-11T13:18:55.024Z</time></trkpt><trkpt lat="46.4124767" lon="10.0477407"><ele>2091.0</ele><time>2026-04-11T13:18:56.024Z</time></trkpt><trkpt lat="46.4123731" lon="10.0477883"><ele>2091.0</ele><time>2026-04-11T13:18:57.024Z</time></trkpt><trkpt lat="46.4122714" lon="10.0478509"><ele>2091.0</ele><time>2026-04-11T13:18:58.024Z</time></trkpt><trkpt lat="46.4121625" lon="10.0479454"><ele>2091.0</ele><time>2026-04-11T13:18:59.024Z</time></trkpt><trkpt lat="46.4120592" lon="10.0480371"><ele>2088.25</ele><time>2026-04-11T13:19:00.024Z</time></trkpt><trkpt lat="46.4119424" lon="10.0481425"><ele>2085.5</ele><time>2026-04-11T13:19:01.024Z</time></trkpt><trkpt lat="46.4118188" lon="10.0482604"><ele>2082.75</ele><time>2026-04-11T13:19:02.024Z</time></trkpt><trkpt lat="46.4116872" lon="10.0483885"><ele>2080.0</ele><time>2026-04-11T13:19:03.024Z</time></trkpt><trkpt lat="46.4115504" lon="10.0485197"><ele>2079.0</ele><time>2026-04-11T13:19:04.024Z</time></trkpt><trkpt lat="46.411411" lon="10.0486442"><ele>2078.0</ele><time>2026-04-11T13:19:05.024Z</time></trkpt><trkpt lat="46.4112769" lon="10.0487636"><ele>2077.0</ele><time>2026-04-11T13:19:06.024Z</time></trkpt><trkpt lat="46.411148" lon="10.0488846"><ele>2074.0</ele><time>2026-04-11T13:19:07.024Z</time></trkpt><trkpt lat="46.411025" lon="10.049006"><ele>2071.0</ele><time>2026-04-11T13:19:08.024Z</time></trkpt><trkpt lat="46.4109186" lon="10.049136"><ele>2068.0</ele><time>2026-04-11T13:19:09.024Z</time></trkpt><trkpt lat="46.4108295" lon="10.0492952"><ele>2065.0</ele><time>2026-04-11T13:19:10.024Z</time></trkpt><trkpt lat="46.4107716" lon="10.0494497"><ele>2065.0</ele><time>2026-04-11T13:19:11.024Z</time></trkpt><trkpt lat="46.4107358" lon="10.0496063"><ele>2065.0</ele><time>2026-04-11T13:19:12.023Z</time></trkpt><trkpt lat="46.4107292" lon="10.0497861"><ele>2065.0</ele><time>2026-04-11T13:19:13.024Z</time></trkpt><trkpt lat="46.4107466" lon="10.0499599"><ele>2065.0</ele><time>2026-04-11T13:19:14.024Z</time></trkpt><trkpt lat="46.410794" lon="10.050094"><ele>2064.5</ele><time>2026-04-11T13:19:15.024Z</time></trkpt><trkpt lat="46.4108657" lon="10.0502193"><ele>2064.0</ele><time>2026-04-11T13:19:16.024Z</time></trkpt><trkpt lat="46.4109692" lon="10.0503161"><ele>2063.5</ele><time>2026-04-11T13:19:17.024Z</time></trkpt><trkpt lat="46.4110867" lon="10.0504111"><ele>2063.0</ele><time>2026-04-11T13:19:18.023Z</time></trkpt><trkpt lat="46.4111918" lon="10.0505155"><ele>2063.0</ele><time>2026-04-11T13:19:19.024Z</time></trkpt><trkpt lat="46.4112759" lon="10.0506317"><ele>2063.0</ele><time>2026-04-11T13:19:20.023Z</time></trkpt><trkpt lat="46.4113283" lon="10.0507833"><ele>2063.0</ele><time>2026-04-11T13:19:21.024Z</time></trkpt><trkpt lat="46.4113495" lon="10.0509612"><ele>2063.0</ele><time>2026-04-11T13:19:22.024Z</time></trkpt><trkpt lat="46.4113416" lon="10.0511545"><ele>2060.75</ele><time>2026-04-11T13:19:23.024Z</time></trkpt><trkpt lat="46.4113128" lon="10.0513578"><ele>2058.5</ele><time>2026-04-11T13:19:24.024Z</time></trkpt><trkpt lat="46.4112702" lon="10.0515315"><ele>2056.25</ele><time>2026-04-11T13:19:25.023Z</time></trkpt><trkpt lat="46.4112194" lon="10.0516762"><ele>2054.0</ele><time>2026-04-11T13:19:26.024Z</time></trkpt><trkpt lat="46.41113" lon="10.0517784"><ele>2051.25</ele><time>2026-04-11T13:19:27.024Z</time></trkpt><trkpt lat="46.411012" lon="10.0518705"><ele>2048.5</ele><time>2026-04-11T13:19:28.024Z</time></trkpt><trkpt lat="46.4108683" lon="10.0519384"><ele>2045.75</ele><time>2026-04-11T13:19:29.023Z</time></trkpt><trkpt lat="46.4107072" lon="10.0519669"><ele>2043.0</ele><time>2026-04-11T13:19:30.024Z</time></trkpt><trkpt lat="46.4105514" lon="10.0519613"><ele>2041.0</ele><time>2026-04-11T13:19:31.023Z</time></trkpt><trkpt lat="46.4103994" lon="10.0519004"><ele>2039.0</ele><time>2026-04-11T13:19:32.024Z</time></trkpt><trkpt lat="46.410274" lon="10.0518452"><ele>2037.0</ele><time>2026-04-11T13:19:33.024Z</time></trkpt><trkpt lat="46.4101637" lon="10.0517851"><ele>2035.0</ele><time>2026-04-11T13:19:34.024Z</time></trkpt><trkpt lat="46.4100639" lon="10.0517585"><ele>2035.0</ele><time>2026-04-11T13:19:35.024Z</time></trkpt><trkpt lat="46.4099673" lon="10.0517978"><ele>2035.0</ele><time>2026-04-11T13:19:36.024Z</time></trkpt><trkpt lat="46.4098641" lon="10.0518824"><ele>2035.0</ele><time>2026-04-11T13:19:37.024Z</time></trkpt><trkpt lat="46.4097536" lon="10.0520079"><ele>2035.0</ele><time>2026-04-11T13:19:38.024Z</time></trkpt><trkpt lat="46.4096354" lon="10.0521563"><ele>2032.0</ele><time>2026-04-11T13:19:39.024Z</time></trkpt><trkpt lat="46.4095316" lon="10.0522495"><ele>2029.0</ele><time>2026-04-11T13:19:40.024Z</time></trkpt><trkpt lat="46.4094307" lon="10.0523087"><ele>2026.0</ele><time>2026-04-11T13:19:41.024Z</time></trkpt><trkpt lat="46.4093298" lon="10.0522964"><ele>2023.0</ele><time>2026-04-11T13:19:42.024Z</time></trkpt><trkpt lat="46.4092269" lon="10.0522526"><ele>2020.0</ele><time>2026-04-11T13:19:43.024Z</time></trkpt><trkpt lat="46.4091477" lon="10.0521515"><ele>2020.0</ele><time>2026-04-11T13:19:44.024Z</time></trkpt><trkpt lat="46.4090962" lon="10.0519963"><ele>2020.0</ele><time>2026-04-11T13:19:45.024Z</time></trkpt><trkpt lat="46.4090531" lon="10.0518239"><ele>2020.0</ele><time>2026-04-11T13:19:46.024Z</time></trkpt><trkpt lat="46.4090488" lon="10.0516562"><ele>2020.0</ele><time>2026-04-11T13:19:47.024Z</time></trkpt><trkpt lat="46.4090759" lon="10.0514764"><ele>2020.0</ele><time>2026-04-11T13:19:48.024Z</time></trkpt><trkpt lat="46.4091091" lon="10.0513333"><ele>2020.0</ele><time>2026-04-11T13:19:49.023Z</time></trkpt><trkpt lat="46.4091192" lon="10.0511937"><ele>2020.0</ele><time>2026-04-11T13:19:50.024Z</time></trkpt><trkpt lat="46.4090884" lon="10.0510495"><ele>2020.0</ele><time>2026-04-11T13:19:51.024Z</time></trkpt><trkpt lat="46.4090181" lon="10.050894"><ele>2020.0</ele><time>2026-04-11T13:19:52.023Z</time></trkpt><trkpt lat="46.408921" lon="10.0507373"><ele>2015.3333333333335</ele><time>2026-04-11T13:19:53.024Z</time></trkpt><trkpt lat="46.4088043" lon="10.0505728"><ele>2010.6666666666665</ele><time>2026-04-11T13:19:54.023Z</time></trkpt><trkpt lat="46.4086967" lon="10.0504069"><ele>2006.0</ele><time>2026-04-11T13:19:55.024Z</time></trkpt><trkpt lat="46.408589" lon="10.050271"><ele>2006.0</ele><time>2026-04-11T13:19:56.024Z</time></trkpt><trkpt lat="46.4084787" lon="10.0501668"><ele>2006.0</ele><time>2026-04-11T13:19:57.023Z</time></trkpt><trkpt lat="46.4083562" lon="10.050123"><ele>2006.0</ele><time>2026-04-11T13:19:58.024Z</time></trkpt><trkpt lat="46.4082221" lon="10.0501088"><ele>2006.0</ele><time>2026-04-11T13:19:59.024Z</time></trkpt><trkpt lat="46.4080945" lon="10.0501529"><ele>1999.25</ele><time>2026-04-11T13:20:00.024Z</time></trkpt><trkpt lat="46.4079918" lon="10.0502455"><ele>1992.5</ele><time>2026-04-11T13:20:01.024Z</time></trkpt><trkpt lat="46.4079113" lon="10.0503592"><ele>1985.75</ele><time>2026-04-11T13:20:02.024Z</time></trkpt><trkpt lat="46.4078671" lon="10.0505217"><ele>1979.0</ele><time>2026-04-11T13:20:03.024Z</time></trkpt><trkpt lat="46.4078374" lon="10.0507178"><ele>1977.0</ele><time>2026-04-11T13:20:04.024Z</time></trkpt><trkpt lat="46.4078249" lon="10.050935"><ele>1975.0</ele><time>2026-04-11T13:20:05.024Z</time></trkpt><trkpt lat="46.4078203" lon="10.0511677"><ele>1973.0</ele><time>2026-04-11T13:20:06.024Z</time></trkpt><trkpt lat="46.4078121" lon="10.0514163"><ele>1972.3333333333333</ele><time>2026-04-11T13:20:07.024Z</time></trkpt><trkpt lat="46.4078101" lon="10.051661"><ele>1971.6666666666665</ele><time>2026-04-11T13:20:08.024Z</time></trkpt><trkpt lat="46.4078233" lon="10.0518986"><ele>1971.0</ele><time>2026-04-11T13:20:09.024Z</time></trkpt><trkpt lat="46.4078494" lon="10.0521327"><ele>1971.0</ele><time>2026-04-11T13:20:10.024Z</time></trkpt><trkpt lat="46.4078959" lon="10.0523554"><ele>1971.0</ele><time>2026-04-11T13:20:11.024Z</time></trkpt><trkpt lat="46.4079604" lon="10.0525797"><ele>1971.0</ele><time>2026-04-11T13:20:12.024Z</time></trkpt><trkpt lat="46.4080352" lon="10.0527947"><ele>1972.75</ele><time>2026-04-11T13:20:13.024Z</time></trkpt><trkpt lat="46.4080923" lon="10.0530097"><ele>1974.5</ele><time>2026-04-11T13:20:14.024Z</time></trkpt><trkpt lat="46.4081335" lon="10.0532123"><ele>1976.25</ele><time>2026-04-11T13:20:15.024Z</time></trkpt><trkpt lat="46.408176" lon="10.0533954"><ele>1978.0</ele><time>2026-04-11T13:20:16.024Z</time></trkpt><trkpt lat="46.4082575" lon="10.0535555"><ele>1978.0</ele><time>2026-04-11T13:20:17.024Z</time></trkpt><trkpt lat="46.4083751" lon="10.053723"><ele>1978.0</ele><time>2026-04-11T13:20:18.024Z</time></trkpt><trkpt lat="46.408485" lon="10.0538863"><ele>1978.0</ele><time>2026-04-11T13:20:19.024Z</time></trkpt><trkpt lat="46.4085931" lon="10.0540213"><ele>1978.0</ele><time>2026-04-11T13:20:20.023Z</time></trkpt><trkpt lat="46.4087114" lon="10.0541174"><ele>1978.0</ele><time>2026-04-11T13:20:21.024Z</time></trkpt><trkpt lat="46.4088516" lon="10.0541753"><ele>1978.0</ele><time>2026-04-11T13:20:22.024Z</time></trkpt><trkpt lat="46.4090504" lon="10.0541944"><ele>1976.0</ele><time>2026-04-11T13:20:23.024Z</time></trkpt><trkpt lat="46.409248" lon="10.0542156"><ele>1974.0</ele><time>2026-04-11T13:20:24.024Z</time></trkpt><trkpt lat="46.4094241" lon="10.0542509"><ele>1972.0</ele><time>2026-04-11T13:20:25.024Z</time></trkpt><trkpt lat="46.4095603" lon="10.054308"><ele>1971.5</ele><time>2026-04-11T13:20:26.024Z</time></trkpt><trkpt lat="46.4096669" lon="10.0543907"><ele>1971.0</ele><time>2026-04-11T13:20:27.024Z</time></trkpt><trkpt lat="46.4097539" lon="10.0545078"><ele>1970.5</ele><time>2026-04-11T13:20:28.024Z</time></trkpt><trkpt lat="46.4098026" lon="10.0546597"><ele>1970.0</ele><time>2026-04-11T13:20:29.024Z</time></trkpt><trkpt lat="46.4098278" lon="10.0548627"><ele>1967.25</ele><time>2026-04-11T13:20:30.024Z</time></trkpt><trkpt lat="46.4098388" lon="10.0550832"><ele>1964.5</ele><time>2026-04-11T13:20:31.024Z</time></trkpt><trkpt lat="46.4098493" lon="10.0553005"><ele>1961.75</ele><time>2026-04-11T13:20:32.024Z</time></trkpt><trkpt lat="46.4098304" lon="10.055494"><ele>1959.0</ele><time>2026-04-11T13:20:33.024Z</time></trkpt><trkpt lat="46.40979" lon="10.0556674"><ele>1960.6666666666665</ele><time>2026-04-11T13:20:34.023Z</time></trkpt><trkpt lat="46.40971" lon="10.0558265"><ele>1962.3333333333333</ele><time>2026-04-11T13:20:35.024Z</time></trkpt><trkpt lat="46.4095909" lon="10.0559903"><ele>1964.0</ele><time>2026-04-11T13:20:36.024Z</time></trkpt><trkpt lat="46.4094551" lon="10.0561642"><ele>1964.0</ele><time>2026-04-11T13:20:37.024Z</time></trkpt><trkpt lat="46.4093152" lon="10.0563421"><ele>1964.0</ele><time>2026-04-11T13:20:38.024Z</time></trkpt><trkpt lat="46.4091962" lon="10.0564993"><ele>1964.0</ele><time>2026-04-11T13:20:39.024Z</time></trkpt><trkpt lat="46.4090982" lon="10.0566644"><ele>1959.75</ele><time>2026-04-11T13:20:40.024Z</time></trkpt><trkpt lat="46.4090284" lon="10.0568374"><ele>1955.5</ele><time>2026-04-11T13:20:41.024Z</time></trkpt><trkpt lat="46.408989" lon="10.0570287"><ele>1951.25</ele><time>2026-04-11T13:20:42.024Z</time></trkpt><trkpt lat="46.4089847" lon="10.0572466"><ele>1947.0</ele><time>2026-04-11T13:20:43.024Z</time></trkpt><trkpt lat="46.4090093" lon="10.057475"><ele>1945.0</ele><time>2026-04-11T13:20:44.024Z</time></trkpt><trkpt lat="46.4090387" lon="10.0577317"><ele>1943.0</ele><time>2026-04-11T13:20:45.024Z</time></trkpt><trkpt lat="46.4090419" lon="10.0579996"><ele>1941.0</ele><time>2026-04-11T13:20:46.024Z</time></trkpt><trkpt lat="46.4090245" lon="10.058256"><ele>1939.6666666666665</ele><time>2026-04-11T13:20:47.023Z</time></trkpt><trkpt lat="46.4089918" lon="10.0584949"><ele>1938.3333333333333</ele><time>2026-04-11T13:20:48.024Z</time></trkpt><trkpt lat="46.4089385" lon="10.0587057"><ele>1937.0</ele><time>2026-04-11T13:20:49.024Z</time></trkpt><trkpt lat="46.4088572" lon="10.0589049"><ele>1936.6666666666665</ele><time>2026-04-11T13:20:50.024Z</time></trkpt><trkpt lat="46.4087474" lon="10.0590884"><ele>1936.3333333333335</ele><time>2026-04-11T13:20:51.024Z</time></trkpt><trkpt lat="46.4086091" lon="10.0592536"><ele>1936.0</ele><time>2026-04-11T13:20:52.024Z</time></trkpt><trkpt lat="46.4084547" lon="10.0593947"><ele>1936.0</ele><time>2026-04-11T13:20:53.024Z</time></trkpt><trkpt lat="46.4082689" lon="10.0595153"><ele>1936.0</ele><time>2026-04-11T13:20:54.024Z</time></trkpt><trkpt lat="46.4080714" lon="10.0596189"><ele>1936.0</ele><time>2026-04-11T13:20:55.024Z</time></trkpt><trkpt lat="46.4078901" lon="10.0597404"><ele>1932.6666666666667</ele><time>2026-04-11T13:20:56.024Z</time></trkpt><trkpt lat="46.4077311" lon="10.0599081"><ele>1929.3333333333335</ele><time>2026-04-11T13:20:57.024Z</time></trkpt><trkpt lat="46.4075935" lon="10.0601018"><ele>1926.0</ele><time>2026-04-11T13:20:58.024Z</time></trkpt><trkpt lat="46.407463" lon="10.0602966"><ele>1926.0</ele><time>2026-04-11T13:20:59.024Z</time></trkpt><trkpt lat="46.4073249" lon="10.060468"><ele>1926.0</ele><time>2026-04-11T13:21:00.024Z</time></trkpt><trkpt lat="46.4071949" lon="10.0606081"><ele>1926.0</ele><time>2026-04-11T13:21:01.024Z</time></trkpt><trkpt lat="46.4070636" lon="10.0607234"><ele>1922.25</ele><time>2026-04-11T13:21:02.024Z</time></trkpt><trkpt lat="46.4069213" lon="10.0607941"><ele>1918.5</ele><time>2026-04-11T13:21:03.024Z</time></trkpt><trkpt lat="46.4067755" lon="10.0608361"><ele>1914.75</ele><time>2026-04-11T13:21:04.024Z</time></trkpt><trkpt lat="46.4066292" lon="10.06087"><ele>1911.0</ele><time>2026-04-11T13:21:05.024Z</time></trkpt><trkpt lat="46.4065006" lon="10.0609259"><ele>1911.0</ele><time>2026-04-11T13:21:06.024Z</time></trkpt><trkpt lat="46.4063855" lon="10.0609637"><ele>1911.0</ele><time>2026-04-11T13:21:07.024Z</time></trkpt><trkpt lat="46.4062706" lon="10.0609858"><ele>1911.0</ele><time>2026-04-11T13:21:08.024Z</time></trkpt><trkpt lat="46.4061491" lon="10.0610079"><ele>1911.0</ele><time>2026-04-11T13:21:09.024Z</time></trkpt><trkpt lat="46.4060296" lon="10.061055"><ele>1916.0</ele><time>2026-04-11T13:21:10.024Z</time></trkpt><trkpt lat="46.405909" lon="10.0611332"><ele>1921.0</ele><time>2026-04-11T13:21:11.023Z</time></trkpt><trkpt lat="46.4057831" lon="10.0612673"><ele>1926.0</ele><time>2026-04-11T13:21:12.024Z</time></trkpt><trkpt lat="46.4056459" lon="10.0614159"><ele>1926.0</ele><time>2026-04-11T13:21:13.024Z</time></trkpt><trkpt lat="46.4055072" lon="10.0615344"><ele>1926.0</ele><time>2026-04-11T13:21:14.024Z</time></trkpt><trkpt lat="46.4053735" lon="10.0616168"><ele>1926.0</ele><time>2026-04-11T13:21:15.024Z</time></trkpt><trkpt lat="46.4052282" lon="10.0616632"><ele>1921.0</ele><time>2026-04-11T13:21:16.024Z</time></trkpt><trkpt lat="46.4050835" lon="10.0616826"><ele>1916.0</ele><time>2026-04-11T13:21:17.023Z</time></trkpt><trkpt lat="46.4049461" lon="10.0617154"><ele>1911.0</ele><time>2026-04-11T13:21:18.024Z</time></trkpt><trkpt lat="46.4048161" lon="10.0617895"><ele>1906.0</ele><time>2026-04-11T13:21:19.024Z</time></trkpt><trkpt lat="46.4047007" lon="10.061877"><ele>1904.6666666666667</ele><time>2026-04-11T13:21:20.024Z</time></trkpt><trkpt lat="46.404608" lon="10.0620379"><ele>1903.3333333333335</ele><time>2026-04-11T13:21:21.024Z</time></trkpt><trkpt lat="46.4045465" lon="10.0622414"><ele>1902.0</ele><time>2026-04-11T13:21:22.024Z</time></trkpt><trkpt lat="46.4045136" lon="10.0624679"><ele>1897.0</ele><time>2026-04-11T13:21:23.024Z</time></trkpt><trkpt lat="46.4045097" lon="10.0627184"><ele>1892.0</ele><time>2026-04-11T13:21:24.024Z</time></trkpt><trkpt lat="46.4045146" lon="10.0629624"><ele>1887.0</ele><time>2026-04-11T13:21:25.024Z</time></trkpt><trkpt lat="46.4045094" lon="10.0631936"><ele>1888.0</ele><time>2026-04-11T13:21:26.023Z</time></trkpt><trkpt lat="46.404504" lon="10.0634178"><ele>1889.0</ele><time>2026-04-11T13:21:27.024Z</time></trkpt><trkpt lat="46.404499" lon="10.0636312"><ele>1890.0</ele><time>2026-04-11T13:21:28.024Z</time></trkpt><trkpt lat="46.4044938" lon="10.0638388"><ele>1891.0</ele><time>2026-04-11T13:21:29.024Z</time></trkpt><trkpt lat="46.4044772" lon="10.0640473"><ele>1889.3333333333335</ele><time>2026-04-11T13:21:30.024Z</time></trkpt><trkpt lat="46.4044409" lon="10.0642454"><ele>1887.6666666666665</ele><time>2026-04-11T13:21:31.024Z</time></trkpt><trkpt lat="46.404374" lon="10.0644474"><ele>1886.0</ele><time>2026-04-11T13:21:32.024Z</time></trkpt><trkpt lat="46.4042818" lon="10.0646483"><ele>1886.0</ele><time>2026-04-11T13:21:33.024Z</time></trkpt><trkpt lat="46.4041629" lon="10.0648369"><ele>1886.0</ele><time>2026-04-11T13:21:34.024Z</time></trkpt><trkpt lat="46.4040337" lon="10.0650053"><ele>1886.0</ele><time>2026-04-11T13:21:35.024Z</time></trkpt><trkpt lat="46.4039097" lon="10.0651752"><ele>1886.3333333333333</ele><time>2026-04-11T13:21:36.024Z</time></trkpt><trkpt lat="46.4037808" lon="10.0653414"><ele>1886.6666666666665</ele><time>2026-04-11T13:21:37.024Z</time></trkpt><trkpt lat="46.4036608" lon="10.0654991"><ele>1887.0</ele><time>2026-04-11T13:21:38.023Z</time></trkpt><trkpt lat="46.4035473" lon="10.0656523"><ele>1884.25</ele><time>2026-04-11T13:21:39.024Z</time></trkpt><trkpt lat="46.4034351" lon="10.0658001"><ele>1881.5</ele><time>2026-04-11T13:21:40.024Z</time></trkpt><trkpt lat="46.4033277" lon="10.0659306"><ele>1878.75</ele><time>2026-04-11T13:21:41.024Z</time></trkpt><trkpt lat="46.4032169" lon="10.0660506"><ele>1876.0</ele><time>2026-04-11T13:21:42.023Z</time></trkpt><trkpt lat="46.4031088" lon="10.0661408"><ele>1877.25</ele><time>2026-04-11T13:21:43.024Z</time></trkpt><trkpt lat="46.4029927" lon="10.0662029"><ele>1878.5</ele><time>2026-04-11T13:21:44.024Z</time></trkpt><trkpt lat="46.4028691" lon="10.0662495"><ele>1879.75</ele><time>2026-04-11T13:21:45.024Z</time></trkpt><trkpt lat="46.4027342" lon="10.0662908"><ele>1881.0</ele><time>2026-04-11T13:21:46.024Z</time></trkpt><trkpt lat="46.4026007" lon="10.0663283"><ele>1881.0</ele><time>2026-04-11T13:21:47.024Z</time></trkpt><trkpt lat="46.4024739" lon="10.0663683"><ele>1881.0</ele><time>2026-04-11T13:21:48.024Z</time></trkpt><trkpt lat="46.4023432" lon="10.0664158"><ele>1881.0</ele><time>2026-04-11T13:21:49.024Z</time></trkpt><trkpt lat="46.4022177" lon="10.066453"><ele>1881.0</ele><time>2026-04-11T13:21:50.024Z</time></trkpt><trkpt lat="46.4021019" lon="10.066493"><ele>1881.0</ele><time>2026-04-11T13:21:51.024Z</time></trkpt><trkpt lat="46.4019933" lon="10.0665374"><ele>1881.0</ele><time>2026-04-11T13:21:52.024Z</time></trkpt><trkpt lat="46.4018887" lon="10.0665718"><ele>1881.0</ele><time>2026-04-11T13:21:53.023Z</time></trkpt><trkpt lat="46.4017749" lon="10.0666128"><ele>1881.0</ele><time>2026-04-11T13:21:54.023Z</time></trkpt><trkpt lat="46.4016436" lon="10.0666539"><ele>1881.0</ele><time>2026-04-11T13:21:55.024Z</time></trkpt><trkpt lat="46.4015067" lon="10.0667085"><ele>1881.0</ele><time>2026-04-11T13:21:56.024Z</time></trkpt><trkpt lat="46.4013668" lon="10.066766"><ele>1881.0</ele><time>2026-04-11T13:21:57.024Z</time></trkpt><trkpt lat="46.4012297" lon="10.0668187"><ele>1881.0</ele><time>2026-04-11T13:21:58.024Z</time></trkpt><trkpt lat="46.4010829" lon="10.0668633"><ele>1882.3333333333335</ele><time>2026-04-11T13:21:59.024Z</time></trkpt><trkpt lat="46.4009271" lon="10.0669041"><ele>1883.6666666666667</ele><time>2026-04-11T13:22:00.023Z</time></trkpt><trkpt lat="46.4007716" lon="10.0669443"><ele>1885.0</ele><time>2026-04-11T13:22:01.024Z</time></trkpt><trkpt lat="46.4006153" lon="10.0669738"><ele>1885.0</ele><time>2026-04-11T13:22:02.024Z</time></trkpt><trkpt lat="46.4004546" lon="10.0669854"><ele>1885.0</ele><time>2026-04-11T13:22:03.024Z</time></trkpt><trkpt lat="46.4002895" lon="10.0669912"><ele>1885.0</ele><time>2026-04-11T13:22:04.024Z</time></trkpt><trkpt lat="46.4001245" lon="10.0669819"><ele>1885.0</ele><time>2026-04-11T13:22:05.024Z</time></trkpt><trkpt lat="46.3999589" lon="10.0669695"><ele>1885.0</ele><time>2026-04-11T13:22:06.024Z</time></trkpt><trkpt lat="46.3997929" lon="10.0669469"><ele>1885.0</ele><time>2026-04-11T13:22:07.024Z</time></trkpt><trkpt lat="46.3996266" lon="10.0669308"><ele>1883.6666666666667</ele><time>2026-04-11T13:22:08.024Z</time></trkpt><trkpt lat="46.3994575" lon="10.0669191"><ele>1882.3333333333335</ele><time>2026-04-11T13:22:09.023Z</time></trkpt><trkpt lat="46.3992888" lon="10.0669212"><ele>1881.0</ele><time>2026-04-11T13:22:10.024Z</time></trkpt><trkpt lat="46.3991234" lon="10.0669273"><ele>1881.0</ele><time>2026-04-11T13:22:11.024Z</time></trkpt><trkpt lat="46.3989623" lon="10.0669462"><ele>1881.0</ele><time>2026-04-11T13:22:12.024Z</time></trkpt><trkpt lat="46.3988022" lon="10.0669687"><ele>1881.0</ele><time>2026-04-11T13:22:13.024Z</time></trkpt><trkpt lat="46.3986446" lon="10.0669867"><ele>1878.6666666666665</ele><time>2026-04-11T13:22:14.024Z</time></trkpt><trkpt lat="46.3984868" lon="10.0669845"><ele>1876.3333333333333</ele><time>2026-04-11T13:22:15.024Z</time></trkpt><trkpt lat="46.3983278" lon="10.0669292"><ele>1874.0</ele><time>2026-04-11T13:22:16.024Z</time></trkpt><trkpt lat="46.3981603" lon="10.0668377"><ele>1868.3333333333333</ele><time>2026-04-11T13:22:17.024Z</time></trkpt><trkpt lat="46.3979921" lon="10.0667399"><ele>1862.6666666666665</ele><time>2026-04-11T13:22:18.023Z</time></trkpt><trkpt lat="46.3978127" lon="10.0666781"><ele>1857.0</ele><time>2026-04-11T13:22:19.023Z</time></trkpt><trkpt lat="46.397625" lon="10.0666704"><ele>1857.0</ele><time>2026-04-11T13:22:20.024Z</time></trkpt><trkpt lat="46.3974493" lon="10.0666826"><ele>1857.0</ele><time>2026-04-11T13:22:21.024Z</time></trkpt><trkpt lat="46.3972808" lon="10.0667007"><ele>1857.0</ele><time>2026-04-11T13:22:22.024Z</time></trkpt><trkpt lat="46.3971322" lon="10.066689"><ele>1862.3333333333335</ele><time>2026-04-11T13:22:23.023Z</time></trkpt><trkpt lat="46.3969872" lon="10.0666259"><ele>1867.6666666666667</ele><time>2026-04-11T13:22:24.024Z</time></trkpt><trkpt lat="46.3968483" lon="10.0665137"><ele>1873.0</ele><time>2026-04-11T13:22:25.024Z</time></trkpt><trkpt lat="46.3967148" lon="10.0664024"><ele>1873.0</ele><time>2026-04-11T13:22:26.024Z</time></trkpt><trkpt lat="46.3965662" lon="10.0663143"><ele>1873.0</ele><time>2026-04-11T13:22:27.024Z</time></trkpt><trkpt lat="46.3963976" lon="10.0662346"><ele>1873.0</ele><time>2026-04-11T13:22:28.024Z</time></trkpt><trkpt lat="46.3962279" lon="10.0661528"><ele>1865.0</ele><time>2026-04-11T13:22:29.024Z</time></trkpt><trkpt lat="46.3960671" lon="10.0660725"><ele>1857.0</ele><time>2026-04-11T13:22:30.024Z</time></trkpt><trkpt lat="46.395911" lon="10.0660063"><ele>1849.0</ele><time>2026-04-11T13:22:31.024Z</time></trkpt><trkpt lat="46.3957491" lon="10.0659636"><ele>1849.0</ele><time>2026-04-11T13:22:32.024Z</time></trkpt><trkpt lat="46.3955726" lon="10.065971"><ele>1849.0</ele><time>2026-04-11T13:22:33.024Z</time></trkpt><trkpt lat="46.3953933" lon="10.066014"><ele>1849.0</ele><time>2026-04-11T13:22:34.024Z</time></trkpt><trkpt lat="46.3952232" lon="10.0660957"><ele>1844.6666666666667</ele><time>2026-04-11T13:22:35.024Z</time></trkpt><trkpt lat="46.3950532" lon="10.0661793"><ele>1840.3333333333335</ele><time>2026-04-11T13:22:36.024Z</time></trkpt><trkpt lat="46.3948947" lon="10.0662417"><ele>1836.0</ele><time>2026-04-11T13:22:37.023Z</time></trkpt><trkpt lat="46.3947425" lon="10.0662837"><ele>1837.0</ele><time>2026-04-11T13:22:38.024Z</time></trkpt><trkpt lat="46.394607" lon="10.0662977"><ele>1838.0</ele><time>2026-04-11T13:22:39.024Z</time></trkpt><trkpt lat="46.3944793" lon="10.06628"><ele>1839.0</ele><time>2026-04-11T13:22:40.023Z</time></trkpt><trkpt lat="46.3943763" lon="10.0662299"><ele>1840.0</ele><time>2026-04-11T13:22:41.024Z</time></trkpt><trkpt lat="46.3942838" lon="10.066171"><ele>1840.0000000000002</ele><time>2026-04-11T13:22:42.024Z</time></trkpt><trkpt lat="46.3942056" lon="10.0661322"><ele>1840.0</ele><time>2026-04-11T13:22:43.024Z</time></trkpt><trkpt lat="46.3941336" lon="10.0661311"><ele>1840.0</ele><time>2026-04-11T13:22:44.024Z</time></trkpt><trkpt lat="46.3940734" lon="10.0661636"><ele>1840.0</ele><time>2026-04-11T13:22:45.024Z</time></trkpt><trkpt lat="46.3940289" lon="10.0663003"><ele>1840.0000000000002</ele><time>2026-04-11T13:22:47.024Z</time></trkpt><trkpt lat="46.3940598" lon="10.0663823"><ele>1840.0</ele><time>2026-04-11T13:22:48.024Z</time></trkpt><trkpt lat="46.3941231" lon="10.0664399"><ele>1840.0</ele><time>2026-04-11T13:22:49.024Z</time></trkpt><trkpt lat="46.3942069" lon="10.0664794"><ele>1840.0</ele><time>2026-04-11T13:22:50.024Z</time></trkpt><trkpt lat="46.3943188" lon="10.0664927"><ele>1840.0</ele><time>2026-04-11T13:22:51.024Z</time></trkpt><trkpt lat="46.3944418" lon="10.0665134"><ele>1840.0</ele><time>2026-04-11T13:22:52.024Z</time></trkpt><trkpt lat="46.3945577" lon="10.0665426"><ele>1840.0</ele><time>2026-04-11T13:22:53.024Z</time></trkpt><trkpt lat="46.394673" lon="10.0665856"><ele>1832.5</ele><time>2026-04-11T13:22:54.024Z</time></trkpt><trkpt lat="46.3948038" lon="10.0666344"><ele>1825.0</ele><time>2026-04-11T13:22:55.024Z</time></trkpt><trkpt lat="46.3949493" lon="10.0666841"><ele>1817.5</ele><time>2026-04-11T13:22:56.024Z</time></trkpt><trkpt lat="46.3951095" lon="10.0667239"><ele>1810.0</ele><time>2026-04-11T13:22:57.024Z</time></trkpt><trkpt lat="46.3952783" lon="10.0667458"><ele>1810.0</ele><time>2026-04-11T13:22:58.024Z</time></trkpt><trkpt lat="46.3954438" lon="10.0667396"><ele>1810.0</ele><time>2026-04-11T13:22:59.024Z</time></trkpt><trkpt lat="46.3955932" lon="10.0667115"><ele>1810.0</ele><time>2026-04-11T13:23:00.023Z</time></trkpt><trkpt lat="46.3957101" lon="10.0666804"><ele>1810.0</ele><time>2026-04-11T13:23:01.024Z</time></trkpt><trkpt lat="46.3958112" lon="10.0666629"><ele>1810.6666666666667</ele><time>2026-04-11T13:23:02.024Z</time></trkpt><trkpt lat="46.3958952" lon="10.0666805"><ele>1811.3333333333335</ele><time>2026-04-11T13:23:03.024Z</time></trkpt><trkpt lat="46.3959586" lon="10.0667442"><ele>1812.0</ele><time>2026-04-11T13:23:04.024Z</time></trkpt><trkpt lat="46.3959903" lon="10.0668902"><ele>1812.6666666666665</ele><time>2026-04-11T13:23:06.024Z</time></trkpt><trkpt lat="46.3959346" lon="10.0669609"><ele>1813.3333333333333</ele><time>2026-04-11T13:23:07.024Z</time></trkpt><trkpt lat="46.3958509" lon="10.0670136"><ele>1814.0</ele><time>2026-04-11T13:23:08.024Z</time></trkpt><trkpt lat="46.3957253" lon="10.067037"><ele>1814.0</ele><time>2026-04-11T13:23:09.024Z</time></trkpt><trkpt lat="46.3955752" lon="10.0670612"><ele>1814.0</ele><time>2026-04-11T13:23:10.024Z</time></trkpt><trkpt lat="46.3953929" lon="10.0671015"><ele>1814.0</ele><time>2026-04-11T13:23:11.024Z</time></trkpt><trkpt lat="46.3952007" lon="10.0671729"><ele>1812.6666666666665</ele><time>2026-04-11T13:23:12.024Z</time></trkpt><trkpt lat="46.3949952" lon="10.0672683"><ele>1811.3333333333335</ele><time>2026-04-11T13:23:13.024Z</time></trkpt><trkpt lat="46.3947911" lon="10.0673586"><ele>1810.0</ele><time>2026-04-11T13:23:14.024Z</time></trkpt><trkpt lat="46.3946026" lon="10.067442"><ele>1800.6666666666667</ele><time>2026-04-11T13:23:15.024Z</time></trkpt><trkpt lat="46.3944282" lon="10.0675295"><ele>1791.3333333333335</ele><time>2026-04-11T13:23:16.024Z</time></trkpt><trkpt lat="46.3942853" lon="10.0676397"><ele>1782.0</ele><time>2026-04-11T13:23:17.024Z</time></trkpt><trkpt lat="46.3941763" lon="10.0677843"><ele>1782.0</ele><time>2026-04-11T13:23:18.023Z</time></trkpt><trkpt lat="46.3940698" lon="10.0679646"><ele>1782.0</ele><time>2026-04-11T13:23:19.024Z</time></trkpt><trkpt lat="46.3939718" lon="10.0681576"><ele>1782.0</ele><time>2026-04-11T13:23:20.024Z</time></trkpt><trkpt lat="46.3938894" lon="10.0683405"><ele>1781.0</ele><time>2026-04-11T13:23:21.024Z</time></trkpt><trkpt lat="46.3938404" lon="10.0685376"><ele>1780.0</ele><time>2026-04-11T13:23:22.024Z</time></trkpt><trkpt lat="46.3938196" lon="10.0687443"><ele>1779.0</ele><time>2026-04-11T13:23:23.024Z</time></trkpt><trkpt lat="46.3938102" lon="10.0689377"><ele>1778.0</ele><time>2026-04-11T13:23:24.024Z</time></trkpt><trkpt lat="46.3938136" lon="10.069109"><ele>1776.0</ele><time>2026-04-11T13:23:25.023Z</time></trkpt><trkpt lat="46.3938431" lon="10.0692487"><ele>1774.0</ele><time>2026-04-11T13:23:26.024Z</time></trkpt><trkpt lat="46.3939024" lon="10.0693731"><ele>1772.0</ele><time>2026-04-11T13:23:27.024Z</time></trkpt><trkpt lat="46.3940035" lon="10.0694952"><ele>1770.0</ele><time>2026-04-11T13:23:28.024Z</time></trkpt><trkpt lat="46.3941138" lon="10.0696198"><ele>1770.0</ele><time>2026-04-11T13:23:29.024Z</time></trkpt><trkpt lat="46.3942461" lon="10.0697125"><ele>1770.0</ele><time>2026-04-11T13:23:30.024Z</time></trkpt><trkpt lat="46.3943718" lon="10.0697556"><ele>1770.0</ele><time>2026-04-11T13:23:31.024Z</time></trkpt><trkpt lat="46.3945147" lon="10.0697732"><ele>1770.0</ele><time>2026-04-11T13:23:32.024Z</time></trkpt><trkpt lat="46.3946618" lon="10.0697523"><ele>1768.75</ele><time>2026-04-11T13:23:33.024Z</time></trkpt><trkpt lat="46.3948042" lon="10.0697182"><ele>1767.5</ele><time>2026-04-11T13:23:34.024Z</time></trkpt><trkpt lat="46.3949356" lon="10.0697011"><ele>1766.25</ele><time>2026-04-11T13:23:35.024Z</time></trkpt><trkpt lat="46.3950437" lon="10.0697315"><ele>1765.0</ele><time>2026-04-11T13:23:36.024Z</time></trkpt><trkpt lat="46.3951363" lon="10.0698071"><ele>1765.0</ele><time>2026-04-11T13:23:37.024Z</time></trkpt><trkpt lat="46.3951926" lon="10.0699094"><ele>1765.0</ele><time>2026-04-11T13:23:38.024Z</time></trkpt><trkpt lat="46.395215" lon="10.0700351"><ele>1765.0</ele><time>2026-04-11T13:23:39.024Z</time></trkpt><trkpt lat="46.3951953" lon="10.070154"><ele>1765.0</ele><time>2026-04-11T13:23:40.024Z</time></trkpt><trkpt lat="46.3951276" lon="10.0702776"><ele>1765.0</ele><time>2026-04-11T13:23:41.024Z</time></trkpt><trkpt lat="46.3950267" lon="10.0703982"><ele>1764.5</ele><time>2026-04-11T13:23:42.023Z</time></trkpt><trkpt lat="46.3948952" lon="10.0705045"><ele>1764.0</ele><time>2026-04-11T13:23:43.024Z</time></trkpt><trkpt lat="46.3947561" lon="10.0705703"><ele>1763.5</ele><time>2026-04-11T13:23:44.024Z</time></trkpt><trkpt lat="46.3946082" lon="10.070593"><ele>1763.0</ele><time>2026-04-11T13:23:45.024Z</time></trkpt><trkpt lat="46.3944698" lon="10.0705918"><ele>1763.0</ele><time>2026-04-11T13:23:46.024Z</time></trkpt><trkpt lat="46.3943482" lon="10.0705952"><ele>1763.0</ele><time>2026-04-11T13:23:47.024Z</time></trkpt><trkpt lat="46.3942259" lon="10.0706433"><ele>1763.0</ele><time>2026-04-11T13:23:48.024Z</time></trkpt><trkpt lat="46.3940929" lon="10.0707478"><ele>1763.0</ele><time>2026-04-11T13:23:49.024Z</time></trkpt><trkpt lat="46.3939822" lon="10.0708909"><ele>1760.8000000000002</ele><time>2026-04-11T13:23:50.023Z</time></trkpt><trkpt lat="46.3938864" lon="10.0710159"><ele>1758.6000000000001</ele><time>2026-04-11T13:23:51.024Z</time></trkpt><trkpt lat="46.3938072" lon="10.0710835"><ele>1756.3999999999999</ele><time>2026-04-11T13:23:52.024Z</time></trkpt><trkpt lat="46.393728" lon="10.0710932"><ele>1754.1999999999998</ele><time>2026-04-11T13:23:53.024Z</time></trkpt><trkpt lat="46.3936369" lon="10.0710517"><ele>1752.0</ele><time>2026-04-11T13:23:54.023Z</time></trkpt><trkpt lat="46.3935381" lon="10.0709526"><ele>1748.6666666666665</ele><time>2026-04-11T13:23:55.024Z</time></trkpt><trkpt lat="46.39343" lon="10.0707945"><ele>1745.3333333333333</ele><time>2026-04-11T13:23:56.024Z</time></trkpt><trkpt lat="46.3932988" lon="10.070626"><ele>1742.0</ele><time>2026-04-11T13:23:57.024Z</time></trkpt><trkpt lat="46.3931472" lon="10.0704321"><ele>1738.0</ele><time>2026-04-11T13:23:58.023Z</time></trkpt><trkpt lat="46.3929934" lon="10.0701912"><ele>1734.0</ele><time>2026-04-11T13:23:59.024Z</time></trkpt><trkpt lat="46.3928462" lon="10.0699276"><ele>1733.6666666666665</ele><time>2026-04-11T13:24:00.024Z</time></trkpt><trkpt lat="46.3927057" lon="10.069653"><ele>1733.3333333333333</ele><time>2026-04-11T13:24:01.023Z</time></trkpt><trkpt lat="46.392586" lon="10.0694011"><ele>1733.0</ele><time>2026-04-11T13:24:02.024Z</time></trkpt><trkpt lat="46.3924849" lon="10.0691554"><ele>1729.3333333333333</ele><time>2026-04-11T13:24:03.024Z</time></trkpt><trkpt lat="46.3924075" lon="10.0689098"><ele>1725.6666666666665</ele><time>2026-04-11T13:24:04.024Z</time></trkpt><trkpt lat="46.3923571" lon="10.0686676"><ele>1722.0</ele><time>2026-04-11T13:24:05.024Z</time></trkpt><trkpt lat="46.3923269" lon="10.0684611"><ele>1722.0</ele><time>2026-04-11T13:24:06.023Z</time></trkpt><trkpt lat="46.3922929" lon="10.0682951"><ele>1721.9999999999998</ele><time>2026-04-11T13:24:07.024Z</time></trkpt><trkpt lat="46.392232" lon="10.0681918"><ele>1721.9999999999998</ele><time>2026-04-11T13:24:08.023Z</time></trkpt><trkpt lat="46.3921612" lon="10.0681366"><ele>1722.0</ele><time>2026-04-11T13:24:09.024Z</time></trkpt><trkpt lat="46.3920698" lon="10.0681304"><ele>1722.0</ele><time>2026-04-11T13:24:10.023Z</time></trkpt><trkpt lat="46.3919604" lon="10.0681577"><ele>1722.25</ele><time>2026-04-11T13:24:11.024Z</time></trkpt><trkpt lat="46.3918383" lon="10.0682303"><ele>1722.5</ele><time>2026-04-11T13:24:12.024Z</time></trkpt><trkpt lat="46.3917134" lon="10.0683249"><ele>1722.75</ele><time>2026-04-11T13:24:13.024Z</time></trkpt><trkpt lat="46.3916207" lon="10.0683982"><ele>1723.0</ele><time>2026-04-11T13:24:14.024Z</time></trkpt><trkpt lat="46.3915518" lon="10.0685267"><ele>1720.75</ele><time>2026-04-11T13:24:15.024Z</time></trkpt><trkpt lat="46.3915162" lon="10.0686723"><ele>1718.5</ele><time>2026-04-11T13:24:16.024Z</time></trkpt><trkpt lat="46.3914942" lon="10.068872"><ele>1716.25</ele><time>2026-04-11T13:24:17.024Z</time></trkpt><trkpt lat="46.391504" lon="10.069073"><ele>1714.0</ele><time>2026-04-11T13:24:18.024Z</time></trkpt><trkpt lat="46.3915434" lon="10.0692609"><ele>1714.0</ele><time>2026-04-11T13:24:19.024Z</time></trkpt><trkpt lat="46.3916078" lon="10.0694574"><ele>1714.0</ele><time>2026-04-11T13:24:20.024Z</time></trkpt><trkpt lat="46.3916703" lon="10.0696844"><ele>1714.0</ele><time>2026-04-11T13:24:21.024Z</time></trkpt><trkpt lat="46.3916898" lon="10.0699229"><ele>1711.6666666666667</ele><time>2026-04-11T13:24:22.024Z</time></trkpt><trkpt lat="46.3917013" lon="10.070192"><ele>1709.3333333333335</ele><time>2026-04-11T13:24:23.024Z</time></trkpt><trkpt lat="46.3917247" lon="10.0704707"><ele>1707.0</ele><time>2026-04-11T13:24:24.024Z</time></trkpt><trkpt lat="46.391766" lon="10.0707505"><ele>1703.3333333333335</ele><time>2026-04-11T13:24:25.024Z</time></trkpt><trkpt lat="46.3917927" lon="10.0710275"><ele>1699.6666666666667</ele><time>2026-04-11T13:24:26.024Z</time></trkpt><trkpt lat="46.3917988" lon="10.0712854"><ele>1696.0</ele><time>2026-04-11T13:24:27.024Z</time></trkpt><trkpt lat="46.3918014" lon="10.0715283"><ele>1693.25</ele><time>2026-04-11T13:24:28.024Z</time></trkpt><trkpt lat="46.3918168" lon="10.0717443"><ele>1690.5</ele><time>2026-04-11T13:24:29.024Z</time></trkpt><trkpt lat="46.3918393" lon="10.071956"><ele>1687.75</ele><time>2026-04-11T13:24:30.024Z</time></trkpt><trkpt lat="46.3918703" lon="10.0721607"><ele>1685.0</ele><time>2026-04-11T13:24:31.024Z</time></trkpt><trkpt lat="46.3918955" lon="10.0723707"><ele>1681.25</ele><time>2026-04-11T13:24:32.024Z</time></trkpt><trkpt lat="46.3919188" lon="10.0725601"><ele>1677.5</ele><time>2026-04-11T13:24:33.024Z</time></trkpt><trkpt lat="46.3919378" lon="10.072748"><ele>1673.75</ele><time>2026-04-11T13:24:34.024Z</time></trkpt><trkpt lat="46.3919616" lon="10.0729315"><ele>1670.0</ele><time>2026-04-11T13:24:35.024Z</time></trkpt><trkpt lat="46.391986" lon="10.0731072"><ele>1670.0</ele><time>2026-04-11T13:24:36.024Z</time></trkpt><trkpt lat="46.3920205" lon="10.0732483"><ele>1670.0</ele><time>2026-04-11T13:24:37.024Z</time></trkpt><trkpt lat="46.3920787" lon="10.0733706"><ele>1670.0</ele><time>2026-04-11T13:24:38.023Z</time></trkpt><trkpt lat="46.392186" lon="10.0734832"><ele>1670.0</ele><time>2026-04-11T13:24:39.024Z</time></trkpt><trkpt lat="46.3923084" lon="10.0735846"><ele>1676.0</ele><time>2026-04-11T13:24:40.024Z</time></trkpt><trkpt lat="46.3924304" lon="10.0736804"><ele>1682.0</ele><time>2026-04-11T13:24:41.024Z</time></trkpt><trkpt lat="46.3925399" lon="10.0737775"><ele>1688.0</ele><time>2026-04-11T13:24:42.023Z</time></trkpt><trkpt lat="46.392637" lon="10.0738731"><ele>1694.0</ele><time>2026-04-11T13:24:43.024Z</time></trkpt><trkpt lat="46.3927123" lon="10.0739752"><ele>1693.9999999999998</ele><time>2026-04-11T13:24:44.024Z</time></trkpt><trkpt lat="46.3927711" lon="10.0740834"><ele>1694.0</ele><time>2026-04-11T13:24:45.024Z</time></trkpt><trkpt lat="46.3927859" lon="10.0742025"><ele>1694.0</ele><time>2026-04-11T13:24:46.024Z</time></trkpt><trkpt lat="46.3927779" lon="10.0743168"><ele>1694.0</ele><time>2026-04-11T13:24:47.024Z</time></trkpt><trkpt lat="46.3927371" lon="10.0744307"><ele>1693.9999999999998</ele><time>2026-04-11T13:24:48.024Z</time></trkpt><trkpt lat="46.3926765" lon="10.0745475"><ele>1694.0</ele><time>2026-04-11T13:24:49.024Z</time></trkpt><trkpt lat="46.3925965" lon="10.0746826"><ele>1688.0</ele><time>2026-04-11T13:24:50.024Z</time></trkpt><trkpt lat="46.3924993" lon="10.0748108"><ele>1682.0</ele><time>2026-04-11T13:24:51.024Z</time></trkpt><trkpt lat="46.3923829" lon="10.0749194"><ele>1676.0</ele><time>2026-04-11T13:24:52.024Z</time></trkpt><trkpt lat="46.3922648" lon="10.0750143"><ele>1670.0</ele><time>2026-04-11T13:24:53.024Z</time></trkpt><trkpt lat="46.3921497" lon="10.0750965"><ele>1665.75</ele><time>2026-04-11T13:24:54.024Z</time></trkpt><trkpt lat="46.3920363" lon="10.0751934"><ele>1661.5</ele><time>2026-04-11T13:24:55.024Z</time></trkpt><trkpt lat="46.3919556" lon="10.0753152"><ele>1657.25</ele><time>2026-04-11T13:24:56.024Z</time></trkpt><trkpt lat="46.3919014" lon="10.0754696"><ele>1653.0</ele><time>2026-04-11T13:24:57.023Z</time></trkpt><trkpt lat="46.3918639" lon="10.0756213"><ele>1653.5</ele><time>2026-04-11T13:24:58.023Z</time></trkpt><trkpt lat="46.3918409" lon="10.0757865"><ele>1654.0</ele><time>2026-04-11T13:24:59.023Z</time></trkpt><trkpt lat="46.3918169" lon="10.0759467"><ele>1654.5</ele><time>2026-04-11T13:25:00.024Z</time></trkpt><trkpt lat="46.3917906" lon="10.0761083"><ele>1655.0</ele><time>2026-04-11T13:25:01.024Z</time></trkpt><trkpt lat="46.3917583" lon="10.0762601"><ele>1655.0</ele><time>2026-04-11T13:25:02.024Z</time></trkpt><trkpt lat="46.3917215" lon="10.0764207"><ele>1655.0</ele><time>2026-04-11T13:25:03.024Z</time></trkpt><trkpt lat="46.3916844" lon="10.0765765"><ele>1655.0</ele><time>2026-04-11T13:25:04.023Z</time></trkpt><trkpt lat="46.3916468" lon="10.076733"><ele>1655.0</ele><time>2026-04-11T13:25:05.024Z</time></trkpt><trkpt lat="46.3915929" lon="10.0768929"><ele>1655.0</ele><time>2026-04-11T13:25:06.024Z</time></trkpt><trkpt lat="46.3915333" lon="10.0770563"><ele>1655.0</ele><time>2026-04-11T13:25:07.024Z</time></trkpt><trkpt lat="46.391465" lon="10.0772147"><ele>1655.0</ele><time>2026-04-11T13:25:08.023Z</time></trkpt><trkpt lat="46.3913841" lon="10.0773743"><ele>1655.0</ele><time>2026-04-11T13:25:09.024Z</time></trkpt><trkpt lat="46.3912914" lon="10.0775422"><ele>1650.75</ele><time>2026-04-11T13:25:10.024Z</time></trkpt><trkpt lat="46.391185" lon="10.0776953"><ele>1646.5</ele><time>2026-04-11T13:25:11.024Z</time></trkpt><trkpt lat="46.3910756" lon="10.0778444"><ele>1642.25</ele><time>2026-04-11T13:25:12.024Z</time></trkpt><trkpt lat="46.3909778" lon="10.0779953"><ele>1638.0</ele><time>2026-04-11T13:25:13.024Z</time></trkpt><trkpt lat="46.3908859" lon="10.0781529"><ele>1638.75</ele><time>2026-04-11T13:25:14.024Z</time></trkpt><trkpt lat="46.3907951" lon="10.0783036"><ele>1639.5</ele><time>2026-04-11T13:25:15.024Z</time></trkpt><trkpt lat="46.3907036" lon="10.0784534"><ele>1640.25</ele><time>2026-04-11T13:25:16.024Z</time></trkpt><trkpt lat="46.3906115" lon="10.0785984"><ele>1641.0</ele><time>2026-04-11T13:25:17.024Z</time></trkpt><trkpt lat="46.390507" lon="10.078724"><ele>1635.25</ele><time>2026-04-11T13:25:18.024Z</time></trkpt><trkpt lat="46.3903966" lon="10.0788334"><ele>1629.5</ele><time>2026-04-11T13:25:19.024Z</time></trkpt><trkpt lat="46.3902856" lon="10.0789315"><ele>1623.75</ele><time>2026-04-11T13:25:20.024Z</time></trkpt><trkpt lat="46.3901737" lon="10.0790304"><ele>1618.0</ele><time>2026-04-11T13:25:21.023Z</time></trkpt><trkpt lat="46.3900576" lon="10.0791397"><ele>1618.0</ele><time>2026-04-11T13:25:22.024Z</time></trkpt><trkpt lat="46.3899483" lon="10.0792517"><ele>1618.0</ele><time>2026-04-11T13:25:23.024Z</time></trkpt><trkpt lat="46.3898395" lon="10.0793661"><ele>1618.0</ele><time>2026-04-11T13:25:24.024Z</time></trkpt><trkpt lat="46.3897337" lon="10.0794911"><ele>1618.0</ele><time>2026-04-11T13:25:25.024Z</time></trkpt><trkpt lat="46.3896426" lon="10.0796206"><ele>1618.0</ele><time>2026-04-11T13:25:26.024Z</time></trkpt><trkpt lat="46.3895601" lon="10.0797657"><ele>1618.0</ele><time>2026-04-11T13:25:27.024Z</time></trkpt><trkpt lat="46.3894781" lon="10.0799098"><ele>1618.0</ele><time>2026-04-11T13:25:28.023Z</time></trkpt><trkpt lat="46.3893919" lon="10.0800336"><ele>1618.0</ele><time>2026-04-11T13:25:29.024Z</time></trkpt><trkpt lat="46.3892881" lon="10.0801248"><ele>1618.0</ele><time>2026-04-11T13:25:30.024Z</time></trkpt><trkpt lat="46.3891691" lon="10.0801805"><ele>1618.0</ele><time>2026-04-11T13:25:31.024Z</time></trkpt><trkpt lat="46.3890393" lon="10.0802107"><ele>1618.0</ele><time>2026-04-11T13:25:32.024Z</time></trkpt><trkpt lat="46.3889059" lon="10.080215"><ele>1618.0</ele><time>2026-04-11T13:25:33.024Z</time></trkpt><trkpt lat="46.388766" lon="10.0802128"><ele>1616.25</ele><time>2026-04-11T13:25:34.024Z</time></trkpt><trkpt lat="46.3886247" lon="10.0802046"><ele>1614.5</ele><time>2026-04-11T13:25:35.024Z</time></trkpt><trkpt lat="46.3884776" lon="10.0801945"><ele>1612.75</ele><time>2026-04-11T13:25:36.024Z</time></trkpt><trkpt lat="46.388332" lon="10.0801782"><ele>1611.0</ele><time>2026-04-11T13:25:37.024Z</time></trkpt><trkpt lat="46.3881895" lon="10.0801571"><ele>1611.0</ele><time>2026-04-11T13:25:38.024Z</time></trkpt><trkpt lat="46.3880485" lon="10.0801368"><ele>1611.0</ele><time>2026-04-11T13:25:39.024Z</time></trkpt><trkpt lat="46.3879017" lon="10.0801156"><ele>1611.0</ele><time>2026-04-11T13:25:40.024Z</time></trkpt><trkpt lat="46.3877476" lon="10.0800892"><ele>1611.0</ele><time>2026-04-11T13:25:41.024Z</time></trkpt><trkpt lat="46.3875992" lon="10.0800493"><ele>1609.6666666666665</ele><time>2026-04-11T13:25:42.024Z</time></trkpt><trkpt lat="46.3874536" lon="10.0799853"><ele>1608.3333333333333</ele><time>2026-04-11T13:25:43.024Z</time></trkpt><trkpt lat="46.3873134" lon="10.0799105"><ele>1607.0</ele><time>2026-04-11T13:25:44.024Z</time></trkpt><trkpt lat="46.3871701" lon="10.0798451"><ele>1597.75</ele><time>2026-04-11T13:25:45.024Z</time></trkpt><trkpt lat="46.3870286" lon="10.0797944"><ele>1588.5</ele><time>2026-04-11T13:25:46.024Z</time></trkpt><trkpt lat="46.3868886" lon="10.0797588"><ele>1579.25</ele><time>2026-04-11T13:25:47.024Z</time></trkpt><trkpt lat="46.3867546" lon="10.0797424"><ele>1570.0</ele><time>2026-04-11T13:25:48.024Z</time></trkpt><trkpt lat="46.386621" lon="10.0797282"><ele>1570.0</ele><time>2026-04-11T13:25:49.024Z</time></trkpt><trkpt lat="46.3864841" lon="10.0797202"><ele>1570.0</ele><time>2026-04-11T13:25:50.024Z</time></trkpt><trkpt lat="46.3863468" lon="10.0797085"><ele>1570.0</ele><time>2026-04-11T13:25:51.024Z</time></trkpt><trkpt lat="46.3862106" lon="10.0797017"><ele>1570.0</ele><time>2026-04-11T13:25:52.024Z</time></trkpt><trkpt lat="46.3860758" lon="10.0797148"><ele>1568.5</ele><time>2026-04-11T13:25:53.024Z</time></trkpt><trkpt lat="46.3859467" lon="10.0797629"><ele>1567.0</ele><time>2026-04-11T13:25:54.024Z</time></trkpt><trkpt lat="46.3858323" lon="10.0798352"><ele>1565.5</ele><time>2026-04-11T13:25:55.024Z</time></trkpt><trkpt lat="46.3857396" lon="10.0799223"><ele>1564.0</ele><time>2026-04-11T13:25:56.024Z</time></trkpt><trkpt lat="46.3856474" lon="10.0799872"><ele>1567.0000000000002</ele><time>2026-04-11T13:25:57.024Z</time></trkpt><trkpt lat="46.3855568" lon="10.080014"><ele>1570.0</ele><time>2026-04-11T13:25:58.024Z</time></trkpt><trkpt lat="46.3854663" lon="10.0799799"><ele>1573.0</ele><time>2026-04-11T13:25:59.024Z</time></trkpt><trkpt lat="46.3854037" lon="10.0799374"><ele>1576.0</ele><time>2026-04-11T13:26:00.024Z</time></trkpt><trkpt lat="46.3853471" lon="10.0798826"><ele>1579.0000000000002</ele><time>2026-04-11T13:26:01.024Z</time></trkpt><trkpt lat="46.3852967" lon="10.079825"><ele>1582.0</ele><time>2026-04-11T13:26:02.024Z</time></trkpt><trkpt lat="46.3851885" lon="10.0796996"><ele>1582.0</ele><time>2026-04-11T13:26:04.024Z</time></trkpt><trkpt lat="46.3851318" lon="10.0796105"><ele>1582.0</ele><time>2026-04-11T13:26:05.024Z</time></trkpt><trkpt lat="46.3850635" lon="10.0794931"><ele>1582.0</ele><time>2026-04-11T13:26:06.024Z</time></trkpt><trkpt lat="46.3850033" lon="10.07935"><ele>1582.0</ele><time>2026-04-11T13:26:07.024Z</time></trkpt><trkpt lat="46.3849642" lon="10.0791786"><ele>1582.0</ele><time>2026-04-11T13:26:08.024Z</time></trkpt><trkpt lat="46.3849283" lon="10.0790235"><ele>1579.1999999999998</ele><time>2026-04-11T13:26:09.023Z</time></trkpt><trkpt lat="46.3848926" lon="10.0788683"><ele>1576.4</ele><time>2026-04-11T13:26:10.024Z</time></trkpt><trkpt lat="46.384856" lon="10.0787049"><ele>1573.6</ele><time>2026-04-11T13:26:11.024Z</time></trkpt><trkpt lat="46.3848149" lon="10.0785532"><ele>1570.8000000000002</ele><time>2026-04-11T13:26:12.024Z</time></trkpt><trkpt lat="46.3847804" lon="10.0784203"><ele>1568.0</ele><time>2026-04-11T13:26:13.024Z</time></trkpt><trkpt lat="46.3847384" lon="10.0783046"><ele>1569.2</ele><time>2026-04-11T13:26:14.024Z</time></trkpt><trkpt lat="46.3846951" lon="10.0781975"><ele>1570.4</ele><time>2026-04-11T13:26:15.024Z</time></trkpt><trkpt lat="46.3846473" lon="10.0781113"><ele>1571.6000000000001</ele><time>2026-04-11T13:26:16.023Z</time></trkpt><trkpt lat="46.3846052" lon="10.0780296"><ele>1572.8000000000002</ele><time>2026-04-11T13:26:17.023Z</time></trkpt><trkpt lat="46.3845297" lon="10.0779141"><ele>1574.0</ele><time>2026-04-11T13:26:19.023Z</time></trkpt><trkpt lat="46.3844441" lon="10.0778022"><ele>1573.9999999999998</ele><time>2026-04-11T13:26:21.023Z</time></trkpt><trkpt lat="46.3843782" lon="10.0777247"><ele>1574.0</ele><time>2026-04-11T13:26:22.023Z</time></trkpt><trkpt lat="46.3843183" lon="10.0776311"><ele>1574.0</ele><time>2026-04-11T13:26:23.022Z</time></trkpt><trkpt lat="46.3842689" lon="10.0775193"><ele>1574.0</ele><time>2026-04-11T13:26:24.023Z</time></trkpt><trkpt lat="46.3842358" lon="10.0773878"><ele>1573.9999999999998</ele><time>2026-04-11T13:26:25.023Z</time></trkpt><trkpt lat="46.3842163" lon="10.0772629"><ele>1574.0</ele><time>2026-04-11T13:26:26.023Z</time></trkpt><trkpt lat="46.3842155" lon="10.0771417"><ele>1570.9999999999998</ele><time>2026-04-11T13:26:27.023Z</time></trkpt><trkpt lat="46.3842308" lon="10.0770418"><ele>1568.0</ele><time>2026-04-11T13:26:28.023Z</time></trkpt><trkpt lat="46.3842448" lon="10.0769445"><ele>1565.0</ele><time>2026-04-11T13:26:29.023Z</time></trkpt><trkpt lat="46.3842672" lon="10.0768424"><ele>1562.0</ele><time>2026-04-11T13:26:30.023Z</time></trkpt><trkpt lat="46.3842965" lon="10.0767397"><ele>1558.9999999999998</ele><time>2026-04-11T13:26:31.023Z</time></trkpt><trkpt lat="46.3843233" lon="10.0766315"><ele>1556.0</ele><time>2026-04-11T13:26:32.023Z</time></trkpt><trkpt lat="46.3843523" lon="10.0765175"><ele>1555.8333333333333</ele><time>2026-04-11T13:26:33.023Z</time></trkpt><trkpt lat="46.3843809" lon="10.0763987"><ele>1555.6666666666665</ele><time>2026-04-11T13:26:34.023Z</time></trkpt><trkpt lat="46.3844029" lon="10.0762926"><ele>1555.5</ele><time>2026-04-11T13:26:35.023Z</time></trkpt><trkpt lat="46.3844108" lon="10.0761954"><ele>1555.3333333333335</ele><time>2026-04-11T13:26:36.023Z</time></trkpt><trkpt lat="46.384401" lon="10.0760122"><ele>1555.1666666666667</ele><time>2026-04-11T13:26:38.023Z</time></trkpt><trkpt lat="46.3843689" lon="10.0759104"><ele>1555.0</ele><time>2026-04-11T13:26:39.022Z</time></trkpt><trkpt lat="46.3843276" lon="10.0757968"><ele>1553.3333333333335</ele><time>2026-04-11T13:26:40.023Z</time></trkpt><trkpt lat="46.3842831" lon="10.0756807"><ele>1551.6666666666667</ele><time>2026-04-11T13:26:41.023Z</time></trkpt><trkpt lat="46.3842465" lon="10.0755691"><ele>1550.0</ele><time>2026-04-11T13:26:42.023Z</time></trkpt><trkpt lat="46.3842069" lon="10.0754711"><ele>1548.3333333333335</ele><time>2026-04-11T13:26:43.023Z</time></trkpt><trkpt lat="46.3841727" lon="10.0753689"><ele>1546.6666666666667</ele><time>2026-04-11T13:26:44.023Z</time></trkpt><trkpt lat="46.3841344" lon="10.075261"><ele>1545.0</ele><time>2026-04-11T13:26:45.023Z</time></trkpt><trkpt lat="46.3840911" lon="10.0751444"><ele>1545.0</ele><time>2026-04-11T13:26:46.023Z</time></trkpt><trkpt lat="46.3840432" lon="10.0750166"><ele>1545.0</ele><time>2026-04-11T13:26:47.023Z</time></trkpt><trkpt lat="46.3839971" lon="10.0748821"><ele>1545.0</ele><time>2026-04-11T13:26:48.023Z</time></trkpt><trkpt lat="46.383951" lon="10.0747618"><ele>1545.0</ele><time>2026-04-11T13:26:49.022Z</time></trkpt><trkpt lat="46.3838966" lon="10.0746455"><ele>1545.0</ele><time>2026-04-11T13:26:50.023Z</time></trkpt><trkpt lat="46.3838371" lon="10.0745366"><ele>1545.75</ele><time>2026-04-11T13:26:51.023Z</time></trkpt><trkpt lat="46.3837644" lon="10.0744432"><ele>1546.5</ele><time>2026-04-11T13:26:52.023Z</time></trkpt><trkpt lat="46.3836736" lon="10.0743494"><ele>1547.25</ele><time>2026-04-11T13:26:53.023Z</time></trkpt><trkpt lat="46.3835702" lon="10.0742657"><ele>1548.0</ele><time>2026-04-11T13:26:54.023Z</time></trkpt><trkpt lat="46.3834555" lon="10.0741805"><ele>1539.25</ele><time>2026-04-11T13:26:55.023Z</time></trkpt><trkpt lat="46.3833244" lon="10.0741031"><ele>1530.5</ele><time>2026-04-11T13:26:56.023Z</time></trkpt><trkpt lat="46.3831842" lon="10.0740209"><ele>1521.75</ele><time>2026-04-11T13:26:57.023Z</time></trkpt><trkpt lat="46.3830424" lon="10.0739489"><ele>1513.0</ele><time>2026-04-11T13:26:58.023Z</time></trkpt><trkpt lat="46.3828988" lon="10.0738846"><ele>1513.0</ele><time>2026-04-11T13:26:59.023Z</time></trkpt><trkpt lat="46.3827591" lon="10.0738495"><ele>1513.0</ele><time>2026-04-11T13:27:00.023Z</time></trkpt><trkpt lat="46.3826205" lon="10.0738456"><ele>1513.0</ele><time>2026-04-11T13:27:01.023Z</time></trkpt><trkpt lat="46.3824783" lon="10.0738881"><ele>1513.0</ele><time>2026-04-11T13:27:02.023Z</time></trkpt><trkpt lat="46.3823371" lon="10.0739482"><ele>1513.0</ele><time>2026-04-11T13:27:03.023Z</time></trkpt><trkpt lat="46.3822058" lon="10.0740073"><ele>1513.0</ele><time>2026-04-11T13:27:04.023Z</time></trkpt><trkpt lat="46.3820752" lon="10.0740439"><ele>1513.0</ele><time>2026-04-11T13:27:05.023Z</time></trkpt><trkpt lat="46.3819359" lon="10.0740596"><ele>1513.0</ele><time>2026-04-11T13:27:06.023Z</time></trkpt><trkpt lat="46.3817999" lon="10.0740759"><ele>1516.5</ele><time>2026-04-11T13:27:07.022Z</time></trkpt><trkpt lat="46.38167" lon="10.0740961"><ele>1520.0</ele><time>2026-04-11T13:27:08.023Z</time></trkpt><trkpt lat="46.3815391" lon="10.0741051"><ele>1523.5</ele><time>2026-04-11T13:27:09.023Z</time></trkpt><trkpt lat="46.3813847" lon="10.0740969"><ele>1527.0</ele><time>2026-04-11T13:27:10.022Z</time></trkpt><trkpt lat="46.3812099" lon="10.0740505"><ele>1516.6666666666667</ele><time>2026-04-11T13:27:11.023Z</time></trkpt><trkpt lat="46.3810288" lon="10.0739784"><ele>1506.3333333333335</ele><time>2026-04-11T13:27:12.023Z</time></trkpt><trkpt lat="46.3808246" lon="10.0738641"><ele>1496.0</ele><time>2026-04-11T13:27:13.023Z</time></trkpt><trkpt lat="46.3806071" lon="10.0737355"><ele>1504.6666666666667</ele><time>2026-04-11T13:27:14.023Z</time></trkpt><trkpt lat="46.3804009" lon="10.0736022"><ele>1513.3333333333333</ele><time>2026-04-11T13:27:15.023Z</time></trkpt><trkpt lat="46.3802029" lon="10.0734659"><ele>1522.0</ele><time>2026-04-11T13:27:16.023Z</time></trkpt><trkpt lat="46.3800232" lon="10.0733253"><ele>1523.0</ele><time>2026-04-11T13:27:17.023Z</time></trkpt><trkpt lat="46.3798681" lon="10.0731877"><ele>1524.0</ele><time>2026-04-11T13:27:18.023Z</time></trkpt><trkpt lat="46.3797254" lon="10.073043"><ele>1525.0</ele><time>2026-04-11T13:27:19.023Z</time></trkpt><trkpt lat="46.3795981" lon="10.0728656"><ele>1525.0</ele><time>2026-04-11T13:27:20.023Z</time></trkpt><trkpt lat="46.3794911" lon="10.0726785"><ele>1525.0</ele><time>2026-04-11T13:27:21.023Z</time></trkpt><trkpt lat="46.379408" lon="10.0724971"><ele>1525.0</ele><time>2026-04-11T13:27:22.022Z</time></trkpt><trkpt lat="46.3793439" lon="10.0723433"><ele>1525.0</ele><time>2026-04-11T13:27:23.023Z</time></trkpt><trkpt lat="46.3792881" lon="10.0721999"><ele>1518.8</ele><time>2026-04-11T13:27:24.023Z</time></trkpt><trkpt lat="46.3792387" lon="10.0720566"><ele>1512.6</ele><time>2026-04-11T13:27:25.023Z</time></trkpt><trkpt lat="46.3791969" lon="10.0719217"><ele>1506.4</ele><time>2026-04-11T13:27:26.023Z</time></trkpt><trkpt lat="46.379155" lon="10.0717899"><ele>1500.2</ele><time>2026-04-11T13:27:27.023Z</time></trkpt><trkpt lat="46.3790964" lon="10.071672"><ele>1494.0</ele><time>2026-04-11T13:27:28.023Z</time></trkpt><trkpt lat="46.3790209" lon="10.0715477"><ele>1492.6</ele><time>2026-04-11T13:27:29.023Z</time></trkpt><trkpt lat="46.3789266" lon="10.0714481"><ele>1491.2</ele><time>2026-04-11T13:27:30.023Z</time></trkpt><trkpt lat="46.378831" lon="10.0713594"><ele>1489.8</ele><time>2026-04-11T13:27:31.023Z</time></trkpt><trkpt lat="46.378743" lon="10.0712732"><ele>1488.3999999999999</ele><time>2026-04-11T13:27:32.023Z</time></trkpt><trkpt lat="46.3786645" lon="10.0711915"><ele>1487.0</ele><time>2026-04-11T13:27:33.023Z</time></trkpt><trkpt lat="46.378599" lon="10.0711059"><ele>1487.0</ele><time>2026-04-11T13:27:34.023Z</time></trkpt><trkpt lat="46.3785387" lon="10.071018"><ele>1487.0</ele><time>2026-04-11T13:27:35.022Z</time></trkpt><trkpt lat="46.3784757" lon="10.0709423"><ele>1487.0</ele><time>2026-04-11T13:27:36.023Z</time></trkpt><trkpt lat="46.3783988" lon="10.0708771"><ele>1487.0</ele><time>2026-04-11T13:27:37.023Z</time></trkpt><trkpt lat="46.3783097" lon="10.0708318"><ele>1487.0</ele><time>2026-04-11T13:27:38.023Z</time></trkpt><trkpt lat="46.3782101" lon="10.0708065"><ele>1487.0</ele><time>2026-04-11T13:27:39.023Z</time></trkpt><trkpt lat="46.3781063" lon="10.0707857"><ele>1487.0</ele><time>2026-04-11T13:27:40.023Z</time></trkpt><trkpt lat="46.3780105" lon="10.0707481"><ele>1487.0</ele><time>2026-04-11T13:27:41.023Z</time></trkpt><trkpt lat="46.3779233" lon="10.0706785"><ele>1487.0</ele><time>2026-04-11T13:27:42.022Z</time></trkpt><trkpt lat="46.3778586" lon="10.0705689"><ele>1487.0</ele><time>2026-04-11T13:27:43.023Z</time></trkpt><trkpt lat="46.3778065" lon="10.0704202"><ele>1485.6</ele><time>2026-04-11T13:27:44.023Z</time></trkpt><trkpt lat="46.3777623" lon="10.0702776"><ele>1484.1999999999998</ele><time>2026-04-11T13:27:45.022Z</time></trkpt><trkpt lat="46.3777276" lon="10.0701257"><ele>1482.8</ele><time>2026-04-11T13:27:46.023Z</time></trkpt><trkpt lat="46.3776778" lon="10.0699936"><ele>1481.4</ele><time>2026-04-11T13:27:47.023Z</time></trkpt><trkpt lat="46.3776082" lon="10.0698834"><ele>1480.0</ele><time>2026-04-11T13:27:48.022Z</time></trkpt><trkpt lat="46.3775107" lon="10.0697864"><ele>1478.0</ele><time>2026-04-11T13:27:49.023Z</time></trkpt><trkpt lat="46.3773903" lon="10.0697055"><ele>1476.0</ele><time>2026-04-11T13:27:50.023Z</time></trkpt><trkpt lat="46.3772733" lon="10.0696461"><ele>1474.0</ele><time>2026-04-11T13:27:51.023Z</time></trkpt><trkpt lat="46.3771435" lon="10.0696042"><ele>1472.0</ele><time>2026-04-11T13:27:52.022Z</time></trkpt><trkpt lat="46.3769991" lon="10.0695202"><ele>1472.0</ele><time>2026-04-11T13:27:53.023Z</time></trkpt><trkpt lat="46.3768636" lon="10.0693902"><ele>1472.0</ele><time>2026-04-11T13:27:54.023Z</time></trkpt><trkpt lat="46.3767248" lon="10.0692198"><ele>1472.0</ele><time>2026-04-11T13:27:55.023Z</time></trkpt><trkpt lat="46.3765896" lon="10.0690499"><ele>1465.0</ele><time>2026-04-11T13:27:56.022Z</time></trkpt><trkpt lat="46.376445" lon="10.06891"><ele>1458.0</ele><time>2026-04-11T13:27:57.023Z</time></trkpt><trkpt lat="46.3762805" lon="10.0687835"><ele>1451.0</ele><time>2026-04-11T13:27:58.023Z</time></trkpt><trkpt lat="46.3761075" lon="10.0686722"><ele>1451.0</ele><time>2026-04-11T13:27:59.023Z</time></trkpt><trkpt lat="46.3759271" lon="10.0685771"><ele>1451.0</ele><time>2026-04-11T13:28:00.022Z</time></trkpt><trkpt lat="46.3757298" lon="10.0684904"><ele>1451.0</ele><time>2026-04-11T13:28:01.023Z</time></trkpt><trkpt lat="46.3755413" lon="10.0684096"><ele>1452.3333333333335</ele><time>2026-04-11T13:28:02.022Z</time></trkpt><trkpt lat="46.3753545" lon="10.0683379"><ele>1453.6666666666667</ele><time>2026-04-11T13:28:03.023Z</time></trkpt><trkpt lat="46.3751756" lon="10.068274"><ele>1455.0</ele><time>2026-04-11T13:28:04.022Z</time></trkpt><trkpt lat="46.3750206" lon="10.0682294"><ele>1447.6666666666667</ele><time>2026-04-11T13:28:05.023Z</time></trkpt><trkpt lat="46.3748736" lon="10.0682002"><ele>1440.3333333333335</ele><time>2026-04-11T13:28:06.022Z</time></trkpt><trkpt lat="46.3747259" lon="10.0682206"><ele>1433.0</ele><time>2026-04-11T13:28:07.023Z</time></trkpt><trkpt lat="46.3745759" lon="10.0682942"><ele>1433.0</ele><time>2026-04-11T13:28:08.022Z</time></trkpt><trkpt lat="46.3744163" lon="10.0684245"><ele>1433.0</ele><time>2026-04-11T13:28:09.023Z</time></trkpt><trkpt lat="46.3742548" lon="10.0685672"><ele>1433.0</ele><time>2026-04-11T13:28:10.023Z</time></trkpt><trkpt lat="46.3740848" lon="10.0686806"><ele>1433.0</ele><time>2026-04-11T13:28:11.023Z</time></trkpt><trkpt lat="46.3738931" lon="10.0687495"><ele>1433.0</ele><time>2026-04-11T13:28:12.023Z</time></trkpt><trkpt lat="46.3736826" lon="10.0687821"><ele>1433.0</ele><time>2026-04-11T13:28:13.023Z</time></trkpt><trkpt lat="46.373473" lon="10.0688166"><ele>1422.5</ele><time>2026-04-11T13:28:14.023Z</time></trkpt><trkpt lat="46.3732464" lon="10.0688855"><ele>1412.0</ele><time>2026-04-11T13:28:15.023Z</time></trkpt><trkpt lat="46.3730336" lon="10.0689934"><ele>1415.5</ele><time>2026-04-11T13:28:16.022Z</time></trkpt><trkpt lat="46.3728062" lon="10.0691008"><ele>1419.0</ele><time>2026-04-11T13:28:17.023Z</time></trkpt><trkpt lat="46.3725731" lon="10.0692027"><ele>1419.0</ele><time>2026-04-11T13:28:18.023Z</time></trkpt><trkpt lat="46.3723337" lon="10.0693058"><ele>1419.0</ele><time>2026-04-11T13:28:19.023Z</time></trkpt><trkpt lat="46.3721026" lon="10.0694141"><ele>1411.0</ele><time>2026-04-11T13:28:20.023Z</time></trkpt><trkpt lat="46.3718845" lon="10.06952"><ele>1403.0</ele><time>2026-04-11T13:28:21.023Z</time></trkpt><trkpt lat="46.3716885" lon="10.0696284"><ele>1395.0</ele><time>2026-04-11T13:28:22.023Z</time></trkpt><trkpt lat="46.3715014" lon="10.069753"><ele>1396.0</ele><time>2026-04-11T13:28:23.023Z</time></trkpt><trkpt lat="46.3713299" lon="10.0699134"><ele>1397.0</ele><time>2026-04-11T13:28:24.023Z</time></trkpt><trkpt lat="46.371176" lon="10.0700983"><ele>1398.0</ele><time>2026-04-11T13:28:25.023Z</time></trkpt><trkpt lat="46.3710458" lon="10.0703063"><ele>1398.0</ele><time>2026-04-11T13:28:26.022Z</time></trkpt><trkpt lat="46.3709197" lon="10.0705093"><ele>1398.0</ele><time>2026-04-11T13:28:27.023Z</time></trkpt><trkpt lat="46.3707835" lon="10.0706847"><ele>1398.0</ele><time>2026-04-11T13:28:28.023Z</time></trkpt><trkpt lat="46.3706329" lon="10.070836"><ele>1396.6666666666667</ele><time>2026-04-11T13:28:29.023Z</time></trkpt><trkpt lat="46.3704368" lon="10.070941"><ele>1395.3333333333335</ele><time>2026-04-11T13:28:30.022Z</time></trkpt><trkpt lat="46.3702259" lon="10.0710401"><ele>1394.0</ele><time>2026-04-11T13:28:31.023Z</time></trkpt><trkpt lat="46.370017" lon="10.071142"><ele>1394.0</ele><time>2026-04-11T13:28:32.023Z</time></trkpt><trkpt lat="46.3698261" lon="10.0712501"><ele>1394.0</ele><time>2026-04-11T13:28:33.023Z</time></trkpt><trkpt lat="46.3696537" lon="10.071352"><ele>1394.0</ele><time>2026-04-11T13:28:34.023Z</time></trkpt><trkpt lat="46.3695007" lon="10.0714578"><ele>1392.6666666666667</ele><time>2026-04-11T13:28:35.023Z</time></trkpt><trkpt lat="46.36935" lon="10.0716002"><ele>1391.3333333333333</ele><time>2026-04-11T13:28:36.023Z</time></trkpt><trkpt lat="46.3692035" lon="10.0717793"><ele>1390.0</ele><time>2026-04-11T13:28:37.023Z</time></trkpt><trkpt lat="46.3690567" lon="10.0719847"><ele>1390.0</ele><time>2026-04-11T13:28:38.023Z</time></trkpt><trkpt lat="46.368917" lon="10.0721999"><ele>1390.0</ele><time>2026-04-11T13:28:39.023Z</time></trkpt><trkpt lat="46.3687746" lon="10.0723812"><ele>1390.0</ele><time>2026-04-11T13:28:40.023Z</time></trkpt><trkpt lat="46.368617" lon="10.0725086"><ele>1383.3333333333333</ele><time>2026-04-11T13:28:41.023Z</time></trkpt><trkpt lat="46.3684688" lon="10.0726139"><ele>1376.6666666666667</ele><time>2026-04-11T13:28:42.023Z</time></trkpt><trkpt lat="46.3683472" lon="10.0727451"><ele>1370.0</ele><time>2026-04-11T13:28:43.023Z</time></trkpt><trkpt lat="46.3682318" lon="10.072928"><ele>1370.0</ele><time>2026-04-11T13:28:44.023Z</time></trkpt><trkpt lat="46.3681421" lon="10.0731479"><ele>1370.0</ele><time>2026-04-11T13:28:45.023Z</time></trkpt><trkpt lat="46.3680536" lon="10.0733773"><ele>1370.0</ele><time>2026-04-11T13:28:46.023Z</time></trkpt><trkpt lat="46.3679507" lon="10.0736045"><ele>1366.3333333333335</ele><time>2026-04-11T13:28:47.023Z</time></trkpt><trkpt lat="46.3678276" lon="10.0738048"><ele>1362.6666666666667</ele><time>2026-04-11T13:28:48.023Z</time></trkpt><trkpt lat="46.3676815" lon="10.0739818"><ele>1359.0</ele><time>2026-04-11T13:28:49.023Z</time></trkpt><trkpt lat="46.3674987" lon="10.0741176"><ele>1357.5</ele><time>2026-04-11T13:28:50.023Z</time></trkpt><trkpt lat="46.367289" lon="10.0742254"><ele>1356.0</ele><time>2026-04-11T13:28:51.023Z</time></trkpt><trkpt lat="46.3670628" lon="10.0743082"><ele>1356.0</ele><time>2026-04-11T13:28:52.023Z</time></trkpt><trkpt lat="46.3668395" lon="10.0744187"><ele>1356.0</ele><time>2026-04-11T13:28:53.023Z</time></trkpt><trkpt lat="46.3666284" lon="10.0745625"><ele>1356.0</ele><time>2026-04-11T13:28:54.023Z</time></trkpt><trkpt lat="46.3664119" lon="10.0747546"><ele>1356.0</ele><time>2026-04-11T13:28:55.023Z</time></trkpt><trkpt lat="46.3662004" lon="10.0749545"><ele>1352.0</ele><time>2026-04-11T13:28:56.023Z</time></trkpt><trkpt lat="46.3659936" lon="10.0751222"><ele>1348.0</ele><time>2026-04-11T13:28:57.022Z</time></trkpt><trkpt lat="46.3657737" lon="10.0752445"><ele>1348.0</ele><time>2026-04-11T13:28:58.023Z</time></trkpt><trkpt lat="46.3655506" lon="10.0753575"><ele>1348.0</ele><time>2026-04-11T13:28:59.023Z</time></trkpt><trkpt lat="46.3653349" lon="10.075487"><ele>1350.0</ele><time>2026-04-11T13:29:00.023Z</time></trkpt><trkpt lat="46.3651346" lon="10.0756486"><ele>1352.0</ele><time>2026-04-11T13:29:01.023Z</time></trkpt><trkpt lat="46.36495" lon="10.0758246"><ele>1352.0</ele><time>2026-04-11T13:29:02.023Z</time></trkpt><trkpt lat="46.3647614" lon="10.0759704"><ele>1352.0</ele><time>2026-04-11T13:29:03.023Z</time></trkpt><trkpt lat="46.3645511" lon="10.0760817"><ele>1352.0</ele><time>2026-04-11T13:29:04.023Z</time></trkpt><trkpt lat="46.3643227" lon="10.0761785"><ele>1338.5</ele><time>2026-04-11T13:29:05.023Z</time></trkpt><trkpt lat="46.3640817" lon="10.0762815"><ele>1325.0</ele><time>2026-04-11T13:29:06.023Z</time></trkpt><trkpt lat="46.3638428" lon="10.0764043"><ele>1330.0</ele><time>2026-04-11T13:29:07.023Z</time></trkpt><trkpt lat="46.3635945" lon="10.0765258"><ele>1335.0</ele><time>2026-04-11T13:29:08.023Z</time></trkpt><trkpt lat="46.3633441" lon="10.0766503"><ele>1335.0</ele><time>2026-04-11T13:29:09.023Z</time></trkpt><trkpt lat="46.3630959" lon="10.0767884"><ele>1335.0</ele><time>2026-04-11T13:29:10.023Z</time></trkpt><trkpt lat="46.3628502" lon="10.0769283"><ele>1318.0</ele><time>2026-04-11T13:29:11.023Z</time></trkpt><trkpt lat="46.3626213" lon="10.0770635"><ele>1301.0</ele><time>2026-04-11T13:29:12.023Z</time></trkpt><trkpt lat="46.3624067" lon="10.0771764"><ele>1301.0</ele><time>2026-04-11T13:29:13.023Z</time></trkpt><trkpt lat="46.3622088" lon="10.0772752"><ele>1301.0</ele><time>2026-04-11T13:29:14.023Z</time></trkpt><trkpt lat="46.362022" lon="10.077352"><ele>1301.0</ele><time>2026-04-11T13:29:15.023Z</time></trkpt><trkpt lat="46.3618419" lon="10.0774227"><ele>1302.6666666666667</ele><time>2026-04-11T13:29:16.023Z</time></trkpt><trkpt lat="46.36167" lon="10.0775053"><ele>1304.3333333333333</ele><time>2026-04-11T13:29:17.023Z</time></trkpt><trkpt lat="46.3615035" lon="10.0776059"><ele>1306.0</ele><time>2026-04-11T13:29:18.023Z</time></trkpt><trkpt lat="46.3613708" lon="10.0777394"><ele>1304.75</ele><time>2026-04-11T13:29:19.023Z</time></trkpt><trkpt lat="46.3612592" lon="10.0778918"><ele>1303.5</ele><time>2026-04-11T13:29:20.023Z</time></trkpt><trkpt lat="46.3611766" lon="10.0780552"><ele>1302.25</ele><time>2026-04-11T13:29:21.023Z</time></trkpt><trkpt lat="46.3610931" lon="10.0782073"><ele>1301.0</ele><time>2026-04-11T13:29:22.023Z</time></trkpt><trkpt lat="46.3609766" lon="10.0783204"><ele>1301.0</ele><time>2026-04-11T13:29:23.023Z</time></trkpt><trkpt lat="46.3608302" lon="10.078402"><ele>1301.0</ele><time>2026-04-11T13:29:24.022Z</time></trkpt><trkpt lat="46.3606452" lon="10.0784537"><ele>1301.0</ele><time>2026-04-11T13:29:25.023Z</time></trkpt><trkpt lat="46.3604527" lon="10.0784817"><ele>1296.0</ele><time>2026-04-11T13:29:26.023Z</time></trkpt><trkpt lat="46.3602597" lon="10.0784805"><ele>1291.0</ele><time>2026-04-11T13:29:27.023Z</time></trkpt><trkpt lat="46.3600922" lon="10.0784491"><ele>1286.0</ele><time>2026-04-11T13:29:28.023Z</time></trkpt><trkpt lat="46.3599317" lon="10.0784107"><ele>1286.0</ele><time>2026-04-11T13:29:29.023Z</time></trkpt><trkpt lat="46.3597813" lon="10.0784035"><ele>1286.0</ele><time>2026-04-11T13:29:30.022Z</time></trkpt><trkpt lat="46.3596281" lon="10.0784398"><ele>1286.0</ele><time>2026-04-11T13:29:31.023Z</time></trkpt><trkpt lat="46.3594763" lon="10.0784725"><ele>1284.0</ele><time>2026-04-11T13:29:32.023Z</time></trkpt><trkpt lat="46.3593261" lon="10.078484"><ele>1282.0</ele><time>2026-04-11T13:29:33.023Z</time></trkpt><trkpt lat="46.3591795" lon="10.0784875"><ele>1280.0</ele><time>2026-04-11T13:29:34.022Z</time></trkpt><trkpt lat="46.3590311" lon="10.0784974"><ele>1278.0</ele><time>2026-04-11T13:29:35.023Z</time></trkpt><trkpt lat="46.3588953" lon="10.0785098"><ele>1281.0</ele><time>2026-04-11T13:29:36.023Z</time></trkpt><trkpt lat="46.3587743" lon="10.0785046"><ele>1284.0</ele><time>2026-04-11T13:29:37.023Z</time></trkpt><trkpt lat="46.3586645" lon="10.0784981"><ele>1287.0</ele><time>2026-04-11T13:29:38.023Z</time></trkpt><trkpt lat="46.3585604" lon="10.078459"><ele>1290.0</ele><time>2026-04-11T13:29:39.022Z</time></trkpt><trkpt lat="46.35847" lon="10.0783686"><ele>1293.0</ele><time>2026-04-11T13:29:40.023Z</time></trkpt><trkpt lat="46.3583916" lon="10.0782455"><ele>1282.25</ele><time>2026-04-11T13:29:41.023Z</time></trkpt><trkpt lat="46.3583141" lon="10.0781072"><ele>1271.5</ele><time>2026-04-11T13:29:42.023Z</time></trkpt><trkpt lat="46.3582359" lon="10.0779734"><ele>1260.75</ele><time>2026-04-11T13:29:43.023Z</time></trkpt><trkpt lat="46.3581701" lon="10.0778431"><ele>1250.0</ele><time>2026-04-11T13:29:44.023Z</time></trkpt><trkpt lat="46.3580987" lon="10.0777382"><ele>1250.0</ele><time>2026-04-11T13:29:45.022Z</time></trkpt><trkpt lat="46.3580087" lon="10.0776694"><ele>1250.0</ele><time>2026-04-11T13:29:46.023Z</time></trkpt><trkpt lat="46.357908" lon="10.077638"><ele>1250.0</ele><time>2026-04-11T13:29:47.023Z</time></trkpt><trkpt lat="46.3578135" lon="10.0776445"><ele>1250.0</ele><time>2026-04-11T13:29:48.022Z</time></trkpt><trkpt lat="46.3577231" lon="10.0776663"><ele>1250.0</ele><time>2026-04-11T13:29:49.023Z</time></trkpt><trkpt lat="46.3576278" lon="10.0776878"><ele>1250.0</ele><time>2026-04-11T13:29:50.023Z</time></trkpt><trkpt lat="46.3575177" lon="10.0777033"><ele>1250.0</ele><time>2026-04-11T13:29:51.023Z</time></trkpt><trkpt lat="46.3573971" lon="10.0776988"><ele>1250.0</ele><time>2026-04-11T13:29:52.023Z</time></trkpt><trkpt lat="46.3572727" lon="10.0776657"><ele>1250.0</ele><time>2026-04-11T13:29:53.023Z</time></trkpt><trkpt lat="46.3571282" lon="10.0776106"><ele>1251.6666666666667</ele><time>2026-04-11T13:29:54.022Z</time></trkpt><trkpt lat="46.3569634" lon="10.0775782"><ele>1253.3333333333333</ele><time>2026-04-11T13:29:55.023Z</time></trkpt><trkpt lat="46.3567761" lon="10.077542"><ele>1255.0</ele><time>2026-04-11T13:29:56.023Z</time></trkpt><trkpt lat="46.3565749" lon="10.0774855"><ele>1247.0</ele><time>2026-04-11T13:29:57.023Z</time></trkpt><trkpt lat="46.3563799" lon="10.0774138"><ele>1239.0</ele><time>2026-04-11T13:29:58.022Z</time></trkpt><trkpt lat="46.3561895" lon="10.0773385"><ele>1231.0</ele><time>2026-04-11T13:29:59.023Z</time></trkpt><trkpt lat="46.3560102" lon="10.0772612"><ele>1231.0</ele><time>2026-04-11T13:30:00.023Z</time></trkpt><trkpt lat="46.3558349" lon="10.0771682"><ele>1231.0</ele><time>2026-04-11T13:30:01.023Z</time></trkpt><trkpt lat="46.3556729" lon="10.0770352"><ele>1231.0</ele><time>2026-04-11T13:30:02.023Z</time></trkpt><trkpt lat="46.3555116" lon="10.0768935"><ele>1225.6666666666665</ele><time>2026-04-11T13:30:03.023Z</time></trkpt><trkpt lat="46.3553565" lon="10.0767389"><ele>1220.3333333333333</ele><time>2026-04-11T13:30:04.023Z</time></trkpt><trkpt lat="46.3552117" lon="10.0765852"><ele>1215.0</ele><time>2026-04-11T13:30:05.023Z</time></trkpt><trkpt lat="46.3550719" lon="10.0764352"><ele>1215.0</ele><time>2026-04-11T13:30:06.023Z</time></trkpt><trkpt lat="46.3549262" lon="10.0763154"><ele>1215.0</ele><time>2026-04-11T13:30:07.022Z</time></trkpt><trkpt lat="46.354793" lon="10.0762082"><ele>1215.0</ele><time>2026-04-11T13:30:08.023Z</time></trkpt><trkpt lat="46.3546614" lon="10.076098"><ele>1210.5</ele><time>2026-04-11T13:30:09.023Z</time></trkpt><trkpt lat="46.3545298" lon="10.0759855"><ele>1206.0</ele><time>2026-04-11T13:30:10.023Z</time></trkpt><trkpt lat="46.3544049" lon="10.0758778"><ele>1201.5</ele><time>2026-04-11T13:30:11.023Z</time></trkpt><trkpt lat="46.3542778" lon="10.0757653"><ele>1197.0</ele><time>2026-04-11T13:30:12.023Z</time></trkpt><trkpt lat="46.3541491" lon="10.0756492"><ele>1197.0</ele><time>2026-04-11T13:30:13.023Z</time></trkpt><trkpt lat="46.3540175" lon="10.0755453"><ele>1197.0</ele><time>2026-04-11T13:30:14.023Z</time></trkpt><trkpt lat="46.3538851" lon="10.0754457"><ele>1197.0</ele><time>2026-04-11T13:30:15.022Z</time></trkpt><trkpt lat="46.3537471" lon="10.0753707"><ele>1197.0</ele><time>2026-04-11T13:30:16.023Z</time></trkpt><trkpt lat="46.3536028" lon="10.0753088"><ele>1201.0</ele><time>2026-04-11T13:30:17.022Z</time></trkpt><trkpt lat="46.3534562" lon="10.0752512"><ele>1205.0</ele><time>2026-04-11T13:30:18.023Z</time></trkpt><trkpt lat="46.3533264" lon="10.0751848"><ele>1209.0</ele><time>2026-04-11T13:30:19.023Z</time></trkpt><trkpt lat="46.3531876" lon="10.075118"><ele>1213.0</ele><time>2026-04-11T13:30:20.023Z</time></trkpt><trkpt lat="46.3530554" lon="10.0750372"><ele>1214.5</ele><time>2026-04-11T13:30:21.023Z</time></trkpt><trkpt lat="46.3529599" lon="10.0749425"><ele>1216.0</ele><time>2026-04-11T13:30:22.023Z</time></trkpt><trkpt lat="46.352886" lon="10.0748162"><ele>1217.5</ele><time>2026-04-11T13:30:23.023Z</time></trkpt><trkpt lat="46.3528284" lon="10.0746435"><ele>1219.0</ele><time>2026-04-11T13:30:24.023Z</time></trkpt><trkpt lat="46.3527816" lon="10.0744628"><ele>1219.0</ele><time>2026-04-11T13:30:25.023Z</time></trkpt><trkpt lat="46.352715" lon="10.0742468"><ele>1219.0</ele><time>2026-04-11T13:30:26.023Z</time></trkpt><trkpt lat="46.3526396" lon="10.0737735"><ele>1211.3333333333333</ele><time>2026-04-11T13:30:28.023Z</time></trkpt><trkpt lat="46.3526056" lon="10.0735058"><ele>1203.6666666666667</ele><time>2026-04-11T13:30:29.023Z</time></trkpt><trkpt lat="46.3525245" lon="10.073339"><ele>1196.0</ele><time>2026-04-11T13:30:30.023Z</time></trkpt><trkpt lat="46.3524257" lon="10.07319"><ele>1195.3333333333335</ele><time>2026-04-11T13:30:31.023Z</time></trkpt><trkpt lat="46.3522959" lon="10.0730885"><ele>1194.6666666666667</ele><time>2026-04-11T13:30:32.023Z</time></trkpt><trkpt lat="46.3521573" lon="10.0729994"><ele>1194.0</ele><time>2026-04-11T13:30:33.023Z</time></trkpt><trkpt lat="46.3520214" lon="10.072899"><ele>1194.0</ele><time>2026-04-11T13:30:34.023Z</time></trkpt><trkpt lat="46.3519023" lon="10.0727645"><ele>1194.0</ele><time>2026-04-11T13:30:35.023Z</time></trkpt><trkpt lat="46.3517898" lon="10.0726316"><ele>1194.0</ele><time>2026-04-11T13:30:36.023Z</time></trkpt><trkpt lat="46.3516888" lon="10.0725067"><ele>1194.0</ele><time>2026-04-11T13:30:37.023Z</time></trkpt><trkpt lat="46.351584" lon="10.0723901"><ele>1190.25</ele><time>2026-04-11T13:30:38.023Z</time></trkpt><trkpt lat="46.3515153" lon="10.0722546"><ele>1186.5</ele><time>2026-04-11T13:30:39.022Z</time></trkpt><trkpt lat="46.351486" lon="10.0720854"><ele>1182.75</ele><time>2026-04-11T13:30:40.023Z</time></trkpt><trkpt lat="46.351487" lon="10.071904"><ele>1179.0</ele><time>2026-04-11T13:30:41.023Z</time></trkpt><trkpt lat="46.3515024" lon="10.0717295"><ele>1180.5</ele><time>2026-04-11T13:30:42.023Z</time></trkpt><trkpt lat="46.3515002" lon="10.0715711"><ele>1182.0</ele><time>2026-04-11T13:30:43.023Z</time></trkpt><trkpt lat="46.3514549" lon="10.071411"><ele>1183.5</ele><time>2026-04-11T13:30:44.023Z</time></trkpt><trkpt lat="46.3513744" lon="10.0712407"><ele>1185.0</ele><time>2026-04-11T13:30:45.023Z</time></trkpt><trkpt lat="46.3512968" lon="10.0710367"><ele>1185.0</ele><time>2026-04-11T13:30:46.023Z</time></trkpt><trkpt lat="46.3512255" lon="10.0708355"><ele>1185.0</ele><time>2026-04-11T13:30:47.022Z</time></trkpt><trkpt lat="46.3511662" lon="10.0706408"><ele>1185.0</ele><time>2026-04-11T13:30:48.023Z</time></trkpt><trkpt lat="46.3510913" lon="10.0704662"><ele>1185.0</ele><time>2026-04-11T13:30:49.023Z</time></trkpt><trkpt lat="46.3510052" lon="10.0703005"><ele>1180.0</ele><time>2026-04-11T13:30:50.023Z</time></trkpt><trkpt lat="46.350903" lon="10.0701508"><ele>1175.0</ele><time>2026-04-11T13:30:51.023Z</time></trkpt><trkpt lat="46.3507997" lon="10.07003"><ele>1170.0</ele><time>2026-04-11T13:30:52.023Z</time></trkpt><trkpt lat="46.3506872" lon="10.0699181"><ele>1165.0</ele><time>2026-04-11T13:30:53.023Z</time></trkpt><trkpt lat="46.3505646" lon="10.0698268"><ele>1162.6666666666665</ele><time>2026-04-11T13:30:54.023Z</time></trkpt><trkpt lat="46.3504247" lon="10.0697593"><ele>1160.3333333333333</ele><time>2026-04-11T13:30:55.023Z</time></trkpt><trkpt lat="46.3502839" lon="10.0696913"><ele>1158.0</ele><time>2026-04-11T13:30:56.023Z</time></trkpt><trkpt lat="46.3501514" lon="10.0695712"><ele>1158.0</ele><time>2026-04-11T13:30:57.023Z</time></trkpt><trkpt lat="46.3500438" lon="10.069423"><ele>1158.0</ele><time>2026-04-11T13:30:58.023Z</time></trkpt><trkpt lat="46.3499474" lon="10.0692452"><ele>1158.0</ele><time>2026-04-11T13:30:59.023Z</time></trkpt><trkpt lat="46.3498604" lon="10.0690416"><ele>1156.3333333333333</ele><time>2026-04-11T13:31:00.023Z</time></trkpt><trkpt lat="46.349765" lon="10.0688452"><ele>1154.6666666666665</ele><time>2026-04-11T13:31:01.023Z</time></trkpt><trkpt lat="46.3496579" lon="10.068695"><ele>1153.0</ele><time>2026-04-11T13:31:02.023Z</time></trkpt><trkpt lat="46.3495239" lon="10.0685819"><ele>1153.0</ele><time>2026-04-11T13:31:03.023Z</time></trkpt><trkpt lat="46.3493728" lon="10.0684822"><ele>1153.0</ele><time>2026-04-11T13:31:04.023Z</time></trkpt><trkpt lat="46.3492216" lon="10.0683867"><ele>1153.0</ele><time>2026-04-11T13:31:05.023Z</time></trkpt><trkpt lat="46.3490736" lon="10.0682831"><ele>1143.3333333333333</ele><time>2026-04-11T13:31:06.023Z</time></trkpt><trkpt lat="46.3489213" lon="10.0682058"><ele>1133.6666666666667</ele><time>2026-04-11T13:31:07.023Z</time></trkpt><trkpt lat="46.3487774" lon="10.0681407"><ele>1124.0</ele><time>2026-04-11T13:31:08.023Z</time></trkpt><trkpt lat="46.3486388" lon="10.0680999"><ele>1124.0</ele><time>2026-04-11T13:31:09.023Z</time></trkpt><trkpt lat="46.3485073" lon="10.0680631"><ele>1124.0</ele><time>2026-04-11T13:31:10.023Z</time></trkpt><trkpt lat="46.3483825" lon="10.0680512"><ele>1124.0</ele><time>2026-04-11T13:31:11.023Z</time></trkpt><trkpt lat="46.3482634" lon="10.0680501"><ele>1124.0</ele><time>2026-04-11T13:31:12.023Z</time></trkpt><trkpt lat="46.3481481" lon="10.068067"><ele>1125.0</ele><time>2026-04-11T13:31:13.023Z</time></trkpt><trkpt lat="46.348032" lon="10.0680784"><ele>1126.0</ele><time>2026-04-11T13:31:14.023Z</time></trkpt><trkpt lat="46.3479109" lon="10.0680642"><ele>1127.0</ele><time>2026-04-11T13:31:15.023Z</time></trkpt><trkpt lat="46.3477867" lon="10.0680227"><ele>1128.0</ele><time>2026-04-11T13:31:16.023Z</time></trkpt><trkpt lat="46.3476602" lon="10.0679691"><ele>1128.0</ele><time>2026-04-11T13:31:17.022Z</time></trkpt><trkpt lat="46.3475178" lon="10.0678859"><ele>1128.0</ele><time>2026-04-11T13:31:18.023Z</time></trkpt><trkpt lat="46.3473517" lon="10.0677907"><ele>1128.0</ele><time>2026-04-11T13:31:19.023Z</time></trkpt><trkpt lat="46.3471523" lon="10.0676673"><ele>1131.0</ele><time>2026-04-11T13:31:20.023Z</time></trkpt><trkpt lat="46.3469416" lon="10.0675344"><ele>1134.0</ele><time>2026-04-11T13:31:21.023Z</time></trkpt><trkpt lat="46.3467427" lon="10.067405"><ele>1137.0</ele><time>2026-04-11T13:31:22.022Z</time></trkpt><trkpt lat="46.34656" lon="10.0672923"><ele>1134.6666666666667</ele><time>2026-04-11T13:31:23.023Z</time></trkpt><trkpt lat="46.3463801" lon="10.067184"><ele>1132.3333333333335</ele><time>2026-04-11T13:31:24.023Z</time></trkpt><trkpt lat="46.3462133" lon="10.0670789"><ele>1130.0</ele><time>2026-04-11T13:31:25.023Z</time></trkpt><trkpt lat="46.3460621" lon="10.0669606"><ele>1130.0</ele><time>2026-04-11T13:31:26.023Z</time></trkpt><trkpt lat="46.3459158" lon="10.0668292"><ele>1130.0</ele><time>2026-04-11T13:31:27.023Z</time></trkpt><trkpt lat="46.3457749" lon="10.0666876"><ele>1130.0</ele><time>2026-04-11T13:31:28.023Z</time></trkpt><trkpt lat="46.3456357" lon="10.0665314"><ele>1129.0</ele><time>2026-04-11T13:31:29.022Z</time></trkpt><trkpt lat="46.3455118" lon="10.0663904"><ele>1128.0</ele><time>2026-04-11T13:31:30.023Z</time></trkpt><trkpt lat="46.3454086" lon="10.0662484"><ele>1127.0</ele><time>2026-04-11T13:31:31.023Z</time></trkpt><trkpt lat="46.3453239" lon="10.0660923"><ele>1126.0</ele><time>2026-04-11T13:31:32.023Z</time></trkpt><trkpt lat="46.3452651" lon="10.0659435"><ele>1126.0</ele><time>2026-04-11T13:31:33.023Z</time></trkpt><trkpt lat="46.3451926" lon="10.0658135"><ele>1126.0</ele><time>2026-04-11T13:31:34.022Z</time></trkpt><trkpt lat="46.3450932" lon="10.0657027"><ele>1126.0</ele><time>2026-04-11T13:31:35.023Z</time></trkpt><trkpt lat="46.3449788" lon="10.0656151"><ele>1126.0</ele><time>2026-04-11T13:31:36.023Z</time></trkpt><trkpt lat="46.3448463" lon="10.0655414"><ele>1124.25</ele><time>2026-04-11T13:31:37.023Z</time></trkpt><trkpt lat="46.3447166" lon="10.0654667"><ele>1122.5</ele><time>2026-04-11T13:31:38.023Z</time></trkpt><trkpt lat="46.3445878" lon="10.0653858"><ele>1120.75</ele><time>2026-04-11T13:31:39.022Z</time></trkpt><trkpt lat="46.3444651" lon="10.0653122"><ele>1119.0</ele><time>2026-04-11T13:31:40.023Z</time></trkpt><trkpt lat="46.3443501" lon="10.0652081"><ele>1119.0</ele><time>2026-04-11T13:31:41.023Z</time></trkpt><trkpt lat="46.3442706" lon="10.0650819"><ele>1119.0</ele><time>2026-04-11T13:31:42.023Z</time></trkpt><trkpt lat="46.3442145" lon="10.0649223"><ele>1119.0</ele><time>2026-04-11T13:31:43.023Z</time></trkpt><trkpt lat="46.3441846" lon="10.0647277"><ele>1119.0</ele><time>2026-04-11T13:31:44.023Z</time></trkpt><trkpt lat="46.3441628" lon="10.0644984"><ele>1112.3333333333333</ele><time>2026-04-11T13:31:45.023Z</time></trkpt><trkpt lat="46.3441435" lon="10.0642676"><ele>1105.6666666666665</ele><time>2026-04-11T13:31:46.023Z</time></trkpt><trkpt lat="46.3441193" lon="10.0640341"><ele>1099.0</ele><time>2026-04-11T13:31:47.023Z</time></trkpt><trkpt lat="46.344085" lon="10.0638098"><ele>1096.6666666666665</ele><time>2026-04-11T13:31:48.023Z</time></trkpt><trkpt lat="46.3440468" lon="10.0635845"><ele>1094.3333333333333</ele><time>2026-04-11T13:31:49.023Z</time></trkpt><trkpt lat="46.3440162" lon="10.0633502"><ele>1092.0</ele><time>2026-04-11T13:31:50.023Z</time></trkpt><trkpt lat="46.3439901" lon="10.0631361"><ele>1091.25</ele><time>2026-04-11T13:31:51.023Z</time></trkpt><trkpt lat="46.3439667" lon="10.062931"><ele>1090.5</ele><time>2026-04-11T13:31:52.023Z</time></trkpt><trkpt lat="46.3439448" lon="10.0627404"><ele>1089.75</ele><time>2026-04-11T13:31:53.023Z</time></trkpt><trkpt lat="46.3439289" lon="10.0625621"><ele>1089.0</ele><time>2026-04-11T13:31:54.023Z</time></trkpt><trkpt lat="46.3439103" lon="10.0623941"><ele>1088.2</ele><time>2026-04-11T13:31:55.023Z</time></trkpt><trkpt lat="46.3438904" lon="10.0622452"><ele>1087.4</ele><time>2026-04-11T13:31:56.023Z</time></trkpt><trkpt lat="46.343864" lon="10.0621099"><ele>1086.6</ele><time>2026-04-11T13:31:57.022Z</time></trkpt><trkpt lat="46.3438224" lon="10.062006"><ele>1085.8</ele><time>2026-04-11T13:31:58.023Z</time></trkpt><trkpt lat="46.3437613" lon="10.0619122"><ele>1085.0</ele><time>2026-04-11T13:31:59.023Z</time></trkpt><trkpt lat="46.3436984" lon="10.0618254"><ele>1085.4</ele><time>2026-04-11T13:32:00.023Z</time></trkpt><trkpt lat="46.3436306" lon="10.0617308"><ele>1085.8</ele><time>2026-04-11T13:32:01.023Z</time></trkpt><trkpt lat="46.3435672" lon="10.0616286"><ele>1086.2</ele><time>2026-04-11T13:32:02.023Z</time></trkpt><trkpt lat="46.3434938" lon="10.0615271"><ele>1086.6</ele><time>2026-04-11T13:32:03.023Z</time></trkpt><trkpt lat="46.3434071" lon="10.0614264"><ele>1087.0</ele><time>2026-04-11T13:32:04.023Z</time></trkpt><trkpt lat="46.3433138" lon="10.061341"><ele>1087.0</ele><time>2026-04-11T13:32:05.023Z</time></trkpt><trkpt lat="46.3431974" lon="10.0612253"><ele>1087.0</ele><time>2026-04-11T13:32:06.023Z</time></trkpt><trkpt lat="46.343081" lon="10.0611148"><ele>1087.0</ele><time>2026-04-11T13:32:07.023Z</time></trkpt><trkpt lat="46.34297" lon="10.0610141"><ele>1087.0</ele><time>2026-04-11T13:32:08.022Z</time></trkpt><trkpt lat="46.3428556" lon="10.0609301"><ele>1088.0</ele><time>2026-04-11T13:32:09.023Z</time></trkpt><trkpt lat="46.3427405" lon="10.0608448"><ele>1089.0</ele><time>2026-04-11T13:32:10.023Z</time></trkpt><trkpt lat="46.3426258" lon="10.0607586"><ele>1090.0</ele><time>2026-04-11T13:32:11.022Z</time></trkpt><trkpt lat="46.3425065" lon="10.0606756"><ele>1091.0</ele><time>2026-04-11T13:32:12.023Z</time></trkpt><trkpt lat="46.3423903" lon="10.06059"><ele>1089.5</ele><time>2026-04-11T13:32:13.023Z</time></trkpt><trkpt lat="46.3422794" lon="10.0604991"><ele>1088.0</ele><time>2026-04-11T13:32:14.023Z</time></trkpt><trkpt lat="46.3421692" lon="10.0604021"><ele>1086.5</ele><time>2026-04-11T13:32:15.023Z</time></trkpt><trkpt lat="46.3420589" lon="10.0603171"><ele>1085.0</ele><time>2026-04-11T13:32:16.023Z</time></trkpt><trkpt lat="46.3419524" lon="10.060238"><ele>1085.0</ele><time>2026-04-11T13:32:17.023Z</time></trkpt><trkpt lat="46.3418497" lon="10.060173"><ele>1085.0</ele><time>2026-04-11T13:32:18.022Z</time></trkpt><trkpt lat="46.3417405" lon="10.0601231"><ele>1085.0</ele><time>2026-04-11T13:32:19.023Z</time></trkpt><trkpt lat="46.341621" lon="10.0600821"><ele>1085.0</ele><time>2026-04-11T13:32:20.023Z</time></trkpt><trkpt lat="46.3414922" lon="10.0600477"><ele>1084.0</ele><time>2026-04-11T13:32:21.022Z</time></trkpt><trkpt lat="46.3413643" lon="10.0600098"><ele>1083.0</ele><time>2026-04-11T13:32:22.023Z</time></trkpt><trkpt lat="46.3412328" lon="10.0599733"><ele>1082.0</ele><time>2026-04-11T13:32:23.023Z</time></trkpt><trkpt lat="46.3411035" lon="10.0599352"><ele>1081.0</ele><time>2026-04-11T13:32:24.023Z</time></trkpt><trkpt lat="46.3409707" lon="10.0599034"><ele>1079.0</ele><time>2026-04-11T13:32:25.023Z</time></trkpt><trkpt lat="46.3408437" lon="10.0598763"><ele>1077.0</ele><time>2026-04-11T13:32:26.023Z</time></trkpt><trkpt lat="46.3407131" lon="10.0598837"><ele>1075.0</ele><time>2026-04-11T13:32:27.023Z</time></trkpt><trkpt lat="46.3405869" lon="10.0599033"><ele>1073.0</ele><time>2026-04-11T13:32:28.023Z</time></trkpt><trkpt lat="46.3404632" lon="10.0599348"><ele>1073.5</ele><time>2026-04-11T13:32:29.023Z</time></trkpt><trkpt lat="46.3403383" lon="10.0599769"><ele>1074.0</ele><time>2026-04-11T13:32:30.023Z</time></trkpt><trkpt lat="46.3402125" lon="10.060023"><ele>1074.5</ele><time>2026-04-11T13:32:31.023Z</time></trkpt><trkpt lat="46.3400908" lon="10.0600623"><ele>1075.0</ele><time>2026-04-11T13:32:32.022Z</time></trkpt><trkpt lat="46.3399706" lon="10.0601063"><ele>1075.0</ele><time>2026-04-11T13:32:33.023Z</time></trkpt><trkpt lat="46.339843" lon="10.0601474"><ele>1075.0</ele><time>2026-04-11T13:32:34.023Z</time></trkpt><trkpt lat="46.3397108" lon="10.0601913"><ele>1075.0</ele><time>2026-04-11T13:32:35.023Z</time></trkpt><trkpt lat="46.3395791" lon="10.0602413"><ele>1075.0</ele><time>2026-04-11T13:32:36.023Z</time></trkpt><trkpt lat="46.3394439" lon="10.0602917"><ele>1072.25</ele><time>2026-04-11T13:32:37.023Z</time></trkpt><trkpt lat="46.3393187" lon="10.0603339"><ele>1069.5</ele><time>2026-04-11T13:32:38.023Z</time></trkpt><trkpt lat="46.3391942" lon="10.0603843"><ele>1066.75</ele><time>2026-04-11T13:32:39.023Z</time></trkpt><trkpt lat="46.3390704" lon="10.0604293"><ele>1064.0</ele><time>2026-04-11T13:32:40.023Z</time></trkpt><trkpt lat="46.3389498" lon="10.0604634"><ele>1063.75</ele><time>2026-04-11T13:32:41.023Z</time></trkpt><trkpt lat="46.3388307" lon="10.0605014"><ele>1063.5</ele><time>2026-04-11T13:32:42.022Z</time></trkpt><trkpt lat="46.3387073" lon="10.0605468"><ele>1063.25</ele><time>2026-04-11T13:32:43.023Z</time></trkpt><trkpt lat="46.3385811" lon="10.060595"><ele>1063.0</ele><time>2026-04-11T13:32:44.022Z</time></trkpt><trkpt lat="46.3384566" lon="10.0606418"><ele>1063.0</ele><time>2026-04-11T13:32:45.023Z</time></trkpt><trkpt lat="46.3383322" lon="10.0606913"><ele>1063.0</ele><time>2026-04-11T13:32:46.023Z</time></trkpt><trkpt lat="46.3382173" lon="10.0607472"><ele>1063.0</ele><time>2026-04-11T13:32:47.023Z</time></trkpt><trkpt lat="46.3381084" lon="10.0608007"><ele>1063.0</ele><time>2026-04-11T13:32:48.023Z</time></trkpt><trkpt lat="46.3379947" lon="10.0608571"><ele>1062.0</ele><time>2026-04-11T13:32:49.023Z</time></trkpt><trkpt lat="46.3378792" lon="10.0609197"><ele>1061.0</ele><time>2026-04-11T13:32:50.023Z</time></trkpt><trkpt lat="46.337748" lon="10.061"><ele>1060.0</ele><time>2026-04-11T13:32:51.023Z</time></trkpt><trkpt lat="46.3376101" lon="10.0610782"><ele>1059.0</ele><time>2026-04-11T13:32:52.023Z</time></trkpt><trkpt lat="46.3374785" lon="10.0611454"><ele>1059.0</ele><time>2026-04-11T13:32:53.023Z</time></trkpt><trkpt lat="46.3373469" lon="10.0612043"><ele>1059.0</ele><time>2026-04-11T13:32:54.023Z</time></trkpt><trkpt lat="46.3372138" lon="10.0612544"><ele>1059.0</ele><time>2026-04-11T13:32:55.023Z</time></trkpt><trkpt lat="46.3370735" lon="10.0612911"><ele>1059.0</ele><time>2026-04-11T13:32:56.023Z</time></trkpt><trkpt lat="46.336924" lon="10.0613142"><ele>1058.0</ele><time>2026-04-11T13:32:57.023Z</time></trkpt><trkpt lat="46.3367625" lon="10.061321"><ele>1057.0</ele><time>2026-04-11T13:32:58.023Z</time></trkpt><trkpt lat="46.3365905" lon="10.0613128"><ele>1056.0</ele><time>2026-04-11T13:32:59.023Z</time></trkpt><trkpt lat="46.3364153" lon="10.0612902"><ele>1055.3333333333333</ele><time>2026-04-11T13:33:00.023Z</time></trkpt><trkpt lat="46.336232" lon="10.0612668"><ele>1054.6666666666665</ele><time>2026-04-11T13:33:01.023Z</time></trkpt><trkpt lat="46.3360446" lon="10.0612371"><ele>1054.0</ele><time>2026-04-11T13:33:02.023Z</time></trkpt><trkpt lat="46.3358517" lon="10.0612098"><ele>1054.0</ele><time>2026-04-11T13:33:03.023Z</time></trkpt><trkpt lat="46.3356579" lon="10.0611832"><ele>1054.0</ele><time>2026-04-11T13:33:04.023Z</time></trkpt><trkpt lat="46.335458" lon="10.0611488"><ele>1054.0</ele><time>2026-04-11T13:33:05.023Z</time></trkpt><trkpt lat="46.3352585" lon="10.0611156"><ele>1055.6666666666665</ele><time>2026-04-11T13:33:06.022Z</time></trkpt><trkpt lat="46.3350575" lon="10.0610872"><ele>1057.3333333333333</ele><time>2026-04-11T13:33:07.023Z</time></trkpt><trkpt lat="46.33486" lon="10.0610579"><ele>1059.0</ele><time>2026-04-11T13:33:08.023Z</time></trkpt><trkpt lat="46.3346627" lon="10.0610191"><ele>1061.0</ele><time>2026-04-11T13:33:09.023Z</time></trkpt><trkpt lat="46.3344699" lon="10.0609629"><ele>1063.0</ele><time>2026-04-11T13:33:10.023Z</time></trkpt><trkpt lat="46.3342841" lon="10.0608815"><ele>1065.0</ele><time>2026-04-11T13:33:11.023Z</time></trkpt><trkpt lat="46.3341048" lon="10.0608001"><ele>1060.3333333333333</ele><time>2026-04-11T13:33:12.023Z</time></trkpt><trkpt lat="46.333931" lon="10.0607065"><ele>1055.6666666666665</ele><time>2026-04-11T13:33:13.023Z</time></trkpt><trkpt lat="46.3337613" lon="10.0605988"><ele>1051.0</ele><time>2026-04-11T13:33:14.023Z</time></trkpt><trkpt lat="46.333595" lon="10.0604855"><ele>1051.0</ele><time>2026-04-11T13:33:15.023Z</time></trkpt><trkpt lat="46.3334283" lon="10.0603753"><ele>1051.0</ele><time>2026-04-11T13:33:16.023Z</time></trkpt><trkpt lat="46.3332594" lon="10.0602575"><ele>1051.0</ele><time>2026-04-11T13:33:17.023Z</time></trkpt><trkpt lat="46.3330977" lon="10.0601308"><ele>1055.3333333333333</ele><time>2026-04-11T13:33:18.022Z</time></trkpt><trkpt lat="46.3329392" lon="10.0600086"><ele>1059.6666666666667</ele><time>2026-04-11T13:33:19.023Z</time></trkpt><trkpt lat="46.3327894" lon="10.0598935"><ele>1064.0</ele><time>2026-04-11T13:33:20.023Z</time></trkpt><trkpt lat="46.3326449" lon="10.0597833"><ele>1055.3333333333335</ele><time>2026-04-11T13:33:21.023Z</time></trkpt><trkpt lat="46.3324936" lon="10.0596938"><ele>1046.6666666666667</ele><time>2026-04-11T13:33:22.023Z</time></trkpt><trkpt lat="46.3323445" lon="10.0596004"><ele>1038.0</ele><time>2026-04-11T13:33:23.023Z</time></trkpt><trkpt lat="46.3321891" lon="10.0595082"><ele>1037.0</ele><time>2026-04-11T13:33:24.023Z</time></trkpt><trkpt lat="46.3320269" lon="10.0594204"><ele>1036.0</ele><time>2026-04-11T13:33:25.023Z</time></trkpt><trkpt lat="46.3318558" lon="10.0593271"><ele>1035.0</ele><time>2026-04-11T13:33:26.023Z</time></trkpt><trkpt lat="46.3316841" lon="10.059224"><ele>1035.0</ele><time>2026-04-11T13:33:27.023Z</time></trkpt><trkpt lat="46.3315066" lon="10.0591257"><ele>1035.0</ele><time>2026-04-11T13:33:28.023Z</time></trkpt><trkpt lat="46.3313283" lon="10.0590209"><ele>1035.0</ele><time>2026-04-11T13:33:29.023Z</time></trkpt><trkpt lat="46.3311436" lon="10.0589297"><ele>1032.0</ele><time>2026-04-11T13:33:30.023Z</time></trkpt><trkpt lat="46.3309577" lon="10.0588486"><ele>1029.0</ele><time>2026-04-11T13:33:31.023Z</time></trkpt><trkpt lat="46.3307648" lon="10.0587757"><ele>1026.0</ele><time>2026-04-11T13:33:32.023Z</time></trkpt><trkpt lat="46.3305772" lon="10.058711"><ele>1025.0</ele><time>2026-04-11T13:33:33.023Z</time></trkpt><trkpt lat="46.3303855" lon="10.0586521"><ele>1024.0</ele><time>2026-04-11T13:33:34.023Z</time></trkpt><trkpt lat="46.3301938" lon="10.0585932"><ele>1023.0</ele><time>2026-04-11T13:33:35.023Z</time></trkpt><trkpt lat="46.3300105" lon="10.05853"><ele>1023.0</ele><time>2026-04-11T13:33:36.023Z</time></trkpt><trkpt lat="46.3298267" lon="10.0584697"><ele>1023.0</ele><time>2026-04-11T13:33:37.023Z</time></trkpt><trkpt lat="46.3296479" lon="10.0584162"><ele>1023.0</ele><time>2026-04-11T13:33:38.023Z</time></trkpt><trkpt lat="46.329487" lon="10.0583649"><ele>1024.25</ele><time>2026-04-11T13:33:39.023Z</time></trkpt><trkpt lat="46.3293446" lon="10.058327"><ele>1025.5</ele><time>2026-04-11T13:33:40.023Z</time></trkpt><trkpt lat="46.3292173" lon="10.0582942"><ele>1026.75</ele><time>2026-04-11T13:33:41.023Z</time></trkpt><trkpt lat="46.3290975" lon="10.0582592"><ele>1028.0</ele><time>2026-04-11T13:33:42.023Z</time></trkpt><trkpt lat="46.3289864" lon="10.0582214"><ele>1026.4</ele><time>2026-04-11T13:33:43.023Z</time></trkpt><trkpt lat="46.3288759" lon="10.0581867"><ele>1024.8</ele><time>2026-04-11T13:33:44.023Z</time></trkpt><trkpt lat="46.328765" lon="10.0581515"><ele>1023.2</ele><time>2026-04-11T13:33:45.023Z</time></trkpt><trkpt lat="46.3286557" lon="10.0581216"><ele>1021.6</ele><time>2026-04-11T13:33:46.023Z</time></trkpt><trkpt lat="46.328551" lon="10.0580933"><ele>1020.0</ele><time>2026-04-11T13:33:47.023Z</time></trkpt><trkpt lat="46.3284534" lon="10.0580722"><ele>1020.0</ele><time>2026-04-11T13:33:48.023Z</time></trkpt><trkpt lat="46.3283729" lon="10.0580478"><ele>1020.0</ele><time>2026-04-11T13:33:49.023Z</time></trkpt><trkpt lat="46.3283117" lon="10.0580134"><ele>1020.0</ele><time>2026-04-11T13:33:50.023Z</time></trkpt><trkpt lat="46.3282167" lon="10.0578806"><ele>1020.0</ele><time>2026-04-11T13:33:52.023Z</time></trkpt><trkpt lat="46.3282032" lon="10.0577099"><ele>1020.0</ele><time>2026-04-11T13:33:54.023Z</time></trkpt><trkpt lat="46.3282183" lon="10.0576107"><ele>1020.0</ele><time>2026-04-11T13:33:55.023Z</time></trkpt><trkpt lat="46.3282308" lon="10.0575146"><ele>1020.0</ele><time>2026-04-11T13:33:56.023Z</time></trkpt><trkpt lat="46.3282169" lon="10.0574182"><ele>1020.0</ele><time>2026-04-11T13:33:57.023Z</time></trkpt><trkpt lat="46.3281014" lon="10.057285"><ele>1020.0</ele><time>2026-04-11T13:33:59.022Z</time></trkpt><trkpt lat="46.3279941" lon="10.0572246"><ele>1020.0</ele><time>2026-04-11T13:34:00.023Z</time></trkpt><trkpt lat="46.3278756" lon="10.0571607"><ele>1019.5</ele><time>2026-04-11T13:34:01.023Z</time></trkpt><trkpt lat="46.3277606" lon="10.0570793"><ele>1019.0</ele><time>2026-04-11T13:34:02.023Z</time></trkpt><trkpt lat="46.3276437" lon="10.0570028"><ele>1018.5</ele><time>2026-04-11T13:34:03.023Z</time></trkpt><trkpt lat="46.3275357" lon="10.0569574"><ele>1018.0</ele><time>2026-04-11T13:34:04.023Z</time></trkpt><trkpt lat="46.3274312" lon="10.0569114"><ele>1018.0</ele><time>2026-04-11T13:34:05.023Z</time></trkpt><trkpt lat="46.3273298" lon="10.0568847"><ele>1018.0</ele><time>2026-04-11T13:34:06.022Z</time></trkpt><trkpt lat="46.3272313" lon="10.0568681"><ele>1018.0</ele><time>2026-04-11T13:34:07.023Z</time></trkpt><trkpt lat="46.3271388" lon="10.0568574"><ele>1018.0</ele><time>2026-04-11T13:34:08.023Z</time></trkpt><trkpt lat="46.3270508" lon="10.0568529"><ele>1018.0</ele><time>2026-04-11T13:34:09.023Z</time></trkpt><trkpt lat="46.3269674" lon="10.0568535"><ele>1017.5714285714284</ele><time>2026-04-11T13:34:10.023Z</time></trkpt><trkpt lat="46.3268884" lon="10.0568519"><ele>1017.1428571428571</ele><time>2026-04-11T13:34:11.022Z</time></trkpt><trkpt lat="46.3268145" lon="10.0568446"><ele>1016.7142857142857</ele><time>2026-04-11T13:34:12.023Z</time></trkpt><trkpt lat="46.3267466" lon="10.0568406"><ele>1016.2857142857142</ele><time>2026-04-11T13:34:13.023Z</time></trkpt><trkpt lat="46.3266795" lon="10.0568373"><ele>1015.8571428571429</ele><time>2026-04-11T13:34:14.023Z</time></trkpt><trkpt lat="46.3266074" lon="10.0568438"><ele>1015.4285714285714</ele><time>2026-04-11T13:34:15.023Z</time></trkpt><trkpt lat="46.3265273" lon="10.056838"><ele>1015.0</ele><time>2026-04-11T13:34:16.023Z</time></trkpt><trkpt lat="46.3264361" lon="10.0568316"><ele>1014.6</ele><time>2026-04-11T13:34:17.023Z</time></trkpt><trkpt lat="46.3263317" lon="10.0568267"><ele>1014.2</ele><time>2026-04-11T13:34:18.023Z</time></trkpt><trkpt lat="46.3262229" lon="10.0568173"><ele>1013.8</ele><time>2026-04-11T13:34:19.023Z</time></trkpt><trkpt lat="46.3261092" lon="10.0567989"><ele>1013.4</ele><time>2026-04-11T13:34:20.023Z</time></trkpt><trkpt lat="46.3259977" lon="10.0567717"><ele>1013.0</ele><time>2026-04-11T13:34:21.023Z</time></trkpt><trkpt lat="46.32589" lon="10.056743"><ele>1013.0</ele><time>2026-04-11T13:34:22.023Z</time></trkpt><trkpt lat="46.3257833" lon="10.0567061"><ele>1013.0</ele><time>2026-04-11T13:34:23.023Z</time></trkpt><trkpt lat="46.325683" lon="10.0566621"><ele>1013.0</ele><time>2026-04-11T13:34:24.023Z</time></trkpt><trkpt lat="46.325583" lon="10.0566217"><ele>1013.0</ele><time>2026-04-11T13:34:25.022Z</time></trkpt><trkpt lat="46.3254796" lon="10.0565737"><ele>1013.0</ele><time>2026-04-11T13:34:26.023Z</time></trkpt><trkpt lat="46.3253721" lon="10.0565279"><ele>1013.0</ele><time>2026-04-11T13:34:27.023Z</time></trkpt><trkpt lat="46.3252655" lon="10.056476"><ele>1013.0</ele><time>2026-04-11T13:34:28.022Z</time></trkpt><trkpt lat="46.3251558" lon="10.0564217"><ele>1013.0</ele><time>2026-04-11T13:34:29.022Z</time></trkpt><trkpt lat="46.3250402" lon="10.0563727"><ele>1013.0</ele><time>2026-04-11T13:34:30.023Z</time></trkpt><trkpt lat="46.3249211" lon="10.0563214"><ele>1013.0</ele><time>2026-04-11T13:34:31.022Z</time></trkpt><trkpt lat="46.324809" lon="10.0562725"><ele>1013.0</ele><time>2026-04-11T13:34:32.023Z</time></trkpt><trkpt lat="46.3246967" lon="10.0562266"><ele>1013.0</ele><time>2026-04-11T13:34:33.023Z</time></trkpt><trkpt lat="46.3245824" lon="10.0561884"><ele>1013.0</ele><time>2026-04-11T13:34:34.023Z</time></trkpt><trkpt lat="46.3244546" lon="10.056154"><ele>1012.5</ele><time>2026-04-11T13:34:35.023Z</time></trkpt><trkpt lat="46.3243191" lon="10.0561199"><ele>1012.0</ele><time>2026-04-11T13:34:36.023Z</time></trkpt><trkpt lat="46.3241859" lon="10.0560891"><ele>1011.5</ele><time>2026-04-11T13:34:37.023Z</time></trkpt><trkpt lat="46.3240607" lon="10.056067"><ele>1011.0</ele><time>2026-04-11T13:34:38.023Z</time></trkpt><trkpt lat="46.3239457" lon="10.0560453"><ele>1010.5</ele><time>2026-04-11T13:34:39.023Z</time></trkpt><trkpt lat="46.3238448" lon="10.056037"><ele>1010.0</ele><time>2026-04-11T13:34:40.023Z</time></trkpt><trkpt lat="46.3237657" lon="10.0560509"><ele>1009.5</ele><time>2026-04-11T13:34:41.023Z</time></trkpt><trkpt lat="46.3237118" lon="10.0561019"><ele>1009.0</ele><time>2026-04-11T13:34:42.023Z</time></trkpt><trkpt lat="46.3236991" lon="10.0562691"><ele>1008.5</ele><time>2026-04-11T13:34:44.023Z</time></trkpt><trkpt lat="46.3237234" lon="10.0563784"><ele>1008.0</ele><time>2026-04-11T13:34:45.023Z</time></trkpt><trkpt lat="46.323759" lon="10.0565182"><ele>1008.0</ele><time>2026-04-11T13:34:46.023Z</time></trkpt><trkpt lat="46.3238086" lon="10.0566772"><ele>1008.0</ele><time>2026-04-11T13:34:47.022Z</time></trkpt><trkpt lat="46.3238551" lon="10.0568271"><ele>1008.0</ele><time>2026-04-11T13:34:48.023Z</time></trkpt><trkpt lat="46.3239052" lon="10.0569462"><ele>1008.0</ele><time>2026-04-11T13:34:49.023Z</time></trkpt><trkpt lat="46.3239476" lon="10.0570393"><ele>1008.0</ele><time>2026-04-11T13:34:50.023Z</time></trkpt><trkpt lat="46.3239828" lon="10.0571351"><ele>1008.0</ele><time>2026-04-11T13:34:51.023Z</time></trkpt><trkpt lat="46.3239727" lon="10.0572263"><ele>1008.0</ele><time>2026-04-11T13:34:52.023Z</time></trkpt><trkpt lat="46.3239472" lon="10.0573124"><ele>1008.0</ele><time>2026-04-11T13:34:53.023Z</time></trkpt><trkpt lat="46.3238726" lon="10.0573648"><ele>1008.0</ele><time>2026-04-11T13:34:54.023Z</time></trkpt><trkpt lat="46.3237898" lon="10.0574402"><ele>1008.0</ele><time>2026-04-11T13:34:55.023Z</time></trkpt><trkpt lat="46.3236883" lon="10.0574857"><ele>1008.0</ele><time>2026-04-11T13:34:56.022Z</time></trkpt><trkpt lat="46.3235665" lon="10.0575222"><ele>1008.0</ele><time>2026-04-11T13:34:57.023Z</time></trkpt><trkpt lat="46.3234422" lon="10.0575829"><ele>1008.0</ele><time>2026-04-11T13:34:58.023Z</time></trkpt><trkpt lat="46.3233119" lon="10.0576361"><ele>1008.0</ele><time>2026-04-11T13:34:59.023Z</time></trkpt><trkpt lat="46.3231886" lon="10.0576933"><ele>1008.0</ele><time>2026-04-11T13:35:00.023Z</time></trkpt><trkpt lat="46.3230669" lon="10.0577423"><ele>1007.25</ele><time>2026-04-11T13:35:01.023Z</time></trkpt><trkpt lat="46.3229581" lon="10.0578044"><ele>1006.5</ele><time>2026-04-11T13:35:02.023Z</time></trkpt><trkpt lat="46.3228514" lon="10.0578563"><ele>1005.75</ele><time>2026-04-11T13:35:03.022Z</time></trkpt><trkpt lat="46.3227374" lon="10.0579057"><ele>1005.0</ele><time>2026-04-11T13:35:04.023Z</time></trkpt><trkpt lat="46.322615" lon="10.0579516"><ele>1005.0</ele><time>2026-04-11T13:35:05.023Z</time></trkpt><trkpt lat="46.3224911" lon="10.0580035"><ele>1005.0</ele><time>2026-04-11T13:35:06.022Z</time></trkpt><trkpt lat="46.3223694" lon="10.058056"><ele>1005.0</ele><time>2026-04-11T13:35:07.023Z</time></trkpt><trkpt lat="46.3222472" lon="10.0581059"><ele>1005.0</ele><time>2026-04-11T13:35:08.023Z</time></trkpt><trkpt lat="46.3221304" lon="10.0581529"><ele>1004.75</ele><time>2026-04-11T13:35:09.023Z</time></trkpt><trkpt lat="46.3220159" lon="10.0582041"><ele>1004.5</ele><time>2026-04-11T13:35:10.023Z</time></trkpt><trkpt lat="46.3218995" lon="10.058252"><ele>1004.25</ele><time>2026-04-11T13:35:11.023Z</time></trkpt><trkpt lat="46.3217784" lon="10.0583028"><ele>1004.0</ele><time>2026-04-11T13:35:12.023Z</time></trkpt><trkpt lat="46.3216532" lon="10.0583525"><ele>1004.0</ele><time>2026-04-11T13:35:13.023Z</time></trkpt><trkpt lat="46.3215235" lon="10.0584034"><ele>1004.0</ele><time>2026-04-11T13:35:14.022Z</time></trkpt><trkpt lat="46.3213933" lon="10.0584533"><ele>1004.0</ele><time>2026-04-11T13:35:15.023Z</time></trkpt><trkpt lat="46.3212632" lon="10.0585079"><ele>1004.0</ele><time>2026-04-11T13:35:16.022Z</time></trkpt><trkpt lat="46.3211302" lon="10.0585643"><ele>1004.0</ele><time>2026-04-11T13:35:17.023Z</time></trkpt><trkpt lat="46.3209961" lon="10.0586226"><ele>1004.0</ele><time>2026-04-11T13:35:18.023Z</time></trkpt><trkpt lat="46.3208659" lon="10.0586753"><ele>1004.0</ele><time>2026-04-11T13:35:19.023Z</time></trkpt><trkpt lat="46.3207332" lon="10.0587253"><ele>1004.0</ele><time>2026-04-11T13:35:20.022Z</time></trkpt><trkpt lat="46.3206053" lon="10.0587749"><ele>1003.5</ele><time>2026-04-11T13:35:21.023Z</time></trkpt><trkpt lat="46.3204795" lon="10.0588289"><ele>1003.0</ele><time>2026-04-11T13:35:22.023Z</time></trkpt><trkpt lat="46.3203584" lon="10.0588778"><ele>1002.5</ele><time>2026-04-11T13:35:23.023Z</time></trkpt><trkpt lat="46.3202412" lon="10.0589326"><ele>1002.0</ele><time>2026-04-11T13:35:24.023Z</time></trkpt><trkpt lat="46.3201236" lon="10.0589846"><ele>1002.0</ele><time>2026-04-11T13:35:25.023Z</time></trkpt><trkpt lat="46.3199997" lon="10.0590391"><ele>1002.0</ele><time>2026-04-11T13:35:26.023Z</time></trkpt><trkpt lat="46.3198704" lon="10.0590882"><ele>1002.0</ele><time>2026-04-11T13:35:27.023Z</time></trkpt><trkpt lat="46.3197387" lon="10.0591265"><ele>1002.0</ele><time>2026-04-11T13:35:28.022Z</time></trkpt><trkpt lat="46.3196064" lon="10.059153"><ele>1002.0</ele><time>2026-04-11T13:35:29.023Z</time></trkpt><trkpt lat="46.3194732" lon="10.0591617"><ele>1002.0</ele><time>2026-04-11T13:35:30.023Z</time></trkpt><trkpt lat="46.3193316" lon="10.0591665"><ele>1002.0</ele><time>2026-04-11T13:35:31.023Z</time></trkpt><trkpt lat="46.3191853" lon="10.0591696"><ele>1002.0</ele><time>2026-04-11T13:35:32.023Z</time></trkpt><trkpt lat="46.3190336" lon="10.059173"><ele>1001.6666666666667</ele><time>2026-04-11T13:35:33.023Z</time></trkpt><trkpt lat="46.3188846" lon="10.0591761"><ele>1001.3333333333334</ele><time>2026-04-11T13:35:34.023Z</time></trkpt><trkpt lat="46.3187301" lon="10.0591766"><ele>1001.0</ele><time>2026-04-11T13:35:35.023Z</time></trkpt><trkpt lat="46.3185806" lon="10.0591808"><ele>1001.0</ele><time>2026-04-11T13:35:36.023Z</time></trkpt><trkpt lat="46.3184358" lon="10.0591896"><ele>1001.0</ele><time>2026-04-11T13:35:37.023Z</time></trkpt><trkpt lat="46.3182943" lon="10.0591908"><ele>1001.0</ele><time>2026-04-11T13:35:38.023Z</time></trkpt><trkpt lat="46.3181611" lon="10.059206"><ele>1001.0</ele><time>2026-04-11T13:35:39.023Z</time></trkpt><trkpt lat="46.3180368" lon="10.0592388"><ele>1001.0</ele><time>2026-04-11T13:35:40.023Z</time></trkpt><trkpt lat="46.3179182" lon="10.0593112"><ele>1001.0</ele><time>2026-04-11T13:35:41.023Z</time></trkpt><trkpt lat="46.3178036" lon="10.0594137"><ele>1001.0</ele><time>2026-04-11T13:35:42.023Z</time></trkpt><trkpt lat="46.3176951" lon="10.0595436"><ele>1001.0</ele><time>2026-04-11T13:35:43.023Z</time></trkpt><trkpt lat="46.3175921" lon="10.0596758"><ele>1001.0</ele><time>2026-04-11T13:35:44.023Z</time></trkpt><trkpt lat="46.3174963" lon="10.0598011"><ele>1000.9999999999999</ele><time>2026-04-11T13:35:45.023Z</time></trkpt><trkpt lat="46.3174136" lon="10.0598961"><ele>1000.9999999999999</ele><time>2026-04-11T13:35:46.023Z</time></trkpt><trkpt lat="46.3173358" lon="10.0599624"><ele>1001.0</ele><time>2026-04-11T13:35:47.022Z</time></trkpt><trkpt lat="46.3172506" lon="10.0599875"><ele>1001.0</ele><time>2026-04-11T13:35:48.023Z</time></trkpt><trkpt lat="46.3171637" lon="10.0599758"><ele>1001.3333333333334</ele><time>2026-04-11T13:35:49.023Z</time></trkpt><trkpt lat="46.3170931" lon="10.0599179"><ele>1001.6666666666667</ele><time>2026-04-11T13:35:50.023Z</time></trkpt><trkpt lat="46.3170324" lon="10.0598352"><ele>1002.0</ele><time>2026-04-11T13:35:51.023Z</time></trkpt><trkpt lat="46.3169714" lon="10.0597584"><ele>1002.3333333333333</ele><time>2026-04-11T13:35:52.023Z</time></trkpt><trkpt lat="46.3168867" lon="10.0597039"><ele>1002.6666666666666</ele><time>2026-04-11T13:35:53.023Z</time></trkpt><trkpt lat="46.3167814" lon="10.0596844"><ele>1003.0</ele><time>2026-04-11T13:35:54.023Z</time></trkpt><trkpt lat="46.3166591" lon="10.0597185"><ele>1003.0</ele><time>2026-04-11T13:35:55.023Z</time></trkpt><trkpt lat="46.3165143" lon="10.0597738"><ele>1003.0</ele><time>2026-04-11T13:35:56.023Z</time></trkpt><trkpt lat="46.3163538" lon="10.059823"><ele>1003.0</ele><time>2026-04-11T13:35:57.023Z</time></trkpt><trkpt lat="46.3161866" lon="10.0598808"><ele>1003.3333333333333</ele><time>2026-04-11T13:35:58.023Z</time></trkpt><trkpt lat="46.3160257" lon="10.059934"><ele>1003.6666666666667</ele><time>2026-04-11T13:35:59.023Z</time></trkpt><trkpt lat="46.3158714" lon="10.0599872"><ele>1004.0</ele><time>2026-04-11T13:36:00.023Z</time></trkpt><trkpt lat="46.3157249" lon="10.0600355"><ele>1002.75</ele><time>2026-04-11T13:36:01.023Z</time></trkpt><trkpt lat="46.3155837" lon="10.0600843"><ele>1001.5</ele><time>2026-04-11T13:36:02.023Z</time></trkpt><trkpt lat="46.315449" lon="10.0601256"><ele>1000.25</ele><time>2026-04-11T13:36:03.022Z</time></trkpt><trkpt lat="46.3153189" lon="10.0601624"><ele>999.0</ele><time>2026-04-11T13:36:04.023Z</time></trkpt><trkpt lat="46.3151943" lon="10.0602051"><ele>998.75</ele><time>2026-04-11T13:36:05.023Z</time></trkpt><trkpt lat="46.3150756" lon="10.0602399"><ele>998.5</ele><time>2026-04-11T13:36:06.023Z</time></trkpt><trkpt lat="46.3149592" lon="10.0602852"><ele>998.25</ele><time>2026-04-11T13:36:07.023Z</time></trkpt><trkpt lat="46.314841" lon="10.0603264"><ele>998.0</ele><time>2026-04-11T13:36:08.023Z</time></trkpt><trkpt lat="46.3147205" lon="10.0603632"><ele>998.0</ele><time>2026-04-11T13:36:09.023Z</time></trkpt><trkpt lat="46.3146058" lon="10.0604022"><ele>998.0</ele><time>2026-04-11T13:36:10.022Z</time></trkpt><trkpt lat="46.3144922" lon="10.0604463"><ele>998.0</ele><time>2026-04-11T13:36:11.023Z</time></trkpt><trkpt lat="46.3143866" lon="10.0605104"><ele>998.0</ele><time>2026-04-11T13:36:12.023Z</time></trkpt><trkpt lat="46.3142869" lon="10.0605926"><ele>998.0</ele><time>2026-04-11T13:36:13.023Z</time></trkpt><trkpt lat="46.3141928" lon="10.0606975"><ele>998.0</ele><time>2026-04-11T13:36:14.023Z</time></trkpt><trkpt lat="46.3141071" lon="10.0608031"><ele>998.0</ele><time>2026-04-11T13:36:15.023Z</time></trkpt><trkpt lat="46.3140245" lon="10.0609051"><ele>998.0</ele><time>2026-04-11T13:36:16.023Z</time></trkpt><trkpt lat="46.3139384" lon="10.0609902"><ele>998.0</ele><time>2026-04-11T13:36:17.022Z</time></trkpt><trkpt lat="46.313855" lon="10.0610776"><ele>997.8</ele><time>2026-04-11T13:36:18.022Z</time></trkpt><trkpt lat="46.3137709" lon="10.06117"><ele>997.5999999999999</ele><time>2026-04-11T13:36:19.022Z</time></trkpt><trkpt lat="46.3136895" lon="10.0612661"><ele>997.4000000000001</ele><time>2026-04-11T13:36:20.023Z</time></trkpt><trkpt lat="46.3136152" lon="10.061362"><ele>997.2</ele><time>2026-04-11T13:36:21.022Z</time></trkpt><trkpt lat="46.3135406" lon="10.0614452"><ele>997.0</ele><time>2026-04-11T13:36:22.023Z</time></trkpt><trkpt lat="46.3134575" lon="10.0615216"><ele>997.0</ele><time>2026-04-11T13:36:23.023Z</time></trkpt><trkpt lat="46.3133683" lon="10.0615911"><ele>997.0</ele><time>2026-04-11T13:36:24.023Z</time></trkpt><trkpt lat="46.3132569" lon="10.0616712"><ele>997.0</ele><time>2026-04-11T13:36:25.023Z</time></trkpt><trkpt lat="46.3131229" lon="10.0617597"><ele>997.0</ele><time>2026-04-11T13:36:26.023Z</time></trkpt><trkpt lat="46.312978" lon="10.0618604"><ele>995.3333333333333</ele><time>2026-04-11T13:36:27.023Z</time></trkpt><trkpt lat="46.3128251" lon="10.0619524"><ele>993.6666666666667</ele><time>2026-04-11T13:36:28.023Z</time></trkpt><trkpt lat="46.3126787" lon="10.062042"><ele>992.0</ele><time>2026-04-11T13:36:29.023Z</time></trkpt><trkpt lat="46.3125397" lon="10.062131"><ele>992.0</ele><time>2026-04-11T13:36:30.022Z</time></trkpt><trkpt lat="46.3124021" lon="10.0622127"><ele>992.0</ele><time>2026-04-11T13:36:31.023Z</time></trkpt><trkpt lat="46.312274" lon="10.0622884"><ele>992.0</ele><time>2026-04-11T13:36:32.023Z</time></trkpt><trkpt lat="46.3121458" lon="10.0623588"><ele>992.0</ele><time>2026-04-11T13:36:33.023Z</time></trkpt><trkpt lat="46.3120212" lon="10.0624295"><ele>990.5</ele><time>2026-04-11T13:36:34.023Z</time></trkpt><trkpt lat="46.3118934" lon="10.0625039"><ele>989.0</ele><time>2026-04-11T13:36:35.023Z</time></trkpt><trkpt lat="46.3117655" lon="10.062583"><ele>987.5</ele><time>2026-04-11T13:36:36.023Z</time></trkpt><trkpt lat="46.3116368" lon="10.0626609"><ele>986.0</ele><time>2026-04-11T13:36:37.023Z</time></trkpt><trkpt lat="46.3115077" lon="10.0627354"><ele>985.75</ele><time>2026-04-11T13:36:38.023Z</time></trkpt><trkpt lat="46.3113713" lon="10.0628042"><ele>985.5</ele><time>2026-04-11T13:36:39.023Z</time></trkpt><trkpt lat="46.3112339" lon="10.062861"><ele>985.25</ele><time>2026-04-11T13:36:40.022Z</time></trkpt><trkpt lat="46.3110988" lon="10.0629244"><ele>985.0</ele><time>2026-04-11T13:36:41.023Z</time></trkpt><trkpt lat="46.3109771" lon="10.0629976"><ele>985.0</ele><time>2026-04-11T13:36:42.023Z</time></trkpt><trkpt lat="46.3108562" lon="10.0630824"><ele>985.0</ele><time>2026-04-11T13:36:43.023Z</time></trkpt><trkpt lat="46.3107347" lon="10.0631746"><ele>985.0</ele><time>2026-04-11T13:36:44.023Z</time></trkpt><trkpt lat="46.3106135" lon="10.0632751"><ele>985.0</ele><time>2026-04-11T13:36:45.023Z</time></trkpt><trkpt lat="46.3104918" lon="10.0633819"><ele>985.0</ele><time>2026-04-11T13:36:46.023Z</time></trkpt><trkpt lat="46.3103537" lon="10.0634823"><ele>985.0</ele><time>2026-04-11T13:36:47.023Z</time></trkpt><trkpt lat="46.3101984" lon="10.0635911"><ele>985.0</ele><time>2026-04-11T13:36:48.023Z</time></trkpt><trkpt lat="46.3100234" lon="10.0637075"><ele>985.0</ele><time>2026-04-11T13:36:49.023Z</time></trkpt><trkpt lat="46.3098329" lon="10.0638313"><ele>985.0</ele><time>2026-04-11T13:36:50.023Z</time></trkpt><trkpt lat="46.3096344" lon="10.0639543"><ele>985.0</ele><time>2026-04-11T13:36:51.023Z</time></trkpt><trkpt lat="46.3094369" lon="10.0640808"><ele>983.6666666666666</ele><time>2026-04-11T13:36:52.022Z</time></trkpt><trkpt lat="46.3092497" lon="10.0641995"><ele>982.3333333333333</ele><time>2026-04-11T13:36:53.023Z</time></trkpt><trkpt lat="46.3090747" lon="10.064306"><ele>981.0</ele><time>2026-04-11T13:36:54.023Z</time></trkpt><trkpt lat="46.3089095" lon="10.064412"><ele>981.3333333333333</ele><time>2026-04-11T13:36:55.023Z</time></trkpt><trkpt lat="46.3087535" lon="10.0645156"><ele>981.6666666666666</ele><time>2026-04-11T13:36:56.023Z</time></trkpt><trkpt lat="46.3085954" lon="10.0646186"><ele>982.0</ele><time>2026-04-11T13:36:57.023Z</time></trkpt><trkpt lat="46.3084333" lon="10.0647223"><ele>982.0</ele><time>2026-04-11T13:36:58.022Z</time></trkpt><trkpt lat="46.3082678" lon="10.0648279"><ele>982.0</ele><time>2026-04-11T13:36:59.022Z</time></trkpt><trkpt lat="46.3081014" lon="10.0649348"><ele>982.0</ele><time>2026-04-11T13:37:00.023Z</time></trkpt><trkpt lat="46.3079379" lon="10.0650407"><ele>981.3333333333333</ele><time>2026-04-11T13:37:01.023Z</time></trkpt><trkpt lat="46.307767" lon="10.0651495"><ele>980.6666666666667</ele><time>2026-04-11T13:37:02.023Z</time></trkpt><trkpt lat="46.3076017" lon="10.0652668"><ele>980.0</ele><time>2026-04-11T13:37:03.023Z</time></trkpt><trkpt lat="46.3074328" lon="10.0653906"><ele>980.0</ele><time>2026-04-11T13:37:04.023Z</time></trkpt><trkpt lat="46.307258" lon="10.0655254"><ele>980.0</ele><time>2026-04-11T13:37:05.023Z</time></trkpt><trkpt lat="46.3070883" lon="10.0656625"><ele>980.0</ele><time>2026-04-11T13:37:06.023Z</time></trkpt><trkpt lat="46.3069196" lon="10.0657935"><ele>979.6666666666667</ele><time>2026-04-11T13:37:07.023Z</time></trkpt><trkpt lat="46.3067491" lon="10.065925"><ele>979.3333333333333</ele><time>2026-04-11T13:37:08.023Z</time></trkpt><trkpt lat="46.3065797" lon="10.0660555"><ele>979.0</ele><time>2026-04-11T13:37:09.023Z</time></trkpt><trkpt lat="46.3064148" lon="10.066181"><ele>980.3333333333333</ele><time>2026-04-11T13:37:10.023Z</time></trkpt><trkpt lat="46.3062528" lon="10.0663056"><ele>981.6666666666667</ele><time>2026-04-11T13:37:11.023Z</time></trkpt><trkpt lat="46.3060924" lon="10.0664239"><ele>983.0</ele><time>2026-04-11T13:37:12.023Z</time></trkpt><trkpt lat="46.3059353" lon="10.0665456"><ele>982.0</ele><time>2026-04-11T13:37:13.023Z</time></trkpt><trkpt lat="46.3057829" lon="10.0666588"><ele>981.0</ele><time>2026-04-11T13:37:14.022Z</time></trkpt><trkpt lat="46.3056293" lon="10.0667696"><ele>980.0</ele><time>2026-04-11T13:37:15.023Z</time></trkpt><trkpt lat="46.3054818" lon="10.0668777"><ele>982.6666666666667</ele><time>2026-04-11T13:37:16.023Z</time></trkpt><trkpt lat="46.3053406" lon="10.0669928"><ele>985.3333333333333</ele><time>2026-04-11T13:37:17.023Z</time></trkpt><trkpt lat="46.305209" lon="10.0671193"><ele>988.0</ele><time>2026-04-11T13:37:18.023Z</time></trkpt><trkpt lat="46.3050917" lon="10.0672777"><ele>985.3333333333333</ele><time>2026-04-11T13:37:19.023Z</time></trkpt><trkpt lat="46.304987" lon="10.0674638"><ele>982.6666666666667</ele><time>2026-04-11T13:37:20.023Z</time></trkpt><trkpt lat="46.304899" lon="10.0676839"><ele>980.0</ele><time>2026-04-11T13:37:21.023Z</time></trkpt><trkpt lat="46.3048202" lon="10.0679344"><ele>984.3333333333334</ele><time>2026-04-11T13:37:22.023Z</time></trkpt><trkpt lat="46.3047309" lon="10.0682222"><ele>988.6666666666667</ele><time>2026-04-11T13:37:23.023Z</time></trkpt><trkpt lat="46.3046328" lon="10.0685252"><ele>993.0</ele><time>2026-04-11T13:37:24.023Z</time></trkpt><trkpt lat="46.3045368" lon="10.0688205"><ele>993.0</ele><time>2026-04-11T13:37:25.023Z</time></trkpt><trkpt lat="46.3044461" lon="10.0691081"><ele>993.0</ele><time>2026-04-11T13:37:26.023Z</time></trkpt><trkpt lat="46.3043509" lon="10.0693934"><ele>993.0</ele><time>2026-04-11T13:37:27.023Z</time></trkpt><trkpt lat="46.3042572" lon="10.0696766"><ele>988.3333333333333</ele><time>2026-04-11T13:37:28.023Z</time></trkpt><trkpt lat="46.3041652" lon="10.0699491"><ele>983.6666666666666</ele><time>2026-04-11T13:37:29.023Z</time></trkpt><trkpt lat="46.3040697" lon="10.0702037"><ele>979.0</ele><time>2026-04-11T13:37:30.023Z</time></trkpt><trkpt lat="46.3039691" lon="10.070433"><ele>980.0</ele><time>2026-04-11T13:37:31.022Z</time></trkpt><trkpt lat="46.3038489" lon="10.0706345"><ele>981.0</ele><time>2026-04-11T13:37:32.022Z</time></trkpt><trkpt lat="46.303723" lon="10.0708039"><ele>982.0</ele><time>2026-04-11T13:37:33.023Z</time></trkpt><trkpt lat="46.3035765" lon="10.0709491"><ele>982.0</ele><time>2026-04-11T13:37:34.023Z</time></trkpt><trkpt lat="46.303427" lon="10.0710632"><ele>982.0</ele><time>2026-04-11T13:37:35.023Z</time></trkpt><trkpt lat="46.3032606" lon="10.0711447"><ele>982.0</ele><time>2026-04-11T13:37:36.023Z</time></trkpt><trkpt lat="46.303074" lon="10.0712084"><ele>983.6666666666666</ele><time>2026-04-11T13:37:37.023Z</time></trkpt><trkpt lat="46.3028686" lon="10.0712579"><ele>985.3333333333333</ele><time>2026-04-11T13:37:38.023Z</time></trkpt><trkpt lat="46.3026473" lon="10.0713126"><ele>987.0</ele><time>2026-04-11T13:37:39.023Z</time></trkpt><trkpt lat="46.3024273" lon="10.0713655"><ele>989.6666666666667</ele><time>2026-04-11T13:37:40.023Z</time></trkpt><trkpt lat="46.3022191" lon="10.0714199"><ele>992.3333333333334</ele><time>2026-04-11T13:37:41.023Z</time></trkpt><trkpt lat="46.3020285" lon="10.0714702"><ele>995.0</ele><time>2026-04-11T13:37:42.023Z</time></trkpt><trkpt lat="46.3018424" lon="10.0715193"><ele>995.0</ele><time>2026-04-11T13:37:43.023Z</time></trkpt><trkpt lat="46.3016608" lon="10.0715603"><ele>995.0</ele><time>2026-04-11T13:37:44.023Z</time></trkpt><trkpt lat="46.3014791" lon="10.0716107"><ele>995.0</ele><time>2026-04-11T13:37:45.023Z</time></trkpt><trkpt lat="46.3012988" lon="10.0716705"><ele>996.6666666666667</ele><time>2026-04-11T13:37:46.023Z</time></trkpt><trkpt lat="46.3011203" lon="10.0717656"><ele>998.3333333333333</ele><time>2026-04-11T13:37:47.023Z</time></trkpt><trkpt lat="46.3009416" lon="10.0719051"><ele>1000.0</ele><time>2026-04-11T13:37:48.023Z</time></trkpt><trkpt lat="46.3007524" lon="10.0720916"><ele>999.5</ele><time>2026-04-11T13:37:49.022Z</time></trkpt><trkpt lat="46.3005571" lon="10.0722949"><ele>999.0</ele><time>2026-04-11T13:37:50.023Z</time></trkpt><trkpt lat="46.3003613" lon="10.0724962"><ele>999.0</ele><time>2026-04-11T13:37:51.022Z</time></trkpt><trkpt lat="46.3001749" lon="10.0726782"><ele>999.0</ele><time>2026-04-11T13:37:52.023Z</time></trkpt><trkpt lat="46.2999975" lon="10.0728471"><ele>999.0</ele><time>2026-04-11T13:37:53.023Z</time></trkpt><trkpt lat="46.2998269" lon="10.0730087"><ele>1000.6666666666667</ele><time>2026-04-11T13:37:54.023Z</time></trkpt><trkpt lat="46.2996616" lon="10.0731624"><ele>1002.3333333333334</ele><time>2026-04-11T13:37:55.023Z</time></trkpt><trkpt lat="46.2995009" lon="10.0733086"><ele>1004.0</ele><time>2026-04-11T13:37:56.023Z</time></trkpt><trkpt lat="46.2993491" lon="10.0734488"><ele>996.6666666666667</ele><time>2026-04-11T13:37:57.023Z</time></trkpt><trkpt lat="46.2992018" lon="10.0735834"><ele>989.3333333333333</ele><time>2026-04-11T13:37:58.023Z</time></trkpt><trkpt lat="46.2990529" lon="10.0737186"><ele>982.0</ele><time>2026-04-11T13:37:59.023Z</time></trkpt><trkpt lat="46.2989011" lon="10.0738579"><ele>981.0</ele><time>2026-04-11T13:38:00.023Z</time></trkpt><trkpt lat="46.2987503" lon="10.0740046"><ele>980.0</ele><time>2026-04-11T13:38:01.023Z</time></trkpt><trkpt lat="46.2985953" lon="10.0741507"><ele>979.0</ele><time>2026-04-11T13:38:02.023Z</time></trkpt><trkpt lat="46.2984403" lon="10.0743016"><ele>976.0</ele><time>2026-04-11T13:38:03.023Z</time></trkpt><trkpt lat="46.2982789" lon="10.0744539"><ele>973.0</ele><time>2026-04-11T13:38:04.023Z</time></trkpt><trkpt lat="46.2981155" lon="10.0746059"><ele>970.0</ele><time>2026-04-11T13:38:05.023Z</time></trkpt><trkpt lat="46.2979463" lon="10.0747657"><ele>970.0</ele><time>2026-04-11T13:38:06.023Z</time></trkpt><trkpt lat="46.2977811" lon="10.0749293"><ele>970.0</ele><time>2026-04-11T13:38:07.023Z</time></trkpt><trkpt lat="46.2976212" lon="10.0750894"><ele>970.0</ele><time>2026-04-11T13:38:08.023Z</time></trkpt><trkpt lat="46.2974654" lon="10.0752433"><ele>969.6666666666666</ele><time>2026-04-11T13:38:09.023Z</time></trkpt><trkpt lat="46.2973104" lon="10.0753868"><ele>969.3333333333333</ele><time>2026-04-11T13:38:10.023Z</time></trkpt><trkpt lat="46.2971578" lon="10.0755274"><ele>969.0</ele><time>2026-04-11T13:38:11.023Z</time></trkpt><trkpt lat="46.2970092" lon="10.0756675"><ele>968.0</ele><time>2026-04-11T13:38:12.023Z</time></trkpt><trkpt lat="46.2968649" lon="10.075801"><ele>967.0</ele><time>2026-04-11T13:38:13.023Z</time></trkpt><trkpt lat="46.2967253" lon="10.0759339"><ele>966.0</ele><time>2026-04-11T13:38:14.023Z</time></trkpt><trkpt lat="46.2965862" lon="10.076068"><ele>966.0</ele><time>2026-04-11T13:38:15.023Z</time></trkpt><trkpt lat="46.2964431" lon="10.0762063"><ele>966.0</ele><time>2026-04-11T13:38:16.023Z</time></trkpt><trkpt lat="46.2963008" lon="10.0763385"><ele>966.0</ele><time>2026-04-11T13:38:17.023Z</time></trkpt><trkpt lat="46.296165" lon="10.0764656"><ele>966.0</ele><time>2026-04-11T13:38:18.022Z</time></trkpt><trkpt lat="46.2960383" lon="10.0765891"><ele>966.0</ele><time>2026-04-11T13:38:19.023Z</time></trkpt><trkpt lat="46.2959148" lon="10.0767053"><ele>966.0</ele><time>2026-04-11T13:38:20.023Z</time></trkpt><trkpt lat="46.2957841" lon="10.076831"><ele>966.5</ele><time>2026-04-11T13:38:21.023Z</time></trkpt><trkpt lat="46.2956566" lon="10.0769578"><ele>967.0</ele><time>2026-04-11T13:38:22.022Z</time></trkpt><trkpt lat="46.2955302" lon="10.0770796"><ele>967.5</ele><time>2026-04-11T13:38:23.023Z</time></trkpt><trkpt lat="46.2954153" lon="10.0771963"><ele>968.0</ele><time>2026-04-11T13:38:24.023Z</time></trkpt><trkpt lat="46.2953002" lon="10.0773101"><ele>968.0</ele><time>2026-04-11T13:38:25.023Z</time></trkpt><trkpt lat="46.2951847" lon="10.0774184"><ele>968.0</ele><time>2026-04-11T13:38:26.023Z</time></trkpt><trkpt lat="46.2950636" lon="10.0775125"><ele>968.0</ele><time>2026-04-11T13:38:27.023Z</time></trkpt><trkpt lat="46.2949341" lon="10.0775942"><ele>968.0</ele><time>2026-04-11T13:38:28.023Z</time></trkpt><trkpt lat="46.2947924" lon="10.0776651"><ele>967.3333333333334</ele><time>2026-04-11T13:38:29.023Z</time></trkpt><trkpt lat="46.2946394" lon="10.077701"><ele>966.6666666666667</ele><time>2026-04-11T13:38:30.023Z</time></trkpt><trkpt lat="46.2944776" lon="10.0777322"><ele>966.0</ele><time>2026-04-11T13:38:31.023Z</time></trkpt><trkpt lat="46.2943193" lon="10.0777528"><ele>966.0</ele><time>2026-04-11T13:38:32.023Z</time></trkpt><trkpt lat="46.2941486" lon="10.0777705"><ele>966.0</ele><time>2026-04-11T13:38:33.023Z</time></trkpt><trkpt lat="46.2939737" lon="10.0777922"><ele>966.0</ele><time>2026-04-11T13:38:34.023Z</time></trkpt><trkpt lat="46.2938039" lon="10.0778113"><ele>966.0</ele><time>2026-04-11T13:38:35.023Z</time></trkpt><trkpt lat="46.2936469" lon="10.0778312"><ele>966.0</ele><time>2026-04-11T13:38:36.023Z</time></trkpt><trkpt lat="46.2934955" lon="10.0778447"><ele>966.0</ele><time>2026-04-11T13:38:37.022Z</time></trkpt><trkpt lat="46.2933479" lon="10.0778664"><ele>966.0</ele><time>2026-04-11T13:38:38.023Z</time></trkpt><trkpt lat="46.2932134" lon="10.0778856"><ele>966.0</ele><time>2026-04-11T13:38:39.023Z</time></trkpt><trkpt lat="46.2930941" lon="10.0779004"><ele>966.0</ele><time>2026-04-11T13:38:40.023Z</time></trkpt><trkpt lat="46.2929827" lon="10.077913"><ele>966.0</ele><time>2026-04-11T13:38:41.023Z</time></trkpt><trkpt lat="46.2928786" lon="10.0779215"><ele>966.1999999999999</ele><time>2026-04-11T13:38:42.023Z</time></trkpt><trkpt lat="46.2927752" lon="10.0779318"><ele>966.3999999999999</ele><time>2026-04-11T13:38:43.023Z</time></trkpt><trkpt lat="46.2926772" lon="10.0779409"><ele>966.6</ele><time>2026-04-11T13:38:44.023Z</time></trkpt><trkpt lat="46.2925826" lon="10.0779492"><ele>966.8</ele><time>2026-04-11T13:38:45.023Z</time></trkpt><trkpt lat="46.2924897" lon="10.0779524"><ele>967.0</ele><time>2026-04-11T13:38:46.023Z</time></trkpt><trkpt lat="46.2923929" lon="10.0779646"><ele>967.0</ele><time>2026-04-11T13:38:47.022Z</time></trkpt><trkpt lat="46.2922831" lon="10.0779757"><ele>967.0</ele><time>2026-04-11T13:38:48.023Z</time></trkpt><trkpt lat="46.2921607" lon="10.0779881"><ele>967.0</ele><time>2026-04-11T13:38:49.023Z</time></trkpt><trkpt lat="46.292023" lon="10.0780013"><ele>967.0</ele><time>2026-04-11T13:38:50.023Z</time></trkpt><trkpt lat="46.2918872" lon="10.0780194"><ele>968.5</ele><time>2026-04-11T13:38:51.023Z</time></trkpt><trkpt lat="46.2917559" lon="10.0780321"><ele>970.0</ele><time>2026-04-11T13:38:52.023Z</time></trkpt><trkpt lat="46.2916297" lon="10.0780447"><ele>971.5</ele><time>2026-04-11T13:38:53.022Z</time></trkpt><trkpt lat="46.2915075" lon="10.0780625"><ele>973.0</ele><time>2026-04-11T13:38:54.023Z</time></trkpt><trkpt lat="46.2913843" lon="10.0780789"><ele>978.75</ele><time>2026-04-11T13:38:55.023Z</time></trkpt><trkpt lat="46.2912553" lon="10.0780861"><ele>984.5</ele><time>2026-04-11T13:38:56.023Z</time></trkpt><trkpt lat="46.2911175" lon="10.0780917"><ele>990.25</ele><time>2026-04-11T13:38:57.023Z</time></trkpt><trkpt lat="46.2909793" lon="10.0780926"><ele>996.0</ele><time>2026-04-11T13:38:58.023Z</time></trkpt><trkpt lat="46.2908341" lon="10.0780988"><ele>996.0</ele><time>2026-04-11T13:38:59.023Z</time></trkpt><trkpt lat="46.290691" lon="10.0781104"><ele>996.0</ele><time>2026-04-11T13:39:00.023Z</time></trkpt><trkpt lat="46.2905499" lon="10.0781228"><ele>996.0</ele><time>2026-04-11T13:39:01.022Z</time></trkpt><trkpt lat="46.2904048" lon="10.078142"><ele>996.0</ele><time>2026-04-11T13:39:02.023Z</time></trkpt><trkpt lat="46.2902545" lon="10.0781628"><ele>1002.0</ele><time>2026-04-11T13:39:03.023Z</time></trkpt><trkpt lat="46.2901025" lon="10.0781844"><ele>1008.0</ele><time>2026-04-11T13:39:04.023Z</time></trkpt><trkpt lat="46.2899469" lon="10.0782138"><ele>1014.0</ele><time>2026-04-11T13:39:05.023Z</time></trkpt><trkpt lat="46.2897886" lon="10.0782457"><ele>1003.3333333333333</ele><time>2026-04-11T13:39:06.023Z</time></trkpt><trkpt lat="46.2896267" lon="10.078272"><ele>992.6666666666666</ele><time>2026-04-11T13:39:07.022Z</time></trkpt><trkpt lat="46.2894673" lon="10.0782943"><ele>982.0</ele><time>2026-04-11T13:39:08.023Z</time></trkpt><trkpt lat="46.2893104" lon="10.0783031"><ele>982.0</ele><time>2026-04-11T13:39:09.023Z</time></trkpt><trkpt lat="46.2891567" lon="10.0782986"><ele>982.0</ele><time>2026-04-11T13:39:10.023Z</time></trkpt><trkpt lat="46.2890084" lon="10.0782847"><ele>982.0</ele><time>2026-04-11T13:39:11.023Z</time></trkpt><trkpt lat="46.2888716" lon="10.0782814"><ele>982.0</ele><time>2026-04-11T13:39:12.023Z</time></trkpt><trkpt lat="46.2887354" lon="10.0783155"><ele>979.25</ele><time>2026-04-11T13:39:13.023Z</time></trkpt><trkpt lat="46.2886063" lon="10.0783857"><ele>976.5</ele><time>2026-04-11T13:39:14.023Z</time></trkpt><trkpt lat="46.2884811" lon="10.078489"><ele>973.75</ele><time>2026-04-11T13:39:15.023Z</time></trkpt><trkpt lat="46.2883804" lon="10.0786317"><ele>971.0</ele><time>2026-04-11T13:39:16.023Z</time></trkpt><trkpt lat="46.2882859" lon="10.0787831"><ele>971.0</ele><time>2026-04-11T13:39:17.023Z</time></trkpt><trkpt lat="46.2881851" lon="10.0789453"><ele>971.0</ele><time>2026-04-11T13:39:18.023Z</time></trkpt><trkpt lat="46.2880789" lon="10.0791074"><ele>971.0</ele><time>2026-04-11T13:39:19.023Z</time></trkpt><trkpt lat="46.2879588" lon="10.0792635"><ele>972.0</ele><time>2026-04-11T13:39:20.023Z</time></trkpt><trkpt lat="46.2878249" lon="10.0794062"><ele>973.0</ele><time>2026-04-11T13:39:21.023Z</time></trkpt><trkpt lat="46.2876795" lon="10.0795294"><ele>974.0</ele><time>2026-04-11T13:39:22.023Z</time></trkpt><trkpt lat="46.2875246" lon="10.0796439"><ele>974.0</ele><time>2026-04-11T13:39:23.022Z</time></trkpt><trkpt lat="46.2873737" lon="10.0797529"><ele>974.0</ele><time>2026-04-11T13:39:24.023Z</time></trkpt><trkpt lat="46.2872333" lon="10.0798462"><ele>974.0</ele><time>2026-04-11T13:39:25.022Z</time></trkpt><trkpt lat="46.2870919" lon="10.0799433"><ele>973.6666666666667</ele><time>2026-04-11T13:39:26.022Z</time></trkpt><trkpt lat="46.2869459" lon="10.0800378"><ele>973.3333333333333</ele><time>2026-04-11T13:39:27.023Z</time></trkpt><trkpt lat="46.2867979" lon="10.0801379"><ele>973.0</ele><time>2026-04-11T13:39:28.023Z</time></trkpt><trkpt lat="46.2866467" lon="10.0802477"><ele>973.0</ele><time>2026-04-11T13:39:29.022Z</time></trkpt><trkpt lat="46.2864963" lon="10.0803668"><ele>973.0</ele><time>2026-04-11T13:39:30.023Z</time></trkpt><trkpt lat="46.2863444" lon="10.0804969"><ele>973.0</ele><time>2026-04-11T13:39:31.023Z</time></trkpt><trkpt lat="46.2861941" lon="10.0806322"><ele>971.0</ele><time>2026-04-11T13:39:32.023Z</time></trkpt><trkpt lat="46.2860385" lon="10.080766"><ele>969.0</ele><time>2026-04-11T13:39:33.022Z</time></trkpt><trkpt lat="46.2858819" lon="10.0808896"><ele>967.0</ele><time>2026-04-11T13:39:34.023Z</time></trkpt><trkpt lat="46.2857233" lon="10.0809965"><ele>970.3333333333333</ele><time>2026-04-11T13:39:35.023Z</time></trkpt><trkpt lat="46.2855607" lon="10.0810728"><ele>973.6666666666667</ele><time>2026-04-11T13:39:36.023Z</time></trkpt><trkpt lat="46.2853861" lon="10.0811223"><ele>977.0</ele><time>2026-04-11T13:39:37.023Z</time></trkpt><trkpt lat="46.2852091" lon="10.0811484"><ele>977.0</ele><time>2026-04-11T13:39:38.023Z</time></trkpt><trkpt lat="46.285038" lon="10.0811309"><ele>977.0</ele><time>2026-04-11T13:39:39.023Z</time></trkpt><trkpt lat="46.284878" lon="10.0811151"><ele>977.0</ele><time>2026-04-11T13:39:40.023Z</time></trkpt><trkpt lat="46.2847155" lon="10.0811288"><ele>987.3333333333334</ele><time>2026-04-11T13:39:41.023Z</time></trkpt><trkpt lat="46.2845518" lon="10.0811903"><ele>997.6666666666667</ele><time>2026-04-11T13:39:42.023Z</time></trkpt><trkpt lat="46.2843818" lon="10.0812931"><ele>1008.0</ele><time>2026-04-11T13:39:43.023Z</time></trkpt><trkpt lat="46.2842231" lon="10.0814449"><ele>1011.6666666666667</ele><time>2026-04-11T13:39:44.023Z</time></trkpt><trkpt lat="46.2840591" lon="10.0816188"><ele>1015.3333333333334</ele><time>2026-04-11T13:39:45.022Z</time></trkpt><trkpt lat="46.2838826" lon="10.0817851"><ele>1019.0</ele><time>2026-04-11T13:39:46.022Z</time></trkpt><trkpt lat="46.2836894" lon="10.0819125"><ele>1019.0</ele><time>2026-04-11T13:39:47.022Z</time></trkpt><trkpt lat="46.2834754" lon="10.0820476"><ele>1019.0</ele><time>2026-04-11T13:39:48.023Z</time></trkpt><trkpt lat="46.2832652" lon="10.0821972"><ele>1033.0</ele><time>2026-04-11T13:39:49.023Z</time></trkpt><trkpt lat="46.2830698" lon="10.0823769"><ele>1047.0</ele><time>2026-04-11T13:39:50.023Z</time></trkpt><trkpt lat="46.2828985" lon="10.0825741"><ele>1047.0</ele><time>2026-04-11T13:39:51.023Z</time></trkpt><trkpt lat="46.2827468" lon="10.0827911"><ele>1047.0</ele><time>2026-04-11T13:39:52.023Z</time></trkpt><trkpt lat="46.2826106" lon="10.0830217"><ele>1047.0</ele><time>2026-04-11T13:39:53.022Z</time></trkpt><trkpt lat="46.2824921" lon="10.0832517"><ele>1046.0</ele><time>2026-04-11T13:39:54.023Z</time></trkpt><trkpt lat="46.2823758" lon="10.0834734"><ele>1045.0</ele><time>2026-04-11T13:39:55.023Z</time></trkpt><trkpt lat="46.2822537" lon="10.0836608"><ele>1044.0</ele><time>2026-04-11T13:39:56.023Z</time></trkpt><trkpt lat="46.2821172" lon="10.0838194"><ele>1044.0</ele><time>2026-04-11T13:39:57.023Z</time></trkpt><trkpt lat="46.2819582" lon="10.0839515"><ele>1044.0</ele><time>2026-04-11T13:39:58.023Z</time></trkpt><trkpt lat="46.2817704" lon="10.0840737"><ele>1044.0</ele><time>2026-04-11T13:39:59.022Z</time></trkpt><trkpt lat="46.2815654" lon="10.0841986"><ele>1036.0</ele><time>2026-04-11T13:40:00.023Z</time></trkpt><trkpt lat="46.2813542" lon="10.0843254"><ele>1028.0</ele><time>2026-04-11T13:40:01.023Z</time></trkpt><trkpt lat="46.2811438" lon="10.0844617"><ele>1028.0</ele><time>2026-04-11T13:40:02.023Z</time></trkpt><trkpt lat="46.2809391" lon="10.0846006"><ele>1028.0</ele><time>2026-04-11T13:40:03.023Z</time></trkpt><trkpt lat="46.2807433" lon="10.0847479"><ele>1028.0</ele><time>2026-04-11T13:40:04.023Z</time></trkpt><trkpt lat="46.280552" lon="10.0849085"><ele>1029.5</ele><time>2026-04-11T13:40:05.023Z</time></trkpt><trkpt lat="46.2803661" lon="10.0850895"><ele>1031.0</ele><time>2026-04-11T13:40:06.023Z</time></trkpt><trkpt lat="46.2801851" lon="10.085285"><ele>1031.0</ele><time>2026-04-11T13:40:07.023Z</time></trkpt><trkpt lat="46.2800037" lon="10.0854851"><ele>1031.0</ele><time>2026-04-11T13:40:08.023Z</time></trkpt><trkpt lat="46.279819" lon="10.085685"><ele>1030.3333333333335</ele><time>2026-04-11T13:40:09.023Z</time></trkpt><trkpt lat="46.279637" lon="10.0858815"><ele>1029.6666666666667</ele><time>2026-04-11T13:40:10.023Z</time></trkpt><trkpt lat="46.2794584" lon="10.086068"><ele>1029.0</ele><time>2026-04-11T13:40:11.023Z</time></trkpt><trkpt lat="46.2792944" lon="10.086239"><ele>1029.0</ele><time>2026-04-11T13:40:12.023Z</time></trkpt><trkpt lat="46.2791459" lon="10.0864142"><ele>1029.0</ele><time>2026-04-11T13:40:13.023Z</time></trkpt><trkpt lat="46.2790219" lon="10.0866037"><ele>1029.0</ele><time>2026-04-11T13:40:14.023Z</time></trkpt><trkpt lat="46.2789157" lon="10.0868314"><ele>1030.3333333333333</ele><time>2026-04-11T13:40:15.023Z</time></trkpt><trkpt lat="46.2788341" lon="10.0870846"><ele>1031.6666666666665</ele><time>2026-04-11T13:40:16.023Z</time></trkpt><trkpt lat="46.2787612" lon="10.0873271"><ele>1033.0</ele><time>2026-04-11T13:40:17.023Z</time></trkpt><trkpt lat="46.2786769" lon="10.0875393"><ele>1024.0</ele><time>2026-04-11T13:40:18.022Z</time></trkpt><trkpt lat="46.2785551" lon="10.0877274"><ele>1015.0</ele><time>2026-04-11T13:40:19.023Z</time></trkpt><trkpt lat="46.2784149" lon="10.0878935"><ele>1006.0</ele><time>2026-04-11T13:40:20.023Z</time></trkpt><trkpt lat="46.2782467" lon="10.0880324"><ele>1008.0</ele><time>2026-04-11T13:40:21.023Z</time></trkpt><trkpt lat="46.2780607" lon="10.0881447"><ele>1010.0</ele><time>2026-04-11T13:40:22.023Z</time></trkpt><trkpt lat="46.2778749" lon="10.0882981"><ele>1012.0</ele><time>2026-04-11T13:40:23.022Z</time></trkpt><trkpt lat="46.2776958" lon="10.0885095"><ele>1012.0</ele><time>2026-04-11T13:40:24.023Z</time></trkpt><trkpt lat="46.2775077" lon="10.0887395"><ele>1012.0</ele><time>2026-04-11T13:40:25.022Z</time></trkpt><trkpt lat="46.2773062" lon="10.0889503"><ele>1018.5</ele><time>2026-04-11T13:40:26.022Z</time></trkpt><trkpt lat="46.2770948" lon="10.0891203"><ele>1025.0</ele><time>2026-04-11T13:40:27.022Z</time></trkpt><trkpt lat="46.2768944" lon="10.0892668"><ele>1025.0</ele><time>2026-04-11T13:40:28.022Z</time></trkpt><trkpt lat="46.276716" lon="10.0894081"><ele>1025.0</ele><time>2026-04-11T13:40:29.023Z</time></trkpt><trkpt lat="46.2765494" lon="10.0895615"><ele>1025.0</ele><time>2026-04-11T13:40:30.023Z</time></trkpt><trkpt lat="46.2764047" lon="10.0897527"><ele>1020.3333333333334</ele><time>2026-04-11T13:40:31.023Z</time></trkpt><trkpt lat="46.2762867" lon="10.0899884"><ele>1015.6666666666667</ele><time>2026-04-11T13:40:32.023Z</time></trkpt><trkpt lat="46.2762082" lon="10.0902406"><ele>1011.0</ele><time>2026-04-11T13:40:33.023Z</time></trkpt><trkpt lat="46.2761541" lon="10.0905127"><ele>1002.0</ele><time>2026-04-11T13:40:34.023Z</time></trkpt><trkpt lat="46.2761122" lon="10.0908027"><ele>993.0</ele><time>2026-04-11T13:40:35.022Z</time></trkpt><trkpt lat="46.2760866" lon="10.0910907"><ele>984.0</ele><time>2026-04-11T13:40:36.023Z</time></trkpt><trkpt lat="46.2760513" lon="10.0913631"><ele>981.0</ele><time>2026-04-11T13:40:37.023Z</time></trkpt><trkpt lat="46.2759975" lon="10.0916195"><ele>978.0</ele><time>2026-04-11T13:40:38.023Z</time></trkpt><trkpt lat="46.2759154" lon="10.0918431"><ele>975.0</ele><time>2026-04-11T13:40:39.023Z</time></trkpt><trkpt lat="46.2758071" lon="10.0920501"><ele>975.0</ele><time>2026-04-11T13:40:40.023Z</time></trkpt><trkpt lat="46.2756791" lon="10.09221"><ele>975.0</ele><time>2026-04-11T13:40:41.023Z</time></trkpt><trkpt lat="46.2755437" lon="10.0923435"><ele>975.0</ele><time>2026-04-11T13:40:42.022Z</time></trkpt><trkpt lat="46.2753818" lon="10.0924385"><ele>974.6666666666667</ele><time>2026-04-11T13:40:43.023Z</time></trkpt><trkpt lat="46.2752226" lon="10.0925256"><ele>974.3333333333334</ele><time>2026-04-11T13:40:44.023Z</time></trkpt><trkpt lat="46.2750673" lon="10.0926173"><ele>974.0</ele><time>2026-04-11T13:40:45.023Z</time></trkpt><trkpt lat="46.2749312" lon="10.0927126"><ele>974.0</ele><time>2026-04-11T13:40:46.023Z</time></trkpt><trkpt lat="46.2748089" lon="10.0928367"><ele>974.0</ele><time>2026-04-11T13:40:47.023Z</time></trkpt><trkpt lat="46.2746969" lon="10.0930029"><ele>974.0</ele><time>2026-04-11T13:40:48.023Z</time></trkpt><trkpt lat="46.2746027" lon="10.0931961"><ele>987.3333333333334</ele><time>2026-04-11T13:40:49.023Z</time></trkpt><trkpt lat="46.2745249" lon="10.0934283"><ele>1000.6666666666667</ele><time>2026-04-11T13:40:50.023Z</time></trkpt><trkpt lat="46.2744504" lon="10.0936512"><ele>1014.0</ele><time>2026-04-11T13:40:51.023Z</time></trkpt><trkpt lat="46.27438" lon="10.0938554"><ele>1014.0</ele><time>2026-04-11T13:40:52.023Z</time></trkpt><trkpt lat="46.2743078" lon="10.0940556"><ele>1014.0</ele><time>2026-04-11T13:40:53.022Z</time></trkpt><trkpt lat="46.2742395" lon="10.0942469"><ele>1014.0</ele><time>2026-04-11T13:40:54.023Z</time></trkpt><trkpt lat="46.2741805" lon="10.0944308"><ele>1014.0</ele><time>2026-04-11T13:40:55.023Z</time></trkpt><trkpt lat="46.2741233" lon="10.0946091"><ele>1017.5</ele><time>2026-04-11T13:40:56.023Z</time></trkpt><trkpt lat="46.2740659" lon="10.0947937"><ele>1021.0</ele><time>2026-04-11T13:40:57.023Z</time></trkpt><trkpt lat="46.2740053" lon="10.0949792"><ele>1024.5</ele><time>2026-04-11T13:40:58.023Z</time></trkpt><trkpt lat="46.2739431" lon="10.0951777"><ele>1028.0</ele><time>2026-04-11T13:40:59.023Z</time></trkpt><trkpt lat="46.273876" lon="10.0954024"><ele>1028.0</ele><time>2026-04-11T13:41:00.023Z</time></trkpt><trkpt lat="46.2738068" lon="10.0956274"><ele>1028.0</ele><time>2026-04-11T13:41:01.023Z</time></trkpt><trkpt lat="46.2737325" lon="10.095844"><ele>1028.0</ele><time>2026-04-11T13:41:02.023Z</time></trkpt><trkpt lat="46.2736584" lon="10.0960523"><ele>1021.0</ele><time>2026-04-11T13:41:03.023Z</time></trkpt><trkpt lat="46.2735728" lon="10.0962573"><ele>1014.0</ele><time>2026-04-11T13:41:04.023Z</time></trkpt><trkpt lat="46.2734825" lon="10.0964586"><ele>1007.0</ele><time>2026-04-11T13:41:05.023Z</time></trkpt><trkpt lat="46.2733909" lon="10.0966661"><ele>998.6666666666667</ele><time>2026-04-11T13:41:06.023Z</time></trkpt><trkpt lat="46.2732996" lon="10.0968627"><ele>990.3333333333333</ele><time>2026-04-11T13:41:07.022Z</time></trkpt><trkpt lat="46.2732123" lon="10.0970477"><ele>982.0</ele><time>2026-04-11T13:41:08.022Z</time></trkpt><trkpt lat="46.2731234" lon="10.0972131"><ele>984.25</ele><time>2026-04-11T13:41:09.022Z</time></trkpt><trkpt lat="46.2730349" lon="10.0973772"><ele>986.5</ele><time>2026-04-11T13:41:10.022Z</time></trkpt><trkpt lat="46.272962" lon="10.0975301"><ele>988.75</ele><time>2026-04-11T13:41:11.022Z</time></trkpt><trkpt lat="46.2728964" lon="10.09767"><ele>991.0</ele><time>2026-04-11T13:41:12.022Z</time></trkpt><trkpt lat="46.2728378" lon="10.0978131"><ele>991.0</ele><time>2026-04-11T13:41:13.022Z</time></trkpt><trkpt lat="46.272782" lon="10.0979574"><ele>991.0</ele><time>2026-04-11T13:41:14.022Z</time></trkpt><trkpt lat="46.2727327" lon="10.0981268"><ele>991.0</ele><time>2026-04-11T13:41:15.022Z</time></trkpt><trkpt lat="46.2726957" lon="10.0983203"><ele>991.0</ele><time>2026-04-11T13:41:16.022Z</time></trkpt><trkpt lat="46.272674" lon="10.0985133"><ele>987.25</ele><time>2026-04-11T13:41:17.022Z</time></trkpt><trkpt lat="46.272679" lon="10.0987059"><ele>983.5</ele><time>2026-04-11T13:41:18.022Z</time></trkpt><trkpt lat="46.2727006" lon="10.0989018"><ele>979.75</ele><time>2026-04-11T13:41:19.022Z</time></trkpt><trkpt lat="46.2727227" lon="10.0990919"><ele>976.0</ele><time>2026-04-11T13:41:20.022Z</time></trkpt><trkpt lat="46.2727451" lon="10.0992613"><ele>975.5999999999999</ele><time>2026-04-11T13:41:21.022Z</time></trkpt><trkpt lat="46.2727637" lon="10.0994306"><ele>975.1999999999999</ele><time>2026-04-11T13:41:22.022Z</time></trkpt><trkpt lat="46.2727842" lon="10.0995901"><ele>974.8000000000001</ele><time>2026-04-11T13:41:23.022Z</time></trkpt><trkpt lat="46.2728005" lon="10.0997389"><ele>974.4000000000001</ele><time>2026-04-11T13:41:24.022Z</time></trkpt><trkpt lat="46.2728144" lon="10.0998911"><ele>974.0</ele><time>2026-04-11T13:41:25.022Z</time></trkpt><trkpt lat="46.2728296" lon="10.1000419"><ele>975.2</ele><time>2026-04-11T13:41:26.022Z</time></trkpt><trkpt lat="46.2728414" lon="10.1001919"><ele>976.4000000000001</ele><time>2026-04-11T13:41:27.022Z</time></trkpt><trkpt lat="46.2728536" lon="10.1003496"><ele>977.6</ele><time>2026-04-11T13:41:28.022Z</time></trkpt><trkpt lat="46.2728624" lon="10.1005042"><ele>978.8</ele><time>2026-04-11T13:41:29.022Z</time></trkpt><trkpt lat="46.2728768" lon="10.100677"><ele>980.0</ele><time>2026-04-11T13:41:30.022Z</time></trkpt><trkpt lat="46.2728809" lon="10.100864"><ele>980.75</ele><time>2026-04-11T13:41:31.022Z</time></trkpt><trkpt lat="46.2728879" lon="10.1010784"><ele>981.5</ele><time>2026-04-11T13:41:32.022Z</time></trkpt><trkpt lat="46.2728814" lon="10.1012836"><ele>982.25</ele><time>2026-04-11T13:41:33.022Z</time></trkpt><trkpt lat="46.2728653" lon="10.1015005"><ele>983.0</ele><time>2026-04-11T13:41:34.021Z</time></trkpt><trkpt lat="46.2728411" lon="10.1017383"><ele>983.6666666666667</ele><time>2026-04-11T13:41:35.022Z</time></trkpt><trkpt lat="46.2728041" lon="10.1019746"><ele>984.3333333333333</ele><time>2026-04-11T13:41:36.022Z</time></trkpt><trkpt lat="46.2727573" lon="10.1022107"><ele>985.0</ele><time>2026-04-11T13:41:37.021Z</time></trkpt><trkpt lat="46.2726938" lon="10.1024378"><ele>982.3333333333333</ele><time>2026-04-11T13:41:38.022Z</time></trkpt><trkpt lat="46.2726192" lon="10.1026548"><ele>979.6666666666667</ele><time>2026-04-11T13:41:39.022Z</time></trkpt><trkpt lat="46.2725354" lon="10.1028554"><ele>977.0</ele><time>2026-04-11T13:41:40.021Z</time></trkpt><trkpt lat="46.2724415" lon="10.1030443"><ele>977.0</ele><time>2026-04-11T13:41:41.022Z</time></trkpt><trkpt lat="46.2723426" lon="10.1032132"><ele>977.0</ele><time>2026-04-11T13:41:42.022Z</time></trkpt><trkpt lat="46.2722393" lon="10.1033624"><ele>977.0</ele><time>2026-04-11T13:41:43.022Z</time></trkpt><trkpt lat="46.2721266" lon="10.103505"><ele>977.0</ele><time>2026-04-11T13:41:44.022Z</time></trkpt><trkpt lat="46.2720106" lon="10.1036287"><ele>976.25</ele><time>2026-04-11T13:41:45.021Z</time></trkpt><trkpt lat="46.2718999" lon="10.1037456"><ele>975.5</ele><time>2026-04-11T13:41:46.022Z</time></trkpt><trkpt lat="46.2717898" lon="10.1038727"><ele>974.75</ele><time>2026-04-11T13:41:47.022Z</time></trkpt><trkpt lat="46.271691" lon="10.1040036"><ele>974.0</ele><time>2026-04-11T13:41:48.022Z</time></trkpt><trkpt lat="46.2715977" lon="10.1041475"><ele>974.0</ele><time>2026-04-11T13:41:49.022Z</time></trkpt><trkpt lat="46.2715092" lon="10.1043134"><ele>974.0</ele><time>2026-04-11T13:41:50.022Z</time></trkpt><trkpt lat="46.2714385" lon="10.1045006"><ele>974.0</ele><time>2026-04-11T13:41:51.022Z</time></trkpt><trkpt lat="46.2713869" lon="10.1047155"><ele>980.3333333333334</ele><time>2026-04-11T13:41:52.022Z</time></trkpt><trkpt lat="46.2713604" lon="10.1049433"><ele>986.6666666666667</ele><time>2026-04-11T13:41:53.022Z</time></trkpt><trkpt lat="46.271357" lon="10.1051786"><ele>993.0</ele><time>2026-04-11T13:41:54.021Z</time></trkpt><trkpt lat="46.2713597" lon="10.1054256"><ele>993.0</ele><time>2026-04-11T13:41:55.021Z</time></trkpt><trkpt lat="46.2713646" lon="10.1056762"><ele>993.0</ele><time>2026-04-11T13:41:56.022Z</time></trkpt><trkpt lat="46.2713657" lon="10.1059423"><ele>993.0</ele><time>2026-04-11T13:41:57.022Z</time></trkpt><trkpt lat="46.2713699" lon="10.106213"><ele>988.3333333333333</ele><time>2026-04-11T13:41:58.022Z</time></trkpt><trkpt lat="46.2713699" lon="10.1064761"><ele>983.6666666666666</ele><time>2026-04-11T13:41:59.022Z</time></trkpt><trkpt lat="46.2713672" lon="10.1067402"><ele>979.0</ele><time>2026-04-11T13:42:00.022Z</time></trkpt><trkpt lat="46.271356" lon="10.1070005"><ele>975.3333333333333</ele><time>2026-04-11T13:42:01.022Z</time></trkpt><trkpt lat="46.2713286" lon="10.1072687"><ele>971.6666666666667</ele><time>2026-04-11T13:42:02.022Z</time></trkpt><trkpt lat="46.2712887" lon="10.1075423"><ele>968.0</ele><time>2026-04-11T13:42:03.022Z</time></trkpt><trkpt lat="46.271238" lon="10.1078168"><ele>962.6666666666667</ele><time>2026-04-11T13:42:04.022Z</time></trkpt><trkpt lat="46.2711807" lon="10.1080922"><ele>957.3333333333333</ele><time>2026-04-11T13:42:05.022Z</time></trkpt><trkpt lat="46.2711254" lon="10.1083593"><ele>952.0</ele><time>2026-04-11T13:42:06.022Z</time></trkpt><trkpt lat="46.2710705" lon="10.1086182"><ele>946.3333333333333</ele><time>2026-04-11T13:42:07.022Z</time></trkpt><trkpt lat="46.271007" lon="10.1088475"><ele>940.6666666666667</ele><time>2026-04-11T13:42:08.022Z</time></trkpt><trkpt lat="46.270908" lon="10.1090599"><ele>935.0</ele><time>2026-04-11T13:42:09.022Z</time></trkpt><trkpt lat="46.2707768" lon="10.1092805"><ele>934.6666666666667</ele><time>2026-04-11T13:42:10.022Z</time></trkpt><trkpt lat="46.2706259" lon="10.1094945"><ele>934.3333333333333</ele><time>2026-04-11T13:42:11.022Z</time></trkpt><trkpt lat="46.2704854" lon="10.1097064"><ele>934.0</ele><time>2026-04-11T13:42:12.021Z</time></trkpt><trkpt lat="46.2703514" lon="10.1099316"><ele>928.6666666666666</ele><time>2026-04-11T13:42:13.022Z</time></trkpt><trkpt lat="46.270225" lon="10.1101752"><ele>923.3333333333333</ele><time>2026-04-11T13:42:14.021Z</time></trkpt><trkpt lat="46.2701005" lon="10.1104182"><ele>918.0</ele><time>2026-04-11T13:42:15.022Z</time></trkpt><trkpt lat="46.2699708" lon="10.110643"><ele>914.6666666666667</ele><time>2026-04-11T13:42:16.021Z</time></trkpt><trkpt lat="46.2698379" lon="10.1108637"><ele>911.3333333333334</ele><time>2026-04-11T13:42:17.022Z</time></trkpt><trkpt lat="46.2697162" lon="10.1111003"><ele>908.0</ele><time>2026-04-11T13:42:18.022Z</time></trkpt><trkpt lat="46.2696002" lon="10.1113464"><ele>906.3333333333334</ele><time>2026-04-11T13:42:19.022Z</time></trkpt><trkpt lat="46.2694809" lon="10.1116162"><ele>904.6666666666667</ele><time>2026-04-11T13:42:20.022Z</time></trkpt><trkpt lat="46.2693576" lon="10.1118906"><ele>903.0</ele><time>2026-04-11T13:42:21.022Z</time></trkpt><trkpt lat="46.2692356" lon="10.1121613"><ele>906.0</ele><time>2026-04-11T13:42:22.022Z</time></trkpt><trkpt lat="46.2691088" lon="10.1124312"><ele>909.0</ele><time>2026-04-11T13:42:23.022Z</time></trkpt><trkpt lat="46.2689722" lon="10.1126858"><ele>912.0</ele><time>2026-04-11T13:42:24.022Z</time></trkpt><trkpt lat="46.2688274" lon="10.1129247"><ele>904.3333333333333</ele><time>2026-04-11T13:42:25.022Z</time></trkpt><trkpt lat="46.2686808" lon="10.1131485"><ele>896.6666666666666</ele><time>2026-04-11T13:42:26.022Z</time></trkpt><trkpt lat="46.268544" lon="10.1133708"><ele>889.0</ele><time>2026-04-11T13:42:27.022Z</time></trkpt><trkpt lat="46.268406" lon="10.1135847"><ele>889.0</ele><time>2026-04-11T13:42:28.022Z</time></trkpt><trkpt lat="46.2682716" lon="10.1137987"><ele>889.0</ele><time>2026-04-11T13:42:29.021Z</time></trkpt><trkpt lat="46.2681426" lon="10.1140077"><ele>889.0</ele><time>2026-04-11T13:42:30.022Z</time></trkpt><trkpt lat="46.2680168" lon="10.1142142"><ele>885.3333333333333</ele><time>2026-04-11T13:42:31.022Z</time></trkpt><trkpt lat="46.2678934" lon="10.1144116"><ele>881.6666666666667</ele><time>2026-04-11T13:42:32.022Z</time></trkpt><trkpt lat="46.2677639" lon="10.114599"><ele>878.0</ele><time>2026-04-11T13:42:33.021Z</time></trkpt><trkpt lat="46.2676296" lon="10.1147732"><ele>882.6666666666667</ele><time>2026-04-11T13:42:34.022Z</time></trkpt><trkpt lat="46.2674751" lon="10.1149309"><ele>887.3333333333333</ele><time>2026-04-11T13:42:35.022Z</time></trkpt><trkpt lat="46.2673038" lon="10.1150766"><ele>892.0</ele><time>2026-04-11T13:42:36.022Z</time></trkpt><trkpt lat="46.2671178" lon="10.1152139"><ele>882.3333333333333</ele><time>2026-04-11T13:42:37.022Z</time></trkpt><trkpt lat="46.2669315" lon="10.1153533"><ele>872.6666666666667</ele><time>2026-04-11T13:42:38.022Z</time></trkpt><trkpt lat="46.2667502" lon="10.1154928"><ele>863.0</ele><time>2026-04-11T13:42:39.022Z</time></trkpt><trkpt lat="46.2665779" lon="10.1156335"><ele>861.3333333333334</ele><time>2026-04-11T13:42:40.022Z</time></trkpt><trkpt lat="46.2664144" lon="10.1157798"><ele>859.6666666666667</ele><time>2026-04-11T13:42:41.021Z</time></trkpt><trkpt lat="46.2662524" lon="10.1159195"><ele>858.0</ele><time>2026-04-11T13:42:42.022Z</time></trkpt><trkpt lat="46.2660884" lon="10.1160524"><ele>858.0</ele><time>2026-04-11T13:42:43.022Z</time></trkpt><trkpt lat="46.2659216" lon="10.116161"><ele>858.0</ele><time>2026-04-11T13:42:44.022Z</time></trkpt><trkpt lat="46.2657615" lon="10.1162495"><ele>858.0</ele><time>2026-04-11T13:42:45.022Z</time></trkpt><trkpt lat="46.2656023" lon="10.1163285"><ele>856.6666666666667</ele><time>2026-04-11T13:42:46.022Z</time></trkpt><trkpt lat="46.2654487" lon="10.1164059"><ele>855.3333333333334</ele><time>2026-04-11T13:42:47.022Z</time></trkpt><trkpt lat="46.2652998" lon="10.1164715"><ele>854.0</ele><time>2026-04-11T13:42:48.022Z</time></trkpt><trkpt lat="46.265148" lon="10.116527"><ele>854.25</ele><time>2026-04-11T13:42:49.021Z</time></trkpt><trkpt lat="46.265" lon="10.1165727"><ele>854.5</ele><time>2026-04-11T13:42:50.022Z</time></trkpt><trkpt lat="46.2648525" lon="10.1166157"><ele>854.75</ele><time>2026-04-11T13:42:51.022Z</time></trkpt><trkpt lat="46.264709" lon="10.1166645"><ele>855.0</ele><time>2026-04-11T13:42:52.022Z</time></trkpt><trkpt lat="46.2645658" lon="10.1167255"><ele>850.5</ele><time>2026-04-11T13:42:53.022Z</time></trkpt><trkpt lat="46.2644282" lon="10.1167959"><ele>846.0</ele><time>2026-04-11T13:42:54.022Z</time></trkpt><trkpt lat="46.2642916" lon="10.1168814"><ele>841.5</ele><time>2026-04-11T13:42:55.022Z</time></trkpt><trkpt lat="46.2641525" lon="10.116976"><ele>837.0</ele><time>2026-04-11T13:42:56.022Z</time></trkpt><trkpt lat="46.2640123" lon="10.1170765"><ele>835.0</ele><time>2026-04-11T13:42:57.022Z</time></trkpt><trkpt lat="46.2638566" lon="10.1171961"><ele>833.0</ele><time>2026-04-11T13:42:58.022Z</time></trkpt><trkpt lat="46.2636995" lon="10.1173198"><ele>831.0</ele><time>2026-04-11T13:42:59.022Z</time></trkpt><trkpt lat="46.2635454" lon="10.1174469"><ele>831.0</ele><time>2026-04-11T13:43:00.022Z</time></trkpt><trkpt lat="46.2633904" lon="10.1175779"><ele>831.0</ele><time>2026-04-11T13:43:01.022Z</time></trkpt><trkpt lat="46.2632355" lon="10.1177111"><ele>831.0</ele><time>2026-04-11T13:43:02.022Z</time></trkpt><trkpt lat="46.2630888" lon="10.1178436"><ele>824.6666666666667</ele><time>2026-04-11T13:43:03.022Z</time></trkpt><trkpt lat="46.2629518" lon="10.1179678"><ele>818.3333333333334</ele><time>2026-04-11T13:43:04.022Z</time></trkpt><trkpt lat="46.2628169" lon="10.1180824"><ele>812.0</ele><time>2026-04-11T13:43:05.022Z</time></trkpt><trkpt lat="46.2626895" lon="10.1181902"><ele>809.75</ele><time>2026-04-11T13:43:06.022Z</time></trkpt><trkpt lat="46.262566" lon="10.1182968"><ele>807.5</ele><time>2026-04-11T13:43:07.022Z</time></trkpt><trkpt lat="46.2624451" lon="10.118394"><ele>805.25</ele><time>2026-04-11T13:43:08.022Z</time></trkpt><trkpt lat="46.2623342" lon="10.1184886"><ele>803.0</ele><time>2026-04-11T13:43:09.022Z</time></trkpt><trkpt lat="46.2622264" lon="10.1185878"><ele>803.0</ele><time>2026-04-11T13:43:10.022Z</time></trkpt><trkpt lat="46.2621145" lon="10.1186839"><ele>803.0</ele><time>2026-04-11T13:43:11.022Z</time></trkpt><trkpt lat="46.2620016" lon="10.1187812"><ele>803.0</ele><time>2026-04-11T13:43:12.022Z</time></trkpt><trkpt lat="46.2618956" lon="10.1188848"><ele>803.0</ele><time>2026-04-11T13:43:13.022Z</time></trkpt><trkpt lat="46.2617904" lon="10.1190006"><ele>805.0</ele><time>2026-04-11T13:43:14.022Z</time></trkpt><trkpt lat="46.2616924" lon="10.1191187"><ele>807.0</ele><time>2026-04-11T13:43:15.022Z</time></trkpt><trkpt lat="46.2615979" lon="10.1192402"><ele>809.0</ele><time>2026-04-11T13:43:16.022Z</time></trkpt><trkpt lat="46.2615049" lon="10.1193688"><ele>811.0</ele><time>2026-04-11T13:43:17.022Z</time></trkpt><trkpt lat="46.2614126" lon="10.1195036"><ele>809.5999999999999</ele><time>2026-04-11T13:43:18.022Z</time></trkpt><trkpt lat="46.2613315" lon="10.1196353"><ele>808.2</ele><time>2026-04-11T13:43:19.022Z</time></trkpt><trkpt lat="46.2612589" lon="10.1197563"><ele>806.8</ele><time>2026-04-11T13:43:20.022Z</time></trkpt><trkpt lat="46.2611929" lon="10.1198625"><ele>805.4000000000001</ele><time>2026-04-11T13:43:21.022Z</time></trkpt><trkpt lat="46.2611274" lon="10.1199738"><ele>804.0</ele><time>2026-04-11T13:43:22.022Z</time></trkpt><trkpt lat="46.2610635" lon="10.1200848"><ele>804.0</ele><time>2026-04-11T13:43:23.022Z</time></trkpt><trkpt lat="46.2609989" lon="10.1201964"><ele>804.0</ele><time>2026-04-11T13:43:24.022Z</time></trkpt><trkpt lat="46.2609327" lon="10.1203045"><ele>804.0</ele><time>2026-04-11T13:43:25.022Z</time></trkpt><trkpt lat="46.260865" lon="10.1204087"><ele>804.0</ele><time>2026-04-11T13:43:26.022Z</time></trkpt><trkpt lat="46.2607945" lon="10.1205144"><ele>804.0</ele><time>2026-04-11T13:43:27.022Z</time></trkpt><trkpt lat="46.2607286" lon="10.1206246"><ele>804.6</ele><time>2026-04-11T13:43:28.022Z</time></trkpt><trkpt lat="46.2606601" lon="10.1207333"><ele>805.2</ele><time>2026-04-11T13:43:29.022Z</time></trkpt><trkpt lat="46.260593" lon="10.1208509"><ele>805.8000000000001</ele><time>2026-04-11T13:43:30.022Z</time></trkpt><trkpt lat="46.2605259" lon="10.1209658"><ele>806.4000000000001</ele><time>2026-04-11T13:43:31.022Z</time></trkpt><trkpt lat="46.2604517" lon="10.1210852"><ele>807.0</ele><time>2026-04-11T13:43:32.022Z</time></trkpt><trkpt lat="46.2603786" lon="10.1212061"><ele>802.8</ele><time>2026-04-11T13:43:33.022Z</time></trkpt><trkpt lat="46.2603054" lon="10.1213215"><ele>798.6</ele><time>2026-04-11T13:43:34.022Z</time></trkpt><trkpt lat="46.2602299" lon="10.1214398"><ele>794.4</ele><time>2026-04-11T13:43:35.022Z</time></trkpt><trkpt lat="46.2601517" lon="10.1215568"><ele>790.1999999999999</ele><time>2026-04-11T13:43:36.022Z</time></trkpt><trkpt lat="46.260076" lon="10.1216782"><ele>786.0</ele><time>2026-04-11T13:43:37.022Z</time></trkpt><trkpt lat="46.2600083" lon="10.1217933"><ele>786.0</ele><time>2026-04-11T13:43:38.022Z</time></trkpt><trkpt lat="46.259945" lon="10.121904"><ele>786.0</ele><time>2026-04-11T13:43:39.022Z</time></trkpt><trkpt lat="46.259884" lon="10.1220077"><ele>786.0</ele><time>2026-04-11T13:43:40.022Z</time></trkpt><trkpt lat="46.2598268" lon="10.122118"><ele>786.0</ele><time>2026-04-11T13:43:41.022Z</time></trkpt><trkpt lat="46.2597716" lon="10.1222329"><ele>786.0</ele><time>2026-04-11T13:43:42.022Z</time></trkpt><trkpt lat="46.2597125" lon="10.1223543"><ele>782.8</ele><time>2026-04-11T13:43:43.022Z</time></trkpt><trkpt lat="46.2596552" lon="10.1224714"><ele>779.5999999999999</ele><time>2026-04-11T13:43:44.022Z</time></trkpt><trkpt lat="46.2595996" lon="10.1225984"><ele>776.4</ele><time>2026-04-11T13:43:45.022Z</time></trkpt><trkpt lat="46.25954" lon="10.1227309"><ele>773.2</ele><time>2026-04-11T13:43:46.022Z</time></trkpt><trkpt lat="46.2594834" lon="10.1228614"><ele>770.0</ele><time>2026-04-11T13:43:47.022Z</time></trkpt><trkpt lat="46.259425" lon="10.1229933"><ele>770.0</ele><time>2026-04-11T13:43:48.022Z</time></trkpt><trkpt lat="46.2593662" lon="10.1231162"><ele>770.0</ele><time>2026-04-11T13:43:49.022Z</time></trkpt><trkpt lat="46.2593084" lon="10.1232355"><ele>770.0</ele><time>2026-04-11T13:43:50.022Z</time></trkpt><trkpt lat="46.2592497" lon="10.1233622"><ele>770.0</ele><time>2026-04-11T13:43:51.022Z</time></trkpt><trkpt lat="46.25919" lon="10.1234904"><ele>770.0</ele><time>2026-04-11T13:43:52.022Z</time></trkpt><trkpt lat="46.2591293" lon="10.1236161"><ele>771.0</ele><time>2026-04-11T13:43:53.022Z</time></trkpt><trkpt lat="46.2590745" lon="10.123751"><ele>772.0</ele><time>2026-04-11T13:43:54.022Z</time></trkpt><trkpt lat="46.2590297" lon="10.1238797"><ele>773.0</ele><time>2026-04-11T13:43:55.022Z</time></trkpt><trkpt lat="46.2589982" lon="10.124026"><ele>774.0</ele><time>2026-04-11T13:43:56.022Z</time></trkpt><trkpt lat="46.2589801" lon="10.12418"><ele>775.0</ele><time>2026-04-11T13:43:57.022Z</time></trkpt><trkpt lat="46.2589675" lon="10.1243239"><ele>775.2</ele><time>2026-04-11T13:43:58.022Z</time></trkpt><trkpt lat="46.2589602" lon="10.124476"><ele>775.4</ele><time>2026-04-11T13:43:59.022Z</time></trkpt><trkpt lat="46.2589527" lon="10.1246257"><ele>775.5999999999999</ele><time>2026-04-11T13:44:00.022Z</time></trkpt><trkpt lat="46.2589451" lon="10.124771"><ele>775.8</ele><time>2026-04-11T13:44:01.021Z</time></trkpt><trkpt lat="46.2589297" lon="10.1249064"><ele>776.0</ele><time>2026-04-11T13:44:02.022Z</time></trkpt><trkpt lat="46.2589023" lon="10.12504"><ele>773.8</ele><time>2026-04-11T13:44:03.022Z</time></trkpt><trkpt lat="46.258855" lon="10.1251571"><ele>771.5999999999999</ele><time>2026-04-11T13:44:04.021Z</time></trkpt><trkpt lat="46.2587923" lon="10.1252597"><ele>769.4</ele><time>2026-04-11T13:44:05.022Z</time></trkpt><trkpt lat="46.2587142" lon="10.1253558"><ele>767.2</ele><time>2026-04-11T13:44:06.022Z</time></trkpt><trkpt lat="46.2586368" lon="10.1254395"><ele>765.0</ele><time>2026-04-11T13:44:07.021Z</time></trkpt><trkpt lat="46.2585482" lon="10.1255252"><ele>765.0</ele><time>2026-04-11T13:44:08.022Z</time></trkpt><trkpt lat="46.2584609" lon="10.1256317"><ele>765.0</ele><time>2026-04-11T13:44:09.022Z</time></trkpt><trkpt lat="46.2583869" lon="10.1257402"><ele>765.0</ele><time>2026-04-11T13:44:10.021Z</time></trkpt><trkpt lat="46.2583205" lon="10.1258603"><ele>765.0</ele><time>2026-04-11T13:44:11.021Z</time></trkpt><trkpt lat="46.2582571" lon="10.1259947"><ele>765.0</ele><time>2026-04-11T13:44:12.022Z</time></trkpt><trkpt lat="46.2582019" lon="10.126125"><ele>765.2</ele><time>2026-04-11T13:44:13.022Z</time></trkpt><trkpt lat="46.2581509" lon="10.1262641"><ele>765.4</ele><time>2026-04-11T13:44:14.022Z</time></trkpt><trkpt lat="46.2581064" lon="10.126406"><ele>765.5999999999999</ele><time>2026-04-11T13:44:15.022Z</time></trkpt><trkpt lat="46.2580675" lon="10.1265537"><ele>765.8</ele><time>2026-04-11T13:44:16.022Z</time></trkpt><trkpt lat="46.2580337" lon="10.1266971"><ele>766.0</ele><time>2026-04-11T13:44:17.022Z</time></trkpt><trkpt lat="46.2580051" lon="10.1268497"><ele>763.8</ele><time>2026-04-11T13:44:18.022Z</time></trkpt><trkpt lat="46.2579771" lon="10.1269974"><ele>761.5999999999999</ele><time>2026-04-11T13:44:19.022Z</time></trkpt><trkpt lat="46.2579526" lon="10.1271452"><ele>759.4</ele><time>2026-04-11T13:44:20.022Z</time></trkpt><trkpt lat="46.2579236" lon="10.1272943"><ele>757.2</ele><time>2026-04-11T13:44:21.022Z</time></trkpt><trkpt lat="46.2578955" lon="10.1274446"><ele>755.0</ele><time>2026-04-11T13:44:22.021Z</time></trkpt><trkpt lat="46.2578619" lon="10.1275904"><ele>754.8</ele><time>2026-04-11T13:44:23.022Z</time></trkpt><trkpt lat="46.2578002" lon="10.1277115"><ele>754.6</ele><time>2026-04-11T13:44:24.022Z</time></trkpt><trkpt lat="46.2577233" lon="10.1278031"><ele>754.4000000000001</ele><time>2026-04-11T13:44:25.022Z</time></trkpt><trkpt lat="46.2576364" lon="10.1278575"><ele>754.2</ele><time>2026-04-11T13:44:26.022Z</time></trkpt><trkpt lat="46.257552" lon="10.1278913"><ele>754.0</ele><time>2026-04-11T13:44:27.022Z</time></trkpt><trkpt lat="46.2574671" lon="10.1278918"><ele>754.0</ele><time>2026-04-11T13:44:28.022Z</time></trkpt><trkpt lat="46.2573841" lon="10.1278607"><ele>754.0</ele><time>2026-04-11T13:44:29.022Z</time></trkpt><trkpt lat="46.257294" lon="10.1277895"><ele>754.0</ele><time>2026-04-11T13:44:30.022Z</time></trkpt><trkpt lat="46.2571871" lon="10.1277259"><ele>754.0</ele><time>2026-04-11T13:44:31.022Z</time></trkpt><trkpt lat="46.2570764" lon="10.1276978"><ele>754.0</ele><time>2026-04-11T13:44:32.021Z</time></trkpt><trkpt lat="46.2569515" lon="10.1276985"><ele>750.75</ele><time>2026-04-11T13:44:33.022Z</time></trkpt><trkpt lat="46.2568319" lon="10.1277133"><ele>747.5</ele><time>2026-04-11T13:44:34.021Z</time></trkpt><trkpt lat="46.2567143" lon="10.1277341"><ele>744.25</ele><time>2026-04-11T13:44:35.022Z</time></trkpt><trkpt lat="46.2565911" lon="10.1277528"><ele>741.0</ele><time>2026-04-11T13:44:36.022Z</time></trkpt><trkpt lat="46.2564702" lon="10.127763"><ele>738.5</ele><time>2026-04-11T13:44:37.022Z</time></trkpt><trkpt lat="46.2563516" lon="10.1277741"><ele>736.0</ele><time>2026-04-11T13:44:38.022Z</time></trkpt><trkpt lat="46.2562278" lon="10.1277703"><ele>733.5</ele><time>2026-04-11T13:44:39.022Z</time></trkpt><trkpt lat="46.2561082" lon="10.1277546"><ele>731.0</ele><time>2026-04-11T13:44:40.022Z</time></trkpt><trkpt lat="46.2559902" lon="10.1277261"><ele>731.0</ele><time>2026-04-11T13:44:41.022Z</time></trkpt><trkpt lat="46.2558729" lon="10.1276948"><ele>731.0</ele><time>2026-04-11T13:44:42.022Z</time></trkpt><trkpt lat="46.2557501" lon="10.1276589"><ele>731.0</ele><time>2026-04-11T13:44:43.022Z</time></trkpt><trkpt lat="46.2556313" lon="10.1276194"><ele>731.0</ele><time>2026-04-11T13:44:44.022Z</time></trkpt><trkpt lat="46.2555115" lon="10.1275828"><ele>729.0</ele><time>2026-04-11T13:44:45.022Z</time></trkpt><trkpt lat="46.2553855" lon="10.127545"><ele>727.0</ele><time>2026-04-11T13:44:46.022Z</time></trkpt><trkpt lat="46.2552562" lon="10.1275068"><ele>725.0</ele><time>2026-04-11T13:44:47.022Z</time></trkpt><trkpt lat="46.2551335" lon="10.1274508"><ele>723.0</ele><time>2026-04-11T13:44:48.022Z</time></trkpt><trkpt lat="46.2550191" lon="10.1273691"><ele>722.5999999999999</ele><time>2026-04-11T13:44:49.021Z</time></trkpt><trkpt lat="46.2549239" lon="10.1272566"><ele>722.1999999999999</ele><time>2026-04-11T13:44:50.022Z</time></trkpt><trkpt lat="46.2548432" lon="10.1271322"><ele>721.8</ele><time>2026-04-11T13:44:51.022Z</time></trkpt><trkpt lat="46.2547814" lon="10.1270101"><ele>721.4</ele><time>2026-04-11T13:44:52.022Z</time></trkpt><trkpt lat="46.2547267" lon="10.1268905"><ele>721.0</ele><time>2026-04-11T13:44:53.022Z</time></trkpt><trkpt lat="46.2546766" lon="10.1267732"><ele>719.1999999999999</ele><time>2026-04-11T13:44:54.021Z</time></trkpt><trkpt lat="46.2546169" lon="10.1266604"><ele>717.4</ele><time>2026-04-11T13:44:55.022Z</time></trkpt><trkpt lat="46.2545461" lon="10.1265685"><ele>715.6</ele><time>2026-04-11T13:44:56.022Z</time></trkpt><trkpt lat="46.2544679" lon="10.1265008"><ele>713.8</ele><time>2026-04-11T13:44:57.022Z</time></trkpt><trkpt lat="46.2543765" lon="10.12646"><ele>712.0</ele><time>2026-04-11T13:44:58.022Z</time></trkpt><trkpt lat="46.2542793" lon="10.1264501"><ele>710.5</ele><time>2026-04-11T13:44:59.022Z</time></trkpt><trkpt lat="46.2541812" lon="10.1264578"><ele>709.0</ele><time>2026-04-11T13:45:00.022Z</time></trkpt><trkpt lat="46.2540668" lon="10.1264666"><ele>707.5</ele><time>2026-04-11T13:45:01.022Z</time></trkpt><trkpt lat="46.2539339" lon="10.1264874"><ele>706.0</ele><time>2026-04-11T13:45:02.022Z</time></trkpt><trkpt lat="46.2537959" lon="10.1265614"><ele>705.25</ele><time>2026-04-11T13:45:03.022Z</time></trkpt><trkpt lat="46.2536633" lon="10.1266461"><ele>704.5</ele><time>2026-04-11T13:45:04.022Z</time></trkpt><trkpt lat="46.2535366" lon="10.1267437"><ele>703.75</ele><time>2026-04-11T13:45:05.022Z</time></trkpt><trkpt lat="46.253411" lon="10.1268367"><ele>703.0</ele><time>2026-04-11T13:45:06.022Z</time></trkpt><trkpt lat="46.2532873" lon="10.126925"><ele>703.0</ele><time>2026-04-11T13:45:07.022Z</time></trkpt><trkpt lat="46.2531685" lon="10.1270144"><ele>703.0</ele><time>2026-04-11T13:45:08.022Z</time></trkpt><trkpt lat="46.2530535" lon="10.1271054"><ele>703.0</ele><time>2026-04-11T13:45:09.022Z</time></trkpt><trkpt lat="46.252946" lon="10.1271907"><ele>703.0</ele><time>2026-04-11T13:45:10.022Z</time></trkpt><trkpt lat="46.2528455" lon="10.127265"><ele>701.5</ele><time>2026-04-11T13:45:11.022Z</time></trkpt><trkpt lat="46.2527423" lon="10.1273481"><ele>700.0</ele><time>2026-04-11T13:45:12.022Z</time></trkpt><trkpt lat="46.2526499" lon="10.1274256"><ele>698.5</ele><time>2026-04-11T13:45:13.022Z</time></trkpt><trkpt lat="46.252553" lon="10.127505"><ele>697.0</ele><time>2026-04-11T13:45:14.022Z</time></trkpt><trkpt lat="46.2524541" lon="10.1275856"><ele>697.0</ele><time>2026-04-11T13:45:15.021Z</time></trkpt><trkpt lat="46.2523549" lon="10.1276619"><ele>697.0</ele><time>2026-04-11T13:45:16.022Z</time></trkpt><trkpt lat="46.2522482" lon="10.1277437"><ele>697.0</ele><time>2026-04-11T13:45:17.022Z</time></trkpt><trkpt lat="46.2521386" lon="10.1278172"><ele>697.0</ele><time>2026-04-11T13:45:18.022Z</time></trkpt><trkpt lat="46.2520204" lon="10.1278811"><ele>694.25</ele><time>2026-04-11T13:45:19.022Z</time></trkpt><trkpt lat="46.2518973" lon="10.1279321"><ele>691.5</ele><time>2026-04-11T13:45:20.021Z</time></trkpt><trkpt lat="46.2517659" lon="10.1279684"><ele>688.75</ele><time>2026-04-11T13:45:21.022Z</time></trkpt><trkpt lat="46.2516252" lon="10.127987"><ele>686.0</ele><time>2026-04-11T13:45:22.022Z</time></trkpt><trkpt lat="46.251491" lon="10.1279931"><ele>683.5</ele><time>2026-04-11T13:45:23.022Z</time></trkpt><trkpt lat="46.2513536" lon="10.1280064"><ele>681.0</ele><time>2026-04-11T13:45:24.021Z</time></trkpt><trkpt lat="46.2512127" lon="10.1280174"><ele>678.5</ele><time>2026-04-11T13:45:25.022Z</time></trkpt><trkpt lat="46.2510791" lon="10.1280248"><ele>676.0</ele><time>2026-04-11T13:45:26.022Z</time></trkpt><trkpt lat="46.2509519" lon="10.128032"><ele>676.0</ele><time>2026-04-11T13:45:27.022Z</time></trkpt><trkpt lat="46.2508195" lon="10.1280467"><ele>676.0</ele><time>2026-04-11T13:45:28.022Z</time></trkpt><trkpt lat="46.2506906" lon="10.1280793"><ele>676.0</ele><time>2026-04-11T13:45:29.022Z</time></trkpt><trkpt lat="46.2505691" lon="10.128132"><ele>676.0</ele><time>2026-04-11T13:45:30.022Z</time></trkpt><trkpt lat="46.2504539" lon="10.1282035"><ele>676.0</ele><time>2026-04-11T13:45:31.022Z</time></trkpt><trkpt lat="46.2503435" lon="10.128292"><ele>676.0</ele><time>2026-04-11T13:45:32.022Z</time></trkpt><trkpt lat="46.2502288" lon="10.1283965"><ele>676.0</ele><time>2026-04-11T13:45:33.022Z</time></trkpt><trkpt lat="46.2501181" lon="10.1285047"><ele>676.0</ele><time>2026-04-11T13:45:34.022Z</time></trkpt><trkpt lat="46.250006" lon="10.1286109"><ele>676.0</ele><time>2026-04-11T13:45:35.022Z</time></trkpt><trkpt lat="46.2498957" lon="10.1287244"><ele>676.0</ele><time>2026-04-11T13:45:36.021Z</time></trkpt><trkpt lat="46.2497818" lon="10.1288412"><ele>676.0</ele><time>2026-04-11T13:45:37.022Z</time></trkpt><trkpt lat="46.2496618" lon="10.1289593"><ele>676.0</ele><time>2026-04-11T13:45:38.022Z</time></trkpt><trkpt lat="46.2495411" lon="10.1290773"><ele>673.25</ele><time>2026-04-11T13:45:39.022Z</time></trkpt><trkpt lat="46.2494209" lon="10.1291966"><ele>670.5</ele><time>2026-04-11T13:45:40.022Z</time></trkpt><trkpt lat="46.249295" lon="10.1293174"><ele>667.75</ele><time>2026-04-11T13:45:41.022Z</time></trkpt><trkpt lat="46.2491722" lon="10.1294357"><ele>665.0</ele><time>2026-04-11T13:45:42.022Z</time></trkpt><trkpt lat="46.2490446" lon="10.1295391"><ele>663.0</ele><time>2026-04-11T13:45:43.022Z</time></trkpt><trkpt lat="46.2489144" lon="10.1296345"><ele>661.0</ele><time>2026-04-11T13:45:44.022Z</time></trkpt><trkpt lat="46.2487843" lon="10.1297112"><ele>659.0</ele><time>2026-04-11T13:45:45.022Z</time></trkpt><trkpt lat="46.2486505" lon="10.1297643"><ele>657.0</ele><time>2026-04-11T13:45:46.022Z</time></trkpt><trkpt lat="46.2485146" lon="10.1298072"><ele>657.0</ele><time>2026-04-11T13:45:47.022Z</time></trkpt><trkpt lat="46.2483806" lon="10.1298585"><ele>657.0</ele><time>2026-04-11T13:45:48.022Z</time></trkpt><trkpt lat="46.2482532" lon="10.129914"><ele>657.0</ele><time>2026-04-11T13:45:49.021Z</time></trkpt><trkpt lat="46.2481273" lon="10.1299663"><ele>657.0</ele><time>2026-04-11T13:45:50.022Z</time></trkpt><trkpt lat="46.248" lon="10.1300149"><ele>655.5</ele><time>2026-04-11T13:45:51.021Z</time></trkpt><trkpt lat="46.2478706" lon="10.1300528"><ele>654.0</ele><time>2026-04-11T13:45:52.022Z</time></trkpt><trkpt lat="46.2477436" lon="10.1300733"><ele>652.5</ele><time>2026-04-11T13:45:53.022Z</time></trkpt><trkpt lat="46.2476197" lon="10.1300845"><ele>651.0</ele><time>2026-04-11T13:45:54.021Z</time></trkpt><trkpt lat="46.2474985" lon="10.13009"><ele>651.0</ele><time>2026-04-11T13:45:55.022Z</time></trkpt><trkpt lat="46.2473936" lon="10.1300915"><ele>651.0</ele><time>2026-04-11T13:45:56.021Z</time></trkpt><trkpt lat="46.2472961" lon="10.1300971"><ele>651.0</ele><time>2026-04-11T13:45:57.022Z</time></trkpt><trkpt lat="46.2472054" lon="10.1301072"><ele>651.0</ele><time>2026-04-11T13:45:58.022Z</time></trkpt><trkpt lat="46.2471369" lon="10.1301137"><ele>651.0</ele><time>2026-04-11T13:45:59.022Z</time></trkpt><trkpt lat="46.2470057" lon="10.1301196"><ele>649.4</ele><time>2026-04-11T13:46:01.022Z</time></trkpt><trkpt lat="46.246926" lon="10.1301295"><ele>647.8</ele><time>2026-04-11T13:46:02.022Z</time></trkpt><trkpt lat="46.2468403" lon="10.1301404"><ele>646.1999999999999</ele><time>2026-04-11T13:46:03.022Z</time></trkpt><trkpt lat="46.2467423" lon="10.1301529"><ele>644.5999999999999</ele><time>2026-04-11T13:46:04.021Z</time></trkpt><trkpt lat="46.2466402" lon="10.1301771"><ele>643.0</ele><time>2026-04-11T13:46:05.022Z</time></trkpt><trkpt lat="46.2465217" lon="10.1302253"><ele>641.25</ele><time>2026-04-11T13:46:06.022Z</time></trkpt><trkpt lat="46.2463873" lon="10.1302852"><ele>639.5</ele><time>2026-04-11T13:46:07.022Z</time></trkpt><trkpt lat="46.2462455" lon="10.1303612"><ele>637.75</ele><time>2026-04-11T13:46:08.021Z</time></trkpt><trkpt lat="46.2461155" lon="10.1304346"><ele>636.0</ele><time>2026-04-11T13:46:09.021Z</time></trkpt><trkpt lat="46.2459946" lon="10.130505"><ele>636.0</ele><time>2026-04-11T13:46:10.022Z</time></trkpt><trkpt lat="46.2458773" lon="10.1305729"><ele>636.0</ele><time>2026-04-11T13:46:11.022Z</time></trkpt><trkpt lat="46.24576" lon="10.1306372"><ele>636.0</ele><time>2026-04-11T13:46:12.022Z</time></trkpt><trkpt lat="46.2456415" lon="10.1307024"><ele>636.0</ele><time>2026-04-11T13:46:13.022Z</time></trkpt><trkpt lat="46.2455139" lon="10.1307701"><ele>635.0</ele><time>2026-04-11T13:46:14.022Z</time></trkpt><trkpt lat="46.2453773" lon="10.1308278"><ele>634.0</ele><time>2026-04-11T13:46:15.022Z</time></trkpt><trkpt lat="46.2452316" lon="10.1308811"><ele>633.0</ele><time>2026-04-11T13:46:16.022Z</time></trkpt><trkpt lat="46.2450958" lon="10.1309351"><ele>632.0</ele><time>2026-04-11T13:46:17.022Z</time></trkpt><trkpt lat="46.2449622" lon="10.130985"><ele>632.0</ele><time>2026-04-11T13:46:18.022Z</time></trkpt><trkpt lat="46.2448314" lon="10.1310452"><ele>632.0</ele><time>2026-04-11T13:46:19.022Z</time></trkpt><trkpt lat="46.244707" lon="10.1310961"><ele>632.0</ele><time>2026-04-11T13:46:20.022Z</time></trkpt><trkpt lat="46.244566" lon="10.1311324"><ele>632.0</ele><time>2026-04-11T13:46:21.022Z</time></trkpt><trkpt lat="46.244427" lon="10.131186"><ele>629.5</ele><time>2026-04-11T13:46:22.022Z</time></trkpt><trkpt lat="46.2442903" lon="10.1312329"><ele>627.0</ele><time>2026-04-11T13:46:23.022Z</time></trkpt><trkpt lat="46.2441497" lon="10.1313032"><ele>624.5</ele><time>2026-04-11T13:46:24.022Z</time></trkpt><trkpt lat="46.2440083" lon="10.1313629"><ele>622.0</ele><time>2026-04-11T13:46:25.022Z</time></trkpt><trkpt lat="46.24387" lon="10.131423"><ele>621.0</ele><time>2026-04-11T13:46:26.022Z</time></trkpt><trkpt lat="46.2437291" lon="10.1314866"><ele>620.0</ele><time>2026-04-11T13:46:27.022Z</time></trkpt><trkpt lat="46.2435783" lon="10.1315489"><ele>619.0</ele><time>2026-04-11T13:46:28.022Z</time></trkpt><trkpt lat="46.2434214" lon="10.1316132"><ele>619.0</ele><time>2026-04-11T13:46:29.021Z</time></trkpt><trkpt lat="46.2432647" lon="10.1316714"><ele>619.0</ele><time>2026-04-11T13:46:30.021Z</time></trkpt><trkpt lat="46.2431138" lon="10.1317386"><ele>619.0</ele><time>2026-04-11T13:46:31.022Z</time></trkpt><trkpt lat="46.2429633" lon="10.1318129"><ele>614.6666666666667</ele><time>2026-04-11T13:46:32.022Z</time></trkpt><trkpt lat="46.2428336" lon="10.1319076"><ele>610.3333333333334</ele><time>2026-04-11T13:46:33.022Z</time></trkpt><trkpt lat="46.2427182" lon="10.1320365"><ele>606.0</ele><time>2026-04-11T13:46:34.022Z</time></trkpt><trkpt lat="46.2425962" lon="10.1322025"><ele>606.0</ele><time>2026-04-11T13:46:35.022Z</time></trkpt><trkpt lat="46.2424819" lon="10.132383"><ele>606.0</ele><time>2026-04-11T13:46:36.021Z</time></trkpt><trkpt lat="46.242367" lon="10.1325584"><ele>606.0</ele><time>2026-04-11T13:46:37.021Z</time></trkpt><trkpt lat="46.2422568" lon="10.1327277"><ele>604.0</ele><time>2026-04-11T13:46:38.022Z</time></trkpt><trkpt lat="46.2421458" lon="10.1328925"><ele>602.0</ele><time>2026-04-11T13:46:39.022Z</time></trkpt><trkpt lat="46.2420356" lon="10.1330529"><ele>600.0</ele><time>2026-04-11T13:46:40.021Z</time></trkpt><trkpt lat="46.2419242" lon="10.1332048"><ele>601.0</ele><time>2026-04-11T13:46:41.022Z</time></trkpt><trkpt lat="46.2418089" lon="10.1333546"><ele>602.0</ele><time>2026-04-11T13:46:42.022Z</time></trkpt><trkpt lat="46.2416856" lon="10.1334893"><ele>603.0</ele><time>2026-04-11T13:46:43.022Z</time></trkpt><trkpt lat="46.2415584" lon="10.1336185"><ele>600.0</ele><time>2026-04-11T13:46:44.022Z</time></trkpt><trkpt lat="46.2414293" lon="10.1337385"><ele>597.0</ele><time>2026-04-11T13:46:45.022Z</time></trkpt><trkpt lat="46.2413004" lon="10.1338589"><ele>594.0</ele><time>2026-04-11T13:46:46.022Z</time></trkpt><trkpt lat="46.2411702" lon="10.1339834"><ele>593.6666666666666</ele><time>2026-04-11T13:46:47.022Z</time></trkpt><trkpt lat="46.2410378" lon="10.1341067"><ele>593.3333333333333</ele><time>2026-04-11T13:46:48.022Z</time></trkpt><trkpt lat="46.2409031" lon="10.1342312"><ele>593.0</ele><time>2026-04-11T13:46:49.022Z</time></trkpt><trkpt lat="46.2407661" lon="10.1343518"><ele>591.0</ele><time>2026-04-11T13:46:50.022Z</time></trkpt><trkpt lat="46.2406261" lon="10.1344738"><ele>589.0</ele><time>2026-04-11T13:46:51.022Z</time></trkpt><trkpt lat="46.2404835" lon="10.1345937"><ele>587.0</ele><time>2026-04-11T13:46:52.022Z</time></trkpt><trkpt lat="46.2403357" lon="10.1347116"><ele>587.0</ele><time>2026-04-11T13:46:53.021Z</time></trkpt><trkpt lat="46.2401908" lon="10.1348347"><ele>587.0</ele><time>2026-04-11T13:46:54.022Z</time></trkpt><trkpt lat="46.2400437" lon="10.134961"><ele>587.0</ele><time>2026-04-11T13:46:55.022Z</time></trkpt><trkpt lat="46.2398962" lon="10.135087"><ele>584.3333333333333</ele><time>2026-04-11T13:46:56.021Z</time></trkpt><trkpt lat="46.2397464" lon="10.1352167"><ele>581.6666666666666</ele><time>2026-04-11T13:46:57.021Z</time></trkpt><trkpt lat="46.2395953" lon="10.1353492"><ele>579.0</ele><time>2026-04-11T13:46:58.021Z</time></trkpt><trkpt lat="46.2394433" lon="10.1354825"><ele>579.0</ele><time>2026-04-11T13:46:59.022Z</time></trkpt><trkpt lat="46.2392935" lon="10.1356172"><ele>579.0</ele><time>2026-04-11T13:47:00.021Z</time></trkpt><trkpt lat="46.239148" lon="10.1357528"><ele>579.0</ele><time>2026-04-11T13:47:01.022Z</time></trkpt><trkpt lat="46.2390065" lon="10.1358912"><ele>576.6666666666666</ele><time>2026-04-11T13:47:02.022Z</time></trkpt><trkpt lat="46.2388705" lon="10.1360348"><ele>574.3333333333333</ele><time>2026-04-11T13:47:03.022Z</time></trkpt><trkpt lat="46.2387475" lon="10.1361871"><ele>572.0</ele><time>2026-04-11T13:47:04.022Z</time></trkpt><trkpt lat="46.2386293" lon="10.136342"><ele>572.0</ele><time>2026-04-11T13:47:05.021Z</time></trkpt><trkpt lat="46.2385168" lon="10.1364885"><ele>572.0</ele><time>2026-04-11T13:47:06.021Z</time></trkpt><trkpt lat="46.2384037" lon="10.1366336"><ele>572.0</ele><time>2026-04-11T13:47:07.022Z</time></trkpt><trkpt lat="46.2382913" lon="10.1367733"><ele>571.75</ele><time>2026-04-11T13:47:08.022Z</time></trkpt><trkpt lat="46.2381798" lon="10.1369061"><ele>571.5</ele><time>2026-04-11T13:47:09.022Z</time></trkpt><trkpt lat="46.2380757" lon="10.13704"><ele>571.25</ele><time>2026-04-11T13:47:10.022Z</time></trkpt><trkpt lat="46.237975" lon="10.1371746"><ele>571.0</ele><time>2026-04-11T13:47:11.022Z</time></trkpt><trkpt lat="46.2378729" lon="10.137302"><ele>569.75</ele><time>2026-04-11T13:47:12.021Z</time></trkpt><trkpt lat="46.2377758" lon="10.1374321"><ele>568.5</ele><time>2026-04-11T13:47:13.022Z</time></trkpt><trkpt lat="46.2376783" lon="10.1375537"><ele>567.25</ele><time>2026-04-11T13:47:14.021Z</time></trkpt><trkpt lat="46.2375807" lon="10.1376784"><ele>566.0</ele><time>2026-04-11T13:47:15.022Z</time></trkpt><trkpt lat="46.2374861" lon="10.1378039"><ele>566.0</ele><time>2026-04-11T13:47:16.022Z</time></trkpt><trkpt lat="46.2373888" lon="10.1379337"><ele>566.0</ele><time>2026-04-11T13:47:17.022Z</time></trkpt><trkpt lat="46.237282" lon="10.1380748"><ele>566.0</ele><time>2026-04-11T13:47:18.022Z</time></trkpt><trkpt lat="46.2371699" lon="10.1382221"><ele>566.0</ele><time>2026-04-11T13:47:19.022Z</time></trkpt><trkpt lat="46.2370518" lon="10.1383786"><ele>563.6666666666666</ele><time>2026-04-11T13:47:20.022Z</time></trkpt><trkpt lat="46.2369338" lon="10.1385435"><ele>561.3333333333334</ele><time>2026-04-11T13:47:21.022Z</time></trkpt><trkpt lat="46.2368153" lon="10.1387121"><ele>559.0</ele><time>2026-04-11T13:47:22.022Z</time></trkpt><trkpt lat="46.2366931" lon="10.1388747"><ele>559.0</ele><time>2026-04-11T13:47:23.022Z</time></trkpt><trkpt lat="46.2365689" lon="10.1390483"><ele>559.0</ele><time>2026-04-11T13:47:24.022Z</time></trkpt><trkpt lat="46.2364455" lon="10.139213"><ele>559.0</ele><time>2026-04-11T13:47:25.022Z</time></trkpt><trkpt lat="46.2363268" lon="10.1393672"><ele>558.5</ele><time>2026-04-11T13:47:26.022Z</time></trkpt><trkpt lat="46.2362099" lon="10.1395084"><ele>558.0</ele><time>2026-04-11T13:47:27.022Z</time></trkpt><trkpt lat="46.2360952" lon="10.1396391"><ele>557.5</ele><time>2026-04-11T13:47:28.022Z</time></trkpt><trkpt lat="46.2359913" lon="10.1397593"><ele>557.0</ele><time>2026-04-11T13:47:29.022Z</time></trkpt><trkpt lat="46.2358892" lon="10.1398656"><ele>557.0</ele><time>2026-04-11T13:47:30.021Z</time></trkpt><trkpt lat="46.2357874" lon="10.1399493"><ele>557.0</ele><time>2026-04-11T13:47:31.022Z</time></trkpt><trkpt lat="46.2356735" lon="10.1400101"><ele>557.0</ele><time>2026-04-11T13:47:32.022Z</time></trkpt><trkpt lat="46.2355623" lon="10.1400394"><ele>557.0</ele><time>2026-04-11T13:47:33.022Z</time></trkpt><trkpt lat="46.2354579" lon="10.1400468"><ele>558.3333333333333</ele><time>2026-04-11T13:47:34.022Z</time></trkpt><trkpt lat="46.2353624" lon="10.1400322"><ele>559.6666666666666</ele><time>2026-04-11T13:47:35.021Z</time></trkpt><trkpt lat="46.235279" lon="10.1400062"><ele>561.0</ele><time>2026-04-11T13:47:36.022Z</time></trkpt><trkpt lat="46.2352028" lon="10.1399924"><ele>562.3333333333334</ele><time>2026-04-11T13:47:37.022Z</time></trkpt><trkpt lat="46.2351334" lon="10.1400025"><ele>563.6666666666667</ele><time>2026-04-11T13:47:38.022Z</time></trkpt><trkpt lat="46.2350257" lon="10.1400799"><ele>565.0</ele><time>2026-04-11T13:47:40.021Z</time></trkpt><trkpt lat="46.2349687" lon="10.1401465"><ele>565.0</ele><time>2026-04-11T13:47:41.022Z</time></trkpt><trkpt lat="46.234897" lon="10.1402263"><ele>565.0</ele><time>2026-04-11T13:47:42.022Z</time></trkpt><trkpt lat="46.2348142" lon="10.1403132"><ele>565.0</ele><time>2026-04-11T13:47:43.022Z</time></trkpt><trkpt lat="46.2347335" lon="10.1404031"><ele>565.0</ele><time>2026-04-11T13:47:44.022Z</time></trkpt><trkpt lat="46.2346399" lon="10.1404985"><ele>565.0</ele><time>2026-04-11T13:47:45.022Z</time></trkpt><trkpt lat="46.2345427" lon="10.1406113"><ele>562.5</ele><time>2026-04-11T13:47:46.022Z</time></trkpt><trkpt lat="46.2344383" lon="10.140731"><ele>560.0</ele><time>2026-04-11T13:47:47.022Z</time></trkpt><trkpt lat="46.2343424" lon="10.140855"><ele>557.5</ele><time>2026-04-11T13:47:48.022Z</time></trkpt><trkpt lat="46.234257" lon="10.1409843"><ele>555.0</ele><time>2026-04-11T13:47:49.022Z</time></trkpt><trkpt lat="46.2341865" lon="10.1411294"><ele>555.0</ele><time>2026-04-11T13:47:50.022Z</time></trkpt><trkpt lat="46.234131" lon="10.1412681"><ele>555.0</ele><time>2026-04-11T13:47:51.022Z</time></trkpt><trkpt lat="46.2340791" lon="10.1414008"><ele>555.0</ele><time>2026-04-11T13:47:52.022Z</time></trkpt><trkpt lat="46.2340285" lon="10.141532"><ele>555.0</ele><time>2026-04-11T13:47:53.021Z</time></trkpt><trkpt lat="46.2339788" lon="10.1416559"><ele>555.0</ele><time>2026-04-11T13:47:54.022Z</time></trkpt><trkpt lat="46.2339285" lon="10.14178"><ele>554.8</ele><time>2026-04-11T13:47:55.022Z</time></trkpt><trkpt lat="46.2338801" lon="10.1418971"><ele>554.6</ele><time>2026-04-11T13:47:56.022Z</time></trkpt><trkpt lat="46.2338331" lon="10.1420075"><ele>554.4</ele><time>2026-04-11T13:47:57.022Z</time></trkpt><trkpt lat="46.2337732" lon="10.1421095"><ele>554.2</ele><time>2026-04-11T13:47:58.022Z</time></trkpt><trkpt lat="46.2337092" lon="10.1422012"><ele>554.0</ele><time>2026-04-11T13:47:59.022Z</time></trkpt><trkpt lat="46.233639" lon="10.142292"><ele>554.0</ele><time>2026-04-11T13:48:00.021Z</time></trkpt><trkpt lat="46.233566" lon="10.1423782"><ele>554.0</ele><time>2026-04-11T13:48:01.022Z</time></trkpt><trkpt lat="46.2334893" lon="10.142458"><ele>554.0</ele><time>2026-04-11T13:48:02.022Z</time></trkpt><trkpt lat="46.2334175" lon="10.1425378"><ele>554.0</ele><time>2026-04-11T13:48:03.022Z</time></trkpt><trkpt lat="46.2333401" lon="10.1426008"><ele>554.0</ele><time>2026-04-11T13:48:04.022Z</time></trkpt><trkpt lat="46.2332733" lon="10.1426695"><ele>553.0</ele><time>2026-04-11T13:48:05.022Z</time></trkpt><trkpt lat="46.2332011" lon="10.1427213"><ele>552.0</ele><time>2026-04-11T13:48:06.022Z</time></trkpt><trkpt lat="46.2331335" lon="10.1427799"><ele>551.0</ele><time>2026-04-11T13:48:07.022Z</time></trkpt><trkpt lat="46.2330673" lon="10.1428373"><ele>550.0</ele><time>2026-04-11T13:48:08.022Z</time></trkpt><trkpt lat="46.2330072" lon="10.142902"><ele>549.0</ele><time>2026-04-11T13:48:09.022Z</time></trkpt><trkpt lat="46.2329485" lon="10.1429644"><ele>548.0</ele><time>2026-04-11T13:48:10.022Z</time></trkpt><trkpt lat="46.2328911" lon="10.1430199"><ele>548.0</ele><time>2026-04-11T13:48:11.022Z</time></trkpt><trkpt lat="46.2328206" lon="10.1430667"><ele>548.0</ele><time>2026-04-11T13:48:12.022Z</time></trkpt><trkpt lat="46.2327319" lon="10.1431122"><ele>548.0</ele><time>2026-04-11T13:48:13.022Z</time></trkpt><trkpt lat="46.2326447" lon="10.1431702"><ele>548.0</ele><time>2026-04-11T13:48:14.022Z</time></trkpt><trkpt lat="46.2325649" lon="10.1432232"><ele>548.0</ele><time>2026-04-11T13:48:15.022Z</time></trkpt><trkpt lat="46.2324839" lon="10.1432727"><ele>548.0</ele><time>2026-04-11T13:48:16.022Z</time></trkpt><trkpt lat="46.2324014" lon="10.1433086"><ele>545.4</ele><time>2026-04-11T13:48:17.022Z</time></trkpt><trkpt lat="46.2323113" lon="10.1433398"><ele>542.8</ele><time>2026-04-11T13:48:18.021Z</time></trkpt><trkpt lat="46.232211" lon="10.1433695"><ele>540.2</ele><time>2026-04-11T13:48:19.022Z</time></trkpt><trkpt lat="46.2320991" lon="10.1434005"><ele>537.6</ele><time>2026-04-11T13:48:20.022Z</time></trkpt><trkpt lat="46.2319773" lon="10.1434236"><ele>535.0</ele><time>2026-04-11T13:48:21.022Z</time></trkpt><trkpt lat="46.231855" lon="10.1434699"><ele>535.0</ele><time>2026-04-11T13:48:22.022Z</time></trkpt><trkpt lat="46.2317407" lon="10.1435211"><ele>535.0</ele><time>2026-04-11T13:48:23.022Z</time></trkpt><trkpt lat="46.2316355" lon="10.1435865"><ele>535.0</ele><time>2026-04-11T13:48:24.022Z</time></trkpt><trkpt lat="46.2315335" lon="10.1436776"><ele>535.0</ele><time>2026-04-11T13:48:25.022Z</time></trkpt><trkpt lat="46.2314364" lon="10.1437796"><ele>534.25</ele><time>2026-04-11T13:48:26.022Z</time></trkpt><trkpt lat="46.2313443" lon="10.1438839"><ele>533.5</ele><time>2026-04-11T13:48:27.022Z</time></trkpt><trkpt lat="46.2312631" lon="10.1440001"><ele>532.75</ele><time>2026-04-11T13:48:28.022Z</time></trkpt><trkpt lat="46.2311861" lon="10.1441166"><ele>532.0</ele><time>2026-04-11T13:48:29.022Z</time></trkpt><trkpt lat="46.2311107" lon="10.1442266"><ele>532.0</ele><time>2026-04-11T13:48:30.022Z</time></trkpt><trkpt lat="46.2310454" lon="10.1443479"><ele>532.0</ele><time>2026-04-11T13:48:31.022Z</time></trkpt><trkpt lat="46.2309874" lon="10.1444566"><ele>532.0</ele><time>2026-04-11T13:48:32.022Z</time></trkpt><trkpt lat="46.2309322" lon="10.1445633"><ele>532.0</ele><time>2026-04-11T13:48:33.022Z</time></trkpt><trkpt lat="46.2308733" lon="10.1446658"><ele>532.0</ele><time>2026-04-11T13:48:34.022Z</time></trkpt><trkpt lat="46.2308195" lon="10.1447593"><ele>532.0</ele><time>2026-04-11T13:48:35.022Z</time></trkpt><trkpt lat="46.2307667" lon="10.1448501"><ele>532.0</ele><time>2026-04-11T13:48:36.021Z</time></trkpt><trkpt lat="46.2307138" lon="10.1449364"><ele>532.0</ele><time>2026-04-11T13:48:37.022Z</time></trkpt><trkpt lat="46.2306562" lon="10.1450096"><ele>532.0</ele><time>2026-04-11T13:48:38.022Z</time></trkpt><trkpt lat="46.2306021" lon="10.1450772"><ele>532.0</ele><time>2026-04-11T13:48:39.022Z</time></trkpt><trkpt lat="46.2305578" lon="10.1451467"><ele>532.0</ele><time>2026-04-11T13:48:40.022Z</time></trkpt><trkpt lat="46.2304799" lon="10.1452661"><ele>531.7142857142857</ele><time>2026-04-11T13:48:42.022Z</time></trkpt><trkpt lat="46.2304308" lon="10.1453529"><ele>531.4285714285714</ele><time>2026-04-11T13:48:43.022Z</time></trkpt><trkpt lat="46.2303863" lon="10.1454289"><ele>531.1428571428571</ele><time>2026-04-11T13:48:44.021Z</time></trkpt><trkpt lat="46.2303438" lon="10.1455035"><ele>530.8571428571429</ele><time>2026-04-11T13:48:45.022Z</time></trkpt><trkpt lat="46.2302905" lon="10.1455646"><ele>530.5714285714286</ele><time>2026-04-11T13:48:46.021Z</time></trkpt><trkpt lat="46.2302258" lon="10.145605"><ele>530.2857142857142</ele><time>2026-04-11T13:48:47.022Z</time></trkpt><trkpt lat="46.230151" lon="10.1456299"><ele>530.0</ele><time>2026-04-11T13:48:48.022Z</time></trkpt><trkpt lat="46.2300766" lon="10.1456357"><ele>530.0</ele><time>2026-04-11T13:48:49.022Z</time></trkpt><trkpt lat="46.23" lon="10.145646"><ele>530.0</ele><time>2026-04-11T13:48:50.022Z</time></trkpt><trkpt lat="46.2299294" lon="10.1456636"><ele>530.0</ele><time>2026-04-11T13:48:51.022Z</time></trkpt><trkpt lat="46.2298597" lon="10.1456932"><ele>530.0</ele><time>2026-04-11T13:48:52.021Z</time></trkpt><trkpt lat="46.2297915" lon="10.1457361"><ele>530.0</ele><time>2026-04-11T13:48:53.022Z</time></trkpt><trkpt lat="46.2297273" lon="10.1457879"><ele>530.0</ele><time>2026-04-11T13:48:54.022Z</time></trkpt><trkpt lat="46.2295977" lon="10.1458811"><ele>528.0</ele><time>2026-04-11T13:48:56.022Z</time></trkpt><trkpt lat="46.2295358" lon="10.1459231"><ele>526.0</ele><time>2026-04-11T13:48:57.022Z</time></trkpt><trkpt lat="46.2294322" lon="10.1459799"><ele>524.0</ele><time>2026-04-11T13:48:59.022Z</time></trkpt><trkpt lat="46.2293553" lon="10.1460143"><ele>522.0</ele><time>2026-04-11T13:49:01.022Z</time></trkpt><trkpt lat="46.2292749" lon="10.1459899"><ele>520.0</ele><time>2026-04-11T13:49:03.021Z</time></trkpt><trkpt lat="46.2291926" lon="10.1459866"><ele>518.0</ele><time>2026-04-11T13:49:04.021Z</time></trkpt><trkpt lat="46.2291155" lon="10.1460297"><ele>518.0</ele><time>2026-04-11T13:49:05.022Z</time></trkpt><trkpt lat="46.22903" lon="10.1461018"><ele>518.0</ele><time>2026-04-11T13:49:06.022Z</time></trkpt><trkpt lat="46.2289386" lon="10.1461397"><ele>518.0</ele><time>2026-04-11T13:49:07.022Z</time></trkpt><trkpt lat="46.228859" lon="10.1461759"><ele>518.0</ele><time>2026-04-11T13:49:08.022Z</time></trkpt><trkpt lat="46.2287627" lon="10.146186"><ele>518.0</ele><time>2026-04-11T13:49:09.021Z</time></trkpt><trkpt lat="46.2286759" lon="10.1461916"><ele>518.3333333333333</ele><time>2026-04-11T13:49:10.022Z</time></trkpt><trkpt lat="46.2285803" lon="10.1461983"><ele>518.6666666666666</ele><time>2026-04-11T13:49:11.021Z</time></trkpt><trkpt lat="46.2284913" lon="10.1461883"><ele>519.0</ele><time>2026-04-11T13:49:12.022Z</time></trkpt><trkpt lat="46.2284045" lon="10.1461769"><ele>519.3333333333334</ele><time>2026-04-11T13:49:13.021Z</time></trkpt><trkpt lat="46.2283222" lon="10.1461645"><ele>519.6666666666667</ele><time>2026-04-11T13:49:14.022Z</time></trkpt><trkpt lat="46.2282368" lon="10.1461546"><ele>520.0</ele><time>2026-04-11T13:49:15.022Z</time></trkpt><trkpt lat="46.2281435" lon="10.1461449"><ele>518.5</ele><time>2026-04-11T13:49:16.022Z</time></trkpt><trkpt lat="46.2280397" lon="10.146145"><ele>517.0</ele><time>2026-04-11T13:49:17.022Z</time></trkpt><trkpt lat="46.227929" lon="10.1461774"><ele>515.5</ele><time>2026-04-11T13:49:18.021Z</time></trkpt><trkpt lat="46.2278025" lon="10.1462219"><ele>514.0</ele><time>2026-04-11T13:49:19.022Z</time></trkpt><trkpt lat="46.2276596" lon="10.1462386"><ele>514.0</ele><time>2026-04-11T13:49:20.021Z</time></trkpt><trkpt lat="46.2275026" lon="10.1462282"><ele>514.0</ele><time>2026-04-11T13:49:21.022Z</time></trkpt><trkpt lat="46.2273397" lon="10.1461935"><ele>514.0</ele><time>2026-04-11T13:49:22.022Z</time></trkpt><trkpt lat="46.2271828" lon="10.1461764"><ele>516.0</ele><time>2026-04-11T13:49:23.022Z</time></trkpt><trkpt lat="46.2270347" lon="10.146194"><ele>518.0</ele><time>2026-04-11T13:49:24.022Z</time></trkpt><trkpt lat="46.226899" lon="10.1462416"><ele>520.0</ele><time>2026-04-11T13:49:25.021Z</time></trkpt><trkpt lat="46.2267708" lon="10.1463415"><ele>522.0</ele><time>2026-04-11T13:49:26.022Z</time></trkpt><trkpt lat="46.2266445" lon="10.1464669"><ele>517.6666666666666</ele><time>2026-04-11T13:49:27.022Z</time></trkpt><trkpt lat="46.2265179" lon="10.1466016"><ele>513.3333333333333</ele><time>2026-04-11T13:49:28.022Z</time></trkpt><trkpt lat="46.2263996" lon="10.1467346"><ele>509.0</ele><time>2026-04-11T13:49:29.022Z</time></trkpt><trkpt lat="46.2262779" lon="10.1468591"><ele>509.0</ele><time>2026-04-11T13:49:30.022Z</time></trkpt><trkpt lat="46.2261596" lon="10.1469593"><ele>509.0</ele><time>2026-04-11T13:49:31.022Z</time></trkpt><trkpt lat="46.2260471" lon="10.1470588"><ele>509.0</ele><time>2026-04-11T13:49:32.022Z</time></trkpt><trkpt lat="46.2259367" lon="10.1471538"><ele>509.0</ele><time>2026-04-11T13:49:33.022Z</time></trkpt><trkpt lat="46.2258213" lon="10.1472462"><ele>509.0</ele><time>2026-04-11T13:49:34.022Z</time></trkpt><trkpt lat="46.2257089" lon="10.1473369"><ele>509.0</ele><time>2026-04-11T13:49:35.022Z</time></trkpt><trkpt lat="46.2255964" lon="10.1474348"><ele>509.0</ele><time>2026-04-11T13:49:36.022Z</time></trkpt><trkpt lat="46.2254862" lon="10.1475392"><ele>509.0</ele><time>2026-04-11T13:49:37.022Z</time></trkpt><trkpt lat="46.2253784" lon="10.1476519"><ele>509.0</ele><time>2026-04-11T13:49:38.022Z</time></trkpt><trkpt lat="46.2252713" lon="10.1477947"><ele>509.0</ele><time>2026-04-11T13:49:39.022Z</time></trkpt><trkpt lat="46.2251536" lon="10.1479739"><ele>509.0</ele><time>2026-04-11T13:49:40.022Z</time></trkpt><trkpt lat="46.2250314" lon="10.1481761"><ele>512.0</ele><time>2026-04-11T13:49:41.022Z</time></trkpt><trkpt lat="46.2249023" lon="10.148393"><ele>515.0</ele><time>2026-04-11T13:49:42.022Z</time></trkpt><trkpt lat="46.2247698" lon="10.1485754"><ele>518.0</ele><time>2026-04-11T13:49:43.021Z</time></trkpt><trkpt lat="46.2246556" lon="10.1487503"><ele>518.0</ele><time>2026-04-11T13:49:44.022Z</time></trkpt><trkpt lat="46.2245601" lon="10.1489364"><ele>518.0</ele><time>2026-04-11T13:49:45.022Z</time></trkpt><trkpt lat="46.2244867" lon="10.1491307"><ele>518.0</ele><time>2026-04-11T13:49:46.022Z</time></trkpt><trkpt lat="46.2244216" lon="10.1493249"><ele>510.5</ele><time>2026-04-11T13:49:47.022Z</time></trkpt><trkpt lat="46.2243502" lon="10.1494871"><ele>503.0</ele><time>2026-04-11T13:49:48.022Z</time></trkpt><trkpt lat="46.2242563" lon="10.1496221"><ele>495.5</ele><time>2026-04-11T13:49:49.022Z</time></trkpt><trkpt lat="46.2241308" lon="10.1497395"><ele>488.0</ele><time>2026-04-11T13:49:50.022Z</time></trkpt><trkpt lat="46.2239838" lon="10.1498368"><ele>487.0</ele><time>2026-04-11T13:49:51.022Z</time></trkpt><trkpt lat="46.2238421" lon="10.1499181"><ele>486.0</ele><time>2026-04-11T13:49:52.022Z</time></trkpt><trkpt lat="46.2237209" lon="10.1500331"><ele>485.0</ele><time>2026-04-11T13:49:53.022Z</time></trkpt><trkpt lat="46.2236204" lon="10.1502256"><ele>485.0</ele><time>2026-04-11T13:49:54.021Z</time></trkpt><trkpt lat="46.2235195" lon="10.1504522"><ele>485.0</ele><time>2026-04-11T13:49:55.022Z</time></trkpt><trkpt lat="46.2234101" lon="10.1506744"><ele>485.0</ele><time>2026-04-11T13:49:56.022Z</time></trkpt><trkpt lat="46.2233192" lon="10.1508853"><ele>484.0</ele><time>2026-04-11T13:49:57.022Z</time></trkpt><trkpt lat="46.2232316" lon="10.1510715"><ele>483.0</ele><time>2026-04-11T13:49:58.022Z</time></trkpt><trkpt lat="46.2231494" lon="10.1512518"><ele>482.0</ele><time>2026-04-11T13:49:59.022Z</time></trkpt><trkpt lat="46.2230828" lon="10.1514173"><ele>481.0</ele><time>2026-04-11T13:50:00.022Z</time></trkpt><trkpt lat="46.2230367" lon="10.1516004"><ele>475.75</ele><time>2026-04-11T13:50:01.022Z</time></trkpt><trkpt lat="46.2230046" lon="10.1517725"><ele>470.5</ele><time>2026-04-11T13:50:02.022Z</time></trkpt><trkpt lat="46.2229831" lon="10.1519464"><ele>465.25</ele><time>2026-04-11T13:50:03.022Z</time></trkpt><trkpt lat="46.2229686" lon="10.1521172"><ele>460.0</ele><time>2026-04-11T13:50:04.022Z</time></trkpt><trkpt lat="46.2229452" lon="10.1522795"><ele>458.25</ele><time>2026-04-11T13:50:05.021Z</time></trkpt><trkpt lat="46.2228913" lon="10.1524252"><ele>456.5</ele><time>2026-04-11T13:50:06.022Z</time></trkpt><trkpt lat="46.2228134" lon="10.1525348"><ele>454.75</ele><time>2026-04-11T13:50:07.022Z</time></trkpt><trkpt lat="46.2227089" lon="10.1526267"><ele>453.0</ele><time>2026-04-11T13:50:08.021Z</time></trkpt><trkpt lat="46.2225878" lon="10.1527201"><ele>453.0</ele><time>2026-04-11T13:50:09.022Z</time></trkpt><trkpt lat="46.2224509" lon="10.1528184"><ele>453.0</ele><time>2026-04-11T13:50:10.022Z</time></trkpt><trkpt lat="46.2223107" lon="10.1529095"><ele>453.0</ele><time>2026-04-11T13:50:11.021Z</time></trkpt><trkpt lat="46.2221712" lon="10.1529912"><ele>452.25</ele><time>2026-04-11T13:50:12.022Z</time></trkpt><trkpt lat="46.2220449" lon="10.1530801"><ele>451.5</ele><time>2026-04-11T13:50:13.022Z</time></trkpt><trkpt lat="46.2219214" lon="10.1531649"><ele>450.75</ele><time>2026-04-11T13:50:14.022Z</time></trkpt><trkpt lat="46.2218006" lon="10.1532441"><ele>450.0</ele><time>2026-04-11T13:50:15.022Z</time></trkpt><trkpt lat="46.2216833" lon="10.1533245"><ele>449.75</ele><time>2026-04-11T13:50:16.021Z</time></trkpt><trkpt lat="46.2215653" lon="10.1534059"><ele>449.5</ele><time>2026-04-11T13:50:17.022Z</time></trkpt><trkpt lat="46.2214516" lon="10.1534842"><ele>449.25</ele><time>2026-04-11T13:50:18.022Z</time></trkpt><trkpt lat="46.2213285" lon="10.1535657"><ele>449.0</ele><time>2026-04-11T13:50:19.022Z</time></trkpt><trkpt lat="46.2212093" lon="10.1536424"><ele>448.25</ele><time>2026-04-11T13:50:20.021Z</time></trkpt><trkpt lat="46.2211011" lon="10.1537206"><ele>447.5</ele><time>2026-04-11T13:50:21.022Z</time></trkpt><trkpt lat="46.2209966" lon="10.1537957"><ele>446.75</ele><time>2026-04-11T13:50:22.022Z</time></trkpt><trkpt lat="46.2208943" lon="10.1538632"><ele>446.0</ele><time>2026-04-11T13:50:23.022Z</time></trkpt><trkpt lat="46.2207862" lon="10.15393"><ele>446.0</ele><time>2026-04-11T13:50:24.022Z</time></trkpt><trkpt lat="46.2206835" lon="10.1539937"><ele>446.0</ele><time>2026-04-11T13:50:25.022Z</time></trkpt><trkpt lat="46.2205865" lon="10.1540635"><ele>446.0</ele><time>2026-04-11T13:50:26.022Z</time></trkpt><trkpt lat="46.2204854" lon="10.154122"><ele>446.0</ele><time>2026-04-11T13:50:27.022Z</time></trkpt><trkpt lat="46.2203932" lon="10.1541898"><ele>446.0</ele><time>2026-04-11T13:50:28.021Z</time></trkpt><trkpt lat="46.2203022" lon="10.1542564"><ele>445.99999999999994</ele><time>2026-04-11T13:50:29.022Z</time></trkpt><trkpt lat="46.2202223" lon="10.1543182"><ele>446.0</ele><time>2026-04-11T13:50:30.022Z</time></trkpt><trkpt lat="46.2201506" lon="10.1543617"><ele>446.0</ele><time>2026-04-11T13:50:31.022Z</time></trkpt><trkpt lat="46.2200848" lon="10.1543981"><ele>446.0</ele><time>2026-04-11T13:50:32.022Z</time></trkpt><trkpt lat="46.2200252" lon="10.1544405"><ele>445.99999999999994</ele><time>2026-04-11T13:50:33.022Z</time></trkpt><trkpt lat="46.2199164" lon="10.1545261"><ele>446.0</ele><time>2026-04-11T13:50:35.022Z</time></trkpt><trkpt lat="46.2198226" lon="10.1545956"><ele>445.3333333333333</ele><time>2026-04-11T13:50:37.022Z</time></trkpt><trkpt lat="46.2197596" lon="10.1546417"><ele>444.66666666666663</ele><time>2026-04-11T13:50:38.021Z</time></trkpt><trkpt lat="46.2196809" lon="10.154703"><ele>444.0</ele><time>2026-04-11T13:50:39.022Z</time></trkpt><trkpt lat="46.2195928" lon="10.1547688"><ele>443.33333333333337</ele><time>2026-04-11T13:50:40.022Z</time></trkpt><trkpt lat="46.2195081" lon="10.1548258"><ele>442.6666666666667</ele><time>2026-04-11T13:50:41.021Z</time></trkpt><trkpt lat="46.2194361" lon="10.1548686"><ele>442.0</ele><time>2026-04-11T13:50:42.022Z</time></trkpt><trkpt lat="46.2193685" lon="10.154914"><ele>441.8571428571429</ele><time>2026-04-11T13:50:43.022Z</time></trkpt><trkpt lat="46.2193057" lon="10.1549612"><ele>441.7142857142857</ele><time>2026-04-11T13:50:44.022Z</time></trkpt><trkpt lat="46.2192443" lon="10.1550051"><ele>441.57142857142856</ele><time>2026-04-11T13:50:45.022Z</time></trkpt><trkpt lat="46.2191729" lon="10.1550519"><ele>441.42857142857144</ele><time>2026-04-11T13:50:46.022Z</time></trkpt><trkpt lat="46.2191023" lon="10.1551006"><ele>441.2857142857143</ele><time>2026-04-11T13:50:47.022Z</time></trkpt><trkpt lat="46.2190343" lon="10.1551438"><ele>441.14285714285717</ele><time>2026-04-11T13:50:48.022Z</time></trkpt><trkpt lat="46.2189716" lon="10.1551803"><ele>441.0</ele><time>2026-04-11T13:50:49.022Z</time></trkpt><trkpt lat="46.2188864" lon="10.1552277"><ele>441.0</ele><time>2026-04-11T13:50:51.022Z</time></trkpt><trkpt lat="46.2188096" lon="10.1552951"><ele>441.0</ele><time>2026-04-11T13:50:54.022Z</time></trkpt><trkpt lat="46.2187172" lon="10.1553498"><ele>441.0</ele><time>2026-04-11T13:50:57.022Z</time></trkpt><trkpt lat="46.2186096" lon="10.1554083"><ele>441.0</ele><time>2026-04-11T13:50:59.022Z</time></trkpt><trkpt lat="46.2185482" lon="10.1554464"><ele>441.0</ele><time>2026-04-11T13:51:00.022Z</time></trkpt><trkpt lat="46.2184593" lon="10.1555047"><ele>441.0</ele><time>2026-04-11T13:51:02.022Z</time></trkpt><trkpt lat="46.2183861" lon="10.1555446"><ele>441.0</ele><time>2026-04-11T13:51:04.022Z</time></trkpt><trkpt lat="46.2183106" lon="10.1555987"><ele>441.0</ele><time>2026-04-11T13:51:06.022Z</time></trkpt><trkpt lat="46.218253" lon="10.1556529"><ele>441.0</ele><time>2026-04-11T13:51:09.022Z</time></trkpt><trkpt lat="46.218191" lon="10.1556223"><ele>441.0</ele><time>2026-04-11T13:51:18.022Z</time></trkpt><trkpt lat="46.2181811" lon="10.1554907"><ele>441.0</ele><time>2026-04-11T13:51:21.021Z</time></trkpt><trkpt lat="46.2181637" lon="10.1553491"><ele>441.0</ele><time>2026-04-11T13:51:23.021Z</time></trkpt><trkpt lat="46.2181572" lon="10.1552552"><ele>441.0</ele><time>2026-04-11T13:51:25.021Z</time></trkpt><trkpt lat="46.218136" lon="10.1551276"><ele>441.0</ele><time>2026-04-11T13:51:28.021Z</time></trkpt><trkpt lat="46.2180913" lon="10.1550115"><ele>441.0</ele><time>2026-04-11T13:51:31.021Z</time></trkpt><trkpt lat="46.2180487" lon="10.1549001"><ele>441.0</ele><time>2026-04-11T13:51:34.02Z</time></trkpt><trkpt lat="46.2180159" lon="10.1548093"><ele>441.0</ele><time>2026-04-11T13:51:36.02Z</time></trkpt><trkpt lat="46.2179763" lon="10.1547041"><ele>436.0</ele><time>2026-04-11T13:51:39.021Z</time></trkpt><trkpt lat="46.2179059" lon="10.1546598"><ele>436.0</ele><time>2026-04-11T13:51:42.021Z</time></trkpt><trkpt lat="46.2178284" lon="10.1546502"><ele>436.0</ele><time>2026-04-11T13:51:45.021Z</time></trkpt><trkpt lat="46.2178284" lon="10.1545525"><ele>436.0</ele><time>2026-04-11T13:53:30.039Z</time></trkpt></trkseg><trkseg><trkpt lat="46.217766" lon="10.154673"><ele>436.00000000000006</ele><time>2026-04-11T14:31:55.02Z</time></trkpt><trkpt lat="46.2177053" lon="10.1547123"><ele>436.0</ele><time>2026-04-11T14:32:02.02Z</time></trkpt><trkpt lat="46.2176196" lon="10.1547375"><ele>436.0</ele><time>2026-04-11T14:32:10.02Z</time></trkpt><trkpt lat="46.2175349" lon="10.1546576"><ele>436.0</ele><time>2026-04-11T14:32:12.019Z</time></trkpt><trkpt lat="46.2174865" lon="10.1545921"><ele>436.00000000000006</ele><time>2026-04-11T14:32:13.019Z</time></trkpt><trkpt lat="46.2174348" lon="10.1545186"><ele>436.0</ele><time>2026-04-11T14:32:14.02Z</time></trkpt><trkpt lat="46.2173771" lon="10.1544423"><ele>436.00000000000006</ele><time>2026-04-11T14:32:15.02Z</time></trkpt><trkpt lat="46.21732" lon="10.1543775"><ele>436.0</ele><time>2026-04-11T14:32:16.02Z</time></trkpt><trkpt lat="46.2172596" lon="10.154306"><ele>436.0</ele><time>2026-04-11T14:32:17.02Z</time></trkpt><trkpt lat="46.2171924" lon="10.1542276"><ele>436.0</ele><time>2026-04-11T14:32:18.02Z</time></trkpt><trkpt lat="46.2171205" lon="10.1541387"><ele>436.00000000000006</ele><time>2026-04-11T14:32:19.02Z</time></trkpt><trkpt lat="46.2170497" lon="10.1540507"><ele>436.0</ele><time>2026-04-11T14:32:20.02Z</time></trkpt><trkpt lat="46.2169788" lon="10.1539642"><ele>435.57142857142856</ele><time>2026-04-11T14:32:21.02Z</time></trkpt><trkpt lat="46.2169096" lon="10.1538919"><ele>435.14285714285717</ele><time>2026-04-11T14:32:22.02Z</time></trkpt><trkpt lat="46.2168454" lon="10.1538318"><ele>434.71428571428567</ele><time>2026-04-11T14:32:23.02Z</time></trkpt><trkpt lat="46.2167871" lon="10.1537665"><ele>434.2857142857143</ele><time>2026-04-11T14:32:24.02Z</time></trkpt><trkpt lat="46.2167328" lon="10.1537021"><ele>433.85714285714283</ele><time>2026-04-11T14:32:25.02Z</time></trkpt><trkpt lat="46.2166798" lon="10.1536443"><ele>433.4285714285714</ele><time>2026-04-11T14:32:26.02Z</time></trkpt><trkpt lat="46.2166237" lon="10.1535865"><ele>433.0</ele><time>2026-04-11T14:32:27.02Z</time></trkpt><trkpt lat="46.2165674" lon="10.1535275"><ele>433.00000000000006</ele><time>2026-04-11T14:32:28.019Z</time></trkpt><trkpt lat="46.2165096" lon="10.1534672"><ele>433.0</ele><time>2026-04-11T14:32:29.02Z</time></trkpt><trkpt lat="46.2164191" lon="10.1533556"><ele>433.0</ele><time>2026-04-11T14:32:31.02Z</time></trkpt><trkpt lat="46.216332" lon="10.1532669"><ele>433.0</ele><time>2026-04-11T14:32:33.02Z</time></trkpt><trkpt lat="46.2162815" lon="10.1532053"><ele>433.00000000000006</ele><time>2026-04-11T14:32:35.019Z</time></trkpt><trkpt lat="46.2162302" lon="10.153143"><ele>433.0</ele><time>2026-04-11T14:32:37.02Z</time></trkpt><trkpt lat="46.2161802" lon="10.1530607"><ele>432.2</ele><time>2026-04-11T14:32:39.02Z</time></trkpt><trkpt lat="46.2161213" lon="10.1529541"><ele>431.4</ele><time>2026-04-11T14:32:41.02Z</time></trkpt><trkpt lat="46.2160657" lon="10.152896"><ele>430.59999999999997</ele><time>2026-04-11T14:32:42.02Z</time></trkpt><trkpt lat="46.2160096" lon="10.1528438"><ele>429.79999999999995</ele><time>2026-04-11T14:32:43.02Z</time></trkpt><trkpt lat="46.2158829" lon="10.1527482"><ele>429.0</ele><time>2026-04-11T14:32:45.02Z</time></trkpt><trkpt lat="46.2158104" lon="10.1526698"><ele>429.0</ele><time>2026-04-11T14:32:46.02Z</time></trkpt><trkpt lat="46.2157341" lon="10.1525814"><ele>429.0</ele><time>2026-04-11T14:32:47.02Z</time></trkpt><trkpt lat="46.2156556" lon="10.1524857"><ele>429.0</ele><time>2026-04-11T14:32:48.02Z</time></trkpt><trkpt lat="46.2155837" lon="10.1524034"><ele>429.0</ele><time>2026-04-11T14:32:49.02Z</time></trkpt><trkpt lat="46.2155146" lon="10.1523228"><ele>429.0</ele><time>2026-04-11T14:32:50.02Z</time></trkpt><trkpt lat="46.215443" lon="10.1522438"><ele>429.0</ele><time>2026-04-11T14:32:51.02Z</time></trkpt><trkpt lat="46.2153682" lon="10.1521617"><ele>429.0</ele><time>2026-04-11T14:32:52.02Z</time></trkpt><trkpt lat="46.2152833" lon="10.152075"><ele>429.0</ele><time>2026-04-11T14:32:53.02Z</time></trkpt><trkpt lat="46.215202" lon="10.151985"><ele>429.0</ele><time>2026-04-11T14:32:54.019Z</time></trkpt><trkpt lat="46.2151307" lon="10.151905"><ele>429.0</ele><time>2026-04-11T14:32:55.02Z</time></trkpt><trkpt lat="46.215058" lon="10.151824"><ele>429.0</ele><time>2026-04-11T14:32:56.02Z</time></trkpt><trkpt lat="46.2149878" lon="10.1517428"><ele>429.0</ele><time>2026-04-11T14:32:57.019Z</time></trkpt><trkpt lat="46.2149207" lon="10.1516606"><ele>429.0</ele><time>2026-04-11T14:32:58.019Z</time></trkpt><trkpt lat="46.2148544" lon="10.1515826"><ele>429.0</ele><time>2026-04-11T14:32:59.02Z</time></trkpt><trkpt lat="46.2147897" lon="10.1515064"><ele>429.0</ele><time>2026-04-11T14:33:00.02Z</time></trkpt><trkpt lat="46.2147263" lon="10.1514321"><ele>429.0</ele><time>2026-04-11T14:33:01.019Z</time></trkpt><trkpt lat="46.2146614" lon="10.1513571"><ele>428.6</ele><time>2026-04-11T14:33:02.02Z</time></trkpt><trkpt lat="46.214586" lon="10.1512754"><ele>428.2</ele><time>2026-04-11T14:33:03.02Z</time></trkpt><trkpt lat="46.2145029" lon="10.1511789"><ele>427.80000000000007</ele><time>2026-04-11T14:33:04.02Z</time></trkpt><trkpt lat="46.2144112" lon="10.1510734"><ele>427.40000000000003</ele><time>2026-04-11T14:33:05.019Z</time></trkpt><trkpt lat="46.2143141" lon="10.1509614"><ele>427.0</ele><time>2026-04-11T14:33:06.02Z</time></trkpt><trkpt lat="46.2142152" lon="10.1508443"><ele>427.0</ele><time>2026-04-11T14:33:07.02Z</time></trkpt><trkpt lat="46.2141171" lon="10.1507341"><ele>427.0</ele><time>2026-04-11T14:33:08.02Z</time></trkpt><trkpt lat="46.2140131" lon="10.1506171"><ele>427.0</ele><time>2026-04-11T14:33:09.02Z</time></trkpt><trkpt lat="46.2139043" lon="10.150493"><ele>427.0</ele><time>2026-04-11T14:33:10.02Z</time></trkpt><trkpt lat="46.2138007" lon="10.1503756"><ele>426.0</ele><time>2026-04-11T14:33:11.02Z</time></trkpt><trkpt lat="46.2136988" lon="10.1502594"><ele>425.0</ele><time>2026-04-11T14:33:12.02Z</time></trkpt><trkpt lat="46.2136044" lon="10.1501447"><ele>424.0</ele><time>2026-04-11T14:33:13.02Z</time></trkpt><trkpt lat="46.2135045" lon="10.150032"><ele>423.0</ele><time>2026-04-11T14:33:14.02Z</time></trkpt><trkpt lat="46.2134004" lon="10.1499204"><ele>423.75</ele><time>2026-04-11T14:33:15.02Z</time></trkpt><trkpt lat="46.2132966" lon="10.1498085"><ele>424.5</ele><time>2026-04-11T14:33:16.019Z</time></trkpt><trkpt lat="46.2131943" lon="10.1496954"><ele>425.25</ele><time>2026-04-11T14:33:17.02Z</time></trkpt><trkpt lat="46.2130981" lon="10.1495765"><ele>426.0</ele><time>2026-04-11T14:33:18.019Z</time></trkpt><trkpt lat="46.2129988" lon="10.1494606"><ele>424.25</ele><time>2026-04-11T14:33:19.02Z</time></trkpt><trkpt lat="46.2129" lon="10.1493436"><ele>422.5</ele><time>2026-04-11T14:33:20.02Z</time></trkpt><trkpt lat="46.212801" lon="10.1492256"><ele>420.75</ele><time>2026-04-11T14:33:21.02Z</time></trkpt><trkpt lat="46.2127047" lon="10.149116"><ele>419.0</ele><time>2026-04-11T14:33:22.02Z</time></trkpt><trkpt lat="46.2126074" lon="10.1490031"><ele>419.0</ele><time>2026-04-11T14:33:23.02Z</time></trkpt><trkpt lat="46.2125104" lon="10.1488922"><ele>419.0</ele><time>2026-04-11T14:33:24.019Z</time></trkpt><trkpt lat="46.2124272" lon="10.1487942"><ele>419.0</ele><time>2026-04-11T14:33:25.02Z</time></trkpt><trkpt lat="46.212358" lon="10.148716"><ele>419.0</ele><time>2026-04-11T14:33:26.019Z</time></trkpt><trkpt lat="46.2123" lon="10.1486447"><ele>419.0</ele><time>2026-04-11T14:33:27.02Z</time></trkpt><trkpt lat="46.2122281" lon="10.1485608"><ele>418.79999999999995</ele><time>2026-04-11T14:33:29.019Z</time></trkpt><trkpt lat="46.2121683" lon="10.1484878"><ele>418.59999999999997</ele><time>2026-04-11T14:33:31.02Z</time></trkpt><trkpt lat="46.2121073" lon="10.1484247"><ele>418.4</ele><time>2026-04-11T14:33:32.02Z</time></trkpt><trkpt lat="46.2120331" lon="10.1483404"><ele>418.2</ele><time>2026-04-11T14:33:33.02Z</time></trkpt><trkpt lat="46.211937" lon="10.1482292"><ele>418.0</ele><time>2026-04-11T14:33:34.019Z</time></trkpt><trkpt lat="46.2118202" lon="10.1481014"><ele>418.0</ele><time>2026-04-11T14:33:35.02Z</time></trkpt><trkpt lat="46.2117192" lon="10.1479929"><ele>418.0</ele><time>2026-04-11T14:33:36.02Z</time></trkpt><trkpt lat="46.2116295" lon="10.1478889"><ele>418.0</ele><time>2026-04-11T14:33:37.02Z</time></trkpt><trkpt lat="46.2115372" lon="10.1477881"><ele>418.0</ele><time>2026-04-11T14:33:38.02Z</time></trkpt><trkpt lat="46.2114408" lon="10.1476692"><ele>417.75</ele><time>2026-04-11T14:33:39.02Z</time></trkpt><trkpt lat="46.2113403" lon="10.1475516"><ele>417.5</ele><time>2026-04-11T14:33:40.02Z</time></trkpt><trkpt lat="46.2112312" lon="10.1474239"><ele>417.25</ele><time>2026-04-11T14:33:41.02Z</time></trkpt><trkpt lat="46.2111184" lon="10.1472942"><ele>417.0</ele><time>2026-04-11T14:33:42.02Z</time></trkpt><trkpt lat="46.2109993" lon="10.1471571"><ele>416.66666666666663</ele><time>2026-04-11T14:33:43.02Z</time></trkpt><trkpt lat="46.2108764" lon="10.1470189"><ele>416.3333333333333</ele><time>2026-04-11T14:33:44.02Z</time></trkpt><trkpt lat="46.2107548" lon="10.1468723"><ele>416.0</ele><time>2026-04-11T14:33:45.02Z</time></trkpt><trkpt lat="46.2106345" lon="10.1467324"><ele>415.66666666666663</ele><time>2026-04-11T14:33:46.02Z</time></trkpt><trkpt lat="46.210509" lon="10.1465956"><ele>415.33333333333337</ele><time>2026-04-11T14:33:47.02Z</time></trkpt><trkpt lat="46.2103816" lon="10.1464581"><ele>415.0</ele><time>2026-04-11T14:33:48.02Z</time></trkpt><trkpt lat="46.2102632" lon="10.1463224"><ele>414.0</ele><time>2026-04-11T14:33:49.02Z</time></trkpt><trkpt lat="46.2101421" lon="10.1461914"><ele>413.0</ele><time>2026-04-11T14:33:50.02Z</time></trkpt><trkpt lat="46.2100245" lon="10.1460409"><ele>412.0</ele><time>2026-04-11T14:33:51.02Z</time></trkpt><trkpt lat="46.2098964" lon="10.1458938"><ele>412.0</ele><time>2026-04-11T14:33:52.02Z</time></trkpt><trkpt lat="46.2097651" lon="10.1457433"><ele>412.0</ele><time>2026-04-11T14:33:53.02Z</time></trkpt><trkpt lat="46.2096359" lon="10.1455999"><ele>412.0</ele><time>2026-04-11T14:33:54.02Z</time></trkpt><trkpt lat="46.2095125" lon="10.145459"><ele>412.0</ele><time>2026-04-11T14:33:55.02Z</time></trkpt><trkpt lat="46.2093865" lon="10.1453151"><ele>412.0</ele><time>2026-04-11T14:33:56.02Z</time></trkpt><trkpt lat="46.2092601" lon="10.145173"><ele>412.0</ele><time>2026-04-11T14:33:57.019Z</time></trkpt><trkpt lat="46.2091351" lon="10.145029"><ele>412.0</ele><time>2026-04-11T14:33:58.02Z</time></trkpt><trkpt lat="46.2090113" lon="10.1448899"><ele>412.0</ele><time>2026-04-11T14:33:59.02Z</time></trkpt><trkpt lat="46.2088916" lon="10.1447571"><ele>412.0</ele><time>2026-04-11T14:34:00.02Z</time></trkpt><trkpt lat="46.208777" lon="10.1446187"><ele>411.75</ele><time>2026-04-11T14:34:01.02Z</time></trkpt><trkpt lat="46.2086589" lon="10.1444899"><ele>411.5</ele><time>2026-04-11T14:34:02.02Z</time></trkpt><trkpt lat="46.2085455" lon="10.1443661"><ele>411.25</ele><time>2026-04-11T14:34:03.02Z</time></trkpt><trkpt lat="46.2084313" lon="10.1442439"><ele>411.0</ele><time>2026-04-11T14:34:04.02Z</time></trkpt><trkpt lat="46.2083197" lon="10.1441107"><ele>411.0</ele><time>2026-04-11T14:34:05.02Z</time></trkpt><trkpt lat="46.2082128" lon="10.1439861"><ele>411.0</ele><time>2026-04-11T14:34:06.02Z</time></trkpt><trkpt lat="46.2081041" lon="10.1438632"><ele>411.0</ele><time>2026-04-11T14:34:07.02Z</time></trkpt><trkpt lat="46.2080032" lon="10.1437374"><ele>411.0</ele><time>2026-04-11T14:34:08.02Z</time></trkpt><trkpt lat="46.2079019" lon="10.14363"><ele>410.75</ele><time>2026-04-11T14:34:09.02Z</time></trkpt><trkpt lat="46.2078034" lon="10.1435144"><ele>410.5</ele><time>2026-04-11T14:34:10.02Z</time></trkpt><trkpt lat="46.2077051" lon="10.1434082"><ele>410.25</ele><time>2026-04-11T14:34:11.02Z</time></trkpt><trkpt lat="46.2076114" lon="10.1432872"><ele>410.0</ele><time>2026-04-11T14:34:12.02Z</time></trkpt><trkpt lat="46.207515" lon="10.1431742"><ele>410.0</ele><time>2026-04-11T14:34:13.02Z</time></trkpt><trkpt lat="46.2074198" lon="10.1430606"><ele>410.0</ele><time>2026-04-11T14:34:14.019Z</time></trkpt><trkpt lat="46.2073181" lon="10.1429508"><ele>410.0</ele><time>2026-04-11T14:34:15.02Z</time></trkpt><trkpt lat="46.20722" lon="10.142844"><ele>410.0</ele><time>2026-04-11T14:34:16.02Z</time></trkpt><trkpt lat="46.2071262" lon="10.1427443"><ele>409.75</ele><time>2026-04-11T14:34:17.02Z</time></trkpt><trkpt lat="46.2070333" lon="10.1426448"><ele>409.5</ele><time>2026-04-11T14:34:18.02Z</time></trkpt><trkpt lat="46.2069415" lon="10.1425463"><ele>409.25</ele><time>2026-04-11T14:34:19.02Z</time></trkpt><trkpt lat="46.2068523" lon="10.1424419"><ele>409.0</ele><time>2026-04-11T14:34:20.02Z</time></trkpt><trkpt lat="46.2067689" lon="10.1423323"><ele>409.2</ele><time>2026-04-11T14:34:21.02Z</time></trkpt><trkpt lat="46.2066842" lon="10.1422267"><ele>409.4</ele><time>2026-04-11T14:34:22.02Z</time></trkpt><trkpt lat="46.2065956" lon="10.1421297"><ele>409.6</ele><time>2026-04-11T14:34:23.02Z</time></trkpt><trkpt lat="46.2065065" lon="10.1420273"><ele>409.8</ele><time>2026-04-11T14:34:24.02Z</time></trkpt><trkpt lat="46.2064198" lon="10.1419316"><ele>410.0</ele><time>2026-04-11T14:34:25.02Z</time></trkpt><trkpt lat="46.2063248" lon="10.1418277"><ele>410.0</ele><time>2026-04-11T14:34:26.02Z</time></trkpt><trkpt lat="46.2062304" lon="10.1417191"><ele>410.0</ele><time>2026-04-11T14:34:27.02Z</time></trkpt><trkpt lat="46.2061373" lon="10.14161"><ele>410.0</ele><time>2026-04-11T14:34:28.02Z</time></trkpt><trkpt lat="46.2060454" lon="10.1415058"><ele>410.0</ele><time>2026-04-11T14:34:29.02Z</time></trkpt><trkpt lat="46.2059545" lon="10.1413932"><ele>409.75</ele><time>2026-04-11T14:34:30.02Z</time></trkpt><trkpt lat="46.2058607" lon="10.1412842"><ele>409.5</ele><time>2026-04-11T14:34:31.02Z</time></trkpt><trkpt lat="46.2057601" lon="10.1411769"><ele>409.25</ele><time>2026-04-11T14:34:32.02Z</time></trkpt><trkpt lat="46.2056625" lon="10.1410647"><ele>409.0</ele><time>2026-04-11T14:34:33.02Z</time></trkpt><trkpt lat="46.2055614" lon="10.1409525"><ele>408.75</ele><time>2026-04-11T14:34:34.019Z</time></trkpt><trkpt lat="46.2054614" lon="10.1408375"><ele>408.5</ele><time>2026-04-11T14:34:35.02Z</time></trkpt><trkpt lat="46.205366" lon="10.1407298"><ele>408.25</ele><time>2026-04-11T14:34:36.02Z</time></trkpt><trkpt lat="46.2052753" lon="10.1406268"><ele>408.0</ele><time>2026-04-11T14:34:37.02Z</time></trkpt><trkpt lat="46.2051875" lon="10.1405273"><ele>408.0</ele><time>2026-04-11T14:34:38.02Z</time></trkpt><trkpt lat="46.2051007" lon="10.1404366"><ele>408.0</ele><time>2026-04-11T14:34:39.02Z</time></trkpt><trkpt lat="46.2050179" lon="10.140345"><ele>408.0</ele><time>2026-04-11T14:34:40.02Z</time></trkpt><trkpt lat="46.2049366" lon="10.1402506"><ele>408.0</ele><time>2026-04-11T14:34:41.02Z</time></trkpt><trkpt lat="46.2048575" lon="10.1401618"><ele>408.0</ele><time>2026-04-11T14:34:42.02Z</time></trkpt><trkpt lat="46.2047815" lon="10.1400814"><ele>407.79999999999995</ele><time>2026-04-11T14:34:43.02Z</time></trkpt><trkpt lat="46.2047095" lon="10.1399995"><ele>407.6</ele><time>2026-04-11T14:34:44.02Z</time></trkpt><trkpt lat="46.2046395" lon="10.1399225"><ele>407.4</ele><time>2026-04-11T14:34:45.02Z</time></trkpt><trkpt lat="46.2045708" lon="10.1398396"><ele>407.20000000000005</ele><time>2026-04-11T14:34:46.02Z</time></trkpt><trkpt lat="46.2044872" lon="10.1397383"><ele>407.0</ele><time>2026-04-11T14:34:47.02Z</time></trkpt><trkpt lat="46.2043966" lon="10.1396101"><ele>407.0</ele><time>2026-04-11T14:34:48.02Z</time></trkpt><trkpt lat="46.2042932" lon="10.1394898"><ele>407.0</ele><time>2026-04-11T14:34:49.019Z</time></trkpt><trkpt lat="46.2041935" lon="10.1393704"><ele>407.0</ele><time>2026-04-11T14:34:50.02Z</time></trkpt><trkpt lat="46.2040875" lon="10.1392537"><ele>407.0</ele><time>2026-04-11T14:34:51.02Z</time></trkpt><trkpt lat="46.2039773" lon="10.1391308"><ele>406.66666666666663</ele><time>2026-04-11T14:34:52.02Z</time></trkpt><trkpt lat="46.2038627" lon="10.139004"><ele>406.33333333333337</ele><time>2026-04-11T14:34:53.02Z</time></trkpt><trkpt lat="46.2037436" lon="10.1388707"><ele>406.0</ele><time>2026-04-11T14:34:54.02Z</time></trkpt><trkpt lat="46.2036219" lon="10.1387285"><ele>406.0</ele><time>2026-04-11T14:34:55.02Z</time></trkpt><trkpt lat="46.2034955" lon="10.138582"><ele>406.0</ele><time>2026-04-11T14:34:56.02Z</time></trkpt><trkpt lat="46.2033636" lon="10.1384325"><ele>406.0</ele><time>2026-04-11T14:34:57.02Z</time></trkpt><trkpt lat="46.2032343" lon="10.1382863"><ele>405.33333333333337</ele><time>2026-04-11T14:34:58.02Z</time></trkpt><trkpt lat="46.2031002" lon="10.1381427"><ele>404.66666666666663</ele><time>2026-04-11T14:34:59.02Z</time></trkpt><trkpt lat="46.2029715" lon="10.1379998"><ele>404.0</ele><time>2026-04-11T14:35:00.02Z</time></trkpt><trkpt lat="46.202846" lon="10.1378598"><ele>404.0</ele><time>2026-04-11T14:35:01.02Z</time></trkpt><trkpt lat="46.2027218" lon="10.1377153"><ele>404.0</ele><time>2026-04-11T14:35:02.02Z</time></trkpt><trkpt lat="46.2025967" lon="10.1375743"><ele>404.0</ele><time>2026-04-11T14:35:03.02Z</time></trkpt><trkpt lat="46.2024695" lon="10.1374372"><ele>403.66666666666663</ele><time>2026-04-11T14:35:04.02Z</time></trkpt><trkpt lat="46.2023485" lon="10.1372957"><ele>403.33333333333337</ele><time>2026-04-11T14:35:05.02Z</time></trkpt><trkpt lat="46.202226" lon="10.1371613"><ele>403.0</ele><time>2026-04-11T14:35:06.02Z</time></trkpt><trkpt lat="46.2020999" lon="10.1370195"><ele>403.0</ele><time>2026-04-11T14:35:07.02Z</time></trkpt><trkpt lat="46.2019712" lon="10.1368678"><ele>403.0</ele><time>2026-04-11T14:35:08.02Z</time></trkpt><trkpt lat="46.2018419" lon="10.1367157"><ele>403.0</ele><time>2026-04-11T14:35:09.02Z</time></trkpt><trkpt lat="46.2017068" lon="10.1365594"><ele>403.33333333333337</ele><time>2026-04-11T14:35:10.02Z</time></trkpt><trkpt lat="46.2015732" lon="10.1364011"><ele>403.66666666666663</ele><time>2026-04-11T14:35:11.02Z</time></trkpt><trkpt lat="46.2014374" lon="10.1362462"><ele>404.0</ele><time>2026-04-11T14:35:12.02Z</time></trkpt><trkpt lat="46.2012966" lon="10.136099"><ele>403.3333333333333</ele><time>2026-04-11T14:35:13.019Z</time></trkpt><trkpt lat="46.2011588" lon="10.1359389"><ele>402.66666666666663</ele><time>2026-04-11T14:35:14.02Z</time></trkpt><trkpt lat="46.2010194" lon="10.1357826"><ele>402.0</ele><time>2026-04-11T14:35:15.02Z</time></trkpt><trkpt lat="46.2008832" lon="10.1356235"><ele>402.0</ele><time>2026-04-11T14:35:16.02Z</time></trkpt><trkpt lat="46.2007417" lon="10.135466"><ele>402.0</ele><time>2026-04-11T14:35:17.02Z</time></trkpt><trkpt lat="46.2006031" lon="10.135302"><ele>402.0</ele><time>2026-04-11T14:35:18.02Z</time></trkpt><trkpt lat="46.2004661" lon="10.1351429"><ele>401.66666666666663</ele><time>2026-04-11T14:35:19.02Z</time></trkpt><trkpt lat="46.2003288" lon="10.1349751"><ele>401.3333333333333</ele><time>2026-04-11T14:35:20.02Z</time></trkpt><trkpt lat="46.2001868" lon="10.1348227"><ele>401.0</ele><time>2026-04-11T14:35:21.02Z</time></trkpt><trkpt lat="46.2000419" lon="10.1346567"><ele>401.0</ele><time>2026-04-11T14:35:22.02Z</time></trkpt><trkpt lat="46.1998997" lon="10.1344824"><ele>401.0</ele><time>2026-04-11T14:35:23.02Z</time></trkpt><trkpt lat="46.199758" lon="10.1343187"><ele>401.0</ele><time>2026-04-11T14:35:24.02Z</time></trkpt><trkpt lat="46.1996179" lon="10.1341572"><ele>400.66666666666663</ele><time>2026-04-11T14:35:25.02Z</time></trkpt><trkpt lat="46.1994795" lon="10.1340018"><ele>400.33333333333337</ele><time>2026-04-11T14:35:26.02Z</time></trkpt><trkpt lat="46.1993422" lon="10.1338563"><ele>400.0</ele><time>2026-04-11T14:35:27.02Z</time></trkpt><trkpt lat="46.1992127" lon="10.1337008"><ele>400.0</ele><time>2026-04-11T14:35:28.02Z</time></trkpt><trkpt lat="46.1990823" lon="10.1335518"><ele>400.0</ele><time>2026-04-11T14:35:29.02Z</time></trkpt><trkpt lat="46.1989531" lon="10.1333975"><ele>400.0</ele><time>2026-04-11T14:35:30.02Z</time></trkpt><trkpt lat="46.1988208" lon="10.1332451"><ele>400.6666666666667</ele><time>2026-04-11T14:35:31.019Z</time></trkpt><trkpt lat="46.198687" lon="10.1330956"><ele>401.33333333333337</ele><time>2026-04-11T14:35:32.02Z</time></trkpt><trkpt lat="46.1985546" lon="10.1329437"><ele>402.0</ele><time>2026-04-11T14:35:33.019Z</time></trkpt><trkpt lat="46.1984226" lon="10.1327905"><ele>402.0</ele><time>2026-04-11T14:35:34.02Z</time></trkpt><trkpt lat="46.1982915" lon="10.1326457"><ele>402.0</ele><time>2026-04-11T14:35:35.02Z</time></trkpt><trkpt lat="46.198161" lon="10.1324944"><ele>402.0</ele><time>2026-04-11T14:35:36.02Z</time></trkpt><trkpt lat="46.198033" lon="10.1323358"><ele>401.66666666666663</ele><time>2026-04-11T14:35:37.02Z</time></trkpt><trkpt lat="46.1978992" lon="10.1321772"><ele>401.3333333333333</ele><time>2026-04-11T14:35:38.02Z</time></trkpt><trkpt lat="46.1977672" lon="10.1320254"><ele>401.0</ele><time>2026-04-11T14:35:39.02Z</time></trkpt><trkpt lat="46.1976337" lon="10.1318691"><ele>401.0</ele><time>2026-04-11T14:35:40.02Z</time></trkpt><trkpt lat="46.1974947" lon="10.1317105"><ele>401.0</ele><time>2026-04-11T14:35:41.02Z</time></trkpt><trkpt lat="46.1973543" lon="10.131554"><ele>401.0</ele><time>2026-04-11T14:35:42.02Z</time></trkpt><trkpt lat="46.1972106" lon="10.1313928"><ele>400.0</ele><time>2026-04-11T14:35:43.019Z</time></trkpt><trkpt lat="46.1970692" lon="10.1312292"><ele>399.0</ele><time>2026-04-11T14:35:44.02Z</time></trkpt><trkpt lat="46.1969215" lon="10.1310696"><ele>398.0</ele><time>2026-04-11T14:35:45.02Z</time></trkpt><trkpt lat="46.1967695" lon="10.1309022"><ele>398.3333333333333</ele><time>2026-04-11T14:35:46.02Z</time></trkpt><trkpt lat="46.196615" lon="10.1307219"><ele>398.66666666666663</ele><time>2026-04-11T14:35:47.02Z</time></trkpt><trkpt lat="46.1964603" lon="10.1305435"><ele>399.0</ele><time>2026-04-11T14:35:48.02Z</time></trkpt><trkpt lat="46.196306" lon="10.1303582"><ele>399.0</ele><time>2026-04-11T14:35:49.02Z</time></trkpt><trkpt lat="46.1961439" lon="10.1301738"><ele>399.0</ele><time>2026-04-11T14:35:50.02Z</time></trkpt><trkpt lat="46.1959787" lon="10.1299889"><ele>399.0</ele><time>2026-04-11T14:35:51.02Z</time></trkpt><trkpt lat="46.1958166" lon="10.1298026"><ele>399.0</ele><time>2026-04-11T14:35:52.02Z</time></trkpt><trkpt lat="46.1956571" lon="10.1296161"><ele>399.0</ele><time>2026-04-11T14:35:53.02Z</time></trkpt><trkpt lat="46.1954938" lon="10.1294309"><ele>399.0</ele><time>2026-04-11T14:35:54.02Z</time></trkpt><trkpt lat="46.1953334" lon="10.129251"><ele>399.0</ele><time>2026-04-11T14:35:55.02Z</time></trkpt><trkpt lat="46.1951755" lon="10.1290702"><ele>399.0</ele><time>2026-04-11T14:35:56.02Z</time></trkpt><trkpt lat="46.1950215" lon="10.1288961"><ele>399.0</ele><time>2026-04-11T14:35:57.02Z</time></trkpt><trkpt lat="46.1948698" lon="10.128723"><ele>398.66666666666663</ele><time>2026-04-11T14:35:58.02Z</time></trkpt><trkpt lat="46.194722" lon="10.1285558"><ele>398.3333333333333</ele><time>2026-04-11T14:35:59.02Z</time></trkpt><trkpt lat="46.1945748" lon="10.1283974"><ele>398.0</ele><time>2026-04-11T14:36:00.02Z</time></trkpt><trkpt lat="46.1944289" lon="10.1282382"><ele>398.0</ele><time>2026-04-11T14:36:01.02Z</time></trkpt><trkpt lat="46.1942853" lon="10.1280748"><ele>398.0</ele><time>2026-04-11T14:36:02.02Z</time></trkpt><trkpt lat="46.194144" lon="10.1279077"><ele>398.0</ele><time>2026-04-11T14:36:03.02Z</time></trkpt><trkpt lat="46.1939993" lon="10.1277413"><ele>398.0</ele><time>2026-04-11T14:36:04.02Z</time></trkpt><trkpt lat="46.1938601" lon="10.1275743"><ele>398.0</ele><time>2026-04-11T14:36:05.02Z</time></trkpt><trkpt lat="46.1937187" lon="10.1274103"><ele>398.0</ele><time>2026-04-11T14:36:06.019Z</time></trkpt><trkpt lat="46.193575" lon="10.1272476"><ele>398.0</ele><time>2026-04-11T14:36:07.019Z</time></trkpt><trkpt lat="46.1934329" lon="10.1270861"><ele>398.0</ele><time>2026-04-11T14:36:08.02Z</time></trkpt><trkpt lat="46.1932903" lon="10.1269286"><ele>398.0</ele><time>2026-04-11T14:36:09.02Z</time></trkpt><trkpt lat="46.1931578" lon="10.1267738"><ele>397.66666666666663</ele><time>2026-04-11T14:36:10.019Z</time></trkpt><trkpt lat="46.1930262" lon="10.1266246"><ele>397.33333333333337</ele><time>2026-04-11T14:36:11.02Z</time></trkpt><trkpt lat="46.192895" lon="10.1264718"><ele>397.0</ele><time>2026-04-11T14:36:12.02Z</time></trkpt><trkpt lat="46.1927657" lon="10.1263201"><ele>397.0</ele><time>2026-04-11T14:36:13.019Z</time></trkpt><trkpt lat="46.1926392" lon="10.1261734"><ele>397.0</ele><time>2026-04-11T14:36:14.02Z</time></trkpt><trkpt lat="46.1925103" lon="10.1260183"><ele>397.0</ele><time>2026-04-11T14:36:15.02Z</time></trkpt><trkpt lat="46.1923849" lon="10.1258648"><ele>396.6666666666667</ele><time>2026-04-11T14:36:16.02Z</time></trkpt><trkpt lat="46.192259" lon="10.1257157"><ele>396.33333333333337</ele><time>2026-04-11T14:36:17.02Z</time></trkpt><trkpt lat="46.1921313" lon="10.125567"><ele>396.0</ele><time>2026-04-11T14:36:18.019Z</time></trkpt><trkpt lat="46.192005" lon="10.1254203"><ele>396.0</ele><time>2026-04-11T14:36:19.019Z</time></trkpt><trkpt lat="46.191881" lon="10.1252768"><ele>396.0</ele><time>2026-04-11T14:36:20.02Z</time></trkpt><trkpt lat="46.1917573" lon="10.1251294"><ele>396.0</ele><time>2026-04-11T14:36:21.02Z</time></trkpt><trkpt lat="46.1916341" lon="10.1249825"><ele>396.0</ele><time>2026-04-11T14:36:22.02Z</time></trkpt><trkpt lat="46.1915076" lon="10.124843"><ele>396.0</ele><time>2026-04-11T14:36:23.02Z</time></trkpt><trkpt lat="46.1913787" lon="10.1247084"><ele>396.0</ele><time>2026-04-11T14:36:24.02Z</time></trkpt><trkpt lat="46.1912513" lon="10.1245713"><ele>396.0</ele><time>2026-04-11T14:36:25.02Z</time></trkpt><trkpt lat="46.19113" lon="10.1244283"><ele>396.0</ele><time>2026-04-11T14:36:26.019Z</time></trkpt><trkpt lat="46.1910076" lon="10.1242872"><ele>396.0</ele><time>2026-04-11T14:36:27.02Z</time></trkpt><trkpt lat="46.1908864" lon="10.1241462"><ele>396.0</ele><time>2026-04-11T14:36:28.02Z</time></trkpt><trkpt lat="46.1907627" lon="10.1240117"><ele>396.0</ele><time>2026-04-11T14:36:29.02Z</time></trkpt><trkpt lat="46.1906449" lon="10.1238689"><ele>396.0</ele><time>2026-04-11T14:36:30.02Z</time></trkpt><trkpt lat="46.1905243" lon="10.1237276"><ele>396.0</ele><time>2026-04-11T14:36:31.02Z</time></trkpt><trkpt lat="46.1904071" lon="10.1235901"><ele>396.0</ele><time>2026-04-11T14:36:32.02Z</time></trkpt><trkpt lat="46.1902934" lon="10.1234552"><ele>396.0</ele><time>2026-04-11T14:36:33.019Z</time></trkpt><trkpt lat="46.1901734" lon="10.1233202"><ele>396.66666666666663</ele><time>2026-04-11T14:36:34.02Z</time></trkpt><trkpt lat="46.1900521" lon="10.1231857"><ele>397.3333333333333</ele><time>2026-04-11T14:36:35.02Z</time></trkpt><trkpt lat="46.1899296" lon="10.1230611"><ele>398.0</ele><time>2026-04-11T14:36:36.02Z</time></trkpt><trkpt lat="46.1898056" lon="10.122946"><ele>397.0</ele><time>2026-04-11T14:36:37.02Z</time></trkpt><trkpt lat="46.1896799" lon="10.1228495"><ele>396.0</ele><time>2026-04-11T14:36:38.02Z</time></trkpt><trkpt lat="46.1895507" lon="10.1227675"><ele>395.0</ele><time>2026-04-11T14:36:39.02Z</time></trkpt><trkpt lat="46.1894295" lon="10.1226931"><ele>394.0</ele><time>2026-04-11T14:36:40.02Z</time></trkpt><trkpt lat="46.189312" lon="10.1226261"><ele>394.0</ele><time>2026-04-11T14:36:41.019Z</time></trkpt><trkpt lat="46.1891968" lon="10.1225587"><ele>394.0</ele><time>2026-04-11T14:36:42.02Z</time></trkpt><trkpt lat="46.1890803" lon="10.1224914"><ele>394.0</ele><time>2026-04-11T14:36:43.02Z</time></trkpt><trkpt lat="46.1889702" lon="10.1224232"><ele>394.0</ele><time>2026-04-11T14:36:44.02Z</time></trkpt><trkpt lat="46.1888485" lon="10.1223619"><ele>394.75</ele><time>2026-04-11T14:36:45.02Z</time></trkpt><trkpt lat="46.1887275" lon="10.1222987"><ele>395.5</ele><time>2026-04-11T14:36:46.02Z</time></trkpt><trkpt lat="46.1886" lon="10.1222415"><ele>396.25</ele><time>2026-04-11T14:36:47.02Z</time></trkpt><trkpt lat="46.1884726" lon="10.1221852"><ele>397.0</ele><time>2026-04-11T14:36:48.02Z</time></trkpt><trkpt lat="46.188343" lon="10.1221321"><ele>397.0</ele><time>2026-04-11T14:36:49.02Z</time></trkpt><trkpt lat="46.1882125" lon="10.1220862"><ele>397.0</ele><time>2026-04-11T14:36:50.019Z</time></trkpt><trkpt lat="46.1880812" lon="10.1220163"><ele>397.0</ele><time>2026-04-11T14:36:51.02Z</time></trkpt><trkpt lat="46.18795" lon="10.1219412"><ele>397.0</ele><time>2026-04-11T14:36:52.02Z</time></trkpt><trkpt lat="46.1878197" lon="10.1218745"><ele>396.6</ele><time>2026-04-11T14:36:53.019Z</time></trkpt><trkpt lat="46.187699" lon="10.1217978"><ele>396.20000000000005</ele><time>2026-04-11T14:36:54.02Z</time></trkpt><trkpt lat="46.187596" lon="10.121721"><ele>395.8</ele><time>2026-04-11T14:36:55.02Z</time></trkpt><trkpt lat="46.18752" lon="10.1216472"><ele>395.4</ele><time>2026-04-11T14:36:56.02Z</time></trkpt><trkpt lat="46.1874605" lon="10.12158"><ele>395.0</ele><time>2026-04-11T14:36:57.02Z</time></trkpt><trkpt lat="46.1874004" lon="10.1214522"><ele>394.99999999999994</ele><time>2026-04-11T14:36:59.02Z</time></trkpt><trkpt lat="46.1874045" lon="10.1212985"><ele>395.0</ele><time>2026-04-11T14:37:01.02Z</time></trkpt><trkpt lat="46.1873927" lon="10.1211239"><ele>395.0</ele><time>2026-04-11T14:37:03.02Z</time></trkpt><trkpt lat="46.187351" lon="10.121054"><ele>395.0</ele><time>2026-04-11T14:37:04.02Z</time></trkpt><trkpt lat="46.187291" lon="10.1210107"><ele>394.99999999999994</ele><time>2026-04-11T14:37:05.02Z</time></trkpt><trkpt lat="46.1872172" lon="10.1210185"><ele>395.0</ele><time>2026-04-11T14:37:06.019Z</time></trkpt><trkpt lat="46.1871338" lon="10.1210337"><ele>394.5</ele><time>2026-04-11T14:37:07.02Z</time></trkpt><trkpt lat="46.1870337" lon="10.1210125"><ele>394.0</ele><time>2026-04-11T14:37:08.02Z</time></trkpt><trkpt lat="46.1869189" lon="10.1209502"><ele>393.5</ele><time>2026-04-11T14:37:09.02Z</time></trkpt><trkpt lat="46.1868099" lon="10.1208598"><ele>393.0</ele><time>2026-04-11T14:37:10.02Z</time></trkpt><trkpt lat="46.1866904" lon="10.1207285"><ele>393.0</ele><time>2026-04-11T14:37:11.02Z</time></trkpt><trkpt lat="46.1865579" lon="10.1205702"><ele>393.0</ele><time>2026-04-11T14:37:12.019Z</time></trkpt><trkpt lat="46.1864257" lon="10.120413"><ele>393.0</ele><time>2026-04-11T14:37:13.02Z</time></trkpt><trkpt lat="46.1862929" lon="10.120244"><ele>392.0</ele><time>2026-04-11T14:37:14.02Z</time></trkpt><trkpt lat="46.1861564" lon="10.1200827"><ele>391.0</ele><time>2026-04-11T14:37:15.019Z</time></trkpt><trkpt lat="46.1860251" lon="10.1199143"><ele>390.0</ele><time>2026-04-11T14:37:16.02Z</time></trkpt><trkpt lat="46.1858944" lon="10.1197594"><ele>390.0</ele><time>2026-04-11T14:37:17.02Z</time></trkpt><trkpt lat="46.1857658" lon="10.1196079"><ele>390.0</ele><time>2026-04-11T14:37:18.02Z</time></trkpt><trkpt lat="46.1856384" lon="10.1194582"><ele>390.0</ele><time>2026-04-11T14:37:19.019Z</time></trkpt><trkpt lat="46.1855104" lon="10.1193125"><ele>390.33333333333337</ele><time>2026-04-11T14:37:20.02Z</time></trkpt><trkpt lat="46.1853886" lon="10.1191581"><ele>390.6666666666667</ele><time>2026-04-11T14:37:21.02Z</time></trkpt><trkpt lat="46.1852604" lon="10.1190059"><ele>391.0</ele><time>2026-04-11T14:37:22.02Z</time></trkpt><trkpt lat="46.1851369" lon="10.1188503"><ele>391.6666666666667</ele><time>2026-04-11T14:37:23.019Z</time></trkpt><trkpt lat="46.1850111" lon="10.1186948"><ele>392.33333333333337</ele><time>2026-04-11T14:37:24.02Z</time></trkpt><trkpt lat="46.1848883" lon="10.1185361"><ele>393.0</ele><time>2026-04-11T14:37:25.02Z</time></trkpt><trkpt lat="46.1847607" lon="10.1183854"><ele>393.66666666666663</ele><time>2026-04-11T14:37:26.019Z</time></trkpt><trkpt lat="46.1846351" lon="10.118235"><ele>394.3333333333333</ele><time>2026-04-11T14:37:27.02Z</time></trkpt><trkpt lat="46.1845073" lon="10.1180777"><ele>395.0</ele><time>2026-04-11T14:37:28.02Z</time></trkpt><trkpt lat="46.1843775" lon="10.1179223"><ele>395.3333333333333</ele><time>2026-04-11T14:37:29.02Z</time></trkpt><trkpt lat="46.184244" lon="10.1177649"><ele>395.66666666666663</ele><time>2026-04-11T14:37:30.02Z</time></trkpt><trkpt lat="46.1841143" lon="10.1176056"><ele>396.0</ele><time>2026-04-11T14:37:31.02Z</time></trkpt><trkpt lat="46.183978" lon="10.1174455"><ele>395.66666666666663</ele><time>2026-04-11T14:37:32.02Z</time></trkpt><trkpt lat="46.1838316" lon="10.1172994"><ele>395.3333333333333</ele><time>2026-04-11T14:37:33.02Z</time></trkpt><trkpt lat="46.1836759" lon="10.1171717"><ele>395.0</ele><time>2026-04-11T14:37:34.02Z</time></trkpt><trkpt lat="46.1835145" lon="10.1170544"><ele>395.0</ele><time>2026-04-11T14:37:35.02Z</time></trkpt><trkpt lat="46.1833526" lon="10.1169285"><ele>395.0</ele><time>2026-04-11T14:37:36.02Z</time></trkpt><trkpt lat="46.1831846" lon="10.1168123"><ele>395.0</ele><time>2026-04-11T14:37:37.02Z</time></trkpt><trkpt lat="46.18302" lon="10.1166808"><ele>394.3333333333333</ele><time>2026-04-11T14:37:38.02Z</time></trkpt><trkpt lat="46.1828621" lon="10.1165421"><ele>393.66666666666663</ele><time>2026-04-11T14:37:39.02Z</time></trkpt><trkpt lat="46.1827059" lon="10.1163943"><ele>393.0</ele><time>2026-04-11T14:37:40.02Z</time></trkpt><trkpt lat="46.1825605" lon="10.1162275"><ele>393.0</ele><time>2026-04-11T14:37:41.02Z</time></trkpt><trkpt lat="46.1824184" lon="10.1160566"><ele>393.0</ele><time>2026-04-11T14:37:42.02Z</time></trkpt><trkpt lat="46.1822859" lon="10.1158822"><ele>393.0</ele><time>2026-04-11T14:37:43.019Z</time></trkpt><trkpt lat="46.1821592" lon="10.1156951"><ele>391.0</ele><time>2026-04-11T14:37:44.02Z</time></trkpt><trkpt lat="46.1820433" lon="10.1154898"><ele>389.0</ele><time>2026-04-11T14:37:45.02Z</time></trkpt><trkpt lat="46.1819343" lon="10.1153064"><ele>387.0</ele><time>2026-04-11T14:37:46.02Z</time></trkpt><trkpt lat="46.1818273" lon="10.1151258"><ele>387.0</ele><time>2026-04-11T14:37:47.02Z</time></trkpt><trkpt lat="46.1817282" lon="10.114963"><ele>387.0</ele><time>2026-04-11T14:37:48.019Z</time></trkpt><trkpt lat="46.1816285" lon="10.1147856"><ele>387.0</ele><time>2026-04-11T14:37:49.02Z</time></trkpt><trkpt lat="46.1815286" lon="10.1146073"><ele>387.0</ele><time>2026-04-11T14:37:50.02Z</time></trkpt><trkpt lat="46.1814302" lon="10.1144157"><ele>387.0</ele><time>2026-04-11T14:37:51.02Z</time></trkpt><trkpt lat="46.1813338" lon="10.1142218"><ele>387.0</ele><time>2026-04-11T14:37:52.019Z</time></trkpt><trkpt lat="46.1812333" lon="10.1140354"><ele>387.0</ele><time>2026-04-11T14:37:53.02Z</time></trkpt><trkpt lat="46.181128" lon="10.1138446"><ele>387.0</ele><time>2026-04-11T14:37:54.02Z</time></trkpt><trkpt lat="46.1810182" lon="10.1136482"><ele>387.0</ele><time>2026-04-11T14:37:55.02Z</time></trkpt><trkpt lat="46.1809056" lon="10.1134617"><ele>387.0</ele><time>2026-04-11T14:37:56.02Z</time></trkpt><trkpt lat="46.1807867" lon="10.113282"><ele>387.0</ele><time>2026-04-11T14:37:57.02Z</time></trkpt><trkpt lat="46.1806645" lon="10.1131012"><ele>387.0</ele><time>2026-04-11T14:37:58.02Z</time></trkpt><trkpt lat="46.1805428" lon="10.1129253"><ele>386.66666666666663</ele><time>2026-04-11T14:37:59.02Z</time></trkpt><trkpt lat="46.1804169" lon="10.112751"><ele>386.3333333333333</ele><time>2026-04-11T14:38:00.02Z</time></trkpt><trkpt lat="46.1802913" lon="10.1125796"><ele>386.0</ele><time>2026-04-11T14:38:01.019Z</time></trkpt><trkpt lat="46.1801634" lon="10.1124076"><ele>386.0</ele><time>2026-04-11T14:38:02.02Z</time></trkpt><trkpt lat="46.1800374" lon="10.1122301"><ele>386.0</ele><time>2026-04-11T14:38:03.02Z</time></trkpt><trkpt lat="46.1799105" lon="10.1120536"><ele>386.0</ele><time>2026-04-11T14:38:04.02Z</time></trkpt><trkpt lat="46.1797835" lon="10.1118783"><ele>385.66666666666663</ele><time>2026-04-11T14:38:05.02Z</time></trkpt><trkpt lat="46.179655" lon="10.1117038"><ele>385.33333333333337</ele><time>2026-04-11T14:38:06.02Z</time></trkpt><trkpt lat="46.1795277" lon="10.1115254"><ele>385.0</ele><time>2026-04-11T14:38:07.019Z</time></trkpt><trkpt lat="46.1793997" lon="10.1113414"><ele>385.0</ele><time>2026-04-11T14:38:08.02Z</time></trkpt><trkpt lat="46.1792723" lon="10.1111551"><ele>385.0</ele><time>2026-04-11T14:38:09.02Z</time></trkpt><trkpt lat="46.1791435" lon="10.1109675"><ele>385.0</ele><time>2026-04-11T14:38:10.02Z</time></trkpt><trkpt lat="46.1790179" lon="10.110786"><ele>385.0</ele><time>2026-04-11T14:38:11.02Z</time></trkpt><trkpt lat="46.1788894" lon="10.1106026"><ele>385.0</ele><time>2026-04-11T14:38:12.019Z</time></trkpt><trkpt lat="46.1787623" lon="10.1104267"><ele>385.0</ele><time>2026-04-11T14:38:13.02Z</time></trkpt><trkpt lat="46.1786337" lon="10.1102529"><ele>385.0</ele><time>2026-04-11T14:38:14.02Z</time></trkpt><trkpt lat="46.1785067" lon="10.1100778"><ele>385.0</ele><time>2026-04-11T14:38:15.02Z</time></trkpt><trkpt lat="46.1783813" lon="10.1098978"><ele>385.0</ele><time>2026-04-11T14:38:16.02Z</time></trkpt><trkpt lat="46.1782536" lon="10.1097201"><ele>384.6666666666667</ele><time>2026-04-11T14:38:17.02Z</time></trkpt><trkpt lat="46.1781241" lon="10.1095457"><ele>384.33333333333337</ele><time>2026-04-11T14:38:18.02Z</time></trkpt><trkpt lat="46.1779994" lon="10.1093723"><ele>384.0</ele><time>2026-04-11T14:38:19.02Z</time></trkpt><trkpt lat="46.1778708" lon="10.1091922"><ele>384.66666666666663</ele><time>2026-04-11T14:38:20.019Z</time></trkpt><trkpt lat="46.1777439" lon="10.1090117"><ele>385.3333333333333</ele><time>2026-04-11T14:38:21.02Z</time></trkpt><trkpt lat="46.1776176" lon="10.1088331"><ele>386.0</ele><time>2026-04-11T14:38:22.019Z</time></trkpt><trkpt lat="46.1774877" lon="10.1086506"><ele>386.0</ele><time>2026-04-11T14:38:23.02Z</time></trkpt><trkpt lat="46.1773589" lon="10.108476"><ele>386.0</ele><time>2026-04-11T14:38:24.02Z</time></trkpt><trkpt lat="46.1772306" lon="10.108295"><ele>386.0</ele><time>2026-04-11T14:38:25.02Z</time></trkpt><trkpt lat="46.1771003" lon="10.1081185"><ele>385.66666666666663</ele><time>2026-04-11T14:38:26.02Z</time></trkpt><trkpt lat="46.1769739" lon="10.1079402"><ele>385.33333333333337</ele><time>2026-04-11T14:38:27.02Z</time></trkpt><trkpt lat="46.176846" lon="10.1077609"><ele>385.0</ele><time>2026-04-11T14:38:28.02Z</time></trkpt><trkpt lat="46.1767211" lon="10.1075807"><ele>385.33333333333337</ele><time>2026-04-11T14:38:29.02Z</time></trkpt><trkpt lat="46.1765949" lon="10.1074"><ele>385.66666666666663</ele><time>2026-04-11T14:38:30.02Z</time></trkpt><trkpt lat="46.1764671" lon="10.1072178"><ele>386.0</ele><time>2026-04-11T14:38:31.02Z</time></trkpt><trkpt lat="46.1763417" lon="10.1070356"><ele>386.3333333333333</ele><time>2026-04-11T14:38:32.02Z</time></trkpt><trkpt lat="46.1762166" lon="10.1068549"><ele>386.66666666666663</ele><time>2026-04-11T14:38:33.02Z</time></trkpt><trkpt lat="46.1760904" lon="10.1066745"><ele>387.0</ele><time>2026-04-11T14:38:34.02Z</time></trkpt><trkpt lat="46.175965" lon="10.1064988"><ele>387.0</ele><time>2026-04-11T14:38:35.02Z</time></trkpt><trkpt lat="46.1758384" lon="10.1063202"><ele>387.0</ele><time>2026-04-11T14:38:36.02Z</time></trkpt><trkpt lat="46.1757106" lon="10.1061392"><ele>387.0</ele><time>2026-04-11T14:38:37.019Z</time></trkpt><trkpt lat="46.1755847" lon="10.1059608"><ele>386.0</ele><time>2026-04-11T14:38:38.02Z</time></trkpt><trkpt lat="46.1754602" lon="10.1057826"><ele>385.0</ele><time>2026-04-11T14:38:39.02Z</time></trkpt><trkpt lat="46.1753352" lon="10.1056014"><ele>384.0</ele><time>2026-04-11T14:38:40.02Z</time></trkpt><trkpt lat="46.1752097" lon="10.1054237"><ele>384.0</ele><time>2026-04-11T14:38:41.019Z</time></trkpt><trkpt lat="46.1750802" lon="10.1052458"><ele>384.0</ele><time>2026-04-11T14:38:42.02Z</time></trkpt><trkpt lat="46.1749513" lon="10.1050659"><ele>384.0</ele><time>2026-04-11T14:38:43.02Z</time></trkpt><trkpt lat="46.1748253" lon="10.1048893"><ele>384.0</ele><time>2026-04-11T14:38:44.02Z</time></trkpt><trkpt lat="46.1746955" lon="10.1047149"><ele>384.0</ele><time>2026-04-11T14:38:45.02Z</time></trkpt><trkpt lat="46.17457" lon="10.1045364"><ele>384.0</ele><time>2026-04-11T14:38:46.02Z</time></trkpt><trkpt lat="46.1744444" lon="10.1043557"><ele>384.0</ele><time>2026-04-11T14:38:47.02Z</time></trkpt><trkpt lat="46.1743216" lon="10.10417"><ele>384.0</ele><time>2026-04-11T14:38:48.02Z</time></trkpt><trkpt lat="46.1741992" lon="10.1039893"><ele>384.0</ele><time>2026-04-11T14:38:49.019Z</time></trkpt><trkpt lat="46.1740852" lon="10.1038197"><ele>383.75</ele><time>2026-04-11T14:38:50.02Z</time></trkpt><trkpt lat="46.1739788" lon="10.1036571"><ele>383.5</ele><time>2026-04-11T14:38:51.02Z</time></trkpt><trkpt lat="46.1738773" lon="10.1035081"><ele>383.25</ele><time>2026-04-11T14:38:52.02Z</time></trkpt><trkpt lat="46.1737765" lon="10.1033592"><ele>383.0</ele><time>2026-04-11T14:38:53.02Z</time></trkpt><trkpt lat="46.1736714" lon="10.1032032"><ele>382.6666666666667</ele><time>2026-04-11T14:38:54.02Z</time></trkpt><trkpt lat="46.1735655" lon="10.1030391"><ele>382.3333333333333</ele><time>2026-04-11T14:38:55.02Z</time></trkpt><trkpt lat="46.1734566" lon="10.1028789"><ele>382.0</ele><time>2026-04-11T14:38:56.02Z</time></trkpt><trkpt lat="46.1733462" lon="10.1027187"><ele>382.0</ele><time>2026-04-11T14:38:57.02Z</time></trkpt><trkpt lat="46.1732328" lon="10.102555"><ele>382.0</ele><time>2026-04-11T14:38:58.02Z</time></trkpt><trkpt lat="46.1731211" lon="10.1023907"><ele>382.0</ele><time>2026-04-11T14:38:59.02Z</time></trkpt><trkpt lat="46.173008" lon="10.1022217"><ele>381.3333333333333</ele><time>2026-04-11T14:39:00.02Z</time></trkpt><trkpt lat="46.1728918" lon="10.1020559"><ele>380.6666666666667</ele><time>2026-04-11T14:39:01.02Z</time></trkpt><trkpt lat="46.1727691" lon="10.1018852"><ele>380.0</ele><time>2026-04-11T14:39:02.02Z</time></trkpt><trkpt lat="46.1726487" lon="10.1017175"><ele>380.33333333333337</ele><time>2026-04-11T14:39:03.02Z</time></trkpt><trkpt lat="46.1725211" lon="10.1015471"><ele>380.6666666666667</ele><time>2026-04-11T14:39:04.02Z</time></trkpt><trkpt lat="46.1723918" lon="10.101367"><ele>381.0</ele><time>2026-04-11T14:39:05.019Z</time></trkpt><trkpt lat="46.1722615" lon="10.1011878"><ele>380.3333333333333</ele><time>2026-04-11T14:39:06.02Z</time></trkpt><trkpt lat="46.1721264" lon="10.1010089"><ele>379.66666666666663</ele><time>2026-04-11T14:39:07.02Z</time></trkpt><trkpt lat="46.1719961" lon="10.1008133"><ele>379.0</ele><time>2026-04-11T14:39:08.02Z</time></trkpt><trkpt lat="46.1718587" lon="10.1006285"><ele>379.0</ele><time>2026-04-11T14:39:09.02Z</time></trkpt><trkpt lat="46.1717236" lon="10.1004366"><ele>379.0</ele><time>2026-04-11T14:39:10.02Z</time></trkpt><trkpt lat="46.1715882" lon="10.1002457"><ele>379.0</ele><time>2026-04-11T14:39:11.019Z</time></trkpt><trkpt lat="46.1714496" lon="10.1000476"><ele>379.3333333333333</ele><time>2026-04-11T14:39:12.02Z</time></trkpt><trkpt lat="46.1713127" lon="10.0998458"><ele>379.6666666666667</ele><time>2026-04-11T14:39:13.02Z</time></trkpt><trkpt lat="46.1711719" lon="10.0996501"><ele>380.0</ele><time>2026-04-11T14:39:14.02Z</time></trkpt><trkpt lat="46.1710296" lon="10.099454"><ele>380.0</ele><time>2026-04-11T14:39:15.02Z</time></trkpt><trkpt lat="46.1708891" lon="10.0992563"><ele>380.0</ele><time>2026-04-11T14:39:16.02Z</time></trkpt><trkpt lat="46.1707446" lon="10.0990641"><ele>380.0</ele><time>2026-04-11T14:39:17.02Z</time></trkpt><trkpt lat="46.1706085" lon="10.0988743"><ele>379.0</ele><time>2026-04-11T14:39:18.02Z</time></trkpt><trkpt lat="46.1704829" lon="10.0986826"><ele>378.0</ele><time>2026-04-11T14:39:19.02Z</time></trkpt><trkpt lat="46.1703521" lon="10.098492"><ele>377.0</ele><time>2026-04-11T14:39:20.02Z</time></trkpt><trkpt lat="46.1702192" lon="10.0982954"><ele>377.0</ele><time>2026-04-11T14:39:21.02Z</time></trkpt><trkpt lat="46.1700821" lon="10.098116"><ele>377.0</ele><time>2026-04-11T14:39:22.02Z</time></trkpt><trkpt lat="46.1699471" lon="10.0979254"><ele>377.0</ele><time>2026-04-11T14:39:23.02Z</time></trkpt><trkpt lat="46.1698173" lon="10.0977222"><ele>377.0</ele><time>2026-04-11T14:39:24.02Z</time></trkpt><trkpt lat="46.1696818" lon="10.0975299"><ele>377.0</ele><time>2026-04-11T14:39:25.019Z</time></trkpt><trkpt lat="46.1695473" lon="10.097341"><ele>377.0</ele><time>2026-04-11T14:39:26.019Z</time></trkpt><trkpt lat="46.1694102" lon="10.0971544"><ele>376.6666666666667</ele><time>2026-04-11T14:39:27.02Z</time></trkpt><trkpt lat="46.1692724" lon="10.096959"><ele>376.3333333333333</ele><time>2026-04-11T14:39:28.019Z</time></trkpt><trkpt lat="46.1691387" lon="10.0967696"><ele>376.0</ele><time>2026-04-11T14:39:29.02Z</time></trkpt><trkpt lat="46.1690066" lon="10.0965832"><ele>376.0</ele><time>2026-04-11T14:39:30.02Z</time></trkpt><trkpt lat="46.1688683" lon="10.0964007"><ele>376.0</ele><time>2026-04-11T14:39:31.02Z</time></trkpt><trkpt lat="46.1687326" lon="10.096211"><ele>376.0</ele><time>2026-04-11T14:39:32.02Z</time></trkpt><trkpt lat="46.1686002" lon="10.0960174"><ele>376.0</ele><time>2026-04-11T14:39:33.02Z</time></trkpt><trkpt lat="46.1684684" lon="10.0958248"><ele>376.0</ele><time>2026-04-11T14:39:34.019Z</time></trkpt><trkpt lat="46.1683345" lon="10.0956327"><ele>376.0</ele><time>2026-04-11T14:39:35.02Z</time></trkpt><trkpt lat="46.1681926" lon="10.0954401"><ele>376.0</ele><time>2026-04-11T14:39:36.02Z</time></trkpt><trkpt lat="46.1680526" lon="10.0952441"><ele>376.0</ele><time>2026-04-11T14:39:37.02Z</time></trkpt><trkpt lat="46.1679098" lon="10.0950448"><ele>376.0</ele><time>2026-04-11T14:39:38.019Z</time></trkpt><trkpt lat="46.1677685" lon="10.0948497"><ele>376.0</ele><time>2026-04-11T14:39:39.02Z</time></trkpt><trkpt lat="46.167631" lon="10.0946448"><ele>376.0</ele><time>2026-04-11T14:39:40.02Z</time></trkpt><trkpt lat="46.1674914" lon="10.0944487"><ele>376.0</ele><time>2026-04-11T14:39:41.02Z</time></trkpt><trkpt lat="46.1673485" lon="10.0942526"><ele>375.66666666666663</ele><time>2026-04-11T14:39:42.02Z</time></trkpt><trkpt lat="46.1672055" lon="10.0940554"><ele>375.3333333333333</ele><time>2026-04-11T14:39:43.02Z</time></trkpt><trkpt lat="46.1670648" lon="10.0938506"><ele>375.0</ele><time>2026-04-11T14:39:44.02Z</time></trkpt><trkpt lat="46.1669228" lon="10.0936437"><ele>375.0</ele><time>2026-04-11T14:39:45.02Z</time></trkpt><trkpt lat="46.1667822" lon="10.0934481"><ele>375.0</ele><time>2026-04-11T14:39:46.019Z</time></trkpt><trkpt lat="46.1666514" lon="10.0932646"><ele>375.0</ele><time>2026-04-11T14:39:47.02Z</time></trkpt><trkpt lat="46.1665256" lon="10.0930938"><ele>375.3333333333333</ele><time>2026-04-11T14:39:48.02Z</time></trkpt><trkpt lat="46.1664078" lon="10.0929237"><ele>375.66666666666663</ele><time>2026-04-11T14:39:49.02Z</time></trkpt><trkpt lat="46.1662922" lon="10.0927594"><ele>376.0</ele><time>2026-04-11T14:39:50.02Z</time></trkpt><trkpt lat="46.1661749" lon="10.0925955"><ele>376.0</ele><time>2026-04-11T14:39:51.02Z</time></trkpt><trkpt lat="46.1660638" lon="10.0924371"><ele>376.0</ele><time>2026-04-11T14:39:52.02Z</time></trkpt><trkpt lat="46.1659584" lon="10.0922856"><ele>376.0</ele><time>2026-04-11T14:39:53.02Z</time></trkpt><trkpt lat="46.1658551" lon="10.0921394"><ele>376.0</ele><time>2026-04-11T14:39:54.02Z</time></trkpt><trkpt lat="46.1657503" lon="10.0920031"><ele>375.5</ele><time>2026-04-11T14:39:55.02Z</time></trkpt><trkpt lat="46.1656452" lon="10.0918727"><ele>375.0</ele><time>2026-04-11T14:39:56.02Z</time></trkpt><trkpt lat="46.1655426" lon="10.09174"><ele>374.5</ele><time>2026-04-11T14:39:57.02Z</time></trkpt><trkpt lat="46.1654354" lon="10.0916108"><ele>374.0</ele><time>2026-04-11T14:39:58.02Z</time></trkpt><trkpt lat="46.1653258" lon="10.091479"><ele>375.25</ele><time>2026-04-11T14:39:59.02Z</time></trkpt><trkpt lat="46.1652127" lon="10.0913559"><ele>376.5</ele><time>2026-04-11T14:40:00.02Z</time></trkpt><trkpt lat="46.165101" lon="10.0912342"><ele>377.75</ele><time>2026-04-11T14:40:01.02Z</time></trkpt><trkpt lat="46.1649946" lon="10.0911052"><ele>379.0</ele><time>2026-04-11T14:40:02.02Z</time></trkpt><trkpt lat="46.1648899" lon="10.090968"><ele>378.25</ele><time>2026-04-11T14:40:03.02Z</time></trkpt><trkpt lat="46.1647879" lon="10.0908322"><ele>377.5</ele><time>2026-04-11T14:40:04.02Z</time></trkpt><trkpt lat="46.1646952" lon="10.0906947"><ele>376.75</ele><time>2026-04-11T14:40:05.019Z</time></trkpt><trkpt lat="46.1646017" lon="10.090537"><ele>376.0</ele><time>2026-04-11T14:40:06.02Z</time></trkpt><trkpt lat="46.1645138" lon="10.0903842"><ele>376.0</ele><time>2026-04-11T14:40:07.02Z</time></trkpt><trkpt lat="46.1644364" lon="10.0902094"><ele>376.0</ele><time>2026-04-11T14:40:08.02Z</time></trkpt><trkpt lat="46.1643594" lon="10.0900372"><ele>376.0</ele><time>2026-04-11T14:40:09.02Z</time></trkpt><trkpt lat="46.1642832" lon="10.0898549"><ele>376.0</ele><time>2026-04-11T14:40:10.02Z</time></trkpt><trkpt lat="46.1642138" lon="10.0896775"><ele>376.0</ele><time>2026-04-11T14:40:11.02Z</time></trkpt><trkpt lat="46.1641459" lon="10.0895132"><ele>376.0</ele><time>2026-04-11T14:40:12.02Z</time></trkpt><trkpt lat="46.1640862" lon="10.0893481"><ele>376.0</ele><time>2026-04-11T14:40:13.02Z</time></trkpt><trkpt lat="46.1640369" lon="10.0892015"><ele>376.0</ele><time>2026-04-11T14:40:14.02Z</time></trkpt><trkpt lat="46.1639827" lon="10.0890696"><ele>376.0</ele><time>2026-04-11T14:40:15.02Z</time></trkpt><trkpt lat="46.1639374" lon="10.0889356"><ele>376.0</ele><time>2026-04-11T14:40:16.02Z</time></trkpt><trkpt lat="46.163897" lon="10.0888084"><ele>376.0</ele><time>2026-04-11T14:40:17.02Z</time></trkpt><trkpt lat="46.1638534" lon="10.0886846"><ele>376.0</ele><time>2026-04-11T14:40:18.02Z</time></trkpt><trkpt lat="46.1638061" lon="10.0885573"><ele>376.0</ele><time>2026-04-11T14:40:19.02Z</time></trkpt><trkpt lat="46.1637561" lon="10.0884184"><ele>376.0</ele><time>2026-04-11T14:40:20.02Z</time></trkpt><trkpt lat="46.1637075" lon="10.0882752"><ele>376.0</ele><time>2026-04-11T14:40:21.019Z</time></trkpt><trkpt lat="46.1636607" lon="10.0881314"><ele>376.0</ele><time>2026-04-11T14:40:22.02Z</time></trkpt><trkpt lat="46.1636177" lon="10.0879899"><ele>376.0</ele><time>2026-04-11T14:40:23.02Z</time></trkpt><trkpt lat="46.1635799" lon="10.0878537"><ele>376.0</ele><time>2026-04-11T14:40:24.02Z</time></trkpt><trkpt lat="46.1635401" lon="10.0877207"><ele>376.4</ele><time>2026-04-11T14:40:25.02Z</time></trkpt><trkpt lat="46.1634924" lon="10.0875875"><ele>376.8</ele><time>2026-04-11T14:40:26.02Z</time></trkpt><trkpt lat="46.1634439" lon="10.0874646"><ele>377.2</ele><time>2026-04-11T14:40:27.02Z</time></trkpt><trkpt lat="46.1633937" lon="10.0873353"><ele>377.59999999999997</ele><time>2026-04-11T14:40:28.02Z</time></trkpt><trkpt lat="46.1633443" lon="10.087203"><ele>378.0</ele><time>2026-04-11T14:40:29.02Z</time></trkpt><trkpt lat="46.1632925" lon="10.0870678"><ele>378.79999999999995</ele><time>2026-04-11T14:40:30.02Z</time></trkpt><trkpt lat="46.1632406" lon="10.0869295"><ele>379.6</ele><time>2026-04-11T14:40:31.02Z</time></trkpt><trkpt lat="46.1631921" lon="10.0867975"><ele>380.4</ele><time>2026-04-11T14:40:32.02Z</time></trkpt><trkpt lat="46.1631501" lon="10.0866586"><ele>381.20000000000005</ele><time>2026-04-11T14:40:33.02Z</time></trkpt><trkpt lat="46.1631163" lon="10.0865286"><ele>382.0</ele><time>2026-04-11T14:40:34.02Z</time></trkpt><trkpt lat="46.1630894" lon="10.0864106"><ele>380.5</ele><time>2026-04-11T14:40:35.02Z</time></trkpt><trkpt lat="46.1630694" lon="10.0862895"><ele>379.0</ele><time>2026-04-11T14:40:36.02Z</time></trkpt><trkpt lat="46.1630512" lon="10.08618"><ele>377.5</ele><time>2026-04-11T14:40:37.02Z</time></trkpt><trkpt lat="46.1630314" lon="10.086078"><ele>376.0</ele><time>2026-04-11T14:40:38.02Z</time></trkpt><trkpt lat="46.1630144" lon="10.085968"><ele>374.5</ele><time>2026-04-11T14:40:39.02Z</time></trkpt><trkpt lat="46.1629925" lon="10.0858526"><ele>373.0</ele><time>2026-04-11T14:40:40.02Z</time></trkpt><trkpt lat="46.162975" lon="10.0857319"><ele>373.0</ele><time>2026-04-11T14:40:41.02Z</time></trkpt><trkpt lat="46.1629568" lon="10.0856123"><ele>373.0</ele><time>2026-04-11T14:40:42.02Z</time></trkpt><trkpt lat="46.1629384" lon="10.0854993"><ele>373.0</ele><time>2026-04-11T14:40:43.02Z</time></trkpt><trkpt lat="46.162926" lon="10.0853848"><ele>373.0</ele><time>2026-04-11T14:40:44.02Z</time></trkpt><trkpt lat="46.1629117" lon="10.0852707"><ele>373.0</ele><time>2026-04-11T14:40:45.02Z</time></trkpt><trkpt lat="46.1628911" lon="10.0851559"><ele>373.0</ele><time>2026-04-11T14:40:46.02Z</time></trkpt><trkpt lat="46.16287" lon="10.085037"><ele>373.79999999999995</ele><time>2026-04-11T14:40:47.02Z</time></trkpt><trkpt lat="46.1628501" lon="10.0849169"><ele>374.6</ele><time>2026-04-11T14:40:48.019Z</time></trkpt><trkpt lat="46.1628253" lon="10.0847725"><ele>375.4</ele><time>2026-04-11T14:40:50.02Z</time></trkpt><trkpt lat="46.1627957" lon="10.0846572"><ele>376.20000000000005</ele><time>2026-04-11T14:40:57.02Z</time></trkpt><trkpt lat="46.1627684" lon="10.084475"><ele>377.0</ele><time>2026-04-11T14:40:59.02Z</time></trkpt><trkpt lat="46.1627517" lon="10.0843735"><ele>377.0</ele><time>2026-04-11T14:41:00.02Z</time></trkpt><trkpt lat="46.1627174" lon="10.0842705"><ele>377.0</ele><time>2026-04-11T14:41:01.02Z</time></trkpt><trkpt lat="46.1626761" lon="10.0841662"><ele>377.0</ele><time>2026-04-11T14:41:02.02Z</time></trkpt><trkpt lat="46.1626323" lon="10.0840492"><ele>377.0</ele><time>2026-04-11T14:41:03.02Z</time></trkpt><trkpt lat="46.1625787" lon="10.0839194"><ele>377.0</ele><time>2026-04-11T14:41:04.02Z</time></trkpt><trkpt lat="46.1625317" lon="10.0837779"><ele>376.40000000000003</ele><time>2026-04-11T14:41:05.02Z</time></trkpt><trkpt lat="46.1624866" lon="10.0836372"><ele>375.8</ele><time>2026-04-11T14:41:06.02Z</time></trkpt><trkpt lat="46.1624416" lon="10.0835026"><ele>375.2</ele><time>2026-04-11T14:41:07.02Z</time></trkpt><trkpt lat="46.1623944" lon="10.0833581"><ele>374.6</ele><time>2026-04-11T14:41:08.02Z</time></trkpt><trkpt lat="46.1623412" lon="10.0832029"><ele>374.0</ele><time>2026-04-11T14:41:09.02Z</time></trkpt><trkpt lat="46.1622892" lon="10.0830501"><ele>374.0</ele><time>2026-04-11T14:41:10.02Z</time></trkpt><trkpt lat="46.1622266" lon="10.0828962"><ele>374.0</ele><time>2026-04-11T14:41:11.02Z</time></trkpt><trkpt lat="46.1621774" lon="10.0827303"><ele>374.0</ele><time>2026-04-11T14:41:12.02Z</time></trkpt><trkpt lat="46.1621247" lon="10.0825554"><ele>374.0</ele><time>2026-04-11T14:41:13.02Z</time></trkpt><trkpt lat="46.1620724" lon="10.0823828"><ele>374.5</ele><time>2026-04-11T14:41:14.019Z</time></trkpt><trkpt lat="46.1620182" lon="10.0821956"><ele>375.0</ele><time>2026-04-11T14:41:15.019Z</time></trkpt><trkpt lat="46.1619657" lon="10.0820147"><ele>375.5</ele><time>2026-04-11T14:41:16.018Z</time></trkpt><trkpt lat="46.1619091" lon="10.0818291"><ele>376.0</ele><time>2026-04-11T14:41:17.019Z</time></trkpt><trkpt lat="46.1618513" lon="10.0816321"><ele>377.5</ele><time>2026-04-11T14:41:18.019Z</time></trkpt><trkpt lat="46.1618011" lon="10.0814364"><ele>379.0</ele><time>2026-04-11T14:41:19.019Z</time></trkpt><trkpt lat="46.1617501" lon="10.0812465"><ele>380.5</ele><time>2026-04-11T14:41:20.019Z</time></trkpt><trkpt lat="46.1617005" lon="10.0810493"><ele>382.0</ele><time>2026-04-11T14:41:21.019Z</time></trkpt><trkpt lat="46.1616286" lon="10.0808863"><ele>384.0</ele><time>2026-04-11T14:41:22.019Z</time></trkpt><trkpt lat="46.1615803" lon="10.0806895"><ele>386.0</ele><time>2026-04-11T14:41:23.019Z</time></trkpt><trkpt lat="46.1615366" lon="10.080491"><ele>388.0</ele><time>2026-04-11T14:41:24.018Z</time></trkpt><trkpt lat="46.1614979" lon="10.0802845"><ele>390.0</ele><time>2026-04-11T14:41:25.019Z</time></trkpt><trkpt lat="46.1614508" lon="10.0800867"><ele>385.5</ele><time>2026-04-11T14:41:26.019Z</time></trkpt><trkpt lat="46.161403" lon="10.0798894"><ele>381.0</ele><time>2026-04-11T14:41:27.019Z</time></trkpt><trkpt lat="46.161354" lon="10.0796923"><ele>376.5</ele><time>2026-04-11T14:41:28.018Z</time></trkpt><trkpt lat="46.1613045" lon="10.079506"><ele>372.0</ele><time>2026-04-11T14:41:29.019Z</time></trkpt><trkpt lat="46.1612586" lon="10.0793013"><ele>372.0</ele><time>2026-04-11T14:41:30.019Z</time></trkpt><trkpt lat="46.1612121" lon="10.0791008"><ele>372.0</ele><time>2026-04-11T14:41:31.019Z</time></trkpt><trkpt lat="46.1611668" lon="10.0789132"><ele>372.0</ele><time>2026-04-11T14:41:32.019Z</time></trkpt><trkpt lat="46.1611165" lon="10.0787208"><ele>372.0</ele><time>2026-04-11T14:41:33.018Z</time></trkpt><trkpt lat="46.1610698" lon="10.0785104"><ele>372.25</ele><time>2026-04-11T14:41:34.019Z</time></trkpt><trkpt lat="46.161013" lon="10.0782991"><ele>372.5</ele><time>2026-04-11T14:41:35.019Z</time></trkpt><trkpt lat="46.1609587" lon="10.0781068"><ele>372.75</ele><time>2026-04-11T14:41:36.019Z</time></trkpt><trkpt lat="46.1609145" lon="10.0779198"><ele>373.0</ele><time>2026-04-11T14:41:37.019Z</time></trkpt><trkpt lat="46.1608793" lon="10.0777328"><ele>373.25</ele><time>2026-04-11T14:41:38.019Z</time></trkpt><trkpt lat="46.160843" lon="10.0775535"><ele>373.5</ele><time>2026-04-11T14:41:39.019Z</time></trkpt><trkpt lat="46.160807" lon="10.0773749"><ele>373.75</ele><time>2026-04-11T14:41:40.019Z</time></trkpt><trkpt lat="46.1607692" lon="10.077188"><ele>374.0</ele><time>2026-04-11T14:41:41.019Z</time></trkpt><trkpt lat="46.1607323" lon="10.0769944"><ele>372.75</ele><time>2026-04-11T14:41:42.019Z</time></trkpt><trkpt lat="46.1606963" lon="10.0768024"><ele>371.5</ele><time>2026-04-11T14:41:43.019Z</time></trkpt><trkpt lat="46.1606633" lon="10.0766072"><ele>370.25</ele><time>2026-04-11T14:41:44.018Z</time></trkpt><trkpt lat="46.1606318" lon="10.0764103"><ele>369.0</ele><time>2026-04-11T14:41:45.019Z</time></trkpt><trkpt lat="46.1606074" lon="10.0762213"><ele>369.0</ele><time>2026-04-11T14:41:46.019Z</time></trkpt><trkpt lat="46.1605831" lon="10.0760378"><ele>369.0</ele><time>2026-04-11T14:41:47.019Z</time></trkpt><trkpt lat="46.1605609" lon="10.0758538"><ele>369.0</ele><time>2026-04-11T14:41:48.019Z</time></trkpt><trkpt lat="46.1605387" lon="10.0756647"><ele>369.0</ele><time>2026-04-11T14:41:49.019Z</time></trkpt><trkpt lat="46.160517" lon="10.0754727"><ele>368.75</ele><time>2026-04-11T14:41:50.019Z</time></trkpt><trkpt lat="46.1604952" lon="10.0752767"><ele>368.5</ele><time>2026-04-11T14:41:51.019Z</time></trkpt><trkpt lat="46.1604733" lon="10.0750779"><ele>368.25</ele><time>2026-04-11T14:41:52.019Z</time></trkpt><trkpt lat="46.1604506" lon="10.0748832"><ele>368.0</ele><time>2026-04-11T14:41:53.019Z</time></trkpt><trkpt lat="46.1604265" lon="10.0746947"><ele>367.75</ele><time>2026-04-11T14:41:54.019Z</time></trkpt><trkpt lat="46.1604046" lon="10.0745102"><ele>367.5</ele><time>2026-04-11T14:41:55.019Z</time></trkpt><trkpt lat="46.1603844" lon="10.074331"><ele>367.25</ele><time>2026-04-11T14:41:56.019Z</time></trkpt><trkpt lat="46.1603625" lon="10.0741576"><ele>367.0</ele><time>2026-04-11T14:41:57.019Z</time></trkpt><trkpt lat="46.1603435" lon="10.0740003"><ele>367.0</ele><time>2026-04-11T14:41:58.019Z</time></trkpt><trkpt lat="46.1603258" lon="10.0738513"><ele>367.0</ele><time>2026-04-11T14:41:59.019Z</time></trkpt><trkpt lat="46.1603102" lon="10.0737111"><ele>367.0</ele><time>2026-04-11T14:42:00.019Z</time></trkpt><trkpt lat="46.1603003" lon="10.0735754"><ele>367.0</ele><time>2026-04-11T14:42:01.019Z</time></trkpt><trkpt lat="46.1602855" lon="10.0734497"><ele>367.0</ele><time>2026-04-11T14:42:02.019Z</time></trkpt><trkpt lat="46.1602732" lon="10.0733277"><ele>367.40000000000003</ele><time>2026-04-11T14:42:03.019Z</time></trkpt><trkpt lat="46.1602582" lon="10.0732115"><ele>367.8</ele><time>2026-04-11T14:42:04.019Z</time></trkpt><trkpt lat="46.1602443" lon="10.0730923"><ele>368.2</ele><time>2026-04-11T14:42:05.019Z</time></trkpt><trkpt lat="46.1602309" lon="10.0729532"><ele>368.6</ele><time>2026-04-11T14:42:06.019Z</time></trkpt><trkpt lat="46.1602129" lon="10.0727998"><ele>369.0</ele><time>2026-04-11T14:42:07.019Z</time></trkpt><trkpt lat="46.1601903" lon="10.0726307"><ele>369.0</ele><time>2026-04-11T14:42:08.019Z</time></trkpt><trkpt lat="46.160171" lon="10.0724696"><ele>369.0</ele><time>2026-04-11T14:42:09.019Z</time></trkpt><trkpt lat="46.1601518" lon="10.0723119"><ele>369.0</ele><time>2026-04-11T14:42:10.019Z</time></trkpt><trkpt lat="46.160134" lon="10.0721599"><ele>369.0</ele><time>2026-04-11T14:42:11.019Z</time></trkpt><trkpt lat="46.1601153" lon="10.0720004"><ele>369.0</ele><time>2026-04-11T14:42:12.019Z</time></trkpt><trkpt lat="46.1600954" lon="10.0718334"><ele>368.5</ele><time>2026-04-11T14:42:13.019Z</time></trkpt><trkpt lat="46.1600769" lon="10.0716655"><ele>368.0</ele><time>2026-04-11T14:42:14.019Z</time></trkpt><trkpt lat="46.160057" lon="10.0714937"><ele>367.5</ele><time>2026-04-11T14:42:15.019Z</time></trkpt><trkpt lat="46.1600392" lon="10.0713146"><ele>367.0</ele><time>2026-04-11T14:42:16.019Z</time></trkpt><trkpt lat="46.1600215" lon="10.0711419"><ele>366.75</ele><time>2026-04-11T14:42:17.019Z</time></trkpt><trkpt lat="46.1599984" lon="10.0709303"><ele>366.5</ele><time>2026-04-11T14:42:18.019Z</time></trkpt><trkpt lat="46.1599732" lon="10.0707273"><ele>366.25</ele><time>2026-04-11T14:42:19.019Z</time></trkpt><trkpt lat="46.1599519" lon="10.0705366"><ele>366.0</ele><time>2026-04-11T14:42:20.018Z</time></trkpt><trkpt lat="46.1599286" lon="10.0703375"><ele>366.0</ele><time>2026-04-11T14:42:21.019Z</time></trkpt><trkpt lat="46.159907" lon="10.0701382"><ele>366.0</ele><time>2026-04-11T14:42:22.019Z</time></trkpt><trkpt lat="46.1598831" lon="10.0699364"><ele>366.0</ele><time>2026-04-11T14:42:23.019Z</time></trkpt><trkpt lat="46.1598614" lon="10.0697442"><ele>366.0</ele><time>2026-04-11T14:42:24.019Z</time></trkpt><trkpt lat="46.1598376" lon="10.069558"><ele>366.0</ele><time>2026-04-11T14:42:25.019Z</time></trkpt><trkpt lat="46.1598184" lon="10.0693758"><ele>366.0</ele><time>2026-04-11T14:42:26.019Z</time></trkpt><trkpt lat="46.1597992" lon="10.0691912"><ele>366.0</ele><time>2026-04-11T14:42:27.019Z</time></trkpt><trkpt lat="46.1597802" lon="10.0690064"><ele>366.0</ele><time>2026-04-11T14:42:28.019Z</time></trkpt><trkpt lat="46.1597583" lon="10.0688199"><ele>365.75</ele><time>2026-04-11T14:42:29.019Z</time></trkpt><trkpt lat="46.1597377" lon="10.0686339"><ele>365.5</ele><time>2026-04-11T14:42:30.019Z</time></trkpt><trkpt lat="46.1597154" lon="10.0684497"><ele>365.25</ele><time>2026-04-11T14:42:31.018Z</time></trkpt><trkpt lat="46.1596946" lon="10.0682624"><ele>365.0</ele><time>2026-04-11T14:42:32.019Z</time></trkpt><trkpt lat="46.1596723" lon="10.0680799"><ele>365.0</ele><time>2026-04-11T14:42:33.019Z</time></trkpt><trkpt lat="46.1596494" lon="10.0678933"><ele>365.0</ele><time>2026-04-11T14:42:34.019Z</time></trkpt><trkpt lat="46.1596267" lon="10.067715"><ele>365.0</ele><time>2026-04-11T14:42:35.019Z</time></trkpt><trkpt lat="46.1596047" lon="10.067534"><ele>365.0</ele><time>2026-04-11T14:42:36.019Z</time></trkpt><trkpt lat="46.1595838" lon="10.0673545"><ele>364.75</ele><time>2026-04-11T14:42:37.018Z</time></trkpt><trkpt lat="46.1595633" lon="10.0671738"><ele>364.5</ele><time>2026-04-11T14:42:38.019Z</time></trkpt><trkpt lat="46.1595467" lon="10.0669895"><ele>364.25</ele><time>2026-04-11T14:42:39.019Z</time></trkpt><trkpt lat="46.1595265" lon="10.0668092"><ele>364.0</ele><time>2026-04-11T14:42:40.019Z</time></trkpt><trkpt lat="46.1595049" lon="10.0666318"><ele>364.5</ele><time>2026-04-11T14:42:41.019Z</time></trkpt><trkpt lat="46.1594847" lon="10.066455"><ele>365.0</ele><time>2026-04-11T14:42:42.018Z</time></trkpt><trkpt lat="46.159469" lon="10.0662795"><ele>365.5</ele><time>2026-04-11T14:42:43.019Z</time></trkpt><trkpt lat="46.1594544" lon="10.0661031"><ele>366.0</ele><time>2026-04-11T14:42:44.019Z</time></trkpt><trkpt lat="46.1594342" lon="10.065927"><ele>366.0</ele><time>2026-04-11T14:42:45.019Z</time></trkpt><trkpt lat="46.1594171" lon="10.0657438"><ele>366.0</ele><time>2026-04-11T14:42:46.019Z</time></trkpt><trkpt lat="46.1594005" lon="10.0655556"><ele>366.0</ele><time>2026-04-11T14:42:47.019Z</time></trkpt><trkpt lat="46.1593886" lon="10.065365"><ele>366.0</ele><time>2026-04-11T14:42:48.019Z</time></trkpt><trkpt lat="46.1593802" lon="10.0651622"><ele>366.0</ele><time>2026-04-11T14:42:49.019Z</time></trkpt><trkpt lat="46.1593747" lon="10.0649612"><ele>366.0</ele><time>2026-04-11T14:42:50.018Z</time></trkpt><trkpt lat="46.1593658" lon="10.0647556"><ele>366.0</ele><time>2026-04-11T14:42:51.019Z</time></trkpt><trkpt lat="46.1593574" lon="10.0645386"><ele>366.0</ele><time>2026-04-11T14:42:52.018Z</time></trkpt><trkpt lat="46.1593498" lon="10.0643129"><ele>365.6666666666667</ele><time>2026-04-11T14:42:53.019Z</time></trkpt><trkpt lat="46.1593445" lon="10.0640715"><ele>365.33333333333337</ele><time>2026-04-11T14:42:54.019Z</time></trkpt><trkpt lat="46.1593329" lon="10.0638284"><ele>365.0</ele><time>2026-04-11T14:42:55.018Z</time></trkpt><trkpt lat="46.159321" lon="10.063569"><ele>365.0</ele><time>2026-04-11T14:42:56.018Z</time></trkpt><trkpt lat="46.1593111" lon="10.0633046"><ele>365.0</ele><time>2026-04-11T14:42:57.019Z</time></trkpt><trkpt lat="46.1593019" lon="10.0630333"><ele>365.0</ele><time>2026-04-11T14:42:58.019Z</time></trkpt><trkpt lat="46.1592977" lon="10.0627548"><ele>365.0</ele><time>2026-04-11T14:42:59.018Z</time></trkpt><trkpt lat="46.159287" lon="10.0624751"><ele>365.0</ele><time>2026-04-11T14:43:00.019Z</time></trkpt><trkpt lat="46.1592768" lon="10.0621935"><ele>365.0</ele><time>2026-04-11T14:43:01.019Z</time></trkpt><trkpt lat="46.1592647" lon="10.0619132"><ele>365.0</ele><time>2026-04-11T14:43:02.019Z</time></trkpt><trkpt lat="46.1592529" lon="10.0616403"><ele>365.0</ele><time>2026-04-11T14:43:03.019Z</time></trkpt><trkpt lat="46.1592407" lon="10.0613673"><ele>365.0</ele><time>2026-04-11T14:43:04.019Z</time></trkpt><trkpt lat="46.1592305" lon="10.061097"><ele>364.33333333333337</ele><time>2026-04-11T14:43:05.018Z</time></trkpt><trkpt lat="46.1592202" lon="10.0608366"><ele>363.6666666666667</ele><time>2026-04-11T14:43:06.019Z</time></trkpt><trkpt lat="46.1592108" lon="10.0605803"><ele>363.0</ele><time>2026-04-11T14:43:07.019Z</time></trkpt><trkpt lat="46.1592004" lon="10.0603333"><ele>362.6666666666667</ele><time>2026-04-11T14:43:08.019Z</time></trkpt><trkpt lat="46.1591914" lon="10.0600945"><ele>362.33333333333337</ele><time>2026-04-11T14:43:09.019Z</time></trkpt><trkpt lat="46.1591829" lon="10.0598609"><ele>362.0</ele><time>2026-04-11T14:43:10.019Z</time></trkpt><trkpt lat="46.1591747" lon="10.0596247"><ele>362.6666666666667</ele><time>2026-04-11T14:43:11.018Z</time></trkpt><trkpt lat="46.159167" lon="10.0593874"><ele>363.3333333333333</ele><time>2026-04-11T14:43:12.019Z</time></trkpt><trkpt lat="46.1591577" lon="10.059144"><ele>364.0</ele><time>2026-04-11T14:43:13.019Z</time></trkpt><trkpt lat="46.1591463" lon="10.0588991"><ele>364.0</ele><time>2026-04-11T14:43:14.019Z</time></trkpt><trkpt lat="46.1591362" lon="10.0586505"><ele>364.0</ele><time>2026-04-11T14:43:15.019Z</time></trkpt><trkpt lat="46.1591282" lon="10.0583903"><ele>364.0</ele><time>2026-04-11T14:43:16.019Z</time></trkpt><trkpt lat="46.1591208" lon="10.0581283"><ele>364.0</ele><time>2026-04-11T14:43:17.019Z</time></trkpt><trkpt lat="46.1591132" lon="10.0578619"><ele>364.0</ele><time>2026-04-11T14:43:18.019Z</time></trkpt><trkpt lat="46.1591059" lon="10.0575915"><ele>364.0</ele><time>2026-04-11T14:43:19.018Z</time></trkpt><trkpt lat="46.1590945" lon="10.0573267"><ele>363.66666666666663</ele><time>2026-04-11T14:43:20.019Z</time></trkpt><trkpt lat="46.1590838" lon="10.0570657"><ele>363.3333333333333</ele><time>2026-04-11T14:43:21.019Z</time></trkpt><trkpt lat="46.1590748" lon="10.0568116"><ele>363.0</ele><time>2026-04-11T14:43:22.019Z</time></trkpt><trkpt lat="46.1590643" lon="10.0565664"><ele>363.0</ele><time>2026-04-11T14:43:23.019Z</time></trkpt><trkpt lat="46.1590556" lon="10.0563314"><ele>363.0</ele><time>2026-04-11T14:43:24.019Z</time></trkpt><trkpt lat="46.1590478" lon="10.0561157"><ele>363.0</ele><time>2026-04-11T14:43:25.019Z</time></trkpt><trkpt lat="46.1590408" lon="10.0559118"><ele>362.5</ele><time>2026-04-11T14:43:26.018Z</time></trkpt><trkpt lat="46.1590332" lon="10.0557176"><ele>362.0</ele><time>2026-04-11T14:43:27.019Z</time></trkpt><trkpt lat="46.1590265" lon="10.0555322"><ele>361.5</ele><time>2026-04-11T14:43:28.019Z</time></trkpt><trkpt lat="46.1590197" lon="10.0553407"><ele>361.0</ele><time>2026-04-11T14:43:29.019Z</time></trkpt><trkpt lat="46.1590118" lon="10.0551433"><ele>361.5</ele><time>2026-04-11T14:43:30.019Z</time></trkpt><trkpt lat="46.1590054" lon="10.0549356"><ele>362.0</ele><time>2026-04-11T14:43:31.019Z</time></trkpt><trkpt lat="46.1589958" lon="10.054735"><ele>362.5</ele><time>2026-04-11T14:43:32.019Z</time></trkpt><trkpt lat="46.1589895" lon="10.0545339"><ele>363.0</ele><time>2026-04-11T14:43:33.019Z</time></trkpt><trkpt lat="46.1589807" lon="10.054333"><ele>363.0</ele><time>2026-04-11T14:43:34.019Z</time></trkpt><trkpt lat="46.1589709" lon="10.0541334"><ele>363.0</ele><time>2026-04-11T14:43:35.019Z</time></trkpt><trkpt lat="46.1589613" lon="10.0539322"><ele>363.0</ele><time>2026-04-11T14:43:36.019Z</time></trkpt><trkpt lat="46.1589521" lon="10.0537291"><ele>363.0</ele><time>2026-04-11T14:43:37.019Z</time></trkpt><trkpt lat="46.1589446" lon="10.0535237"><ele>362.75</ele><time>2026-04-11T14:43:38.019Z</time></trkpt><trkpt lat="46.1589362" lon="10.0533143"><ele>362.5</ele><time>2026-04-11T14:43:39.019Z</time></trkpt><trkpt lat="46.1589282" lon="10.0531046"><ele>362.25</ele><time>2026-04-11T14:43:40.019Z</time></trkpt><trkpt lat="46.158922" lon="10.0528849"><ele>362.0</ele><time>2026-04-11T14:43:41.019Z</time></trkpt><trkpt lat="46.1589158" lon="10.0526664"><ele>362.0</ele><time>2026-04-11T14:43:42.019Z</time></trkpt><trkpt lat="46.1589069" lon="10.0524424"><ele>362.0</ele><time>2026-04-11T14:43:43.019Z</time></trkpt><trkpt lat="46.1588961" lon="10.0522141"><ele>362.0</ele><time>2026-04-11T14:43:44.019Z</time></trkpt><trkpt lat="46.1588862" lon="10.0519831"><ele>362.0</ele><time>2026-04-11T14:43:45.019Z</time></trkpt><trkpt lat="46.1588767" lon="10.0517513"><ele>362.0</ele><time>2026-04-11T14:43:46.019Z</time></trkpt><trkpt lat="46.1588673" lon="10.0515187"><ele>362.0</ele><time>2026-04-11T14:43:47.019Z</time></trkpt><trkpt lat="46.1588587" lon="10.0512809"><ele>362.0</ele><time>2026-04-11T14:43:48.019Z</time></trkpt><trkpt lat="46.1588516" lon="10.0510445"><ele>362.0</ele><time>2026-04-11T14:43:49.019Z</time></trkpt><trkpt lat="46.1588452" lon="10.0508149"><ele>362.0</ele><time>2026-04-11T14:43:50.019Z</time></trkpt><trkpt lat="46.1588392" lon="10.0505885"><ele>362.0</ele><time>2026-04-11T14:43:51.019Z</time></trkpt><trkpt lat="46.1588298" lon="10.0503716"><ele>362.0</ele><time>2026-04-11T14:43:52.019Z</time></trkpt><trkpt lat="46.1588208" lon="10.050162"><ele>362.0</ele><time>2026-04-11T14:43:53.018Z</time></trkpt><trkpt lat="46.1588126" lon="10.0499596"><ele>362.0</ele><time>2026-04-11T14:43:54.019Z</time></trkpt><trkpt lat="46.1588058" lon="10.0497567"><ele>362.0</ele><time>2026-04-11T14:43:55.019Z</time></trkpt><trkpt lat="46.1587986" lon="10.0495463"><ele>362.0</ele><time>2026-04-11T14:43:56.019Z</time></trkpt><trkpt lat="46.158793" lon="10.0493328"><ele>362.0</ele><time>2026-04-11T14:43:57.019Z</time></trkpt><trkpt lat="46.1587856" lon="10.0491164"><ele>362.0</ele><time>2026-04-11T14:43:58.019Z</time></trkpt><trkpt lat="46.1587751" lon="10.0489054"><ele>362.0</ele><time>2026-04-11T14:43:59.018Z</time></trkpt><trkpt lat="46.1587689" lon="10.0486925"><ele>362.0</ele><time>2026-04-11T14:44:00.019Z</time></trkpt><trkpt lat="46.1587605" lon="10.0484831"><ele>362.0</ele><time>2026-04-11T14:44:01.019Z</time></trkpt><trkpt lat="46.1587526" lon="10.0482732"><ele>362.0</ele><time>2026-04-11T14:44:02.019Z</time></trkpt><trkpt lat="46.158743" lon="10.0480615"><ele>362.0</ele><time>2026-04-11T14:44:03.019Z</time></trkpt><trkpt lat="46.1587356" lon="10.0478451"><ele>362.0</ele><time>2026-04-11T14:44:04.019Z</time></trkpt><trkpt lat="46.1587283" lon="10.0476254"><ele>362.0</ele><time>2026-04-11T14:44:05.019Z</time></trkpt><trkpt lat="46.1587179" lon="10.0474003"><ele>362.0</ele><time>2026-04-11T14:44:06.019Z</time></trkpt><trkpt lat="46.1587096" lon="10.0471769"><ele>362.0</ele><time>2026-04-11T14:44:07.019Z</time></trkpt><trkpt lat="46.158702" lon="10.0469513"><ele>362.0</ele><time>2026-04-11T14:44:08.019Z</time></trkpt><trkpt lat="46.1586934" lon="10.0467251"><ele>361.6666666666667</ele><time>2026-04-11T14:44:09.018Z</time></trkpt><trkpt lat="46.1586873" lon="10.0464994"><ele>361.3333333333333</ele><time>2026-04-11T14:44:10.019Z</time></trkpt><trkpt lat="46.1586825" lon="10.046276"><ele>361.0</ele><time>2026-04-11T14:44:11.019Z</time></trkpt><trkpt lat="46.1586718" lon="10.0460485"><ele>361.0</ele><time>2026-04-11T14:44:12.019Z</time></trkpt><trkpt lat="46.1586618" lon="10.0458222"><ele>361.0</ele><time>2026-04-11T14:44:13.019Z</time></trkpt><trkpt lat="46.1586539" lon="10.0455922"><ele>361.0</ele><time>2026-04-11T14:44:14.019Z</time></trkpt><trkpt lat="46.1586446" lon="10.0453622"><ele>362.0</ele><time>2026-04-11T14:44:15.019Z</time></trkpt><trkpt lat="46.1586371" lon="10.0451313"><ele>363.0</ele><time>2026-04-11T14:44:16.019Z</time></trkpt><trkpt lat="46.1586282" lon="10.0448997"><ele>364.0</ele><time>2026-04-11T14:44:17.019Z</time></trkpt><trkpt lat="46.1586219" lon="10.0446627"><ele>364.3333333333333</ele><time>2026-04-11T14:44:18.019Z</time></trkpt><trkpt lat="46.1586155" lon="10.0444233"><ele>364.6666666666667</ele><time>2026-04-11T14:44:19.019Z</time></trkpt><trkpt lat="46.158611" lon="10.0441789"><ele>365.0</ele><time>2026-04-11T14:44:20.019Z</time></trkpt><trkpt lat="46.158613" lon="10.0439315"><ele>365.0</ele><time>2026-04-11T14:44:21.019Z</time></trkpt><trkpt lat="46.1586202" lon="10.0436819"><ele>365.0</ele><time>2026-04-11T14:44:22.019Z</time></trkpt><trkpt lat="46.1586301" lon="10.0434299"><ele>365.0</ele><time>2026-04-11T14:44:23.019Z</time></trkpt><trkpt lat="46.1586406" lon="10.0431762"><ele>364.33333333333337</ele><time>2026-04-11T14:44:24.019Z</time></trkpt><trkpt lat="46.1586517" lon="10.0429222"><ele>363.6666666666667</ele><time>2026-04-11T14:44:25.019Z</time></trkpt><trkpt lat="46.1586646" lon="10.0426656"><ele>363.0</ele><time>2026-04-11T14:44:26.019Z</time></trkpt><trkpt lat="46.1586789" lon="10.0424075"><ele>362.6666666666667</ele><time>2026-04-11T14:44:27.019Z</time></trkpt><trkpt lat="46.1586915" lon="10.0421459"><ele>362.33333333333337</ele><time>2026-04-11T14:44:28.018Z</time></trkpt><trkpt lat="46.1587041" lon="10.041881"><ele>362.0</ele><time>2026-04-11T14:44:29.019Z</time></trkpt><trkpt lat="46.1587188" lon="10.0416119"><ele>361.33333333333337</ele><time>2026-04-11T14:44:30.019Z</time></trkpt><trkpt lat="46.1587348" lon="10.0413404"><ele>360.6666666666667</ele><time>2026-04-11T14:44:31.019Z</time></trkpt><trkpt lat="46.158752" lon="10.0410669"><ele>360.0</ele><time>2026-04-11T14:44:32.019Z</time></trkpt><trkpt lat="46.1587664" lon="10.0408101"><ele>360.0</ele><time>2026-04-11T14:44:33.019Z</time></trkpt><trkpt lat="46.1587797" lon="10.0405654"><ele>360.0</ele><time>2026-04-11T14:44:34.019Z</time></trkpt><trkpt lat="46.1587913" lon="10.040332"><ele>360.0</ele><time>2026-04-11T14:44:35.018Z</time></trkpt><trkpt lat="46.1588018" lon="10.0401102"><ele>360.25</ele><time>2026-04-11T14:44:36.019Z</time></trkpt><trkpt lat="46.1588116" lon="10.0398958"><ele>360.5</ele><time>2026-04-11T14:44:37.019Z</time></trkpt><trkpt lat="46.1588192" lon="10.0396924"><ele>360.75</ele><time>2026-04-11T14:44:38.019Z</time></trkpt><trkpt lat="46.1588253" lon="10.0394996"><ele>361.0</ele><time>2026-04-11T14:44:39.019Z</time></trkpt><trkpt lat="46.1588306" lon="10.0393161"><ele>361.0</ele><time>2026-04-11T14:44:40.018Z</time></trkpt><trkpt lat="46.1588387" lon="10.0391405"><ele>361.0</ele><time>2026-04-11T14:44:41.019Z</time></trkpt><trkpt lat="46.1588401" lon="10.0389666"><ele>361.0</ele><time>2026-04-11T14:44:42.019Z</time></trkpt><trkpt lat="46.1588415" lon="10.0388003"><ele>361.0</ele><time>2026-04-11T14:44:43.019Z</time></trkpt><trkpt lat="46.1588428" lon="10.0386371"><ele>361.20000000000005</ele><time>2026-04-11T14:44:44.019Z</time></trkpt><trkpt lat="46.1588408" lon="10.0384805"><ele>361.40000000000003</ele><time>2026-04-11T14:44:45.019Z</time></trkpt><trkpt lat="46.1588396" lon="10.0383317"><ele>361.6</ele><time>2026-04-11T14:44:46.019Z</time></trkpt><trkpt lat="46.1588412" lon="10.038191"><ele>361.8</ele><time>2026-04-11T14:44:47.019Z</time></trkpt><trkpt lat="46.1588423" lon="10.0380565"><ele>362.0</ele><time>2026-04-11T14:44:48.019Z</time></trkpt><trkpt lat="46.1588461" lon="10.0379138"><ele>361.8</ele><time>2026-04-11T14:44:49.019Z</time></trkpt><trkpt lat="46.1588534" lon="10.0377643"><ele>361.6</ele><time>2026-04-11T14:44:50.019Z</time></trkpt><trkpt lat="46.1588634" lon="10.0376286"><ele>361.40000000000003</ele><time>2026-04-11T14:44:51.019Z</time></trkpt><trkpt lat="46.15887" lon="10.0374997"><ele>361.20000000000005</ele><time>2026-04-11T14:44:52.019Z</time></trkpt><trkpt lat="46.1588775" lon="10.0373776"><ele>361.0</ele><time>2026-04-11T14:44:53.019Z</time></trkpt><trkpt lat="46.1588822" lon="10.0372535"><ele>361.0</ele><time>2026-04-11T14:44:54.019Z</time></trkpt><trkpt lat="46.1588908" lon="10.0371357"><ele>361.0</ele><time>2026-04-11T14:44:55.019Z</time></trkpt><trkpt lat="46.1589009" lon="10.0370278"><ele>361.0</ele><time>2026-04-11T14:44:56.019Z</time></trkpt><trkpt lat="46.1589168" lon="10.0369308"><ele>361.0</ele><time>2026-04-11T14:44:57.019Z</time></trkpt><trkpt lat="46.1589285" lon="10.0368393"><ele>361.0</ele><time>2026-04-11T14:44:58.019Z</time></trkpt><trkpt lat="46.1589422" lon="10.0367058"><ele>361.0</ele><time>2026-04-11T14:45:00.019Z</time></trkpt><trkpt lat="46.1589564" lon="10.036566"><ele>361.0</ele><time>2026-04-11T14:45:13.018Z</time></trkpt><trkpt lat="46.1589849" lon="10.0363531"><ele>361.0</ele><time>2026-04-11T14:45:15.019Z</time></trkpt><trkpt lat="46.1590053" lon="10.0362129"><ele>361.0</ele><time>2026-04-11T14:45:16.019Z</time></trkpt><trkpt lat="46.1590277" lon="10.0360316"><ele>361.0</ele><time>2026-04-11T14:45:17.019Z</time></trkpt><trkpt lat="46.1590426" lon="10.0358419"><ele>364.0</ele><time>2026-04-11T14:45:18.019Z</time></trkpt><trkpt lat="46.1590594" lon="10.0356476"><ele>367.0</ele><time>2026-04-11T14:45:19.019Z</time></trkpt><trkpt lat="46.1590761" lon="10.0354581"><ele>370.0</ele><time>2026-04-11T14:45:20.019Z</time></trkpt><trkpt lat="46.1590962" lon="10.0352694"><ele>373.0</ele><time>2026-04-11T14:45:21.018Z</time></trkpt><trkpt lat="46.159117" lon="10.0350664"><ele>371.3333333333333</ele><time>2026-04-11T14:45:22.019Z</time></trkpt><trkpt lat="46.159145" lon="10.0348282"><ele>369.6666666666667</ele><time>2026-04-11T14:45:23.019Z</time></trkpt><trkpt lat="46.1591727" lon="10.03458"><ele>368.0</ele><time>2026-04-11T14:45:24.018Z</time></trkpt><trkpt lat="46.1592027" lon="10.0343467"><ele>367.33333333333337</ele><time>2026-04-11T14:45:25.019Z</time></trkpt><trkpt lat="46.1592297" lon="10.0341022"><ele>366.6666666666667</ele><time>2026-04-11T14:45:26.019Z</time></trkpt><trkpt lat="46.159257" lon="10.0338483"><ele>366.0</ele><time>2026-04-11T14:45:27.019Z</time></trkpt><trkpt lat="46.159283" lon="10.0335879"><ele>366.0</ele><time>2026-04-11T14:45:28.019Z</time></trkpt><trkpt lat="46.1593128" lon="10.0333159"><ele>366.0</ele><time>2026-04-11T14:45:29.019Z</time></trkpt><trkpt lat="46.1593419" lon="10.0330337"><ele>366.0</ele><time>2026-04-11T14:45:30.019Z</time></trkpt><trkpt lat="46.159374" lon="10.0327548"><ele>364.0</ele><time>2026-04-11T14:45:31.019Z</time></trkpt><trkpt lat="46.1594055" lon="10.0324679"><ele>362.0</ele><time>2026-04-11T14:45:32.019Z</time></trkpt><trkpt lat="46.1594393" lon="10.0321806"><ele>360.0</ele><time>2026-04-11T14:45:33.019Z</time></trkpt><trkpt lat="46.1594747" lon="10.0319009"><ele>359.3333333333333</ele><time>2026-04-11T14:45:34.019Z</time></trkpt><trkpt lat="46.1595076" lon="10.03162"><ele>358.66666666666663</ele><time>2026-04-11T14:45:35.019Z</time></trkpt><trkpt lat="46.1595443" lon="10.031334"><ele>358.0</ele><time>2026-04-11T14:45:36.019Z</time></trkpt><trkpt lat="46.1595798" lon="10.0310456"><ele>357.66666666666663</ele><time>2026-04-11T14:45:37.019Z</time></trkpt><trkpt lat="46.1596133" lon="10.0307498"><ele>357.3333333333333</ele><time>2026-04-11T14:45:38.018Z</time></trkpt><trkpt lat="46.1596503" lon="10.0304573"><ele>357.0</ele><time>2026-04-11T14:45:39.018Z</time></trkpt><trkpt lat="46.1596912" lon="10.0301754"><ele>356.6666666666667</ele><time>2026-04-11T14:45:40.018Z</time></trkpt><trkpt lat="46.1597285" lon="10.0299054"><ele>356.33333333333337</ele><time>2026-04-11T14:45:41.019Z</time></trkpt><trkpt lat="46.1597637" lon="10.029647"><ele>356.0</ele><time>2026-04-11T14:45:42.018Z</time></trkpt><trkpt lat="46.1597984" lon="10.0293966"><ele>356.0</ele><time>2026-04-11T14:45:43.018Z</time></trkpt><trkpt lat="46.1598326" lon="10.0291486"><ele>356.0</ele><time>2026-04-11T14:45:44.018Z</time></trkpt><trkpt lat="46.1598688" lon="10.0289019"><ele>356.0</ele><time>2026-04-11T14:45:45.019Z</time></trkpt><trkpt lat="46.1599036" lon="10.0286528"><ele>357.0</ele><time>2026-04-11T14:45:46.019Z</time></trkpt><trkpt lat="46.1599394" lon="10.0284046"><ele>358.0</ele><time>2026-04-11T14:45:47.019Z</time></trkpt><trkpt lat="46.1599735" lon="10.0281544"><ele>359.0</ele><time>2026-04-11T14:45:48.018Z</time></trkpt><trkpt lat="46.1600098" lon="10.0279053"><ele>359.0</ele><time>2026-04-11T14:45:49.019Z</time></trkpt><trkpt lat="46.1600442" lon="10.0276551"><ele>359.0</ele><time>2026-04-11T14:45:50.019Z</time></trkpt><trkpt lat="46.1600778" lon="10.0274031"><ele>359.0</ele><time>2026-04-11T14:45:51.019Z</time></trkpt><trkpt lat="46.160113" lon="10.0271528"><ele>359.0</ele><time>2026-04-11T14:45:52.018Z</time></trkpt><trkpt lat="46.1601484" lon="10.0269006"><ele>359.0</ele><time>2026-04-11T14:45:53.019Z</time></trkpt><trkpt lat="46.1601822" lon="10.0266446"><ele>359.0</ele><time>2026-04-11T14:45:54.019Z</time></trkpt><trkpt lat="46.1602173" lon="10.0263876"><ele>359.0</ele><time>2026-04-11T14:45:55.018Z</time></trkpt><trkpt lat="46.1602513" lon="10.0261268"><ele>359.0</ele><time>2026-04-11T14:45:56.019Z</time></trkpt><trkpt lat="46.1602854" lon="10.025883"><ele>359.0</ele><time>2026-04-11T14:45:57.019Z</time></trkpt><trkpt lat="46.1603147" lon="10.0256502"><ele>358.33333333333337</ele><time>2026-04-11T14:45:58.019Z</time></trkpt><trkpt lat="46.1603443" lon="10.0254292"><ele>357.6666666666667</ele><time>2026-04-11T14:45:59.019Z</time></trkpt><trkpt lat="46.1603724" lon="10.0252139"><ele>357.0</ele><time>2026-04-11T14:46:00.018Z</time></trkpt><trkpt lat="46.1604023" lon="10.0250108"><ele>356.5</ele><time>2026-04-11T14:46:01.019Z</time></trkpt><trkpt lat="46.1604321" lon="10.0248017"><ele>356.0</ele><time>2026-04-11T14:46:02.019Z</time></trkpt><trkpt lat="46.1604613" lon="10.0245959"><ele>355.5</ele><time>2026-04-11T14:46:03.019Z</time></trkpt><trkpt lat="46.1604892" lon="10.0243883"><ele>355.0</ele><time>2026-04-11T14:46:04.019Z</time></trkpt><trkpt lat="46.1605154" lon="10.0241765"><ele>354.66666666666663</ele><time>2026-04-11T14:46:05.019Z</time></trkpt><trkpt lat="46.1605462" lon="10.0239573"><ele>354.3333333333333</ele><time>2026-04-11T14:46:06.019Z</time></trkpt><trkpt lat="46.160575" lon="10.0237292"><ele>354.0</ele><time>2026-04-11T14:46:07.019Z</time></trkpt><trkpt lat="46.1606051" lon="10.0234956"><ele>354.3333333333333</ele><time>2026-04-11T14:46:08.019Z</time></trkpt><trkpt lat="46.1606363" lon="10.0232597"><ele>354.66666666666663</ele><time>2026-04-11T14:46:09.018Z</time></trkpt><trkpt lat="46.1606671" lon="10.0230225"><ele>355.0</ele><time>2026-04-11T14:46:10.018Z</time></trkpt><trkpt lat="46.1606988" lon="10.0227889"><ele>355.3333333333333</ele><time>2026-04-11T14:46:11.019Z</time></trkpt><trkpt lat="46.1607293" lon="10.0225539"><ele>355.6666666666667</ele><time>2026-04-11T14:46:12.018Z</time></trkpt><trkpt lat="46.1607599" lon="10.0223192"><ele>356.0</ele><time>2026-04-11T14:46:13.019Z</time></trkpt><trkpt lat="46.1607922" lon="10.0220848"><ele>356.0</ele><time>2026-04-11T14:46:14.019Z</time></trkpt><trkpt lat="46.1608245" lon="10.021841"><ele>356.0</ele><time>2026-04-11T14:46:15.019Z</time></trkpt><trkpt lat="46.1608589" lon="10.0215948"><ele>356.0</ele><time>2026-04-11T14:46:16.019Z</time></trkpt><trkpt lat="46.1608908" lon="10.0213504"><ele>355.6666666666667</ele><time>2026-04-11T14:46:17.019Z</time></trkpt><trkpt lat="46.1609251" lon="10.0211061"><ele>355.3333333333333</ele><time>2026-04-11T14:46:18.019Z</time></trkpt><trkpt lat="46.1609587" lon="10.0208595"><ele>355.0</ele><time>2026-04-11T14:46:19.019Z</time></trkpt><trkpt lat="46.1609925" lon="10.0206134"><ele>355.0</ele><time>2026-04-11T14:46:20.018Z</time></trkpt><trkpt lat="46.1610238" lon="10.0203653"><ele>355.0</ele><time>2026-04-11T14:46:21.019Z</time></trkpt><trkpt lat="46.1610569" lon="10.020115"><ele>355.0</ele><time>2026-04-11T14:46:22.019Z</time></trkpt><trkpt lat="46.1610919" lon="10.0198631"><ele>355.0</ele><time>2026-04-11T14:46:23.019Z</time></trkpt><trkpt lat="46.1611243" lon="10.0196104"><ele>355.0</ele><time>2026-04-11T14:46:24.018Z</time></trkpt><trkpt lat="46.1611572" lon="10.0193638"><ele>355.0</ele><time>2026-04-11T14:46:25.019Z</time></trkpt><trkpt lat="46.161191" lon="10.0191266"><ele>354.3333333333333</ele><time>2026-04-11T14:46:26.019Z</time></trkpt><trkpt lat="46.1612225" lon="10.0188968"><ele>353.6666666666667</ele><time>2026-04-11T14:46:27.019Z</time></trkpt><trkpt lat="46.1612592" lon="10.0186777"><ele>353.0</ele><time>2026-04-11T14:46:28.019Z</time></trkpt><trkpt lat="46.161297" lon="10.0184562"><ele>353.0</ele><time>2026-04-11T14:46:29.019Z</time></trkpt><trkpt lat="46.1613304" lon="10.01823"><ele>353.0</ele><time>2026-04-11T14:46:30.018Z</time></trkpt><trkpt lat="46.1613625" lon="10.0180038"><ele>353.0</ele><time>2026-04-11T14:46:31.019Z</time></trkpt><trkpt lat="46.1613911" lon="10.0177788"><ele>353.0</ele><time>2026-04-11T14:46:32.019Z</time></trkpt><trkpt lat="46.161421" lon="10.0175498"><ele>353.0</ele><time>2026-04-11T14:46:33.019Z</time></trkpt><trkpt lat="46.1614521" lon="10.0173153"><ele>353.0</ele><time>2026-04-11T14:46:34.018Z</time></trkpt><trkpt lat="46.1614848" lon="10.0170774"><ele>353.0</ele><time>2026-04-11T14:46:35.018Z</time></trkpt><trkpt lat="46.1615132" lon="10.0168367"><ele>353.0</ele><time>2026-04-11T14:46:36.019Z</time></trkpt><trkpt lat="46.1615359" lon="10.0165972"><ele>353.0</ele><time>2026-04-11T14:46:37.019Z</time></trkpt><trkpt lat="46.1615574" lon="10.0163569"><ele>353.0</ele><time>2026-04-11T14:46:38.019Z</time></trkpt><trkpt lat="46.1615824" lon="10.0161117"><ele>353.0</ele><time>2026-04-11T14:46:39.019Z</time></trkpt><trkpt lat="46.1616123" lon="10.0158635"><ele>353.0</ele><time>2026-04-11T14:46:40.018Z</time></trkpt><trkpt lat="46.1616454" lon="10.0156144"><ele>353.33333333333337</ele><time>2026-04-11T14:46:41.019Z</time></trkpt><trkpt lat="46.1616794" lon="10.0153616"><ele>353.6666666666667</ele><time>2026-04-11T14:46:42.019Z</time></trkpt><trkpt lat="46.1617115" lon="10.0151043"><ele>354.0</ele><time>2026-04-11T14:46:43.019Z</time></trkpt><trkpt lat="46.1617465" lon="10.0148476"><ele>354.0</ele><time>2026-04-11T14:46:44.019Z</time></trkpt><trkpt lat="46.1617786" lon="10.0145885"><ele>354.0</ele><time>2026-04-11T14:46:45.019Z</time></trkpt><trkpt lat="46.161813" lon="10.0143269"><ele>354.0</ele><time>2026-04-11T14:46:46.019Z</time></trkpt><trkpt lat="46.1618509" lon="10.0140618"><ele>354.0</ele><time>2026-04-11T14:46:47.019Z</time></trkpt><trkpt lat="46.1618874" lon="10.0137958"><ele>354.0</ele><time>2026-04-11T14:46:48.019Z</time></trkpt><trkpt lat="46.1619248" lon="10.0135296"><ele>354.0</ele><time>2026-04-11T14:46:49.019Z</time></trkpt><trkpt lat="46.1619606" lon="10.0132635"><ele>353.3333333333333</ele><time>2026-04-11T14:46:50.019Z</time></trkpt><trkpt lat="46.1619958" lon="10.0129982"><ele>352.66666666666663</ele><time>2026-04-11T14:46:51.019Z</time></trkpt><trkpt lat="46.1620319" lon="10.0127361"><ele>352.0</ele><time>2026-04-11T14:46:52.019Z</time></trkpt><trkpt lat="46.1620684" lon="10.0124728"><ele>351.66666666666663</ele><time>2026-04-11T14:46:53.019Z</time></trkpt><trkpt lat="46.1621047" lon="10.0122133"><ele>351.3333333333333</ele><time>2026-04-11T14:46:54.019Z</time></trkpt><trkpt lat="46.1621414" lon="10.0119538"><ele>351.0</ele><time>2026-04-11T14:46:55.019Z</time></trkpt><trkpt lat="46.1621779" lon="10.011695"><ele>351.0</ele><time>2026-04-11T14:46:56.019Z</time></trkpt><trkpt lat="46.1622117" lon="10.0114368"><ele>351.0</ele><time>2026-04-11T14:46:57.019Z</time></trkpt><trkpt lat="46.1622466" lon="10.0111793"><ele>351.0</ele><time>2026-04-11T14:46:58.019Z</time></trkpt><trkpt lat="46.16228" lon="10.0109205"><ele>351.0</ele><time>2026-04-11T14:46:59.019Z</time></trkpt><trkpt lat="46.1623138" lon="10.0106624"><ele>351.0</ele><time>2026-04-11T14:47:00.019Z</time></trkpt><trkpt lat="46.1623495" lon="10.0104064"><ele>351.0</ele><time>2026-04-11T14:47:01.019Z</time></trkpt><trkpt lat="46.1623854" lon="10.0101471"><ele>351.0</ele><time>2026-04-11T14:47:02.019Z</time></trkpt><trkpt lat="46.162418" lon="10.0098853"><ele>351.0</ele><time>2026-04-11T14:47:03.019Z</time></trkpt><trkpt lat="46.1624553" lon="10.0096252"><ele>351.0</ele><time>2026-04-11T14:47:04.019Z</time></trkpt><trkpt lat="46.1624931" lon="10.0093591"><ele>351.0</ele><time>2026-04-11T14:47:05.019Z</time></trkpt><trkpt lat="46.16253" lon="10.0090928"><ele>351.0</ele><time>2026-04-11T14:47:06.019Z</time></trkpt><trkpt lat="46.1625661" lon="10.0088214"><ele>351.0</ele><time>2026-04-11T14:47:07.019Z</time></trkpt><trkpt lat="46.1626035" lon="10.0085518"><ele>351.0</ele><time>2026-04-11T14:47:08.019Z</time></trkpt><trkpt lat="46.1626444" lon="10.0082868"><ele>351.0</ele><time>2026-04-11T14:47:09.019Z</time></trkpt><trkpt lat="46.1626831" lon="10.0080297"><ele>351.0</ele><time>2026-04-11T14:47:10.019Z</time></trkpt><trkpt lat="46.1627219" lon="10.0077696"><ele>351.0</ele><time>2026-04-11T14:47:11.019Z</time></trkpt><trkpt lat="46.1627568" lon="10.0075093"><ele>351.0</ele><time>2026-04-11T14:47:12.019Z</time></trkpt><trkpt lat="46.1627907" lon="10.0072504"><ele>351.0</ele><time>2026-04-11T14:47:13.019Z</time></trkpt><trkpt lat="46.162825" lon="10.0069881"><ele>351.6666666666667</ele><time>2026-04-11T14:47:14.019Z</time></trkpt><trkpt lat="46.1628607" lon="10.0067175"><ele>352.33333333333337</ele><time>2026-04-11T14:47:15.019Z</time></trkpt><trkpt lat="46.1628937" lon="10.006453"><ele>353.0</ele><time>2026-04-11T14:47:16.019Z</time></trkpt><trkpt lat="46.1629251" lon="10.0061818"><ele>353.0</ele><time>2026-04-11T14:47:17.019Z</time></trkpt><trkpt lat="46.1629611" lon="10.0059039"><ele>353.0</ele><time>2026-04-11T14:47:18.019Z</time></trkpt><trkpt lat="46.1629956" lon="10.0056234"><ele>353.0</ele><time>2026-04-11T14:47:19.019Z</time></trkpt><trkpt lat="46.163032" lon="10.0053385"><ele>352.6666666666667</ele><time>2026-04-11T14:47:20.018Z</time></trkpt><trkpt lat="46.1630684" lon="10.0050639"><ele>352.3333333333333</ele><time>2026-04-11T14:47:21.019Z</time></trkpt><trkpt lat="46.1631046" lon="10.004783"><ele>352.0</ele><time>2026-04-11T14:47:22.019Z</time></trkpt><trkpt lat="46.1631387" lon="10.0044976"><ele>351.66666666666663</ele><time>2026-04-11T14:47:23.018Z</time></trkpt><trkpt lat="46.1631762" lon="10.0042067"><ele>351.3333333333333</ele><time>2026-04-11T14:47:24.019Z</time></trkpt><trkpt lat="46.1632176" lon="10.0039136"><ele>351.0</ele><time>2026-04-11T14:47:25.019Z</time></trkpt><trkpt lat="46.1632584" lon="10.0036197"><ele>352.0</ele><time>2026-04-11T14:47:26.019Z</time></trkpt><trkpt lat="46.1632975" lon="10.0033247"><ele>353.0</ele><time>2026-04-11T14:47:27.019Z</time></trkpt><trkpt lat="46.1633353" lon="10.0030281"><ele>354.0</ele><time>2026-04-11T14:47:28.018Z</time></trkpt><trkpt lat="46.1633741" lon="10.0027237"><ele>353.6666666666667</ele><time>2026-04-11T14:47:29.019Z</time></trkpt><trkpt lat="46.1634154" lon="10.0024228"><ele>353.33333333333337</ele><time>2026-04-11T14:47:30.019Z</time></trkpt><trkpt lat="46.1634541" lon="10.0021163"><ele>353.0</ele><time>2026-04-11T14:47:31.018Z</time></trkpt><trkpt lat="46.1634949" lon="10.0018118"><ele>353.0</ele><time>2026-04-11T14:47:32.019Z</time></trkpt><trkpt lat="46.1635325" lon="10.0015015"><ele>353.0</ele><time>2026-04-11T14:47:33.018Z</time></trkpt><trkpt lat="46.1635742" lon="10.0011927"><ele>353.0</ele><time>2026-04-11T14:47:34.019Z</time></trkpt><trkpt lat="46.1636176" lon="10.0008832"><ele>354.0</ele><time>2026-04-11T14:47:35.019Z</time></trkpt><trkpt lat="46.1636603" lon="10.0005748"><ele>355.0</ele><time>2026-04-11T14:47:36.018Z</time></trkpt><trkpt lat="46.1637029" lon="10.0002676"><ele>356.0</ele><time>2026-04-11T14:47:37.019Z</time></trkpt><trkpt lat="46.1637448" lon="9.9999574"><ele>356.0</ele><time>2026-04-11T14:47:38.019Z</time></trkpt><trkpt lat="46.1637872" lon="9.9996482"><ele>356.0</ele><time>2026-04-11T14:47:39.019Z</time></trkpt><trkpt lat="46.1638309" lon="9.9993413"><ele>356.0</ele><time>2026-04-11T14:47:40.019Z</time></trkpt><trkpt lat="46.163874" lon="9.9990269"><ele>356.0</ele><time>2026-04-11T14:47:41.019Z</time></trkpt><trkpt lat="46.163916" lon="9.9987247"><ele>356.0</ele><time>2026-04-11T14:47:42.019Z</time></trkpt><trkpt lat="46.1639542" lon="9.9984363"><ele>356.0</ele><time>2026-04-11T14:47:43.019Z</time></trkpt><trkpt lat="46.1639918" lon="9.9981553"><ele>355.6666666666667</ele><time>2026-04-11T14:47:44.019Z</time></trkpt><trkpt lat="46.1640302" lon="9.9978768"><ele>355.3333333333333</ele><time>2026-04-11T14:47:45.019Z</time></trkpt><trkpt lat="46.164066" lon="9.997601"><ele>355.0</ele><time>2026-04-11T14:47:46.019Z</time></trkpt><trkpt lat="46.1641009" lon="9.9973403"><ele>355.0</ele><time>2026-04-11T14:47:47.019Z</time></trkpt><trkpt lat="46.164133" lon="9.997085"><ele>355.0</ele><time>2026-04-11T14:47:48.019Z</time></trkpt><trkpt lat="46.1641623" lon="9.9968417"><ele>355.0</ele><time>2026-04-11T14:47:49.019Z</time></trkpt><trkpt lat="46.164194" lon="9.9966079"><ele>355.0</ele><time>2026-04-11T14:47:50.019Z</time></trkpt><trkpt lat="46.1642251" lon="9.9963757"><ele>355.0</ele><time>2026-04-11T14:47:51.019Z</time></trkpt><trkpt lat="46.164257" lon="9.9961453"><ele>355.0</ele><time>2026-04-11T14:47:52.019Z</time></trkpt><trkpt lat="46.1642892" lon="9.9959142"><ele>355.0</ele><time>2026-04-11T14:47:53.019Z</time></trkpt><trkpt lat="46.1643219" lon="9.9956795"><ele>355.0</ele><time>2026-04-11T14:47:54.019Z</time></trkpt><trkpt lat="46.1643548" lon="9.9954424"><ele>355.0</ele><time>2026-04-11T14:47:55.018Z</time></trkpt><trkpt lat="46.1643808" lon="9.9952141"><ele>355.0</ele><time>2026-04-11T14:47:56.019Z</time></trkpt><trkpt lat="46.1644067" lon="9.9949972"><ele>355.0</ele><time>2026-04-11T14:47:57.019Z</time></trkpt><trkpt lat="46.1644352" lon="9.9947912"><ele>355.0</ele><time>2026-04-11T14:47:58.018Z</time></trkpt><trkpt lat="46.1644629" lon="9.9945907"><ele>355.0</ele><time>2026-04-11T14:47:59.019Z</time></trkpt><trkpt lat="46.1644885" lon="9.9943951"><ele>355.0</ele><time>2026-04-11T14:48:00.019Z</time></trkpt><trkpt lat="46.1645131" lon="9.9942047"><ele>355.0</ele><time>2026-04-11T14:48:01.018Z</time></trkpt><trkpt lat="46.1645381" lon="9.9940214"><ele>355.0</ele><time>2026-04-11T14:48:02.019Z</time></trkpt><trkpt lat="46.1645611" lon="9.99384"><ele>355.0</ele><time>2026-04-11T14:48:03.019Z</time></trkpt><trkpt lat="46.1645846" lon="9.993653"><ele>355.0</ele><time>2026-04-11T14:48:04.019Z</time></trkpt><trkpt lat="46.1646128" lon="9.9934716"><ele>355.0</ele><time>2026-04-11T14:48:05.019Z</time></trkpt><trkpt lat="46.164636" lon="9.9932979"><ele>355.0</ele><time>2026-04-11T14:48:06.019Z</time></trkpt><trkpt lat="46.1646651" lon="9.9931358"><ele>355.0</ele><time>2026-04-11T14:48:07.019Z</time></trkpt><trkpt lat="46.1646967" lon="9.9929847"><ele>355.0</ele><time>2026-04-11T14:48:08.019Z</time></trkpt><trkpt lat="46.1647267" lon="9.992844"><ele>355.0</ele><time>2026-04-11T14:48:09.019Z</time></trkpt><trkpt lat="46.1647582" lon="9.9927114"><ele>355.0</ele><time>2026-04-11T14:48:10.018Z</time></trkpt><trkpt lat="46.164791" lon="9.9925916"><ele>355.0</ele><time>2026-04-11T14:48:11.019Z</time></trkpt><trkpt lat="46.1648272" lon="9.9924875"><ele>355.0</ele><time>2026-04-11T14:48:12.019Z</time></trkpt><trkpt lat="46.1648723" lon="9.9924038"><ele>355.0</ele><time>2026-04-11T14:48:13.019Z</time></trkpt><trkpt lat="46.164927" lon="9.9923321"><ele>355.16666666666663</ele><time>2026-04-11T14:48:14.019Z</time></trkpt><trkpt lat="46.164967" lon="9.9922492"><ele>355.3333333333333</ele><time>2026-04-11T14:48:15.019Z</time></trkpt><trkpt lat="46.1649825" lon="9.9921521"><ele>355.5</ele><time>2026-04-11T14:48:16.019Z</time></trkpt><trkpt lat="46.1649661" lon="9.9920508"><ele>355.6666666666667</ele><time>2026-04-11T14:48:17.019Z</time></trkpt><trkpt lat="46.1649171" lon="9.9919512"><ele>355.83333333333337</ele><time>2026-04-11T14:48:18.018Z</time></trkpt><trkpt lat="46.164877" lon="9.9918292"><ele>356.0</ele><time>2026-04-11T14:48:19.019Z</time></trkpt><trkpt lat="46.1648585" lon="9.9916846"><ele>356.25</ele><time>2026-04-11T14:48:20.019Z</time></trkpt><trkpt lat="46.1648652" lon="9.9915268"><ele>356.5</ele><time>2026-04-11T14:48:21.019Z</time></trkpt><trkpt lat="46.1648806" lon="9.9913637"><ele>356.75</ele><time>2026-04-11T14:48:22.018Z</time></trkpt><trkpt lat="46.1648998" lon="9.9912078"><ele>357.0</ele><time>2026-04-11T14:48:23.019Z</time></trkpt><trkpt lat="46.1649246" lon="9.9910423"><ele>357.0</ele><time>2026-04-11T14:48:24.019Z</time></trkpt><trkpt lat="46.1649479" lon="9.990878"><ele>357.0</ele><time>2026-04-11T14:48:25.019Z</time></trkpt><trkpt lat="46.1649692" lon="9.9907195"><ele>357.0</ele><time>2026-04-11T14:48:26.018Z</time></trkpt><trkpt lat="46.1649875" lon="9.9905764"><ele>357.0</ele><time>2026-04-11T14:48:27.019Z</time></trkpt><trkpt lat="46.1650059" lon="9.9904545"><ele>357.0</ele><time>2026-04-11T14:48:28.019Z</time></trkpt><trkpt lat="46.1650229" lon="9.9903383"><ele>357.0</ele><time>2026-04-11T14:48:29.019Z</time></trkpt><trkpt lat="46.1650382" lon="9.9902346"><ele>357.0</ele><time>2026-04-11T14:48:30.019Z</time></trkpt><trkpt lat="46.1650513" lon="9.9901448"><ele>357.0</ele><time>2026-04-11T14:48:31.019Z</time></trkpt><trkpt lat="46.1650772" lon="9.9900014"><ele>357.0</ele><time>2026-04-11T14:48:33.019Z</time></trkpt><trkpt lat="46.1651303" lon="9.9899165"><ele>357.0</ele><time>2026-04-11T14:48:36.019Z</time></trkpt><trkpt lat="46.1651954" lon="9.9899573"><ele>357.0</ele><time>2026-04-11T14:48:40.019Z</time></trkpt><trkpt lat="46.1652752" lon="9.9899384"><ele>357.0</ele><time>2026-04-11T14:48:50.019Z</time></trkpt><trkpt lat="46.165291" lon="9.9898445"><ele>357.0</ele><time>2026-04-11T14:48:52.018Z</time></trkpt><trkpt lat="46.1652811" lon="9.9897454"><ele>357.0</ele><time>2026-04-11T14:48:55.019Z</time></trkpt><trkpt lat="46.16524" lon="9.9896249"><ele>357.0</ele><time>2026-04-11T14:48:59.018Z</time></trkpt><trkpt lat="46.1653085" lon="9.9896876"><ele>357.0</ele><time>2026-04-11T14:50:45.019Z</time></trkpt><trkpt lat="46.1653091" lon="9.9897832"><ele>357.0</ele><time>2026-04-11T14:51:00.019Z</time></trkpt><trkpt lat="46.1653469" lon="9.9898576"><ele>357.0</ele><time>2026-04-11T14:51:09.019Z</time></trkpt><trkpt lat="46.1654026" lon="9.9899098"><ele>357.0</ele><time>2026-04-11T14:51:26.019Z</time></trkpt><trkpt lat="46.1654276" lon="9.9898112"><ele>357.0</ele><time>2026-04-11T14:52:02.302Z</time></trkpt><trkpt lat="46.1654808" lon="9.9897369"><ele>357.0</ele><time>2026-04-11T14:54:18.019Z</time></trkpt><trkpt lat="46.1654179" lon="9.9897763"><ele>357.0</ele><time>2026-04-11T15:00:25.023Z</time></trkpt><trkpt lat="46.1653465" lon="9.9897704"><ele>357.0</ele><time>2026-04-11T15:00:32.019Z</time></trkpt><trkpt lat="46.1652839" lon="9.9897498"><ele>357.0</ele><time>2026-04-11T15:00:38.018Z</time></trkpt><trkpt lat="46.1652356" lon="9.9896455"><ele>357.0</ele><time>2026-04-11T15:02:15.024Z</time></trkpt><trkpt lat="46.1653339" lon="9.9894921"><ele>357.0</ele><time>2026-04-11T15:04:16.018Z</time></trkpt><trkpt lat="46.1653681" lon="9.9893694"><ele>357.0</ele><time>2026-04-11T15:04:18.018Z</time></trkpt><trkpt lat="46.1653499" lon="9.9892616"><ele>357.0</ele><time>2026-04-11T15:04:20.018Z</time></trkpt><trkpt lat="46.1653056" lon="9.989192"><ele>357.0</ele><time>2026-04-11T15:04:23.018Z</time></trkpt><trkpt lat="46.1652705" lon="9.9890955"><ele>357.0</ele><time>2026-04-11T15:06:05.018Z</time></trkpt><trkpt lat="46.1652307" lon="9.9889898"><ele>357.0</ele><time>2026-04-11T15:06:07.017Z</time></trkpt><trkpt lat="46.1652276" lon="9.9888154"><ele>358.0</ele><time>2026-04-11T15:06:09.018Z</time></trkpt><trkpt lat="46.1652452" lon="9.98868"><ele>359.0</ele><time>2026-04-11T15:06:10.018Z</time></trkpt><trkpt lat="46.165266" lon="9.9885298"><ele>360.0</ele><time>2026-04-11T15:06:11.018Z</time></trkpt><trkpt lat="46.1652918" lon="9.9883567"><ele>361.0</ele><time>2026-04-11T15:06:12.018Z</time></trkpt><trkpt lat="46.1653154" lon="9.9881582"><ele>362.3333333333333</ele><time>2026-04-11T15:06:13.018Z</time></trkpt><trkpt lat="46.1653445" lon="9.9879336"><ele>363.6666666666667</ele><time>2026-04-11T15:06:14.018Z</time></trkpt><trkpt lat="46.1653763" lon="9.9876839"><ele>365.0</ele><time>2026-04-11T15:06:15.018Z</time></trkpt><trkpt lat="46.1654079" lon="9.9874395"><ele>365.6666666666667</ele><time>2026-04-11T15:06:16.017Z</time></trkpt><trkpt lat="46.1654384" lon="9.9872111"><ele>366.3333333333333</ele><time>2026-04-11T15:06:17.018Z</time></trkpt><trkpt lat="46.1654652" lon="9.9869876"><ele>367.0</ele><time>2026-04-11T15:06:18.018Z</time></trkpt><trkpt lat="46.1654953" lon="9.9867779"><ele>367.0</ele><time>2026-04-11T15:06:19.017Z</time></trkpt><trkpt lat="46.1655168" lon="9.986574"><ele>367.0</ele><time>2026-04-11T15:06:20.017Z</time></trkpt><trkpt lat="46.1655359" lon="9.9863797"><ele>367.0</ele><time>2026-04-11T15:06:21.017Z</time></trkpt><trkpt lat="46.165548" lon="9.9861866"><ele>367.0</ele><time>2026-04-11T15:06:22.018Z</time></trkpt><trkpt lat="46.1655533" lon="9.9859918"><ele>368.25</ele><time>2026-04-11T15:06:23.018Z</time></trkpt><trkpt lat="46.1655585" lon="9.9857846"><ele>369.5</ele><time>2026-04-11T15:06:24.018Z</time></trkpt><trkpt lat="46.1655489" lon="9.9855773"><ele>370.75</ele><time>2026-04-11T15:06:25.018Z</time></trkpt><trkpt lat="46.1655328" lon="9.9853733"><ele>372.0</ele><time>2026-04-11T15:06:26.018Z</time></trkpt><trkpt lat="46.1655112" lon="9.9851726"><ele>373.0</ele><time>2026-04-11T15:06:27.018Z</time></trkpt><trkpt lat="46.1654864" lon="9.9849789"><ele>374.0</ele><time>2026-04-11T15:06:28.018Z</time></trkpt><trkpt lat="46.1654587" lon="9.9848011"><ele>375.0</ele><time>2026-04-11T15:06:29.018Z</time></trkpt><trkpt lat="46.1654234" lon="9.9846225"><ele>376.0</ele><time>2026-04-11T15:06:30.018Z</time></trkpt><trkpt lat="46.1653796" lon="9.9844415"><ele>376.0</ele><time>2026-04-11T15:06:31.018Z</time></trkpt><trkpt lat="46.1653245" lon="9.9842573"><ele>376.0</ele><time>2026-04-11T15:06:32.018Z</time></trkpt><trkpt lat="46.1652565" lon="9.9840719"><ele>376.0</ele><time>2026-04-11T15:06:33.018Z</time></trkpt><trkpt lat="46.1651886" lon="9.9838848"><ele>376.0</ele><time>2026-04-11T15:06:34.017Z</time></trkpt><trkpt lat="46.1651163" lon="9.9836969"><ele>375.5</ele><time>2026-04-11T15:06:35.018Z</time></trkpt><trkpt lat="46.1650419" lon="9.9835156"><ele>375.0</ele><time>2026-04-11T15:06:36.018Z</time></trkpt><trkpt lat="46.1649672" lon="9.9833346"><ele>374.5</ele><time>2026-04-11T15:06:37.018Z</time></trkpt><trkpt lat="46.1649043" lon="9.9831513"><ele>374.0</ele><time>2026-04-11T15:06:38.017Z</time></trkpt><trkpt lat="46.1648379" lon="9.9829861"><ele>374.0</ele><time>2026-04-11T15:06:39.018Z</time></trkpt><trkpt lat="46.1647753" lon="9.9828194"><ele>374.0</ele><time>2026-04-11T15:06:40.018Z</time></trkpt><trkpt lat="46.1647089" lon="9.9826421"><ele>374.0</ele><time>2026-04-11T15:06:41.017Z</time></trkpt><trkpt lat="46.1646382" lon="9.9824664"><ele>374.0</ele><time>2026-04-11T15:06:42.018Z</time></trkpt><trkpt lat="46.1645683" lon="9.9822809"><ele>376.0</ele><time>2026-04-11T15:06:43.017Z</time></trkpt><trkpt lat="46.1644921" lon="9.982086"><ele>378.0</ele><time>2026-04-11T15:06:44.018Z</time></trkpt><trkpt lat="46.1644208" lon="9.9818859"><ele>380.0</ele><time>2026-04-11T15:06:45.017Z</time></trkpt><trkpt lat="46.1643511" lon="9.9816772"><ele>380.0</ele><time>2026-04-11T15:06:46.018Z</time></trkpt><trkpt lat="46.1642844" lon="9.9814657"><ele>380.0</ele><time>2026-04-11T15:06:47.018Z</time></trkpt><trkpt lat="46.1642098" lon="9.9812766"><ele>380.0</ele><time>2026-04-11T15:06:48.017Z</time></trkpt><trkpt lat="46.1641551" lon="9.9810763"><ele>380.0</ele><time>2026-04-11T15:06:49.018Z</time></trkpt><trkpt lat="46.1641041" lon="9.9808661"><ele>380.0</ele><time>2026-04-11T15:06:50.018Z</time></trkpt><trkpt lat="46.1640522" lon="9.9806507"><ele>380.0</ele><time>2026-04-11T15:06:51.018Z</time></trkpt><trkpt lat="46.1640046" lon="9.9804282"><ele>378.33333333333337</ele><time>2026-04-11T15:06:52.018Z</time></trkpt><trkpt lat="46.1639499" lon="9.9802004"><ele>376.6666666666667</ele><time>2026-04-11T15:06:53.018Z</time></trkpt><trkpt lat="46.1639093" lon="9.9799843"><ele>375.0</ele><time>2026-04-11T15:06:54.018Z</time></trkpt><trkpt lat="46.163889" lon="9.9797598"><ele>375.0</ele><time>2026-04-11T15:06:55.018Z</time></trkpt><trkpt lat="46.1638472" lon="9.97956"><ele>375.0</ele><time>2026-04-11T15:06:56.018Z</time></trkpt><trkpt lat="46.1637883" lon="9.9793535"><ele>375.0</ele><time>2026-04-11T15:06:57.018Z</time></trkpt><trkpt lat="46.1637471" lon="9.9791661"><ele>375.0</ele><time>2026-04-11T15:06:58.018Z</time></trkpt><trkpt lat="46.1637052" lon="9.9789754"><ele>375.75</ele><time>2026-04-11T15:06:59.018Z</time></trkpt><trkpt lat="46.1636673" lon="9.9787789"><ele>376.5</ele><time>2026-04-11T15:07:00.018Z</time></trkpt><trkpt lat="46.1636271" lon="9.9785759"><ele>377.25</ele><time>2026-04-11T15:07:01.017Z</time></trkpt><trkpt lat="46.1635808" lon="9.9783637"><ele>378.0</ele><time>2026-04-11T15:07:02.018Z</time></trkpt><trkpt lat="46.163539" lon="9.978153"><ele>378.3333333333333</ele><time>2026-04-11T15:07:03.017Z</time></trkpt><trkpt lat="46.1634944" lon="9.9779521"><ele>378.66666666666663</ele><time>2026-04-11T15:07:04.018Z</time></trkpt><trkpt lat="46.1634453" lon="9.9777249"><ele>379.0</ele><time>2026-04-11T15:07:05.018Z</time></trkpt><trkpt lat="46.1633932" lon="9.9774848"><ele>379.66666666666663</ele><time>2026-04-11T15:07:06.018Z</time></trkpt><trkpt lat="46.1633202" lon="9.977245"><ele>380.3333333333333</ele><time>2026-04-11T15:07:07.018Z</time></trkpt><trkpt lat="46.1632678" lon="9.9769919"><ele>381.0</ele><time>2026-04-11T15:07:08.017Z</time></trkpt><trkpt lat="46.1632067" lon="9.9767316"><ele>379.0</ele><time>2026-04-11T15:07:09.018Z</time></trkpt><trkpt lat="46.1631488" lon="9.9764664"><ele>377.0</ele><time>2026-04-11T15:07:10.018Z</time></trkpt><trkpt lat="46.1631189" lon="9.9762106"><ele>375.0</ele><time>2026-04-11T15:07:11.017Z</time></trkpt><trkpt lat="46.16307" lon="9.9759718"><ele>375.6666666666667</ele><time>2026-04-11T15:07:12.018Z</time></trkpt><trkpt lat="46.1630223" lon="9.9757424"><ele>376.33333333333337</ele><time>2026-04-11T15:07:13.018Z</time></trkpt><trkpt lat="46.1629716" lon="9.9755216"><ele>377.0</ele><time>2026-04-11T15:07:14.018Z</time></trkpt><trkpt lat="46.1629297" lon="9.9753181"><ele>377.0</ele><time>2026-04-11T15:07:15.018Z</time></trkpt><trkpt lat="46.1628884" lon="9.9751205"><ele>377.0</ele><time>2026-04-11T15:07:16.017Z</time></trkpt><trkpt lat="46.1628469" lon="9.9749186"><ele>377.0</ele><time>2026-04-11T15:07:17.018Z</time></trkpt><trkpt lat="46.1628036" lon="9.9747139"><ele>377.0</ele><time>2026-04-11T15:07:18.018Z</time></trkpt><trkpt lat="46.1627619" lon="9.9745069"><ele>377.33333333333337</ele><time>2026-04-11T15:07:19.018Z</time></trkpt><trkpt lat="46.1627185" lon="9.9742985"><ele>377.6666666666667</ele><time>2026-04-11T15:07:20.017Z</time></trkpt><trkpt lat="46.1626772" lon="9.974092"><ele>378.0</ele><time>2026-04-11T15:07:21.018Z</time></trkpt><trkpt lat="46.1626268" lon="9.9738739"><ele>378.0</ele><time>2026-04-11T15:07:22.018Z</time></trkpt><trkpt lat="46.1625724" lon="9.9736537"><ele>378.0</ele><time>2026-04-11T15:07:23.018Z</time></trkpt><trkpt lat="46.162521" lon="9.9734313"><ele>378.0</ele><time>2026-04-11T15:07:24.018Z</time></trkpt><trkpt lat="46.162475" lon="9.9732074"><ele>378.6666666666667</ele><time>2026-04-11T15:07:25.018Z</time></trkpt><trkpt lat="46.162415" lon="9.9729969"><ele>379.33333333333337</ele><time>2026-04-11T15:07:26.018Z</time></trkpt><trkpt lat="46.1623773" lon="9.972776"><ele>380.0</ele><time>2026-04-11T15:07:27.018Z</time></trkpt><trkpt lat="46.1623484" lon="9.9725348"><ele>376.6666666666667</ele><time>2026-04-11T15:07:28.017Z</time></trkpt><trkpt lat="46.1622977" lon="9.9723147"><ele>373.3333333333333</ele><time>2026-04-11T15:07:29.018Z</time></trkpt><trkpt lat="46.1622582" lon="9.9721049"><ele>370.0</ele><time>2026-04-11T15:07:30.017Z</time></trkpt><trkpt lat="46.1622507" lon="9.9718854"><ele>370.0</ele><time>2026-04-11T15:07:31.018Z</time></trkpt><trkpt lat="46.1622335" lon="9.9716675"><ele>370.0</ele><time>2026-04-11T15:07:32.018Z</time></trkpt><trkpt lat="46.1622036" lon="9.9714498"><ele>370.0</ele><time>2026-04-11T15:07:33.018Z</time></trkpt><trkpt lat="46.1622007" lon="9.9712278"><ele>370.0</ele><time>2026-04-11T15:07:34.018Z</time></trkpt><trkpt lat="46.162208" lon="9.971002"><ele>370.0</ele><time>2026-04-11T15:07:35.018Z</time></trkpt><trkpt lat="46.1622178" lon="9.9707734"><ele>370.0</ele><time>2026-04-11T15:07:36.018Z</time></trkpt><trkpt lat="46.1622345" lon="9.970546"><ele>369.25</ele><time>2026-04-11T15:07:37.018Z</time></trkpt><trkpt lat="46.1622421" lon="9.9703315"><ele>368.5</ele><time>2026-04-11T15:07:38.017Z</time></trkpt><trkpt lat="46.1622482" lon="9.970124"><ele>367.75</ele><time>2026-04-11T15:07:39.018Z</time></trkpt><trkpt lat="46.1622559" lon="9.9699106"><ele>367.0</ele><time>2026-04-11T15:07:40.018Z</time></trkpt><trkpt lat="46.1622633" lon="9.9697001"><ele>365.5</ele><time>2026-04-11T15:07:41.018Z</time></trkpt><trkpt lat="46.1622695" lon="9.9694891"><ele>364.0</ele><time>2026-04-11T15:07:42.018Z</time></trkpt><trkpt lat="46.1622712" lon="9.9692784"><ele>362.5</ele><time>2026-04-11T15:07:43.018Z</time></trkpt><trkpt lat="46.1622703" lon="9.9690683"><ele>361.0</ele><time>2026-04-11T15:07:44.017Z</time></trkpt><trkpt lat="46.1622644" lon="9.968856"><ele>359.0</ele><time>2026-04-11T15:07:45.017Z</time></trkpt><trkpt lat="46.1622568" lon="9.9686404"><ele>357.0</ele><time>2026-04-11T15:07:46.018Z</time></trkpt><trkpt lat="46.1622492" lon="9.9684223"><ele>355.0</ele><time>2026-04-11T15:07:47.018Z</time></trkpt><trkpt lat="46.1622409" lon="9.9682002"><ele>354.3333333333333</ele><time>2026-04-11T15:07:48.018Z</time></trkpt><trkpt lat="46.1622308" lon="9.967972"><ele>353.6666666666667</ele><time>2026-04-11T15:07:49.018Z</time></trkpt><trkpt lat="46.1622259" lon="9.9677456"><ele>353.0</ele><time>2026-04-11T15:07:50.018Z</time></trkpt><trkpt lat="46.1622167" lon="9.9675176"><ele>353.0</ele><time>2026-04-11T15:07:51.018Z</time></trkpt><trkpt lat="46.1622088" lon="9.9673045"><ele>353.0</ele><time>2026-04-11T15:07:52.018Z</time></trkpt><trkpt lat="46.1622003" lon="9.9670949"><ele>353.0</ele><time>2026-04-11T15:07:53.018Z</time></trkpt><trkpt lat="46.1621945" lon="9.9668874"><ele>353.0</ele><time>2026-04-11T15:07:54.017Z</time></trkpt><trkpt lat="46.1621927" lon="9.9666761"><ele>353.0</ele><time>2026-04-11T15:07:55.018Z</time></trkpt><trkpt lat="46.1621985" lon="9.9664635"><ele>353.0</ele><time>2026-04-11T15:07:56.017Z</time></trkpt><trkpt lat="46.1622092" lon="9.9662513"><ele>353.0</ele><time>2026-04-11T15:07:57.017Z</time></trkpt><trkpt lat="46.1622183" lon="9.9660403"><ele>353.0</ele><time>2026-04-11T15:07:58.017Z</time></trkpt><trkpt lat="46.1622373" lon="9.9658415"><ele>352.75</ele><time>2026-04-11T15:07:59.017Z</time></trkpt><trkpt lat="46.1622568" lon="9.9656458"><ele>352.5</ele><time>2026-04-11T15:08:00.017Z</time></trkpt><trkpt lat="46.162282" lon="9.9654577"><ele>352.25</ele><time>2026-04-11T15:08:01.017Z</time></trkpt><trkpt lat="46.1623095" lon="9.9652758"><ele>352.0</ele><time>2026-04-11T15:08:02.016Z</time></trkpt><trkpt lat="46.1623383" lon="9.9651003"><ele>357.25</ele><time>2026-04-11T15:08:03.017Z</time></trkpt><trkpt lat="46.162367" lon="9.9649264"><ele>362.5</ele><time>2026-04-11T15:08:04.017Z</time></trkpt><trkpt lat="46.1623983" lon="9.964754"><ele>367.75</ele><time>2026-04-11T15:08:05.017Z</time></trkpt><trkpt lat="46.162431" lon="9.9645809"><ele>373.0</ele><time>2026-04-11T15:08:06.017Z</time></trkpt><trkpt lat="46.1624682" lon="9.9644094"><ele>373.0</ele><time>2026-04-11T15:08:07.017Z</time></trkpt><trkpt lat="46.1625038" lon="9.9642319"><ele>373.0</ele><time>2026-04-11T15:08:08.017Z</time></trkpt><trkpt lat="46.16254" lon="9.9640507"><ele>373.0</ele><time>2026-04-11T15:08:09.017Z</time></trkpt><trkpt lat="46.1625678" lon="9.9638658"><ele>373.0</ele><time>2026-04-11T15:08:10.017Z</time></trkpt><trkpt lat="46.1625856" lon="9.9636722"><ele>372.25</ele><time>2026-04-11T15:08:11.017Z</time></trkpt><trkpt lat="46.1625944" lon="9.9634703"><ele>371.5</ele><time>2026-04-11T15:08:12.017Z</time></trkpt><trkpt lat="46.1625948" lon="9.9632645"><ele>370.75</ele><time>2026-04-11T15:08:13.017Z</time></trkpt><trkpt lat="46.1625833" lon="9.9630591"><ele>370.0</ele><time>2026-04-11T15:08:14.017Z</time></trkpt><trkpt lat="46.1625619" lon="9.9628537"><ele>370.0</ele><time>2026-04-11T15:08:15.017Z</time></trkpt><trkpt lat="46.1625304" lon="9.9626535"><ele>370.0</ele><time>2026-04-11T15:08:16.017Z</time></trkpt><trkpt lat="46.1624789" lon="9.9624544"><ele>370.0</ele><time>2026-04-11T15:08:17.017Z</time></trkpt><trkpt lat="46.1624162" lon="9.9622653"><ele>370.0</ele><time>2026-04-11T15:08:18.017Z</time></trkpt><trkpt lat="46.1623421" lon="9.9620837"><ele>365.25</ele><time>2026-04-11T15:08:19.017Z</time></trkpt><trkpt lat="46.1622644" lon="9.9619092"><ele>360.5</ele><time>2026-04-11T15:08:20.017Z</time></trkpt><trkpt lat="46.1621815" lon="9.9617494"><ele>355.75</ele><time>2026-04-11T15:08:21.017Z</time></trkpt><trkpt lat="46.1620987" lon="9.9615981"><ele>351.0</ele><time>2026-04-11T15:08:22.017Z</time></trkpt><trkpt lat="46.1620153" lon="9.9614469"><ele>351.0</ele><time>2026-04-11T15:08:23.017Z</time></trkpt><trkpt lat="46.1619291" lon="9.9612963"><ele>351.0</ele><time>2026-04-11T15:08:24.017Z</time></trkpt><trkpt lat="46.1618419" lon="9.9611401"><ele>351.0</ele><time>2026-04-11T15:08:25.017Z</time></trkpt><trkpt lat="46.1617567" lon="9.9609924"><ele>351.0</ele><time>2026-04-11T15:08:26.017Z</time></trkpt><trkpt lat="46.1616789" lon="9.9608528"><ele>352.75</ele><time>2026-04-11T15:08:27.017Z</time></trkpt><trkpt lat="46.1615994" lon="9.9607043"><ele>354.5</ele><time>2026-04-11T15:08:28.016Z</time></trkpt><trkpt lat="46.1615265" lon="9.9605429"><ele>356.25</ele><time>2026-04-11T15:08:29.017Z</time></trkpt><trkpt lat="46.1614593" lon="9.960374"><ele>358.0</ele><time>2026-04-11T15:08:30.017Z</time></trkpt><trkpt lat="46.1614001" lon="9.9601932"><ele>354.5</ele><time>2026-04-11T15:08:31.017Z</time></trkpt><trkpt lat="46.1613509" lon="9.9599974"><ele>351.0</ele><time>2026-04-11T15:08:32.017Z</time></trkpt><trkpt lat="46.1613149" lon="9.9597917"><ele>347.5</ele><time>2026-04-11T15:08:33.017Z</time></trkpt><trkpt lat="46.1612887" lon="9.9595781"><ele>344.0</ele><time>2026-04-11T15:08:34.017Z</time></trkpt><trkpt lat="46.1612716" lon="9.9593542"><ele>344.75</ele><time>2026-04-11T15:08:35.017Z</time></trkpt><trkpt lat="46.1612655" lon="9.9591368"><ele>345.5</ele><time>2026-04-11T15:08:36.016Z</time></trkpt><trkpt lat="46.1612607" lon="9.958921"><ele>346.25</ele><time>2026-04-11T15:08:37.017Z</time></trkpt><trkpt lat="46.1612549" lon="9.9587091"><ele>347.0</ele><time>2026-04-11T15:08:38.017Z</time></trkpt><trkpt lat="46.1612507" lon="9.9584989"><ele>348.0</ele><time>2026-04-11T15:08:39.017Z</time></trkpt><trkpt lat="46.1612484" lon="9.9582916"><ele>349.0</ele><time>2026-04-11T15:08:40.016Z</time></trkpt><trkpt lat="46.161246" lon="9.958088"><ele>350.0</ele><time>2026-04-11T15:08:41.016Z</time></trkpt><trkpt lat="46.1612424" lon="9.957885"><ele>351.0</ele><time>2026-04-11T15:08:42.017Z</time></trkpt><trkpt lat="46.1612383" lon="9.9576812"><ele>351.5</ele><time>2026-04-11T15:08:43.017Z</time></trkpt><trkpt lat="46.1612356" lon="9.9574855"><ele>352.0</ele><time>2026-04-11T15:08:44.017Z</time></trkpt><trkpt lat="46.161232" lon="9.9572959"><ele>352.5</ele><time>2026-04-11T15:08:45.017Z</time></trkpt><trkpt lat="46.1612284" lon="9.9571099"><ele>353.0</ele><time>2026-04-11T15:08:46.017Z</time></trkpt><trkpt lat="46.161227" lon="9.9569236"><ele>353.0</ele><time>2026-04-11T15:08:47.017Z</time></trkpt><trkpt lat="46.1612234" lon="9.9567376"><ele>353.0</ele><time>2026-04-11T15:08:48.017Z</time></trkpt><trkpt lat="46.161219" lon="9.9565459"><ele>353.0</ele><time>2026-04-11T15:08:49.016Z</time></trkpt><trkpt lat="46.1612144" lon="9.9563491"><ele>353.0</ele><time>2026-04-11T15:08:50.017Z</time></trkpt><trkpt lat="46.1612112" lon="9.9561482"><ele>352.25</ele><time>2026-04-11T15:08:51.017Z</time></trkpt><trkpt lat="46.1612074" lon="9.9559429"><ele>351.5</ele><time>2026-04-11T15:08:52.017Z</time></trkpt><trkpt lat="46.1612036" lon="9.9557315"><ele>350.75</ele><time>2026-04-11T15:08:53.017Z</time></trkpt><trkpt lat="46.1612023" lon="9.9555132"><ele>350.0</ele><time>2026-04-11T15:08:54.017Z</time></trkpt><trkpt lat="46.1612036" lon="9.9553"><ele>349.0</ele><time>2026-04-11T15:08:55.017Z</time></trkpt><trkpt lat="46.1612097" lon="9.9550962"><ele>348.0</ele><time>2026-04-11T15:08:56.016Z</time></trkpt><trkpt lat="46.1612204" lon="9.9548971"><ele>347.0</ele><time>2026-04-11T15:08:57.017Z</time></trkpt><trkpt lat="46.1612367" lon="9.9546886"><ele>346.0</ele><time>2026-04-11T15:08:58.017Z</time></trkpt><trkpt lat="46.16126" lon="9.9544777"><ele>345.66666666666663</ele><time>2026-04-11T15:08:59.016Z</time></trkpt><trkpt lat="46.1612912" lon="9.9542619"><ele>345.3333333333333</ele><time>2026-04-11T15:09:00.017Z</time></trkpt><trkpt lat="46.1613271" lon="9.9540465"><ele>345.0</ele><time>2026-04-11T15:09:01.017Z</time></trkpt><trkpt lat="46.1613673" lon="9.9538334"><ele>344.6666666666667</ele><time>2026-04-11T15:09:02.017Z</time></trkpt><trkpt lat="46.1614106" lon="9.9536187"><ele>344.33333333333337</ele><time>2026-04-11T15:09:03.017Z</time></trkpt><trkpt lat="46.1614525" lon="9.9534049"><ele>344.0</ele><time>2026-04-11T15:09:04.016Z</time></trkpt><trkpt lat="46.161496" lon="9.9531932"><ele>344.5</ele><time>2026-04-11T15:09:05.017Z</time></trkpt><trkpt lat="46.1615416" lon="9.952985"><ele>345.0</ele><time>2026-04-11T15:09:06.016Z</time></trkpt><trkpt lat="46.1615856" lon="9.9527874"><ele>345.5</ele><time>2026-04-11T15:09:07.017Z</time></trkpt><trkpt lat="46.1616313" lon="9.9525925"><ele>346.0</ele><time>2026-04-11T15:09:08.017Z</time></trkpt><trkpt lat="46.1616774" lon="9.9524008"><ele>346.0</ele><time>2026-04-11T15:09:09.016Z</time></trkpt><trkpt lat="46.1617229" lon="9.952202"><ele>346.0</ele><time>2026-04-11T15:09:10.017Z</time></trkpt><trkpt lat="46.161769" lon="9.9519967"><ele>346.0</ele><time>2026-04-11T15:09:11.016Z</time></trkpt><trkpt lat="46.1618148" lon="9.9517902"><ele>346.0</ele><time>2026-04-11T15:09:12.017Z</time></trkpt><trkpt lat="46.1618617" lon="9.9515816"><ele>344.0</ele><time>2026-04-11T15:09:13.017Z</time></trkpt><trkpt lat="46.1619086" lon="9.9513705"><ele>342.0</ele><time>2026-04-11T15:09:14.017Z</time></trkpt><trkpt lat="46.1619538" lon="9.9511633"><ele>340.0</ele><time>2026-04-11T15:09:15.017Z</time></trkpt><trkpt lat="46.1619982" lon="9.950959"><ele>338.5</ele><time>2026-04-11T15:09:16.017Z</time></trkpt><trkpt lat="46.1620412" lon="9.9507613"><ele>337.0</ele><time>2026-04-11T15:09:17.017Z</time></trkpt><trkpt lat="46.162085" lon="9.9505696"><ele>335.5</ele><time>2026-04-11T15:09:18.017Z</time></trkpt><trkpt lat="46.1621285" lon="9.9503669"><ele>334.0</ele><time>2026-04-11T15:09:19.017Z</time></trkpt><trkpt lat="46.1621747" lon="9.9501641"><ele>333.3333333333333</ele><time>2026-04-11T15:09:20.017Z</time></trkpt><trkpt lat="46.1622213" lon="9.9499594"><ele>332.6666666666667</ele><time>2026-04-11T15:09:21.017Z</time></trkpt><trkpt lat="46.1622695" lon="9.9497522"><ele>332.0</ele><time>2026-04-11T15:09:22.017Z</time></trkpt><trkpt lat="46.1623204" lon="9.9495368"><ele>332.6666666666667</ele><time>2026-04-11T15:09:23.017Z</time></trkpt><trkpt lat="46.162371" lon="9.9493191"><ele>333.3333333333333</ele><time>2026-04-11T15:09:24.017Z</time></trkpt><trkpt lat="46.162426" lon="9.9490983"><ele>334.0</ele><time>2026-04-11T15:09:25.017Z</time></trkpt><trkpt lat="46.1624857" lon="9.9488779"><ele>334.0</ele><time>2026-04-11T15:09:26.017Z</time></trkpt><trkpt lat="46.1625605" lon="9.9486562"><ele>334.0</ele><time>2026-04-11T15:09:27.017Z</time></trkpt><trkpt lat="46.1626328" lon="9.9484425"><ele>334.0</ele><time>2026-04-11T15:09:28.017Z</time></trkpt><trkpt lat="46.1627213" lon="9.9482344"><ele>332.3333333333333</ele><time>2026-04-11T15:09:29.016Z</time></trkpt><trkpt lat="46.1628196" lon="9.9480461"><ele>330.6666666666667</ele><time>2026-04-11T15:09:30.017Z</time></trkpt><trkpt lat="46.1629189" lon="9.9478615"><ele>329.0</ele><time>2026-04-11T15:09:31.017Z</time></trkpt><trkpt lat="46.1630177" lon="9.9476834"><ele>329.6666666666667</ele><time>2026-04-11T15:09:32.017Z</time></trkpt><trkpt lat="46.1631174" lon="9.9475068"><ele>330.3333333333333</ele><time>2026-04-11T15:09:33.017Z</time></trkpt><trkpt lat="46.1632156" lon="9.9473384"><ele>331.0</ele><time>2026-04-11T15:09:34.017Z</time></trkpt><trkpt lat="46.1633123" lon="9.9471727"><ele>331.0</ele><time>2026-04-11T15:09:35.017Z</time></trkpt><trkpt lat="46.1634104" lon="9.9470114"><ele>331.0</ele><time>2026-04-11T15:09:36.016Z</time></trkpt><trkpt lat="46.1635083" lon="9.9468503"><ele>331.0</ele><time>2026-04-11T15:09:37.017Z</time></trkpt><trkpt lat="46.1636071" lon="9.9466825"><ele>329.3333333333333</ele><time>2026-04-11T15:09:38.017Z</time></trkpt><trkpt lat="46.1637058" lon="9.9465173"><ele>327.6666666666667</ele><time>2026-04-11T15:09:39.017Z</time></trkpt><trkpt lat="46.1638053" lon="9.9463526"><ele>326.0</ele><time>2026-04-11T15:09:40.016Z</time></trkpt><trkpt lat="46.1639053" lon="9.9461873"><ele>326.0</ele><time>2026-04-11T15:09:41.017Z</time></trkpt><trkpt lat="46.1640024" lon="9.9460173"><ele>326.0</ele><time>2026-04-11T15:09:42.017Z</time></trkpt><trkpt lat="46.1640962" lon="9.9458343"><ele>326.0</ele><time>2026-04-11T15:09:43.017Z</time></trkpt><trkpt lat="46.1641843" lon="9.945646"><ele>326.0</ele><time>2026-04-11T15:09:44.017Z</time></trkpt><trkpt lat="46.1642645" lon="9.945448"><ele>326.0</ele><time>2026-04-11T15:09:45.017Z</time></trkpt><trkpt lat="46.1643418" lon="9.9452465"><ele>326.0</ele><time>2026-04-11T15:09:46.017Z</time></trkpt><trkpt lat="46.1644109" lon="9.9450362"><ele>324.0</ele><time>2026-04-11T15:09:47.017Z</time></trkpt><trkpt lat="46.1644693" lon="9.9448229"><ele>322.0</ele><time>2026-04-11T15:09:48.016Z</time></trkpt><trkpt lat="46.1645227" lon="9.944607"><ele>320.0</ele><time>2026-04-11T15:09:49.017Z</time></trkpt><trkpt lat="46.1645772" lon="9.9443875"><ele>318.33333333333337</ele><time>2026-04-11T15:09:50.017Z</time></trkpt><trkpt lat="46.1646323" lon="9.9441695"><ele>316.6666666666667</ele><time>2026-04-11T15:09:51.017Z</time></trkpt><trkpt lat="46.1646863" lon="9.9439558"><ele>315.0</ele><time>2026-04-11T15:09:52.017Z</time></trkpt><trkpt lat="46.1647423" lon="9.9437441"><ele>315.0</ele><time>2026-04-11T15:09:53.017Z</time></trkpt><trkpt lat="46.1648004" lon="9.9435374"><ele>315.0</ele><time>2026-04-11T15:09:54.017Z</time></trkpt><trkpt lat="46.1648593" lon="9.9433297"><ele>315.0</ele><time>2026-04-11T15:09:55.017Z</time></trkpt><trkpt lat="46.1649158" lon="9.9431183"><ele>315.3333333333333</ele><time>2026-04-11T15:09:56.017Z</time></trkpt><trkpt lat="46.1649708" lon="9.9429002"><ele>315.66666666666663</ele><time>2026-04-11T15:09:57.017Z</time></trkpt><trkpt lat="46.1650245" lon="9.9426869"><ele>316.0</ele><time>2026-04-11T15:09:58.017Z</time></trkpt><trkpt lat="46.1650773" lon="9.9424757"><ele>316.0</ele><time>2026-04-11T15:09:59.017Z</time></trkpt><trkpt lat="46.1651308" lon="9.942266"><ele>316.0</ele><time>2026-04-11T15:10:00.017Z</time></trkpt><trkpt lat="46.1651841" lon="9.9420503"><ele>316.0</ele><time>2026-04-11T15:10:01.017Z</time></trkpt><trkpt lat="46.1652375" lon="9.9418304"><ele>314.0</ele><time>2026-04-11T15:10:02.017Z</time></trkpt><trkpt lat="46.1652896" lon="9.941607"><ele>312.0</ele><time>2026-04-11T15:10:03.017Z</time></trkpt><trkpt lat="46.1653415" lon="9.9413818"><ele>310.0</ele><time>2026-04-11T15:10:04.017Z</time></trkpt><trkpt lat="46.1653905" lon="9.9411589"><ele>310.0</ele><time>2026-04-11T15:10:05.017Z</time></trkpt><trkpt lat="46.1654388" lon="9.9409389"><ele>310.0</ele><time>2026-04-11T15:10:06.016Z</time></trkpt><trkpt lat="46.1654928" lon="9.9407215"><ele>310.0</ele><time>2026-04-11T15:10:07.017Z</time></trkpt><trkpt lat="46.165548" lon="9.940508"><ele>309.66666666666663</ele><time>2026-04-11T15:10:08.017Z</time></trkpt><trkpt lat="46.1656027" lon="9.9402932"><ele>309.3333333333333</ele><time>2026-04-11T15:10:09.017Z</time></trkpt><trkpt lat="46.165657" lon="9.9400771"><ele>309.0</ele><time>2026-04-11T15:10:10.017Z</time></trkpt><trkpt lat="46.1657113" lon="9.9398601"><ele>309.0</ele><time>2026-04-11T15:10:11.017Z</time></trkpt><trkpt lat="46.1657671" lon="9.9396397"><ele>309.0</ele><time>2026-04-11T15:10:12.016Z</time></trkpt><trkpt lat="46.1658203" lon="9.9394259"><ele>309.0</ele><time>2026-04-11T15:10:13.017Z</time></trkpt><trkpt lat="46.1658723" lon="9.9392185"><ele>308.0</ele><time>2026-04-11T15:10:14.017Z</time></trkpt><trkpt lat="46.1659239" lon="9.9390154"><ele>307.0</ele><time>2026-04-11T15:10:15.017Z</time></trkpt><trkpt lat="46.1659756" lon="9.9388143"><ele>306.0</ele><time>2026-04-11T15:10:16.017Z</time></trkpt><trkpt lat="46.1660248" lon="9.938612"><ele>305.0</ele><time>2026-04-11T15:10:17.016Z</time></trkpt><trkpt lat="46.1660757" lon="9.9384052"><ele>304.33333333333337</ele><time>2026-04-11T15:10:18.017Z</time></trkpt><trkpt lat="46.1661276" lon="9.9381964"><ele>303.6666666666667</ele><time>2026-04-11T15:10:19.017Z</time></trkpt><trkpt lat="46.1661796" lon="9.9379876"><ele>303.0</ele><time>2026-04-11T15:10:20.017Z</time></trkpt><trkpt lat="46.1662316" lon="9.9377822"><ele>303.0</ele><time>2026-04-11T15:10:21.016Z</time></trkpt><trkpt lat="46.1662823" lon="9.9375801"><ele>303.0</ele><time>2026-04-11T15:10:22.017Z</time></trkpt><trkpt lat="46.1663316" lon="9.9373828"><ele>303.0</ele><time>2026-04-11T15:10:23.017Z</time></trkpt><trkpt lat="46.1663808" lon="9.9371877"><ele>303.0</ele><time>2026-04-11T15:10:24.017Z</time></trkpt><trkpt lat="46.166431" lon="9.9369883"><ele>302.5</ele><time>2026-04-11T15:10:25.017Z</time></trkpt><trkpt lat="46.1664812" lon="9.9367878"><ele>302.0</ele><time>2026-04-11T15:10:26.017Z</time></trkpt><trkpt lat="46.1665308" lon="9.9365863"><ele>301.5</ele><time>2026-04-11T15:10:27.017Z</time></trkpt><trkpt lat="46.1665798" lon="9.9363861"><ele>301.0</ele><time>2026-04-11T15:10:28.017Z</time></trkpt><trkpt lat="46.1666306" lon="9.9361911"><ele>300.75</ele><time>2026-04-11T15:10:29.017Z</time></trkpt><trkpt lat="46.1666784" lon="9.9360045"><ele>300.5</ele><time>2026-04-11T15:10:30.017Z</time></trkpt><trkpt lat="46.1667252" lon="9.935829"><ele>300.25</ele><time>2026-04-11T15:10:31.017Z</time></trkpt><trkpt lat="46.1667711" lon="9.9356619"><ele>300.0</ele><time>2026-04-11T15:10:32.017Z</time></trkpt><trkpt lat="46.1668119" lon="9.935503"><ele>299.5</ele><time>2026-04-11T15:10:33.017Z</time></trkpt><trkpt lat="46.1668475" lon="9.9353501"><ele>299.0</ele><time>2026-04-11T15:10:34.017Z</time></trkpt><trkpt lat="46.1668841" lon="9.9352016"><ele>298.5</ele><time>2026-04-11T15:10:35.017Z</time></trkpt><trkpt lat="46.1669276" lon="9.9350307"><ele>298.0</ele><time>2026-04-11T15:10:36.017Z</time></trkpt><trkpt lat="46.1669695" lon="9.93486"><ele>297.75</ele><time>2026-04-11T15:10:37.017Z</time></trkpt><trkpt lat="46.1670133" lon="9.934677"><ele>297.5</ele><time>2026-04-11T15:10:38.017Z</time></trkpt><trkpt lat="46.1670615" lon="9.9344829"><ele>297.25</ele><time>2026-04-11T15:10:39.016Z</time></trkpt><trkpt lat="46.1671049" lon="9.9343005"><ele>297.0</ele><time>2026-04-11T15:10:40.017Z</time></trkpt><trkpt lat="46.1671486" lon="9.9341354"><ele>297.0</ele><time>2026-04-11T15:10:41.017Z</time></trkpt><trkpt lat="46.1671881" lon="9.9339801"><ele>297.0</ele><time>2026-04-11T15:10:42.017Z</time></trkpt><trkpt lat="46.1672263" lon="9.9338238"><ele>297.0</ele><time>2026-04-11T15:10:43.017Z</time></trkpt><trkpt lat="46.1672679" lon="9.9336538"><ele>297.0</ele><time>2026-04-11T15:10:44.017Z</time></trkpt><trkpt lat="46.1673123" lon="9.9334854"><ele>297.2</ele><time>2026-04-11T15:10:45.017Z</time></trkpt><trkpt lat="46.1673505" lon="9.9333272"><ele>297.4</ele><time>2026-04-11T15:10:46.017Z</time></trkpt><trkpt lat="46.1673817" lon="9.9331785"><ele>297.6</ele><time>2026-04-11T15:10:47.017Z</time></trkpt><trkpt lat="46.1674106" lon="9.9330379"><ele>297.8</ele><time>2026-04-11T15:10:48.017Z</time></trkpt><trkpt lat="46.1674387" lon="9.9329041"><ele>298.0</ele><time>2026-04-11T15:10:49.017Z</time></trkpt><trkpt lat="46.1674642" lon="9.9327773"><ele>298.0</ele><time>2026-04-11T15:10:50.017Z</time></trkpt><trkpt lat="46.1674874" lon="9.9326619"><ele>298.0</ele><time>2026-04-11T15:10:51.017Z</time></trkpt><trkpt lat="46.1675116" lon="9.9325676"><ele>298.0</ele><time>2026-04-11T15:10:52.017Z</time></trkpt><trkpt lat="46.1675897" lon="9.9324533"><ele>298.0</ele><time>2026-04-11T15:10:54.016Z</time></trkpt><trkpt lat="46.1676382" lon="9.9323867"><ele>298.0</ele><time>2026-04-11T15:10:55.017Z</time></trkpt><trkpt lat="46.1676454" lon="9.9321989"><ele>298.16666666666663</ele><time>2026-04-11T15:10:57.017Z</time></trkpt><trkpt lat="46.1676497" lon="9.9320917"><ele>298.3333333333333</ele><time>2026-04-11T15:10:58.017Z</time></trkpt><trkpt lat="46.1676703" lon="9.9319872"><ele>298.5</ele><time>2026-04-11T15:10:59.016Z</time></trkpt><trkpt lat="46.1677033" lon="9.9318741"><ele>298.6666666666667</ele><time>2026-04-11T15:11:00.017Z</time></trkpt><trkpt lat="46.1677347" lon="9.9317656"><ele>298.83333333333337</ele><time>2026-04-11T15:11:01.017Z</time></trkpt><trkpt lat="46.1677591" lon="9.931663"><ele>299.0</ele><time>2026-04-11T15:11:02.017Z</time></trkpt><trkpt lat="46.1677884" lon="9.9315482"><ele>299.0</ele><time>2026-04-11T15:11:03.017Z</time></trkpt><trkpt lat="46.1678225" lon="9.9314279"><ele>299.0</ele><time>2026-04-11T15:11:04.017Z</time></trkpt><trkpt lat="46.1678573" lon="9.9313123"><ele>299.0</ele><time>2026-04-11T15:11:05.017Z</time></trkpt><trkpt lat="46.1678863" lon="9.9311874"><ele>299.0</ele><time>2026-04-11T15:11:06.016Z</time></trkpt><trkpt lat="46.167918" lon="9.9310607"><ele>299.0</ele><time>2026-04-11T15:11:07.017Z</time></trkpt><trkpt lat="46.167947" lon="9.9309338"><ele>299.0</ele><time>2026-04-11T15:11:08.017Z</time></trkpt><trkpt lat="46.1679778" lon="9.9308079"><ele>299.0</ele><time>2026-04-11T15:11:09.017Z</time></trkpt><trkpt lat="46.1680078" lon="9.930671"><ele>299.0</ele><time>2026-04-11T15:11:10.017Z</time></trkpt><trkpt lat="46.1680407" lon="9.9305307"><ele>299.0</ele><time>2026-04-11T15:11:11.017Z</time></trkpt><trkpt lat="46.1680775" lon="9.9303854"><ele>299.0</ele><time>2026-04-11T15:11:12.017Z</time></trkpt><trkpt lat="46.1681195" lon="9.930228"><ele>299.0</ele><time>2026-04-11T15:11:13.016Z</time></trkpt><trkpt lat="46.1681597" lon="9.9300714"><ele>299.0</ele><time>2026-04-11T15:11:14.017Z</time></trkpt><trkpt lat="46.1681996" lon="9.9299088"><ele>299.0</ele><time>2026-04-11T15:11:15.017Z</time></trkpt><trkpt lat="46.1682433" lon="9.9297373"><ele>299.0</ele><time>2026-04-11T15:11:16.017Z</time></trkpt><trkpt lat="46.1682867" lon="9.9295617"><ele>299.5</ele><time>2026-04-11T15:11:17.017Z</time></trkpt><trkpt lat="46.1683148" lon="9.929386"><ele>300.0</ele><time>2026-04-11T15:11:18.016Z</time></trkpt><trkpt lat="46.1683404" lon="9.9292126"><ele>300.5</ele><time>2026-04-11T15:11:19.017Z</time></trkpt><trkpt lat="46.168357" lon="9.9290269"><ele>301.0</ele><time>2026-04-11T15:11:20.017Z</time></trkpt><trkpt lat="46.1683744" lon="9.9288324"><ele>301.0</ele><time>2026-04-11T15:11:21.017Z</time></trkpt><trkpt lat="46.1683827" lon="9.9286302"><ele>301.0</ele><time>2026-04-11T15:11:22.017Z</time></trkpt><trkpt lat="46.1683877" lon="9.9284302"><ele>301.0</ele><time>2026-04-11T15:11:23.017Z</time></trkpt><trkpt lat="46.1683913" lon="9.9282247"><ele>301.0</ele><time>2026-04-11T15:11:24.017Z</time></trkpt><trkpt lat="46.1684016" lon="9.928013"><ele>300.66666666666663</ele><time>2026-04-11T15:11:25.017Z</time></trkpt><trkpt lat="46.1684066" lon="9.9278036"><ele>300.3333333333333</ele><time>2026-04-11T15:11:26.017Z</time></trkpt><trkpt lat="46.1684106" lon="9.9275854"><ele>300.0</ele><time>2026-04-11T15:11:27.017Z</time></trkpt><trkpt lat="46.1684166" lon="9.9273478"><ele>299.3333333333333</ele><time>2026-04-11T15:11:28.017Z</time></trkpt><trkpt lat="46.168419" lon="9.9271187"><ele>298.66666666666663</ele><time>2026-04-11T15:11:29.017Z</time></trkpt><trkpt lat="46.168428" lon="9.9269028"><ele>298.0</ele><time>2026-04-11T15:11:30.017Z</time></trkpt><trkpt lat="46.1684373" lon="9.9266969"><ele>297.5</ele><time>2026-04-11T15:11:31.017Z</time></trkpt><trkpt lat="46.1684548" lon="9.9265034"><ele>297.0</ele><time>2026-04-11T15:11:32.017Z</time></trkpt><trkpt lat="46.1684796" lon="9.926312"><ele>296.5</ele><time>2026-04-11T15:11:33.017Z</time></trkpt><trkpt lat="46.168507" lon="9.9261211"><ele>296.0</ele><time>2026-04-11T15:11:34.017Z</time></trkpt><trkpt lat="46.168543" lon="9.9259289"><ele>295.75</ele><time>2026-04-11T15:11:35.017Z</time></trkpt><trkpt lat="46.1685796" lon="9.9257288"><ele>295.5</ele><time>2026-04-11T15:11:36.017Z</time></trkpt><trkpt lat="46.1686182" lon="9.9255275"><ele>295.25</ele><time>2026-04-11T15:11:37.017Z</time></trkpt><trkpt lat="46.1686561" lon="9.9253241"><ele>295.0</ele><time>2026-04-11T15:11:38.017Z</time></trkpt><trkpt lat="46.168695" lon="9.925126"><ele>294.75</ele><time>2026-04-11T15:11:39.016Z</time></trkpt><trkpt lat="46.1687334" lon="9.924929"><ele>294.5</ele><time>2026-04-11T15:11:40.017Z</time></trkpt><trkpt lat="46.1687738" lon="9.9247396"><ele>294.25</ele><time>2026-04-11T15:11:41.017Z</time></trkpt><trkpt lat="46.168809" lon="9.9245503"><ele>294.0</ele><time>2026-04-11T15:11:42.017Z</time></trkpt><trkpt lat="46.1688432" lon="9.9243586"><ele>294.25</ele><time>2026-04-11T15:11:43.017Z</time></trkpt><trkpt lat="46.1688787" lon="9.9241674"><ele>294.5</ele><time>2026-04-11T15:11:44.017Z</time></trkpt><trkpt lat="46.1689123" lon="9.9239819"><ele>294.75</ele><time>2026-04-11T15:11:45.017Z</time></trkpt><trkpt lat="46.1689523" lon="9.9237937"><ele>295.0</ele><time>2026-04-11T15:11:46.017Z</time></trkpt><trkpt lat="46.1689875" lon="9.9236041"><ele>295.0</ele><time>2026-04-11T15:11:47.017Z</time></trkpt><trkpt lat="46.1690254" lon="9.9234084"><ele>295.0</ele><time>2026-04-11T15:11:48.017Z</time></trkpt><trkpt lat="46.1690661" lon="9.9232099"><ele>295.0</ele><time>2026-04-11T15:11:49.017Z</time></trkpt><trkpt lat="46.1691045" lon="9.9230039"><ele>295.0</ele><time>2026-04-11T15:11:50.016Z</time></trkpt><trkpt lat="46.169146" lon="9.9227949"><ele>294.5</ele><time>2026-04-11T15:11:51.017Z</time></trkpt><trkpt lat="46.1691868" lon="9.9225908"><ele>294.0</ele><time>2026-04-11T15:11:52.017Z</time></trkpt><trkpt lat="46.1692302" lon="9.9223869"><ele>293.5</ele><time>2026-04-11T15:11:53.016Z</time></trkpt><trkpt lat="46.1692755" lon="9.9221783"><ele>293.0</ele><time>2026-04-11T15:11:54.016Z</time></trkpt><trkpt lat="46.1693124" lon="9.921968"><ele>293.0</ele><time>2026-04-11T15:11:55.017Z</time></trkpt><trkpt lat="46.1693511" lon="9.9217587"><ele>293.0</ele><time>2026-04-11T15:11:56.017Z</time></trkpt><trkpt lat="46.1693921" lon="9.9215424"><ele>293.0</ele><time>2026-04-11T15:11:57.016Z</time></trkpt><trkpt lat="46.169434" lon="9.9213335"><ele>293.0</ele><time>2026-04-11T15:11:58.017Z</time></trkpt><trkpt lat="46.1694728" lon="9.9211263"><ele>293.0</ele><time>2026-04-11T15:11:59.017Z</time></trkpt><trkpt lat="46.1695169" lon="9.9209176"><ele>293.0</ele><time>2026-04-11T15:12:00.017Z</time></trkpt><trkpt lat="46.1695592" lon="9.9207158"><ele>293.0</ele><time>2026-04-11T15:12:01.017Z</time></trkpt><trkpt lat="46.1696031" lon="9.9205049"><ele>293.0</ele><time>2026-04-11T15:12:02.016Z</time></trkpt><trkpt lat="46.1696429" lon="9.9202924"><ele>293.0</ele><time>2026-04-11T15:12:03.017Z</time></trkpt><trkpt lat="46.1696844" lon="9.9200803"><ele>293.0</ele><time>2026-04-11T15:12:04.017Z</time></trkpt><trkpt lat="46.1697292" lon="9.9198708"><ele>293.0</ele><time>2026-04-11T15:12:05.016Z</time></trkpt><trkpt lat="46.1697685" lon="9.9196607"><ele>293.0</ele><time>2026-04-11T15:12:06.017Z</time></trkpt><trkpt lat="46.1698071" lon="9.9194557"><ele>293.0</ele><time>2026-04-11T15:12:07.017Z</time></trkpt><trkpt lat="46.1698446" lon="9.9192447"><ele>293.0</ele><time>2026-04-11T15:12:08.016Z</time></trkpt><trkpt lat="46.1698856" lon="9.9190335"><ele>292.75</ele><time>2026-04-11T15:12:09.017Z</time></trkpt><trkpt lat="46.1699239" lon="9.918828"><ele>292.5</ele><time>2026-04-11T15:12:10.017Z</time></trkpt><trkpt lat="46.1699572" lon="9.9186238"><ele>292.25</ele><time>2026-04-11T15:12:11.017Z</time></trkpt><trkpt lat="46.1699915" lon="9.9184246"><ele>292.0</ele><time>2026-04-11T15:12:12.017Z</time></trkpt><trkpt lat="46.1700315" lon="9.9182287"><ele>292.0</ele><time>2026-04-11T15:12:13.017Z</time></trkpt><trkpt lat="46.170069" lon="9.9180322"><ele>292.0</ele><time>2026-04-11T15:12:14.017Z</time></trkpt><trkpt lat="46.1701088" lon="9.9178442"><ele>292.0</ele><time>2026-04-11T15:12:15.017Z</time></trkpt><trkpt lat="46.1701474" lon="9.9176534"><ele>292.0</ele><time>2026-04-11T15:12:16.017Z</time></trkpt><trkpt lat="46.1701881" lon="9.9174693"><ele>292.0</ele><time>2026-04-11T15:12:17.017Z</time></trkpt><trkpt lat="46.1702251" lon="9.9172761"><ele>292.0</ele><time>2026-04-11T15:12:18.017Z</time></trkpt><trkpt lat="46.1702616" lon="9.9170829"><ele>292.0</ele><time>2026-04-11T15:12:19.017Z</time></trkpt><trkpt lat="46.1702952" lon="9.9168965"><ele>292.0</ele><time>2026-04-11T15:12:20.017Z</time></trkpt><trkpt lat="46.170331" lon="9.9167099"><ele>292.0</ele><time>2026-04-11T15:12:21.017Z</time></trkpt><trkpt lat="46.170371" lon="9.9165182"><ele>292.0</ele><time>2026-04-11T15:12:22.017Z</time></trkpt><trkpt lat="46.1704039" lon="9.916323"><ele>292.0</ele><time>2026-04-11T15:12:23.017Z</time></trkpt><trkpt lat="46.1704334" lon="9.916122"><ele>292.0</ele><time>2026-04-11T15:12:24.017Z</time></trkpt><trkpt lat="46.1704606" lon="9.9159207"><ele>291.75</ele><time>2026-04-11T15:12:25.017Z</time></trkpt><trkpt lat="46.1704854" lon="9.9157148"><ele>291.5</ele><time>2026-04-11T15:12:26.017Z</time></trkpt><trkpt lat="46.1705058" lon="9.915506"><ele>291.25</ele><time>2026-04-11T15:12:27.017Z</time></trkpt><trkpt lat="46.1705116" lon="9.9152885"><ele>291.0</ele><time>2026-04-11T15:12:28.017Z</time></trkpt><trkpt lat="46.1705206" lon="9.9150782"><ele>291.0</ele><time>2026-04-11T15:12:29.017Z</time></trkpt><trkpt lat="46.170525" lon="9.9148676"><ele>291.0</ele><time>2026-04-11T15:12:30.017Z</time></trkpt><trkpt lat="46.170522" lon="9.9146549"><ele>291.0</ele><time>2026-04-11T15:12:31.017Z</time></trkpt><trkpt lat="46.170516" lon="9.9144457"><ele>291.0</ele><time>2026-04-11T15:12:32.017Z</time></trkpt><trkpt lat="46.1705095" lon="9.9142438"><ele>290.75</ele><time>2026-04-11T15:12:33.017Z</time></trkpt><trkpt lat="46.1704959" lon="9.9140342"><ele>290.5</ele><time>2026-04-11T15:12:34.017Z</time></trkpt><trkpt lat="46.1704815" lon="9.9138304"><ele>290.25</ele><time>2026-04-11T15:12:35.017Z</time></trkpt><trkpt lat="46.1704594" lon="9.9136282"><ele>290.0</ele><time>2026-04-11T15:12:36.016Z</time></trkpt><trkpt lat="46.1704334" lon="9.9134282"><ele>290.0</ele><time>2026-04-11T15:12:37.017Z</time></trkpt><trkpt lat="46.1704122" lon="9.9132366"><ele>290.0</ele><time>2026-04-11T15:12:38.017Z</time></trkpt><trkpt lat="46.1703889" lon="9.9130476"><ele>290.0</ele><time>2026-04-11T15:12:39.017Z</time></trkpt><trkpt lat="46.1703709" lon="9.912857"><ele>290.0</ele><time>2026-04-11T15:12:40.017Z</time></trkpt><trkpt lat="46.1703495" lon="9.9126816"><ele>290.25</ele><time>2026-04-11T15:12:41.017Z</time></trkpt><trkpt lat="46.1703327" lon="9.9125056"><ele>290.5</ele><time>2026-04-11T15:12:42.016Z</time></trkpt><trkpt lat="46.1703143" lon="9.9123295"><ele>290.75</ele><time>2026-04-11T15:12:43.017Z</time></trkpt><trkpt lat="46.1702956" lon="9.9121492"><ele>291.0</ele><time>2026-04-11T15:12:44.017Z</time></trkpt><trkpt lat="46.1702754" lon="9.9119785"><ele>291.0</ele><time>2026-04-11T15:12:45.017Z</time></trkpt><trkpt lat="46.1702558" lon="9.9118103"><ele>291.0</ele><time>2026-04-11T15:12:46.017Z</time></trkpt><trkpt lat="46.1702353" lon="9.91165"><ele>291.0</ele><time>2026-04-11T15:12:47.017Z</time></trkpt><trkpt lat="46.1702202" lon="9.9114821"><ele>291.0</ele><time>2026-04-11T15:12:48.017Z</time></trkpt><trkpt lat="46.1701986" lon="9.9113192"><ele>291.25</ele><time>2026-04-11T15:12:49.016Z</time></trkpt><trkpt lat="46.1701735" lon="9.9111527"><ele>291.5</ele><time>2026-04-11T15:12:50.017Z</time></trkpt><trkpt lat="46.1701522" lon="9.9109791"><ele>291.75</ele><time>2026-04-11T15:12:51.017Z</time></trkpt><trkpt lat="46.1701254" lon="9.9108124"><ele>292.0</ele><time>2026-04-11T15:12:52.017Z</time></trkpt><trkpt lat="46.1701054" lon="9.9106349"><ele>292.0</ele><time>2026-04-11T15:12:53.017Z</time></trkpt><trkpt lat="46.1700794" lon="9.9104539"><ele>292.0</ele><time>2026-04-11T15:12:54.017Z</time></trkpt><trkpt lat="46.170046" lon="9.9102814"><ele>292.0</ele><time>2026-04-11T15:12:55.016Z</time></trkpt><trkpt lat="46.1700076" lon="9.9101072"><ele>292.0</ele><time>2026-04-11T15:12:56.017Z</time></trkpt><trkpt lat="46.1699661" lon="9.9099337"><ele>291.75</ele><time>2026-04-11T15:12:57.016Z</time></trkpt><trkpt lat="46.1699158" lon="9.9097639"><ele>291.5</ele><time>2026-04-11T15:12:58.017Z</time></trkpt><trkpt lat="46.1698646" lon="9.9096008"><ele>291.25</ele><time>2026-04-11T15:12:59.017Z</time></trkpt><trkpt lat="46.1698153" lon="9.9094333"><ele>291.0</ele><time>2026-04-11T15:13:00.017Z</time></trkpt><trkpt lat="46.1697691" lon="9.9092704"><ele>291.75</ele><time>2026-04-11T15:13:01.017Z</time></trkpt><trkpt lat="46.1697246" lon="9.9091101"><ele>292.5</ele><time>2026-04-11T15:13:02.017Z</time></trkpt><trkpt lat="46.1696772" lon="9.9089499"><ele>293.25</ele><time>2026-04-11T15:13:03.017Z</time></trkpt><trkpt lat="46.1696293" lon="9.908788"><ele>294.0</ele><time>2026-04-11T15:13:04.017Z</time></trkpt><trkpt lat="46.1695777" lon="9.9086252"><ele>294.0</ele><time>2026-04-11T15:13:05.017Z</time></trkpt><trkpt lat="46.1695254" lon="9.9084596"><ele>294.0</ele><time>2026-04-11T15:13:06.017Z</time></trkpt><trkpt lat="46.1694718" lon="9.9082891"><ele>294.0</ele><time>2026-04-11T15:13:07.017Z</time></trkpt><trkpt lat="46.169417" lon="9.9081123"><ele>294.0</ele><time>2026-04-11T15:13:08.017Z</time></trkpt><trkpt lat="46.1693617" lon="9.9079406"><ele>294.25</ele><time>2026-04-11T15:13:09.017Z</time></trkpt><trkpt lat="46.1693096" lon="9.9077729"><ele>294.5</ele><time>2026-04-11T15:13:10.017Z</time></trkpt><trkpt lat="46.1692595" lon="9.9076105"><ele>294.75</ele><time>2026-04-11T15:13:11.016Z</time></trkpt><trkpt lat="46.1692175" lon="9.9074485"><ele>295.0</ele><time>2026-04-11T15:13:12.017Z</time></trkpt><trkpt lat="46.1691809" lon="9.9073027"><ele>295.2</ele><time>2026-04-11T15:13:13.017Z</time></trkpt><trkpt lat="46.169152" lon="9.9071511"><ele>295.4</ele><time>2026-04-11T15:13:14.017Z</time></trkpt><trkpt lat="46.169126" lon="9.9070012"><ele>295.6</ele><time>2026-04-11T15:13:15.017Z</time></trkpt><trkpt lat="46.1691079" lon="9.9068476"><ele>295.8</ele><time>2026-04-11T15:13:16.017Z</time></trkpt><trkpt lat="46.1690977" lon="9.906695"><ele>296.0</ele><time>2026-04-11T15:13:17.017Z</time></trkpt><trkpt lat="46.1690894" lon="9.9065419"><ele>296.0</ele><time>2026-04-11T15:13:18.016Z</time></trkpt><trkpt lat="46.1690937" lon="9.9063882"><ele>296.0</ele><time>2026-04-11T15:13:19.017Z</time></trkpt><trkpt lat="46.1691099" lon="9.9062332"><ele>296.0</ele><time>2026-04-11T15:13:20.017Z</time></trkpt><trkpt lat="46.1691383" lon="9.906086"><ele>296.0</ele><time>2026-04-11T15:13:21.017Z</time></trkpt><trkpt lat="46.1691618" lon="9.9059443"><ele>296.0</ele><time>2026-04-11T15:13:22.017Z</time></trkpt><trkpt lat="46.1691942" lon="9.9058008"><ele>296.0</ele><time>2026-04-11T15:13:23.017Z</time></trkpt><trkpt lat="46.1692327" lon="9.9056656"><ele>296.0</ele><time>2026-04-11T15:13:24.017Z</time></trkpt><trkpt lat="46.1692742" lon="9.9055343"><ele>296.0</ele><time>2026-04-11T15:13:25.017Z</time></trkpt><trkpt lat="46.1693186" lon="9.9054154"><ele>296.0</ele><time>2026-04-11T15:13:26.017Z</time></trkpt><trkpt lat="46.1693689" lon="9.9053066"><ele>296.0</ele><time>2026-04-11T15:13:27.017Z</time></trkpt><trkpt lat="46.1694151" lon="9.9052021"><ele>296.0</ele><time>2026-04-11T15:13:28.017Z</time></trkpt><trkpt lat="46.1694578" lon="9.9050982"><ele>296.0</ele><time>2026-04-11T15:13:29.016Z</time></trkpt><trkpt lat="46.1695069" lon="9.9049951"><ele>296.0</ele><time>2026-04-11T15:13:30.017Z</time></trkpt><trkpt lat="46.1695487" lon="9.9048892"><ele>296.0</ele><time>2026-04-11T15:13:31.016Z</time></trkpt><trkpt lat="46.1695956" lon="9.9047798"><ele>296.0</ele><time>2026-04-11T15:13:32.017Z</time></trkpt><trkpt lat="46.1696342" lon="9.904668"><ele>296.0</ele><time>2026-04-11T15:13:33.017Z</time></trkpt><trkpt lat="46.1696641" lon="9.904541"><ele>295.6</ele><time>2026-04-11T15:13:34.017Z</time></trkpt><trkpt lat="46.1696924" lon="9.9044288"><ele>295.20000000000005</ele><time>2026-04-11T15:13:35.017Z</time></trkpt><trkpt lat="46.1697317" lon="9.9043118"><ele>294.79999999999995</ele><time>2026-04-11T15:13:37.017Z</time></trkpt><trkpt lat="46.1697676" lon="9.9041775"><ele>294.4</ele><time>2026-04-11T15:13:39.017Z</time></trkpt><trkpt lat="46.1697678" lon="9.9040854"><ele>294.0</ele><time>2026-04-11T15:13:40.017Z</time></trkpt><trkpt lat="46.1696978" lon="9.9039544"><ele>293.59999999999997</ele><time>2026-04-11T15:13:42.016Z</time></trkpt><trkpt lat="46.1695697" lon="9.9039392"><ele>293.2</ele><time>2026-04-11T15:13:44.017Z</time></trkpt><trkpt lat="46.1694857" lon="9.90397"><ele>292.79999999999995</ele><time>2026-04-11T15:13:45.016Z</time></trkpt><trkpt lat="46.169394" lon="9.9039943"><ele>292.4</ele><time>2026-04-11T15:13:46.017Z</time></trkpt><trkpt lat="46.169302" lon="9.9039977"><ele>292.0</ele><time>2026-04-11T15:13:47.017Z</time></trkpt><trkpt lat="46.1692067" lon="9.9039909"><ele>292.0</ele><time>2026-04-11T15:13:48.017Z</time></trkpt><trkpt lat="46.1691099" lon="9.9039778"><ele>292.0</ele><time>2026-04-11T15:13:49.017Z</time></trkpt><trkpt lat="46.1690079" lon="9.9039529"><ele>292.0</ele><time>2026-04-11T15:13:50.017Z</time></trkpt><trkpt lat="46.168904" lon="9.9039203"><ele>292.0</ele><time>2026-04-11T15:13:51.016Z</time></trkpt><trkpt lat="46.1687973" lon="9.9038685"><ele>292.0</ele><time>2026-04-11T15:13:52.017Z</time></trkpt><trkpt lat="46.1686973" lon="9.9037983"><ele>291.6</ele><time>2026-04-11T15:13:53.017Z</time></trkpt><trkpt lat="46.1686142" lon="9.9037045"><ele>291.2</ele><time>2026-04-11T15:13:54.017Z</time></trkpt><trkpt lat="46.1685456" lon="9.9035819"><ele>290.8</ele><time>2026-04-11T15:13:55.017Z</time></trkpt><trkpt lat="46.168506" lon="9.9034449"><ele>290.4</ele><time>2026-04-11T15:13:56.017Z</time></trkpt><trkpt lat="46.1684873" lon="9.903278"><ele>290.0</ele><time>2026-04-11T15:13:57.017Z</time></trkpt><trkpt lat="46.1684636" lon="9.9031074"><ele>290.0</ele><time>2026-04-11T15:13:58.016Z</time></trkpt><trkpt lat="46.1684303" lon="9.9029251"><ele>290.0</ele><time>2026-04-11T15:13:59.017Z</time></trkpt><trkpt lat="46.1683846" lon="9.9027407"><ele>290.0</ele><time>2026-04-11T15:14:00.017Z</time></trkpt><trkpt lat="46.1683251" lon="9.9025555"><ele>290.0</ele><time>2026-04-11T15:14:01.017Z</time></trkpt><trkpt lat="46.1682452" lon="9.90237"><ele>290.0</ele><time>2026-04-11T15:14:02.016Z</time></trkpt><trkpt lat="46.1681559" lon="9.9021673"><ele>290.0</ele><time>2026-04-11T15:14:03.017Z</time></trkpt><trkpt lat="46.1680511" lon="9.9019682"><ele>290.0</ele><time>2026-04-11T15:14:04.017Z</time></trkpt><trkpt lat="46.1679502" lon="9.9017783"><ele>290.6666666666667</ele><time>2026-04-11T15:14:05.017Z</time></trkpt><trkpt lat="46.1678483" lon="9.9015787"><ele>291.3333333333333</ele><time>2026-04-11T15:14:06.017Z</time></trkpt><trkpt lat="46.1677546" lon="9.9013814"><ele>292.0</ele><time>2026-04-11T15:14:07.017Z</time></trkpt><trkpt lat="46.1676604" lon="9.9011847"><ele>292.0</ele><time>2026-04-11T15:14:08.017Z</time></trkpt><trkpt lat="46.1675669" lon="9.900993"><ele>292.0</ele><time>2026-04-11T15:14:09.017Z</time></trkpt><trkpt lat="46.1674667" lon="9.9008021"><ele>292.0</ele><time>2026-04-11T15:14:10.017Z</time></trkpt><trkpt lat="46.1673665" lon="9.9006102"><ele>292.3333333333333</ele><time>2026-04-11T15:14:11.016Z</time></trkpt><trkpt lat="46.167263" lon="9.9004232"><ele>292.6666666666667</ele><time>2026-04-11T15:14:12.017Z</time></trkpt><trkpt lat="46.1671653" lon="9.9002428"><ele>293.0</ele><time>2026-04-11T15:14:13.017Z</time></trkpt><trkpt lat="46.1670615" lon="9.9000618"><ele>293.6666666666667</ele><time>2026-04-11T15:14:14.017Z</time></trkpt><trkpt lat="46.1669567" lon="9.89988"><ele>294.3333333333333</ele><time>2026-04-11T15:14:15.017Z</time></trkpt><trkpt lat="46.1668585" lon="9.8996917"><ele>295.0</ele><time>2026-04-11T15:14:16.017Z</time></trkpt><trkpt lat="46.1667584" lon="9.8994983"><ele>295.0</ele><time>2026-04-11T15:14:17.017Z</time></trkpt><trkpt lat="46.1666604" lon="9.8993073"><ele>295.0</ele><time>2026-04-11T15:14:18.016Z</time></trkpt><trkpt lat="46.1665597" lon="9.8991052"><ele>295.0</ele><time>2026-04-11T15:14:19.017Z</time></trkpt><trkpt lat="46.1664567" lon="9.8989137"><ele>294.3333333333333</ele><time>2026-04-11T15:14:20.017Z</time></trkpt><trkpt lat="46.1663529" lon="9.8987213"><ele>293.6666666666667</ele><time>2026-04-11T15:14:21.017Z</time></trkpt><trkpt lat="46.1662461" lon="9.8985246"><ele>293.0</ele><time>2026-04-11T15:14:22.017Z</time></trkpt><trkpt lat="46.1661401" lon="9.8983246"><ele>292.6666666666667</ele><time>2026-04-11T15:14:23.017Z</time></trkpt><trkpt lat="46.1660338" lon="9.8981226"><ele>292.3333333333333</ele><time>2026-04-11T15:14:24.017Z</time></trkpt><trkpt lat="46.1659294" lon="9.8979281"><ele>292.0</ele><time>2026-04-11T15:14:25.017Z</time></trkpt><trkpt lat="46.1658177" lon="9.897724"><ele>292.0</ele><time>2026-04-11T15:14:26.017Z</time></trkpt><trkpt lat="46.1657107" lon="9.8975315"><ele>292.0</ele><time>2026-04-11T15:14:27.017Z</time></trkpt><trkpt lat="46.1655984" lon="9.8973475"><ele>292.0</ele><time>2026-04-11T15:14:28.017Z</time></trkpt><trkpt lat="46.1654842" lon="9.8971612"><ele>292.0</ele><time>2026-04-11T15:14:29.017Z</time></trkpt><trkpt lat="46.1653689" lon="9.8969848"><ele>292.0</ele><time>2026-04-11T15:14:30.017Z</time></trkpt><trkpt lat="46.1652534" lon="9.8967984"><ele>292.0</ele><time>2026-04-11T15:14:31.016Z</time></trkpt><trkpt lat="46.1651376" lon="9.8966201"><ele>291.66666666666663</ele><time>2026-04-11T15:14:32.016Z</time></trkpt><trkpt lat="46.1650231" lon="9.8964479"><ele>291.3333333333333</ele><time>2026-04-11T15:14:33.016Z</time></trkpt><trkpt lat="46.164903" lon="9.8962758"><ele>291.0</ele><time>2026-04-11T15:14:34.016Z</time></trkpt><trkpt lat="46.1647828" lon="9.8961052"><ele>291.0</ele><time>2026-04-11T15:14:35.016Z</time></trkpt><trkpt lat="46.1646595" lon="9.8959421"><ele>291.0</ele><time>2026-04-11T15:14:36.016Z</time></trkpt><trkpt lat="46.1645365" lon="9.8957827"><ele>291.0</ele><time>2026-04-11T15:14:37.017Z</time></trkpt><trkpt lat="46.1644142" lon="9.8956207"><ele>291.6666666666667</ele><time>2026-04-11T15:14:38.017Z</time></trkpt><trkpt lat="46.1642888" lon="9.8954565"><ele>292.33333333333337</ele><time>2026-04-11T15:14:39.017Z</time></trkpt><trkpt lat="46.1641522" lon="9.8952814"><ele>293.0</ele><time>2026-04-11T15:14:40.017Z</time></trkpt><trkpt lat="46.1639906" lon="9.8950773"><ele>293.0</ele><time>2026-04-11T15:14:41.017Z</time></trkpt><trkpt lat="46.1638257" lon="9.8948704"><ele>293.0</ele><time>2026-04-11T15:14:42.017Z</time></trkpt><trkpt lat="46.1636562" lon="9.8946467"><ele>293.0</ele><time>2026-04-11T15:14:43.017Z</time></trkpt><trkpt lat="46.1634901" lon="9.8944309"><ele>293.33333333333337</ele><time>2026-04-11T15:14:44.016Z</time></trkpt><trkpt lat="46.1633432" lon="9.8942262"><ele>293.6666666666667</ele><time>2026-04-11T15:14:45.017Z</time></trkpt><trkpt lat="46.1632052" lon="9.8940208"><ele>294.0</ele><time>2026-04-11T15:14:46.017Z</time></trkpt><trkpt lat="46.1630839" lon="9.8938175"><ele>294.0</ele><time>2026-04-11T15:14:47.017Z</time></trkpt><trkpt lat="46.1629718" lon="9.8936272"><ele>294.0</ele><time>2026-04-11T15:14:48.017Z</time></trkpt><trkpt lat="46.162864" lon="9.8934301"><ele>294.0</ele><time>2026-04-11T15:14:49.017Z</time></trkpt><trkpt lat="46.1627648" lon="9.8932394"><ele>292.6666666666667</ele><time>2026-04-11T15:14:50.017Z</time></trkpt><trkpt lat="46.1626681" lon="9.8930373"><ele>291.33333333333337</ele><time>2026-04-11T15:14:51.016Z</time></trkpt><trkpt lat="46.1625721" lon="9.892832"><ele>290.0</ele><time>2026-04-11T15:14:52.017Z</time></trkpt><trkpt lat="46.1624838" lon="9.8926222"><ele>290.0</ele><time>2026-04-11T15:14:53.017Z</time></trkpt><trkpt lat="46.1624015" lon="9.892413"><ele>290.0</ele><time>2026-04-11T15:14:54.017Z</time></trkpt><trkpt lat="46.1623256" lon="9.8922034"><ele>290.0</ele><time>2026-04-11T15:14:55.017Z</time></trkpt><trkpt lat="46.1622553" lon="9.8919875"><ele>289.6666666666667</ele><time>2026-04-11T15:14:56.017Z</time></trkpt><trkpt lat="46.1621852" lon="9.8917649"><ele>289.3333333333333</ele><time>2026-04-11T15:14:57.017Z</time></trkpt><trkpt lat="46.1621225" lon="9.8915402"><ele>289.0</ele><time>2026-04-11T15:14:58.017Z</time></trkpt><trkpt lat="46.1620674" lon="9.8913053"><ele>289.0</ele><time>2026-04-11T15:14:59.017Z</time></trkpt><trkpt lat="46.1620177" lon="9.8910727"><ele>289.0</ele><time>2026-04-11T15:15:00.016Z</time></trkpt><trkpt lat="46.161975" lon="9.8908381"><ele>289.0</ele><time>2026-04-11T15:15:01.016Z</time></trkpt><trkpt lat="46.1619387" lon="9.8905901"><ele>289.0</ele><time>2026-04-11T15:15:02.017Z</time></trkpt><trkpt lat="46.1619087" lon="9.8903357"><ele>289.0</ele><time>2026-04-11T15:15:03.017Z</time></trkpt><trkpt lat="46.1618827" lon="9.8900753"><ele>289.0</ele><time>2026-04-11T15:15:04.017Z</time></trkpt><trkpt lat="46.1618587" lon="9.8898079"><ele>289.3333333333333</ele><time>2026-04-11T15:15:05.017Z</time></trkpt><trkpt lat="46.1618392" lon="9.8895368"><ele>289.6666666666667</ele><time>2026-04-11T15:15:06.017Z</time></trkpt><trkpt lat="46.1618211" lon="9.8892652"><ele>290.0</ele><time>2026-04-11T15:15:07.017Z</time></trkpt><trkpt lat="46.161801" lon="9.8889955"><ele>289.33333333333337</ele><time>2026-04-11T15:15:08.017Z</time></trkpt><trkpt lat="46.1617835" lon="9.8887322"><ele>288.6666666666667</ele><time>2026-04-11T15:15:09.016Z</time></trkpt><trkpt lat="46.1617613" lon="9.8884765"><ele>288.0</ele><time>2026-04-11T15:15:10.017Z</time></trkpt><trkpt lat="46.1617394" lon="9.888223"><ele>288.0</ele><time>2026-04-11T15:15:11.017Z</time></trkpt><trkpt lat="46.1617201" lon="9.8879746"><ele>288.0</ele><time>2026-04-11T15:15:12.017Z</time></trkpt><trkpt lat="46.1617018" lon="9.8877258"><ele>288.0</ele><time>2026-04-11T15:15:13.017Z</time></trkpt><trkpt lat="46.1616804" lon="9.8874714"><ele>288.0</ele><time>2026-04-11T15:15:14.017Z</time></trkpt><trkpt lat="46.1616634" lon="9.8872153"><ele>288.0</ele><time>2026-04-11T15:15:15.017Z</time></trkpt><trkpt lat="46.1616476" lon="9.8869668"><ele>288.0</ele><time>2026-04-11T15:15:16.016Z</time></trkpt><trkpt lat="46.1616309" lon="9.8867174"><ele>288.0</ele><time>2026-04-11T15:15:17.016Z</time></trkpt><trkpt lat="46.1616157" lon="9.8864785"><ele>288.0</ele><time>2026-04-11T15:15:18.017Z</time></trkpt><trkpt lat="46.1615985" lon="9.8862452"><ele>288.0</ele><time>2026-04-11T15:15:19.017Z</time></trkpt><trkpt lat="46.1615856" lon="9.8860053"><ele>288.0</ele><time>2026-04-11T15:15:20.017Z</time></trkpt><trkpt lat="46.1615743" lon="9.8857733"><ele>288.0</ele><time>2026-04-11T15:15:21.017Z</time></trkpt><trkpt lat="46.1615719" lon="9.8855394"><ele>288.0</ele><time>2026-04-11T15:15:22.017Z</time></trkpt><trkpt lat="46.1615709" lon="9.8853053"><ele>287.6666666666667</ele><time>2026-04-11T15:15:23.017Z</time></trkpt><trkpt lat="46.1615763" lon="9.8850708"><ele>287.33333333333337</ele><time>2026-04-11T15:15:24.016Z</time></trkpt><trkpt lat="46.1615901" lon="9.88484"><ele>287.0</ele><time>2026-04-11T15:15:25.017Z</time></trkpt><trkpt lat="46.1616088" lon="9.8846048"><ele>287.0</ele><time>2026-04-11T15:15:26.017Z</time></trkpt><trkpt lat="46.1616355" lon="9.8843667"><ele>287.0</ele><time>2026-04-11T15:15:27.017Z</time></trkpt><trkpt lat="46.1616638" lon="9.8841281"><ele>287.0</ele><time>2026-04-11T15:15:28.017Z</time></trkpt><trkpt lat="46.1616964" lon="9.883896"><ele>287.33333333333337</ele><time>2026-04-11T15:15:29.017Z</time></trkpt><trkpt lat="46.1617359" lon="9.8836689"><ele>287.6666666666667</ele><time>2026-04-11T15:15:30.017Z</time></trkpt><trkpt lat="46.1617821" lon="9.8834454"><ele>288.0</ele><time>2026-04-11T15:15:31.016Z</time></trkpt><trkpt lat="46.1618379" lon="9.8832223"><ele>288.3333333333333</ele><time>2026-04-11T15:15:32.017Z</time></trkpt><trkpt lat="46.1618941" lon="9.8829978"><ele>288.66666666666663</ele><time>2026-04-11T15:15:33.017Z</time></trkpt><trkpt lat="46.1619572" lon="9.8827788"><ele>289.0</ele><time>2026-04-11T15:15:34.017Z</time></trkpt><trkpt lat="46.162021" lon="9.8825621"><ele>289.0</ele><time>2026-04-11T15:15:35.017Z</time></trkpt><trkpt lat="46.1620791" lon="9.8823521"><ele>289.0</ele><time>2026-04-11T15:15:36.017Z</time></trkpt><trkpt lat="46.1621401" lon="9.882144"><ele>289.0</ele><time>2026-04-11T15:15:37.017Z</time></trkpt><trkpt lat="46.1622012" lon="9.8819427"><ele>288.66666666666663</ele><time>2026-04-11T15:15:38.017Z</time></trkpt><trkpt lat="46.1622629" lon="9.8817406"><ele>288.3333333333333</ele><time>2026-04-11T15:15:39.017Z</time></trkpt><trkpt lat="46.1623252" lon="9.8815342"><ele>288.0</ele><time>2026-04-11T15:15:40.017Z</time></trkpt><trkpt lat="46.1623818" lon="9.8813299"><ele>288.0</ele><time>2026-04-11T15:15:41.017Z</time></trkpt><trkpt lat="46.1624333" lon="9.8811147"><ele>288.0</ele><time>2026-04-11T15:15:42.017Z</time></trkpt><trkpt lat="46.1624849" lon="9.8808904"><ele>288.0</ele><time>2026-04-11T15:15:43.017Z</time></trkpt><trkpt lat="46.1625338" lon="9.8806611"><ele>288.6666666666667</ele><time>2026-04-11T15:15:44.017Z</time></trkpt><trkpt lat="46.1625801" lon="9.8804273"><ele>289.33333333333337</ele><time>2026-04-11T15:15:45.017Z</time></trkpt><trkpt lat="46.1626175" lon="9.8801891"><ele>290.0</ele><time>2026-04-11T15:15:46.016Z</time></trkpt><trkpt lat="46.1626397" lon="9.8799512"><ele>290.0</ele><time>2026-04-11T15:15:47.016Z</time></trkpt><trkpt lat="46.1626611" lon="9.8797048"><ele>290.0</ele><time>2026-04-11T15:15:48.017Z</time></trkpt><trkpt lat="46.1626673" lon="9.879451"><ele>290.0</ele><time>2026-04-11T15:15:49.017Z</time></trkpt><trkpt lat="46.1626707" lon="9.879191"><ele>290.0</ele><time>2026-04-11T15:15:50.017Z</time></trkpt><trkpt lat="46.1626674" lon="9.8789298"><ele>290.0</ele><time>2026-04-11T15:15:51.017Z</time></trkpt><trkpt lat="46.1626553" lon="9.8786715"><ele>290.0</ele><time>2026-04-11T15:15:52.017Z</time></trkpt><trkpt lat="46.1626351" lon="9.8784068"><ele>289.6666666666667</ele><time>2026-04-11T15:15:53.017Z</time></trkpt><trkpt lat="46.1626062" lon="9.8781372"><ele>289.3333333333333</ele><time>2026-04-11T15:15:54.017Z</time></trkpt><trkpt lat="46.1625658" lon="9.8778701"><ele>289.0</ele><time>2026-04-11T15:15:55.017Z</time></trkpt><trkpt lat="46.1625112" lon="9.8776209"><ele>288.66666666666663</ele><time>2026-04-11T15:15:56.017Z</time></trkpt><trkpt lat="46.1624512" lon="9.8773753"><ele>288.3333333333333</ele><time>2026-04-11T15:15:57.017Z</time></trkpt><trkpt lat="46.1623815" lon="9.8771366"><ele>288.0</ele><time>2026-04-11T15:15:58.017Z</time></trkpt><trkpt lat="46.1623106" lon="9.8769048"><ele>287.3333333333333</ele><time>2026-04-11T15:15:59.017Z</time></trkpt><trkpt lat="46.1622289" lon="9.8766733"><ele>286.66666666666663</ele><time>2026-04-11T15:16:00.017Z</time></trkpt><trkpt lat="46.1621433" lon="9.8764439"><ele>286.0</ele><time>2026-04-11T15:16:01.017Z</time></trkpt><trkpt lat="46.1620528" lon="9.8762231"><ele>286.0</ele><time>2026-04-11T15:16:02.017Z</time></trkpt><trkpt lat="46.1619557" lon="9.8760077"><ele>286.0</ele><time>2026-04-11T15:16:03.017Z</time></trkpt><trkpt lat="46.1618576" lon="9.8757961"><ele>286.0</ele><time>2026-04-11T15:16:04.017Z</time></trkpt><trkpt lat="46.1617685" lon="9.8755785"><ele>286.0</ele><time>2026-04-11T15:16:05.017Z</time></trkpt><trkpt lat="46.1616783" lon="9.8753673"><ele>286.0</ele><time>2026-04-11T15:16:06.016Z</time></trkpt><trkpt lat="46.161596" lon="9.8751619"><ele>286.0</ele><time>2026-04-11T15:16:07.017Z</time></trkpt><trkpt lat="46.1615109" lon="9.8749562"><ele>286.0</ele><time>2026-04-11T15:16:08.017Z</time></trkpt><trkpt lat="46.1614254" lon="9.8747552"><ele>286.0</ele><time>2026-04-11T15:16:09.017Z</time></trkpt><trkpt lat="46.1613412" lon="9.8745617"><ele>286.0</ele><time>2026-04-11T15:16:10.017Z</time></trkpt><trkpt lat="46.1612551" lon="9.8743704"><ele>286.3333333333333</ele><time>2026-04-11T15:16:11.017Z</time></trkpt><trkpt lat="46.1611619" lon="9.8741752"><ele>286.6666666666667</ele><time>2026-04-11T15:16:12.016Z</time></trkpt><trkpt lat="46.1610711" lon="9.8739773"><ele>287.0</ele><time>2026-04-11T15:16:13.017Z</time></trkpt><trkpt lat="46.1609835" lon="9.8737726"><ele>287.0</ele><time>2026-04-11T15:16:14.017Z</time></trkpt><trkpt lat="46.1608958" lon="9.8735621"><ele>287.0</ele><time>2026-04-11T15:16:15.017Z</time></trkpt><trkpt lat="46.1608058" lon="9.8733504"><ele>287.0</ele><time>2026-04-11T15:16:16.017Z</time></trkpt><trkpt lat="46.1607137" lon="9.8731401"><ele>287.33333333333337</ele><time>2026-04-11T15:16:17.017Z</time></trkpt><trkpt lat="46.1606218" lon="9.8729332"><ele>287.6666666666667</ele><time>2026-04-11T15:16:18.016Z</time></trkpt><trkpt lat="46.1605284" lon="9.8727276"><ele>288.0</ele><time>2026-04-11T15:16:19.017Z</time></trkpt><trkpt lat="46.1604354" lon="9.8725153"><ele>288.6666666666667</ele><time>2026-04-11T15:16:20.017Z</time></trkpt><trkpt lat="46.1603437" lon="9.8723035"><ele>289.33333333333337</ele><time>2026-04-11T15:16:21.017Z</time></trkpt><trkpt lat="46.1602534" lon="9.8720872"><ele>290.0</ele><time>2026-04-11T15:16:22.017Z</time></trkpt><trkpt lat="46.1601636" lon="9.8718493"><ele>289.33333333333337</ele><time>2026-04-11T15:16:23.017Z</time></trkpt><trkpt lat="46.1600716" lon="9.8716005"><ele>288.6666666666667</ele><time>2026-04-11T15:16:24.017Z</time></trkpt><trkpt lat="46.1599763" lon="9.8713371"><ele>288.0</ele><time>2026-04-11T15:16:25.016Z</time></trkpt><trkpt lat="46.1598905" lon="9.8710633"><ele>288.3333333333333</ele><time>2026-04-11T15:16:26.017Z</time></trkpt><trkpt lat="46.1598114" lon="9.8707795"><ele>288.66666666666663</ele><time>2026-04-11T15:16:27.017Z</time></trkpt><trkpt lat="46.1597411" lon="9.8704896"><ele>289.0</ele><time>2026-04-11T15:16:28.017Z</time></trkpt><trkpt lat="46.1596713" lon="9.8702013"><ele>288.0</ele><time>2026-04-11T15:16:29.017Z</time></trkpt><trkpt lat="46.159612" lon="9.8699127"><ele>287.0</ele><time>2026-04-11T15:16:30.017Z</time></trkpt><trkpt lat="46.1595659" lon="9.8696172"><ele>286.0</ele><time>2026-04-11T15:16:31.017Z</time></trkpt><trkpt lat="46.1595295" lon="9.8693232"><ele>286.66666666666663</ele><time>2026-04-11T15:16:32.017Z</time></trkpt><trkpt lat="46.159488" lon="9.8690263"><ele>287.3333333333333</ele><time>2026-04-11T15:16:33.017Z</time></trkpt><trkpt lat="46.1594538" lon="9.8687484"><ele>288.0</ele><time>2026-04-11T15:16:34.017Z</time></trkpt><trkpt lat="46.1594195" lon="9.8684742"><ele>288.0</ele><time>2026-04-11T15:16:35.016Z</time></trkpt><trkpt lat="46.1593872" lon="9.8682036"><ele>288.0</ele><time>2026-04-11T15:16:36.017Z</time></trkpt><trkpt lat="46.159359" lon="9.8679295"><ele>288.0</ele><time>2026-04-11T15:16:37.017Z</time></trkpt><trkpt lat="46.1593328" lon="9.8676528"><ele>288.0</ele><time>2026-04-11T15:16:38.017Z</time></trkpt><trkpt lat="46.1593037" lon="9.8673764"><ele>288.0</ele><time>2026-04-11T15:16:39.017Z</time></trkpt><trkpt lat="46.1592745" lon="9.8670993"><ele>288.0</ele><time>2026-04-11T15:16:40.016Z</time></trkpt><trkpt lat="46.1592441" lon="9.8668281"><ele>288.0</ele><time>2026-04-11T15:16:41.017Z</time></trkpt><trkpt lat="46.1592185" lon="9.8665622"><ele>288.0</ele><time>2026-04-11T15:16:42.017Z</time></trkpt><trkpt lat="46.1591898" lon="9.8663094"><ele>288.0</ele><time>2026-04-11T15:16:43.017Z</time></trkpt><trkpt lat="46.1591625" lon="9.8660638"><ele>287.6666666666667</ele><time>2026-04-11T15:16:44.017Z</time></trkpt><trkpt lat="46.1591362" lon="9.8658207"><ele>287.33333333333337</ele><time>2026-04-11T15:16:45.017Z</time></trkpt><trkpt lat="46.1591127" lon="9.8655794"><ele>287.0</ele><time>2026-04-11T15:16:46.017Z</time></trkpt><trkpt lat="46.1590891" lon="9.8653513"><ele>287.0</ele><time>2026-04-11T15:16:47.017Z</time></trkpt><trkpt lat="46.1590639" lon="9.8651187"><ele>287.0</ele><time>2026-04-11T15:16:48.017Z</time></trkpt><trkpt lat="46.1590362" lon="9.8648893"><ele>287.0</ele><time>2026-04-11T15:16:49.017Z</time></trkpt><trkpt lat="46.159011" lon="9.864658"><ele>286.6666666666667</ele><time>2026-04-11T15:16:50.017Z</time></trkpt><trkpt lat="46.1589847" lon="9.8644229"><ele>286.3333333333333</ele><time>2026-04-11T15:16:51.017Z</time></trkpt><trkpt lat="46.1589627" lon="9.8641901"><ele>286.0</ele><time>2026-04-11T15:16:52.017Z</time></trkpt><trkpt lat="46.1589407" lon="9.8639537"><ele>285.66666666666663</ele><time>2026-04-11T15:16:53.017Z</time></trkpt><trkpt lat="46.1589225" lon="9.8637199"><ele>285.3333333333333</ele><time>2026-04-11T15:16:54.017Z</time></trkpt><trkpt lat="46.1589046" lon="9.8634849"><ele>285.0</ele><time>2026-04-11T15:16:55.017Z</time></trkpt><trkpt lat="46.1588919" lon="9.8632531"><ele>285.0</ele><time>2026-04-11T15:16:56.016Z</time></trkpt><trkpt lat="46.1588868" lon="9.8630193"><ele>285.0</ele><time>2026-04-11T15:16:57.017Z</time></trkpt><trkpt lat="46.1588883" lon="9.8627823"><ele>285.0</ele><time>2026-04-11T15:16:58.017Z</time></trkpt><trkpt lat="46.1588966" lon="9.8625452"><ele>285.6666666666667</ele><time>2026-04-11T15:16:59.017Z</time></trkpt><trkpt lat="46.1589145" lon="9.8623072"><ele>286.33333333333337</ele><time>2026-04-11T15:17:00.017Z</time></trkpt><trkpt lat="46.1589414" lon="9.8620754"><ele>287.0</ele><time>2026-04-11T15:17:01.017Z</time></trkpt><trkpt lat="46.1589771" lon="9.8618438"><ele>287.0</ele><time>2026-04-11T15:17:02.017Z</time></trkpt><trkpt lat="46.1590132" lon="9.8616159"><ele>287.0</ele><time>2026-04-11T15:17:03.016Z</time></trkpt><trkpt lat="46.1590546" lon="9.8613887"><ele>287.0</ele><time>2026-04-11T15:17:04.017Z</time></trkpt><trkpt lat="46.1591049" lon="9.8611761"><ele>287.33333333333337</ele><time>2026-04-11T15:17:05.017Z</time></trkpt><trkpt lat="46.1591546" lon="9.8609685"><ele>287.6666666666667</ele><time>2026-04-11T15:17:06.017Z</time></trkpt><trkpt lat="46.1592169" lon="9.8607672"><ele>288.0</ele><time>2026-04-11T15:17:07.017Z</time></trkpt><trkpt lat="46.1592745" lon="9.8605638"><ele>288.0</ele><time>2026-04-11T15:17:08.017Z</time></trkpt><trkpt lat="46.1593388" lon="9.8603613"><ele>288.0</ele><time>2026-04-11T15:17:09.017Z</time></trkpt><trkpt lat="46.1594132" lon="9.8601644"><ele>288.0</ele><time>2026-04-11T15:17:10.016Z</time></trkpt><trkpt lat="46.1594937" lon="9.8599686"><ele>288.0</ele><time>2026-04-11T15:17:11.017Z</time></trkpt><trkpt lat="46.1595867" lon="9.8597702"><ele>288.0</ele><time>2026-04-11T15:17:12.017Z</time></trkpt><trkpt lat="46.1596819" lon="9.8595693"><ele>288.0</ele><time>2026-04-11T15:17:13.017Z</time></trkpt><trkpt lat="46.159784" lon="9.8593743"><ele>287.6666666666667</ele><time>2026-04-11T15:17:14.016Z</time></trkpt><trkpt lat="46.1598964" lon="9.8591867"><ele>287.33333333333337</ele><time>2026-04-11T15:17:15.016Z</time></trkpt><trkpt lat="46.1600122" lon="9.8590017"><ele>287.0</ele><time>2026-04-11T15:17:16.017Z</time></trkpt><trkpt lat="46.1601304" lon="9.858828"><ele>287.0</ele><time>2026-04-11T15:17:17.017Z</time></trkpt><trkpt lat="46.1602561" lon="9.8586632"><ele>287.0</ele><time>2026-04-11T15:17:18.017Z</time></trkpt><trkpt lat="46.1603838" lon="9.8584899"><ele>287.0</ele><time>2026-04-11T15:17:19.017Z</time></trkpt><trkpt lat="46.1605137" lon="9.8583214"><ele>286.6666666666667</ele><time>2026-04-11T15:17:20.017Z</time></trkpt><trkpt lat="46.16065" lon="9.8581591"><ele>286.3333333333333</ele><time>2026-04-11T15:17:21.017Z</time></trkpt><trkpt lat="46.1607909" lon="9.8579887"><ele>286.0</ele><time>2026-04-11T15:17:22.015Z</time></trkpt><trkpt lat="46.1609322" lon="9.8578184"><ele>286.0</ele><time>2026-04-11T15:17:23.016Z</time></trkpt><trkpt lat="46.161078" lon="9.8576387"><ele>286.0</ele><time>2026-04-11T15:17:24.016Z</time></trkpt><trkpt lat="46.1612204" lon="9.8574632"><ele>286.0</ele><time>2026-04-11T15:17:25.015Z</time></trkpt><trkpt lat="46.1613614" lon="9.857294"><ele>286.0</ele><time>2026-04-11T15:17:26.016Z</time></trkpt><trkpt lat="46.1614939" lon="9.8571296"><ele>286.0</ele><time>2026-04-11T15:17:27.016Z</time></trkpt><trkpt lat="46.1616239" lon="9.8569696"><ele>286.0</ele><time>2026-04-11T15:17:28.016Z</time></trkpt><trkpt lat="46.1617548" lon="9.8568095"><ele>285.3333333333333</ele><time>2026-04-11T15:17:29.016Z</time></trkpt><trkpt lat="46.1618875" lon="9.8566466"><ele>284.6666666666667</ele><time>2026-04-11T15:17:30.016Z</time></trkpt><trkpt lat="46.1620167" lon="9.8564891"><ele>284.0</ele><time>2026-04-11T15:17:31.016Z</time></trkpt><trkpt lat="46.1621414" lon="9.8563244"><ele>284.0</ele><time>2026-04-11T15:17:32.016Z</time></trkpt><trkpt lat="46.162262" lon="9.8561584"><ele>284.0</ele><time>2026-04-11T15:17:33.016Z</time></trkpt><trkpt lat="46.1623841" lon="9.8559836"><ele>284.0</ele><time>2026-04-11T15:17:34.016Z</time></trkpt><trkpt lat="46.1625069" lon="9.8557992"><ele>285.6666666666667</ele><time>2026-04-11T15:17:35.016Z</time></trkpt><trkpt lat="46.1626253" lon="9.8556091"><ele>287.3333333333333</ele><time>2026-04-11T15:17:36.015Z</time></trkpt><trkpt lat="46.1627398" lon="9.8554101"><ele>289.0</ele><time>2026-04-11T15:17:37.016Z</time></trkpt><trkpt lat="46.162846" lon="9.8552182"><ele>289.0</ele><time>2026-04-11T15:17:38.016Z</time></trkpt><trkpt lat="46.1629462" lon="9.8550306"><ele>289.0</ele><time>2026-04-11T15:17:39.016Z</time></trkpt><trkpt lat="46.1630448" lon="9.8548371"><ele>289.0</ele><time>2026-04-11T15:17:40.016Z</time></trkpt><trkpt lat="46.1631381" lon="9.8546336"><ele>289.0</ele><time>2026-04-11T15:17:41.015Z</time></trkpt><trkpt lat="46.1632279" lon="9.8544296"><ele>289.0</ele><time>2026-04-11T15:17:42.016Z</time></trkpt><trkpt lat="46.1633145" lon="9.8542299"><ele>289.0</ele><time>2026-04-11T15:17:43.015Z</time></trkpt><trkpt lat="46.1633975" lon="9.8540233"><ele>288.66666666666663</ele><time>2026-04-11T15:17:44.015Z</time></trkpt><trkpt lat="46.1634769" lon="9.8538256"><ele>288.3333333333333</ele><time>2026-04-11T15:17:45.015Z</time></trkpt><trkpt lat="46.1635452" lon="9.8536215"><ele>288.0</ele><time>2026-04-11T15:17:46.015Z</time></trkpt><trkpt lat="46.1636113" lon="9.8534128"><ele>287.6666666666667</ele><time>2026-04-11T15:17:47.016Z</time></trkpt><trkpt lat="46.1636773" lon="9.853204"><ele>287.33333333333337</ele><time>2026-04-11T15:17:48.016Z</time></trkpt><trkpt lat="46.1637484" lon="9.8529769"><ele>287.0</ele><time>2026-04-11T15:17:49.016Z</time></trkpt><trkpt lat="46.1638156" lon="9.8527219"><ele>286.6666666666667</ele><time>2026-04-11T15:17:50.016Z</time></trkpt><trkpt lat="46.163887" lon="9.8524432"><ele>286.3333333333333</ele><time>2026-04-11T15:17:51.016Z</time></trkpt><trkpt lat="46.1639504" lon="9.8521571"><ele>286.0</ele><time>2026-04-11T15:17:52.016Z</time></trkpt><trkpt lat="46.1640097" lon="9.8518626"><ele>287.0</ele><time>2026-04-11T15:17:53.016Z</time></trkpt><trkpt lat="46.1640626" lon="9.851575"><ele>288.0</ele><time>2026-04-11T15:17:54.016Z</time></trkpt><trkpt lat="46.1641076" lon="9.851287"><ele>289.0</ele><time>2026-04-11T15:17:55.016Z</time></trkpt><trkpt lat="46.1641383" lon="9.8510131"><ele>288.66666666666663</ele><time>2026-04-11T15:17:56.016Z</time></trkpt><trkpt lat="46.164162" lon="9.8507444"><ele>288.3333333333333</ele><time>2026-04-11T15:17:57.016Z</time></trkpt><trkpt lat="46.1641841" lon="9.8504823"><ele>288.0</ele><time>2026-04-11T15:17:58.016Z</time></trkpt><trkpt lat="46.1642004" lon="9.8502193"><ele>288.0</ele><time>2026-04-11T15:17:59.016Z</time></trkpt><trkpt lat="46.1642135" lon="9.8499536"><ele>288.0</ele><time>2026-04-11T15:18:00.016Z</time></trkpt><trkpt lat="46.1642266" lon="9.8496872"><ele>288.0</ele><time>2026-04-11T15:18:01.016Z</time></trkpt><trkpt lat="46.1642298" lon="9.8494246"><ele>287.3333333333333</ele><time>2026-04-11T15:18:02.015Z</time></trkpt><trkpt lat="46.1642328" lon="9.8491615"><ele>286.66666666666663</ele><time>2026-04-11T15:18:03.016Z</time></trkpt><trkpt lat="46.1642308" lon="9.8488944"><ele>286.0</ele><time>2026-04-11T15:18:04.016Z</time></trkpt><trkpt lat="46.1642317" lon="9.8486273"><ele>286.0</ele><time>2026-04-11T15:18:05.015Z</time></trkpt><trkpt lat="46.164233" lon="9.8483533"><ele>286.0</ele><time>2026-04-11T15:18:06.016Z</time></trkpt><trkpt lat="46.1642364" lon="9.8480886"><ele>286.0</ele><time>2026-04-11T15:18:07.016Z</time></trkpt><trkpt lat="46.1642378" lon="9.8478286"><ele>286.0</ele><time>2026-04-11T15:18:08.016Z</time></trkpt><trkpt lat="46.1642406" lon="9.8475606"><ele>286.0</ele><time>2026-04-11T15:18:09.016Z</time></trkpt><trkpt lat="46.1642401" lon="9.8472957"><ele>286.0</ele><time>2026-04-11T15:18:10.016Z</time></trkpt><trkpt lat="46.1642355" lon="9.8470303"><ele>286.3333333333333</ele><time>2026-04-11T15:18:11.016Z</time></trkpt><trkpt lat="46.164234" lon="9.8467615"><ele>286.6666666666667</ele><time>2026-04-11T15:18:12.016Z</time></trkpt><trkpt lat="46.1642392" lon="9.8464935"><ele>287.0</ele><time>2026-04-11T15:18:13.016Z</time></trkpt><trkpt lat="46.1642376" lon="9.8462331"><ele>287.0</ele><time>2026-04-11T15:18:14.016Z</time></trkpt><trkpt lat="46.1642448" lon="9.8459765"><ele>287.0</ele><time>2026-04-11T15:18:15.015Z</time></trkpt><trkpt lat="46.1642548" lon="9.8457287"><ele>287.0</ele><time>2026-04-11T15:18:16.016Z</time></trkpt><trkpt lat="46.1642641" lon="9.8455017"><ele>287.33333333333337</ele><time>2026-04-11T15:18:17.015Z</time></trkpt><trkpt lat="46.1642735" lon="9.8452779"><ele>287.6666666666667</ele><time>2026-04-11T15:18:18.016Z</time></trkpt><trkpt lat="46.1642813" lon="9.845049"><ele>288.0</ele><time>2026-04-11T15:18:19.015Z</time></trkpt><trkpt lat="46.1642749" lon="9.8448143"><ele>288.3333333333333</ele><time>2026-04-11T15:18:20.016Z</time></trkpt><trkpt lat="46.1642564" lon="9.8445804"><ele>288.66666666666663</ele><time>2026-04-11T15:18:21.016Z</time></trkpt><trkpt lat="46.164223" lon="9.8443585"><ele>289.0</ele><time>2026-04-11T15:18:22.016Z</time></trkpt><trkpt lat="46.1641799" lon="9.8441383"><ele>289.0</ele><time>2026-04-11T15:18:23.016Z</time></trkpt><trkpt lat="46.1641219" lon="9.8439282"><ele>289.0</ele><time>2026-04-11T15:18:24.016Z</time></trkpt><trkpt lat="46.1640466" lon="9.843716"><ele>289.0</ele><time>2026-04-11T15:18:25.016Z</time></trkpt><trkpt lat="46.1639618" lon="9.8435241"><ele>286.66666666666663</ele><time>2026-04-11T15:18:26.016Z</time></trkpt><trkpt lat="46.1638711" lon="9.8433364"><ele>284.3333333333333</ele><time>2026-04-11T15:18:27.016Z</time></trkpt><trkpt lat="46.1637834" lon="9.8431415"><ele>282.0</ele><time>2026-04-11T15:18:28.016Z</time></trkpt><trkpt lat="46.1636979" lon="9.8429442"><ele>282.0</ele><time>2026-04-11T15:18:29.016Z</time></trkpt><trkpt lat="46.1636127" lon="9.8427338"><ele>282.0</ele><time>2026-04-11T15:18:30.016Z</time></trkpt><trkpt lat="46.1635336" lon="9.8425104"><ele>282.0</ele><time>2026-04-11T15:18:31.016Z</time></trkpt><trkpt lat="46.1634565" lon="9.842268"><ele>284.6666666666667</ele><time>2026-04-11T15:18:32.016Z</time></trkpt><trkpt lat="46.1633852" lon="9.8420208"><ele>287.33333333333337</ele><time>2026-04-11T15:18:33.016Z</time></trkpt><trkpt lat="46.1633172" lon="9.841757"><ele>290.0</ele><time>2026-04-11T15:18:34.016Z</time></trkpt><trkpt lat="46.1632474" lon="9.84149"><ele>287.33333333333337</ele><time>2026-04-11T15:18:35.016Z</time></trkpt><trkpt lat="46.1631833" lon="9.8412269"><ele>284.6666666666667</ele><time>2026-04-11T15:18:36.016Z</time></trkpt><trkpt lat="46.1631315" lon="9.8409644"><ele>282.0</ele><time>2026-04-11T15:18:37.016Z</time></trkpt><trkpt lat="46.1630812" lon="9.8407181"><ele>281.6666666666667</ele><time>2026-04-11T15:18:38.016Z</time></trkpt><trkpt lat="46.1630351" lon="9.8404816"><ele>281.33333333333337</ele><time>2026-04-11T15:18:39.016Z</time></trkpt><trkpt lat="46.1629906" lon="9.8402511"><ele>281.0</ele><time>2026-04-11T15:18:40.016Z</time></trkpt><trkpt lat="46.1629472" lon="9.8400261"><ele>281.6666666666667</ele><time>2026-04-11T15:18:41.016Z</time></trkpt><trkpt lat="46.1629045" lon="9.8398129"><ele>282.3333333333333</ele><time>2026-04-11T15:18:42.015Z</time></trkpt><trkpt lat="46.1628659" lon="9.839601"><ele>283.0</ele><time>2026-04-11T15:18:43.015Z</time></trkpt><trkpt lat="46.1628281" lon="9.8393893"><ele>283.3333333333333</ele><time>2026-04-11T15:18:44.016Z</time></trkpt><trkpt lat="46.1627843" lon="9.839174"><ele>283.6666666666667</ele><time>2026-04-11T15:18:45.016Z</time></trkpt><trkpt lat="46.1627404" lon="9.8389557"><ele>284.0</ele><time>2026-04-11T15:18:46.016Z</time></trkpt><trkpt lat="46.1626953" lon="9.8387351"><ele>284.0</ele><time>2026-04-11T15:18:47.016Z</time></trkpt><trkpt lat="46.1626516" lon="9.8385086"><ele>284.0</ele><time>2026-04-11T15:18:48.015Z</time></trkpt><trkpt lat="46.1626032" lon="9.8382701"><ele>284.0</ele><time>2026-04-11T15:18:49.016Z</time></trkpt><trkpt lat="46.1625517" lon="9.8380333"><ele>284.6666666666667</ele><time>2026-04-11T15:18:50.016Z</time></trkpt><trkpt lat="46.1625069" lon="9.8378041"><ele>285.3333333333333</ele><time>2026-04-11T15:18:51.015Z</time></trkpt><trkpt lat="46.162462" lon="9.8375793"><ele>286.0</ele><time>2026-04-11T15:18:52.016Z</time></trkpt><trkpt lat="46.162417" lon="9.837355"><ele>286.3333333333333</ele><time>2026-04-11T15:18:53.016Z</time></trkpt><trkpt lat="46.162375" lon="9.8371289"><ele>286.6666666666667</ele><time>2026-04-11T15:18:54.016Z</time></trkpt><trkpt lat="46.1623296" lon="9.8369048"><ele>287.0</ele><time>2026-04-11T15:18:55.016Z</time></trkpt><trkpt lat="46.1622851" lon="9.8366921"><ele>285.5</ele><time>2026-04-11T15:18:56.016Z</time></trkpt><trkpt lat="46.1622497" lon="9.8364859"><ele>284.0</ele><time>2026-04-11T15:18:57.016Z</time></trkpt><trkpt lat="46.1622093" lon="9.8362865"><ele>282.5</ele><time>2026-04-11T15:18:58.016Z</time></trkpt><trkpt lat="46.1621643" lon="9.836077"><ele>281.0</ele><time>2026-04-11T15:18:59.016Z</time></trkpt><trkpt lat="46.1621213" lon="9.8358546"><ele>281.0</ele><time>2026-04-11T15:19:00.015Z</time></trkpt><trkpt lat="46.1620793" lon="9.8356273"><ele>281.0</ele><time>2026-04-11T15:19:01.016Z</time></trkpt><trkpt lat="46.1620392" lon="9.8353978"><ele>281.0</ele><time>2026-04-11T15:19:02.016Z</time></trkpt><trkpt lat="46.1620023" lon="9.835176"><ele>281.33333333333337</ele><time>2026-04-11T15:19:03.016Z</time></trkpt><trkpt lat="46.1619632" lon="9.8349583"><ele>281.6666666666667</ele><time>2026-04-11T15:19:04.016Z</time></trkpt><trkpt lat="46.161932" lon="9.8347403"><ele>282.0</ele><time>2026-04-11T15:19:05.016Z</time></trkpt><trkpt lat="46.1619073" lon="9.8345168"><ele>281.6666666666667</ele><time>2026-04-11T15:19:06.016Z</time></trkpt><trkpt lat="46.1618898" lon="9.8342877"><ele>281.33333333333337</ele><time>2026-04-11T15:19:07.015Z</time></trkpt><trkpt lat="46.1618773" lon="9.8340464"><ele>281.0</ele><time>2026-04-11T15:19:08.016Z</time></trkpt><trkpt lat="46.1618627" lon="9.833808"><ele>281.0</ele><time>2026-04-11T15:19:09.016Z</time></trkpt><trkpt lat="46.1618526" lon="9.833568"><ele>281.0</ele><time>2026-04-11T15:19:10.016Z</time></trkpt><trkpt lat="46.1618445" lon="9.8333426"><ele>281.0</ele><time>2026-04-11T15:19:11.015Z</time></trkpt><trkpt lat="46.1618407" lon="9.8331244"><ele>280.5</ele><time>2026-04-11T15:19:12.016Z</time></trkpt><trkpt lat="46.1618342" lon="9.8329173"><ele>280.0</ele><time>2026-04-11T15:19:13.015Z</time></trkpt><trkpt lat="46.1618319" lon="9.8327201"><ele>279.5</ele><time>2026-04-11T15:19:14.016Z</time></trkpt><trkpt lat="46.1618335" lon="9.8325291"><ele>279.0</ele><time>2026-04-11T15:19:15.016Z</time></trkpt><trkpt lat="46.1618337" lon="9.8323329"><ele>278.75</ele><time>2026-04-11T15:19:16.016Z</time></trkpt><trkpt lat="46.1618373" lon="9.8321311"><ele>278.5</ele><time>2026-04-11T15:19:17.016Z</time></trkpt><trkpt lat="46.1618333" lon="9.8319246"><ele>278.25</ele><time>2026-04-11T15:19:18.015Z</time></trkpt><trkpt lat="46.1618302" lon="9.8317218"><ele>278.0</ele><time>2026-04-11T15:19:19.016Z</time></trkpt><trkpt lat="46.1618295" lon="9.831522"><ele>277.75</ele><time>2026-04-11T15:19:20.016Z</time></trkpt><trkpt lat="46.1618304" lon="9.8313348"><ele>277.5</ele><time>2026-04-11T15:19:21.016Z</time></trkpt><trkpt lat="46.1618292" lon="9.8311636"><ele>277.25</ele><time>2026-04-11T15:19:22.016Z</time></trkpt><trkpt lat="46.1618271" lon="9.8310055"><ele>277.0</ele><time>2026-04-11T15:19:23.016Z</time></trkpt><trkpt lat="46.1618264" lon="9.8308521"><ele>277.3333333333333</ele><time>2026-04-11T15:19:24.016Z</time></trkpt><trkpt lat="46.1618368" lon="9.83071"><ele>277.66666666666663</ele><time>2026-04-11T15:19:25.016Z</time></trkpt><trkpt lat="46.1618493" lon="9.8305844"><ele>278.0</ele><time>2026-04-11T15:19:26.015Z</time></trkpt><trkpt lat="46.161869" lon="9.830477"><ele>278.3333333333333</ele><time>2026-04-11T15:19:27.016Z</time></trkpt><trkpt lat="46.1618841" lon="9.8303837"><ele>278.6666666666667</ele><time>2026-04-11T15:19:28.016Z</time></trkpt><trkpt lat="46.1619125" lon="9.8302198"><ele>279.0</ele><time>2026-04-11T15:19:30.016Z</time></trkpt><trkpt lat="46.1619433" lon="9.8300973"><ele>279.4</ele><time>2026-04-11T15:19:32.016Z</time></trkpt><trkpt lat="46.1620091" lon="9.8299799"><ele>279.79999999999995</ele><time>2026-04-11T15:19:34.016Z</time></trkpt><trkpt lat="46.1620609" lon="9.8298812"><ele>280.20000000000005</ele><time>2026-04-11T15:19:36.016Z</time></trkpt><trkpt lat="46.1620548" lon="9.8297398"><ele>280.6</ele><time>2026-04-11T15:19:38.015Z</time></trkpt><trkpt lat="46.1619868" lon="9.8296305"><ele>281.0</ele><time>2026-04-11T15:19:40.016Z</time></trkpt><trkpt lat="46.1619221" lon="9.8294692"><ele>281.0</ele><time>2026-04-11T15:19:42.016Z</time></trkpt><trkpt lat="46.1618973" lon="9.8293594"><ele>281.0</ele><time>2026-04-11T15:19:43.016Z</time></trkpt><trkpt lat="46.1618811" lon="9.8292491"><ele>281.0</ele><time>2026-04-11T15:19:44.016Z</time></trkpt><trkpt lat="46.1618666" lon="9.829123"><ele>281.0</ele><time>2026-04-11T15:19:45.016Z</time></trkpt><trkpt lat="46.1618494" lon="9.8289973"><ele>281.0</ele><time>2026-04-11T15:19:46.016Z</time></trkpt><trkpt lat="46.1618321" lon="9.8288625"><ele>281.0</ele><time>2026-04-11T15:19:47.015Z</time></trkpt><trkpt lat="46.161827" lon="9.8287311"><ele>280.75</ele><time>2026-04-11T15:19:48.016Z</time></trkpt><trkpt lat="46.1618243" lon="9.8285698"><ele>280.5</ele><time>2026-04-11T15:19:49.016Z</time></trkpt><trkpt lat="46.1618111" lon="9.8283951"><ele>280.25</ele><time>2026-04-11T15:19:50.016Z</time></trkpt><trkpt lat="46.1618097" lon="9.8281739"><ele>280.0</ele><time>2026-04-11T15:19:51.016Z</time></trkpt><trkpt lat="46.1618182" lon="9.8279435"><ele>280.0</ele><time>2026-04-11T15:19:52.016Z</time></trkpt><trkpt lat="46.1618157" lon="9.8277039"><ele>280.0</ele><time>2026-04-11T15:19:53.016Z</time></trkpt><trkpt lat="46.161822" lon="9.8274278"><ele>280.0</ele><time>2026-04-11T15:19:54.016Z</time></trkpt><trkpt lat="46.1618294" lon="9.8271461"><ele>279.66666666666663</ele><time>2026-04-11T15:19:55.016Z</time></trkpt><trkpt lat="46.16183" lon="9.8268715"><ele>279.3333333333333</ele><time>2026-04-11T15:19:56.015Z</time></trkpt><trkpt lat="46.1618339" lon="9.8265831"><ele>279.0</ele><time>2026-04-11T15:19:57.016Z</time></trkpt><trkpt lat="46.1618341" lon="9.8262959"><ele>279.0</ele><time>2026-04-11T15:19:58.016Z</time></trkpt><trkpt lat="46.1618283" lon="9.8260043"><ele>279.0</ele><time>2026-04-11T15:19:59.016Z</time></trkpt><trkpt lat="46.161828" lon="9.825694"><ele>279.0</ele><time>2026-04-11T15:20:00.016Z</time></trkpt><trkpt lat="46.1618269" lon="9.8253716"><ele>279.3333333333333</ele><time>2026-04-11T15:20:01.016Z</time></trkpt><trkpt lat="46.1618296" lon="9.8250549"><ele>279.66666666666663</ele><time>2026-04-11T15:20:02.015Z</time></trkpt><trkpt lat="46.161827" lon="9.824736"><ele>280.0</ele><time>2026-04-11T15:20:03.016Z</time></trkpt><trkpt lat="46.1618281" lon="9.8244143"><ele>279.0</ele><time>2026-04-11T15:20:04.015Z</time></trkpt><trkpt lat="46.1618296" lon="9.8240851"><ele>278.0</ele><time>2026-04-11T15:20:05.016Z</time></trkpt><trkpt lat="46.1618258" lon="9.8237591"><ele>278.0</ele><time>2026-04-11T15:20:06.015Z</time></trkpt><trkpt lat="46.1618248" lon="9.8234267"><ele>278.0</ele><time>2026-04-11T15:20:07.016Z</time></trkpt><trkpt lat="46.1618247" lon="9.823091"><ele>278.0</ele><time>2026-04-11T15:20:08.016Z</time></trkpt><trkpt lat="46.1618278" lon="9.8227638"><ele>278.0</ele><time>2026-04-11T15:20:09.015Z</time></trkpt><trkpt lat="46.1618274" lon="9.8224328"><ele>278.5</ele><time>2026-04-11T15:20:10.016Z</time></trkpt><trkpt lat="46.1618232" lon="9.8221048"><ele>279.0</ele><time>2026-04-11T15:20:11.016Z</time></trkpt><trkpt lat="46.161823" lon="9.821771"><ele>279.0</ele><time>2026-04-11T15:20:12.016Z</time></trkpt><trkpt lat="46.1618242" lon="9.8214466"><ele>279.0</ele><time>2026-04-11T15:20:13.016Z</time></trkpt><trkpt lat="46.1618234" lon="9.8211177"><ele>279.6666666666667</ele><time>2026-04-11T15:20:14.016Z</time></trkpt><trkpt lat="46.1618204" lon="9.8207949"><ele>280.33333333333337</ele><time>2026-04-11T15:20:15.016Z</time></trkpt><trkpt lat="46.1618191" lon="9.8204725"><ele>281.0</ele><time>2026-04-11T15:20:16.016Z</time></trkpt><trkpt lat="46.1618228" lon="9.8201575"><ele>280.33333333333337</ele><time>2026-04-11T15:20:17.016Z</time></trkpt><trkpt lat="46.161819" lon="9.8198376"><ele>279.6666666666667</ele><time>2026-04-11T15:20:18.016Z</time></trkpt><trkpt lat="46.1618196" lon="9.8195144"><ele>279.0</ele><time>2026-04-11T15:20:19.016Z</time></trkpt><trkpt lat="46.1618223" lon="9.8192017"><ele>279.0</ele><time>2026-04-11T15:20:20.015Z</time></trkpt><trkpt lat="46.1618225" lon="9.8188881"><ele>279.0</ele><time>2026-04-11T15:20:21.015Z</time></trkpt><trkpt lat="46.1618266" lon="9.8185762"><ele>279.0</ele><time>2026-04-11T15:20:22.016Z</time></trkpt><trkpt lat="46.1618279" lon="9.8182652"><ele>278.6666666666667</ele><time>2026-04-11T15:20:23.016Z</time></trkpt><trkpt lat="46.1618284" lon="9.8179585"><ele>278.33333333333337</ele><time>2026-04-11T15:20:24.016Z</time></trkpt><trkpt lat="46.1618321" lon="9.8176534"><ele>278.0</ele><time>2026-04-11T15:20:25.016Z</time></trkpt><trkpt lat="46.1618291" lon="9.8173401"><ele>277.6666666666667</ele><time>2026-04-11T15:20:26.016Z</time></trkpt><trkpt lat="46.1618322" lon="9.8170234"><ele>277.3333333333333</ele><time>2026-04-11T15:20:27.016Z</time></trkpt><trkpt lat="46.161827" lon="9.8167108"><ele>277.0</ele><time>2026-04-11T15:20:28.016Z</time></trkpt><trkpt lat="46.1618198" lon="9.8164066"><ele>277.0</ele><time>2026-04-11T15:20:29.016Z</time></trkpt><trkpt lat="46.1618094" lon="9.8161019"><ele>277.0</ele><time>2026-04-11T15:20:30.016Z</time></trkpt><trkpt lat="46.1618048" lon="9.8157962"><ele>277.0</ele><time>2026-04-11T15:20:31.015Z</time></trkpt><trkpt lat="46.1617964" lon="9.8154949"><ele>277.0</ele><time>2026-04-11T15:20:32.016Z</time></trkpt><trkpt lat="46.1617946" lon="9.8151929"><ele>277.0</ele><time>2026-04-11T15:20:33.016Z</time></trkpt><trkpt lat="46.1617933" lon="9.8148966"><ele>277.0</ele><time>2026-04-11T15:20:34.016Z</time></trkpt><trkpt lat="46.1617885" lon="9.8145957"><ele>276.66666666666663</ele><time>2026-04-11T15:20:35.016Z</time></trkpt><trkpt lat="46.1617835" lon="9.8142923"><ele>276.3333333333333</ele><time>2026-04-11T15:20:36.016Z</time></trkpt><trkpt lat="46.1617835" lon="9.8139916"><ele>276.0</ele><time>2026-04-11T15:20:37.016Z</time></trkpt><trkpt lat="46.1617898" lon="9.813691"><ele>275.6666666666667</ele><time>2026-04-11T15:20:38.016Z</time></trkpt><trkpt lat="46.1617827" lon="9.813392"><ele>275.33333333333337</ele><time>2026-04-11T15:20:39.016Z</time></trkpt><trkpt lat="46.1617843" lon="9.8130917"><ele>275.0</ele><time>2026-04-11T15:20:40.016Z</time></trkpt><trkpt lat="46.161782" lon="9.8127935"><ele>275.0</ele><time>2026-04-11T15:20:41.016Z</time></trkpt><trkpt lat="46.1617837" lon="9.8124906"><ele>275.0</ele><time>2026-04-11T15:20:42.016Z</time></trkpt><trkpt lat="46.1617861" lon="9.8121889"><ele>275.0</ele><time>2026-04-11T15:20:43.016Z</time></trkpt><trkpt lat="46.1617814" lon="9.8118984"><ele>275.33333333333337</ele><time>2026-04-11T15:20:44.016Z</time></trkpt><trkpt lat="46.1617815" lon="9.8116108"><ele>275.6666666666667</ele><time>2026-04-11T15:20:45.015Z</time></trkpt><trkpt lat="46.1617801" lon="9.8113273"><ele>276.0</ele><time>2026-04-11T15:20:46.016Z</time></trkpt><trkpt lat="46.1617791" lon="9.8110506"><ele>276.0</ele><time>2026-04-11T15:20:47.016Z</time></trkpt><trkpt lat="46.1617756" lon="9.81079"><ele>276.0</ele><time>2026-04-11T15:20:48.016Z</time></trkpt><trkpt lat="46.1617762" lon="9.8105484"><ele>276.0</ele><time>2026-04-11T15:20:49.016Z</time></trkpt><trkpt lat="46.1617808" lon="9.8103165"><ele>276.0</ele><time>2026-04-11T15:20:50.016Z</time></trkpt><trkpt lat="46.1617789" lon="9.8100889"><ele>276.0</ele><time>2026-04-11T15:20:51.015Z</time></trkpt><trkpt lat="46.1617818" lon="9.8098572"><ele>276.0</ele><time>2026-04-11T15:20:52.016Z</time></trkpt><trkpt lat="46.1617809" lon="9.8096343"><ele>276.0</ele><time>2026-04-11T15:20:53.015Z</time></trkpt><trkpt lat="46.1617822" lon="9.8094162"><ele>276.0</ele><time>2026-04-11T15:20:54.015Z</time></trkpt><trkpt lat="46.1617757" lon="9.8091934"><ele>276.0</ele><time>2026-04-11T15:20:55.015Z</time></trkpt><trkpt lat="46.1617761" lon="9.8089646"><ele>276.3333333333333</ele><time>2026-04-11T15:20:56.016Z</time></trkpt><trkpt lat="46.1617788" lon="9.8087362"><ele>276.66666666666663</ele><time>2026-04-11T15:20:57.016Z</time></trkpt><trkpt lat="46.1617775" lon="9.8085049"><ele>277.0</ele><time>2026-04-11T15:20:58.016Z</time></trkpt><trkpt lat="46.1617757" lon="9.8082779"><ele>277.0</ele><time>2026-04-11T15:20:59.016Z</time></trkpt><trkpt lat="46.1617749" lon="9.8080516"><ele>277.0</ele><time>2026-04-11T15:21:00.016Z</time></trkpt><trkpt lat="46.161772" lon="9.8078232"><ele>277.0</ele><time>2026-04-11T15:21:01.015Z</time></trkpt><trkpt lat="46.1617715" lon="9.8075951"><ele>277.0</ele><time>2026-04-11T15:21:02.016Z</time></trkpt><trkpt lat="46.1617704" lon="9.8073634"><ele>277.0</ele><time>2026-04-11T15:21:03.016Z</time></trkpt><trkpt lat="46.1617748" lon="9.8071323"><ele>277.0</ele><time>2026-04-11T15:21:04.015Z</time></trkpt><trkpt lat="46.1617732" lon="9.806909"><ele>276.75</ele><time>2026-04-11T15:21:05.016Z</time></trkpt><trkpt lat="46.1617679" lon="9.8067001"><ele>276.5</ele><time>2026-04-11T15:21:06.016Z</time></trkpt><trkpt lat="46.1617656" lon="9.8065022"><ele>276.25</ele><time>2026-04-11T15:21:07.016Z</time></trkpt><trkpt lat="46.1617637" lon="9.8063157"><ele>276.0</ele><time>2026-04-11T15:21:08.016Z</time></trkpt><trkpt lat="46.1617639" lon="9.8061398"><ele>275.8</ele><time>2026-04-11T15:21:09.016Z</time></trkpt><trkpt lat="46.1617676" lon="9.805973"><ele>275.6</ele><time>2026-04-11T15:21:10.015Z</time></trkpt><trkpt lat="46.161773" lon="9.8058238"><ele>275.4</ele><time>2026-04-11T15:21:11.016Z</time></trkpt><trkpt lat="46.161779" lon="9.8057014"><ele>275.2</ele><time>2026-04-11T15:21:12.016Z</time></trkpt><trkpt lat="46.161786" lon="9.8055548"><ele>275.0</ele><time>2026-04-11T15:21:14.016Z</time></trkpt><trkpt lat="46.1617979" lon="9.8054542"><ele>275.0</ele><time>2026-04-11T15:21:16.016Z</time></trkpt><trkpt lat="46.1618715" lon="9.805313"><ele>275.0</ele><time>2026-04-11T15:21:25.016Z</time></trkpt><trkpt lat="46.161946" lon="9.8052337"><ele>275.0</ele><time>2026-04-11T15:21:27.016Z</time></trkpt><trkpt lat="46.162002" lon="9.8050853"><ele>275.0</ele><time>2026-04-11T15:21:29.016Z</time></trkpt><trkpt lat="46.1619387" lon="9.8049292"><ele>275.0</ele><time>2026-04-11T15:21:31.016Z</time></trkpt><trkpt lat="46.1618728" lon="9.8048508"><ele>275.0</ele><time>2026-04-11T15:21:32.016Z</time></trkpt><trkpt lat="46.161822" lon="9.8047352"><ele>275.0</ele><time>2026-04-11T15:21:33.016Z</time></trkpt><trkpt lat="46.161796" lon="9.8046005"><ele>275.0</ele><time>2026-04-11T15:21:34.016Z</time></trkpt><trkpt lat="46.1617753" lon="9.8044204"><ele>275.0</ele><time>2026-04-11T15:21:35.015Z</time></trkpt><trkpt lat="46.1617559" lon="9.8041869"><ele>275.0</ele><time>2026-04-11T15:21:36.016Z</time></trkpt><trkpt lat="46.1617535" lon="9.8039339"><ele>275.0</ele><time>2026-04-11T15:21:37.016Z</time></trkpt><trkpt lat="46.1617504" lon="9.8036818"><ele>275.0</ele><time>2026-04-11T15:21:38.016Z</time></trkpt><trkpt lat="46.1617511" lon="9.803409"><ele>275.0</ele><time>2026-04-11T15:21:39.016Z</time></trkpt><trkpt lat="46.1617535" lon="9.8031307"><ele>275.0</ele><time>2026-04-11T15:21:40.016Z</time></trkpt><trkpt lat="46.1617527" lon="9.8028561"><ele>275.0</ele><time>2026-04-11T15:21:41.016Z</time></trkpt><trkpt lat="46.16175" lon="9.8025771"><ele>275.0</ele><time>2026-04-11T15:21:42.015Z</time></trkpt><trkpt lat="46.1617466" lon="9.8023026"><ele>275.0</ele><time>2026-04-11T15:21:43.015Z</time></trkpt><trkpt lat="46.1617393" lon="9.8020364"><ele>275.0</ele><time>2026-04-11T15:21:44.016Z</time></trkpt><trkpt lat="46.1617408" lon="9.8017614"><ele>274.6666666666667</ele><time>2026-04-11T15:21:45.016Z</time></trkpt><trkpt lat="46.1617442" lon="9.8014835"><ele>274.3333333333333</ele><time>2026-04-11T15:21:46.015Z</time></trkpt><trkpt lat="46.1617467" lon="9.8012061"><ele>274.0</ele><time>2026-04-11T15:21:47.016Z</time></trkpt><trkpt lat="46.1617457" lon="9.800921"><ele>274.0</ele><time>2026-04-11T15:21:48.016Z</time></trkpt><trkpt lat="46.1617407" lon="9.8006315"><ele>274.0</ele><time>2026-04-11T15:21:49.016Z</time></trkpt><trkpt lat="46.161742" lon="9.8003382"><ele>274.0</ele><time>2026-04-11T15:21:50.016Z</time></trkpt><trkpt lat="46.1617395" lon="9.8000426"><ele>274.3333333333333</ele><time>2026-04-11T15:21:51.016Z</time></trkpt><trkpt lat="46.1617394" lon="9.7997527"><ele>274.6666666666667</ele><time>2026-04-11T15:21:52.016Z</time></trkpt><trkpt lat="46.1617402" lon="9.7994751"><ele>275.0</ele><time>2026-04-11T15:21:53.016Z</time></trkpt><trkpt lat="46.1617384" lon="9.7992016"><ele>275.33333333333337</ele><time>2026-04-11T15:21:54.015Z</time></trkpt><trkpt lat="46.1617366" lon="9.7989307"><ele>275.6666666666667</ele><time>2026-04-11T15:21:55.016Z</time></trkpt><trkpt lat="46.1617343" lon="9.7986574"><ele>276.0</ele><time>2026-04-11T15:21:56.016Z</time></trkpt><trkpt lat="46.1617295" lon="9.7983928"><ele>276.0</ele><time>2026-04-11T15:21:57.016Z</time></trkpt><trkpt lat="46.1617292" lon="9.7981319"><ele>276.0</ele><time>2026-04-11T15:21:58.015Z</time></trkpt><trkpt lat="46.1617322" lon="9.7978716"><ele>276.0</ele><time>2026-04-11T15:21:59.015Z</time></trkpt><trkpt lat="46.161734" lon="9.7976065"><ele>276.0</ele><time>2026-04-11T15:22:00.016Z</time></trkpt><trkpt lat="46.1617341" lon="9.7973435"><ele>276.0</ele><time>2026-04-11T15:22:01.016Z</time></trkpt><trkpt lat="46.1617319" lon="9.7970857"><ele>276.0</ele><time>2026-04-11T15:22:02.016Z</time></trkpt><trkpt lat="46.1617296" lon="9.796824"><ele>276.0</ele><time>2026-04-11T15:22:03.016Z</time></trkpt><trkpt lat="46.1617304" lon="9.7965502"><ele>276.0</ele><time>2026-04-11T15:22:04.016Z</time></trkpt><trkpt lat="46.1617309" lon="9.7962776"><ele>276.0</ele><time>2026-04-11T15:22:05.016Z</time></trkpt><trkpt lat="46.1617307" lon="9.7960096"><ele>275.6666666666667</ele><time>2026-04-11T15:22:06.016Z</time></trkpt><trkpt lat="46.1617276" lon="9.7957292"><ele>275.33333333333337</ele><time>2026-04-11T15:22:07.016Z</time></trkpt><trkpt lat="46.1617272" lon="9.7954493"><ele>275.0</ele><time>2026-04-11T15:22:08.015Z</time></trkpt><trkpt lat="46.1617269" lon="9.7951648"><ele>275.0</ele><time>2026-04-11T15:22:09.015Z</time></trkpt><trkpt lat="46.1617259" lon="9.7948817"><ele>275.0</ele><time>2026-04-11T15:22:10.016Z</time></trkpt><trkpt lat="46.161724" lon="9.7945894"><ele>275.0</ele><time>2026-04-11T15:22:11.016Z</time></trkpt><trkpt lat="46.1617245" lon="9.7942958"><ele>274.6666666666667</ele><time>2026-04-11T15:22:12.016Z</time></trkpt><trkpt lat="46.1617215" lon="9.794001"><ele>274.3333333333333</ele><time>2026-04-11T15:22:13.016Z</time></trkpt><trkpt lat="46.1617196" lon="9.7937115"><ele>274.0</ele><time>2026-04-11T15:22:14.016Z</time></trkpt><trkpt lat="46.1617147" lon="9.7934343"><ele>274.0</ele><time>2026-04-11T15:22:15.016Z</time></trkpt><trkpt lat="46.1617154" lon="9.793159"><ele>274.0</ele><time>2026-04-11T15:22:16.015Z</time></trkpt><trkpt lat="46.161716" lon="9.7928926"><ele>274.0</ele><time>2026-04-11T15:22:17.016Z</time></trkpt><trkpt lat="46.161711" lon="9.792629"><ele>274.3333333333333</ele><time>2026-04-11T15:22:18.015Z</time></trkpt><trkpt lat="46.1617093" lon="9.7923553"><ele>274.6666666666667</ele><time>2026-04-11T15:22:19.016Z</time></trkpt><trkpt lat="46.1617082" lon="9.792092"><ele>275.0</ele><time>2026-04-11T15:22:20.016Z</time></trkpt><trkpt lat="46.1617104" lon="9.7918234"><ele>275.0</ele><time>2026-04-11T15:22:21.016Z</time></trkpt><trkpt lat="46.1617024" lon="9.7915611"><ele>275.0</ele><time>2026-04-11T15:22:22.016Z</time></trkpt><trkpt lat="46.1617059" lon="9.7913081"><ele>275.0</ele><time>2026-04-11T15:22:23.016Z</time></trkpt><trkpt lat="46.1617049" lon="9.7910792"><ele>275.25</ele><time>2026-04-11T15:22:24.016Z</time></trkpt><trkpt lat="46.1617014" lon="9.7908648"><ele>275.5</ele><time>2026-04-11T15:22:25.016Z</time></trkpt><trkpt lat="46.1616955" lon="9.7906706"><ele>275.75</ele><time>2026-04-11T15:22:26.016Z</time></trkpt><trkpt lat="46.1616757" lon="9.7904845"><ele>276.0</ele><time>2026-04-11T15:22:27.016Z</time></trkpt><trkpt lat="46.1616497" lon="9.7903107"><ele>276.2</ele><time>2026-04-11T15:22:28.016Z</time></trkpt><trkpt lat="46.1616231" lon="9.7901601"><ele>276.40000000000003</ele><time>2026-04-11T15:22:29.016Z</time></trkpt><trkpt lat="46.1615969" lon="9.7900257"><ele>276.6</ele><time>2026-04-11T15:22:30.015Z</time></trkpt><trkpt lat="46.1615719" lon="9.7899042"><ele>276.8</ele><time>2026-04-11T15:22:31.016Z</time></trkpt><trkpt lat="46.1615506" lon="9.7897752"><ele>277.0</ele><time>2026-04-11T15:22:32.016Z</time></trkpt><trkpt lat="46.161523" lon="9.789629"><ele>276.25</ele><time>2026-04-11T15:22:33.016Z</time></trkpt><trkpt lat="46.161484" lon="9.7894602"><ele>275.5</ele><time>2026-04-11T15:22:34.015Z</time></trkpt><trkpt lat="46.1614409" lon="9.7892806"><ele>274.75</ele><time>2026-04-11T15:22:35.016Z</time></trkpt><trkpt lat="46.1614026" lon="9.7890807"><ele>274.0</ele><time>2026-04-11T15:22:36.015Z</time></trkpt><trkpt lat="46.1613571" lon="9.7888709"><ele>274.0</ele><time>2026-04-11T15:22:37.016Z</time></trkpt><trkpt lat="46.1613103" lon="9.7886395"><ele>274.0</ele><time>2026-04-11T15:22:38.016Z</time></trkpt><trkpt lat="46.1612586" lon="9.7884113"><ele>274.0</ele><time>2026-04-11T15:22:39.016Z</time></trkpt><trkpt lat="46.1612043" lon="9.7881825"><ele>274.0</ele><time>2026-04-11T15:22:40.015Z</time></trkpt><trkpt lat="46.1611531" lon="9.7879412"><ele>274.0</ele><time>2026-04-11T15:22:41.016Z</time></trkpt><trkpt lat="46.1610994" lon="9.7876855"><ele>274.0</ele><time>2026-04-11T15:22:42.016Z</time></trkpt><trkpt lat="46.1610417" lon="9.7874234"><ele>275.0</ele><time>2026-04-11T15:22:43.016Z</time></trkpt><trkpt lat="46.1609847" lon="9.7871689"><ele>276.0</ele><time>2026-04-11T15:22:44.016Z</time></trkpt><trkpt lat="46.1609296" lon="9.7869183"><ele>277.0</ele><time>2026-04-11T15:22:45.016Z</time></trkpt><trkpt lat="46.1608727" lon="9.7866527"><ele>276.66666666666663</ele><time>2026-04-11T15:22:46.016Z</time></trkpt><trkpt lat="46.1608136" lon="9.7863868"><ele>276.3333333333333</ele><time>2026-04-11T15:22:47.016Z</time></trkpt><trkpt lat="46.1607519" lon="9.7861108"><ele>276.0</ele><time>2026-04-11T15:22:48.015Z</time></trkpt><trkpt lat="46.1606883" lon="9.7858326"><ele>276.0</ele><time>2026-04-11T15:22:49.015Z</time></trkpt><trkpt lat="46.1606209" lon="9.7855433"><ele>276.0</ele><time>2026-04-11T15:22:50.016Z</time></trkpt><trkpt lat="46.1605553" lon="9.7852456"><ele>276.0</ele><time>2026-04-11T15:22:51.016Z</time></trkpt><trkpt lat="46.1604935" lon="9.7849476"><ele>276.6666666666667</ele><time>2026-04-11T15:22:52.016Z</time></trkpt><trkpt lat="46.160435" lon="9.7846575"><ele>277.33333333333337</ele><time>2026-04-11T15:22:53.016Z</time></trkpt><trkpt lat="46.1603788" lon="9.7843791"><ele>278.0</ele><time>2026-04-11T15:22:54.016Z</time></trkpt><trkpt lat="46.1603213" lon="9.7841031"><ele>278.6666666666667</ele><time>2026-04-11T15:22:55.016Z</time></trkpt><trkpt lat="46.1602618" lon="9.7838186"><ele>279.3333333333333</ele><time>2026-04-11T15:22:56.016Z</time></trkpt><trkpt lat="46.160201" lon="9.783541"><ele>280.0</ele><time>2026-04-11T15:22:57.016Z</time></trkpt><trkpt lat="46.1601404" lon="9.7832557"><ele>280.66666666666663</ele><time>2026-04-11T15:22:58.016Z</time></trkpt><trkpt lat="46.1600805" lon="9.782967"><ele>281.3333333333333</ele><time>2026-04-11T15:22:59.016Z</time></trkpt><trkpt lat="46.1600227" lon="9.7826772"><ele>282.0</ele><time>2026-04-11T15:23:00.016Z</time></trkpt><trkpt lat="46.1599675" lon="9.7823935"><ele>283.3333333333333</ele><time>2026-04-11T15:23:01.016Z</time></trkpt><trkpt lat="46.1599121" lon="9.7821055"><ele>284.66666666666663</ele><time>2026-04-11T15:23:02.015Z</time></trkpt><trkpt lat="46.1598532" lon="9.7818249"><ele>286.0</ele><time>2026-04-11T15:23:03.016Z</time></trkpt><trkpt lat="46.1597903" lon="9.7815481"><ele>283.66666666666663</ele><time>2026-04-11T15:23:04.016Z</time></trkpt><trkpt lat="46.1597285" lon="9.7812625"><ele>281.3333333333333</ele><time>2026-04-11T15:23:05.016Z</time></trkpt><trkpt lat="46.1596648" lon="9.7809841"><ele>279.0</ele><time>2026-04-11T15:23:06.016Z</time></trkpt><trkpt lat="46.1596038" lon="9.7807129"><ele>279.0</ele><time>2026-04-11T15:23:07.016Z</time></trkpt><trkpt lat="46.1595424" lon="9.7804532"><ele>279.0</ele><time>2026-04-11T15:23:08.016Z</time></trkpt><trkpt lat="46.1594844" lon="9.7801935"><ele>279.0</ele><time>2026-04-11T15:23:09.016Z</time></trkpt><trkpt lat="46.1594304" lon="9.7799309"><ele>279.0</ele><time>2026-04-11T15:23:10.016Z</time></trkpt><trkpt lat="46.1593757" lon="9.779666"><ele>279.0</ele><time>2026-04-11T15:23:11.016Z</time></trkpt><trkpt lat="46.1593157" lon="9.7794065"><ele>279.0</ele><time>2026-04-11T15:23:12.016Z</time></trkpt><trkpt lat="46.1592497" lon="9.7791477"><ele>279.0</ele><time>2026-04-11T15:23:13.016Z</time></trkpt><trkpt lat="46.1591807" lon="9.7788825"><ele>279.0</ele><time>2026-04-11T15:23:14.015Z</time></trkpt><trkpt lat="46.1591122" lon="9.7785981"><ele>279.0</ele><time>2026-04-11T15:23:15.016Z</time></trkpt><trkpt lat="46.1590416" lon="9.7783013"><ele>277.6666666666667</ele><time>2026-04-11T15:23:16.016Z</time></trkpt><trkpt lat="46.1589724" lon="9.7779972"><ele>276.33333333333337</ele><time>2026-04-11T15:23:17.016Z</time></trkpt><trkpt lat="46.1589059" lon="9.7776892"><ele>275.0</ele><time>2026-04-11T15:23:18.016Z</time></trkpt><trkpt lat="46.1588383" lon="9.7773884"><ele>275.0</ele><time>2026-04-11T15:23:19.016Z</time></trkpt><trkpt lat="46.1587719" lon="9.7770868"><ele>275.0</ele><time>2026-04-11T15:23:20.016Z</time></trkpt><trkpt lat="46.1587065" lon="9.7767815"><ele>275.0</ele><time>2026-04-11T15:23:21.016Z</time></trkpt><trkpt lat="46.1586424" lon="9.7764806"><ele>276.0</ele><time>2026-04-11T15:23:22.016Z</time></trkpt><trkpt lat="46.1585804" lon="9.7761797"><ele>277.0</ele><time>2026-04-11T15:23:23.016Z</time></trkpt><trkpt lat="46.1585185" lon="9.775878"><ele>278.0</ele><time>2026-04-11T15:23:24.016Z</time></trkpt><trkpt lat="46.1584547" lon="9.7755776"><ele>278.33333333333337</ele><time>2026-04-11T15:23:25.016Z</time></trkpt><trkpt lat="46.1583998" lon="9.7752874"><ele>278.6666666666667</ele><time>2026-04-11T15:23:26.015Z</time></trkpt><trkpt lat="46.1583331" lon="9.7749914"><ele>279.0</ele><time>2026-04-11T15:23:27.015Z</time></trkpt><trkpt lat="46.158268" lon="9.7746945"><ele>279.0</ele><time>2026-04-11T15:23:28.015Z</time></trkpt><trkpt lat="46.1582023" lon="9.7743999"><ele>279.0</ele><time>2026-04-11T15:23:29.015Z</time></trkpt><trkpt lat="46.1581325" lon="9.7741064"><ele>279.0</ele><time>2026-04-11T15:23:30.015Z</time></trkpt><trkpt lat="46.1580607" lon="9.7738086"><ele>278.0</ele><time>2026-04-11T15:23:31.015Z</time></trkpt><trkpt lat="46.1579903" lon="9.7735021"><ele>277.0</ele><time>2026-04-11T15:23:32.015Z</time></trkpt><trkpt lat="46.1579203" lon="9.7731957"><ele>276.0</ele><time>2026-04-11T15:23:33.014Z</time></trkpt><trkpt lat="46.157855" lon="9.7728841"><ele>276.3333333333333</ele><time>2026-04-11T15:23:34.015Z</time></trkpt><trkpt lat="46.1577909" lon="9.772578"><ele>276.66666666666663</ele><time>2026-04-11T15:23:35.015Z</time></trkpt><trkpt lat="46.157738" lon="9.7722634"><ele>277.0</ele><time>2026-04-11T15:23:36.015Z</time></trkpt><trkpt lat="46.1576938" lon="9.7719458"><ele>277.0</ele><time>2026-04-11T15:23:37.015Z</time></trkpt><trkpt lat="46.1576635" lon="9.7716412"><ele>277.0</ele><time>2026-04-11T15:23:38.015Z</time></trkpt><trkpt lat="46.1576436" lon="9.771338"><ele>277.0</ele><time>2026-04-11T15:23:39.015Z</time></trkpt><trkpt lat="46.1576391" lon="9.7710388"><ele>277.0</ele><time>2026-04-11T15:23:40.015Z</time></trkpt><trkpt lat="46.1576518" lon="9.7707423"><ele>277.0</ele><time>2026-04-11T15:23:41.015Z</time></trkpt><trkpt lat="46.1576678" lon="9.7704346"><ele>277.0</ele><time>2026-04-11T15:23:42.015Z</time></trkpt><trkpt lat="46.1576987" lon="9.7701234"><ele>276.66666666666663</ele><time>2026-04-11T15:23:43.015Z</time></trkpt><trkpt lat="46.1577336" lon="9.769824"><ele>276.3333333333333</ele><time>2026-04-11T15:23:44.015Z</time></trkpt><trkpt lat="46.1577732" lon="9.7695319"><ele>276.0</ele><time>2026-04-11T15:23:45.015Z</time></trkpt><trkpt lat="46.1578111" lon="9.7692534"><ele>275.6666666666667</ele><time>2026-04-11T15:23:46.015Z</time></trkpt><trkpt lat="46.1578461" lon="9.7689854"><ele>275.33333333333337</ele><time>2026-04-11T15:23:47.015Z</time></trkpt><trkpt lat="46.1578798" lon="9.7687341"><ele>275.0</ele><time>2026-04-11T15:23:48.015Z</time></trkpt><trkpt lat="46.1579133" lon="9.7684907"><ele>274.6666666666667</ele><time>2026-04-11T15:23:49.015Z</time></trkpt><trkpt lat="46.1579413" lon="9.7682397"><ele>274.3333333333333</ele><time>2026-04-11T15:23:50.015Z</time></trkpt><trkpt lat="46.157972" lon="9.7679846"><ele>274.0</ele><time>2026-04-11T15:23:51.015Z</time></trkpt><trkpt lat="46.1580004" lon="9.767723"><ele>273.3333333333333</ele><time>2026-04-11T15:23:52.015Z</time></trkpt><trkpt lat="46.1580371" lon="9.7674571"><ele>272.6666666666667</ele><time>2026-04-11T15:23:53.015Z</time></trkpt><trkpt lat="46.1580802" lon="9.7672034"><ele>272.0</ele><time>2026-04-11T15:23:54.014Z</time></trkpt><trkpt lat="46.1581207" lon="9.7669518"><ele>271.6666666666667</ele><time>2026-04-11T15:23:55.015Z</time></trkpt><trkpt lat="46.1581587" lon="9.7666913"><ele>271.3333333333333</ele><time>2026-04-11T15:23:56.014Z</time></trkpt><trkpt lat="46.1581925" lon="9.766411"><ele>271.0</ele><time>2026-04-11T15:23:57.015Z</time></trkpt><trkpt lat="46.1582328" lon="9.7661265"><ele>272.0</ele><time>2026-04-11T15:23:58.015Z</time></trkpt><trkpt lat="46.1582755" lon="9.7658286"><ele>273.0</ele><time>2026-04-11T15:23:59.015Z</time></trkpt><trkpt lat="46.1583145" lon="9.7655283"><ele>274.0</ele><time>2026-04-11T15:24:00.015Z</time></trkpt><trkpt lat="46.1583585" lon="9.765214"><ele>273.66666666666663</ele><time>2026-04-11T15:24:01.014Z</time></trkpt><trkpt lat="46.1584042" lon="9.7649003"><ele>273.3333333333333</ele><time>2026-04-11T15:24:02.015Z</time></trkpt><trkpt lat="46.1584532" lon="9.7645892"><ele>273.0</ele><time>2026-04-11T15:24:03.015Z</time></trkpt><trkpt lat="46.1584975" lon="9.7642698"><ele>273.0</ele><time>2026-04-11T15:24:04.015Z</time></trkpt><trkpt lat="46.1585425" lon="9.7639487"><ele>273.0</ele><time>2026-04-11T15:24:05.015Z</time></trkpt><trkpt lat="46.1585861" lon="9.7636423"><ele>273.0</ele><time>2026-04-11T15:24:06.015Z</time></trkpt><trkpt lat="46.1586261" lon="9.7633376"><ele>273.3333333333333</ele><time>2026-04-11T15:24:07.015Z</time></trkpt><trkpt lat="46.1586635" lon="9.7630391"><ele>273.66666666666663</ele><time>2026-04-11T15:24:08.014Z</time></trkpt><trkpt lat="46.1587022" lon="9.7627378"><ele>274.0</ele><time>2026-04-11T15:24:09.015Z</time></trkpt><trkpt lat="46.1587397" lon="9.7624374"><ele>273.3333333333333</ele><time>2026-04-11T15:24:10.015Z</time></trkpt><trkpt lat="46.1587788" lon="9.7621374"><ele>272.6666666666667</ele><time>2026-04-11T15:24:11.015Z</time></trkpt><trkpt lat="46.15882" lon="9.761832"><ele>272.0</ele><time>2026-04-11T15:24:12.015Z</time></trkpt><trkpt lat="46.1588589" lon="9.7615266"><ele>271.6666666666667</ele><time>2026-04-11T15:24:13.015Z</time></trkpt><trkpt lat="46.1588973" lon="9.7612214"><ele>271.3333333333333</ele><time>2026-04-11T15:24:14.015Z</time></trkpt><trkpt lat="46.1589383" lon="9.7609117"><ele>271.0</ele><time>2026-04-11T15:24:15.015Z</time></trkpt><trkpt lat="46.1589835" lon="9.760608"><ele>270.66666666666663</ele><time>2026-04-11T15:24:16.015Z</time></trkpt><trkpt lat="46.1590293" lon="9.7603072"><ele>270.3333333333333</ele><time>2026-04-11T15:24:17.015Z</time></trkpt><trkpt lat="46.1590702" lon="9.7599995"><ele>270.0</ele><time>2026-04-11T15:24:18.014Z</time></trkpt><trkpt lat="46.1591137" lon="9.759694"><ele>270.3333333333333</ele><time>2026-04-11T15:24:19.015Z</time></trkpt><trkpt lat="46.1591555" lon="9.7593889"><ele>270.66666666666663</ele><time>2026-04-11T15:24:20.015Z</time></trkpt><trkpt lat="46.1591986" lon="9.7590894"><ele>271.0</ele><time>2026-04-11T15:24:21.015Z</time></trkpt><trkpt lat="46.1592395" lon="9.7587798"><ele>271.0</ele><time>2026-04-11T15:24:22.015Z</time></trkpt><trkpt lat="46.1592798" lon="9.7584734"><ele>271.0</ele><time>2026-04-11T15:24:23.015Z</time></trkpt><trkpt lat="46.1593193" lon="9.7581714"><ele>271.0</ele><time>2026-04-11T15:24:24.014Z</time></trkpt><trkpt lat="46.1593557" lon="9.7578875"><ele>271.0</ele><time>2026-04-11T15:24:25.015Z</time></trkpt><trkpt lat="46.1593961" lon="9.757612"><ele>271.0</ele><time>2026-04-11T15:24:26.015Z</time></trkpt><trkpt lat="46.1594349" lon="9.7573431"><ele>271.0</ele><time>2026-04-11T15:24:27.015Z</time></trkpt><trkpt lat="46.1594728" lon="9.7570711"><ele>270.3333333333333</ele><time>2026-04-11T15:24:28.015Z</time></trkpt><trkpt lat="46.1595099" lon="9.7567984"><ele>269.6666666666667</ele><time>2026-04-11T15:24:29.015Z</time></trkpt><trkpt lat="46.1595418" lon="9.7565087"><ele>269.0</ele><time>2026-04-11T15:24:30.015Z</time></trkpt><trkpt lat="46.1595775" lon="9.7562118"><ele>269.0</ele><time>2026-04-11T15:24:31.015Z</time></trkpt><trkpt lat="46.1596146" lon="9.7559098"><ele>269.0</ele><time>2026-04-11T15:24:32.015Z</time></trkpt><trkpt lat="46.1596578" lon="9.7556002"><ele>269.0</ele><time>2026-04-11T15:24:33.014Z</time></trkpt><trkpt lat="46.1597061" lon="9.7552938"><ele>269.0</ele><time>2026-04-11T15:24:34.015Z</time></trkpt><trkpt lat="46.1597527" lon="9.7549851"><ele>269.0</ele><time>2026-04-11T15:24:35.015Z</time></trkpt><trkpt lat="46.1597998" lon="9.7546735"><ele>269.0</ele><time>2026-04-11T15:24:36.015Z</time></trkpt><trkpt lat="46.159845" lon="9.7543627"><ele>269.33333333333337</ele><time>2026-04-11T15:24:37.015Z</time></trkpt><trkpt lat="46.1598858" lon="9.7540582"><ele>269.6666666666667</ele><time>2026-04-11T15:24:38.015Z</time></trkpt><trkpt lat="46.1599298" lon="9.7537569"><ele>270.0</ele><time>2026-04-11T15:24:39.015Z</time></trkpt><trkpt lat="46.1599719" lon="9.7534551"><ele>270.0</ele><time>2026-04-11T15:24:40.015Z</time></trkpt><trkpt lat="46.1600098" lon="9.7531557"><ele>270.0</ele><time>2026-04-11T15:24:41.015Z</time></trkpt><trkpt lat="46.1600507" lon="9.7528534"><ele>270.0</ele><time>2026-04-11T15:24:42.015Z</time></trkpt><trkpt lat="46.1600947" lon="9.7525634"><ele>270.0</ele><time>2026-04-11T15:24:43.015Z</time></trkpt><trkpt lat="46.1601345" lon="9.7522657"><ele>270.0</ele><time>2026-04-11T15:24:44.015Z</time></trkpt><trkpt lat="46.1601743" lon="9.7519634"><ele>270.0</ele><time>2026-04-11T15:24:45.015Z</time></trkpt><trkpt lat="46.1602148" lon="9.7516564"><ele>270.0</ele><time>2026-04-11T15:24:46.015Z</time></trkpt><trkpt lat="46.1602569" lon="9.7513512"><ele>270.0</ele><time>2026-04-11T15:24:47.015Z</time></trkpt><trkpt lat="46.1602994" lon="9.751048"><ele>270.0</ele><time>2026-04-11T15:24:48.015Z</time></trkpt><trkpt lat="46.16034" lon="9.7507435"><ele>269.6666666666667</ele><time>2026-04-11T15:24:49.014Z</time></trkpt><trkpt lat="46.1603797" lon="9.7504541"><ele>269.33333333333337</ele><time>2026-04-11T15:24:50.015Z</time></trkpt><trkpt lat="46.1604148" lon="9.7501828"><ele>269.0</ele><time>2026-04-11T15:24:51.015Z</time></trkpt><trkpt lat="46.160453" lon="9.7499134"><ele>269.0</ele><time>2026-04-11T15:24:52.015Z</time></trkpt><trkpt lat="46.1604909" lon="9.7496515"><ele>269.0</ele><time>2026-04-11T15:24:53.015Z</time></trkpt><trkpt lat="46.1605281" lon="9.7493904"><ele>269.0</ele><time>2026-04-11T15:24:54.015Z</time></trkpt><trkpt lat="46.1605657" lon="9.7491302"><ele>269.0</ele><time>2026-04-11T15:24:55.015Z</time></trkpt><trkpt lat="46.1605997" lon="9.7488667"><ele>269.0</ele><time>2026-04-11T15:24:56.015Z</time></trkpt><trkpt lat="46.1606371" lon="9.7486093"><ele>269.0</ele><time>2026-04-11T15:24:57.015Z</time></trkpt><trkpt lat="46.1606715" lon="9.7483566"><ele>269.33333333333337</ele><time>2026-04-11T15:24:58.015Z</time></trkpt><trkpt lat="46.1607046" lon="9.7480994"><ele>269.6666666666667</ele><time>2026-04-11T15:24:59.015Z</time></trkpt><trkpt lat="46.1607417" lon="9.7478376"><ele>270.0</ele><time>2026-04-11T15:25:00.015Z</time></trkpt><trkpt lat="46.1607765" lon="9.7475836"><ele>270.0</ele><time>2026-04-11T15:25:01.014Z</time></trkpt><trkpt lat="46.1608148" lon="9.7473342"><ele>270.0</ele><time>2026-04-11T15:25:02.014Z</time></trkpt><trkpt lat="46.1608477" lon="9.7470812"><ele>270.0</ele><time>2026-04-11T15:25:03.015Z</time></trkpt><trkpt lat="46.1608801" lon="9.7468236"><ele>270.3333333333333</ele><time>2026-04-11T15:25:04.015Z</time></trkpt><trkpt lat="46.1609161" lon="9.7465725"><ele>270.66666666666663</ele><time>2026-04-11T15:25:05.015Z</time></trkpt><trkpt lat="46.160948" lon="9.7463144"><ele>271.0</ele><time>2026-04-11T15:25:06.015Z</time></trkpt><trkpt lat="46.160978" lon="9.7460608"><ele>271.3333333333333</ele><time>2026-04-11T15:25:07.014Z</time></trkpt><trkpt lat="46.1610072" lon="9.7457975"><ele>271.6666666666667</ele><time>2026-04-11T15:25:08.015Z</time></trkpt><trkpt lat="46.1610335" lon="9.7455352"><ele>272.0</ele><time>2026-04-11T15:25:09.015Z</time></trkpt><trkpt lat="46.1610578" lon="9.7452736"><ele>271.33333333333337</ele><time>2026-04-11T15:25:10.015Z</time></trkpt><trkpt lat="46.1610814" lon="9.7450122"><ele>270.6666666666667</ele><time>2026-04-11T15:25:11.015Z</time></trkpt><trkpt lat="46.1611017" lon="9.7447513"><ele>270.0</ele><time>2026-04-11T15:25:12.015Z</time></trkpt><trkpt lat="46.1611235" lon="9.7444898"><ele>270.0</ele><time>2026-04-11T15:25:13.015Z</time></trkpt><trkpt lat="46.1611476" lon="9.7442297"><ele>270.0</ele><time>2026-04-11T15:25:14.015Z</time></trkpt><trkpt lat="46.1611746" lon="9.74397"><ele>270.0</ele><time>2026-04-11T15:25:15.015Z</time></trkpt><trkpt lat="46.1612001" lon="9.7437065"><ele>270.0</ele><time>2026-04-11T15:25:16.014Z</time></trkpt><trkpt lat="46.1612239" lon="9.7434563"><ele>270.0</ele><time>2026-04-11T15:25:17.015Z</time></trkpt><trkpt lat="46.1612434" lon="9.7432138"><ele>270.0</ele><time>2026-04-11T15:25:18.015Z</time></trkpt><trkpt lat="46.1612628" lon="9.7429796"><ele>270.0</ele><time>2026-04-11T15:25:19.015Z</time></trkpt><trkpt lat="46.1612777" lon="9.7427542"><ele>270.0</ele><time>2026-04-11T15:25:20.014Z</time></trkpt><trkpt lat="46.1612936" lon="9.7425258"><ele>270.0</ele><time>2026-04-11T15:25:21.015Z</time></trkpt><trkpt lat="46.1613087" lon="9.7423057"><ele>270.0</ele><time>2026-04-11T15:25:22.014Z</time></trkpt><trkpt lat="46.1613263" lon="9.7420903"><ele>270.0</ele><time>2026-04-11T15:25:23.015Z</time></trkpt><trkpt lat="46.1613453" lon="9.7418788"><ele>270.0</ele><time>2026-04-11T15:25:24.015Z</time></trkpt><trkpt lat="46.1613641" lon="9.7416655"><ele>270.0</ele><time>2026-04-11T15:25:25.015Z</time></trkpt><trkpt lat="46.1613784" lon="9.7414646"><ele>270.0</ele><time>2026-04-11T15:25:26.015Z</time></trkpt><trkpt lat="46.1613931" lon="9.7412663"><ele>270.0</ele><time>2026-04-11T15:25:27.015Z</time></trkpt><trkpt lat="46.161409" lon="9.7410702"><ele>270.0</ele><time>2026-04-11T15:25:28.015Z</time></trkpt><trkpt lat="46.1614248" lon="9.7408881"><ele>270.0</ele><time>2026-04-11T15:25:29.015Z</time></trkpt><trkpt lat="46.1614396" lon="9.7407003"><ele>270.0</ele><time>2026-04-11T15:25:30.015Z</time></trkpt><trkpt lat="46.1614556" lon="9.7405036"><ele>270.0</ele><time>2026-04-11T15:25:31.015Z</time></trkpt><trkpt lat="46.1614747" lon="9.7402896"><ele>270.0</ele><time>2026-04-11T15:25:32.014Z</time></trkpt><trkpt lat="46.1614926" lon="9.7400627"><ele>270.0</ele><time>2026-04-11T15:25:33.015Z</time></trkpt><trkpt lat="46.1615136" lon="9.7398193"><ele>270.0</ele><time>2026-04-11T15:25:34.015Z</time></trkpt><trkpt lat="46.1615326" lon="9.7395743"><ele>270.0</ele><time>2026-04-11T15:25:35.015Z</time></trkpt><trkpt lat="46.1615473" lon="9.739322"><ele>270.0</ele><time>2026-04-11T15:25:36.015Z</time></trkpt><trkpt lat="46.1615646" lon="9.7390678"><ele>270.0</ele><time>2026-04-11T15:25:37.015Z</time></trkpt><trkpt lat="46.1615846" lon="9.7388179"><ele>270.0</ele><time>2026-04-11T15:25:38.015Z</time></trkpt><trkpt lat="46.1616051" lon="9.7385708"><ele>270.0</ele><time>2026-04-11T15:25:39.015Z</time></trkpt><trkpt lat="46.1616248" lon="9.73833"><ele>269.6666666666667</ele><time>2026-04-11T15:25:40.015Z</time></trkpt><trkpt lat="46.1616413" lon="9.7380912"><ele>269.33333333333337</ele><time>2026-04-11T15:25:41.014Z</time></trkpt><trkpt lat="46.1616555" lon="9.7378566"><ele>269.0</ele><time>2026-04-11T15:25:42.015Z</time></trkpt><trkpt lat="46.1616751" lon="9.7376178"><ele>268.33333333333337</ele><time>2026-04-11T15:25:43.015Z</time></trkpt><trkpt lat="46.1616939" lon="9.7373845"><ele>267.6666666666667</ele><time>2026-04-11T15:25:44.015Z</time></trkpt><trkpt lat="46.161713" lon="9.7371442"><ele>267.0</ele><time>2026-04-11T15:25:45.015Z</time></trkpt><trkpt lat="46.1617271" lon="9.7369074"><ele>267.0</ele><time>2026-04-11T15:25:46.015Z</time></trkpt><trkpt lat="46.161745" lon="9.7366647"><ele>267.0</ele><time>2026-04-11T15:25:47.015Z</time></trkpt><trkpt lat="46.1617622" lon="9.7364237"><ele>267.0</ele><time>2026-04-11T15:25:48.015Z</time></trkpt><trkpt lat="46.1617824" lon="9.7361767"><ele>267.0</ele><time>2026-04-11T15:25:49.015Z</time></trkpt><trkpt lat="46.1618038" lon="9.7359281"><ele>267.0</ele><time>2026-04-11T15:25:50.015Z</time></trkpt><trkpt lat="46.161826" lon="9.7356906"><ele>267.0</ele><time>2026-04-11T15:25:51.014Z</time></trkpt><trkpt lat="46.1618449" lon="9.7354328"><ele>267.0</ele><time>2026-04-11T15:25:52.015Z</time></trkpt><trkpt lat="46.1618635" lon="9.7351814"><ele>267.0</ele><time>2026-04-11T15:25:53.014Z</time></trkpt><trkpt lat="46.1618838" lon="9.734933"><ele>267.0</ele><time>2026-04-11T15:25:54.015Z</time></trkpt><trkpt lat="46.1619084" lon="9.7346846"><ele>267.0</ele><time>2026-04-11T15:25:55.015Z</time></trkpt><trkpt lat="46.1619296" lon="9.7344351"><ele>267.0</ele><time>2026-04-11T15:25:56.015Z</time></trkpt><trkpt lat="46.1619461" lon="9.7341898"><ele>267.0</ele><time>2026-04-11T15:25:57.015Z</time></trkpt><trkpt lat="46.1619667" lon="9.7339328"><ele>267.3333333333333</ele><time>2026-04-11T15:25:58.015Z</time></trkpt><trkpt lat="46.1619873" lon="9.7336878"><ele>267.66666666666663</ele><time>2026-04-11T15:25:59.015Z</time></trkpt><trkpt lat="46.1620066" lon="9.7334355"><ele>268.0</ele><time>2026-04-11T15:26:00.015Z</time></trkpt><trkpt lat="46.1620259" lon="9.7331803"><ele>268.0</ele><time>2026-04-11T15:26:01.015Z</time></trkpt><trkpt lat="46.1620482" lon="9.732927"><ele>268.0</ele><time>2026-04-11T15:26:02.015Z</time></trkpt><trkpt lat="46.162065" lon="9.7326787"><ele>268.0</ele><time>2026-04-11T15:26:03.015Z</time></trkpt><trkpt lat="46.1620833" lon="9.7324412"><ele>267.66666666666663</ele><time>2026-04-11T15:26:04.015Z</time></trkpt><trkpt lat="46.1621018" lon="9.7321972"><ele>267.3333333333333</ele><time>2026-04-11T15:26:05.015Z</time></trkpt><trkpt lat="46.1621231" lon="9.7319464"><ele>267.0</ele><time>2026-04-11T15:26:06.015Z</time></trkpt><trkpt lat="46.162143" lon="9.731685"><ele>267.0</ele><time>2026-04-11T15:26:07.015Z</time></trkpt><trkpt lat="46.1621681" lon="9.7314068"><ele>267.0</ele><time>2026-04-11T15:26:08.015Z</time></trkpt><trkpt lat="46.1621993" lon="9.7311162"><ele>267.0</ele><time>2026-04-11T15:26:09.015Z</time></trkpt><trkpt lat="46.1622225" lon="9.7308402"><ele>267.0</ele><time>2026-04-11T15:26:10.015Z</time></trkpt><trkpt lat="46.1622403" lon="9.7305835"><ele>267.0</ele><time>2026-04-11T15:26:11.015Z</time></trkpt><trkpt lat="46.1622613" lon="9.7303293"><ele>267.0</ele><time>2026-04-11T15:26:12.015Z</time></trkpt><trkpt lat="46.1622811" lon="9.730064"><ele>267.0</ele><time>2026-04-11T15:26:13.014Z</time></trkpt><trkpt lat="46.1623" lon="9.7298037"><ele>267.0</ele><time>2026-04-11T15:26:14.015Z</time></trkpt><trkpt lat="46.16232" lon="9.7295425"><ele>267.0</ele><time>2026-04-11T15:26:15.015Z</time></trkpt><trkpt lat="46.1623434" lon="9.7292721"><ele>267.0</ele><time>2026-04-11T15:26:16.015Z</time></trkpt><trkpt lat="46.1623632" lon="9.7290024"><ele>267.0</ele><time>2026-04-11T15:26:17.015Z</time></trkpt><trkpt lat="46.1623817" lon="9.728732"><ele>267.0</ele><time>2026-04-11T15:26:18.015Z</time></trkpt><trkpt lat="46.162405" lon="9.7284537"><ele>267.0</ele><time>2026-04-11T15:26:19.015Z</time></trkpt><trkpt lat="46.1624211" lon="9.7281692"><ele>267.0</ele><time>2026-04-11T15:26:20.014Z</time></trkpt><trkpt lat="46.1624429" lon="9.7278703"><ele>267.0</ele><time>2026-04-11T15:26:21.015Z</time></trkpt><trkpt lat="46.1624683" lon="9.7275739"><ele>267.0</ele><time>2026-04-11T15:26:22.015Z</time></trkpt><trkpt lat="46.1624884" lon="9.7272762"><ele>267.0</ele><time>2026-04-11T15:26:23.015Z</time></trkpt><trkpt lat="46.1625062" lon="9.7269668"><ele>267.0</ele><time>2026-04-11T15:26:24.015Z</time></trkpt><trkpt lat="46.1625237" lon="9.7266658"><ele>266.6666666666667</ele><time>2026-04-11T15:26:25.015Z</time></trkpt><trkpt lat="46.162542" lon="9.7263559"><ele>266.33333333333337</ele><time>2026-04-11T15:26:26.015Z</time></trkpt><trkpt lat="46.1625571" lon="9.7260459"><ele>266.0</ele><time>2026-04-11T15:26:27.015Z</time></trkpt><trkpt lat="46.1625724" lon="9.7257316"><ele>266.0</ele><time>2026-04-11T15:26:28.014Z</time></trkpt><trkpt lat="46.1625832" lon="9.7254248"><ele>266.0</ele><time>2026-04-11T15:26:29.015Z</time></trkpt><trkpt lat="46.1625934" lon="9.7251248"><ele>266.0</ele><time>2026-04-11T15:26:30.015Z</time></trkpt><trkpt lat="46.1626025" lon="9.7248193"><ele>266.33333333333337</ele><time>2026-04-11T15:26:31.015Z</time></trkpt><trkpt lat="46.1626114" lon="9.7245194"><ele>266.6666666666667</ele><time>2026-04-11T15:26:32.015Z</time></trkpt><trkpt lat="46.1626222" lon="9.7242213"><ele>267.0</ele><time>2026-04-11T15:26:33.015Z</time></trkpt><trkpt lat="46.1626304" lon="9.7239253"><ele>267.0</ele><time>2026-04-11T15:26:34.015Z</time></trkpt><trkpt lat="46.1626425" lon="9.7236392"><ele>267.0</ele><time>2026-04-11T15:26:35.015Z</time></trkpt><trkpt lat="46.1626553" lon="9.7233548"><ele>267.0</ele><time>2026-04-11T15:26:36.015Z</time></trkpt><trkpt lat="46.1626655" lon="9.7230731"><ele>267.0</ele><time>2026-04-11T15:26:37.015Z</time></trkpt><trkpt lat="46.1626739" lon="9.7227936"><ele>267.0</ele><time>2026-04-11T15:26:38.014Z</time></trkpt><trkpt lat="46.1626849" lon="9.7225231"><ele>267.0</ele><time>2026-04-11T15:26:39.015Z</time></trkpt><trkpt lat="46.1626935" lon="9.7222623"><ele>266.6666666666667</ele><time>2026-04-11T15:26:40.015Z</time></trkpt><trkpt lat="46.1627033" lon="9.722003"><ele>266.33333333333337</ele><time>2026-04-11T15:26:41.015Z</time></trkpt><trkpt lat="46.1627101" lon="9.7217408"><ele>266.0</ele><time>2026-04-11T15:26:42.015Z</time></trkpt><trkpt lat="46.1627184" lon="9.7214793"><ele>266.0</ele><time>2026-04-11T15:26:43.015Z</time></trkpt><trkpt lat="46.1627287" lon="9.7212165"><ele>266.0</ele><time>2026-04-11T15:26:44.014Z</time></trkpt><trkpt lat="46.1627421" lon="9.7209521"><ele>266.0</ele><time>2026-04-11T15:26:45.015Z</time></trkpt><trkpt lat="46.1627536" lon="9.7206916"><ele>266.0</ele><time>2026-04-11T15:26:46.015Z</time></trkpt><trkpt lat="46.1627642" lon="9.7204256"><ele>266.0</ele><time>2026-04-11T15:26:47.015Z</time></trkpt><trkpt lat="46.1627724" lon="9.7201616"><ele>266.0</ele><time>2026-04-11T15:26:48.015Z</time></trkpt><trkpt lat="46.1627824" lon="9.7198902"><ele>266.6666666666667</ele><time>2026-04-11T15:26:49.014Z</time></trkpt><trkpt lat="46.1627921" lon="9.7196274"><ele>267.3333333333333</ele><time>2026-04-11T15:26:50.015Z</time></trkpt><trkpt lat="46.1628029" lon="9.7193592"><ele>268.0</ele><time>2026-04-11T15:26:51.015Z</time></trkpt><trkpt lat="46.1628106" lon="9.7190959"><ele>268.0</ele><time>2026-04-11T15:26:52.015Z</time></trkpt><trkpt lat="46.1628175" lon="9.7188318"><ele>268.0</ele><time>2026-04-11T15:26:53.015Z</time></trkpt><trkpt lat="46.1628309" lon="9.7185762"><ele>268.0</ele><time>2026-04-11T15:26:54.015Z</time></trkpt><trkpt lat="46.1628411" lon="9.718338"><ele>267.3333333333333</ele><time>2026-04-11T15:26:55.014Z</time></trkpt><trkpt lat="46.1628519" lon="9.7180958"><ele>266.6666666666667</ele><time>2026-04-11T15:26:56.015Z</time></trkpt><trkpt lat="46.1628616" lon="9.717857"><ele>266.0</ele><time>2026-04-11T15:26:57.015Z</time></trkpt><trkpt lat="46.1628716" lon="9.7176109"><ele>266.0</ele><time>2026-04-11T15:26:58.015Z</time></trkpt><trkpt lat="46.1628807" lon="9.7173594"><ele>266.0</ele><time>2026-04-11T15:26:59.015Z</time></trkpt><trkpt lat="46.1628872" lon="9.7171088"><ele>266.0</ele><time>2026-04-11T15:27:00.015Z</time></trkpt><trkpt lat="46.162896" lon="9.7168605"><ele>266.0</ele><time>2026-04-11T15:27:01.015Z</time></trkpt><trkpt lat="46.1629041" lon="9.716613"><ele>266.0</ele><time>2026-04-11T15:27:02.015Z</time></trkpt><trkpt lat="46.1629162" lon="9.7163593"><ele>266.0</ele><time>2026-04-11T15:27:03.015Z</time></trkpt><trkpt lat="46.1629296" lon="9.7161053"><ele>265.6666666666667</ele><time>2026-04-11T15:27:04.015Z</time></trkpt><trkpt lat="46.1629375" lon="9.7158535"><ele>265.3333333333333</ele><time>2026-04-11T15:27:05.015Z</time></trkpt><trkpt lat="46.1629429" lon="9.7156048"><ele>265.0</ele><time>2026-04-11T15:27:06.015Z</time></trkpt><trkpt lat="46.1629528" lon="9.7153448"><ele>264.66666666666663</ele><time>2026-04-11T15:27:07.015Z</time></trkpt><trkpt lat="46.1629572" lon="9.7150917"><ele>264.3333333333333</ele><time>2026-04-11T15:27:08.015Z</time></trkpt><trkpt lat="46.1629635" lon="9.7148379"><ele>264.0</ele><time>2026-04-11T15:27:09.015Z</time></trkpt><trkpt lat="46.1629767" lon="9.7145855"><ele>264.0</ele><time>2026-04-11T15:27:10.015Z</time></trkpt><trkpt lat="46.1629871" lon="9.7143318"><ele>264.0</ele><time>2026-04-11T15:27:11.015Z</time></trkpt><trkpt lat="46.1629959" lon="9.7140757"><ele>264.0</ele><time>2026-04-11T15:27:12.015Z</time></trkpt><trkpt lat="46.1630066" lon="9.7138283"><ele>264.0</ele><time>2026-04-11T15:27:13.015Z</time></trkpt><trkpt lat="46.1630143" lon="9.7135769"><ele>264.0</ele><time>2026-04-11T15:27:14.015Z</time></trkpt><trkpt lat="46.1630243" lon="9.7133195"><ele>264.0</ele><time>2026-04-11T15:27:15.014Z</time></trkpt><trkpt lat="46.1630309" lon="9.7130572"><ele>264.3333333333333</ele><time>2026-04-11T15:27:16.015Z</time></trkpt><trkpt lat="46.1630376" lon="9.7127877"><ele>264.66666666666663</ele><time>2026-04-11T15:27:17.015Z</time></trkpt><trkpt lat="46.1630448" lon="9.7125098"><ele>265.0</ele><time>2026-04-11T15:27:18.015Z</time></trkpt><trkpt lat="46.1630511" lon="9.712246"><ele>265.0</ele><time>2026-04-11T15:27:19.015Z</time></trkpt><trkpt lat="46.1630577" lon="9.7119911"><ele>265.0</ele><time>2026-04-11T15:27:20.014Z</time></trkpt><trkpt lat="46.163063" lon="9.7117468"><ele>265.0</ele><time>2026-04-11T15:27:21.015Z</time></trkpt><trkpt lat="46.1630701" lon="9.7115153"><ele>265.25</ele><time>2026-04-11T15:27:22.015Z</time></trkpt><trkpt lat="46.1630855" lon="9.7113042"><ele>265.5</ele><time>2026-04-11T15:27:23.014Z</time></trkpt><trkpt lat="46.1630891" lon="9.7111066"><ele>265.75</ele><time>2026-04-11T15:27:24.015Z</time></trkpt><trkpt lat="46.1630938" lon="9.7109175"><ele>266.0</ele><time>2026-04-11T15:27:25.015Z</time></trkpt><trkpt lat="46.1631001" lon="9.7107248"><ele>266.0</ele><time>2026-04-11T15:27:26.015Z</time></trkpt><trkpt lat="46.1631008" lon="9.7105329"><ele>266.0</ele><time>2026-04-11T15:27:27.014Z</time></trkpt><trkpt lat="46.1631109" lon="9.7103126"><ele>266.0</ele><time>2026-04-11T15:27:28.015Z</time></trkpt><trkpt lat="46.1631158" lon="9.7100722"><ele>266.0</ele><time>2026-04-11T15:27:29.015Z</time></trkpt><trkpt lat="46.1631223" lon="9.7098063"><ele>266.0</ele><time>2026-04-11T15:27:30.015Z</time></trkpt><trkpt lat="46.1631342" lon="9.7095061"><ele>266.0</ele><time>2026-04-11T15:27:31.015Z</time></trkpt><trkpt lat="46.163149" lon="9.7092139"><ele>266.0</ele><time>2026-04-11T15:27:32.015Z</time></trkpt><trkpt lat="46.1631619" lon="9.7089275"><ele>266.0</ele><time>2026-04-11T15:27:33.015Z</time></trkpt><trkpt lat="46.1631765" lon="9.7086311"><ele>266.0</ele><time>2026-04-11T15:27:34.015Z</time></trkpt><trkpt lat="46.163182" lon="9.7083175"><ele>266.0</ele><time>2026-04-11T15:27:35.015Z</time></trkpt><trkpt lat="46.1631883" lon="9.7079936"><ele>266.0</ele><time>2026-04-11T15:27:36.015Z</time></trkpt><trkpt lat="46.1631969" lon="9.7076643"><ele>266.5</ele><time>2026-04-11T15:27:37.015Z</time></trkpt><trkpt lat="46.1632095" lon="9.7073256"><ele>267.0</ele><time>2026-04-11T15:27:38.015Z</time></trkpt><trkpt lat="46.1632217" lon="9.7069842"><ele>266.6666666666667</ele><time>2026-04-11T15:27:39.015Z</time></trkpt><trkpt lat="46.163238" lon="9.7066682"><ele>266.33333333333337</ele><time>2026-04-11T15:27:40.015Z</time></trkpt><trkpt lat="46.1632505" lon="9.7063668"><ele>266.0</ele><time>2026-04-11T15:27:41.014Z</time></trkpt><trkpt lat="46.1632673" lon="9.7060777"><ele>265.6666666666667</ele><time>2026-04-11T15:27:42.015Z</time></trkpt><trkpt lat="46.1632724" lon="9.7058124"><ele>265.3333333333333</ele><time>2026-04-11T15:27:43.015Z</time></trkpt><trkpt lat="46.1632859" lon="9.7055587"><ele>265.0</ele><time>2026-04-11T15:27:44.015Z</time></trkpt><trkpt lat="46.1632963" lon="9.7053207"><ele>265.0</ele><time>2026-04-11T15:27:45.015Z</time></trkpt><trkpt lat="46.1633066" lon="9.7050946"><ele>265.0</ele><time>2026-04-11T15:27:46.015Z</time></trkpt><trkpt lat="46.1633167" lon="9.7048845"><ele>265.0</ele><time>2026-04-11T15:27:47.015Z</time></trkpt><trkpt lat="46.1633251" lon="9.704684"><ele>265.0</ele><time>2026-04-11T15:27:48.015Z</time></trkpt><trkpt lat="46.1633323" lon="9.7044697"><ele>265.0</ele><time>2026-04-11T15:27:49.015Z</time></trkpt><trkpt lat="46.1633354" lon="9.7042503"><ele>265.0</ele><time>2026-04-11T15:27:50.015Z</time></trkpt><trkpt lat="46.1633429" lon="9.7040307"><ele>265.0</ele><time>2026-04-11T15:27:51.015Z</time></trkpt><trkpt lat="46.1633544" lon="9.7038101"><ele>265.0</ele><time>2026-04-11T15:27:52.015Z</time></trkpt><trkpt lat="46.1633638" lon="9.7035868"><ele>265.0</ele><time>2026-04-11T15:27:53.015Z</time></trkpt><trkpt lat="46.163374" lon="9.7033511"><ele>265.0</ele><time>2026-04-11T15:27:54.014Z</time></trkpt><trkpt lat="46.1633808" lon="9.7031195"><ele>264.66666666666663</ele><time>2026-04-11T15:27:55.015Z</time></trkpt><trkpt lat="46.1633878" lon="9.7028958"><ele>264.3333333333333</ele><time>2026-04-11T15:27:56.015Z</time></trkpt><trkpt lat="46.1633943" lon="9.7026785"><ele>264.0</ele><time>2026-04-11T15:27:57.015Z</time></trkpt><trkpt lat="46.1634034" lon="9.7024667"><ele>264.6666666666667</ele><time>2026-04-11T15:27:58.016Z</time></trkpt><trkpt lat="46.163409" lon="9.7022457"><ele>265.33333333333337</ele><time>2026-04-11T15:27:59.016Z</time></trkpt><trkpt lat="46.1634157" lon="9.702015"><ele>266.0</ele><time>2026-04-11T15:28:00.016Z</time></trkpt><trkpt lat="46.1634224" lon="9.701757"><ele>266.0</ele><time>2026-04-11T15:28:01.016Z</time></trkpt><trkpt lat="46.1634276" lon="9.7014749"><ele>266.0</ele><time>2026-04-11T15:28:02.016Z</time></trkpt><trkpt lat="46.1634395" lon="9.7011824"><ele>266.0</ele><time>2026-04-11T15:28:03.016Z</time></trkpt><trkpt lat="46.1634553" lon="9.7008957"><ele>266.0</ele><time>2026-04-11T15:28:04.016Z</time></trkpt><trkpt lat="46.1634655" lon="9.7006111"><ele>266.0</ele><time>2026-04-11T15:28:05.015Z</time></trkpt><trkpt lat="46.163475" lon="9.7003216"><ele>266.0</ele><time>2026-04-11T15:28:06.016Z</time></trkpt><trkpt lat="46.1634823" lon="9.700033"><ele>266.0</ele><time>2026-04-11T15:28:07.016Z</time></trkpt><trkpt lat="46.163492" lon="9.6997454"><ele>266.0</ele><time>2026-04-11T15:28:08.016Z</time></trkpt><trkpt lat="46.1635024" lon="9.6994589"><ele>266.0</ele><time>2026-04-11T15:28:09.016Z</time></trkpt><trkpt lat="46.1635166" lon="9.6991892"><ele>266.0</ele><time>2026-04-11T15:28:10.016Z</time></trkpt><trkpt lat="46.1635283" lon="9.6989406"><ele>266.0</ele><time>2026-04-11T15:28:11.016Z</time></trkpt><trkpt lat="46.1635391" lon="9.698713"><ele>266.0</ele><time>2026-04-11T15:28:12.016Z</time></trkpt><trkpt lat="46.1635483" lon="9.6985073"><ele>266.0</ele><time>2026-04-11T15:28:13.016Z</time></trkpt><trkpt lat="46.1635584" lon="9.6983128"><ele>266.0</ele><time>2026-04-11T15:28:14.016Z</time></trkpt><trkpt lat="46.163566" lon="9.6981246"><ele>266.0</ele><time>2026-04-11T15:28:15.016Z</time></trkpt><trkpt lat="46.163573" lon="9.6979377"><ele>266.0</ele><time>2026-04-11T15:28:16.016Z</time></trkpt><trkpt lat="46.1635792" lon="9.6977381"><ele>266.0</ele><time>2026-04-11T15:28:17.016Z</time></trkpt><trkpt lat="46.1635827" lon="9.6975367"><ele>266.0</ele><time>2026-04-11T15:28:18.016Z</time></trkpt><trkpt lat="46.1635914" lon="9.6973131"><ele>266.0</ele><time>2026-04-11T15:28:19.016Z</time></trkpt><trkpt lat="46.1635944" lon="9.6970696"><ele>266.0</ele><time>2026-04-11T15:28:20.016Z</time></trkpt><trkpt lat="46.1635996" lon="9.6968064"><ele>266.0</ele><time>2026-04-11T15:28:21.016Z</time></trkpt><trkpt lat="46.163612" lon="9.6965484"><ele>266.0</ele><time>2026-04-11T15:28:22.016Z</time></trkpt><trkpt lat="46.1636227" lon="9.6962973"><ele>266.0</ele><time>2026-04-11T15:28:23.016Z</time></trkpt><trkpt lat="46.1636363" lon="9.6960574"><ele>266.0</ele><time>2026-04-11T15:28:24.016Z</time></trkpt><trkpt lat="46.1636459" lon="9.6958152"><ele>266.0</ele><time>2026-04-11T15:28:25.016Z</time></trkpt><trkpt lat="46.1636571" lon="9.6955854"><ele>266.0</ele><time>2026-04-11T15:28:26.015Z</time></trkpt><trkpt lat="46.1636639" lon="9.6953672"><ele>266.0</ele><time>2026-04-11T15:28:27.015Z</time></trkpt><trkpt lat="46.1636683" lon="9.6951426"><ele>266.0</ele><time>2026-04-11T15:28:28.016Z</time></trkpt><trkpt lat="46.1636771" lon="9.6949165"><ele>266.0</ele><time>2026-04-11T15:28:29.016Z</time></trkpt><trkpt lat="46.163686" lon="9.6946914"><ele>266.0</ele><time>2026-04-11T15:28:30.016Z</time></trkpt><trkpt lat="46.1636877" lon="9.6944605"><ele>266.0</ele><time>2026-04-11T15:28:31.016Z</time></trkpt><trkpt lat="46.163689" lon="9.6942095"><ele>265.6666666666667</ele><time>2026-04-11T15:28:32.016Z</time></trkpt><trkpt lat="46.1636875" lon="9.6939356"><ele>265.3333333333333</ele><time>2026-04-11T15:28:33.016Z</time></trkpt><trkpt lat="46.1636957" lon="9.6936575"><ele>265.0</ele><time>2026-04-11T15:28:34.016Z</time></trkpt><trkpt lat="46.1637061" lon="9.6933802"><ele>265.0</ele><time>2026-04-11T15:28:35.016Z</time></trkpt><trkpt lat="46.1637269" lon="9.6931"><ele>265.0</ele><time>2026-04-11T15:28:36.016Z</time></trkpt><trkpt lat="46.1637457" lon="9.6928186"><ele>265.0</ele><time>2026-04-11T15:28:37.016Z</time></trkpt><trkpt lat="46.1637538" lon="9.6925378"><ele>265.0</ele><time>2026-04-11T15:28:38.016Z</time></trkpt><trkpt lat="46.1637624" lon="9.6922625"><ele>265.0</ele><time>2026-04-11T15:28:39.016Z</time></trkpt><trkpt lat="46.1637726" lon="9.6919941"><ele>265.0</ele><time>2026-04-11T15:28:40.016Z</time></trkpt><trkpt lat="46.1637806" lon="9.6917239"><ele>265.0</ele><time>2026-04-11T15:28:41.016Z</time></trkpt><trkpt lat="46.1637875" lon="9.6914503"><ele>265.0</ele><time>2026-04-11T15:28:42.016Z</time></trkpt><trkpt lat="46.1638025" lon="9.6911749"><ele>265.0</ele><time>2026-04-11T15:28:43.016Z</time></trkpt><trkpt lat="46.1638151" lon="9.6909035"><ele>265.0</ele><time>2026-04-11T15:28:44.016Z</time></trkpt><trkpt lat="46.1638292" lon="9.6906263"><ele>265.0</ele><time>2026-04-11T15:28:45.016Z</time></trkpt><trkpt lat="46.1638416" lon="9.6903517"><ele>265.0</ele><time>2026-04-11T15:28:46.016Z</time></trkpt><trkpt lat="46.1638587" lon="9.6900805"><ele>265.0</ele><time>2026-04-11T15:28:47.016Z</time></trkpt><trkpt lat="46.1638733" lon="9.6898114"><ele>265.0</ele><time>2026-04-11T15:28:48.016Z</time></trkpt><trkpt lat="46.1638832" lon="9.6895321"><ele>265.0</ele><time>2026-04-11T15:28:49.016Z</time></trkpt><trkpt lat="46.1638929" lon="9.6892479"><ele>265.0</ele><time>2026-04-11T15:28:50.016Z</time></trkpt><trkpt lat="46.1638987" lon="9.6889557"><ele>265.0</ele><time>2026-04-11T15:28:51.016Z</time></trkpt><trkpt lat="46.1639041" lon="9.6886513"><ele>265.0</ele><time>2026-04-11T15:28:52.016Z</time></trkpt><trkpt lat="46.1639159" lon="9.6883501"><ele>265.0</ele><time>2026-04-11T15:28:53.016Z</time></trkpt><trkpt lat="46.1639318" lon="9.6880534"><ele>265.0</ele><time>2026-04-11T15:28:54.016Z</time></trkpt><trkpt lat="46.1639413" lon="9.687755"><ele>265.0</ele><time>2026-04-11T15:28:55.016Z</time></trkpt><trkpt lat="46.1639564" lon="9.6874585"><ele>264.66666666666663</ele><time>2026-04-11T15:28:56.016Z</time></trkpt><trkpt lat="46.163966" lon="9.6871693"><ele>264.3333333333333</ele><time>2026-04-11T15:28:57.016Z</time></trkpt><trkpt lat="46.1639754" lon="9.6868726"><ele>264.0</ele><time>2026-04-11T15:28:58.016Z</time></trkpt><trkpt lat="46.1639911" lon="9.6865762"><ele>264.0</ele><time>2026-04-11T15:28:59.016Z</time></trkpt><trkpt lat="46.1640007" lon="9.6862775"><ele>264.0</ele><time>2026-04-11T15:29:00.016Z</time></trkpt><trkpt lat="46.164009" lon="9.6859749"><ele>264.0</ele><time>2026-04-11T15:29:01.015Z</time></trkpt><trkpt lat="46.1640158" lon="9.6856715"><ele>264.0</ele><time>2026-04-11T15:29:02.016Z</time></trkpt><trkpt lat="46.1640201" lon="9.6853677"><ele>264.0</ele><time>2026-04-11T15:29:03.016Z</time></trkpt><trkpt lat="46.1640302" lon="9.6850652"><ele>264.0</ele><time>2026-04-11T15:29:04.015Z</time></trkpt><trkpt lat="46.1640421" lon="9.6847596"><ele>264.0</ele><time>2026-04-11T15:29:05.016Z</time></trkpt><trkpt lat="46.1640527" lon="9.684453"><ele>264.0</ele><time>2026-04-11T15:29:06.016Z</time></trkpt><trkpt lat="46.16406" lon="9.6841483"><ele>264.0</ele><time>2026-04-11T15:29:07.016Z</time></trkpt><trkpt lat="46.1640695" lon="9.6838351"><ele>264.3333333333333</ele><time>2026-04-11T15:29:08.016Z</time></trkpt><trkpt lat="46.1640837" lon="9.6835188"><ele>264.66666666666663</ele><time>2026-04-11T15:29:09.016Z</time></trkpt><trkpt lat="46.1640923" lon="9.6832117"><ele>265.0</ele><time>2026-04-11T15:29:10.016Z</time></trkpt><trkpt lat="46.1641019" lon="9.6829128"><ele>265.0</ele><time>2026-04-11T15:29:11.016Z</time></trkpt><trkpt lat="46.1641138" lon="9.682616"><ele>265.0</ele><time>2026-04-11T15:29:12.016Z</time></trkpt><trkpt lat="46.1641306" lon="9.6823228"><ele>265.0</ele><time>2026-04-11T15:29:13.016Z</time></trkpt><trkpt lat="46.164143" lon="9.6820395"><ele>264.66666666666663</ele><time>2026-04-11T15:29:14.016Z</time></trkpt><trkpt lat="46.1641572" lon="9.6817541"><ele>264.3333333333333</ele><time>2026-04-11T15:29:15.016Z</time></trkpt><trkpt lat="46.164171" lon="9.6814638"><ele>264.0</ele><time>2026-04-11T15:29:16.016Z</time></trkpt><trkpt lat="46.1641847" lon="9.6811644"><ele>263.6666666666667</ele><time>2026-04-11T15:29:17.016Z</time></trkpt><trkpt lat="46.1641962" lon="9.6808604"><ele>263.33333333333337</ele><time>2026-04-11T15:29:18.016Z</time></trkpt><trkpt lat="46.164207" lon="9.6805703"><ele>263.0</ele><time>2026-04-11T15:29:19.016Z</time></trkpt><trkpt lat="46.1642172" lon="9.6802755"><ele>263.0</ele><time>2026-04-11T15:29:20.015Z</time></trkpt><trkpt lat="46.1642211" lon="9.6799798"><ele>263.0</ele><time>2026-04-11T15:29:21.015Z</time></trkpt><trkpt lat="46.1642275" lon="9.6796799"><ele>263.0</ele><time>2026-04-11T15:29:22.016Z</time></trkpt><trkpt lat="46.1642316" lon="9.6793796"><ele>263.33333333333337</ele><time>2026-04-11T15:29:23.016Z</time></trkpt><trkpt lat="46.1642348" lon="9.6790785"><ele>263.6666666666667</ele><time>2026-04-11T15:29:24.016Z</time></trkpt><trkpt lat="46.1642442" lon="9.678775"><ele>264.0</ele><time>2026-04-11T15:29:25.016Z</time></trkpt><trkpt lat="46.1642521" lon="9.6784675"><ele>264.0</ele><time>2026-04-11T15:29:26.016Z</time></trkpt><trkpt lat="46.1642651" lon="9.6781596"><ele>264.0</ele><time>2026-04-11T15:29:27.016Z</time></trkpt><trkpt lat="46.1642809" lon="9.6778554"><ele>264.0</ele><time>2026-04-11T15:29:28.016Z</time></trkpt><trkpt lat="46.1642925" lon="9.6775509"><ele>263.3333333333333</ele><time>2026-04-11T15:29:29.016Z</time></trkpt><trkpt lat="46.1643039" lon="9.6772479"><ele>262.66666666666663</ele><time>2026-04-11T15:29:30.016Z</time></trkpt><trkpt lat="46.1643121" lon="9.6769412"><ele>262.0</ele><time>2026-04-11T15:29:31.016Z</time></trkpt><trkpt lat="46.1643246" lon="9.676641"><ele>262.0</ele><time>2026-04-11T15:29:32.016Z</time></trkpt><trkpt lat="46.164344" lon="9.6763417"><ele>262.0</ele><time>2026-04-11T15:29:33.015Z</time></trkpt><trkpt lat="46.164359" lon="9.6760441"><ele>262.0</ele><time>2026-04-11T15:29:34.016Z</time></trkpt><trkpt lat="46.1643797" lon="9.6757422"><ele>262.0</ele><time>2026-04-11T15:29:35.016Z</time></trkpt><trkpt lat="46.1643894" lon="9.6754456"><ele>262.0</ele><time>2026-04-11T15:29:36.015Z</time></trkpt><trkpt lat="46.1644003" lon="9.6751482"><ele>262.0</ele><time>2026-04-11T15:29:37.016Z</time></trkpt><trkpt lat="46.1644046" lon="9.6748531"><ele>262.0</ele><time>2026-04-11T15:29:38.016Z</time></trkpt><trkpt lat="46.1644104" lon="9.6745428"><ele>262.0</ele><time>2026-04-11T15:29:39.015Z</time></trkpt><trkpt lat="46.1644108" lon="9.6742367"><ele>262.0</ele><time>2026-04-11T15:29:40.016Z</time></trkpt><trkpt lat="46.1644204" lon="9.6739277"><ele>262.3333333333333</ele><time>2026-04-11T15:29:41.016Z</time></trkpt><trkpt lat="46.1644323" lon="9.6736188"><ele>262.6666666666667</ele><time>2026-04-11T15:29:42.015Z</time></trkpt><trkpt lat="46.1644413" lon="9.6733076"><ele>263.0</ele><time>2026-04-11T15:29:43.015Z</time></trkpt><trkpt lat="46.1644501" lon="9.6729906"><ele>263.0</ele><time>2026-04-11T15:29:44.016Z</time></trkpt><trkpt lat="46.1644644" lon="9.6726701"><ele>263.0</ele><time>2026-04-11T15:29:45.016Z</time></trkpt><trkpt lat="46.1644752" lon="9.6723455"><ele>263.0</ele><time>2026-04-11T15:29:46.016Z</time></trkpt><trkpt lat="46.1644858" lon="9.6720217"><ele>263.0</ele><time>2026-04-11T15:29:47.015Z</time></trkpt><trkpt lat="46.164494" lon="9.6716954"><ele>263.0</ele><time>2026-04-11T15:29:48.016Z</time></trkpt><trkpt lat="46.1645081" lon="9.6713764"><ele>263.0</ele><time>2026-04-11T15:29:49.016Z</time></trkpt><trkpt lat="46.1645185" lon="9.671065"><ele>263.0</ele><time>2026-04-11T15:29:50.015Z</time></trkpt><trkpt lat="46.1645276" lon="9.6707684"><ele>263.0</ele><time>2026-04-11T15:29:51.016Z</time></trkpt><trkpt lat="46.1645373" lon="9.6704878"><ele>263.0</ele><time>2026-04-11T15:29:52.016Z</time></trkpt><trkpt lat="46.1645469" lon="9.6702106"><ele>263.0</ele><time>2026-04-11T15:29:53.016Z</time></trkpt><trkpt lat="46.1645543" lon="9.6699377"><ele>263.0</ele><time>2026-04-11T15:29:54.016Z</time></trkpt><trkpt lat="46.164561" lon="9.669661"><ele>263.0</ele><time>2026-04-11T15:29:55.016Z</time></trkpt><trkpt lat="46.1645675" lon="9.6693996"><ele>263.0</ele><time>2026-04-11T15:29:56.016Z</time></trkpt><trkpt lat="46.1645707" lon="9.6691515"><ele>263.0</ele><time>2026-04-11T15:29:57.016Z</time></trkpt><trkpt lat="46.164579" lon="9.6689037"><ele>263.0</ele><time>2026-04-11T15:29:58.016Z</time></trkpt><trkpt lat="46.1645876" lon="9.6686432"><ele>263.33333333333337</ele><time>2026-04-11T15:29:59.016Z</time></trkpt><trkpt lat="46.1645894" lon="9.6683741"><ele>263.6666666666667</ele><time>2026-04-11T15:30:00.016Z</time></trkpt><trkpt lat="46.1645999" lon="9.6681024"><ele>264.0</ele><time>2026-04-11T15:30:01.016Z</time></trkpt><trkpt lat="46.1646084" lon="9.6678245"><ele>264.0</ele><time>2026-04-11T15:30:02.016Z</time></trkpt><trkpt lat="46.1646258" lon="9.6675429"><ele>264.0</ele><time>2026-04-11T15:30:03.016Z</time></trkpt><trkpt lat="46.1646488" lon="9.6672632"><ele>264.0</ele><time>2026-04-11T15:30:04.016Z</time></trkpt><trkpt lat="46.1646708" lon="9.6669971"><ele>263.0</ele><time>2026-04-11T15:30:05.016Z</time></trkpt><trkpt lat="46.164684" lon="9.6667286"><ele>262.0</ele><time>2026-04-11T15:30:06.016Z</time></trkpt><trkpt lat="46.1646943" lon="9.6664709"><ele>261.0</ele><time>2026-04-11T15:30:07.016Z</time></trkpt><trkpt lat="46.1647008" lon="9.6662193"><ele>261.0</ele><time>2026-04-11T15:30:08.016Z</time></trkpt><trkpt lat="46.1647048" lon="9.6659843"><ele>261.0</ele><time>2026-04-11T15:30:09.015Z</time></trkpt><trkpt lat="46.1647087" lon="9.6657551"><ele>261.0</ele><time>2026-04-11T15:30:10.016Z</time></trkpt><trkpt lat="46.1647165" lon="9.6655297"><ele>261.0</ele><time>2026-04-11T15:30:11.015Z</time></trkpt><trkpt lat="46.164724" lon="9.6653039"><ele>261.0</ele><time>2026-04-11T15:30:12.016Z</time></trkpt><trkpt lat="46.1647277" lon="9.6650834"><ele>261.0</ele><time>2026-04-11T15:30:13.016Z</time></trkpt><trkpt lat="46.1647359" lon="9.6648568"><ele>261.3333333333333</ele><time>2026-04-11T15:30:14.016Z</time></trkpt><trkpt lat="46.1647411" lon="9.6646276"><ele>261.66666666666663</ele><time>2026-04-11T15:30:15.016Z</time></trkpt><trkpt lat="46.1647485" lon="9.664394"><ele>262.0</ele><time>2026-04-11T15:30:16.016Z</time></trkpt><trkpt lat="46.1647567" lon="9.6641578"><ele>262.0</ele><time>2026-04-11T15:30:17.015Z</time></trkpt><trkpt lat="46.1647698" lon="9.663915"><ele>262.0</ele><time>2026-04-11T15:30:18.016Z</time></trkpt><trkpt lat="46.1647811" lon="9.6636812"><ele>262.0</ele><time>2026-04-11T15:30:19.016Z</time></trkpt><trkpt lat="46.1647888" lon="9.6634419"><ele>261.66666666666663</ele><time>2026-04-11T15:30:20.016Z</time></trkpt><trkpt lat="46.1647975" lon="9.6632002"><ele>261.3333333333333</ele><time>2026-04-11T15:30:21.016Z</time></trkpt><trkpt lat="46.1648019" lon="9.6629243"><ele>261.0</ele><time>2026-04-11T15:30:22.016Z</time></trkpt><trkpt lat="46.1648122" lon="9.6626154"><ele>262.0</ele><time>2026-04-11T15:30:23.016Z</time></trkpt><trkpt lat="46.1648313" lon="9.6622905"><ele>263.0</ele><time>2026-04-11T15:30:24.016Z</time></trkpt><trkpt lat="46.1648425" lon="9.6619578"><ele>263.0</ele><time>2026-04-11T15:30:25.016Z</time></trkpt><trkpt lat="46.164844" lon="9.6616202"><ele>263.0</ele><time>2026-04-11T15:30:26.016Z</time></trkpt><trkpt lat="46.1648286" lon="9.6612902"><ele>262.6666666666667</ele><time>2026-04-11T15:30:27.016Z</time></trkpt><trkpt lat="46.1648034" lon="9.6609724"><ele>262.3333333333333</ele><time>2026-04-11T15:30:28.016Z</time></trkpt><trkpt lat="46.164772" lon="9.6606728"><ele>262.0</ele><time>2026-04-11T15:30:29.016Z</time></trkpt><trkpt lat="46.1647224" lon="9.6603717"><ele>262.0</ele><time>2026-04-11T15:30:30.015Z</time></trkpt><trkpt lat="46.1646595" lon="9.6600751"><ele>262.0</ele><time>2026-04-11T15:30:31.016Z</time></trkpt><trkpt lat="46.1645843" lon="9.6597805"><ele>262.0</ele><time>2026-04-11T15:30:32.016Z</time></trkpt><trkpt lat="46.1645062" lon="9.6594874"><ele>262.0</ele><time>2026-04-11T15:30:33.016Z</time></trkpt><trkpt lat="46.1644207" lon="9.659196"><ele>262.0</ele><time>2026-04-11T15:30:34.016Z</time></trkpt><trkpt lat="46.1643344" lon="9.6589032"><ele>262.0</ele><time>2026-04-11T15:30:35.016Z</time></trkpt><trkpt lat="46.1642407" lon="9.6586182"><ele>262.0</ele><time>2026-04-11T15:30:36.016Z</time></trkpt><trkpt lat="46.1641519" lon="9.6583248"><ele>262.0</ele><time>2026-04-11T15:30:37.015Z</time></trkpt><trkpt lat="46.1640706" lon="9.6580389"><ele>262.0</ele><time>2026-04-11T15:30:38.016Z</time></trkpt><trkpt lat="46.1639856" lon="9.6577582"><ele>262.0</ele><time>2026-04-11T15:30:39.016Z</time></trkpt><trkpt lat="46.1638973" lon="9.6574713"><ele>262.0</ele><time>2026-04-11T15:30:40.016Z</time></trkpt><trkpt lat="46.1638081" lon="9.6571797"><ele>262.0</ele><time>2026-04-11T15:30:41.016Z</time></trkpt><trkpt lat="46.1637216" lon="9.6568844"><ele>263.0</ele><time>2026-04-11T15:30:42.016Z</time></trkpt><trkpt lat="46.1636318" lon="9.6565791"><ele>264.0</ele><time>2026-04-11T15:30:43.015Z</time></trkpt><trkpt lat="46.1635395" lon="9.6562819"><ele>264.0</ele><time>2026-04-11T15:30:44.016Z</time></trkpt><trkpt lat="46.1634465" lon="9.6559765"><ele>264.0</ele><time>2026-04-11T15:30:45.016Z</time></trkpt><trkpt lat="46.1633551" lon="9.6556719"><ele>264.0</ele><time>2026-04-11T15:30:46.016Z</time></trkpt><trkpt lat="46.1632614" lon="9.6553682"><ele>264.0</ele><time>2026-04-11T15:30:47.016Z</time></trkpt><trkpt lat="46.1631709" lon="9.6550608"><ele>263.0</ele><time>2026-04-11T15:30:48.016Z</time></trkpt><trkpt lat="46.1630813" lon="9.6547538"><ele>262.0</ele><time>2026-04-11T15:30:49.015Z</time></trkpt><trkpt lat="46.1629879" lon="9.6544494"><ele>262.0</ele><time>2026-04-11T15:30:50.016Z</time></trkpt><trkpt lat="46.1628967" lon="9.654147"><ele>262.0</ele><time>2026-04-11T15:30:51.016Z</time></trkpt><trkpt lat="46.1628049" lon="9.6538496"><ele>262.3333333333333</ele><time>2026-04-11T15:30:52.016Z</time></trkpt><trkpt lat="46.1627181" lon="9.6535663"><ele>262.6666666666667</ele><time>2026-04-11T15:30:53.016Z</time></trkpt><trkpt lat="46.1626334" lon="9.6532839"><ele>263.0</ele><time>2026-04-11T15:30:54.015Z</time></trkpt><trkpt lat="46.1625495" lon="9.6530004"><ele>263.33333333333337</ele><time>2026-04-11T15:30:55.016Z</time></trkpt><trkpt lat="46.1624691" lon="9.6527221"><ele>263.6666666666667</ele><time>2026-04-11T15:30:56.016Z</time></trkpt><trkpt lat="46.1623871" lon="9.6524458"><ele>264.0</ele><time>2026-04-11T15:30:57.016Z</time></trkpt><trkpt lat="46.1623046" lon="9.6521759"><ele>264.0</ele><time>2026-04-11T15:30:58.015Z</time></trkpt><trkpt lat="46.1622237" lon="9.6519104"><ele>264.0</ele><time>2026-04-11T15:30:59.016Z</time></trkpt><trkpt lat="46.162147" lon="9.6516441"><ele>264.0</ele><time>2026-04-11T15:31:00.016Z</time></trkpt><trkpt lat="46.1620702" lon="9.6513844"><ele>264.0</ele><time>2026-04-11T15:31:01.015Z</time></trkpt><trkpt lat="46.1620021" lon="9.6511262"><ele>264.0</ele><time>2026-04-11T15:31:02.016Z</time></trkpt><trkpt lat="46.1619293" lon="9.6508685"><ele>264.0</ele><time>2026-04-11T15:31:03.016Z</time></trkpt><trkpt lat="46.1618582" lon="9.6506131"><ele>264.0</ele><time>2026-04-11T15:31:04.016Z</time></trkpt><trkpt lat="46.1617851" lon="9.6503596"><ele>264.0</ele><time>2026-04-11T15:31:05.016Z</time></trkpt><trkpt lat="46.1617111" lon="9.6501076"><ele>264.0</ele><time>2026-04-11T15:31:06.016Z</time></trkpt><trkpt lat="46.1616413" lon="9.6498485"><ele>264.0</ele><time>2026-04-11T15:31:07.016Z</time></trkpt><trkpt lat="46.1615617" lon="9.6495846"><ele>264.0</ele><time>2026-04-11T15:31:08.016Z</time></trkpt><trkpt lat="46.1614724" lon="9.6493017"><ele>264.0</ele><time>2026-04-11T15:31:09.016Z</time></trkpt><trkpt lat="46.1613803" lon="9.6490329"><ele>264.0</ele><time>2026-04-11T15:31:10.016Z</time></trkpt><trkpt lat="46.1613" lon="9.6487826"><ele>264.0</ele><time>2026-04-11T15:31:11.016Z</time></trkpt><trkpt lat="46.1612222" lon="9.6485341"><ele>264.0</ele><time>2026-04-11T15:31:12.016Z</time></trkpt><trkpt lat="46.1611455" lon="9.648287"><ele>264.0</ele><time>2026-04-11T15:31:13.016Z</time></trkpt><trkpt lat="46.1610697" lon="9.6480451"><ele>264.0</ele><time>2026-04-11T15:31:14.016Z</time></trkpt><trkpt lat="46.1609963" lon="9.647803"><ele>264.0</ele><time>2026-04-11T15:31:15.016Z</time></trkpt><trkpt lat="46.1609246" lon="9.6475589"><ele>264.0</ele><time>2026-04-11T15:31:16.016Z</time></trkpt><trkpt lat="46.1608476" lon="9.6473032"><ele>264.0</ele><time>2026-04-11T15:31:17.016Z</time></trkpt><trkpt lat="46.1607656" lon="9.6470305"><ele>264.0</ele><time>2026-04-11T15:31:18.016Z</time></trkpt><trkpt lat="46.1606865" lon="9.6467751"><ele>264.0</ele><time>2026-04-11T15:31:19.016Z</time></trkpt><trkpt lat="46.1606073" lon="9.6465169"><ele>264.0</ele><time>2026-04-11T15:31:20.016Z</time></trkpt><trkpt lat="46.1605301" lon="9.6462699"><ele>264.0</ele><time>2026-04-11T15:31:21.015Z</time></trkpt><trkpt lat="46.1604598" lon="9.6460263"><ele>264.3333333333333</ele><time>2026-04-11T15:31:22.016Z</time></trkpt><trkpt lat="46.1603864" lon="9.6458015"><ele>264.66666666666663</ele><time>2026-04-11T15:31:23.016Z</time></trkpt><trkpt lat="46.1603151" lon="9.6455653"><ele>265.0</ele><time>2026-04-11T15:31:24.016Z</time></trkpt><trkpt lat="46.1602447" lon="9.6453346"><ele>266.0</ele><time>2026-04-11T15:31:25.016Z</time></trkpt><trkpt lat="46.1601755" lon="9.6451032"><ele>267.0</ele><time>2026-04-11T15:31:26.016Z</time></trkpt><trkpt lat="46.160109" lon="9.644875"><ele>268.0</ele><time>2026-04-11T15:31:27.015Z</time></trkpt><trkpt lat="46.1600434" lon="9.644656"><ele>268.66666666666663</ele><time>2026-04-11T15:31:28.016Z</time></trkpt><trkpt lat="46.1599774" lon="9.6444399"><ele>269.3333333333333</ele><time>2026-04-11T15:31:29.016Z</time></trkpt><trkpt lat="46.1599112" lon="9.6442236"><ele>270.0</ele><time>2026-04-11T15:31:30.016Z</time></trkpt><trkpt lat="46.1598484" lon="9.644011"><ele>269.3333333333333</ele><time>2026-04-11T15:31:31.016Z</time></trkpt><trkpt lat="46.1597821" lon="9.6437985"><ele>268.66666666666663</ele><time>2026-04-11T15:31:32.016Z</time></trkpt><trkpt lat="46.1597175" lon="9.6435839"><ele>268.0</ele><time>2026-04-11T15:31:33.016Z</time></trkpt><trkpt lat="46.1596569" lon="9.6433695"><ele>268.0</ele><time>2026-04-11T15:31:34.016Z</time></trkpt><trkpt lat="46.1595941" lon="9.6431602"><ele>268.0</ele><time>2026-04-11T15:31:35.016Z</time></trkpt><trkpt lat="46.1595302" lon="9.6429529"><ele>268.0</ele><time>2026-04-11T15:31:36.015Z</time></trkpt><trkpt lat="46.1594718" lon="9.6427386"><ele>268.5</ele><time>2026-04-11T15:31:37.016Z</time></trkpt><trkpt lat="46.1594177" lon="9.6425285"><ele>269.0</ele><time>2026-04-11T15:31:38.016Z</time></trkpt><trkpt lat="46.1593651" lon="9.6423287"><ele>269.5</ele><time>2026-04-11T15:31:39.016Z</time></trkpt><trkpt lat="46.1593128" lon="9.6421335"><ele>270.0</ele><time>2026-04-11T15:31:40.016Z</time></trkpt><trkpt lat="46.1592569" lon="9.6419503"><ele>270.0</ele><time>2026-04-11T15:31:41.016Z</time></trkpt><trkpt lat="46.1592035" lon="9.6417646"><ele>270.0</ele><time>2026-04-11T15:31:42.016Z</time></trkpt><trkpt lat="46.1591586" lon="9.6415903"><ele>270.0</ele><time>2026-04-11T15:31:43.016Z</time></trkpt><trkpt lat="46.1591237" lon="9.6414161"><ele>270.0</ele><time>2026-04-11T15:31:44.016Z</time></trkpt><trkpt lat="46.1590997" lon="9.6412488"><ele>270.0</ele><time>2026-04-11T15:31:45.016Z</time></trkpt><trkpt lat="46.1590862" lon="9.6410712"><ele>270.0</ele><time>2026-04-11T15:31:46.016Z</time></trkpt><trkpt lat="46.1590846" lon="9.6408877"><ele>270.0</ele><time>2026-04-11T15:31:47.016Z</time></trkpt><trkpt lat="46.1590999" lon="9.6406888"><ele>270.0</ele><time>2026-04-11T15:31:48.015Z</time></trkpt><trkpt lat="46.1591173" lon="9.6404889"><ele>270.0</ele><time>2026-04-11T15:31:49.016Z</time></trkpt><trkpt lat="46.1591322" lon="9.6402925"><ele>270.0</ele><time>2026-04-11T15:31:50.016Z</time></trkpt><trkpt lat="46.1591456" lon="9.6400915"><ele>270.0</ele><time>2026-04-11T15:31:51.016Z</time></trkpt><trkpt lat="46.1591641" lon="9.6398896"><ele>270.0</ele><time>2026-04-11T15:31:52.016Z</time></trkpt><trkpt lat="46.1591835" lon="9.6396999"><ele>270.0</ele><time>2026-04-11T15:31:53.015Z</time></trkpt><trkpt lat="46.1592085" lon="9.6394994"><ele>270.0</ele><time>2026-04-11T15:31:54.015Z</time></trkpt><trkpt lat="46.1592305" lon="9.6393079"><ele>270.0</ele><time>2026-04-11T15:31:55.016Z</time></trkpt><trkpt lat="46.1592428" lon="9.6391241"><ele>270.0</ele><time>2026-04-11T15:31:56.016Z</time></trkpt><trkpt lat="46.1592395" lon="9.6389517"><ele>270.25</ele><time>2026-04-11T15:31:57.016Z</time></trkpt><trkpt lat="46.1592282" lon="9.6387798"><ele>270.5</ele><time>2026-04-11T15:31:58.016Z</time></trkpt><trkpt lat="46.1591945" lon="9.6386168"><ele>270.75</ele><time>2026-04-11T15:31:59.016Z</time></trkpt><trkpt lat="46.159137" lon="9.6384588"><ele>271.0</ele><time>2026-04-11T15:32:00.016Z</time></trkpt><trkpt lat="46.1590583" lon="9.6383165"><ele>270.5</ele><time>2026-04-11T15:32:01.016Z</time></trkpt><trkpt lat="46.1589679" lon="9.6381935"><ele>270.0</ele><time>2026-04-11T15:32:02.016Z</time></trkpt><trkpt lat="46.158857" lon="9.63809"><ele>269.5</ele><time>2026-04-11T15:32:03.015Z</time></trkpt><trkpt lat="46.1587355" lon="9.6380042"><ele>269.0</ele><time>2026-04-11T15:32:04.016Z</time></trkpt><trkpt lat="46.1586091" lon="9.6379366"><ele>269.0</ele><time>2026-04-11T15:32:05.016Z</time></trkpt><trkpt lat="46.1584814" lon="9.6378821"><ele>269.0</ele><time>2026-04-11T15:32:06.016Z</time></trkpt><trkpt lat="46.1583421" lon="9.6378377"><ele>269.0</ele><time>2026-04-11T15:32:07.015Z</time></trkpt><trkpt lat="46.1582025" lon="9.6377854"><ele>269.0</ele><time>2026-04-11T15:32:08.016Z</time></trkpt><trkpt lat="46.1580635" lon="9.6377296"><ele>269.25</ele><time>2026-04-11T15:32:09.016Z</time></trkpt><trkpt lat="46.1579173" lon="9.6376789"><ele>269.5</ele><time>2026-04-11T15:32:10.016Z</time></trkpt><trkpt lat="46.1577685" lon="9.6376302"><ele>269.75</ele><time>2026-04-11T15:32:11.016Z</time></trkpt><trkpt lat="46.1576267" lon="9.6375776"><ele>270.0</ele><time>2026-04-11T15:32:12.016Z</time></trkpt><trkpt lat="46.1574889" lon="9.6375244"><ele>268.6666666666667</ele><time>2026-04-11T15:32:13.015Z</time></trkpt><trkpt lat="46.1573479" lon="9.6374601"><ele>267.33333333333337</ele><time>2026-04-11T15:32:14.015Z</time></trkpt><trkpt lat="46.1572009" lon="9.6374027"><ele>266.0</ele><time>2026-04-11T15:32:15.016Z</time></trkpt><trkpt lat="46.1570525" lon="9.6373446"><ele>266.0</ele><time>2026-04-11T15:32:16.016Z</time></trkpt><trkpt lat="46.1569029" lon="9.637286"><ele>266.0</ele><time>2026-04-11T15:32:17.016Z</time></trkpt><trkpt lat="46.1567536" lon="9.6372199"><ele>266.0</ele><time>2026-04-11T15:32:18.016Z</time></trkpt><trkpt lat="46.1566039" lon="9.6371497"><ele>266.0</ele><time>2026-04-11T15:32:19.016Z</time></trkpt><trkpt lat="46.1564576" lon="9.6370748"><ele>266.0</ele><time>2026-04-11T15:32:20.016Z</time></trkpt><trkpt lat="46.1563203" lon="9.6369965"><ele>266.0</ele><time>2026-04-11T15:32:21.016Z</time></trkpt><trkpt lat="46.1561875" lon="9.6369156"><ele>266.0</ele><time>2026-04-11T15:32:22.015Z</time></trkpt><trkpt lat="46.1560533" lon="9.6368336"><ele>266.0</ele><time>2026-04-11T15:32:23.016Z</time></trkpt><trkpt lat="46.155921" lon="9.6367353"><ele>266.0</ele><time>2026-04-11T15:32:24.016Z</time></trkpt><trkpt lat="46.1557924" lon="9.6366205"><ele>266.0</ele><time>2026-04-11T15:32:25.016Z</time></trkpt><trkpt lat="46.1556699" lon="9.636485"><ele>264.6666666666667</ele><time>2026-04-11T15:32:26.016Z</time></trkpt><trkpt lat="46.1555568" lon="9.6363247"><ele>263.3333333333333</ele><time>2026-04-11T15:32:27.016Z</time></trkpt><trkpt lat="46.1554511" lon="9.6361362"><ele>262.0</ele><time>2026-04-11T15:32:28.016Z</time></trkpt><trkpt lat="46.1553518" lon="9.6359299"><ele>262.0</ele><time>2026-04-11T15:32:29.016Z</time></trkpt><trkpt lat="46.1552703" lon="9.635709"><ele>262.0</ele><time>2026-04-11T15:32:30.016Z</time></trkpt><trkpt lat="46.1551987" lon="9.6354906"><ele>262.0</ele><time>2026-04-11T15:32:31.016Z</time></trkpt><trkpt lat="46.1551322" lon="9.6352592"><ele>262.0</ele><time>2026-04-11T15:32:32.016Z</time></trkpt><trkpt lat="46.1550644" lon="9.6350293"><ele>262.0</ele><time>2026-04-11T15:32:33.016Z</time></trkpt><trkpt lat="46.1549871" lon="9.6347965"><ele>262.0</ele><time>2026-04-11T15:32:34.016Z</time></trkpt><trkpt lat="46.1548942" lon="9.6346014"><ele>261.66666666666663</ele><time>2026-04-11T15:32:35.016Z</time></trkpt><trkpt lat="46.154793" lon="9.6344219"><ele>261.3333333333333</ele><time>2026-04-11T15:32:36.016Z</time></trkpt><trkpt lat="46.1546814" lon="9.6342645"><ele>261.0</ele><time>2026-04-11T15:32:37.016Z</time></trkpt><trkpt lat="46.1545505" lon="9.6341195"><ele>261.0</ele><time>2026-04-11T15:32:38.016Z</time></trkpt><trkpt lat="46.1544082" lon="9.6339997"><ele>261.0</ele><time>2026-04-11T15:32:39.016Z</time></trkpt><trkpt lat="46.1542563" lon="9.6339107"><ele>261.0</ele><time>2026-04-11T15:32:40.016Z</time></trkpt><trkpt lat="46.1541042" lon="9.6338339"><ele>260.3333333333333</ele><time>2026-04-11T15:32:41.016Z</time></trkpt><trkpt lat="46.1539515" lon="9.6337743"><ele>259.66666666666663</ele><time>2026-04-11T15:32:42.016Z</time></trkpt><trkpt lat="46.1537923" lon="9.6337169"><ele>259.0</ele><time>2026-04-11T15:32:43.016Z</time></trkpt><trkpt lat="46.1536435" lon="9.6336594"><ele>258.75</ele><time>2026-04-11T15:32:44.016Z</time></trkpt><trkpt lat="46.1534964" lon="9.6336007"><ele>258.5</ele><time>2026-04-11T15:32:45.016Z</time></trkpt><trkpt lat="46.1533574" lon="9.633544"><ele>258.25</ele><time>2026-04-11T15:32:46.016Z</time></trkpt><trkpt lat="46.153219" lon="9.6334961"><ele>258.0</ele><time>2026-04-11T15:32:47.016Z</time></trkpt><trkpt lat="46.1530874" lon="9.6334448"><ele>259.25</ele><time>2026-04-11T15:32:48.016Z</time></trkpt><trkpt lat="46.1529528" lon="9.6333971"><ele>260.5</ele><time>2026-04-11T15:32:49.016Z</time></trkpt><trkpt lat="46.1528184" lon="9.6333503"><ele>261.75</ele><time>2026-04-11T15:32:50.016Z</time></trkpt><trkpt lat="46.1526764" lon="9.633297"><ele>263.0</ele><time>2026-04-11T15:32:51.016Z</time></trkpt><trkpt lat="46.1525324" lon="9.6332445"><ele>263.0</ele><time>2026-04-11T15:32:52.016Z</time></trkpt><trkpt lat="46.1523875" lon="9.6331865"><ele>263.0</ele><time>2026-04-11T15:32:53.016Z</time></trkpt><trkpt lat="46.1522373" lon="9.6331315"><ele>263.0</ele><time>2026-04-11T15:32:54.016Z</time></trkpt><trkpt lat="46.152088" lon="9.633083"><ele>263.75</ele><time>2026-04-11T15:32:55.015Z</time></trkpt><trkpt lat="46.1519444" lon="9.6330262"><ele>264.5</ele><time>2026-04-11T15:32:56.016Z</time></trkpt><trkpt lat="46.1518089" lon="9.6329731"><ele>265.25</ele><time>2026-04-11T15:32:57.015Z</time></trkpt><trkpt lat="46.1516836" lon="9.6329206"><ele>266.0</ele><time>2026-04-11T15:32:58.016Z</time></trkpt><trkpt lat="46.1515631" lon="9.6328705"><ele>266.5</ele><time>2026-04-11T15:32:59.016Z</time></trkpt><trkpt lat="46.1514388" lon="9.6328213"><ele>267.0</ele><time>2026-04-11T15:33:00.016Z</time></trkpt><trkpt lat="46.151319" lon="9.6327585"><ele>267.5</ele><time>2026-04-11T15:33:01.016Z</time></trkpt><trkpt lat="46.1512081" lon="9.6326914"><ele>268.0</ele><time>2026-04-11T15:33:02.015Z</time></trkpt><trkpt lat="46.1510906" lon="9.6326016"><ele>268.5</ele><time>2026-04-11T15:33:03.016Z</time></trkpt><trkpt lat="46.1509887" lon="9.6324854"><ele>269.0</ele><time>2026-04-11T15:33:04.016Z</time></trkpt><trkpt lat="46.1508978" lon="9.6323445"><ele>269.5</ele><time>2026-04-11T15:33:05.016Z</time></trkpt><trkpt lat="46.150832" lon="9.6321848"><ele>270.0</ele><time>2026-04-11T15:33:06.016Z</time></trkpt><trkpt lat="46.1507862" lon="9.6320069"><ele>269.5</ele><time>2026-04-11T15:33:07.016Z</time></trkpt><trkpt lat="46.1507533" lon="9.6318119"><ele>269.0</ele><time>2026-04-11T15:33:08.016Z</time></trkpt><trkpt lat="46.1507384" lon="9.6315962"><ele>268.5</ele><time>2026-04-11T15:33:09.016Z</time></trkpt><trkpt lat="46.1507219" lon="9.6313706"><ele>268.0</ele><time>2026-04-11T15:33:10.016Z</time></trkpt><trkpt lat="46.150703" lon="9.6311282"><ele>267.3333333333333</ele><time>2026-04-11T15:33:11.016Z</time></trkpt><trkpt lat="46.1506805" lon="9.6308703"><ele>266.6666666666667</ele><time>2026-04-11T15:33:12.016Z</time></trkpt><trkpt lat="46.1506643" lon="9.630595"><ele>266.0</ele><time>2026-04-11T15:33:13.016Z</time></trkpt><trkpt lat="46.15065" lon="9.6303148"><ele>264.0</ele><time>2026-04-11T15:33:14.016Z</time></trkpt><trkpt lat="46.1506317" lon="9.6300338"><ele>262.0</ele><time>2026-04-11T15:33:15.016Z</time></trkpt><trkpt lat="46.1506199" lon="9.6297619"><ele>260.0</ele><time>2026-04-11T15:33:16.016Z</time></trkpt><trkpt lat="46.1506058" lon="9.6294759"><ele>256.5</ele><time>2026-04-11T15:33:17.016Z</time></trkpt><trkpt lat="46.1505896" lon="9.6291911"><ele>253.0</ele><time>2026-04-11T15:33:18.016Z</time></trkpt><trkpt lat="46.1468441" lon="9.5988837"><ele>251.0</ele><time>2026-04-11T15:34:44.014Z</time></trkpt><trkpt lat="46.1468794" lon="9.5985493"><ele>249.0</ele><time>2026-04-11T15:34:45.014Z</time></trkpt><trkpt lat="46.1469295" lon="9.5982113"><ele>249.0</ele><time>2026-04-11T15:34:46.014Z</time></trkpt><trkpt lat="46.1469682" lon="9.5978815"><ele>249.0</ele><time>2026-04-11T15:34:47.014Z</time></trkpt><trkpt lat="46.1470273" lon="9.5975527"><ele>249.0</ele><time>2026-04-11T15:34:48.014Z</time></trkpt><trkpt lat="46.1470907" lon="9.5972332"><ele>249.0</ele><time>2026-04-11T15:34:49.014Z</time></trkpt><trkpt lat="46.147154" lon="9.5969112"><ele>249.66666666666669</ele><time>2026-04-11T15:34:50.014Z</time></trkpt><trkpt lat="46.1472194" lon="9.5966001"><ele>250.33333333333334</ele><time>2026-04-11T15:34:51.014Z</time></trkpt><trkpt lat="46.1472867" lon="9.5963011"><ele>251.0</ele><time>2026-04-11T15:34:52.014Z</time></trkpt><trkpt lat="46.1473635" lon="9.5959991"><ele>259.0</ele><time>2026-04-11T15:34:53.014Z</time></trkpt><trkpt lat="46.1474426" lon="9.5957032"><ele>267.0</ele><time>2026-04-11T15:34:54.014Z</time></trkpt><trkpt lat="46.1475238" lon="9.5954042"><ele>275.0</ele><time>2026-04-11T15:34:55.014Z</time></trkpt><trkpt lat="46.1476111" lon="9.5951055"><ele>275.0</ele><time>2026-04-11T15:34:56.014Z</time></trkpt><trkpt lat="46.1476968" lon="9.5948114"><ele>275.0</ele><time>2026-04-11T15:34:57.014Z</time></trkpt><trkpt lat="46.1477855" lon="9.5945116"><ele>275.0</ele><time>2026-04-11T15:34:58.014Z</time></trkpt><trkpt lat="46.1478793" lon="9.594214"><ele>273.5</ele><time>2026-04-11T15:34:59.014Z</time></trkpt><trkpt lat="46.1479719" lon="9.5939083"><ele>272.0</ele><time>2026-04-11T15:35:00.014Z</time></trkpt><trkpt lat="46.1480636" lon="9.593597"><ele>270.5</ele><time>2026-04-11T15:35:01.013Z</time></trkpt><trkpt lat="46.1481549" lon="9.5932859"><ele>269.0</ele><time>2026-04-11T15:35:02.014Z</time></trkpt><trkpt lat="46.1448676" lon="9.5582767"><ele>245.0</ele><time>2026-04-11T15:36:37.014Z</time></trkpt><trkpt lat="46.1446386" lon="9.5580464"><ele>221.0</ele><time>2026-04-11T15:36:38.014Z</time></trkpt><trkpt lat="46.144429" lon="9.5578128"><ele>220.5</ele><time>2026-04-11T15:36:39.014Z</time></trkpt><trkpt lat="46.144216" lon="9.5575653"><ele>220.0</ele><time>2026-04-11T15:36:40.014Z</time></trkpt><trkpt lat="46.144008" lon="9.5573218"><ele>220.0</ele><time>2026-04-11T15:36:41.014Z</time></trkpt><trkpt lat="46.1438013" lon="9.557084"><ele>220.0</ele><time>2026-04-11T15:36:42.014Z</time></trkpt><trkpt lat="46.1435916" lon="9.5568341"><ele>220.0</ele><time>2026-04-11T15:36:43.014Z</time></trkpt><trkpt lat="46.1433857" lon="9.5565823"><ele>220.0</ele><time>2026-04-11T15:36:44.014Z</time></trkpt><trkpt lat="46.1431942" lon="9.5563237"><ele>219.5</ele><time>2026-04-11T15:36:45.014Z</time></trkpt><trkpt lat="46.1430113" lon="9.5560581"><ele>219.0</ele><time>2026-04-11T15:36:46.014Z</time></trkpt><trkpt lat="46.1428347" lon="9.555788"><ele>219.0</ele><time>2026-04-11T15:36:47.014Z</time></trkpt><trkpt lat="46.1426642" lon="9.5555129"><ele>219.0</ele><time>2026-04-11T15:36:48.014Z</time></trkpt><trkpt lat="46.1425052" lon="9.5552368"><ele>220.5</ele><time>2026-04-11T15:36:49.014Z</time></trkpt><trkpt lat="46.142349" lon="9.554946"><ele>222.0</ele><time>2026-04-11T15:36:50.014Z</time></trkpt><trkpt lat="46.1421992" lon="9.554656"><ele>222.0</ele><time>2026-04-11T15:36:51.014Z</time></trkpt><trkpt lat="46.142053" lon="9.5543632"><ele>222.0</ele><time>2026-04-11T15:36:52.014Z</time></trkpt><trkpt lat="46.141915" lon="9.5540672"><ele>222.0</ele><time>2026-04-11T15:36:53.014Z</time></trkpt><trkpt lat="46.141786" lon="9.5537567"><ele>222.0</ele><time>2026-04-11T15:36:54.014Z</time></trkpt><trkpt lat="46.1416641" lon="9.5534525"><ele>222.0</ele><time>2026-04-11T15:36:55.013Z</time></trkpt><trkpt lat="46.1415482" lon="9.5531404"><ele>222.0</ele><time>2026-04-11T15:36:56.014Z</time></trkpt><trkpt lat="46.141442" lon="9.552822"><ele>222.0</ele><time>2026-04-11T15:36:57.014Z</time></trkpt><trkpt lat="46.1413379" lon="9.5524969"><ele>222.0</ele><time>2026-04-11T15:36:58.014Z</time></trkpt><trkpt lat="46.1412373" lon="9.5521657"><ele>221.0</ele><time>2026-04-11T15:36:59.013Z</time></trkpt><trkpt lat="46.1411483" lon="9.5518273"><ele>220.0</ele><time>2026-04-11T15:37:00.014Z</time></trkpt><trkpt lat="46.1410611" lon="9.5514839"><ele>218.0</ele><time>2026-04-11T15:37:01.014Z</time></trkpt><trkpt lat="46.1409784" lon="9.5511347"><ele>216.0</ele><time>2026-04-11T15:37:02.014Z</time></trkpt><trkpt lat="46.1408968" lon="9.55079"><ele>216.0</ele><time>2026-04-11T15:37:03.014Z</time></trkpt><trkpt lat="46.140813" lon="9.5504603"><ele>216.0</ele><time>2026-04-11T15:37:04.014Z</time></trkpt><trkpt lat="46.1407301" lon="9.5501334"><ele>216.5</ele><time>2026-04-11T15:37:05.014Z</time></trkpt><trkpt lat="46.1406448" lon="9.5498076"><ele>217.0</ele><time>2026-04-11T15:37:06.014Z</time></trkpt><trkpt lat="46.1405578" lon="9.5494809"><ele>217.0</ele><time>2026-04-11T15:37:07.014Z</time></trkpt><trkpt lat="46.1404615" lon="9.5491538"><ele>217.0</ele><time>2026-04-11T15:37:08.014Z</time></trkpt><trkpt lat="46.14035" lon="9.548828"><ele>217.5</ele><time>2026-04-11T15:37:09.014Z</time></trkpt><trkpt lat="46.1402335" lon="9.5484967"><ele>218.0</ele><time>2026-04-11T15:37:10.014Z</time></trkpt><trkpt lat="46.1401152" lon="9.5481719"><ele>218.5</ele><time>2026-04-11T15:37:11.014Z</time></trkpt><trkpt lat="46.1399896" lon="9.5478516"><ele>219.0</ele><time>2026-04-11T15:37:12.014Z</time></trkpt><trkpt lat="46.1398531" lon="9.5475314"><ele>219.0</ele><time>2026-04-11T15:37:13.013Z</time></trkpt><trkpt lat="46.1397117" lon="9.5472171"><ele>219.0</ele><time>2026-04-11T15:37:14.014Z</time></trkpt><trkpt lat="46.1395688" lon="9.5469152"><ele>218.0</ele><time>2026-04-11T15:37:15.014Z</time></trkpt><trkpt lat="46.1394338" lon="9.5466254"><ele>217.0</ele><time>2026-04-11T15:37:16.014Z</time></trkpt><trkpt lat="46.1393" lon="9.5463457"><ele>217.0</ele><time>2026-04-11T15:37:17.014Z</time></trkpt><trkpt lat="46.1391754" lon="9.5460737"><ele>217.0</ele><time>2026-04-11T15:37:18.014Z</time></trkpt><trkpt lat="46.1390563" lon="9.5457974"><ele>217.5</ele><time>2026-04-11T15:37:19.014Z</time></trkpt><trkpt lat="46.1389392" lon="9.545521"><ele>218.0</ele><time>2026-04-11T15:37:20.014Z</time></trkpt><trkpt lat="46.1388214" lon="9.5452421"><ele>217.0</ele><time>2026-04-11T15:37:21.014Z</time></trkpt><trkpt lat="46.1387052" lon="9.5449543"><ele>216.0</ele><time>2026-04-11T15:37:22.013Z</time></trkpt><trkpt lat="46.138586" lon="9.5446596"><ele>215.5</ele><time>2026-04-11T15:37:23.014Z</time></trkpt><trkpt lat="46.1384748" lon="9.54436"><ele>215.0</ele><time>2026-04-11T15:37:24.014Z</time></trkpt><trkpt lat="46.1383658" lon="9.544052"><ele>215.0</ele><time>2026-04-11T15:37:25.013Z</time></trkpt><trkpt lat="46.1382607" lon="9.5437414"><ele>215.0</ele><time>2026-04-11T15:37:26.014Z</time></trkpt><trkpt lat="46.1381603" lon="9.5434266"><ele>215.0</ele><time>2026-04-11T15:37:27.014Z</time></trkpt><trkpt lat="46.1380719" lon="9.5431201"><ele>215.0</ele><time>2026-04-11T15:37:28.014Z</time></trkpt><trkpt lat="46.13799" lon="9.5428107"><ele>215.0</ele><time>2026-04-11T15:37:29.014Z</time></trkpt><trkpt lat="46.1379089" lon="9.5424879"><ele>215.0</ele><time>2026-04-11T15:37:30.014Z</time></trkpt><trkpt lat="46.1378354" lon="9.5421664"><ele>213.5</ele><time>2026-04-11T15:37:31.014Z</time></trkpt><trkpt lat="46.1377637" lon="9.5418433"><ele>212.0</ele><time>2026-04-11T15:37:32.013Z</time></trkpt><trkpt lat="46.1377008" lon="9.5415184"><ele>212.5</ele><time>2026-04-11T15:37:33.014Z</time></trkpt><trkpt lat="46.1376428" lon="9.5411944"><ele>213.0</ele><time>2026-04-11T15:37:34.014Z</time></trkpt><trkpt lat="46.1375865" lon="9.5408698"><ele>213.0</ele><time>2026-04-11T15:37:35.014Z</time></trkpt><trkpt lat="46.1375345" lon="9.540536"><ele>213.0</ele><time>2026-04-11T15:37:36.014Z</time></trkpt><trkpt lat="46.1374914" lon="9.540203"><ele>213.0</ele><time>2026-04-11T15:37:37.014Z</time></trkpt><trkpt lat="46.1374529" lon="9.5398615"><ele>213.0</ele><time>2026-04-11T15:37:38.014Z</time></trkpt><trkpt lat="46.1374176" lon="9.5395153"><ele>213.0</ele><time>2026-04-11T15:37:39.014Z</time></trkpt><trkpt lat="46.1373861" lon="9.5391686"><ele>213.0</ele><time>2026-04-11T15:37:40.014Z</time></trkpt><trkpt lat="46.1373594" lon="9.5388175"><ele>213.5</ele><time>2026-04-11T15:37:41.014Z</time></trkpt><trkpt lat="46.1373391" lon="9.538457"><ele>214.0</ele><time>2026-04-11T15:37:42.014Z</time></trkpt><trkpt lat="46.1373245" lon="9.5380938"><ele>213.0</ele><time>2026-04-11T15:37:43.014Z</time></trkpt><trkpt lat="46.1373178" lon="9.5377362"><ele>212.0</ele><time>2026-04-11T15:37:44.014Z</time></trkpt><trkpt lat="46.1373166" lon="9.5373752"><ele>212.5</ele><time>2026-04-11T15:37:45.014Z</time></trkpt><trkpt lat="46.1373208" lon="9.5370074"><ele>213.0</ele><time>2026-04-11T15:37:46.013Z</time></trkpt><trkpt lat="46.1373299" lon="9.5366434"><ele>213.0</ele><time>2026-04-11T15:37:47.014Z</time></trkpt><trkpt lat="46.1373396" lon="9.5362968"><ele>213.0</ele><time>2026-04-11T15:37:48.014Z</time></trkpt><trkpt lat="46.137355" lon="9.5359616"><ele>213.0</ele><time>2026-04-11T15:37:49.014Z</time></trkpt><trkpt lat="46.1373774" lon="9.5356187"><ele>213.0</ele><time>2026-04-11T15:37:50.014Z</time></trkpt><trkpt lat="46.1373957" lon="9.5352783"><ele>216.0</ele><time>2026-04-11T15:37:51.014Z</time></trkpt><trkpt lat="46.1374228" lon="9.5349435"><ele>219.0</ele><time>2026-04-11T15:37:52.014Z</time></trkpt><trkpt lat="46.1374556" lon="9.5346148"><ele>218.0</ele><time>2026-04-11T15:37:53.013Z</time></trkpt><trkpt lat="46.1374825" lon="9.5342835"><ele>217.0</ele><time>2026-04-11T15:37:54.013Z</time></trkpt><trkpt lat="46.1375118" lon="9.5339527"><ele>215.0</ele><time>2026-04-11T15:37:55.014Z</time></trkpt><trkpt lat="46.137537" lon="9.5336283"><ele>213.0</ele><time>2026-04-11T15:37:56.014Z</time></trkpt><trkpt lat="46.137563" lon="9.5332982"><ele>213.0</ele><time>2026-04-11T15:37:57.014Z</time></trkpt><trkpt lat="46.1375932" lon="9.5329785"><ele>213.0</ele><time>2026-04-11T15:37:58.013Z</time></trkpt><trkpt lat="46.1376197" lon="9.5326519"><ele>214.0</ele><time>2026-04-11T15:37:59.014Z</time></trkpt><trkpt lat="46.1376537" lon="9.5323232"><ele>215.0</ele><time>2026-04-11T15:38:00.013Z</time></trkpt><trkpt lat="46.1376817" lon="9.5320036"><ele>215.33333333333334</ele><time>2026-04-11T15:38:01.014Z</time></trkpt><trkpt lat="46.13771" lon="9.531688"><ele>215.66666666666669</ele><time>2026-04-11T15:38:02.014Z</time></trkpt><trkpt lat="46.1377332" lon="9.5313624"><ele>216.0</ele><time>2026-04-11T15:38:03.014Z</time></trkpt><trkpt lat="46.1377542" lon="9.531041"><ele>216.0</ele><time>2026-04-11T15:38:04.014Z</time></trkpt><trkpt lat="46.1377732" lon="9.5307148"><ele>216.0</ele><time>2026-04-11T15:38:05.014Z</time></trkpt><trkpt lat="46.1377963" lon="9.5303835"><ele>215.0</ele><time>2026-04-11T15:38:06.014Z</time></trkpt><trkpt lat="46.1378155" lon="9.5300503"><ele>214.0</ele><time>2026-04-11T15:38:07.014Z</time></trkpt><trkpt lat="46.1378336" lon="9.5297147"><ele>213.0</ele><time>2026-04-11T15:38:08.013Z</time></trkpt><trkpt lat="46.1378495" lon="9.5293757"><ele>212.0</ele><time>2026-04-11T15:38:09.014Z</time></trkpt><trkpt lat="46.1378615" lon="9.5290307"><ele>211.5</ele><time>2026-04-11T15:38:10.014Z</time></trkpt><trkpt lat="46.1378664" lon="9.5286914"><ele>211.0</ele><time>2026-04-11T15:38:11.014Z</time></trkpt><trkpt lat="46.1378735" lon="9.5283483"><ele>211.0</ele><time>2026-04-11T15:38:12.014Z</time></trkpt><trkpt lat="46.1378759" lon="9.5280071"><ele>211.0</ele><time>2026-04-11T15:38:13.013Z</time></trkpt><trkpt lat="46.1378754" lon="9.5276704"><ele>211.5</ele><time>2026-04-11T15:38:14.014Z</time></trkpt><trkpt lat="46.137866" lon="9.5273302"><ele>212.0</ele><time>2026-04-11T15:38:15.014Z</time></trkpt><trkpt lat="46.1378669" lon="9.526997"><ele>211.0</ele><time>2026-04-11T15:38:16.014Z</time></trkpt><trkpt lat="46.1378667" lon="9.5266644"><ele>210.0</ele><time>2026-04-11T15:38:17.014Z</time></trkpt><trkpt lat="46.1378607" lon="9.5263395"><ele>209.66666666666669</ele><time>2026-04-11T15:38:18.014Z</time></trkpt><trkpt lat="46.1378545" lon="9.526016"><ele>209.33333333333334</ele><time>2026-04-11T15:38:19.014Z</time></trkpt><trkpt lat="46.1378408" lon="9.5256939"><ele>209.0</ele><time>2026-04-11T15:38:20.014Z</time></trkpt><trkpt lat="46.1378251" lon="9.5253734"><ele>208.66666666666669</ele><time>2026-04-11T15:38:21.013Z</time></trkpt><trkpt lat="46.1378136" lon="9.5250517"><ele>208.33333333333331</ele><time>2026-04-11T15:38:22.014Z</time></trkpt><trkpt lat="46.137806" lon="9.5247337"><ele>208.0</ele><time>2026-04-11T15:38:23.014Z</time></trkpt><trkpt lat="46.1378025" lon="9.5244189"><ele>209.0</ele><time>2026-04-11T15:38:24.014Z</time></trkpt><trkpt lat="46.1378027" lon="9.524093"><ele>210.0</ele><time>2026-04-11T15:38:25.013Z</time></trkpt><trkpt lat="46.1378047" lon="9.5237654"><ele>210.0</ele><time>2026-04-11T15:38:26.014Z</time></trkpt><trkpt lat="46.1378135" lon="9.5234357"><ele>210.0</ele><time>2026-04-11T15:38:27.014Z</time></trkpt><trkpt lat="46.1378237" lon="9.523106"><ele>209.5</ele><time>2026-04-11T15:38:28.014Z</time></trkpt><trkpt lat="46.137841" lon="9.5227688"><ele>209.0</ele><time>2026-04-11T15:38:29.014Z</time></trkpt><trkpt lat="46.1378566" lon="9.5224298"><ele>209.0</ele><time>2026-04-11T15:38:30.014Z</time></trkpt><trkpt lat="46.1378696" lon="9.5220887"><ele>209.0</ele><time>2026-04-11T15:38:31.014Z</time></trkpt><trkpt lat="46.1378877" lon="9.5217426"><ele>209.0</ele><time>2026-04-11T15:38:32.014Z</time></trkpt><trkpt lat="46.1379006" lon="9.5213914"><ele>209.0</ele><time>2026-04-11T15:38:33.014Z</time></trkpt><trkpt lat="46.1379198" lon="9.5210351"><ele>209.0</ele><time>2026-04-11T15:38:34.014Z</time></trkpt><trkpt lat="46.1379457" lon="9.520671"><ele>209.0</ele><time>2026-04-11T15:38:35.014Z</time></trkpt><trkpt lat="46.137976" lon="9.5202981"><ele>209.0</ele><time>2026-04-11T15:38:36.014Z</time></trkpt><trkpt lat="46.1380175" lon="9.5199169"><ele>209.0</ele><time>2026-04-11T15:38:37.014Z</time></trkpt><trkpt lat="46.1380644" lon="9.5195335"><ele>209.0</ele><time>2026-04-11T15:38:38.014Z</time></trkpt><trkpt lat="46.1381151" lon="9.5191548"><ele>209.0</ele><time>2026-04-11T15:38:39.014Z</time></trkpt><trkpt lat="46.1381752" lon="9.5187794"><ele>209.0</ele><time>2026-04-11T15:38:40.014Z</time></trkpt><trkpt lat="46.1382457" lon="9.5184176"><ele>209.0</ele><time>2026-04-11T15:38:41.014Z</time></trkpt><trkpt lat="46.1383223" lon="9.5180526"><ele>209.5</ele><time>2026-04-11T15:38:42.014Z</time></trkpt><trkpt lat="46.1384063" lon="9.5176915"><ele>210.0</ele><time>2026-04-11T15:38:43.014Z</time></trkpt><trkpt lat="46.1385041" lon="9.5173246"><ele>210.5</ele><time>2026-04-11T15:38:44.014Z</time></trkpt><trkpt lat="46.1386145" lon="9.5169671"><ele>211.0</ele><time>2026-04-11T15:38:45.014Z</time></trkpt><trkpt lat="46.1387326" lon="9.5166076"><ele>211.0</ele><time>2026-04-11T15:38:46.014Z</time></trkpt><trkpt lat="46.138864" lon="9.5162405"><ele>211.0</ele><time>2026-04-11T15:38:47.014Z</time></trkpt><trkpt lat="46.1389975" lon="9.5158848"><ele>209.5</ele><time>2026-04-11T15:38:48.014Z</time></trkpt><trkpt lat="46.139146" lon="9.5155289"><ele>208.0</ele><time>2026-04-11T15:38:49.014Z</time></trkpt><trkpt lat="46.1393075" lon="9.5151743"><ele>208.0</ele><time>2026-04-11T15:38:50.014Z</time></trkpt><trkpt lat="46.1394842" lon="9.5148165"><ele>208.0</ele><time>2026-04-11T15:38:51.014Z</time></trkpt><trkpt lat="46.1396651" lon="9.5144658"><ele>208.0</ele><time>2026-04-11T15:38:52.014Z</time></trkpt><trkpt lat="46.1398516" lon="9.5141221"><ele>208.0</ele><time>2026-04-11T15:38:53.014Z</time></trkpt><trkpt lat="46.1400403" lon="9.5137768"><ele>209.0</ele><time>2026-04-11T15:38:54.013Z</time></trkpt><trkpt lat="46.1402276" lon="9.5134414"><ele>210.0</ele><time>2026-04-11T15:38:55.014Z</time></trkpt><trkpt lat="46.140422" lon="9.5131086"><ele>209.5</ele><time>2026-04-11T15:38:56.014Z</time></trkpt><trkpt lat="46.1406175" lon="9.5127946"><ele>209.0</ele><time>2026-04-11T15:38:57.014Z</time></trkpt><trkpt lat="46.1408134" lon="9.5124884"><ele>208.0</ele><time>2026-04-11T15:38:58.014Z</time></trkpt><trkpt lat="46.1410071" lon="9.512191"><ele>207.0</ele><time>2026-04-11T15:38:59.014Z</time></trkpt><trkpt lat="46.1411983" lon="9.5119032"><ele>207.0</ele><time>2026-04-11T15:39:00.013Z</time></trkpt><trkpt lat="46.1413926" lon="9.5116269"><ele>207.0</ele><time>2026-04-11T15:39:01.013Z</time></trkpt><trkpt lat="46.1415857" lon="9.5113486"><ele>207.5</ele><time>2026-04-11T15:39:02.014Z</time></trkpt><trkpt lat="46.1417765" lon="9.511072"><ele>208.0</ele><time>2026-04-11T15:39:03.014Z</time></trkpt><trkpt lat="46.1419678" lon="9.5108045"><ele>208.0</ele><time>2026-04-11T15:39:04.014Z</time></trkpt><trkpt lat="46.1421576" lon="9.5105364"><ele>208.0</ele><time>2026-04-11T15:39:05.014Z</time></trkpt><trkpt lat="46.1423442" lon="9.5102716"><ele>207.5</ele><time>2026-04-11T15:39:06.014Z</time></trkpt><trkpt lat="46.142534" lon="9.510013"><ele>207.0</ele><time>2026-04-11T15:39:07.014Z</time></trkpt><trkpt lat="46.1427247" lon="9.5097535"><ele>207.5</ele><time>2026-04-11T15:39:08.014Z</time></trkpt><trkpt lat="46.1429134" lon="9.5094877"><ele>208.0</ele><time>2026-04-11T15:39:09.014Z</time></trkpt><trkpt lat="46.1431022" lon="9.5092183"><ele>208.0</ele><time>2026-04-11T15:39:10.013Z</time></trkpt><trkpt lat="46.1432891" lon="9.5089471"><ele>208.0</ele><time>2026-04-11T15:39:11.014Z</time></trkpt><trkpt lat="46.1434756" lon="9.5086793"><ele>207.5</ele><time>2026-04-11T15:39:12.014Z</time></trkpt><trkpt lat="46.1436499" lon="9.5084168"><ele>207.0</ele><time>2026-04-11T15:39:13.014Z</time></trkpt><trkpt lat="46.1438207" lon="9.5081647"><ele>207.0</ele><time>2026-04-11T15:39:14.014Z</time></trkpt><trkpt lat="46.1439867" lon="9.5079078"><ele>207.0</ele><time>2026-04-11T15:39:15.014Z</time></trkpt><trkpt lat="46.1441613" lon="9.5076355"><ele>207.0</ele><time>2026-04-11T15:39:16.014Z</time></trkpt><trkpt lat="46.1443356" lon="9.5073649"><ele>207.0</ele><time>2026-04-11T15:39:17.013Z</time></trkpt><trkpt lat="46.1445097" lon="9.5070866"><ele>208.0</ele><time>2026-04-11T15:39:18.014Z</time></trkpt><trkpt lat="46.1446787" lon="9.5067999"><ele>209.0</ele><time>2026-04-11T15:39:19.014Z</time></trkpt><trkpt lat="46.1448485" lon="9.5065066"><ele>209.0</ele><time>2026-04-11T15:39:20.014Z</time></trkpt><trkpt lat="46.1450164" lon="9.5062048"><ele>209.0</ele><time>2026-04-11T15:39:21.014Z</time></trkpt><trkpt lat="46.1451778" lon="9.5058977"><ele>209.0</ele><time>2026-04-11T15:39:22.013Z</time></trkpt><trkpt lat="46.1453421" lon="9.5055864"><ele>209.0</ele><time>2026-04-11T15:39:23.014Z</time></trkpt><trkpt lat="46.1455037" lon="9.505258"><ele>208.0</ele><time>2026-04-11T15:39:24.014Z</time></trkpt><trkpt lat="46.1456653" lon="9.5049227"><ele>207.0</ele><time>2026-04-11T15:39:25.014Z</time></trkpt><trkpt lat="46.1458258" lon="9.5045758"><ele>207.0</ele><time>2026-04-11T15:39:26.014Z</time></trkpt><trkpt lat="46.1459765" lon="9.504224"><ele>207.0</ele><time>2026-04-11T15:39:27.014Z</time></trkpt><trkpt lat="46.146115" lon="9.5038537"><ele>207.5</ele><time>2026-04-11T15:39:28.014Z</time></trkpt><trkpt lat="46.1462462" lon="9.503486"><ele>208.0</ele><time>2026-04-11T15:39:29.013Z</time></trkpt><trkpt lat="46.1463689" lon="9.5031152"><ele>207.0</ele><time>2026-04-11T15:39:30.014Z</time></trkpt><trkpt lat="46.1464882" lon="9.5027428"><ele>206.0</ele><time>2026-04-11T15:39:31.014Z</time></trkpt><trkpt lat="46.1466013" lon="9.5023684"><ele>206.5</ele><time>2026-04-11T15:39:32.014Z</time></trkpt><trkpt lat="46.1467093" lon="9.5019934"><ele>207.0</ele><time>2026-04-11T15:39:33.014Z</time></trkpt><trkpt lat="46.1468073" lon="9.5016153"><ele>206.5</ele><time>2026-04-11T15:39:34.014Z</time></trkpt><trkpt lat="46.1469006" lon="9.5012272"><ele>206.0</ele><time>2026-04-11T15:39:35.014Z</time></trkpt><trkpt lat="46.1469841" lon="9.5008416"><ele>206.0</ele><time>2026-04-11T15:39:36.014Z</time></trkpt><trkpt lat="46.1470607" lon="9.5004502"><ele>206.0</ele><time>2026-04-11T15:39:37.014Z</time></trkpt><trkpt lat="46.1471389" lon="9.5000629"><ele>206.5</ele><time>2026-04-11T15:39:38.014Z</time></trkpt><trkpt lat="46.1472038" lon="9.4996715"><ele>207.0</ele><time>2026-04-11T15:39:39.014Z</time></trkpt><trkpt lat="46.1472589" lon="9.4992699"><ele>208.5</ele><time>2026-04-11T15:39:40.014Z</time></trkpt><trkpt lat="46.1473022" lon="9.4988715"><ele>210.0</ele><time>2026-04-11T15:39:41.013Z</time></trkpt><trkpt lat="46.14734" lon="9.4984748"><ele>210.0</ele><time>2026-04-11T15:39:42.014Z</time></trkpt><trkpt lat="46.147376" lon="9.4980714"><ele>210.0</ele><time>2026-04-11T15:39:43.014Z</time></trkpt><trkpt lat="46.1474041" lon="9.4976617"><ele>208.0</ele><time>2026-04-11T15:39:44.013Z</time></trkpt><trkpt lat="46.1474279" lon="9.4972475"><ele>206.0</ele><time>2026-04-11T15:39:45.012Z</time></trkpt><trkpt lat="46.1474409" lon="9.4968311"><ele>206.0</ele><time>2026-04-11T15:39:46.012Z</time></trkpt><trkpt lat="46.1474491" lon="9.4964164"><ele>206.0</ele><time>2026-04-11T15:39:47.013Z</time></trkpt><trkpt lat="46.1474439" lon="9.4959965"><ele>206.0</ele><time>2026-04-11T15:39:48.013Z</time></trkpt><trkpt lat="46.1474336" lon="9.4955775"><ele>206.0</ele><time>2026-04-11T15:39:49.013Z</time></trkpt><trkpt lat="46.1474178" lon="9.4951642"><ele>206.0</ele><time>2026-04-11T15:39:50.013Z</time></trkpt><trkpt lat="46.147392" lon="9.4947475"><ele>206.0</ele><time>2026-04-11T15:39:51.013Z</time></trkpt><trkpt lat="46.1473582" lon="9.4943273"><ele>206.0</ele><time>2026-04-11T15:39:52.012Z</time></trkpt><trkpt lat="46.147317" lon="9.4939176"><ele>206.0</ele><time>2026-04-11T15:39:53.013Z</time></trkpt><trkpt lat="46.1472661" lon="9.493517"><ele>206.5</ele><time>2026-04-11T15:39:54.013Z</time></trkpt><trkpt lat="46.1472106" lon="9.4931104"><ele>207.0</ele><time>2026-04-11T15:39:55.013Z</time></trkpt><trkpt lat="46.1471476" lon="9.4927106"><ele>208.0</ele><time>2026-04-11T15:39:56.013Z</time></trkpt><trkpt lat="46.1470795" lon="9.4923176"><ele>209.0</ele><time>2026-04-11T15:39:57.013Z</time></trkpt><trkpt lat="46.147005" lon="9.4919205"><ele>209.0</ele><time>2026-04-11T15:39:58.013Z</time></trkpt><trkpt lat="46.1469303" lon="9.4915257"><ele>209.0</ele><time>2026-04-11T15:39:59.013Z</time></trkpt><trkpt lat="46.1468477" lon="9.4911292"><ele>208.5</ele><time>2026-04-11T15:40:00.013Z</time></trkpt><trkpt lat="46.1467609" lon="9.4907322"><ele>208.0</ele><time>2026-04-11T15:40:01.012Z</time></trkpt><trkpt lat="46.1466705" lon="9.490325"><ele>208.0</ele><time>2026-04-11T15:40:02.013Z</time></trkpt><trkpt lat="46.1465763" lon="9.4899228"><ele>208.0</ele><time>2026-04-11T15:40:03.013Z</time></trkpt><trkpt lat="46.1464786" lon="9.4895281"><ele>207.5</ele><time>2026-04-11T15:40:04.013Z</time></trkpt><trkpt lat="46.1463831" lon="9.4891369"><ele>207.0</ele><time>2026-04-11T15:40:05.013Z</time></trkpt><trkpt lat="46.1462889" lon="9.4887346"><ele>206.5</ele><time>2026-04-11T15:40:06.013Z</time></trkpt><trkpt lat="46.1461981" lon="9.4883287"><ele>206.0</ele><time>2026-04-11T15:40:07.013Z</time></trkpt><trkpt lat="46.1461036" lon="9.4879263"><ele>206.0</ele><time>2026-04-11T15:40:08.013Z</time></trkpt><trkpt lat="46.1460115" lon="9.4875149"><ele>206.0</ele><time>2026-04-11T15:40:09.013Z</time></trkpt><trkpt lat="46.1459202" lon="9.4871023"><ele>205.5</ele><time>2026-04-11T15:40:10.013Z</time></trkpt><trkpt lat="46.1458342" lon="9.4866896"><ele>205.0</ele><time>2026-04-11T15:40:11.012Z</time></trkpt><trkpt lat="46.1457519" lon="9.4862731"><ele>205.5</ele><time>2026-04-11T15:40:12.013Z</time></trkpt><trkpt lat="46.1456737" lon="9.4858558"><ele>206.0</ele><time>2026-04-11T15:40:13.013Z</time></trkpt><trkpt lat="46.145603" lon="9.4854345"><ele>205.5</ele><time>2026-04-11T15:40:14.013Z</time></trkpt><trkpt lat="46.1455371" lon="9.4850097"><ele>205.0</ele><time>2026-04-11T15:40:15.013Z</time></trkpt><trkpt lat="46.1454807" lon="9.4845812"><ele>203.5</ele><time>2026-04-11T15:40:16.013Z</time></trkpt><trkpt lat="46.1454366" lon="9.484155"><ele>202.0</ele><time>2026-04-11T15:40:17.013Z</time></trkpt><trkpt lat="46.1453943" lon="9.4837297"><ele>202.0</ele><time>2026-04-11T15:40:18.013Z</time></trkpt><trkpt lat="46.1453577" lon="9.4833163"><ele>202.0</ele><time>2026-04-11T15:40:19.013Z</time></trkpt><trkpt lat="46.1453301" lon="9.4829154"><ele>202.5</ele><time>2026-04-11T15:40:20.012Z</time></trkpt><trkpt lat="46.1453048" lon="9.4825087"><ele>203.0</ele><time>2026-04-11T15:40:21.013Z</time></trkpt><trkpt lat="46.1452885" lon="9.4821097"><ele>203.0</ele><time>2026-04-11T15:40:22.013Z</time></trkpt><trkpt lat="46.145274" lon="9.4817062"><ele>203.0</ele><time>2026-04-11T15:40:23.013Z</time></trkpt><trkpt lat="46.1452587" lon="9.4812976"><ele>203.5</ele><time>2026-04-11T15:40:24.013Z</time></trkpt><trkpt lat="46.1452462" lon="9.4808859"><ele>204.0</ele><time>2026-04-11T15:40:25.013Z</time></trkpt><trkpt lat="46.145237" lon="9.4804737"><ele>204.0</ele><time>2026-04-11T15:40:26.013Z</time></trkpt><trkpt lat="46.1452315" lon="9.4800617"><ele>204.0</ele><time>2026-04-11T15:40:27.013Z</time></trkpt><trkpt lat="46.145217" lon="9.4796415"><ele>204.0</ele><time>2026-04-11T15:40:28.013Z</time></trkpt><trkpt lat="46.1452075" lon="9.4792196"><ele>204.0</ele><time>2026-04-11T15:40:29.013Z</time></trkpt><trkpt lat="46.1451988" lon="9.4787877"><ele>204.5</ele><time>2026-04-11T15:40:30.013Z</time></trkpt><trkpt lat="46.1451869" lon="9.478365"><ele>205.0</ele><time>2026-04-11T15:40:31.012Z</time></trkpt><trkpt lat="46.1451755" lon="9.477946"><ele>205.0</ele><time>2026-04-11T15:40:32.013Z</time></trkpt><trkpt lat="46.1451671" lon="9.4775248"><ele>205.0</ele><time>2026-04-11T15:40:33.013Z</time></trkpt><trkpt lat="46.1451603" lon="9.4770938"><ele>207.0</ele><time>2026-04-11T15:40:34.013Z</time></trkpt><trkpt lat="46.1451527" lon="9.4766697"><ele>209.0</ele><time>2026-04-11T15:40:35.013Z</time></trkpt><trkpt lat="46.1451436" lon="9.4762407"><ele>211.5</ele><time>2026-04-11T15:40:36.013Z</time></trkpt><trkpt lat="46.1451319" lon="9.4758134"><ele>214.0</ele><time>2026-04-11T15:40:37.013Z</time></trkpt><trkpt lat="46.145124" lon="9.4753853"><ele>214.0</ele><time>2026-04-11T15:40:38.012Z</time></trkpt><trkpt lat="46.1451099" lon="9.4749592"><ele>214.0</ele><time>2026-04-11T15:40:39.013Z</time></trkpt><trkpt lat="46.1450979" lon="9.4745344"><ele>213.0</ele><time>2026-04-11T15:40:40.012Z</time></trkpt><trkpt lat="46.1450901" lon="9.4741088"><ele>212.0</ele><time>2026-04-11T15:40:41.013Z</time></trkpt><trkpt lat="46.1450785" lon="9.4736939"><ele>212.0</ele><time>2026-04-11T15:40:42.013Z</time></trkpt><trkpt lat="46.145071" lon="9.4732752"><ele>212.0</ele><time>2026-04-11T15:40:43.013Z</time></trkpt><trkpt lat="46.1450608" lon="9.4728596"><ele>210.5</ele><time>2026-04-11T15:40:44.013Z</time></trkpt><trkpt lat="46.1450531" lon="9.4724429"><ele>209.0</ele><time>2026-04-11T15:40:45.013Z</time></trkpt><trkpt lat="46.1450421" lon="9.4720183"><ele>209.0</ele><time>2026-04-11T15:40:46.013Z</time></trkpt><trkpt lat="46.1450303" lon="9.471604"><ele>209.0</ele><time>2026-04-11T15:40:47.013Z</time></trkpt><trkpt lat="46.1450206" lon="9.4711947"><ele>207.5</ele><time>2026-04-11T15:40:48.013Z</time></trkpt><trkpt lat="46.1450103" lon="9.4707808"><ele>206.0</ele><time>2026-04-11T15:40:49.013Z</time></trkpt><trkpt lat="46.1450007" lon="9.470364"><ele>205.0</ele><time>2026-04-11T15:40:50.013Z</time></trkpt><trkpt lat="46.1449902" lon="9.4699461"><ele>204.0</ele><time>2026-04-11T15:40:51.013Z</time></trkpt><trkpt lat="46.14498" lon="9.469537"><ele>204.0</ele><time>2026-04-11T15:40:52.013Z</time></trkpt><trkpt lat="46.144968" lon="9.4691261"><ele>204.0</ele><time>2026-04-11T15:40:53.013Z</time></trkpt><trkpt lat="46.1449581" lon="9.4687103"><ele>204.0</ele><time>2026-04-11T15:40:54.012Z</time></trkpt><trkpt lat="46.1449435" lon="9.4683053"><ele>204.0</ele><time>2026-04-11T15:40:55.013Z</time></trkpt><trkpt lat="46.1449272" lon="9.4679016"><ele>204.0</ele><time>2026-04-11T15:40:56.013Z</time></trkpt><trkpt lat="46.1449066" lon="9.4674919"><ele>204.0</ele><time>2026-04-11T15:40:57.012Z</time></trkpt><trkpt lat="46.1448891" lon="9.4670746"><ele>204.0</ele><time>2026-04-11T15:40:58.013Z</time></trkpt><trkpt lat="46.1448697" lon="9.4666577"><ele>204.0</ele><time>2026-04-11T15:40:59.013Z</time></trkpt><trkpt lat="46.1448449" lon="9.4662368"><ele>204.5</ele><time>2026-04-11T15:41:00.013Z</time></trkpt><trkpt lat="46.1448176" lon="9.465819"><ele>205.0</ele><time>2026-04-11T15:41:01.012Z</time></trkpt><trkpt lat="46.1447844" lon="9.4653944"><ele>205.0</ele><time>2026-04-11T15:41:02.013Z</time></trkpt><trkpt lat="46.1447482" lon="9.4649713"><ele>205.0</ele><time>2026-04-11T15:41:03.012Z</time></trkpt><trkpt lat="46.1447125" lon="9.4645525"><ele>204.5</ele><time>2026-04-11T15:41:04.013Z</time></trkpt><trkpt lat="46.1446658" lon="9.4641389"><ele>204.0</ele><time>2026-04-11T15:41:05.012Z</time></trkpt><trkpt lat="46.144617" lon="9.4637293"><ele>203.5</ele><time>2026-04-11T15:41:06.013Z</time></trkpt><trkpt lat="46.1445586" lon="9.4633221"><ele>203.0</ele><time>2026-04-11T15:41:07.012Z</time></trkpt><trkpt lat="46.1445033" lon="9.4629232"><ele>203.0</ele><time>2026-04-11T15:41:08.013Z</time></trkpt><trkpt lat="46.1444407" lon="9.4625403"><ele>203.0</ele><time>2026-04-11T15:41:09.013Z</time></trkpt><trkpt lat="46.1443718" lon="9.4621611"><ele>202.5</ele><time>2026-04-11T15:41:10.013Z</time></trkpt><trkpt lat="46.1443005" lon="9.4617945"><ele>202.0</ele><time>2026-04-11T15:41:11.013Z</time></trkpt><trkpt lat="46.1442253" lon="9.4614289"><ele>202.0</ele><time>2026-04-11T15:41:12.012Z</time></trkpt><trkpt lat="46.1441453" lon="9.4610647"><ele>202.0</ele><time>2026-04-11T15:41:13.013Z</time></trkpt><trkpt lat="46.1440741" lon="9.4607041"><ele>203.0</ele><time>2026-04-11T15:41:14.012Z</time></trkpt><trkpt lat="46.143994" lon="9.4603552"><ele>204.0</ele><time>2026-04-11T15:41:15.013Z</time></trkpt><trkpt lat="46.1439099" lon="9.4600045"><ele>204.0</ele><time>2026-04-11T15:41:16.013Z</time></trkpt><trkpt lat="46.1438216" lon="9.4596538"><ele>204.0</ele><time>2026-04-11T15:41:17.013Z</time></trkpt><trkpt lat="46.1437303" lon="9.4593"><ele>204.0</ele><time>2026-04-11T15:41:18.013Z</time></trkpt><trkpt lat="46.1436399" lon="9.4589423"><ele>204.0</ele><time>2026-04-11T15:41:19.014Z</time></trkpt><trkpt lat="46.1435449" lon="9.4585814"><ele>204.0</ele><time>2026-04-11T15:41:20.013Z</time></trkpt><trkpt lat="46.1434518" lon="9.4582188"><ele>204.0</ele><time>2026-04-11T15:41:21.014Z</time></trkpt><trkpt lat="46.1433545" lon="9.4578603"><ele>203.5</ele><time>2026-04-11T15:41:22.014Z</time></trkpt><trkpt lat="46.1432579" lon="9.4575051"><ele>203.0</ele><time>2026-04-11T15:41:23.014Z</time></trkpt><trkpt lat="46.1431675" lon="9.4571471"><ele>203.0</ele><time>2026-04-11T15:41:24.014Z</time></trkpt><trkpt lat="46.1430805" lon="9.4567844"><ele>203.0</ele><time>2026-04-11T15:41:25.014Z</time></trkpt><trkpt lat="46.1429839" lon="9.456428"><ele>203.0</ele><time>2026-04-11T15:41:26.014Z</time></trkpt><trkpt lat="46.142892" lon="9.4560667"><ele>203.0</ele><time>2026-04-11T15:41:27.014Z</time></trkpt><trkpt lat="46.1428026" lon="9.4557045"><ele>203.0</ele><time>2026-04-11T15:41:28.014Z</time></trkpt><trkpt lat="46.1427159" lon="9.4553398"><ele>203.0</ele><time>2026-04-11T15:41:29.014Z</time></trkpt><trkpt lat="46.1426307" lon="9.4549702"><ele>202.5</ele><time>2026-04-11T15:41:30.014Z</time></trkpt><trkpt lat="46.1425505" lon="9.4546035"><ele>202.0</ele><time>2026-04-11T15:41:31.014Z</time></trkpt><trkpt lat="46.1424735" lon="9.4542368"><ele>202.0</ele><time>2026-04-11T15:41:32.014Z</time></trkpt><trkpt lat="46.1424013" lon="9.4538688"><ele>202.0</ele><time>2026-04-11T15:41:33.014Z</time></trkpt><trkpt lat="46.1423326" lon="9.4534955"><ele>202.5</ele><time>2026-04-11T15:41:34.014Z</time></trkpt><trkpt lat="46.1422674" lon="9.4531211"><ele>203.0</ele><time>2026-04-11T15:41:35.014Z</time></trkpt><trkpt lat="46.1422123" lon="9.4527434"><ele>203.0</ele><time>2026-04-11T15:41:36.014Z</time></trkpt><trkpt lat="46.1421622" lon="9.4523584"><ele>203.0</ele><time>2026-04-11T15:41:37.014Z</time></trkpt><trkpt lat="46.1421179" lon="9.4519731"><ele>203.0</ele><time>2026-04-11T15:41:38.014Z</time></trkpt><trkpt lat="46.142079" lon="9.4515861"><ele>203.0</ele><time>2026-04-11T15:41:39.014Z</time></trkpt><trkpt lat="46.142046" lon="9.4511995"><ele>203.0</ele><time>2026-04-11T15:41:40.014Z</time></trkpt><trkpt lat="46.1420191" lon="9.4508102"><ele>203.0</ele><time>2026-04-11T15:41:41.014Z</time></trkpt><trkpt lat="46.1419964" lon="9.4504218"><ele>202.5</ele><time>2026-04-11T15:41:42.013Z</time></trkpt><trkpt lat="46.1419792" lon="9.4500285"><ele>202.0</ele><time>2026-04-11T15:41:43.013Z</time></trkpt><trkpt lat="46.141966" lon="9.4496399"><ele>202.0</ele><time>2026-04-11T15:41:44.014Z</time></trkpt><trkpt lat="46.1419578" lon="9.4492546"><ele>202.0</ele><time>2026-04-11T15:41:45.014Z</time></trkpt><trkpt lat="46.1419585" lon="9.4488699"><ele>201.5</ele><time>2026-04-11T15:41:46.014Z</time></trkpt><trkpt lat="46.141957" lon="9.4484832"><ele>201.0</ele><time>2026-04-11T15:41:47.014Z</time></trkpt><trkpt lat="46.141961" lon="9.4480953"><ele>201.0</ele><time>2026-04-11T15:41:48.014Z</time></trkpt><trkpt lat="46.1419698" lon="9.447707"><ele>201.0</ele><time>2026-04-11T15:41:49.013Z</time></trkpt><trkpt lat="46.1419832" lon="9.4473183"><ele>201.0</ele><time>2026-04-11T15:41:50.014Z</time></trkpt><trkpt lat="46.1419987" lon="9.4469248"><ele>201.0</ele><time>2026-04-11T15:41:51.014Z</time></trkpt><trkpt lat="46.142028" lon="9.4465333"><ele>202.0</ele><time>2026-04-11T15:41:52.014Z</time></trkpt><trkpt lat="46.1420682" lon="9.4461415"><ele>203.0</ele><time>2026-04-11T15:41:53.014Z</time></trkpt><trkpt lat="46.1421151" lon="9.4457633"><ele>202.5</ele><time>2026-04-11T15:41:54.014Z</time></trkpt><trkpt lat="46.1421622" lon="9.44537"><ele>202.0</ele><time>2026-04-11T15:41:55.014Z</time></trkpt><trkpt lat="46.1422143" lon="9.4449886"><ele>201.5</ele><time>2026-04-11T15:41:56.014Z</time></trkpt><trkpt lat="46.1422705" lon="9.4446009"><ele>201.0</ele><time>2026-04-11T15:41:57.013Z</time></trkpt><trkpt lat="46.1423369" lon="9.4442196"><ele>200.5</ele><time>2026-04-11T15:41:58.014Z</time></trkpt><trkpt lat="46.1424004" lon="9.443841"><ele>200.0</ele><time>2026-04-11T15:41:59.014Z</time></trkpt><trkpt lat="46.1424682" lon="9.4434595"><ele>200.5</ele><time>2026-04-11T15:42:00.014Z</time></trkpt><trkpt lat="46.1425455" lon="9.4430835"><ele>201.0</ele><time>2026-04-11T15:42:01.014Z</time></trkpt><trkpt lat="46.142624" lon="9.442706"><ele>201.0</ele><time>2026-04-11T15:42:02.014Z</time></trkpt><trkpt lat="46.1427097" lon="9.4423272"><ele>201.0</ele><time>2026-04-11T15:42:03.014Z</time></trkpt><trkpt lat="46.1427978" lon="9.4419495"><ele>201.0</ele><time>2026-04-11T15:42:04.014Z</time></trkpt><trkpt lat="46.1428853" lon="9.4415685"><ele>201.0</ele><time>2026-04-11T15:42:05.014Z</time></trkpt><trkpt lat="46.1429711" lon="9.4411869"><ele>200.5</ele><time>2026-04-11T15:42:06.013Z</time></trkpt><trkpt lat="46.1430539" lon="9.4408015"><ele>200.0</ele><time>2026-04-11T15:42:07.013Z</time></trkpt><trkpt lat="46.1431362" lon="9.4404127"><ele>200.5</ele><time>2026-04-11T15:42:08.014Z</time></trkpt><trkpt lat="46.1432235" lon="9.4400309"><ele>201.0</ele><time>2026-04-11T15:42:09.013Z</time></trkpt><trkpt lat="46.1433061" lon="9.4396535"><ele>201.5</ele><time>2026-04-11T15:42:10.014Z</time></trkpt><trkpt lat="46.1433933" lon="9.4392796"><ele>202.0</ele><time>2026-04-11T15:42:11.014Z</time></trkpt><trkpt lat="46.1434796" lon="9.4389093"><ele>200.0</ele><time>2026-04-11T15:42:12.013Z</time></trkpt><trkpt lat="46.1436436" lon="9.438179"><ele>200.5</ele><time>2026-04-11T15:42:14.014Z</time></trkpt><trkpt lat="46.1437302" lon="9.4378114"><ele>201.0</ele><time>2026-04-11T15:42:15.014Z</time></trkpt><trkpt lat="46.1438131" lon="9.4374304"><ele>200.5</ele><time>2026-04-11T15:42:16.014Z</time></trkpt><trkpt lat="46.1439053" lon="9.4370381"><ele>200.0</ele><time>2026-04-11T15:42:17.014Z</time></trkpt><trkpt lat="46.1439962" lon="9.4366307"><ele>200.5</ele><time>2026-04-11T15:42:18.014Z</time></trkpt><trkpt lat="46.1440867" lon="9.4362086"><ele>201.0</ele><time>2026-04-11T15:42:19.014Z</time></trkpt><trkpt lat="46.1441812" lon="9.4357858"><ele>201.0</ele><time>2026-04-11T15:42:20.014Z</time></trkpt><trkpt lat="46.1442811" lon="9.4353644"><ele>201.0</ele><time>2026-04-11T15:42:21.014Z</time></trkpt><trkpt lat="46.1443794" lon="9.4349388"><ele>201.0</ele><time>2026-04-11T15:42:22.013Z</time></trkpt><trkpt lat="46.1444742" lon="9.434514"><ele>201.0</ele><time>2026-04-11T15:42:23.014Z</time></trkpt><trkpt lat="46.1445665" lon="9.4340884"><ele>200.5</ele><time>2026-04-11T15:42:24.014Z</time></trkpt><trkpt lat="46.1446561" lon="9.433663"><ele>200.0</ele><time>2026-04-11T15:42:25.014Z</time></trkpt><trkpt lat="46.1447381" lon="9.433242"><ele>199.5</ele><time>2026-04-11T15:42:26.013Z</time></trkpt><trkpt lat="46.1448196" lon="9.4328192"><ele>199.0</ele><time>2026-04-11T15:42:27.014Z</time></trkpt><trkpt lat="46.1448994" lon="9.4323939"><ele>200.0</ele><time>2026-04-11T15:42:28.014Z</time></trkpt><trkpt lat="46.1449669" lon="9.4319673"><ele>201.0</ele><time>2026-04-11T15:42:29.014Z</time></trkpt><trkpt lat="46.1450248" lon="9.4315559"><ele>201.0</ele><time>2026-04-11T15:42:30.014Z</time></trkpt><trkpt lat="46.1450753" lon="9.4311451"><ele>201.0</ele><time>2026-04-11T15:42:31.014Z</time></trkpt><trkpt lat="46.1451172" lon="9.4307481"><ele>200.5</ele><time>2026-04-11T15:42:32.014Z</time></trkpt><trkpt lat="46.1451555" lon="9.4303559"><ele>200.0</ele><time>2026-04-11T15:42:33.014Z</time></trkpt><trkpt lat="46.1451858" lon="9.4299626"><ele>200.0</ele><time>2026-04-11T15:42:34.014Z</time></trkpt><trkpt lat="46.1452095" lon="9.4295835"><ele>200.0</ele><time>2026-04-11T15:42:35.013Z</time></trkpt><trkpt lat="46.1452256" lon="9.4292124"><ele>200.0</ele><time>2026-04-11T15:42:36.014Z</time></trkpt><trkpt lat="46.145238" lon="9.4288451"><ele>200.0</ele><time>2026-04-11T15:42:37.014Z</time></trkpt><trkpt lat="46.1452481" lon="9.4284756"><ele>200.5</ele><time>2026-04-11T15:42:38.014Z</time></trkpt><trkpt lat="46.145247" lon="9.4281012"><ele>201.0</ele><time>2026-04-11T15:42:39.014Z</time></trkpt><trkpt lat="46.1452491" lon="9.4277239"><ele>201.0</ele><time>2026-04-11T15:42:40.014Z</time></trkpt><trkpt lat="46.1452419" lon="9.4273484"><ele>201.0</ele><time>2026-04-11T15:42:41.014Z</time></trkpt><trkpt lat="46.1452276" lon="9.4269655"><ele>201.0</ele><time>2026-04-11T15:42:42.014Z</time></trkpt><trkpt lat="46.1452069" lon="9.426582"><ele>201.0</ele><time>2026-04-11T15:42:43.013Z</time></trkpt><trkpt lat="46.1451843" lon="9.4261997"><ele>200.5</ele><time>2026-04-11T15:42:44.014Z</time></trkpt><trkpt lat="46.1451541" lon="9.4258205"><ele>200.0</ele><time>2026-04-11T15:42:45.014Z</time></trkpt><trkpt lat="46.1451155" lon="9.4254508"><ele>200.0</ele><time>2026-04-11T15:42:46.013Z</time></trkpt><trkpt lat="46.1450762" lon="9.4250859"><ele>200.0</ele><time>2026-04-11T15:42:47.014Z</time></trkpt><trkpt lat="46.1450371" lon="9.4247254"><ele>201.0</ele><time>2026-04-11T15:42:48.014Z</time></trkpt><trkpt lat="46.1449952" lon="9.4243735"><ele>202.0</ele><time>2026-04-11T15:42:49.013Z</time></trkpt><trkpt lat="46.1449492" lon="9.4240143"><ele>201.5</ele><time>2026-04-11T15:42:50.014Z</time></trkpt><trkpt lat="46.1448996" lon="9.4236461"><ele>201.0</ele><time>2026-04-11T15:42:51.014Z</time></trkpt><trkpt lat="46.1448466" lon="9.4232796"><ele>200.5</ele><time>2026-04-11T15:42:52.014Z</time></trkpt><trkpt lat="46.1448" lon="9.4228993"><ele>200.0</ele><time>2026-04-11T15:42:53.014Z</time></trkpt><trkpt lat="46.144748" lon="9.4225224"><ele>199.5</ele><time>2026-04-11T15:42:54.013Z</time></trkpt><trkpt lat="46.1446999" lon="9.4221459"><ele>199.0</ele><time>2026-04-11T15:42:55.014Z</time></trkpt><trkpt lat="46.1445982" lon="9.4213949"><ele>198.5</ele><time>2026-04-11T15:42:57.014Z</time></trkpt><trkpt lat="46.144547" lon="9.4210237"><ele>198.0</ele><time>2026-04-11T15:42:58.014Z</time></trkpt><trkpt lat="46.144493" lon="9.4206605"><ele>198.5</ele><time>2026-04-11T15:42:59.014Z</time></trkpt><trkpt lat="46.144439" lon="9.4202951"><ele>199.0</ele><time>2026-04-11T15:43:00.014Z</time></trkpt><trkpt lat="46.1443859" lon="9.4199314"><ele>200.0</ele><time>2026-04-11T15:43:01.014Z</time></trkpt><trkpt lat="46.1443377" lon="9.4195685"><ele>201.0</ele><time>2026-04-11T15:43:02.014Z</time></trkpt><trkpt lat="46.1442911" lon="9.4192001"><ele>201.0</ele><time>2026-04-11T15:43:03.014Z</time></trkpt><trkpt lat="46.14424" lon="9.4188323"><ele>201.0</ele><time>2026-04-11T15:43:04.013Z</time></trkpt><trkpt lat="46.1441869" lon="9.4184656"><ele>200.5</ele><time>2026-04-11T15:43:05.014Z</time></trkpt><trkpt lat="46.1441331" lon="9.4181028"><ele>200.0</ele><time>2026-04-11T15:43:06.014Z</time></trkpt><trkpt lat="46.1440819" lon="9.4177378"><ele>199.5</ele><time>2026-04-11T15:43:07.014Z</time></trkpt><trkpt lat="46.1440317" lon="9.417379"><ele>199.0</ele><time>2026-04-11T15:43:08.013Z</time></trkpt><trkpt lat="46.1439805" lon="9.4170215"><ele>199.0</ele><time>2026-04-11T15:43:09.014Z</time></trkpt><trkpt lat="46.1439217" lon="9.4166735"><ele>199.0</ele><time>2026-04-11T15:43:10.014Z</time></trkpt><trkpt lat="46.1438564" lon="9.4163291"><ele>200.0</ele><time>2026-04-11T15:43:11.014Z</time></trkpt><trkpt lat="46.1437869" lon="9.4159867"><ele>201.0</ele><time>2026-04-11T15:43:12.014Z</time></trkpt><trkpt lat="46.1437126" lon="9.4156422"><ele>201.0</ele><time>2026-04-11T15:43:13.014Z</time></trkpt><trkpt lat="46.1436338" lon="9.4153107"><ele>201.0</ele><time>2026-04-11T15:43:14.014Z</time></trkpt><trkpt lat="46.1435543" lon="9.4149865"><ele>201.0</ele><time>2026-04-11T15:43:15.014Z</time></trkpt><trkpt lat="46.1434602" lon="9.4146605"><ele>201.0</ele><time>2026-04-11T15:43:16.014Z</time></trkpt><trkpt lat="46.143353" lon="9.4143381"><ele>201.5</ele><time>2026-04-11T15:43:17.014Z</time></trkpt><trkpt lat="46.1432327" lon="9.4140179"><ele>202.0</ele><time>2026-04-11T15:43:18.014Z</time></trkpt><trkpt lat="46.1431018" lon="9.4137025"><ele>202.0</ele><time>2026-04-11T15:43:19.014Z</time></trkpt><trkpt lat="46.1429554" lon="9.4134036"><ele>202.0</ele><time>2026-04-11T15:43:20.014Z</time></trkpt><trkpt lat="46.1428049" lon="9.4131038"><ele>201.0</ele><time>2026-04-11T15:43:21.013Z</time></trkpt><trkpt lat="46.1426376" lon="9.4128126"><ele>200.0</ele><time>2026-04-11T15:43:22.014Z</time></trkpt><trkpt lat="46.1424597" lon="9.4125302"><ele>200.5</ele><time>2026-04-11T15:43:23.013Z</time></trkpt><trkpt lat="46.1422675" lon="9.4122608"><ele>201.0</ele><time>2026-04-11T15:43:24.014Z</time></trkpt><trkpt lat="46.142068" lon="9.4120008"><ele>202.0</ele><time>2026-04-11T15:43:25.014Z</time></trkpt><trkpt lat="46.1418513" lon="9.4117615"><ele>203.0</ele><time>2026-04-11T15:43:26.013Z</time></trkpt><trkpt lat="46.1416183" lon="9.4115455"><ele>203.0</ele><time>2026-04-11T15:43:27.014Z</time></trkpt><trkpt lat="46.1413675" lon="9.4113291"><ele>203.0</ele><time>2026-04-11T15:43:28.014Z</time></trkpt><trkpt lat="46.141106" lon="9.411131"><ele>203.0</ele><time>2026-04-11T15:43:29.013Z</time></trkpt><trkpt lat="46.1408252" lon="9.4109539"><ele>203.0</ele><time>2026-04-11T15:43:30.013Z</time></trkpt><trkpt lat="46.1405359" lon="9.4107798"><ele>203.0</ele><time>2026-04-11T15:43:31.013Z</time></trkpt><trkpt lat="46.1402468" lon="9.410607"><ele>203.0</ele><time>2026-04-11T15:43:32.013Z</time></trkpt><trkpt lat="46.1399703" lon="9.4104225"><ele>202.5</ele><time>2026-04-11T15:43:33.013Z</time></trkpt><trkpt lat="46.1397196" lon="9.4102221"><ele>202.0</ele><time>2026-04-11T15:43:34.013Z</time></trkpt><trkpt lat="46.1394863" lon="9.4100121"><ele>202.0</ele><time>2026-04-11T15:43:35.013Z</time></trkpt><trkpt lat="46.1392563" lon="9.4097963"><ele>202.0</ele><time>2026-04-11T15:43:36.013Z</time></trkpt><trkpt lat="46.1390263" lon="9.4095792"><ele>203.0</ele><time>2026-04-11T15:43:37.013Z</time></trkpt><trkpt lat="46.1385751" lon="9.4091111"><ele>203.0</ele><time>2026-04-11T15:43:39.013Z</time></trkpt><trkpt lat="46.1383478" lon="9.4088728"><ele>203.0</ele><time>2026-04-11T15:43:40.012Z</time></trkpt><trkpt lat="46.1381163" lon="9.4086278"><ele>205.0</ele><time>2026-04-11T15:43:41.013Z</time></trkpt><trkpt lat="46.1378895" lon="9.4083801"><ele>207.0</ele><time>2026-04-11T15:43:42.013Z</time></trkpt><trkpt lat="46.1376598" lon="9.4081398"><ele>208.0</ele><time>2026-04-11T15:43:43.013Z</time></trkpt><trkpt lat="46.1374327" lon="9.4079044"><ele>209.0</ele><time>2026-04-11T15:43:44.013Z</time></trkpt><trkpt lat="46.137203" lon="9.407666"><ele>209.5</ele><time>2026-04-11T15:43:45.013Z</time></trkpt><trkpt lat="46.1369796" lon="9.4074255"><ele>210.0</ele><time>2026-04-11T15:43:46.013Z</time></trkpt><trkpt lat="46.136751" lon="9.4071838"><ele>214.5</ele><time>2026-04-11T15:43:47.013Z</time></trkpt><trkpt lat="46.1365167" lon="9.4069414"><ele>219.0</ele><time>2026-04-11T15:43:48.013Z</time></trkpt><trkpt lat="46.1362845" lon="9.406694"><ele>219.0</ele><time>2026-04-11T15:43:49.013Z</time></trkpt><trkpt lat="46.1360544" lon="9.4064579"><ele>219.0</ele><time>2026-04-11T15:43:50.013Z</time></trkpt><trkpt lat="46.1358378" lon="9.4062249"><ele>225.5</ele><time>2026-04-11T15:43:51.013Z</time></trkpt><trkpt lat="46.1356277" lon="9.4060036"><ele>232.0</ele><time>2026-04-11T15:43:52.013Z</time></trkpt><trkpt lat="46.1354245" lon="9.4057842"><ele>232.0</ele><time>2026-04-11T15:43:53.013Z</time></trkpt><trkpt lat="46.1352179" lon="9.4055703"><ele>232.0</ele><time>2026-04-11T15:43:54.013Z</time></trkpt><trkpt lat="46.1350168" lon="9.4053526"><ele>240.0</ele><time>2026-04-11T15:43:55.013Z</time></trkpt><trkpt lat="46.1348189" lon="9.4051333"><ele>248.0</ele><time>2026-04-11T15:43:56.013Z</time></trkpt><trkpt lat="46.1331982" lon="9.4018454"><ele>248.5</ele><time>2026-04-11T15:44:04.298Z</time></trkpt><trkpt lat="46.1331918" lon="9.4013925"><ele>249.0</ele><time>2026-04-11T15:44:08.013Z</time></trkpt><trkpt lat="46.1331003" lon="9.4010169"><ele>249.0</ele><time>2026-04-11T15:44:09.012Z</time></trkpt><trkpt lat="46.1329854" lon="9.400674"><ele>249.0</ele><time>2026-04-11T15:44:10.013Z</time></trkpt><trkpt lat="46.1328687" lon="9.4003503"><ele>249.5</ele><time>2026-04-11T15:44:11.013Z</time></trkpt><trkpt lat="46.1327606" lon="9.4000106"><ele>250.0</ele><time>2026-04-11T15:44:12.013Z</time></trkpt><trkpt lat="46.1326611" lon="9.3996681"><ele>250.5</ele><time>2026-04-11T15:44:13.013Z</time></trkpt><trkpt lat="46.1325761" lon="9.3993173"><ele>251.0</ele><time>2026-04-11T15:44:14.012Z</time></trkpt><trkpt lat="46.1325119" lon="9.3989522"><ele>251.5</ele><time>2026-04-11T15:44:15.012Z</time></trkpt><trkpt lat="46.1324612" lon="9.3985855"><ele>252.0</ele><time>2026-04-11T15:44:16.013Z</time></trkpt><trkpt lat="46.1324265" lon="9.3982158"><ele>253.5</ele><time>2026-04-11T15:44:17.013Z</time></trkpt><trkpt lat="46.1324016" lon="9.3978324"><ele>255.0</ele><time>2026-04-11T15:44:18.013Z</time></trkpt><trkpt lat="46.1323905" lon="9.3974624"><ele>258.5</ele><time>2026-04-11T15:44:19.013Z</time></trkpt><trkpt lat="46.1323961" lon="9.3970912"><ele>262.0</ele><time>2026-04-11T15:44:20.013Z</time></trkpt><trkpt lat="46.1324154" lon="9.3967411"><ele>276.0</ele><time>2026-04-11T15:44:21.013Z</time></trkpt><trkpt lat="46.1334758" lon="9.3901147"><ele>276.0</ele><time>2026-04-11T15:44:39.013Z</time></trkpt><trkpt lat="46.1335517" lon="9.3896781"><ele>276.0</ele><time>2026-04-11T15:44:40.013Z</time></trkpt><trkpt lat="46.1336464" lon="9.3892748"><ele>277.0</ele><time>2026-04-11T15:44:41.012Z</time></trkpt><trkpt lat="46.1337038" lon="9.3888921"><ele>278.0</ele><time>2026-04-11T15:44:42.013Z</time></trkpt><trkpt lat="46.1337651" lon="9.3885196"><ele>278.0</ele><time>2026-04-11T15:44:43.013Z</time></trkpt><trkpt lat="46.1338073" lon="9.3881482"><ele>278.0</ele><time>2026-04-11T15:44:44.013Z</time></trkpt><trkpt lat="46.1338386" lon="9.3877926"><ele>278.0</ele><time>2026-04-11T15:44:45.012Z</time></trkpt><trkpt lat="46.1338573" lon="9.3874463"><ele>278.0</ele><time>2026-04-11T15:44:46.012Z</time></trkpt><trkpt lat="46.133864" lon="9.3871156"><ele>277.33333333333337</ele><time>2026-04-11T15:44:47.013Z</time></trkpt><trkpt lat="46.13386" lon="9.3867996"><ele>276.6666666666667</ele><time>2026-04-11T15:44:48.013Z</time></trkpt><trkpt lat="46.1338448" lon="9.3864811"><ele>276.0</ele><time>2026-04-11T15:44:49.013Z</time></trkpt><trkpt lat="46.1338205" lon="9.3861656"><ele>276.0</ele><time>2026-04-11T15:44:50.013Z</time></trkpt><trkpt lat="46.1337934" lon="9.3858657"><ele>276.0</ele><time>2026-04-11T15:44:51.012Z</time></trkpt><trkpt lat="46.1337577" lon="9.3855735"><ele>276.0</ele><time>2026-04-11T15:44:52.013Z</time></trkpt><trkpt lat="46.1337197" lon="9.3852954"><ele>274.6666666666667</ele><time>2026-04-11T15:44:53.013Z</time></trkpt><trkpt lat="46.1336742" lon="9.3850136"><ele>273.33333333333337</ele><time>2026-04-11T15:44:54.013Z</time></trkpt><trkpt lat="46.1336118" lon="9.3847338"><ele>272.0</ele><time>2026-04-11T15:44:55.013Z</time></trkpt><trkpt lat="46.1335379" lon="9.3844395"><ele>271.0</ele><time>2026-04-11T15:44:56.013Z</time></trkpt><trkpt lat="46.1334522" lon="9.3841395"><ele>270.0</ele><time>2026-04-11T15:44:57.013Z</time></trkpt><trkpt lat="46.1333592" lon="9.3838304"><ele>270.0</ele><time>2026-04-11T15:44:58.013Z</time></trkpt><trkpt lat="46.1332579" lon="9.383511"><ele>270.0</ele><time>2026-04-11T15:44:59.013Z</time></trkpt><trkpt lat="46.13314" lon="9.3831892"><ele>273.0</ele><time>2026-04-11T15:45:00.013Z</time></trkpt><trkpt lat="46.1330051" lon="9.3828581"><ele>276.0</ele><time>2026-04-11T15:45:01.013Z</time></trkpt><trkpt lat="46.1328541" lon="9.3825305"><ele>276.0</ele><time>2026-04-11T15:45:02.013Z</time></trkpt><trkpt lat="46.1326961" lon="9.3822044"><ele>276.0</ele><time>2026-04-11T15:45:03.013Z</time></trkpt><trkpt lat="46.1325419" lon="9.3818791"><ele>277.5</ele><time>2026-04-11T15:45:04.013Z</time></trkpt><trkpt lat="46.1323878" lon="9.3815603"><ele>279.0</ele><time>2026-04-11T15:45:05.013Z</time></trkpt><trkpt lat="46.1322384" lon="9.3812515"><ele>279.0</ele><time>2026-04-11T15:45:06.013Z</time></trkpt><trkpt lat="46.1320952" lon="9.380954"><ele>279.0</ele><time>2026-04-11T15:45:07.013Z</time></trkpt><trkpt lat="46.1319515" lon="9.3806528"><ele>277.0</ele><time>2026-04-11T15:45:08.013Z</time></trkpt><trkpt lat="46.1318091" lon="9.3803537"><ele>275.0</ele><time>2026-04-11T15:45:09.013Z</time></trkpt><trkpt lat="46.1316633" lon="9.3800466"><ele>268.0</ele><time>2026-04-11T15:45:10.013Z</time></trkpt><trkpt lat="46.1289895" lon="9.3729335"><ele>268.0</ele><time>2026-04-11T15:45:31.013Z</time></trkpt><trkpt lat="46.1289459" lon="9.372527"><ele>268.0</ele><time>2026-04-11T15:45:32.013Z</time></trkpt><trkpt lat="46.1288902" lon="9.3721483"><ele>267.5</ele><time>2026-04-11T15:45:33.013Z</time></trkpt><trkpt lat="46.128838" lon="9.3717842"><ele>267.0</ele><time>2026-04-11T15:45:34.013Z</time></trkpt><trkpt lat="46.1287923" lon="9.3714298"><ele>266.0</ele><time>2026-04-11T15:45:35.012Z</time></trkpt><trkpt lat="46.1287342" lon="9.3710616"><ele>265.0</ele><time>2026-04-11T15:45:36.013Z</time></trkpt><trkpt lat="46.1286828" lon="9.3706927"><ele>265.0</ele><time>2026-04-11T15:45:37.013Z</time></trkpt><trkpt lat="46.1286238" lon="9.3703139"><ele>265.0</ele><time>2026-04-11T15:45:38.013Z</time></trkpt><trkpt lat="46.1285593" lon="9.3699648"><ele>263.0</ele><time>2026-04-11T15:45:39.013Z</time></trkpt><trkpt lat="46.128503" lon="9.3696301"><ele>261.0</ele><time>2026-04-11T15:45:40.012Z</time></trkpt><trkpt lat="46.1284482" lon="9.3693064"><ele>261.0</ele><time>2026-04-11T15:45:41.013Z</time></trkpt><trkpt lat="46.1283969" lon="9.3689739"><ele>261.0</ele><time>2026-04-11T15:45:42.013Z</time></trkpt><trkpt lat="46.1283341" lon="9.3686142"><ele>259.5</ele><time>2026-04-11T15:45:43.013Z</time></trkpt><trkpt lat="46.1282768" lon="9.3682497"><ele>258.0</ele><time>2026-04-11T15:45:44.012Z</time></trkpt><trkpt lat="46.1282193" lon="9.3678894"><ele>259.5</ele><time>2026-04-11T15:45:45.013Z</time></trkpt><trkpt lat="46.1281668" lon="9.367529"><ele>261.0</ele><time>2026-04-11T15:45:46.013Z</time></trkpt><trkpt lat="46.1281141" lon="9.3671667"><ele>261.0</ele><time>2026-04-11T15:45:47.013Z</time></trkpt><trkpt lat="46.1280669" lon="9.366803"><ele>261.0</ele><time>2026-04-11T15:45:48.013Z</time></trkpt><trkpt lat="46.1280209" lon="9.3664431"><ele>259.5</ele><time>2026-04-11T15:45:49.013Z</time></trkpt><trkpt lat="46.1279697" lon="9.366081"><ele>258.0</ele><time>2026-04-11T15:45:50.012Z</time></trkpt><trkpt lat="46.1279125" lon="9.3657179"><ele>257.5</ele><time>2026-04-11T15:45:51.013Z</time></trkpt><trkpt lat="46.127859" lon="9.3653561"><ele>257.0</ele><time>2026-04-11T15:45:52.013Z</time></trkpt><trkpt lat="46.1278033" lon="9.3649952"><ele>256.5</ele><time>2026-04-11T15:45:53.013Z</time></trkpt><trkpt lat="46.1277424" lon="9.3646253"><ele>256.0</ele><time>2026-04-11T15:45:54.013Z</time></trkpt><trkpt lat="46.1276742" lon="9.3642471"><ele>256.0</ele><time>2026-04-11T15:45:55.013Z</time></trkpt><trkpt lat="46.1275942" lon="9.3638829"><ele>256.0</ele><time>2026-04-11T15:45:56.013Z</time></trkpt><trkpt lat="46.1275029" lon="9.3635253"><ele>255.0</ele><time>2026-04-11T15:45:57.013Z</time></trkpt><trkpt lat="46.1274013" lon="9.36318"><ele>254.0</ele><time>2026-04-11T15:45:58.013Z</time></trkpt><trkpt lat="46.1272896" lon="9.3628344"><ele>255.0</ele><time>2026-04-11T15:45:59.012Z</time></trkpt><trkpt lat="46.1271743" lon="9.3624941"><ele>256.0</ele><time>2026-04-11T15:46:00.013Z</time></trkpt><trkpt lat="46.1270574" lon="9.3621594"><ele>256.0</ele><time>2026-04-11T15:46:01.013Z</time></trkpt><trkpt lat="46.1269517" lon="9.3618243"><ele>256.0</ele><time>2026-04-11T15:46:02.013Z</time></trkpt><trkpt lat="46.1171539" lon="9.349385"><ele>227.0</ele><time>2026-04-11T15:46:39.81Z</time></trkpt><trkpt lat="46.1190419" lon="9.3519673"><ele>227.0</ele><time>2026-04-11T15:46:42.013Z</time></trkpt><trkpt lat="46.1187913" lon="9.3517523"><ele>227.0</ele><time>2026-04-11T15:46:43.013Z</time></trkpt><trkpt lat="46.1186011" lon="9.3514948"><ele>225.0</ele><time>2026-04-11T15:46:44.013Z</time></trkpt><trkpt lat="46.1184091" lon="9.3512422"><ele>223.0</ele><time>2026-04-11T15:46:45.013Z</time></trkpt><trkpt lat="46.11822" lon="9.3510095"><ele>226.0</ele><time>2026-04-11T15:46:46.013Z</time></trkpt><trkpt lat="46.1180471" lon="9.350764"><ele>229.0</ele><time>2026-04-11T15:46:47.013Z</time></trkpt><trkpt lat="46.1178793" lon="9.3505239"><ele>229.0</ele><time>2026-04-11T15:46:48.013Z</time></trkpt><trkpt lat="46.1177197" lon="9.3502928"><ele>229.0</ele><time>2026-04-11T15:46:49.013Z</time></trkpt><trkpt lat="46.1175571" lon="9.3500571"><ele>247.0</ele><time>2026-04-11T15:46:50.013Z</time></trkpt><trkpt lat="46.1173926" lon="9.3498206"><ele>265.0</ele><time>2026-04-11T15:46:51.013Z</time></trkpt><trkpt lat="46.117238" lon="9.3495723"><ele>265.0</ele><time>2026-04-11T15:46:52.012Z</time></trkpt><trkpt lat="46.1170967" lon="9.3493358"><ele>265.0</ele><time>2026-04-11T15:46:53.013Z</time></trkpt><trkpt lat="46.0864197" lon="9.3125913"><ele>269.0</ele><time>2026-04-11T15:49:33.013Z</time></trkpt><trkpt lat="46.0861223" lon="9.3126009"><ele>273.0</ele><time>2026-04-11T15:49:34.012Z</time></trkpt><trkpt lat="46.085876" lon="9.312604"><ele>270.5</ele><time>2026-04-11T15:49:35.013Z</time></trkpt><trkpt lat="46.0856218" lon="9.3126381"><ele>268.0</ele><time>2026-04-11T15:49:36.013Z</time></trkpt><trkpt lat="46.0853701" lon="9.3126736"><ele>268.0</ele><time>2026-04-11T15:49:37.013Z</time></trkpt><trkpt lat="46.0851105" lon="9.3127364"><ele>268.0</ele><time>2026-04-11T15:49:38.013Z</time></trkpt><trkpt lat="46.0848517" lon="9.3128058"><ele>263.5</ele><time>2026-04-11T15:49:39.013Z</time></trkpt><trkpt lat="46.0846001" lon="9.3128807"><ele>259.0</ele><time>2026-04-11T15:49:40.013Z</time></trkpt><trkpt lat="46.0843412" lon="9.3129748"><ele>271.0</ele><time>2026-04-11T15:49:41.013Z</time></trkpt><trkpt lat="46.0840877" lon="9.3130759"><ele>283.0</ele><time>2026-04-11T15:49:42.012Z</time></trkpt><trkpt lat="46.0838344" lon="9.3131908"><ele>283.0</ele><time>2026-04-11T15:49:43.013Z</time></trkpt><trkpt lat="46.0835842" lon="9.3133026"><ele>283.0</ele><time>2026-04-11T15:49:44.013Z</time></trkpt><trkpt lat="46.0833364" lon="9.3134126"><ele>372.0</ele><time>2026-04-11T15:49:45.013Z</time></trkpt><trkpt lat="46.0764635" lon="9.3152215"><ele>372.0</ele><time>2026-04-11T15:50:12.013Z</time></trkpt><trkpt lat="46.076145" lon="9.315218"><ele>372.0</ele><time>2026-04-11T15:50:13.013Z</time></trkpt><trkpt lat="46.0515611" lon="9.3147569"><ele>343.0</ele><time>2026-04-11T15:51:48.012Z</time></trkpt><trkpt lat="46.0513189" lon="9.314532"><ele>314.0</ele><time>2026-04-11T15:51:49.013Z</time></trkpt><trkpt lat="46.0510793" lon="9.3143365"><ele>314.0</ele><time>2026-04-11T15:51:50.013Z</time></trkpt><trkpt lat="46.0508408" lon="9.3141722"><ele>314.0</ele><time>2026-04-11T15:51:51.013Z</time></trkpt><trkpt lat="46.0505819" lon="9.3140145"><ele>291.0</ele><time>2026-04-11T15:51:52.013Z</time></trkpt><trkpt lat="46.0393296" lon="9.3105954"><ele>298.0</ele><time>2026-04-11T15:52:38.013Z</time></trkpt><trkpt lat="46.0390799" lon="9.3104969"><ele>305.0</ele><time>2026-04-11T15:52:39.013Z</time></trkpt><trkpt lat="46.038838" lon="9.31037"><ele>305.0</ele><time>2026-04-11T15:52:40.012Z</time></trkpt><trkpt lat="46.038586" lon="9.3102352"><ele>305.0</ele><time>2026-04-11T15:52:41.013Z</time></trkpt><trkpt lat="46.0383327" lon="9.3100986"><ele>315.5</ele><time>2026-04-11T15:52:42.013Z</time></trkpt><trkpt lat="46.0380705" lon="9.3099736"><ele>326.0</ele><time>2026-04-11T15:52:43.013Z</time></trkpt><trkpt lat="46.0378045" lon="9.3098665"><ele>320.0</ele><time>2026-04-11T15:52:44.013Z</time></trkpt><trkpt lat="45.9949773" lon="9.295512"><ele>320.0</ele><time>2026-04-11T15:55:46.013Z</time></trkpt><trkpt lat="45.9947205" lon="9.2954322"><ele>320.0</ele><time>2026-04-11T15:55:47.013Z</time></trkpt><trkpt lat="45.9944645" lon="9.295366"><ele>320.0</ele><time>2026-04-11T15:55:48.013Z</time></trkpt><trkpt lat="45.9942165" lon="9.2952872"><ele>320.0</ele><time>2026-04-11T15:55:49.013Z</time></trkpt><trkpt lat="45.993971" lon="9.2952186"><ele>324.0</ele><time>2026-04-11T15:55:50.013Z</time></trkpt><trkpt lat="45.9937263" lon="9.295157"><ele>328.0</ele><time>2026-04-11T15:55:51.013Z</time></trkpt><trkpt lat="45.9934803" lon="9.2951021"><ele>331.0</ele><time>2026-04-11T15:55:52.013Z</time></trkpt><trkpt lat="45.9932305" lon="9.2950716"><ele>334.0</ele><time>2026-04-11T15:55:53.013Z</time></trkpt><trkpt lat="45.9929811" lon="9.2950517"><ele>334.0</ele><time>2026-04-11T15:55:54.013Z</time></trkpt><trkpt lat="45.9927334" lon="9.2950475"><ele>334.0</ele><time>2026-04-11T15:55:55.013Z</time></trkpt><trkpt lat="45.992484" lon="9.2950656"><ele>330.5</ele><time>2026-04-11T15:55:56.013Z</time></trkpt><trkpt lat="45.9922445" lon="9.2950822"><ele>327.0</ele><time>2026-04-11T15:55:57.012Z</time></trkpt><trkpt lat="45.9920092" lon="9.2950982"><ele>327.0</ele><time>2026-04-11T15:55:58.013Z</time></trkpt><trkpt lat="45.9917719" lon="9.2951215"><ele>327.0</ele><time>2026-04-11T15:55:59.013Z</time></trkpt><trkpt lat="45.9915353" lon="9.295149"><ele>324.5</ele><time>2026-04-11T15:56:00.013Z</time></trkpt><trkpt lat="45.9912957" lon="9.2951791"><ele>322.0</ele><time>2026-04-11T15:56:01.013Z</time></trkpt><trkpt lat="45.9687688" lon="9.3074053"><ele>324.0</ele><time>2026-04-11T15:57:36.013Z</time></trkpt><trkpt lat="45.9685072" lon="9.3075421"><ele>326.0</ele><time>2026-04-11T15:57:37.013Z</time></trkpt><trkpt lat="45.9682479" lon="9.3076651"><ele>326.0</ele><time>2026-04-11T15:57:38.013Z</time></trkpt><trkpt lat="45.9679949" lon="9.3077827"><ele>326.0</ele><time>2026-04-11T15:57:39.012Z</time></trkpt><trkpt lat="45.9677382" lon="9.3079154"><ele>333.5</ele><time>2026-04-11T15:57:40.013Z</time></trkpt><trkpt lat="45.9674753" lon="9.3080109"><ele>341.0</ele><time>2026-04-11T15:57:41.013Z</time></trkpt><trkpt lat="45.9672143" lon="9.308124"><ele>341.0</ele><time>2026-04-11T15:57:42.013Z</time></trkpt><trkpt lat="45.9669552" lon="9.3082416"><ele>341.0</ele><time>2026-04-11T15:57:43.013Z</time></trkpt><trkpt lat="45.9666938" lon="9.3083471"><ele>334.5</ele><time>2026-04-11T15:57:44.012Z</time></trkpt><trkpt lat="45.9664385" lon="9.3084584"><ele>328.0</ele><time>2026-04-11T15:57:45.013Z</time></trkpt><trkpt lat="45.966184" lon="9.3085796"><ele>328.0</ele><time>2026-04-11T15:57:46.012Z</time></trkpt><trkpt lat="45.9659395" lon="9.3087024"><ele>328.0</ele><time>2026-04-11T15:57:47.012Z</time></trkpt><trkpt lat="45.9657159" lon="9.3088193"><ele>336.0</ele><time>2026-04-11T15:57:48.013Z</time></trkpt><trkpt lat="45.9655077" lon="9.308923"><ele>344.0</ele><time>2026-04-11T15:57:49.013Z</time></trkpt><trkpt lat="45.9653078" lon="9.3090194"><ele>352.0</ele><time>2026-04-11T15:57:50.013Z</time></trkpt><trkpt lat="45.9651057" lon="9.3091003"><ele>347.3333333333333</ele><time>2026-04-11T15:57:51.013Z</time></trkpt><trkpt lat="45.9648997" lon="9.3091866"><ele>342.6666666666667</ele><time>2026-04-11T15:57:52.013Z</time></trkpt><trkpt lat="45.9646895" lon="9.309278"><ele>338.0</ele><time>2026-04-11T15:57:53.013Z</time></trkpt><trkpt lat="45.9644789" lon="9.3093688"><ele>338.0</ele><time>2026-04-11T15:57:54.013Z</time></trkpt><trkpt lat="45.964269" lon="9.3094599"><ele>338.0</ele><time>2026-04-11T15:57:55.013Z</time></trkpt><trkpt lat="45.9640573" lon="9.3095645"><ele>338.0</ele><time>2026-04-11T15:57:56.013Z</time></trkpt><trkpt lat="45.9624853" lon="9.3104507"><ele>339.0</ele><time>2026-04-11T15:58:03.012Z</time></trkpt><trkpt lat="45.9622591" lon="9.3105997"><ele>340.0</ele><time>2026-04-11T15:58:04.013Z</time></trkpt><trkpt lat="45.962018" lon="9.310747"><ele>340.0</ele><time>2026-04-11T15:58:05.013Z</time></trkpt><trkpt lat="45.9617749" lon="9.3108744"><ele>340.0</ele><time>2026-04-11T15:58:06.013Z</time></trkpt><trkpt lat="45.9615329" lon="9.3109918"><ele>338.0</ele><time>2026-04-11T15:58:07.013Z</time></trkpt><trkpt lat="45.9612918" lon="9.3111076"><ele>336.0</ele><time>2026-04-11T15:58:08.013Z</time></trkpt><trkpt lat="45.9610502" lon="9.3112063"><ele>333.5</ele><time>2026-04-11T15:58:09.013Z</time></trkpt><trkpt lat="45.9607929" lon="9.3112993"><ele>331.0</ele><time>2026-04-11T15:58:10.013Z</time></trkpt><trkpt lat="45.9605379" lon="9.3113792"><ele>337.5</ele><time>2026-04-11T15:58:11.013Z</time></trkpt><trkpt lat="45.9602754" lon="9.3114473"><ele>344.0</ele><time>2026-04-11T15:58:12.013Z</time></trkpt><trkpt lat="45.9600121" lon="9.3114955"><ele>344.0</ele><time>2026-04-11T15:58:13.012Z</time></trkpt><trkpt lat="45.9597516" lon="9.3115419"><ele>344.0</ele><time>2026-04-11T15:58:14.013Z</time></trkpt><trkpt lat="45.9594978" lon="9.3115868"><ele>344.0</ele><time>2026-04-11T15:58:15.013Z</time></trkpt><trkpt lat="45.9592452" lon="9.3116214"><ele>344.0</ele><time>2026-04-11T15:58:16.013Z</time></trkpt><trkpt lat="45.958995" lon="9.3116491"><ele>341.0</ele><time>2026-04-11T15:58:17.013Z</time></trkpt><trkpt lat="45.9587465" lon="9.3116757"><ele>338.0</ele><time>2026-04-11T15:58:18.013Z</time></trkpt><trkpt lat="45.9585015" lon="9.3117058"><ele>338.0</ele><time>2026-04-11T15:58:19.013Z</time></trkpt><trkpt lat="45.9582542" lon="9.3117363"><ele>338.0</ele><time>2026-04-11T15:58:20.013Z</time></trkpt><trkpt lat="45.9580108" lon="9.3117681"><ele>338.0</ele><time>2026-04-11T15:58:21.013Z</time></trkpt><trkpt lat="45.9577632" lon="9.3117928"><ele>338.0</ele><time>2026-04-11T15:58:22.013Z</time></trkpt><trkpt lat="45.9575136" lon="9.3118193"><ele>340.0</ele><time>2026-04-11T15:58:23.013Z</time></trkpt><trkpt lat="45.9572606" lon="9.3118489"><ele>342.0</ele><time>2026-04-11T15:58:24.013Z</time></trkpt><trkpt lat="45.9570136" lon="9.3118842"><ele>342.0</ele><time>2026-04-11T15:58:25.013Z</time></trkpt><trkpt lat="45.9567682" lon="9.3119308"><ele>342.0</ele><time>2026-04-11T15:58:26.013Z</time></trkpt><trkpt lat="45.9565249" lon="9.3120023"><ele>340.5</ele><time>2026-04-11T15:58:27.013Z</time></trkpt><trkpt lat="45.956289" lon="9.3120812"><ele>339.0</ele><time>2026-04-11T15:58:28.013Z</time></trkpt><trkpt lat="45.9560492" lon="9.3121722"><ele>350.0</ele><time>2026-04-11T15:58:29.013Z</time></trkpt><trkpt lat="45.9558085" lon="9.3122761"><ele>361.0</ele><time>2026-04-11T15:58:30.013Z</time></trkpt><trkpt lat="45.9555714" lon="9.3123928"><ele>361.0</ele><time>2026-04-11T15:58:31.013Z</time></trkpt><trkpt lat="45.9553422" lon="9.3125212"><ele>361.0</ele><time>2026-04-11T15:58:32.013Z</time></trkpt><trkpt lat="45.9551136" lon="9.312651"><ele>356.5</ele><time>2026-04-11T15:58:33.012Z</time></trkpt><trkpt lat="45.9548874" lon="9.3127862"><ele>352.0</ele><time>2026-04-11T15:58:34.013Z</time></trkpt><trkpt lat="45.9546599" lon="9.3129309"><ele>348.0</ele><time>2026-04-11T15:58:35.013Z</time></trkpt><trkpt lat="45.9544263" lon="9.3130881"><ele>344.0</ele><time>2026-04-11T15:58:36.013Z</time></trkpt><trkpt lat="45.9522532" lon="9.3138122"><ele>344.0</ele><time>2026-04-11T15:58:45.013Z</time></trkpt><trkpt lat="45.9519852" lon="9.3137776"><ele>344.0</ele><time>2026-04-11T15:58:46.013Z</time></trkpt><trkpt lat="45.951727" lon="9.3137641"><ele>337.0</ele><time>2026-04-11T15:58:47.013Z</time></trkpt><trkpt lat="45.9514758" lon="9.3137327"><ele>330.0</ele><time>2026-04-11T15:58:48.012Z</time></trkpt><trkpt lat="45.9512204" lon="9.3136769"><ele>330.0</ele><time>2026-04-11T15:58:49.013Z</time></trkpt><trkpt lat="45.9509602" lon="9.313597"><ele>330.0</ele><time>2026-04-11T15:58:50.012Z</time></trkpt><trkpt lat="45.9507039" lon="9.3135172"><ele>335.0</ele><time>2026-04-11T15:58:51.013Z</time></trkpt><trkpt lat="45.9504392" lon="9.3134391"><ele>340.0</ele><time>2026-04-11T15:58:52.012Z</time></trkpt><trkpt lat="45.95018" lon="9.313341"><ele>351.5</ele><time>2026-04-11T15:58:53.013Z</time></trkpt><trkpt lat="45.9499289" lon="9.3132319"><ele>363.0</ele><time>2026-04-11T15:58:54.012Z</time></trkpt><trkpt lat="45.9496819" lon="9.3131179"><ele>363.0</ele><time>2026-04-11T15:58:55.013Z</time></trkpt><trkpt lat="45.949437" lon="9.3130151"><ele>363.0</ele><time>2026-04-11T15:58:56.013Z</time></trkpt><trkpt lat="45.9491909" lon="9.31291"><ele>363.0</ele><time>2026-04-11T15:58:57.013Z</time></trkpt><trkpt lat="45.9489421" lon="9.3128081"><ele>363.0</ele><time>2026-04-11T15:58:58.013Z</time></trkpt><trkpt lat="45.9487004" lon="9.3127034"><ele>363.0</ele><time>2026-04-11T15:58:59.013Z</time></trkpt><trkpt lat="45.9484604" lon="9.3125983"><ele>363.0</ele><time>2026-04-11T15:59:00.013Z</time></trkpt><trkpt lat="45.9482225" lon="9.312488"><ele>369.5</ele><time>2026-04-11T15:59:01.013Z</time></trkpt><trkpt lat="45.9479813" lon="9.3123834"><ele>376.0</ele><time>2026-04-11T15:59:02.013Z</time></trkpt><trkpt lat="45.9477409" lon="9.3122917"><ele>373.5</ele><time>2026-04-11T15:59:03.013Z</time></trkpt><trkpt lat="45.9474948" lon="9.3122197"><ele>371.0</ele><time>2026-04-11T15:59:04.013Z</time></trkpt><trkpt lat="45.9472456" lon="9.3121719"><ele>371.0</ele><time>2026-04-11T15:59:05.013Z</time></trkpt><trkpt lat="45.9469997" lon="9.312134"><ele>371.0</ele><time>2026-04-11T15:59:06.012Z</time></trkpt><trkpt lat="45.9467501" lon="9.3121191"><ele>376.0</ele><time>2026-04-11T15:59:07.013Z</time></trkpt><trkpt lat="45.9464996" lon="9.3121244"><ele>381.0</ele><time>2026-04-11T15:59:08.013Z</time></trkpt><trkpt lat="45.9462494" lon="9.3121439"><ele>381.0</ele><time>2026-04-11T15:59:09.012Z</time></trkpt><trkpt lat="45.9459981" lon="9.3121776"><ele>381.0</ele><time>2026-04-11T15:59:10.013Z</time></trkpt><trkpt lat="45.9457397" lon="9.3122324"><ele>381.5</ele><time>2026-04-11T15:59:11.013Z</time></trkpt><trkpt lat="45.9454858" lon="9.3123047"><ele>382.0</ele><time>2026-04-11T15:59:12.013Z</time></trkpt><trkpt lat="45.945228" lon="9.3124071"><ele>382.0</ele><time>2026-04-11T15:59:13.013Z</time></trkpt><trkpt lat="45.9449662" lon="9.3125269"><ele>382.0</ele><time>2026-04-11T15:59:14.013Z</time></trkpt><trkpt lat="45.9447034" lon="9.3126939"><ele>382.0</ele><time>2026-04-11T15:59:15.013Z</time></trkpt><trkpt lat="45.9444426" lon="9.3128827"><ele>382.0</ele><time>2026-04-11T15:59:16.013Z</time></trkpt><trkpt lat="45.944177" lon="9.3130933"><ele>382.0</ele><time>2026-04-11T15:59:17.013Z</time></trkpt><trkpt lat="45.9439205" lon="9.3133322"><ele>382.0</ele><time>2026-04-11T15:59:18.013Z</time></trkpt><trkpt lat="45.9436689" lon="9.3135793"><ele>382.0</ele><time>2026-04-11T15:59:19.013Z</time></trkpt><trkpt lat="45.9434164" lon="9.3138312"><ele>382.0</ele><time>2026-04-11T15:59:20.013Z</time></trkpt><trkpt lat="45.9431779" lon="9.3140788"><ele>323.0</ele><time>2026-04-11T15:59:21.013Z</time></trkpt><trkpt lat="45.9288682" lon="9.3293302"><ele>323.0</ele><time>2026-04-11T16:00:24.012Z</time></trkpt><trkpt lat="45.9285441" lon="9.3293928"><ele>323.0</ele><time>2026-04-11T16:00:25.013Z</time></trkpt><trkpt lat="45.9193748" lon="9.3284946"><ele>311.5</ele><time>2026-04-11T16:01:02.012Z</time></trkpt><trkpt lat="45.9191845" lon="9.3282713"><ele>300.0</ele><time>2026-04-11T16:01:03.012Z</time></trkpt><trkpt lat="45.9189768" lon="9.3280468"><ele>293.5</ele><time>2026-04-11T16:01:04.013Z</time></trkpt><trkpt lat="45.9187567" lon="9.3278538"><ele>287.0</ele><time>2026-04-11T16:01:05.013Z</time></trkpt><trkpt lat="45.918542" lon="9.3276559"><ele>291.0</ele><time>2026-04-11T16:01:06.013Z</time></trkpt><trkpt lat="45.9183139" lon="9.3274834"><ele>295.0</ele><time>2026-04-11T16:01:07.013Z</time></trkpt><trkpt lat="45.9180804" lon="9.3273452"><ele>295.0</ele><time>2026-04-11T16:01:08.013Z</time></trkpt><trkpt lat="45.9178326" lon="9.3272423"><ele>295.0</ele><time>2026-04-11T16:01:09.013Z</time></trkpt><trkpt lat="45.9175896" lon="9.3271516"><ele>284.0</ele><time>2026-04-11T16:01:10.013Z</time></trkpt><trkpt lat="45.9173454" lon="9.327083"><ele>273.0</ele><time>2026-04-11T16:01:11.013Z</time></trkpt><trkpt lat="45.9171009" lon="9.3270374"><ele>273.0</ele><time>2026-04-11T16:01:12.013Z</time></trkpt><trkpt lat="45.916844" lon="9.3270113"><ele>273.0</ele><time>2026-04-11T16:01:13.013Z</time></trkpt><trkpt lat="45.9165927" lon="9.3270172"><ele>275.0</ele><time>2026-04-11T16:01:14.013Z</time></trkpt><trkpt lat="45.9163403" lon="9.3270406"><ele>277.0</ele><time>2026-04-11T16:01:15.013Z</time></trkpt><trkpt lat="45.9160864" lon="9.327099"><ele>278.0</ele><time>2026-04-11T16:01:16.013Z</time></trkpt><trkpt lat="45.915834" lon="9.3271746"><ele>279.0</ele><time>2026-04-11T16:01:17.013Z</time></trkpt><trkpt lat="45.9155807" lon="9.3272683"><ele>286.0</ele><time>2026-04-11T16:01:18.013Z</time></trkpt><trkpt lat="45.9153333" lon="9.3273805"><ele>293.0</ele><time>2026-04-11T16:01:19.013Z</time></trkpt><trkpt lat="45.9150826" lon="9.3274959"><ele>291.0</ele><time>2026-04-11T16:01:20.013Z</time></trkpt><trkpt lat="45.9148303" lon="9.3276069"><ele>289.0</ele><time>2026-04-11T16:01:21.013Z</time></trkpt><trkpt lat="45.9145723" lon="9.3277172"><ele>289.0</ele><time>2026-04-11T16:01:22.012Z</time></trkpt><trkpt lat="45.9143138" lon="9.3278412"><ele>289.0</ele><time>2026-04-11T16:01:23.012Z</time></trkpt><trkpt lat="45.9140494" lon="9.3279631"><ele>291.5</ele><time>2026-04-11T16:01:24.012Z</time></trkpt><trkpt lat="45.913793" lon="9.3280818"><ele>294.0</ele><time>2026-04-11T16:01:25.012Z</time></trkpt><trkpt lat="45.9135394" lon="9.3281929"><ele>290.5</ele><time>2026-04-11T16:01:26.012Z</time></trkpt><trkpt lat="45.9132894" lon="9.3282933"><ele>287.0</ele><time>2026-04-11T16:01:27.012Z</time></trkpt><trkpt lat="45.913041" lon="9.3284111"><ele>287.0</ele><time>2026-04-11T16:01:28.012Z</time></trkpt><trkpt lat="45.9128017" lon="9.3285279"><ele>287.0</ele><time>2026-04-11T16:01:29.012Z</time></trkpt><trkpt lat="45.9125582" lon="9.3286481"><ele>286.0</ele><time>2026-04-11T16:01:30.012Z</time></trkpt><trkpt lat="45.9123157" lon="9.3287828"><ele>285.0</ele><time>2026-04-11T16:01:31.012Z</time></trkpt><trkpt lat="45.9120743" lon="9.32892"><ele>287.5</ele><time>2026-04-11T16:01:32.012Z</time></trkpt><trkpt lat="45.9118351" lon="9.3290788"><ele>290.0</ele><time>2026-04-11T16:01:33.012Z</time></trkpt><trkpt lat="45.9116038" lon="9.3292571"><ele>290.0</ele><time>2026-04-11T16:01:34.012Z</time></trkpt><trkpt lat="45.9113716" lon="9.3294712"><ele>290.0</ele><time>2026-04-11T16:01:35.012Z</time></trkpt><trkpt lat="45.9111384" lon="9.3296838"><ele>294.5</ele><time>2026-04-11T16:01:36.012Z</time></trkpt><trkpt lat="45.9109103" lon="9.329901"><ele>299.0</ele><time>2026-04-11T16:01:37.012Z</time></trkpt><trkpt lat="45.9106895" lon="9.3301251"><ele>294.5</ele><time>2026-04-11T16:01:38.011Z</time></trkpt><trkpt lat="45.9104748" lon="9.3303552"><ele>290.0</ele><time>2026-04-11T16:01:39.012Z</time></trkpt><trkpt lat="45.9102541" lon="9.3305827"><ele>283.5</ele><time>2026-04-11T16:01:40.012Z</time></trkpt><trkpt lat="45.9100278" lon="9.3307917"><ele>277.0</ele><time>2026-04-11T16:01:41.012Z</time></trkpt><trkpt lat="45.9098001" lon="9.3310048"><ele>277.0</ele><time>2026-04-11T16:01:42.012Z</time></trkpt><trkpt lat="45.9095682" lon="9.3312144"><ele>277.0</ele><time>2026-04-11T16:01:43.012Z</time></trkpt><trkpt lat="45.9093217" lon="9.3314085"><ele>276.0</ele><time>2026-04-11T16:01:44.012Z</time></trkpt><trkpt lat="45.9090727" lon="9.3315973"><ele>275.0</ele><time>2026-04-11T16:01:45.012Z</time></trkpt><trkpt lat="45.9088139" lon="9.3317719"><ele>275.0</ele><time>2026-04-11T16:01:46.012Z</time></trkpt><trkpt lat="45.9085546" lon="9.3319401"><ele>275.0</ele><time>2026-04-11T16:01:47.012Z</time></trkpt><trkpt lat="45.9082886" lon="9.3320972"><ele>273.0</ele><time>2026-04-11T16:01:48.011Z</time></trkpt><trkpt lat="45.9080132" lon="9.3322417"><ele>271.0</ele><time>2026-04-11T16:01:49.012Z</time></trkpt><trkpt lat="45.9077344" lon="9.332379"><ele>266.0</ele><time>2026-04-11T16:01:50.011Z</time></trkpt><trkpt lat="45.9074535" lon="9.3325222"><ele>261.0</ele><time>2026-04-11T16:01:51.012Z</time></trkpt><trkpt lat="45.9071729" lon="9.3326703"><ele>261.0</ele><time>2026-04-11T16:01:52.012Z</time></trkpt><trkpt lat="45.9068866" lon="9.3328251"><ele>261.0</ele><time>2026-04-11T16:01:53.012Z</time></trkpt><trkpt lat="45.9065999" lon="9.332971"><ele>261.5</ele><time>2026-04-11T16:01:54.012Z</time></trkpt><trkpt lat="45.9063162" lon="9.3331244"><ele>262.0</ele><time>2026-04-11T16:01:55.012Z</time></trkpt><trkpt lat="45.9060324" lon="9.3332721"><ele>255.0</ele><time>2026-04-11T16:01:56.012Z</time></trkpt><trkpt lat="45.9057567" lon="9.3334064"><ele>248.0</ele><time>2026-04-11T16:01:57.012Z</time></trkpt><trkpt lat="45.9054923" lon="9.3335426"><ele>248.0</ele><time>2026-04-11T16:01:58.012Z</time></trkpt><trkpt lat="45.9052287" lon="9.3336819"><ele>248.0</ele><time>2026-04-11T16:01:59.012Z</time></trkpt><trkpt lat="45.9049706" lon="9.3338113"><ele>245.5</ele><time>2026-04-11T16:02:00.012Z</time></trkpt><trkpt lat="45.9047292" lon="9.3339469"><ele>243.0</ele><time>2026-04-11T16:02:01.012Z</time></trkpt><trkpt lat="45.9045008" lon="9.3340711"><ele>243.0</ele><time>2026-04-11T16:02:02.012Z</time></trkpt><trkpt lat="45.9042744" lon="9.3341978"><ele>243.0</ele><time>2026-04-11T16:02:03.012Z</time></trkpt><trkpt lat="45.9040503" lon="9.3343384"><ele>237.5</ele><time>2026-04-11T16:02:04.012Z</time></trkpt><trkpt lat="45.9038256" lon="9.3345071"><ele>232.0</ele><time>2026-04-11T16:02:05.012Z</time></trkpt><trkpt lat="45.9035997" lon="9.3346951"><ele>230.5</ele><time>2026-04-11T16:02:06.012Z</time></trkpt><trkpt lat="45.9033764" lon="9.3348973"><ele>229.0</ele><time>2026-04-11T16:02:07.012Z</time></trkpt><trkpt lat="45.9031613" lon="9.3351193"><ele>229.0</ele><time>2026-04-11T16:02:08.012Z</time></trkpt><trkpt lat="45.9029538" lon="9.335354"><ele>229.0</ele><time>2026-04-11T16:02:09.011Z</time></trkpt><trkpt lat="45.9027544" lon="9.3356019"><ele>203.0</ele><time>2026-04-11T16:02:10.012Z</time></trkpt><trkpt lat="45.8949239" lon="9.3415399"><ele>208.0</ele><time>2026-04-11T16:02:46.196Z</time></trkpt><trkpt lat="45.8952834" lon="9.3470143"><ele>205.5</ele><time>2026-04-11T16:02:49.012Z</time></trkpt><trkpt lat="45.8950946" lon="9.3473306"><ele>203.0</ele><time>2026-04-11T16:02:50.012Z</time></trkpt><trkpt lat="45.8949476" lon="9.3476474"><ele>203.0</ele><time>2026-04-11T16:02:51.012Z</time></trkpt><trkpt lat="45.8947989" lon="9.3479645"><ele>203.0</ele><time>2026-04-11T16:02:52.012Z</time></trkpt><trkpt lat="45.8946587" lon="9.3482997"><ele>207.0</ele><time>2026-04-11T16:02:53.012Z</time></trkpt><trkpt lat="45.8945305" lon="9.3486499"><ele>211.0</ele><time>2026-04-11T16:02:54.012Z</time></trkpt><trkpt lat="45.8944127" lon="9.348995"><ele>208.5</ele><time>2026-04-11T16:02:55.012Z</time></trkpt><trkpt lat="45.8943093" lon="9.3493564"><ele>206.0</ele><time>2026-04-11T16:02:56.011Z</time></trkpt><trkpt lat="45.8942096" lon="9.349718"><ele>206.0</ele><time>2026-04-11T16:02:57.012Z</time></trkpt><trkpt lat="45.8940999" lon="9.3500805"><ele>206.0</ele><time>2026-04-11T16:02:58.012Z</time></trkpt><trkpt lat="45.8939995" lon="9.350445"><ele>209.5</ele><time>2026-04-11T16:02:59.011Z</time></trkpt><trkpt lat="45.8938985" lon="9.3508098"><ele>213.0</ele><time>2026-04-11T16:03:00.012Z</time></trkpt><trkpt lat="45.8937989" lon="9.3511668"><ele>223.0</ele><time>2026-04-11T16:03:01.011Z</time></trkpt><trkpt lat="45.8936963" lon="9.3515139"><ele>233.0</ele><time>2026-04-11T16:03:02.012Z</time></trkpt><trkpt lat="45.893589" lon="9.3518505"><ele>233.0</ele><time>2026-04-11T16:03:03.012Z</time></trkpt><trkpt lat="45.8934768" lon="9.3521814"><ele>233.0</ele><time>2026-04-11T16:03:04.012Z</time></trkpt><trkpt lat="45.8933468" lon="9.3525017"><ele>230.0</ele><time>2026-04-11T16:03:05.012Z</time></trkpt><trkpt lat="45.8932015" lon="9.3528129"><ele>227.0</ele><time>2026-04-11T16:03:06.012Z</time></trkpt><trkpt lat="45.8930452" lon="9.3531072"><ele>227.0</ele><time>2026-04-11T16:03:07.012Z</time></trkpt><trkpt lat="45.8928739" lon="9.353395"><ele>227.0</ele><time>2026-04-11T16:03:08.012Z</time></trkpt><trkpt lat="45.8926848" lon="9.3536573"><ele>219.0</ele><time>2026-04-11T16:03:09.012Z</time></trkpt><trkpt lat="45.8924886" lon="9.3538846"><ele>211.0</ele><time>2026-04-11T16:03:10.012Z</time></trkpt><trkpt lat="45.8922903" lon="9.3541055"><ele>211.0</ele><time>2026-04-11T16:03:11.012Z</time></trkpt><trkpt lat="45.8920927" lon="9.3543111"><ele>211.0</ele><time>2026-04-11T16:03:12.011Z</time></trkpt><trkpt lat="45.8919031" lon="9.3545256"><ele>209.5</ele><time>2026-04-11T16:03:13.012Z</time></trkpt><trkpt lat="45.8917302" lon="9.3547376"><ele>208.0</ele><time>2026-04-11T16:03:14.012Z</time></trkpt><trkpt lat="45.8915661" lon="9.3549534"><ele>208.0</ele><time>2026-04-11T16:03:15.011Z</time></trkpt><trkpt lat="45.8914129" lon="9.3551926"><ele>208.0</ele><time>2026-04-11T16:03:16.012Z</time></trkpt><trkpt lat="45.8912694" lon="9.355449"><ele>213.0</ele><time>2026-04-11T16:03:17.012Z</time></trkpt><trkpt lat="45.8911383" lon="9.3557228"><ele>218.0</ele><time>2026-04-11T16:03:18.012Z</time></trkpt><trkpt lat="45.8910135" lon="9.3560038"><ele>215.66666666666669</ele><time>2026-04-11T16:03:19.011Z</time></trkpt><trkpt lat="45.8908992" lon="9.356265"><ele>213.33333333333331</ele><time>2026-04-11T16:03:20.012Z</time></trkpt><trkpt lat="45.8907817" lon="9.3565121"><ele>211.0</ele><time>2026-04-11T16:03:21.012Z</time></trkpt><trkpt lat="45.8906631" lon="9.3567552"><ele>211.0</ele><time>2026-04-11T16:03:22.012Z</time></trkpt><trkpt lat="45.8905351" lon="9.356999"><ele>211.0</ele><time>2026-04-11T16:03:23.012Z</time></trkpt><trkpt lat="45.8903954" lon="9.3572349"><ele>211.0</ele><time>2026-04-11T16:03:24.012Z</time></trkpt><trkpt lat="45.8902339" lon="9.3574582"><ele>208.5</ele><time>2026-04-11T16:03:25.012Z</time></trkpt><trkpt lat="45.8900589" lon="9.3576757"><ele>206.0</ele><time>2026-04-11T16:03:26.011Z</time></trkpt><trkpt lat="45.8898628" lon="9.357905"><ele>216.5</ele><time>2026-04-11T16:03:27.012Z</time></trkpt><trkpt lat="45.8896498" lon="9.3581045"><ele>227.0</ele><time>2026-04-11T16:03:28.012Z</time></trkpt><trkpt lat="45.889422" lon="9.3582866"><ele>218.5</ele><time>2026-04-11T16:03:29.012Z</time></trkpt><trkpt lat="45.8891795" lon="9.3584391"><ele>210.0</ele><time>2026-04-11T16:03:30.012Z</time></trkpt><trkpt lat="45.8889266" lon="9.3585566"><ele>210.0</ele><time>2026-04-11T16:03:31.012Z</time></trkpt><trkpt lat="45.8886612" lon="9.3586839"><ele>210.0</ele><time>2026-04-11T16:03:32.012Z</time></trkpt><trkpt lat="45.888397" lon="9.3588116"><ele>216.0</ele><time>2026-04-11T16:03:33.012Z</time></trkpt><trkpt lat="45.8881341" lon="9.3589438"><ele>222.0</ele><time>2026-04-11T16:03:34.012Z</time></trkpt><trkpt lat="45.887869" lon="9.3590811"><ele>222.0</ele><time>2026-04-11T16:03:35.012Z</time></trkpt><trkpt lat="45.8876019" lon="9.3592231"><ele>222.0</ele><time>2026-04-11T16:03:36.011Z</time></trkpt><trkpt lat="45.887341" lon="9.3593824"><ele>225.0</ele><time>2026-04-11T16:03:37.012Z</time></trkpt><trkpt lat="45.8870841" lon="9.359567"><ele>228.0</ele><time>2026-04-11T16:03:38.012Z</time></trkpt><trkpt lat="45.8868332" lon="9.3597523"><ele>220.5</ele><time>2026-04-11T16:03:39.012Z</time></trkpt><trkpt lat="45.8865905" lon="9.3599357"><ele>213.0</ele><time>2026-04-11T16:03:40.012Z</time></trkpt><trkpt lat="45.8863529" lon="9.3601102"><ele>213.0</ele><time>2026-04-11T16:03:41.011Z</time></trkpt><trkpt lat="45.8861267" lon="9.360275"><ele>213.0</ele><time>2026-04-11T16:03:42.012Z</time></trkpt><trkpt lat="45.8859048" lon="9.3604375"><ele>218.0</ele><time>2026-04-11T16:03:43.011Z</time></trkpt><trkpt lat="45.8856857" lon="9.3605908"><ele>223.0</ele><time>2026-04-11T16:03:44.012Z</time></trkpt><trkpt lat="45.8854715" lon="9.3607363"><ele>223.0</ele><time>2026-04-11T16:03:45.012Z</time></trkpt><trkpt lat="45.885271" lon="9.3608836"><ele>223.0</ele><time>2026-04-11T16:03:46.012Z</time></trkpt><trkpt lat="45.8850791" lon="9.3610448"><ele>223.0</ele><time>2026-04-11T16:03:47.012Z</time></trkpt><trkpt lat="45.8848998" lon="9.361228"><ele>226.33333333333331</ele><time>2026-04-11T16:03:48.012Z</time></trkpt><trkpt lat="45.8847333" lon="9.3614316"><ele>229.66666666666669</ele><time>2026-04-11T16:03:49.012Z</time></trkpt><trkpt lat="45.8845779" lon="9.3616533"><ele>233.0</ele><time>2026-04-11T16:03:50.011Z</time></trkpt><trkpt lat="45.8844269" lon="9.3618832"><ele>233.0</ele><time>2026-04-11T16:03:51.012Z</time></trkpt><trkpt lat="45.8842748" lon="9.3621249"><ele>233.0</ele><time>2026-04-11T16:03:52.012Z</time></trkpt><trkpt lat="45.8841212" lon="9.362376"><ele>228.0</ele><time>2026-04-11T16:03:53.012Z</time></trkpt><trkpt lat="45.883963" lon="9.3626236"><ele>223.0</ele><time>2026-04-11T16:03:54.012Z</time></trkpt><trkpt lat="45.8838045" lon="9.3628764"><ele>235.5</ele><time>2026-04-11T16:03:55.012Z</time></trkpt><trkpt lat="45.8836521" lon="9.3631187"><ele>248.0</ele><time>2026-04-11T16:03:56.012Z</time></trkpt><trkpt lat="45.8835017" lon="9.3633615"><ele>229.0</ele><time>2026-04-11T16:03:57.012Z</time></trkpt><trkpt lat="45.882982" lon="9.3644489"><ele>235.5</ele><time>2026-04-11T16:04:01.011Z</time></trkpt><trkpt lat="45.8828558" lon="9.3647306"><ele>242.0</ele><time>2026-04-11T16:04:02.01Z</time></trkpt><trkpt lat="45.88272" lon="9.3650186"><ele>230.5</ele><time>2026-04-11T16:04:03.011Z</time></trkpt><trkpt lat="45.8825724" lon="9.3653233"><ele>219.0</ele><time>2026-04-11T16:04:04.011Z</time></trkpt><trkpt lat="45.88242" lon="9.3656156"><ele>219.0</ele><time>2026-04-11T16:04:05.011Z</time></trkpt><trkpt lat="45.8822642" lon="9.365895"><ele>219.0</ele><time>2026-04-11T16:04:06.011Z</time></trkpt><trkpt lat="45.8821125" lon="9.3661662"><ele>226.0</ele><time>2026-04-11T16:04:07.011Z</time></trkpt><trkpt lat="45.8819671" lon="9.3664308"><ele>233.0</ele><time>2026-04-11T16:04:08.011Z</time></trkpt><trkpt lat="45.8818237" lon="9.3666872"><ele>225.5</ele><time>2026-04-11T16:04:09.011Z</time></trkpt><trkpt lat="45.881681" lon="9.36695"><ele>218.0</ele><time>2026-04-11T16:04:10.011Z</time></trkpt><trkpt lat="45.8815402" lon="9.3672105"><ele>218.0</ele><time>2026-04-11T16:04:11.011Z</time></trkpt><trkpt lat="45.8814025" lon="9.3674655"><ele>218.0</ele><time>2026-04-11T16:04:12.011Z</time></trkpt><trkpt lat="45.8812631" lon="9.3677149"><ele>218.0</ele><time>2026-04-11T16:04:13.01Z</time></trkpt><trkpt lat="45.88112" lon="9.3679672"><ele>213.5</ele><time>2026-04-11T16:04:14.011Z</time></trkpt><trkpt lat="45.8809812" lon="9.3682234"><ele>209.0</ele><time>2026-04-11T16:04:15.011Z</time></trkpt><trkpt lat="45.8808476" lon="9.3684859"><ele>209.0</ele><time>2026-04-11T16:04:16.011Z</time></trkpt><trkpt lat="45.8807037" lon="9.368749"><ele>209.0</ele><time>2026-04-11T16:04:17.011Z</time></trkpt><trkpt lat="45.8805601" lon="9.3690036"><ele>215.5</ele><time>2026-04-11T16:04:18.011Z</time></trkpt><trkpt lat="45.8804152" lon="9.3692701"><ele>222.0</ele><time>2026-04-11T16:04:19.011Z</time></trkpt><trkpt lat="45.8802715" lon="9.3695393"><ele>217.5</ele><time>2026-04-11T16:04:20.011Z</time></trkpt><trkpt lat="45.8801298" lon="9.3697979"><ele>213.0</ele><time>2026-04-11T16:04:21.011Z</time></trkpt><trkpt lat="45.8799926" lon="9.3700502"><ele>213.0</ele><time>2026-04-11T16:04:22.011Z</time></trkpt><trkpt lat="45.8798485" lon="9.3702912"><ele>213.0</ele><time>2026-04-11T16:04:23.011Z</time></trkpt><trkpt lat="45.8796973" lon="9.3705125"><ele>213.0</ele><time>2026-04-11T16:04:24.011Z</time></trkpt><trkpt lat="45.879533" lon="9.3707144"><ele>214.0</ele><time>2026-04-11T16:04:25.011Z</time></trkpt><trkpt lat="45.8793586" lon="9.3709154"><ele>215.0</ele><time>2026-04-11T16:04:26.011Z</time></trkpt><trkpt lat="45.8791792" lon="9.371106"><ele>216.0</ele><time>2026-04-11T16:04:27.011Z</time></trkpt><trkpt lat="45.8790179" lon="9.3713171"><ele>217.0</ele><time>2026-04-11T16:04:28.01Z</time></trkpt><trkpt lat="45.8788735" lon="9.3715411"><ele>218.0</ele><time>2026-04-11T16:04:29.011Z</time></trkpt><trkpt lat="45.8787441" lon="9.371794"><ele>219.0</ele><time>2026-04-11T16:04:30.011Z</time></trkpt><trkpt lat="45.8786278" lon="9.3720663"><ele>222.33333333333331</ele><time>2026-04-11T16:04:31.011Z</time></trkpt><trkpt lat="45.8785258" lon="9.3723547"><ele>225.66666666666666</ele><time>2026-04-11T16:04:32.01Z</time></trkpt><trkpt lat="45.8784535" lon="9.3726575"><ele>229.0</ele><time>2026-04-11T16:04:33.01Z</time></trkpt><trkpt lat="45.8783587" lon="9.373263"><ele>208.0</ele><time>2026-04-11T16:04:35.011Z</time></trkpt><trkpt lat="45.8427949" lon="9.4049904"><ele>209.0</ele><time>2026-04-11T16:06:34.354Z</time></trkpt><trkpt lat="45.8446087" lon="9.4054192"><ele>209.0</ele><time>2026-04-11T16:07:29.011Z</time></trkpt><trkpt lat="45.8444724" lon="9.405456"><ele>209.0</ele><time>2026-04-11T16:07:30.011Z</time></trkpt><trkpt lat="45.8443672" lon="9.4054492"><ele>209.0</ele><time>2026-04-11T16:07:31.01Z</time></trkpt><trkpt lat="45.8442879" lon="9.4054846"><ele>209.0</ele><time>2026-04-11T16:07:32.011Z</time></trkpt><trkpt lat="45.8442073" lon="9.4054875"><ele>209.0</ele><time>2026-04-11T16:07:33.011Z</time></trkpt><trkpt lat="45.8441299" lon="9.4054787"><ele>209.00000000000003</ele><time>2026-04-11T16:07:34.011Z</time></trkpt><trkpt lat="45.8440503" lon="9.40549"><ele>209.0</ele><time>2026-04-11T16:07:35.011Z</time></trkpt><trkpt lat="45.843982" lon="9.4054791"><ele>209.0</ele><time>2026-04-11T16:07:36.011Z</time></trkpt><trkpt lat="45.8439077" lon="9.4054582"><ele>209.0</ele><time>2026-04-11T16:07:37.011Z</time></trkpt><trkpt lat="45.8438369" lon="9.40544"><ele>209.00000000000003</ele><time>2026-04-11T16:07:38.011Z</time></trkpt><trkpt lat="45.8437215" lon="9.4054199"><ele>209.0</ele><time>2026-04-11T16:07:40.011Z</time></trkpt><trkpt lat="45.8436352" lon="9.4053873"><ele>209.0</ele><time>2026-04-11T16:07:42.01Z</time></trkpt><trkpt lat="45.8435536" lon="9.4053695"><ele>209.0</ele><time>2026-04-11T16:07:44.011Z</time></trkpt><trkpt lat="45.8434449" lon="9.4053461"><ele>209.0</ele><time>2026-04-11T16:07:46.011Z</time></trkpt><trkpt lat="45.8433532" lon="9.405322"><ele>209.0</ele><time>2026-04-11T16:07:48.011Z</time></trkpt><trkpt lat="45.8432513" lon="9.4052975"><ele>209.0</ele><time>2026-04-11T16:07:50.011Z</time></trkpt><trkpt lat="45.8431875" lon="9.4052715"><ele>208.83333333333334</ele><time>2026-04-11T16:07:51.011Z</time></trkpt><trkpt lat="45.8431251" lon="9.405241"><ele>208.66666666666669</ele><time>2026-04-11T16:07:52.011Z</time></trkpt><trkpt lat="45.8430558" lon="9.4052311"><ele>208.5</ele><time>2026-04-11T16:07:53.011Z</time></trkpt><trkpt lat="45.8429713" lon="9.4052051"><ele>208.33333333333331</ele><time>2026-04-11T16:07:54.01Z</time></trkpt><trkpt lat="45.8428673" lon="9.405172"><ele>208.16666666666666</ele><time>2026-04-11T16:07:55.011Z</time></trkpt><trkpt lat="45.8427528" lon="9.4051359"><ele>208.0</ele><time>2026-04-11T16:07:56.011Z</time></trkpt><trkpt lat="45.8426357" lon="9.4050982"><ele>208.2</ele><time>2026-04-11T16:07:57.01Z</time></trkpt><trkpt lat="45.8425271" lon="9.4050605"><ele>208.4</ele><time>2026-04-11T16:07:58.011Z</time></trkpt><trkpt lat="45.8424302" lon="9.4050327"><ele>208.6</ele><time>2026-04-11T16:07:59.01Z</time></trkpt><trkpt lat="45.8423431" lon="9.4050149"><ele>208.79999999999998</ele><time>2026-04-11T16:08:00.011Z</time></trkpt><trkpt lat="45.8422625" lon="9.4050033"><ele>209.0</ele><time>2026-04-11T16:08:01.011Z</time></trkpt><trkpt lat="45.8421901" lon="9.4049956"><ele>209.0</ele><time>2026-04-11T16:08:02.011Z</time></trkpt><trkpt lat="45.8421146" lon="9.4049917"><ele>209.0</ele><time>2026-04-11T16:08:03.011Z</time></trkpt><trkpt lat="45.842028" lon="9.4049795"><ele>209.0</ele><time>2026-04-11T16:08:04.011Z</time></trkpt><trkpt lat="45.8419271" lon="9.4049699"><ele>209.0</ele><time>2026-04-11T16:08:05.011Z</time></trkpt><trkpt lat="45.841824" lon="9.4049523"><ele>209.0</ele><time>2026-04-11T16:08:06.011Z</time></trkpt><trkpt lat="45.8417202" lon="9.4049341"><ele>209.0</ele><time>2026-04-11T16:08:07.011Z</time></trkpt><trkpt lat="45.8416174" lon="9.4049199"><ele>209.0</ele><time>2026-04-11T16:08:08.011Z</time></trkpt><trkpt lat="45.8415162" lon="9.404915"><ele>209.0</ele><time>2026-04-11T16:08:09.011Z</time></trkpt><trkpt lat="45.8414211" lon="9.4048932"><ele>209.0</ele><time>2026-04-11T16:08:10.011Z</time></trkpt><trkpt lat="45.8413302" lon="9.4048741"><ele>209.0</ele><time>2026-04-11T16:08:11.011Z</time></trkpt><trkpt lat="45.8412472" lon="9.4048596"><ele>209.00000000000003</ele><time>2026-04-11T16:08:12.011Z</time></trkpt><trkpt lat="45.8411695" lon="9.404842"><ele>209.0</ele><time>2026-04-11T16:08:13.011Z</time></trkpt><trkpt lat="45.8410873" lon="9.4048274"><ele>209.0</ele><time>2026-04-11T16:08:14.011Z</time></trkpt><trkpt lat="45.8410108" lon="9.4048177"><ele>209.0</ele><time>2026-04-11T16:08:15.011Z</time></trkpt><trkpt lat="45.840939" lon="9.4048106"><ele>209.00000000000003</ele><time>2026-04-11T16:08:16.011Z</time></trkpt><trkpt lat="45.8408648" lon="9.4047948"><ele>209.0</ele><time>2026-04-11T16:08:17.011Z</time></trkpt><trkpt lat="45.8407833" lon="9.4047746"><ele>208.39999999999998</ele><time>2026-04-11T16:08:18.011Z</time></trkpt><trkpt lat="45.8406853" lon="9.4047543"><ele>207.8</ele><time>2026-04-11T16:08:19.011Z</time></trkpt><trkpt lat="45.8405869" lon="9.4047183"><ele>207.2</ele><time>2026-04-11T16:08:20.011Z</time></trkpt><trkpt lat="45.8404949" lon="9.4046767"><ele>206.60000000000002</ele><time>2026-04-11T16:08:21.011Z</time></trkpt><trkpt lat="45.8404065" lon="9.4046324"><ele>206.0</ele><time>2026-04-11T16:08:22.01Z</time></trkpt><trkpt lat="45.8403251" lon="9.4045675"><ele>206.00000000000003</ele><time>2026-04-11T16:08:23.011Z</time></trkpt><trkpt lat="45.8402483" lon="9.4045141"><ele>206.0</ele><time>2026-04-11T16:08:24.011Z</time></trkpt><trkpt lat="45.8401718" lon="9.4044539"><ele>206.0</ele><time>2026-04-11T16:08:25.011Z</time></trkpt><trkpt lat="45.8400957" lon="9.4043859"><ele>206.0</ele><time>2026-04-11T16:08:26.011Z</time></trkpt><trkpt lat="45.8400236" lon="9.4043138"><ele>206.00000000000003</ele><time>2026-04-11T16:08:27.01Z</time></trkpt><trkpt lat="45.8399484" lon="9.4042312"><ele>206.0</ele><time>2026-04-11T16:08:28.011Z</time></trkpt><trkpt lat="45.839877" lon="9.4041436"><ele>205.99999999999997</ele><time>2026-04-11T16:08:29.011Z</time></trkpt><trkpt lat="45.8398171" lon="9.4040644"><ele>206.0</ele><time>2026-04-11T16:08:30.01Z</time></trkpt><trkpt lat="45.8397671" lon="9.4039898"><ele>206.0</ele><time>2026-04-11T16:08:31.01Z</time></trkpt><trkpt lat="45.8397187" lon="9.4039204"><ele>206.0</ele><time>2026-04-11T16:08:32.011Z</time></trkpt><trkpt lat="45.8396697" lon="9.4038437"><ele>206.0</ele><time>2026-04-11T16:08:33.011Z</time></trkpt><trkpt lat="45.8396217" lon="9.4037633"><ele>205.99999999999997</ele><time>2026-04-11T16:08:34.011Z</time></trkpt><trkpt lat="45.8395723" lon="9.4036762"><ele>206.0</ele><time>2026-04-11T16:08:35.011Z</time></trkpt><trkpt lat="45.8395331" lon="9.4035808"><ele>205.66666666666669</ele><time>2026-04-11T16:08:36.011Z</time></trkpt><trkpt lat="45.8394785" lon="9.4034394"><ele>205.33333333333334</ele><time>2026-04-11T16:08:38.01Z</time></trkpt><trkpt lat="45.8394467" lon="9.4033487"><ele>205.0</ele><time>2026-04-11T16:08:39.011Z</time></trkpt><trkpt lat="45.8394105" lon="9.4032562"><ele>204.66666666666669</ele><time>2026-04-11T16:08:40.01Z</time></trkpt><trkpt lat="45.839379" lon="9.4031555"><ele>204.33333333333334</ele><time>2026-04-11T16:08:41.011Z</time></trkpt><trkpt lat="45.8393489" lon="9.4030574"><ele>204.0</ele><time>2026-04-11T16:08:42.011Z</time></trkpt><trkpt lat="45.8393276" lon="9.4029702"><ele>203.79999999999998</ele><time>2026-04-11T16:08:43.011Z</time></trkpt><trkpt lat="45.8393018" lon="9.4028232"><ele>203.6</ele><time>2026-04-11T16:08:45.011Z</time></trkpt><trkpt lat="45.8392844" lon="9.4026384"><ele>203.4</ele><time>2026-04-11T16:08:47.01Z</time></trkpt><trkpt lat="45.8392581" lon="9.4025078"><ele>203.2</ele><time>2026-04-11T16:08:48.01Z</time></trkpt><trkpt lat="45.8392434" lon="9.4023797"><ele>203.0</ele><time>2026-04-11T16:08:49.01Z</time></trkpt><trkpt lat="45.8392277" lon="9.4022731"><ele>203.0</ele><time>2026-04-11T16:08:50.011Z</time></trkpt><trkpt lat="45.8392184" lon="9.4021675"><ele>203.0</ele><time>2026-04-11T16:08:51.011Z</time></trkpt><trkpt lat="45.8392099" lon="9.4020663"><ele>203.0</ele><time>2026-04-11T16:08:52.011Z</time></trkpt><trkpt lat="45.8392003" lon="9.4019577"><ele>203.0</ele><time>2026-04-11T16:08:53.011Z</time></trkpt><trkpt lat="45.8391873" lon="9.4018626"><ele>203.0</ele><time>2026-04-11T16:08:54.011Z</time></trkpt><trkpt lat="45.8391743" lon="9.4017637"><ele>203.0</ele><time>2026-04-11T16:08:55.011Z</time></trkpt><trkpt lat="45.8391593" lon="9.4016588"><ele>203.0</ele><time>2026-04-11T16:08:56.01Z</time></trkpt><trkpt lat="45.839144" lon="9.4015291"><ele>202.60000000000002</ele><time>2026-04-11T16:08:57.011Z</time></trkpt><trkpt lat="45.8391232" lon="9.4013912"><ele>202.20000000000002</ele><time>2026-04-11T16:08:58.011Z</time></trkpt><trkpt lat="45.8391031" lon="9.40125"><ele>201.8</ele><time>2026-04-11T16:08:59.011Z</time></trkpt><trkpt lat="45.8390834" lon="9.4010815"><ele>201.4</ele><time>2026-04-11T16:09:00.011Z</time></trkpt><trkpt lat="45.8390601" lon="9.4009025"><ele>201.0</ele><time>2026-04-11T16:09:01.011Z</time></trkpt><trkpt lat="45.839036" lon="9.4007067"><ele>200.33333333333331</ele><time>2026-04-11T16:09:02.01Z</time></trkpt><trkpt lat="45.8390089" lon="9.4005009"><ele>199.66666666666666</ele><time>2026-04-11T16:09:03.011Z</time></trkpt><trkpt lat="45.8389761" lon="9.4002612"><ele>199.0</ele><time>2026-04-11T16:09:04.011Z</time></trkpt><trkpt lat="45.8389494" lon="9.4000264"><ele>198.75</ele><time>2026-04-11T16:09:05.011Z</time></trkpt><trkpt lat="45.8389265" lon="9.399813"><ele>198.5</ele><time>2026-04-11T16:09:06.011Z</time></trkpt><trkpt lat="45.8389059" lon="9.3996173"><ele>198.25</ele><time>2026-04-11T16:09:07.011Z</time></trkpt><trkpt lat="45.8388795" lon="9.3994283"><ele>198.0</ele><time>2026-04-11T16:09:08.011Z</time></trkpt><trkpt lat="45.8388561" lon="9.3992418"><ele>198.0</ele><time>2026-04-11T16:09:09.011Z</time></trkpt><trkpt lat="45.8388299" lon="9.3990442"><ele>198.0</ele><time>2026-04-11T16:09:10.011Z</time></trkpt><trkpt lat="45.8388057" lon="9.3988488"><ele>198.0</ele><time>2026-04-11T16:09:11.01Z</time></trkpt><trkpt lat="45.8387802" lon="9.3986566"><ele>198.0</ele><time>2026-04-11T16:09:12.011Z</time></trkpt><trkpt lat="45.8387544" lon="9.3984694"><ele>198.0</ele><time>2026-04-11T16:09:13.011Z</time></trkpt><trkpt lat="45.8387349" lon="9.3982948"><ele>198.0</ele><time>2026-04-11T16:09:14.011Z</time></trkpt><trkpt lat="45.8387133" lon="9.3981248"><ele>198.0</ele><time>2026-04-11T16:09:15.011Z</time></trkpt><trkpt lat="45.8386895" lon="9.397947"><ele>198.0</ele><time>2026-04-11T16:09:16.01Z</time></trkpt><trkpt lat="45.838663" lon="9.3977664"><ele>198.5</ele><time>2026-04-11T16:09:17.01Z</time></trkpt><trkpt lat="45.8386398" lon="9.3975753"><ele>199.0</ele><time>2026-04-11T16:09:18.011Z</time></trkpt><trkpt lat="45.8386182" lon="9.3973745"><ele>199.5</ele><time>2026-04-11T16:09:19.011Z</time></trkpt><trkpt lat="45.8385961" lon="9.3971565"><ele>200.0</ele><time>2026-04-11T16:09:20.011Z</time></trkpt><trkpt lat="45.8385763" lon="9.3969285"><ele>200.0</ele><time>2026-04-11T16:09:21.011Z</time></trkpt><trkpt lat="45.8385648" lon="9.3966854"><ele>200.0</ele><time>2026-04-11T16:09:22.011Z</time></trkpt><trkpt lat="45.838559" lon="9.3964363"><ele>200.0</ele><time>2026-04-11T16:09:23.011Z</time></trkpt><trkpt lat="45.8385547" lon="9.3961881"><ele>200.0</ele><time>2026-04-11T16:09:24.011Z</time></trkpt><trkpt lat="45.8385548" lon="9.3959121"><ele>200.0</ele><time>2026-04-11T16:09:25.011Z</time></trkpt><trkpt lat="45.8385486" lon="9.3956286"><ele>200.0</ele><time>2026-04-11T16:09:26.011Z</time></trkpt><trkpt lat="45.8385392" lon="9.3953473"><ele>202.0</ele><time>2026-04-11T16:09:27.011Z</time></trkpt><trkpt lat="45.8385376" lon="9.3950685"><ele>204.0</ele><time>2026-04-11T16:09:28.011Z</time></trkpt><trkpt lat="45.8385364" lon="9.3947816"><ele>206.0</ele><time>2026-04-11T16:09:29.011Z</time></trkpt><trkpt lat="45.8385393" lon="9.3945053"><ele>207.5</ele><time>2026-04-11T16:09:30.011Z</time></trkpt><trkpt lat="45.8385554" lon="9.3942319"><ele>209.0</ele><time>2026-04-11T16:09:31.011Z</time></trkpt><trkpt lat="45.8287688" lon="9.3538193"><ele>244.0</ele><time>2026-04-11T16:11:09.287Z</time></trkpt><trkpt lat="45.8296069" lon="9.3539324"><ele>241.5</ele><time>2026-04-11T16:11:52.011Z</time></trkpt><trkpt lat="45.8294492" lon="9.3536592"><ele>239.0</ele><time>2026-04-11T16:11:53.011Z</time></trkpt><trkpt lat="45.8292683" lon="9.3533802"><ele>239.0</ele><time>2026-04-11T16:11:54.011Z</time></trkpt><trkpt lat="45.8290709" lon="9.3531195"><ele>239.0</ele><time>2026-04-11T16:11:55.011Z</time></trkpt><trkpt lat="45.8288624" lon="9.352833"><ele>236.5</ele><time>2026-04-11T16:11:56.011Z</time></trkpt><trkpt lat="45.8286424" lon="9.3525744"><ele>234.0</ele><time>2026-04-11T16:11:57.011Z</time></trkpt><trkpt lat="45.8284255" lon="9.3523274"><ele>232.0</ele><time>2026-04-11T16:11:58.011Z</time></trkpt><trkpt lat="45.8282082" lon="9.3520933"><ele>230.0</ele><time>2026-04-11T16:11:59.011Z</time></trkpt><trkpt lat="45.827987" lon="9.3518763"><ele>230.0</ele><time>2026-04-11T16:12:00.01Z</time></trkpt><trkpt lat="45.8277659" lon="9.3516617"><ele>230.0</ele><time>2026-04-11T16:12:01.011Z</time></trkpt><trkpt lat="45.8275381" lon="9.351449"><ele>231.5</ele><time>2026-04-11T16:12:02.011Z</time></trkpt><trkpt lat="45.8273013" lon="9.3512429"><ele>233.0</ele><time>2026-04-11T16:12:03.011Z</time></trkpt><trkpt lat="45.8270624" lon="9.3510343"><ele>233.0</ele><time>2026-04-11T16:12:04.011Z</time></trkpt><trkpt lat="45.8268172" lon="9.3508327"><ele>233.0</ele><time>2026-04-11T16:12:05.011Z</time></trkpt><trkpt lat="45.8265701" lon="9.35063"><ele>231.5</ele><time>2026-04-11T16:12:06.011Z</time></trkpt><trkpt lat="45.8263272" lon="9.3504318"><ele>230.0</ele><time>2026-04-11T16:12:07.011Z</time></trkpt><trkpt lat="45.8260965" lon="9.3502381"><ele>231.5</ele><time>2026-04-11T16:12:08.011Z</time></trkpt><trkpt lat="45.8258727" lon="9.3500342"><ele>233.0</ele><time>2026-04-11T16:12:09.011Z</time></trkpt><trkpt lat="45.8256577" lon="9.349828"><ele>229.5</ele><time>2026-04-11T16:12:10.011Z</time></trkpt><trkpt lat="45.8254526" lon="9.3496029"><ele>226.0</ele><time>2026-04-11T16:12:11.011Z</time></trkpt><trkpt lat="45.8252623" lon="9.3493734"><ele>226.5</ele><time>2026-04-11T16:12:12.01Z</time></trkpt><trkpt lat="45.8250911" lon="9.3491224"><ele>227.0</ele><time>2026-04-11T16:12:13.011Z</time></trkpt><trkpt lat="45.8249381" lon="9.34885"><ele>227.0</ele><time>2026-04-11T16:12:14.011Z</time></trkpt><trkpt lat="45.8247983" lon="9.3485641"><ele>227.0</ele><time>2026-04-11T16:12:15.011Z</time></trkpt><trkpt lat="45.8246816" lon="9.3482568"><ele>229.0</ele><time>2026-04-11T16:12:16.011Z</time></trkpt><trkpt lat="45.8245847" lon="9.347947"><ele>231.0</ele><time>2026-04-11T16:12:17.011Z</time></trkpt><trkpt lat="45.8244989" lon="9.3476343"><ele>231.0</ele><time>2026-04-11T16:12:18.011Z</time></trkpt><trkpt lat="45.8244333" lon="9.3473036"><ele>231.0</ele><time>2026-04-11T16:12:19.01Z</time></trkpt><trkpt lat="45.8243867" lon="9.3469626"><ele>233.0</ele><time>2026-04-11T16:12:20.011Z</time></trkpt><trkpt lat="45.8243562" lon="9.3466024"><ele>235.0</ele><time>2026-04-11T16:12:21.011Z</time></trkpt><trkpt lat="45.8243407" lon="9.3462324"><ele>235.0</ele><time>2026-04-11T16:12:22.011Z</time></trkpt><trkpt lat="45.824345" lon="9.3458604"><ele>235.0</ele><time>2026-04-11T16:12:23.011Z</time></trkpt><trkpt lat="45.8243577" lon="9.3454962"><ele>232.5</ele><time>2026-04-11T16:12:24.011Z</time></trkpt><trkpt lat="45.8243776" lon="9.3451405"><ele>230.0</ele><time>2026-04-11T16:12:25.011Z</time></trkpt><trkpt lat="45.824394" lon="9.344787"><ele>229.5</ele><time>2026-04-11T16:12:26.011Z</time></trkpt><trkpt lat="45.8244139" lon="9.344443"><ele>229.0</ele><time>2026-04-11T16:12:27.011Z</time></trkpt><trkpt lat="45.8244347" lon="9.3441064"><ele>232.5</ele><time>2026-04-11T16:12:28.011Z</time></trkpt><trkpt lat="45.8244595" lon="9.3437594"><ele>236.0</ele><time>2026-04-11T16:12:29.011Z</time></trkpt><trkpt lat="45.8244848" lon="9.3434214"><ele>236.0</ele><time>2026-04-11T16:12:30.01Z</time></trkpt><trkpt lat="45.8245027" lon="9.3430887"><ele>236.0</ele><time>2026-04-11T16:12:31.01Z</time></trkpt><trkpt lat="45.8245238" lon="9.342756"><ele>239.5</ele><time>2026-04-11T16:12:32.011Z</time></trkpt><trkpt lat="45.8245417" lon="9.3424289"><ele>243.0</ele><time>2026-04-11T16:12:33.011Z</time></trkpt><trkpt lat="45.8245621" lon="9.3420967"><ele>243.5</ele><time>2026-04-11T16:12:34.011Z</time></trkpt><trkpt lat="45.8245855" lon="9.3417656"><ele>244.0</ele><time>2026-04-11T16:12:35.011Z</time></trkpt><trkpt lat="45.8246086" lon="9.3414315"><ele>241.0</ele><time>2026-04-11T16:12:36.011Z</time></trkpt><trkpt lat="45.8246274" lon="9.3410904"><ele>238.0</ele><time>2026-04-11T16:12:37.011Z</time></trkpt><trkpt lat="45.824648" lon="9.3407441"><ele>235.5</ele><time>2026-04-11T16:12:38.011Z</time></trkpt><trkpt lat="45.8246667" lon="9.3403932"><ele>233.0</ele><time>2026-04-11T16:12:39.011Z</time></trkpt><trkpt lat="45.824683" lon="9.3400356"><ele>234.5</ele><time>2026-04-11T16:12:40.011Z</time></trkpt><trkpt lat="45.824698" lon="9.3396715"><ele>236.0</ele><time>2026-04-11T16:12:41.011Z</time></trkpt><trkpt lat="45.8247093" lon="9.3393055"><ele>236.0</ele><time>2026-04-11T16:12:42.011Z</time></trkpt><trkpt lat="45.8247098" lon="9.3389384"><ele>236.0</ele><time>2026-04-11T16:12:43.01Z</time></trkpt><trkpt lat="45.8246987" lon="9.3385715"><ele>237.0</ele><time>2026-04-11T16:12:44.011Z</time></trkpt><trkpt lat="45.8246776" lon="9.3382149"><ele>238.0</ele><time>2026-04-11T16:12:45.011Z</time></trkpt><trkpt lat="45.824659" lon="9.3378674"><ele>239.5</ele><time>2026-04-11T16:12:46.011Z</time></trkpt><trkpt lat="45.8246447" lon="9.3375208"><ele>241.0</ele><time>2026-04-11T16:12:47.011Z</time></trkpt><trkpt lat="45.824635" lon="9.3371736"><ele>242.5</ele><time>2026-04-11T16:12:48.011Z</time></trkpt><trkpt lat="45.8246224" lon="9.3368305"><ele>244.0</ele><time>2026-04-11T16:12:49.011Z</time></trkpt><trkpt lat="45.8246113" lon="9.3364854"><ele>245.5</ele><time>2026-04-11T16:12:50.01Z</time></trkpt><trkpt lat="45.8246" lon="9.3361385"><ele>247.0</ele><time>2026-04-11T16:12:51.011Z</time></trkpt><trkpt lat="45.8245913" lon="9.3357892"><ele>247.0</ele><time>2026-04-11T16:12:52.011Z</time></trkpt><trkpt lat="45.8245839" lon="9.3354511"><ele>247.0</ele><time>2026-04-11T16:12:53.011Z</time></trkpt><trkpt lat="45.8245841" lon="9.3351117"><ele>247.0</ele><time>2026-04-11T16:12:54.011Z</time></trkpt><trkpt lat="45.8245826" lon="9.3347738"><ele>247.0</ele><time>2026-04-11T16:12:55.011Z</time></trkpt><trkpt lat="45.8245801" lon="9.3344312"><ele>247.0</ele><time>2026-04-11T16:12:56.011Z</time></trkpt><trkpt lat="45.8245806" lon="9.334088"><ele>247.0</ele><time>2026-04-11T16:12:57.011Z</time></trkpt><trkpt lat="45.8245785" lon="9.33374"><ele>247.5</ele><time>2026-04-11T16:12:58.011Z</time></trkpt><trkpt lat="45.8245691" lon="9.3333897"><ele>248.0</ele><time>2026-04-11T16:12:59.011Z</time></trkpt><trkpt lat="45.8245535" lon="9.3330451"><ele>249.5</ele><time>2026-04-11T16:13:00.011Z</time></trkpt><trkpt lat="45.8245328" lon="9.3326987"><ele>251.0</ele><time>2026-04-11T16:13:01.01Z</time></trkpt><trkpt lat="45.8245108" lon="9.3323506"><ele>252.5</ele><time>2026-04-11T16:13:02.011Z</time></trkpt><trkpt lat="45.8244831" lon="9.3320082"><ele>254.0</ele><time>2026-04-11T16:13:03.01Z</time></trkpt><trkpt lat="45.8244471" lon="9.3316647"><ele>255.0</ele><time>2026-04-11T16:13:04.011Z</time></trkpt><trkpt lat="45.8244171" lon="9.3313218"><ele>256.0</ele><time>2026-04-11T16:13:05.011Z</time></trkpt><trkpt lat="45.8243911" lon="9.3309784"><ele>256.0</ele><time>2026-04-11T16:13:06.011Z</time></trkpt><trkpt lat="45.8243665" lon="9.3306315"><ele>256.0</ele><time>2026-04-11T16:13:07.011Z</time></trkpt><trkpt lat="45.8243415" lon="9.3302879"><ele>260.0</ele><time>2026-04-11T16:13:08.01Z</time></trkpt><trkpt lat="45.8243155" lon="9.3299451"><ele>264.0</ele><time>2026-04-11T16:13:09.01Z</time></trkpt><trkpt lat="45.8242917" lon="9.3296055"><ele>250.0</ele><time>2026-04-11T16:13:10.011Z</time></trkpt><trkpt lat="45.8242633" lon="9.3292655"><ele>236.0</ele><time>2026-04-11T16:13:11.011Z</time></trkpt><trkpt lat="45.8242352" lon="9.328924"><ele>237.5</ele><time>2026-04-11T16:13:12.011Z</time></trkpt><trkpt lat="45.8242059" lon="9.3285818"><ele>239.0</ele><time>2026-04-11T16:13:13.011Z</time></trkpt><trkpt lat="45.8241704" lon="9.3282408"><ele>239.5</ele><time>2026-04-11T16:13:14.011Z</time></trkpt><trkpt lat="45.8241342" lon="9.3278965"><ele>240.0</ele><time>2026-04-11T16:13:15.011Z</time></trkpt><trkpt lat="45.8240812" lon="9.3275618"><ele>240.0</ele><time>2026-04-11T16:13:16.011Z</time></trkpt><trkpt lat="45.8240089" lon="9.3272412"><ele>240.0</ele><time>2026-04-11T16:13:17.01Z</time></trkpt><trkpt lat="45.8239228" lon="9.3269203"><ele>241.5</ele><time>2026-04-11T16:13:18.011Z</time></trkpt><trkpt lat="45.8238304" lon="9.3266002"><ele>243.0</ele><time>2026-04-11T16:13:19.011Z</time></trkpt><trkpt lat="45.8237233" lon="9.3262956"><ele>243.0</ele><time>2026-04-11T16:13:20.011Z</time></trkpt><trkpt lat="45.8235972" lon="9.3260158"><ele>243.0</ele><time>2026-04-11T16:13:21.011Z</time></trkpt><trkpt lat="45.8234578" lon="9.3257428"><ele>234.5</ele><time>2026-04-11T16:13:22.011Z</time></trkpt><trkpt lat="45.823301" lon="9.325487"><ele>226.0</ele><time>2026-04-11T16:13:23.011Z</time></trkpt><trkpt lat="45.8231333" lon="9.3252325"><ele>226.0</ele><time>2026-04-11T16:13:24.011Z</time></trkpt><trkpt lat="45.8229601" lon="9.3249921"><ele>226.0</ele><time>2026-04-11T16:13:25.011Z</time></trkpt><trkpt lat="45.8227801" lon="9.3247672"><ele>225.5</ele><time>2026-04-11T16:13:26.011Z</time></trkpt><trkpt lat="45.8225953" lon="9.3245645"><ele>225.0</ele><time>2026-04-11T16:13:27.01Z</time></trkpt><trkpt lat="45.8224029" lon="9.3243775"><ele>225.0</ele><time>2026-04-11T16:13:28.011Z</time></trkpt><trkpt lat="45.8221953" lon="9.3242209"><ele>225.0</ele><time>2026-04-11T16:13:29.011Z</time></trkpt><trkpt lat="45.8219803" lon="9.3240806"><ele>225.0</ele><time>2026-04-11T16:13:30.011Z</time></trkpt><trkpt lat="45.8217616" lon="9.323948"><ele>225.0</ele><time>2026-04-11T16:13:31.011Z</time></trkpt><trkpt lat="45.8215401" lon="9.3238254"><ele>226.0</ele><time>2026-04-11T16:13:32.011Z</time></trkpt><trkpt lat="45.8213204" lon="9.3237028"><ele>227.0</ele><time>2026-04-11T16:13:33.011Z</time></trkpt><trkpt lat="45.8210986" lon="9.3235791"><ele>226.5</ele><time>2026-04-11T16:13:34.01Z</time></trkpt><trkpt lat="45.8208735" lon="9.3234543"><ele>226.0</ele><time>2026-04-11T16:13:35.011Z</time></trkpt><trkpt lat="45.8206459" lon="9.3233331"><ele>226.0</ele><time>2026-04-11T16:13:36.011Z</time></trkpt><trkpt lat="45.8204207" lon="9.3232095"><ele>226.0</ele><time>2026-04-11T16:13:37.011Z</time></trkpt><trkpt lat="45.8201933" lon="9.3230931"><ele>229.0</ele><time>2026-04-11T16:13:38.011Z</time></trkpt><trkpt lat="45.8199658" lon="9.3229741"><ele>232.0</ele><time>2026-04-11T16:13:39.011Z</time></trkpt><trkpt lat="45.819734" lon="9.3228575"><ele>232.0</ele><time>2026-04-11T16:13:40.011Z</time></trkpt><trkpt lat="45.8195076" lon="9.3227321"><ele>232.0</ele><time>2026-04-11T16:13:41.011Z</time></trkpt><trkpt lat="45.8192869" lon="9.3226056"><ele>231.66666666666666</ele><time>2026-04-11T16:13:42.011Z</time></trkpt><trkpt lat="45.8190839" lon="9.3224877"><ele>231.33333333333331</ele><time>2026-04-11T16:13:43.011Z</time></trkpt><trkpt lat="45.8188955" lon="9.3223768"><ele>231.0</ele><time>2026-04-11T16:13:44.011Z</time></trkpt><trkpt lat="45.8187125" lon="9.322278"><ele>230.33333333333331</ele><time>2026-04-11T16:13:45.011Z</time></trkpt><trkpt lat="45.8185313" lon="9.3221866"><ele>229.66666666666666</ele><time>2026-04-11T16:13:46.011Z</time></trkpt><trkpt lat="45.8183693" lon="9.3221048"><ele>229.0</ele><time>2026-04-11T16:13:47.01Z</time></trkpt><trkpt lat="45.8182315" lon="9.3220299"><ele>229.0</ele><time>2026-04-11T16:13:48.011Z</time></trkpt><trkpt lat="45.8181154" lon="9.3219681"><ele>228.99999999999997</ele><time>2026-04-11T16:13:49.011Z</time></trkpt><trkpt lat="45.8180139" lon="9.3219034"><ele>228.99999999999997</ele><time>2026-04-11T16:13:50.011Z</time></trkpt><trkpt lat="45.8179129" lon="9.3218473"><ele>229.0</ele><time>2026-04-11T16:13:51.011Z</time></trkpt><trkpt lat="45.8178186" lon="9.321789"><ele>229.0</ele><time>2026-04-11T16:13:52.011Z</time></trkpt><trkpt lat="45.8177236" lon="9.3217332"><ele>228.39999999999998</ele><time>2026-04-11T16:13:53.011Z</time></trkpt><trkpt lat="45.817622" lon="9.3216814"><ele>227.79999999999998</ele><time>2026-04-11T16:13:54.011Z</time></trkpt><trkpt lat="45.8175243" lon="9.3216226"><ele>227.20000000000002</ele><time>2026-04-11T16:13:55.01Z</time></trkpt><trkpt lat="45.8174197" lon="9.3215646"><ele>226.60000000000002</ele><time>2026-04-11T16:13:56.011Z</time></trkpt><trkpt lat="45.8173105" lon="9.3215045"><ele>226.0</ele><time>2026-04-11T16:13:57.01Z</time></trkpt><trkpt lat="45.8171868" lon="9.3214418"><ele>226.0</ele><time>2026-04-11T16:13:58.011Z</time></trkpt><trkpt lat="45.8170382" lon="9.3213626"><ele>226.0</ele><time>2026-04-11T16:13:59.011Z</time></trkpt><trkpt lat="45.8168749" lon="9.3212723"><ele>226.0</ele><time>2026-04-11T16:14:00.011Z</time></trkpt><trkpt lat="45.8167128" lon="9.3211741"><ele>227.0</ele><time>2026-04-11T16:14:01.011Z</time></trkpt><trkpt lat="45.8165553" lon="9.3210831"><ele>228.0</ele><time>2026-04-11T16:14:02.01Z</time></trkpt><trkpt lat="45.8163946" lon="9.3209902"><ele>229.0</ele><time>2026-04-11T16:14:03.011Z</time></trkpt><trkpt lat="45.8162316" lon="9.3209026"><ele>229.0</ele><time>2026-04-11T16:14:04.011Z</time></trkpt><trkpt lat="45.8160713" lon="9.3208202"><ele>229.0</ele><time>2026-04-11T16:14:05.011Z</time></trkpt><trkpt lat="45.8159069" lon="9.3207301"><ele>229.0</ele><time>2026-04-11T16:14:06.011Z</time></trkpt><trkpt lat="45.8157409" lon="9.3206392"><ele>229.0</ele><time>2026-04-11T16:14:07.011Z</time></trkpt><trkpt lat="45.8155748" lon="9.3205391"><ele>229.0</ele><time>2026-04-11T16:14:08.011Z</time></trkpt><trkpt lat="45.8154013" lon="9.3204439"><ele>229.0</ele><time>2026-04-11T16:14:09.011Z</time></trkpt><trkpt lat="45.815236" lon="9.3203475"><ele>231.33333333333331</ele><time>2026-04-11T16:14:10.011Z</time></trkpt><trkpt lat="45.8150684" lon="9.3202533"><ele>233.66666666666669</ele><time>2026-04-11T16:14:11.011Z</time></trkpt><trkpt lat="45.8148962" lon="9.3201571"><ele>236.0</ele><time>2026-04-11T16:14:12.01Z</time></trkpt><trkpt lat="45.8147267" lon="9.3200468"><ele>236.0</ele><time>2026-04-11T16:14:13.011Z</time></trkpt><trkpt lat="45.8145598" lon="9.3199302"><ele>236.0</ele><time>2026-04-11T16:14:14.011Z</time></trkpt><trkpt lat="45.8143913" lon="9.319806"><ele>236.0</ele><time>2026-04-11T16:14:15.011Z</time></trkpt><trkpt lat="45.8142285" lon="9.3196877"><ele>237.66666666666669</ele><time>2026-04-11T16:14:16.01Z</time></trkpt><trkpt lat="45.8140729" lon="9.3195653"><ele>239.33333333333331</ele><time>2026-04-11T16:14:17.011Z</time></trkpt><trkpt lat="45.8139227" lon="9.3194397"><ele>241.0</ele><time>2026-04-11T16:14:18.01Z</time></trkpt><trkpt lat="45.8137648" lon="9.3193076"><ele>241.0</ele><time>2026-04-11T16:14:19.011Z</time></trkpt><trkpt lat="45.8136019" lon="9.3191588"><ele>241.0</ele><time>2026-04-11T16:14:20.011Z</time></trkpt><trkpt lat="45.8134386" lon="9.3190132"><ele>241.0</ele><time>2026-04-11T16:14:21.011Z</time></trkpt><trkpt lat="45.8132662" lon="9.318864"><ele>243.33333333333331</ele><time>2026-04-11T16:14:22.011Z</time></trkpt><trkpt lat="45.8130854" lon="9.318706"><ele>245.66666666666669</ele><time>2026-04-11T16:14:23.01Z</time></trkpt><trkpt lat="45.8128923" lon="9.3185432"><ele>248.0</ele><time>2026-04-11T16:14:24.011Z</time></trkpt><trkpt lat="45.812687" lon="9.3183576"><ele>246.5</ele><time>2026-04-11T16:14:25.011Z</time></trkpt><trkpt lat="45.812475" lon="9.3181721"><ele>245.0</ele><time>2026-04-11T16:14:26.011Z</time></trkpt><trkpt lat="45.8122764" lon="9.3179995"><ele>245.0</ele><time>2026-04-11T16:14:27.011Z</time></trkpt><trkpt lat="45.8120818" lon="9.317831"><ele>245.0</ele><time>2026-04-11T16:14:28.011Z</time></trkpt><trkpt lat="45.8118872" lon="9.3176616"><ele>242.0</ele><time>2026-04-11T16:14:29.011Z</time></trkpt><trkpt lat="45.8116927" lon="9.3174964"><ele>239.0</ele><time>2026-04-11T16:14:30.011Z</time></trkpt><trkpt lat="45.8114979" lon="9.3173335"><ele>241.5</ele><time>2026-04-11T16:14:31.01Z</time></trkpt><trkpt lat="45.811303" lon="9.3171649"><ele>244.0</ele><time>2026-04-11T16:14:32.011Z</time></trkpt><trkpt lat="45.8111053" lon="9.3170087"><ele>243.33333333333331</ele><time>2026-04-11T16:14:33.011Z</time></trkpt><trkpt lat="45.8109153" lon="9.3168445"><ele>242.66666666666669</ele><time>2026-04-11T16:14:34.011Z</time></trkpt><trkpt lat="45.8107254" lon="9.3166807"><ele>242.0</ele><time>2026-04-11T16:14:35.011Z</time></trkpt><trkpt lat="45.8105379" lon="9.3165269"><ele>243.33333333333334</ele><time>2026-04-11T16:14:36.011Z</time></trkpt><trkpt lat="45.8103578" lon="9.3163724"><ele>244.66666666666669</ele><time>2026-04-11T16:14:37.011Z</time></trkpt><trkpt lat="45.8101765" lon="9.3162178"><ele>246.0</ele><time>2026-04-11T16:14:38.011Z</time></trkpt><trkpt lat="45.8100011" lon="9.3160619"><ele>246.66666666666669</ele><time>2026-04-11T16:14:39.011Z</time></trkpt><trkpt lat="45.8098301" lon="9.315903"><ele>247.33333333333334</ele><time>2026-04-11T16:14:40.01Z</time></trkpt><trkpt lat="45.8096638" lon="9.315749"><ele>248.0</ele><time>2026-04-11T16:14:41.009Z</time></trkpt><trkpt lat="45.8095067" lon="9.3156171"><ele>249.33333333333334</ele><time>2026-04-11T16:14:42.01Z</time></trkpt><trkpt lat="45.8093601" lon="9.3154835"><ele>250.66666666666669</ele><time>2026-04-11T16:14:43.009Z</time></trkpt><trkpt lat="45.8092208" lon="9.3153654"><ele>252.0</ele><time>2026-04-11T16:14:44.009Z</time></trkpt><trkpt lat="45.8090946" lon="9.3152491"><ele>254.0</ele><time>2026-04-11T16:14:45.01Z</time></trkpt><trkpt lat="45.8089816" lon="9.3151496"><ele>256.0</ele><time>2026-04-11T16:14:46.01Z</time></trkpt><trkpt lat="45.8088758" lon="9.3150631"><ele>258.0</ele><time>2026-04-11T16:14:47.01Z</time></trkpt><trkpt lat="45.8087804" lon="9.3149734"><ele>260.0</ele><time>2026-04-11T16:14:48.01Z</time></trkpt><trkpt lat="45.8086946" lon="9.314891"><ele>260.0</ele><time>2026-04-11T16:14:49.01Z</time></trkpt><trkpt lat="45.8086141" lon="9.314816"><ele>260.0</ele><time>2026-04-11T16:14:50.01Z</time></trkpt><trkpt lat="45.8085417" lon="9.3147445"><ele>260.0</ele><time>2026-04-11T16:14:51.01Z</time></trkpt><trkpt lat="45.8084754" lon="9.3146855"><ele>260.0</ele><time>2026-04-11T16:14:52.01Z</time></trkpt><trkpt lat="45.808402" lon="9.3146321"><ele>260.0</ele><time>2026-04-11T16:14:53.01Z</time></trkpt><trkpt lat="45.808323" lon="9.3145648"><ele>260.0</ele><time>2026-04-11T16:14:54.01Z</time></trkpt><trkpt lat="45.8082491" lon="9.3145006"><ele>261.0</ele><time>2026-04-11T16:14:55.01Z</time></trkpt><trkpt lat="45.8081582" lon="9.3144168"><ele>262.0</ele><time>2026-04-11T16:14:56.009Z</time></trkpt><trkpt lat="45.8080557" lon="9.3143239"><ele>263.0</ele><time>2026-04-11T16:14:57.01Z</time></trkpt><trkpt lat="45.8079464" lon="9.3142216"><ele>264.0</ele><time>2026-04-11T16:14:58.01Z</time></trkpt><trkpt lat="45.8078347" lon="9.3141254"><ele>264.0</ele><time>2026-04-11T16:14:59.01Z</time></trkpt><trkpt lat="45.8077218" lon="9.314027"><ele>264.0</ele><time>2026-04-11T16:15:00.01Z</time></trkpt><trkpt lat="45.8076032" lon="9.3139203"><ele>264.0</ele><time>2026-04-11T16:15:01.01Z</time></trkpt><trkpt lat="45.8074718" lon="9.313815"><ele>264.0</ele><time>2026-04-11T16:15:02.01Z</time></trkpt><trkpt lat="45.8073362" lon="9.3136978"><ele>264.0</ele><time>2026-04-11T16:15:03.009Z</time></trkpt><trkpt lat="45.8071854" lon="9.3135626"><ele>264.0</ele><time>2026-04-11T16:15:04.01Z</time></trkpt><trkpt lat="45.8070254" lon="9.3134252"><ele>264.0</ele><time>2026-04-11T16:15:05.01Z</time></trkpt><trkpt lat="45.8068551" lon="9.3132894"><ele>264.0</ele><time>2026-04-11T16:15:06.009Z</time></trkpt><trkpt lat="45.8066836" lon="9.3131379"><ele>264.0</ele><time>2026-04-11T16:15:07.01Z</time></trkpt><trkpt lat="45.8065137" lon="9.3129813"><ele>264.0</ele><time>2026-04-11T16:15:08.01Z</time></trkpt><trkpt lat="45.8063546" lon="9.312832"><ele>263.6666666666667</ele><time>2026-04-11T16:15:09.01Z</time></trkpt><trkpt lat="45.8062023" lon="9.3126888"><ele>263.33333333333337</ele><time>2026-04-11T16:15:10.01Z</time></trkpt><trkpt lat="45.8060538" lon="9.3125514"><ele>263.0</ele><time>2026-04-11T16:15:11.009Z</time></trkpt><trkpt lat="45.8059077" lon="9.3124161"><ele>262.6666666666667</ele><time>2026-04-11T16:15:12.01Z</time></trkpt><trkpt lat="45.8057683" lon="9.312275"><ele>262.3333333333333</ele><time>2026-04-11T16:15:13.01Z</time></trkpt><trkpt lat="45.8056155" lon="9.3121388"><ele>262.0</ele><time>2026-04-11T16:15:14.01Z</time></trkpt><trkpt lat="45.8054705" lon="9.3120029"><ele>263.0</ele><time>2026-04-11T16:15:15.01Z</time></trkpt><trkpt lat="45.8053306" lon="9.3118636"><ele>264.0</ele><time>2026-04-11T16:15:16.01Z</time></trkpt><trkpt lat="45.8051887" lon="9.3117211"><ele>265.0</ele><time>2026-04-11T16:15:17.01Z</time></trkpt><trkpt lat="45.8050445" lon="9.3115812"><ele>265.3333333333333</ele><time>2026-04-11T16:15:18.01Z</time></trkpt><trkpt lat="45.8048979" lon="9.3114445"><ele>265.6666666666667</ele><time>2026-04-11T16:15:19.01Z</time></trkpt><trkpt lat="45.8047612" lon="9.3113132"><ele>266.0</ele><time>2026-04-11T16:15:20.009Z</time></trkpt><trkpt lat="45.8046279" lon="9.3111846"><ele>266.0</ele><time>2026-04-11T16:15:21.01Z</time></trkpt><trkpt lat="45.804491" lon="9.3110621"><ele>266.0</ele><time>2026-04-11T16:15:22.01Z</time></trkpt><trkpt lat="45.8043501" lon="9.3109264"><ele>266.0</ele><time>2026-04-11T16:15:23.01Z</time></trkpt><trkpt lat="45.8042083" lon="9.3107941"><ele>266.0</ele><time>2026-04-11T16:15:24.01Z</time></trkpt><trkpt lat="45.8040639" lon="9.3106639"><ele>266.0</ele><time>2026-04-11T16:15:25.01Z</time></trkpt><trkpt lat="45.8039266" lon="9.3105338"><ele>266.0</ele><time>2026-04-11T16:15:26.01Z</time></trkpt><trkpt lat="45.8037913" lon="9.3104023"><ele>266.33333333333337</ele><time>2026-04-11T16:15:27.01Z</time></trkpt><trkpt lat="45.8036547" lon="9.3102684"><ele>266.6666666666667</ele><time>2026-04-11T16:15:28.009Z</time></trkpt><trkpt lat="45.8035231" lon="9.3101467"><ele>267.0</ele><time>2026-04-11T16:15:29.01Z</time></trkpt><trkpt lat="45.8033937" lon="9.3100275"><ele>266.5</ele><time>2026-04-11T16:15:30.01Z</time></trkpt><trkpt lat="45.8032711" lon="9.3099103"><ele>266.0</ele><time>2026-04-11T16:15:31.01Z</time></trkpt><trkpt lat="45.8031495" lon="9.3097924"><ele>265.5</ele><time>2026-04-11T16:15:32.01Z</time></trkpt><trkpt lat="45.8030285" lon="9.3096668"><ele>265.0</ele><time>2026-04-11T16:15:33.009Z</time></trkpt><trkpt lat="45.8029091" lon="9.3095469"><ele>264.75</ele><time>2026-04-11T16:15:34.01Z</time></trkpt><trkpt lat="45.8027914" lon="9.3094285"><ele>264.5</ele><time>2026-04-11T16:15:35.009Z</time></trkpt><trkpt lat="45.8026853" lon="9.3093082"><ele>264.25</ele><time>2026-04-11T16:15:36.01Z</time></trkpt><trkpt lat="45.8025922" lon="9.3092065"><ele>264.0</ele><time>2026-04-11T16:15:37.01Z</time></trkpt><trkpt lat="45.8025006" lon="9.3091129"><ele>264.0</ele><time>2026-04-11T16:15:38.01Z</time></trkpt><trkpt lat="45.8024113" lon="9.3090244"><ele>264.0</ele><time>2026-04-11T16:15:39.01Z</time></trkpt><trkpt lat="45.8023262" lon="9.3089412"><ele>264.0</ele><time>2026-04-11T16:15:40.009Z</time></trkpt><trkpt lat="45.8022441" lon="9.3088568"><ele>264.0</ele><time>2026-04-11T16:15:41.01Z</time></trkpt><trkpt lat="45.8021656" lon="9.3087748"><ele>264.0</ele><time>2026-04-11T16:15:42.01Z</time></trkpt><trkpt lat="45.8020907" lon="9.3087025"><ele>264.1666666666667</ele><time>2026-04-11T16:15:43.01Z</time></trkpt><trkpt lat="45.8020198" lon="9.3086313"><ele>264.3333333333333</ele><time>2026-04-11T16:15:44.01Z</time></trkpt><trkpt lat="45.80195" lon="9.3085656"><ele>264.5</ele><time>2026-04-11T16:15:45.01Z</time></trkpt><trkpt lat="45.8018907" lon="9.3084991"><ele>264.66666666666663</ele><time>2026-04-11T16:15:46.01Z</time></trkpt><trkpt lat="45.801838" lon="9.3084367"><ele>264.8333333333333</ele><time>2026-04-11T16:15:47.01Z</time></trkpt><trkpt lat="45.801781" lon="9.3083666"><ele>265.0</ele><time>2026-04-11T16:15:48.009Z</time></trkpt><trkpt lat="45.8017127" lon="9.3082932"><ele>264.5</ele><time>2026-04-11T16:15:49.01Z</time></trkpt><trkpt lat="45.8016339" lon="9.3082081"><ele>264.0</ele><time>2026-04-11T16:15:50.01Z</time></trkpt><trkpt lat="45.8015342" lon="9.3081161"><ele>263.5</ele><time>2026-04-11T16:15:51.01Z</time></trkpt><trkpt lat="45.8014305" lon="9.3080082"><ele>263.0</ele><time>2026-04-11T16:15:52.009Z</time></trkpt><trkpt lat="45.8013188" lon="9.3079039"><ele>263.0</ele><time>2026-04-11T16:15:53.01Z</time></trkpt><trkpt lat="45.8012127" lon="9.3077993"><ele>263.0</ele><time>2026-04-11T16:15:54.01Z</time></trkpt><trkpt lat="45.801122" lon="9.3077186"><ele>263.0</ele><time>2026-04-11T16:15:55.009Z</time></trkpt><trkpt lat="45.8010294" lon="9.3076348"><ele>263.0</ele><time>2026-04-11T16:15:56.01Z</time></trkpt><trkpt lat="45.8009372" lon="9.3075574"><ele>263.0</ele><time>2026-04-11T16:15:57.01Z</time></trkpt><trkpt lat="45.8008423" lon="9.3074746"><ele>263.0</ele><time>2026-04-11T16:15:58.01Z</time></trkpt><trkpt lat="45.8007598" lon="9.307395"><ele>263.0</ele><time>2026-04-11T16:15:59.01Z</time></trkpt><trkpt lat="45.8006833" lon="9.3073163"><ele>263.0</ele><time>2026-04-11T16:16:00.009Z</time></trkpt><trkpt lat="45.8006027" lon="9.3072255"><ele>263.0</ele><time>2026-04-11T16:16:01.01Z</time></trkpt><trkpt lat="45.8005117" lon="9.3071341"><ele>262.75</ele><time>2026-04-11T16:16:02.01Z</time></trkpt><trkpt lat="45.8004096" lon="9.3070381"><ele>262.5</ele><time>2026-04-11T16:16:03.01Z</time></trkpt><trkpt lat="45.8003063" lon="9.3069443"><ele>262.25</ele><time>2026-04-11T16:16:04.01Z</time></trkpt><trkpt lat="45.8002008" lon="9.3068508"><ele>262.0</ele><time>2026-04-11T16:16:05.01Z</time></trkpt><trkpt lat="45.8001007" lon="9.3067614"><ele>262.2</ele><time>2026-04-11T16:16:06.01Z</time></trkpt><trkpt lat="45.8000087" lon="9.306685"><ele>262.4</ele><time>2026-04-11T16:16:07.01Z</time></trkpt><trkpt lat="45.7999223" lon="9.3066106"><ele>262.6</ele><time>2026-04-11T16:16:08.01Z</time></trkpt><trkpt lat="45.7998369" lon="9.306537"><ele>262.8</ele><time>2026-04-11T16:16:09.01Z</time></trkpt><trkpt lat="45.7997451" lon="9.3064638"><ele>263.0</ele><time>2026-04-11T16:16:10.01Z</time></trkpt><trkpt lat="45.7996632" lon="9.3063873"><ele>263.0</ele><time>2026-04-11T16:16:11.01Z</time></trkpt><trkpt lat="45.7995805" lon="9.3063246"><ele>263.0</ele><time>2026-04-11T16:16:12.01Z</time></trkpt><trkpt lat="45.7995029" lon="9.3062658"><ele>263.0</ele><time>2026-04-11T16:16:13.01Z</time></trkpt><trkpt lat="45.7994199" lon="9.3061923"><ele>263.0</ele><time>2026-04-11T16:16:14.01Z</time></trkpt><trkpt lat="45.799325" lon="9.3061138"><ele>263.0</ele><time>2026-04-11T16:16:15.01Z</time></trkpt><trkpt lat="45.7992161" lon="9.3060209"><ele>263.25</ele><time>2026-04-11T16:16:16.01Z</time></trkpt><trkpt lat="45.7990912" lon="9.3059082"><ele>263.5</ele><time>2026-04-11T16:16:17.01Z</time></trkpt><trkpt lat="45.7989649" lon="9.3057882"><ele>263.75</ele><time>2026-04-11T16:16:18.01Z</time></trkpt><trkpt lat="45.79884" lon="9.3056714"><ele>264.0</ele><time>2026-04-11T16:16:19.01Z</time></trkpt><trkpt lat="45.798723" lon="9.3055628"><ele>264.0</ele><time>2026-04-11T16:16:20.01Z</time></trkpt><trkpt lat="45.7986092" lon="9.3054552"><ele>264.0</ele><time>2026-04-11T16:16:21.01Z</time></trkpt><trkpt lat="45.7984982" lon="9.3053374"><ele>264.0</ele><time>2026-04-11T16:16:22.01Z</time></trkpt><trkpt lat="45.7983874" lon="9.3052291"><ele>264.0</ele><time>2026-04-11T16:16:23.01Z</time></trkpt><trkpt lat="45.7982718" lon="9.3051172"><ele>264.0</ele><time>2026-04-11T16:16:24.01Z</time></trkpt><trkpt lat="45.7981602" lon="9.3050105"><ele>264.0</ele><time>2026-04-11T16:16:25.01Z</time></trkpt><trkpt lat="45.7980457" lon="9.3049036"><ele>264.0</ele><time>2026-04-11T16:16:26.01Z</time></trkpt><trkpt lat="45.7979267" lon="9.3047873"><ele>264.0</ele><time>2026-04-11T16:16:27.01Z</time></trkpt><trkpt lat="45.7978009" lon="9.3046677"><ele>264.25</ele><time>2026-04-11T16:16:28.01Z</time></trkpt><trkpt lat="45.7976759" lon="9.3045422"><ele>264.5</ele><time>2026-04-11T16:16:29.01Z</time></trkpt><trkpt lat="45.7975569" lon="9.3044278"><ele>264.75</ele><time>2026-04-11T16:16:30.01Z</time></trkpt><trkpt lat="45.7974406" lon="9.30432"><ele>265.0</ele><time>2026-04-11T16:16:31.01Z</time></trkpt><trkpt lat="45.7973189" lon="9.3042088"><ele>264.75</ele><time>2026-04-11T16:16:32.01Z</time></trkpt><trkpt lat="45.7972" lon="9.3041003"><ele>264.5</ele><time>2026-04-11T16:16:33.01Z</time></trkpt><trkpt lat="45.7970865" lon="9.3039952"><ele>264.25</ele><time>2026-04-11T16:16:34.01Z</time></trkpt><trkpt lat="45.796979" lon="9.3038984"><ele>264.0</ele><time>2026-04-11T16:16:35.01Z</time></trkpt><trkpt lat="45.7968737" lon="9.3037956"><ele>265.25</ele><time>2026-04-11T16:16:36.01Z</time></trkpt><trkpt lat="45.7967662" lon="9.3036902"><ele>266.5</ele><time>2026-04-11T16:16:37.01Z</time></trkpt><trkpt lat="45.7966682" lon="9.3035896"><ele>267.75</ele><time>2026-04-11T16:16:38.01Z</time></trkpt><trkpt lat="45.7965696" lon="9.3034922"><ele>269.0</ele><time>2026-04-11T16:16:39.01Z</time></trkpt><trkpt lat="45.7964919" lon="9.3034132"><ele>269.0</ele><time>2026-04-11T16:16:40.01Z</time></trkpt><trkpt lat="45.7964238" lon="9.3033529"><ele>269.0</ele><time>2026-04-11T16:16:41.01Z</time></trkpt><trkpt lat="45.7963635" lon="9.3032985"><ele>269.0</ele><time>2026-04-11T16:16:42.01Z</time></trkpt><trkpt lat="45.7962692" lon="9.3032084"><ele>269.0</ele><time>2026-04-11T16:16:44.01Z</time></trkpt><trkpt lat="45.7961853" lon="9.3031202"><ele>269.0</ele><time>2026-04-11T16:16:46.01Z</time></trkpt><trkpt lat="45.7961027" lon="9.303035"><ele>270.0</ele><time>2026-04-11T16:16:48.01Z</time></trkpt><trkpt lat="45.7960325" lon="9.3029607"><ele>271.0</ele><time>2026-04-11T16:16:50.01Z</time></trkpt><trkpt lat="45.7959802" lon="9.3029071"><ele>272.0</ele><time>2026-04-11T16:16:52.01Z</time></trkpt><trkpt lat="45.7959095" lon="9.3028448"><ele>273.0</ele><time>2026-04-11T16:16:54.01Z</time></trkpt><trkpt lat="45.7958152" lon="9.3027695"><ele>274.0</ele><time>2026-04-11T16:16:56.01Z</time></trkpt><trkpt lat="45.7957178" lon="9.3026705"><ele>274.16666666666663</ele><time>2026-04-11T16:16:58.01Z</time></trkpt><trkpt lat="45.7956494" lon="9.3026122"><ele>274.3333333333333</ele><time>2026-04-11T16:16:59.01Z</time></trkpt><trkpt lat="45.7955799" lon="9.3025558"><ele>274.5</ele><time>2026-04-11T16:17:00.009Z</time></trkpt><trkpt lat="45.7955143" lon="9.3024938"><ele>274.6666666666667</ele><time>2026-04-11T16:17:01.01Z</time></trkpt><trkpt lat="45.7954408" lon="9.3024287"><ele>274.83333333333337</ele><time>2026-04-11T16:17:02.01Z</time></trkpt><trkpt lat="45.7953751" lon="9.3023624"><ele>275.0</ele><time>2026-04-11T16:17:03.01Z</time></trkpt><trkpt lat="45.7953087" lon="9.3023003"><ele>275.0</ele><time>2026-04-11T16:17:04.01Z</time></trkpt><trkpt lat="45.7952351" lon="9.3022207"><ele>275.0</ele><time>2026-04-11T16:17:05.009Z</time></trkpt><trkpt lat="45.7951618" lon="9.3021541"><ele>275.0</ele><time>2026-04-11T16:17:06.01Z</time></trkpt><trkpt lat="45.795095" lon="9.3020985"><ele>275.0</ele><time>2026-04-11T16:17:07.01Z</time></trkpt><trkpt lat="45.7950255" lon="9.3020229"><ele>275.0</ele><time>2026-04-11T16:17:08.01Z</time></trkpt><trkpt lat="45.7949537" lon="9.3019494"><ele>275.0</ele><time>2026-04-11T16:17:09.01Z</time></trkpt><trkpt lat="45.7948793" lon="9.3018799"><ele>275.0</ele><time>2026-04-11T16:17:10.009Z</time></trkpt><trkpt lat="45.7947962" lon="9.3018017"><ele>275.0</ele><time>2026-04-11T16:17:11.01Z</time></trkpt><trkpt lat="45.7947084" lon="9.3017154"><ele>275.0</ele><time>2026-04-11T16:17:12.01Z</time></trkpt><trkpt lat="45.7946185" lon="9.3016389"><ele>275.0</ele><time>2026-04-11T16:17:13.01Z</time></trkpt><trkpt lat="45.7945328" lon="9.3015575"><ele>275.0</ele><time>2026-04-11T16:17:14.01Z</time></trkpt><trkpt lat="45.7944495" lon="9.3014721"><ele>275.1666666666667</ele><time>2026-04-11T16:17:15.01Z</time></trkpt><trkpt lat="45.7943707" lon="9.3013964"><ele>275.33333333333337</ele><time>2026-04-11T16:17:16.009Z</time></trkpt><trkpt lat="45.7942962" lon="9.3013306"><ele>275.5</ele><time>2026-04-11T16:17:17.01Z</time></trkpt><trkpt lat="45.7942318" lon="9.3012579"><ele>275.6666666666667</ele><time>2026-04-11T16:17:18.01Z</time></trkpt><trkpt lat="45.7941665" lon="9.3011894"><ele>275.8333333333333</ele><time>2026-04-11T16:17:19.01Z</time></trkpt><trkpt lat="45.7941006" lon="9.3011275"><ele>276.0</ele><time>2026-04-11T16:17:20.01Z</time></trkpt><trkpt lat="45.7940358" lon="9.3010679"><ele>276.0</ele><time>2026-04-11T16:17:21.009Z</time></trkpt><trkpt lat="45.793977" lon="9.3010239"><ele>276.0</ele><time>2026-04-11T16:17:22.009Z</time></trkpt><trkpt lat="45.7939231" lon="9.3009718"><ele>276.0</ele><time>2026-04-11T16:17:23.01Z</time></trkpt><trkpt lat="45.793863" lon="9.3009271"><ele>276.0</ele><time>2026-04-11T16:17:24.01Z</time></trkpt><trkpt lat="45.7938057" lon="9.3008687"><ele>276.0</ele><time>2026-04-11T16:17:25.01Z</time></trkpt><trkpt lat="45.7937436" lon="9.3008105"><ele>276.0</ele><time>2026-04-11T16:17:26.01Z</time></trkpt><trkpt lat="45.7936871" lon="9.3007569"><ele>276.0</ele><time>2026-04-11T16:17:27.01Z</time></trkpt><trkpt lat="45.7936343" lon="9.3007009"><ele>276.0</ele><time>2026-04-11T16:17:28.01Z</time></trkpt><trkpt lat="45.7935803" lon="9.3006494"><ele>276.0</ele><time>2026-04-11T16:17:29.009Z</time></trkpt><trkpt lat="45.7935219" lon="9.3005961"><ele>276.0</ele><time>2026-04-11T16:17:30.01Z</time></trkpt><trkpt lat="45.7934638" lon="9.3005431"><ele>276.0</ele><time>2026-04-11T16:17:31.01Z</time></trkpt><trkpt lat="45.7933957" lon="9.3004843"><ele>276.0</ele><time>2026-04-11T16:17:32.01Z</time></trkpt><trkpt lat="45.7933286" lon="9.3004205"><ele>276.0</ele><time>2026-04-11T16:17:33.01Z</time></trkpt><trkpt lat="45.7932651" lon="9.3003624"><ele>276.0</ele><time>2026-04-11T16:17:34.01Z</time></trkpt><trkpt lat="45.7932068" lon="9.300307"><ele>276.0</ele><time>2026-04-11T16:17:35.009Z</time></trkpt><trkpt lat="45.793148" lon="9.3002649"><ele>276.0</ele><time>2026-04-11T16:17:36.01Z</time></trkpt><trkpt lat="45.7930874" lon="9.3002237"><ele>276.0</ele><time>2026-04-11T16:17:37.01Z</time></trkpt><trkpt lat="45.7930317" lon="9.3001749"><ele>276.0</ele><time>2026-04-11T16:17:38.01Z</time></trkpt><trkpt lat="45.7929771" lon="9.3001264"><ele>276.0</ele><time>2026-04-11T16:17:39.01Z</time></trkpt><trkpt lat="45.7929178" lon="9.3000872"><ele>276.0</ele><time>2026-04-11T16:17:40.01Z</time></trkpt><trkpt lat="45.7928592" lon="9.3000472"><ele>276.0</ele><time>2026-04-11T16:17:41.01Z</time></trkpt><trkpt lat="45.7927901" lon="9.2999992"><ele>276.0</ele><time>2026-04-11T16:17:42.01Z</time></trkpt><trkpt lat="45.7927089" lon="9.2999478"><ele>276.0</ele><time>2026-04-11T16:17:43.01Z</time></trkpt><trkpt lat="45.7926133" lon="9.2998709"><ele>276.0</ele><time>2026-04-11T16:17:44.01Z</time></trkpt><trkpt lat="45.792512" lon="9.2997992"><ele>276.0</ele><time>2026-04-11T16:17:45.01Z</time></trkpt><trkpt lat="45.7923958" lon="9.2997198"><ele>276.0</ele><time>2026-04-11T16:17:46.01Z</time></trkpt><trkpt lat="45.79225" lon="9.2996127"><ele>275.3333333333333</ele><time>2026-04-11T16:17:47.01Z</time></trkpt><trkpt lat="45.7920991" lon="9.2994989"><ele>274.66666666666663</ele><time>2026-04-11T16:17:48.01Z</time></trkpt><trkpt lat="45.7919486" lon="9.2993909"><ele>274.0</ele><time>2026-04-11T16:17:49.009Z</time></trkpt><trkpt lat="45.7917791" lon="9.2992811"><ele>272.66666666666663</ele><time>2026-04-11T16:17:50.01Z</time></trkpt><trkpt lat="45.7916145" lon="9.2991853"><ele>271.3333333333333</ele><time>2026-04-11T16:17:51.01Z</time></trkpt><trkpt lat="45.7914693" lon="9.2990918"><ele>270.0</ele><time>2026-04-11T16:17:52.009Z</time></trkpt><trkpt lat="45.7913371" lon="9.2990005"><ele>271.0</ele><time>2026-04-11T16:17:53.009Z</time></trkpt><trkpt lat="45.7912013" lon="9.2989087"><ele>272.0</ele><time>2026-04-11T16:17:54.01Z</time></trkpt><trkpt lat="45.7910638" lon="9.2988076"><ele>273.0</ele><time>2026-04-11T16:17:55.01Z</time></trkpt><trkpt lat="45.7909048" lon="9.2987019"><ele>273.0</ele><time>2026-04-11T16:17:56.01Z</time></trkpt><trkpt lat="45.7907194" lon="9.2985863"><ele>273.0</ele><time>2026-04-11T16:17:57.01Z</time></trkpt><trkpt lat="45.79052" lon="9.2984537"><ele>273.0</ele><time>2026-04-11T16:17:58.009Z</time></trkpt><trkpt lat="45.7903048" lon="9.2983115"><ele>272.3333333333333</ele><time>2026-04-11T16:17:59.01Z</time></trkpt><trkpt lat="45.7901052" lon="9.2981656"><ele>271.66666666666663</ele><time>2026-04-11T16:18:00.01Z</time></trkpt><trkpt lat="45.7899132" lon="9.2980402"><ele>271.0</ele><time>2026-04-11T16:18:01.01Z</time></trkpt><trkpt lat="45.7897329" lon="9.2979257"><ele>271.3333333333333</ele><time>2026-04-11T16:18:02.01Z</time></trkpt><trkpt lat="45.7895557" lon="9.2978148"><ele>271.6666666666667</ele><time>2026-04-11T16:18:03.01Z</time></trkpt><trkpt lat="45.7893777" lon="9.2977019"><ele>272.0</ele><time>2026-04-11T16:18:04.01Z</time></trkpt><trkpt lat="45.7891925" lon="9.2975621"><ele>272.0</ele><time>2026-04-11T16:18:05.01Z</time></trkpt><trkpt lat="45.7889785" lon="9.2974122"><ele>272.0</ele><time>2026-04-11T16:18:06.01Z</time></trkpt><trkpt lat="45.788749" lon="9.297259"><ele>272.0</ele><time>2026-04-11T16:18:07.01Z</time></trkpt><trkpt lat="45.7885172" lon="9.2971119"><ele>272.0</ele><time>2026-04-11T16:18:08.01Z</time></trkpt><trkpt lat="45.7882886" lon="9.2969707"><ele>272.0</ele><time>2026-04-11T16:18:09.01Z</time></trkpt><trkpt lat="45.7880694" lon="9.2968286"><ele>272.0</ele><time>2026-04-11T16:18:10.01Z</time></trkpt><trkpt lat="45.7878657" lon="9.2966805"><ele>270.33333333333337</ele><time>2026-04-11T16:18:11.01Z</time></trkpt><trkpt lat="45.7876738" lon="9.296543"><ele>268.6666666666667</ele><time>2026-04-11T16:18:12.01Z</time></trkpt><trkpt lat="45.7874829" lon="9.296418"><ele>267.0</ele><time>2026-04-11T16:18:13.01Z</time></trkpt><trkpt lat="45.7873004" lon="9.2962889"><ele>267.0</ele><time>2026-04-11T16:18:14.01Z</time></trkpt><trkpt lat="45.787126" lon="9.2961775"><ele>267.0</ele><time>2026-04-11T16:18:15.01Z</time></trkpt><trkpt lat="45.786952" lon="9.2960686"><ele>267.0</ele><time>2026-04-11T16:18:16.01Z</time></trkpt><trkpt lat="45.7867836" lon="9.2959581"><ele>266.6666666666667</ele><time>2026-04-11T16:18:17.01Z</time></trkpt><trkpt lat="45.7866175" lon="9.2958517"><ele>266.33333333333337</ele><time>2026-04-11T16:18:18.01Z</time></trkpt><trkpt lat="45.7864457" lon="9.2957481"><ele>266.0</ele><time>2026-04-11T16:18:19.01Z</time></trkpt><trkpt lat="45.7862796" lon="9.2956434"><ele>265.6666666666667</ele><time>2026-04-11T16:18:20.01Z</time></trkpt><trkpt lat="45.7861145" lon="9.2955277"><ele>265.3333333333333</ele><time>2026-04-11T16:18:21.009Z</time></trkpt><trkpt lat="45.7859505" lon="9.2954137"><ele>265.0</ele><time>2026-04-11T16:18:22.01Z</time></trkpt><trkpt lat="45.7857799" lon="9.2953026"><ele>265.0</ele><time>2026-04-11T16:18:23.01Z</time></trkpt><trkpt lat="45.7856069" lon="9.2951964"><ele>265.0</ele><time>2026-04-11T16:18:24.01Z</time></trkpt><trkpt lat="45.7854336" lon="9.2950833"><ele>265.0</ele><time>2026-04-11T16:18:25.01Z</time></trkpt><trkpt lat="45.785241" lon="9.294967"><ele>265.0</ele><time>2026-04-11T16:18:26.01Z</time></trkpt><trkpt lat="45.785031" lon="9.2948274"><ele>265.0</ele><time>2026-04-11T16:18:27.01Z</time></trkpt><trkpt lat="45.7848149" lon="9.2946764"><ele>267.5</ele><time>2026-04-11T16:18:28.01Z</time></trkpt><trkpt lat="45.7846022" lon="9.2945303"><ele>270.0</ele><time>2026-04-11T16:18:29.009Z</time></trkpt><trkpt lat="45.7843933" lon="9.2943822"><ele>270.3333333333333</ele><time>2026-04-11T16:18:30.01Z</time></trkpt><trkpt lat="45.7841914" lon="9.2942453"><ele>270.66666666666663</ele><time>2026-04-11T16:18:31.01Z</time></trkpt><trkpt lat="45.7839982" lon="9.2941013"><ele>271.0</ele><time>2026-04-11T16:18:32.01Z</time></trkpt><trkpt lat="45.7838012" lon="9.2939572"><ele>271.66666666666663</ele><time>2026-04-11T16:18:33.009Z</time></trkpt><trkpt lat="45.7835986" lon="9.2938145"><ele>272.3333333333333</ele><time>2026-04-11T16:18:34.01Z</time></trkpt><trkpt lat="45.7833948" lon="9.2936827"><ele>273.0</ele><time>2026-04-11T16:18:35.01Z</time></trkpt><trkpt lat="45.7832006" lon="9.2935475"><ele>273.0</ele><time>2026-04-11T16:18:36.01Z</time></trkpt><trkpt lat="45.7830077" lon="9.2934182"><ele>273.0</ele><time>2026-04-11T16:18:37.01Z</time></trkpt><trkpt lat="45.7828139" lon="9.293289"><ele>273.0</ele><time>2026-04-11T16:18:38.009Z</time></trkpt><trkpt lat="45.7826284" lon="9.293172"><ele>272.0</ele><time>2026-04-11T16:18:39.01Z</time></trkpt><trkpt lat="45.782451" lon="9.293063"><ele>271.0</ele><time>2026-04-11T16:18:40.01Z</time></trkpt><trkpt lat="45.7822961" lon="9.2929627"><ele>270.0</ele><time>2026-04-11T16:18:41.01Z</time></trkpt><trkpt lat="45.7821456" lon="9.2928622"><ele>270.0</ele><time>2026-04-11T16:18:42.01Z</time></trkpt><trkpt lat="45.7820019" lon="9.2927643"><ele>270.0</ele><time>2026-04-11T16:18:43.01Z</time></trkpt><trkpt lat="45.7818637" lon="9.2926714"><ele>270.0</ele><time>2026-04-11T16:18:44.01Z</time></trkpt><trkpt lat="45.7817099" lon="9.2925724"><ele>269.6666666666667</ele><time>2026-04-11T16:18:45.01Z</time></trkpt><trkpt lat="45.7815333" lon="9.2924591"><ele>269.33333333333337</ele><time>2026-04-11T16:18:46.01Z</time></trkpt><trkpt lat="45.7813487" lon="9.292344"><ele>269.0</ele><time>2026-04-11T16:18:47.01Z</time></trkpt><trkpt lat="45.7811728" lon="9.292215"><ele>267.6666666666667</ele><time>2026-04-11T16:18:48.009Z</time></trkpt><trkpt lat="45.7809974" lon="9.2920938"><ele>266.3333333333333</ele><time>2026-04-11T16:18:49.01Z</time></trkpt><trkpt lat="45.7808201" lon="9.2919795"><ele>265.0</ele><time>2026-04-11T16:18:50.01Z</time></trkpt><trkpt lat="45.7806488" lon="9.291863"><ele>265.0</ele><time>2026-04-11T16:18:51.01Z</time></trkpt><trkpt lat="45.7804751" lon="9.2917459"><ele>265.0</ele><time>2026-04-11T16:18:52.009Z</time></trkpt><trkpt lat="45.7802904" lon="9.2916295"><ele>265.0</ele><time>2026-04-11T16:18:53.01Z</time></trkpt><trkpt lat="45.7800949" lon="9.2915084"><ele>263.66666666666663</ele><time>2026-04-11T16:18:54.01Z</time></trkpt><trkpt lat="45.779905" lon="9.2913755"><ele>262.3333333333333</ele><time>2026-04-11T16:18:55.009Z</time></trkpt><trkpt lat="45.7797065" lon="9.2912418"><ele>261.0</ele><time>2026-04-11T16:18:56.01Z</time></trkpt><trkpt lat="45.7795134" lon="9.2911087"><ele>261.6666666666667</ele><time>2026-04-11T16:18:57.01Z</time></trkpt><trkpt lat="45.7793245" lon="9.2909833"><ele>262.33333333333337</ele><time>2026-04-11T16:18:58.01Z</time></trkpt><trkpt lat="45.7791431" lon="9.2908652"><ele>263.0</ele><time>2026-04-11T16:18:59.01Z</time></trkpt><trkpt lat="45.7789671" lon="9.2907502"><ele>263.0</ele><time>2026-04-11T16:19:00.01Z</time></trkpt><trkpt lat="45.7787833" lon="9.2906306"><ele>263.0</ele><time>2026-04-11T16:19:01.01Z</time></trkpt><trkpt lat="45.7785889" lon="9.2904935"><ele>263.0</ele><time>2026-04-11T16:19:02.01Z</time></trkpt><trkpt lat="45.7783844" lon="9.2903483"><ele>263.33333333333337</ele><time>2026-04-11T16:19:03.01Z</time></trkpt><trkpt lat="45.7781904" lon="9.290208"><ele>263.6666666666667</ele><time>2026-04-11T16:19:04.01Z</time></trkpt><trkpt lat="45.7779928" lon="9.2900776"><ele>264.0</ele><time>2026-04-11T16:19:05.009Z</time></trkpt><trkpt lat="45.7778012" lon="9.2899399"><ele>264.0</ele><time>2026-04-11T16:19:06.01Z</time></trkpt><trkpt lat="45.7776049" lon="9.2898135"><ele>264.0</ele><time>2026-04-11T16:19:07.01Z</time></trkpt><trkpt lat="45.7774128" lon="9.2896845"><ele>264.0</ele><time>2026-04-11T16:19:08.01Z</time></trkpt><trkpt lat="45.7772262" lon="9.289569"><ele>264.0</ele><time>2026-04-11T16:19:09.01Z</time></trkpt><trkpt lat="45.777045" lon="9.289457"><ele>264.0</ele><time>2026-04-11T16:19:10.01Z</time></trkpt><trkpt lat="45.7768607" lon="9.2893327"><ele>264.0</ele><time>2026-04-11T16:19:11.01Z</time></trkpt><trkpt lat="45.7766729" lon="9.2892071"><ele>264.0</ele><time>2026-04-11T16:19:12.009Z</time></trkpt><trkpt lat="45.7764757" lon="9.2890689"><ele>264.0</ele><time>2026-04-11T16:19:13.01Z</time></trkpt><trkpt lat="45.7762754" lon="9.2889335"><ele>264.0</ele><time>2026-04-11T16:19:14.01Z</time></trkpt><trkpt lat="45.7760647" lon="9.288817"><ele>264.3333333333333</ele><time>2026-04-11T16:19:15.01Z</time></trkpt><trkpt lat="45.7758515" lon="9.2887134"><ele>264.66666666666663</ele><time>2026-04-11T16:19:16.01Z</time></trkpt><trkpt lat="45.7756406" lon="9.2886304"><ele>265.0</ele><time>2026-04-11T16:19:17.01Z</time></trkpt><trkpt lat="45.7754301" lon="9.2885597"><ele>265.0</ele><time>2026-04-11T16:19:18.01Z</time></trkpt><trkpt lat="45.7752264" lon="9.2885026"><ele>265.0</ele><time>2026-04-11T16:19:19.01Z</time></trkpt><trkpt lat="45.7750288" lon="9.2884494"><ele>265.0</ele><time>2026-04-11T16:19:20.009Z</time></trkpt><trkpt lat="45.7748302" lon="9.2884089"><ele>265.66666666666663</ele><time>2026-04-11T16:19:21.009Z</time></trkpt><trkpt lat="45.7746302" lon="9.2883771"><ele>266.3333333333333</ele><time>2026-04-11T16:19:22.009Z</time></trkpt><trkpt lat="45.7744301" lon="9.2883435"><ele>267.0</ele><time>2026-04-11T16:19:23.009Z</time></trkpt><trkpt lat="45.7742349" lon="9.2883203"><ele>267.0</ele><time>2026-04-11T16:19:24.009Z</time></trkpt><trkpt lat="45.7740421" lon="9.2883016"><ele>267.0</ele><time>2026-04-11T16:19:25.009Z</time></trkpt><trkpt lat="45.7738486" lon="9.2882887"><ele>267.0</ele><time>2026-04-11T16:19:26.009Z</time></trkpt><trkpt lat="45.7736526" lon="9.2882803"><ele>267.0</ele><time>2026-04-11T16:19:27.009Z</time></trkpt><trkpt lat="45.7734469" lon="9.2882722"><ele>267.0</ele><time>2026-04-11T16:19:28.009Z</time></trkpt><trkpt lat="45.7732364" lon="9.2882613"><ele>267.0</ele><time>2026-04-11T16:19:29.009Z</time></trkpt><trkpt lat="45.7730193" lon="9.2882479"><ele>267.0</ele><time>2026-04-11T16:19:30.009Z</time></trkpt><trkpt lat="45.7727961" lon="9.288225"><ele>267.0</ele><time>2026-04-11T16:19:31.009Z</time></trkpt><trkpt lat="45.772571" lon="9.2882061"><ele>267.0</ele><time>2026-04-11T16:19:32.009Z</time></trkpt><trkpt lat="45.7723428" lon="9.2881854"><ele>267.0</ele><time>2026-04-11T16:19:33.009Z</time></trkpt><trkpt lat="45.772118" lon="9.2881751"><ele>267.0</ele><time>2026-04-11T16:19:34.009Z</time></trkpt><trkpt lat="45.7718952" lon="9.2881627"><ele>267.0</ele><time>2026-04-11T16:19:35.008Z</time></trkpt><trkpt lat="45.7716834" lon="9.288154"><ele>267.6666666666667</ele><time>2026-04-11T16:19:36.009Z</time></trkpt><trkpt lat="45.7714754" lon="9.2881379"><ele>268.33333333333337</ele><time>2026-04-11T16:19:37.009Z</time></trkpt><trkpt lat="45.7712683" lon="9.2881233"><ele>269.0</ele><time>2026-04-11T16:19:38.009Z</time></trkpt><trkpt lat="45.7710615" lon="9.2881124"><ele>269.0</ele><time>2026-04-11T16:19:39.008Z</time></trkpt><trkpt lat="45.770853" lon="9.2880987"><ele>269.0</ele><time>2026-04-11T16:19:40.008Z</time></trkpt><trkpt lat="45.7706427" lon="9.2880797"><ele>269.0</ele><time>2026-04-11T16:19:41.009Z</time></trkpt><trkpt lat="45.7704351" lon="9.2880684"><ele>269.0</ele><time>2026-04-11T16:19:42.009Z</time></trkpt><trkpt lat="45.7702352" lon="9.288061"><ele>269.0</ele><time>2026-04-11T16:19:43.009Z</time></trkpt><trkpt lat="45.7700301" lon="9.2880473"><ele>269.0</ele><time>2026-04-11T16:19:44.009Z</time></trkpt><trkpt lat="45.7698184" lon="9.2880315"><ele>269.6666666666667</ele><time>2026-04-11T16:19:45.009Z</time></trkpt><trkpt lat="45.7696088" lon="9.2880143"><ele>270.3333333333333</ele><time>2026-04-11T16:19:46.008Z</time></trkpt><trkpt lat="45.7693924" lon="9.2880038"><ele>271.0</ele><time>2026-04-11T16:19:47.009Z</time></trkpt><trkpt lat="45.7691781" lon="9.2879966"><ele>272.0</ele><time>2026-04-11T16:19:48.009Z</time></trkpt><trkpt lat="45.7689634" lon="9.2879829"><ele>273.0</ele><time>2026-04-11T16:19:49.009Z</time></trkpt><trkpt lat="45.7687639" lon="9.2879789"><ele>274.0</ele><time>2026-04-11T16:19:50.009Z</time></trkpt><trkpt lat="45.7685635" lon="9.2879602"><ele>275.3333333333333</ele><time>2026-04-11T16:19:51.009Z</time></trkpt><trkpt lat="45.7683708" lon="9.2879497"><ele>276.6666666666667</ele><time>2026-04-11T16:19:52.009Z</time></trkpt><trkpt lat="45.7681747" lon="9.2879358"><ele>278.0</ele><time>2026-04-11T16:19:53.009Z</time></trkpt><trkpt lat="45.7679827" lon="9.2879173"><ele>278.0</ele><time>2026-04-11T16:19:54.009Z</time></trkpt><trkpt lat="45.7677949" lon="9.2879007"><ele>278.0</ele><time>2026-04-11T16:19:55.009Z</time></trkpt><trkpt lat="45.7676073" lon="9.2878832"><ele>278.0</ele><time>2026-04-11T16:19:56.009Z</time></trkpt><trkpt lat="45.7674223" lon="9.2878749"><ele>279.0</ele><time>2026-04-11T16:19:57.009Z</time></trkpt><trkpt lat="45.767236" lon="9.2878654"><ele>280.0</ele><time>2026-04-11T16:19:58.008Z</time></trkpt><trkpt lat="45.767048" lon="9.2878469"><ele>281.0</ele><time>2026-04-11T16:19:59.009Z</time></trkpt><trkpt lat="45.76686" lon="9.2878343"><ele>284.0</ele><time>2026-04-11T16:20:00.009Z</time></trkpt><trkpt lat="45.7666688" lon="9.2878255"><ele>287.0</ele><time>2026-04-11T16:20:01.009Z</time></trkpt><trkpt lat="45.7664768" lon="9.2878178"><ele>290.0</ele><time>2026-04-11T16:20:02.009Z</time></trkpt><trkpt lat="45.766287" lon="9.2878077"><ele>290.0</ele><time>2026-04-11T16:20:03.009Z</time></trkpt><trkpt lat="45.7660979" lon="9.2878007"><ele>290.0</ele><time>2026-04-11T16:20:04.009Z</time></trkpt><trkpt lat="45.7659164" lon="9.2877922"><ele>290.0</ele><time>2026-04-11T16:20:05.008Z</time></trkpt><trkpt lat="45.7657419" lon="9.2877763"><ele>290.6666666666667</ele><time>2026-04-11T16:20:06.009Z</time></trkpt><trkpt lat="45.7655636" lon="9.2877624"><ele>291.3333333333333</ele><time>2026-04-11T16:20:07.009Z</time></trkpt><trkpt lat="45.7653889" lon="9.2877398"><ele>292.0</ele><time>2026-04-11T16:20:08.009Z</time></trkpt><trkpt lat="45.7652148" lon="9.2877116"><ele>292.0</ele><time>2026-04-11T16:20:09.009Z</time></trkpt><trkpt lat="45.7650357" lon="9.2876727"><ele>292.0</ele><time>2026-04-11T16:20:10.009Z</time></trkpt><trkpt lat="45.7648535" lon="9.2876199"><ele>292.0</ele><time>2026-04-11T16:20:11.009Z</time></trkpt><trkpt lat="45.7646714" lon="9.2875576"><ele>292.0</ele><time>2026-04-11T16:20:12.008Z</time></trkpt><trkpt lat="45.7644831" lon="9.2874852"><ele>292.0</ele><time>2026-04-11T16:20:13.009Z</time></trkpt><trkpt lat="45.7642896" lon="9.2874056"><ele>292.0</ele><time>2026-04-11T16:20:14.008Z</time></trkpt><trkpt lat="45.7640958" lon="9.2873108"><ele>293.3333333333333</ele><time>2026-04-11T16:20:15.009Z</time></trkpt><trkpt lat="45.7639053" lon="9.2872059"><ele>294.6666666666667</ele><time>2026-04-11T16:20:16.009Z</time></trkpt><trkpt lat="45.7637263" lon="9.2870808"><ele>296.0</ele><time>2026-04-11T16:20:17.009Z</time></trkpt><trkpt lat="45.7635465" lon="9.2869395"><ele>295.6666666666667</ele><time>2026-04-11T16:20:18.009Z</time></trkpt><trkpt lat="45.7633713" lon="9.2867841"><ele>295.3333333333333</ele><time>2026-04-11T16:20:19.009Z</time></trkpt><trkpt lat="45.7632004" lon="9.2866102"><ele>295.0</ele><time>2026-04-11T16:20:20.009Z</time></trkpt><trkpt lat="45.7630313" lon="9.2864272"><ele>294.0</ele><time>2026-04-11T16:20:21.009Z</time></trkpt><trkpt lat="45.762864" lon="9.2862355"><ele>293.0</ele><time>2026-04-11T16:20:22.009Z</time></trkpt><trkpt lat="45.7627123" lon="9.2860392"><ele>292.0</ele><time>2026-04-11T16:20:23.009Z</time></trkpt><trkpt lat="45.7625685" lon="9.2858384"><ele>292.66666666666663</ele><time>2026-04-11T16:20:24.009Z</time></trkpt><trkpt lat="45.7624299" lon="9.2856328"><ele>293.3333333333333</ele><time>2026-04-11T16:20:25.009Z</time></trkpt><trkpt lat="45.7622923" lon="9.2854078"><ele>294.0</ele><time>2026-04-11T16:20:26.009Z</time></trkpt><trkpt lat="45.7621501" lon="9.2851557"><ele>294.0</ele><time>2026-04-11T16:20:27.009Z</time></trkpt><trkpt lat="45.762018" lon="9.2848922"><ele>294.0</ele><time>2026-04-11T16:20:28.009Z</time></trkpt><trkpt lat="45.7618844" lon="9.2846083"><ele>299.5</ele><time>2026-04-11T16:20:29.009Z</time></trkpt><trkpt lat="45.7617601" lon="9.2843173"><ele>305.0</ele><time>2026-04-11T16:20:30.008Z</time></trkpt><trkpt lat="45.7616348" lon="9.2840333"><ele>301.5</ele><time>2026-04-11T16:20:31.009Z</time></trkpt><trkpt lat="45.7615187" lon="9.2837449"><ele>298.0</ele><time>2026-04-11T16:20:32.009Z</time></trkpt><trkpt lat="45.7614011" lon="9.2834693"><ele>298.0</ele><time>2026-04-11T16:20:33.009Z</time></trkpt><trkpt lat="45.7612817" lon="9.2831916"><ele>298.0</ele><time>2026-04-11T16:20:34.009Z</time></trkpt><trkpt lat="45.7611663" lon="9.282905"><ele>299.5</ele><time>2026-04-11T16:20:35.009Z</time></trkpt><trkpt lat="45.7610504" lon="9.2826225"><ele>301.0</ele><time>2026-04-11T16:20:36.009Z</time></trkpt><trkpt lat="45.7609299" lon="9.2823464"><ele>301.5</ele><time>2026-04-11T16:20:37.009Z</time></trkpt><trkpt lat="45.7608147" lon="9.2820678"><ele>302.0</ele><time>2026-04-11T16:20:38.009Z</time></trkpt><trkpt lat="45.760698" lon="9.2817938"><ele>302.0</ele><time>2026-04-11T16:20:39.009Z</time></trkpt><trkpt lat="45.7605851" lon="9.2815198"><ele>302.0</ele><time>2026-04-11T16:20:40.009Z</time></trkpt><trkpt lat="45.7604789" lon="9.2812546"><ele>302.0</ele><time>2026-04-11T16:20:41.009Z</time></trkpt><trkpt lat="45.7603687" lon="9.2809925"><ele>300.0</ele><time>2026-04-11T16:20:42.009Z</time></trkpt><trkpt lat="45.7602614" lon="9.280739"><ele>298.0</ele><time>2026-04-11T16:20:43.009Z</time></trkpt><trkpt lat="45.7601522" lon="9.2804766"><ele>296.0</ele><time>2026-04-11T16:20:44.009Z</time></trkpt><trkpt lat="45.7600386" lon="9.2802203"><ele>295.5</ele><time>2026-04-11T16:20:45.008Z</time></trkpt><trkpt lat="45.7599298" lon="9.2799553"><ele>295.0</ele><time>2026-04-11T16:20:46.008Z</time></trkpt><trkpt lat="45.759818" lon="9.279658"><ele>294.0</ele><time>2026-04-11T16:20:47.009Z</time></trkpt><trkpt lat="45.7597036" lon="9.2793572"><ele>293.0</ele><time>2026-04-11T16:20:48.009Z</time></trkpt><trkpt lat="45.7595787" lon="9.2790505"><ele>292.5</ele><time>2026-04-11T16:20:49.008Z</time></trkpt><trkpt lat="45.7594486" lon="9.2787408"><ele>292.0</ele><time>2026-04-11T16:20:50.008Z</time></trkpt><trkpt lat="45.7593168" lon="9.2784109"><ele>291.0</ele><time>2026-04-11T16:20:51.008Z</time></trkpt><trkpt lat="45.7591776" lon="9.2780652"><ele>290.0</ele><time>2026-04-11T16:20:52.009Z</time></trkpt><trkpt lat="45.759029" lon="9.2777047"><ele>290.0</ele><time>2026-04-11T16:20:53.009Z</time></trkpt><trkpt lat="45.7588682" lon="9.2773412"><ele>290.0</ele><time>2026-04-11T16:20:54.009Z</time></trkpt><trkpt lat="45.7586951" lon="9.2769955"><ele>290.5</ele><time>2026-04-11T16:20:55.009Z</time></trkpt><trkpt lat="45.758508" lon="9.2766637"><ele>291.0</ele><time>2026-04-11T16:20:56.009Z</time></trkpt><trkpt lat="45.7583195" lon="9.276339"><ele>288.5</ele><time>2026-04-11T16:20:57.009Z</time></trkpt><trkpt lat="45.7581231" lon="9.2760344"><ele>286.0</ele><time>2026-04-11T16:20:58.009Z</time></trkpt><trkpt lat="45.7579189" lon="9.2757346"><ele>284.5</ele><time>2026-04-11T16:20:59.009Z</time></trkpt><trkpt lat="45.7577147" lon="9.2754373"><ele>283.0</ele><time>2026-04-11T16:21:00.009Z</time></trkpt><trkpt lat="45.7575229" lon="9.2751266"><ele>282.5</ele><time>2026-04-11T16:21:01.009Z</time></trkpt><trkpt lat="45.7573444" lon="9.274805"><ele>282.0</ele><time>2026-04-11T16:21:02.009Z</time></trkpt><trkpt lat="45.7571654" lon="9.2744902"><ele>281.0</ele><time>2026-04-11T16:21:03.008Z</time></trkpt><trkpt lat="45.7569772" lon="9.2741818"><ele>280.0</ele><time>2026-04-11T16:21:04.009Z</time></trkpt><trkpt lat="45.7567929" lon="9.2738921"><ele>279.5</ele><time>2026-04-11T16:21:05.009Z</time></trkpt><trkpt lat="45.7566041" lon="9.2736226"><ele>279.0</ele><time>2026-04-11T16:21:06.009Z</time></trkpt><trkpt lat="45.7564217" lon="9.2733286"><ele>279.5</ele><time>2026-04-11T16:21:07.009Z</time></trkpt><trkpt lat="45.7562415" lon="9.2730292"><ele>280.0</ele><time>2026-04-11T16:21:08.009Z</time></trkpt><trkpt lat="45.7560511" lon="9.2727307"><ele>279.0</ele><time>2026-04-11T16:21:09.009Z</time></trkpt><trkpt lat="45.7558517" lon="9.2724292"><ele>278.0</ele><time>2026-04-11T16:21:10.009Z</time></trkpt><trkpt lat="45.7556493" lon="9.2721503"><ele>278.0</ele><time>2026-04-11T16:21:11.009Z</time></trkpt><trkpt lat="45.7554573" lon="9.2718857"><ele>278.0</ele><time>2026-04-11T16:21:12.009Z</time></trkpt><trkpt lat="45.7552663" lon="9.2716339"><ele>276.5</ele><time>2026-04-11T16:21:13.009Z</time></trkpt><trkpt lat="45.7550735" lon="9.2713842"><ele>275.0</ele><time>2026-04-11T16:21:14.009Z</time></trkpt><trkpt lat="45.7548783" lon="9.2711238"><ele>275.0</ele><time>2026-04-11T16:21:15.008Z</time></trkpt><trkpt lat="45.7546811" lon="9.2708589"><ele>275.0</ele><time>2026-04-11T16:21:16.009Z</time></trkpt><trkpt lat="45.7544901" lon="9.2705826"><ele>275.5</ele><time>2026-04-11T16:21:17.009Z</time></trkpt><trkpt lat="45.7543102" lon="9.270308"><ele>276.0</ele><time>2026-04-11T16:21:18.009Z</time></trkpt><trkpt lat="45.754133" lon="9.27004"><ele>277.5</ele><time>2026-04-11T16:21:19.008Z</time></trkpt><trkpt lat="45.7539608" lon="9.2697736"><ele>279.0</ele><time>2026-04-11T16:21:20.009Z</time></trkpt><trkpt lat="45.753789" lon="9.2695289"><ele>279.0</ele><time>2026-04-11T16:21:21.009Z</time></trkpt><trkpt lat="45.7536231" lon="9.2692833"><ele>279.0</ele><time>2026-04-11T16:21:22.009Z</time></trkpt><trkpt lat="45.7534484" lon="9.2690278"><ele>277.5</ele><time>2026-04-11T16:21:23.009Z</time></trkpt><trkpt lat="45.7532686" lon="9.2687556"><ele>276.0</ele><time>2026-04-11T16:21:24.009Z</time></trkpt><trkpt lat="45.753086" lon="9.2684637"><ele>276.0</ele><time>2026-04-11T16:21:25.009Z</time></trkpt><trkpt lat="45.7528922" lon="9.2681482"><ele>276.0</ele><time>2026-04-11T16:21:26.009Z</time></trkpt><trkpt lat="45.752686" lon="9.2678188"><ele>275.5</ele><time>2026-04-11T16:21:27.009Z</time></trkpt><trkpt lat="45.7524625" lon="9.2674928"><ele>275.0</ele><time>2026-04-11T16:21:28.008Z</time></trkpt><trkpt lat="45.7522224" lon="9.2671539"><ele>275.0</ele><time>2026-04-11T16:21:29.009Z</time></trkpt><trkpt lat="45.7519737" lon="9.2668121"><ele>275.0</ele><time>2026-04-11T16:21:30.009Z</time></trkpt><trkpt lat="45.7517247" lon="9.266481"><ele>280.0</ele><time>2026-04-11T16:21:31.009Z</time></trkpt><trkpt lat="45.7514807" lon="9.2661824"><ele>285.0</ele><time>2026-04-11T16:21:32.009Z</time></trkpt><trkpt lat="45.7512434" lon="9.2658991"><ele>283.0</ele><time>2026-04-11T16:21:33.008Z</time></trkpt><trkpt lat="45.7510054" lon="9.2656247"><ele>281.0</ele><time>2026-04-11T16:21:34.009Z</time></trkpt><trkpt lat="45.7507718" lon="9.2653581"><ele>281.0</ele><time>2026-04-11T16:21:35.009Z</time></trkpt><trkpt lat="45.7505488" lon="9.265108"><ele>281.0</ele><time>2026-04-11T16:21:36.009Z</time></trkpt><trkpt lat="45.7503325" lon="9.2648689"><ele>272.5</ele><time>2026-04-11T16:21:37.009Z</time></trkpt><trkpt lat="45.7501227" lon="9.264644"><ele>264.0</ele><time>2026-04-11T16:21:38.009Z</time></trkpt><trkpt lat="45.7499143" lon="9.2644129"><ele>264.0</ele><time>2026-04-11T16:21:39.009Z</time></trkpt><trkpt lat="45.7497144" lon="9.2641784"><ele>264.0</ele><time>2026-04-11T16:21:40.008Z</time></trkpt><trkpt lat="45.7495053" lon="9.2639546"><ele>262.5</ele><time>2026-04-11T16:21:41.009Z</time></trkpt><trkpt lat="45.7493046" lon="9.2637298"><ele>261.0</ele><time>2026-04-11T16:21:42.009Z</time></trkpt><trkpt lat="45.7491004" lon="9.2635095"><ele>261.0</ele><time>2026-04-11T16:21:43.009Z</time></trkpt><trkpt lat="45.7488949" lon="9.263282"><ele>261.0</ele><time>2026-04-11T16:21:44.009Z</time></trkpt><trkpt lat="45.7486889" lon="9.2630574"><ele>261.0</ele><time>2026-04-11T16:21:45.008Z</time></trkpt><trkpt lat="45.7484806" lon="9.2628254"><ele>261.0</ele><time>2026-04-11T16:21:46.009Z</time></trkpt><trkpt lat="45.7482678" lon="9.2625945"><ele>261.0</ele><time>2026-04-11T16:21:47.009Z</time></trkpt><trkpt lat="45.7480556" lon="9.2623592"><ele>261.0</ele><time>2026-04-11T16:21:48.009Z</time></trkpt><trkpt lat="45.7478395" lon="9.2621266"><ele>261.5</ele><time>2026-04-11T16:21:49.009Z</time></trkpt><trkpt lat="45.7476331" lon="9.2618948"><ele>262.0</ele><time>2026-04-11T16:21:50.009Z</time></trkpt><trkpt lat="45.7474351" lon="9.2616727"><ele>262.0</ele><time>2026-04-11T16:21:51.009Z</time></trkpt><trkpt lat="45.7472472" lon="9.2614646"><ele>262.0</ele><time>2026-04-11T16:21:52.008Z</time></trkpt><trkpt lat="45.7470641" lon="9.2612611"><ele>260.0</ele><time>2026-04-11T16:21:53.009Z</time></trkpt><trkpt lat="45.746869" lon="9.2610543"><ele>258.0</ele><time>2026-04-11T16:21:54.009Z</time></trkpt><trkpt lat="45.7466715" lon="9.2608338"><ele>257.0</ele><time>2026-04-11T16:21:55.009Z</time></trkpt><trkpt lat="45.74647" lon="9.2605986"><ele>256.0</ele><time>2026-04-11T16:21:56.009Z</time></trkpt><trkpt lat="45.7462754" lon="9.260369"><ele>256.0</ele><time>2026-04-11T16:21:57.009Z</time></trkpt><trkpt lat="45.7460758" lon="9.2601503"><ele>256.0</ele><time>2026-04-11T16:21:58.009Z</time></trkpt><trkpt lat="45.7458795" lon="9.2599211"><ele>256.0</ele><time>2026-04-11T16:21:59.009Z</time></trkpt><trkpt lat="45.7456717" lon="9.2596902"><ele>256.0</ele><time>2026-04-11T16:22:00.009Z</time></trkpt><trkpt lat="45.7454523" lon="9.2594501"><ele>256.0</ele><time>2026-04-11T16:22:01.009Z</time></trkpt><trkpt lat="45.7452251" lon="9.2592106"><ele>256.0</ele><time>2026-04-11T16:22:02.009Z</time></trkpt><trkpt lat="45.7449974" lon="9.2589612"><ele>257.0</ele><time>2026-04-11T16:22:03.009Z</time></trkpt><trkpt lat="45.7447763" lon="9.2587181"><ele>258.0</ele><time>2026-04-11T16:22:04.009Z</time></trkpt><trkpt lat="45.7445658" lon="9.2584763"><ele>257.5</ele><time>2026-04-11T16:22:05.009Z</time></trkpt><trkpt lat="45.7443537" lon="9.2582421"><ele>257.0</ele><time>2026-04-11T16:22:06.009Z</time></trkpt><trkpt lat="45.7441355" lon="9.2580136"><ele>257.0</ele><time>2026-04-11T16:22:07.009Z</time></trkpt><trkpt lat="45.7439297" lon="9.2577817"><ele>257.0</ele><time>2026-04-11T16:22:08.008Z</time></trkpt><trkpt lat="45.7437194" lon="9.257547"><ele>256.5</ele><time>2026-04-11T16:22:09.009Z</time></trkpt><trkpt lat="45.7435002" lon="9.2573034"><ele>256.0</ele><time>2026-04-11T16:22:10.009Z</time></trkpt><trkpt lat="45.7432827" lon="9.2570563"><ele>256.0</ele><time>2026-04-11T16:22:11.009Z</time></trkpt><trkpt lat="45.743065" lon="9.2567992"><ele>256.0</ele><time>2026-04-11T16:22:12.009Z</time></trkpt><trkpt lat="45.7428603" lon="9.2565509"><ele>255.33333333333331</ele><time>2026-04-11T16:22:13.008Z</time></trkpt><trkpt lat="45.7426779" lon="9.256331"><ele>254.66666666666669</ele><time>2026-04-11T16:22:14.009Z</time></trkpt><trkpt lat="45.7425162" lon="9.2561501"><ele>254.0</ele><time>2026-04-11T16:22:15.009Z</time></trkpt><trkpt lat="45.7423785" lon="9.2559945"><ele>254.0</ele><time>2026-04-11T16:22:16.009Z</time></trkpt><trkpt lat="45.7422493" lon="9.2558493"><ele>254.0</ele><time>2026-04-11T16:22:17.009Z</time></trkpt><trkpt lat="45.7421327" lon="9.2557231"><ele>254.0</ele><time>2026-04-11T16:22:18.009Z</time></trkpt><trkpt lat="45.7420323" lon="9.2556065"><ele>254.0</ele><time>2026-04-11T16:22:19.009Z</time></trkpt><trkpt lat="45.741939" lon="9.2555054"><ele>254.2</ele><time>2026-04-11T16:22:20.009Z</time></trkpt><trkpt lat="45.7418478" lon="9.2554052"><ele>254.39999999999998</ele><time>2026-04-11T16:22:21.009Z</time></trkpt><trkpt lat="45.7417596" lon="9.2553023"><ele>254.6</ele><time>2026-04-11T16:22:22.009Z</time></trkpt><trkpt lat="45.741678" lon="9.2552092"><ele>254.8</ele><time>2026-04-11T16:22:23.009Z</time></trkpt><trkpt lat="45.7416053" lon="9.2551247"><ele>255.0</ele><time>2026-04-11T16:22:24.009Z</time></trkpt><trkpt lat="45.7415341" lon="9.2550418"><ele>255.0</ele><time>2026-04-11T16:22:25.009Z</time></trkpt><trkpt lat="45.7414595" lon="9.2549615"><ele>255.0</ele><time>2026-04-11T16:22:26.009Z</time></trkpt><trkpt lat="45.741387" lon="9.2548803"><ele>255.0</ele><time>2026-04-11T16:22:27.009Z</time></trkpt><trkpt lat="45.741295" lon="9.2547807"><ele>255.0</ele><time>2026-04-11T16:22:28.009Z</time></trkpt><trkpt lat="45.7411992" lon="9.2546529"><ele>255.0</ele><time>2026-04-11T16:22:29.009Z</time></trkpt><trkpt lat="45.7410927" lon="9.2545256"><ele>255.66666666666669</ele><time>2026-04-11T16:22:30.009Z</time></trkpt><trkpt lat="45.7409779" lon="9.2543907"><ele>256.33333333333337</ele><time>2026-04-11T16:22:31.009Z</time></trkpt><trkpt lat="45.7408424" lon="9.2542439"><ele>257.0</ele><time>2026-04-11T16:22:32.008Z</time></trkpt><trkpt lat="45.7407142" lon="9.2541118"><ele>257.0</ele><time>2026-04-11T16:22:33.009Z</time></trkpt><trkpt lat="45.7406049" lon="9.2539985"><ele>257.0</ele><time>2026-04-11T16:22:34.009Z</time></trkpt><trkpt lat="45.7405066" lon="9.2539032"><ele>257.0</ele><time>2026-04-11T16:22:35.009Z</time></trkpt><trkpt lat="45.7404238" lon="9.2538212"><ele>257.0</ele><time>2026-04-11T16:22:36.008Z</time></trkpt><trkpt lat="45.7403418" lon="9.2537329"><ele>257.0</ele><time>2026-04-11T16:22:37.009Z</time></trkpt><trkpt lat="45.7402728" lon="9.2536539"><ele>257.0</ele><time>2026-04-11T16:22:38.009Z</time></trkpt><trkpt lat="45.7401982" lon="9.2535644"><ele>257.0</ele><time>2026-04-11T16:22:39.009Z</time></trkpt><trkpt lat="45.7401211" lon="9.2534781"><ele>257.0</ele><time>2026-04-11T16:22:40.009Z</time></trkpt><trkpt lat="45.7400283" lon="9.253382"><ele>257.0</ele><time>2026-04-11T16:22:41.009Z</time></trkpt><trkpt lat="45.7399347" lon="9.2532807"><ele>257.0</ele><time>2026-04-11T16:22:42.009Z</time></trkpt><trkpt lat="45.739835" lon="9.2531758"><ele>257.0</ele><time>2026-04-11T16:22:43.009Z</time></trkpt><trkpt lat="45.7397316" lon="9.2530672"><ele>257.0</ele><time>2026-04-11T16:22:44.009Z</time></trkpt><trkpt lat="45.7396241" lon="9.2529486"><ele>257.0</ele><time>2026-04-11T16:22:45.009Z</time></trkpt><trkpt lat="45.7395165" lon="9.2528299"><ele>256.75</ele><time>2026-04-11T16:22:46.009Z</time></trkpt><trkpt lat="45.7394075" lon="9.2527045"><ele>256.5</ele><time>2026-04-11T16:22:47.008Z</time></trkpt><trkpt lat="45.7392956" lon="9.2525771"><ele>256.25</ele><time>2026-04-11T16:22:48.009Z</time></trkpt><trkpt lat="45.7391832" lon="9.252445"><ele>256.0</ele><time>2026-04-11T16:22:49.009Z</time></trkpt><trkpt lat="45.7390674" lon="9.2523161"><ele>254.75</ele><time>2026-04-11T16:22:50.009Z</time></trkpt><trkpt lat="45.7389584" lon="9.2521901"><ele>253.5</ele><time>2026-04-11T16:22:51.009Z</time></trkpt><trkpt lat="45.7388482" lon="9.2520722"><ele>252.25</ele><time>2026-04-11T16:22:52.009Z</time></trkpt><trkpt lat="45.7387386" lon="9.2519491"><ele>251.0</ele><time>2026-04-11T16:22:53.009Z</time></trkpt><trkpt lat="45.738625" lon="9.2518323"><ele>250.5</ele><time>2026-04-11T16:22:54.009Z</time></trkpt><trkpt lat="45.738517" lon="9.2517144"><ele>250.0</ele><time>2026-04-11T16:22:55.009Z</time></trkpt><trkpt lat="45.7384059" lon="9.251583"><ele>249.5</ele><time>2026-04-11T16:22:56.009Z</time></trkpt><trkpt lat="45.738289" lon="9.2514464"><ele>249.0</ele><time>2026-04-11T16:22:57.009Z</time></trkpt><trkpt lat="45.7381725" lon="9.2513096"><ele>248.5</ele><time>2026-04-11T16:22:58.009Z</time></trkpt><trkpt lat="45.7380636" lon="9.2511843"><ele>248.0</ele><time>2026-04-11T16:22:59.009Z</time></trkpt><trkpt lat="45.737957" lon="9.2510711"><ele>247.5</ele><time>2026-04-11T16:23:00.008Z</time></trkpt><trkpt lat="45.7378604" lon="9.250963"><ele>247.0</ele><time>2026-04-11T16:23:01.009Z</time></trkpt><trkpt lat="45.7377698" lon="9.2508624"><ele>246.6</ele><time>2026-04-11T16:23:02.009Z</time></trkpt><trkpt lat="45.7376846" lon="9.2507718"><ele>246.2</ele><time>2026-04-11T16:23:03.009Z</time></trkpt><trkpt lat="45.7376047" lon="9.2506871"><ele>245.8</ele><time>2026-04-11T16:23:04.009Z</time></trkpt><trkpt lat="45.7375204" lon="9.2505982"><ele>245.4</ele><time>2026-04-11T16:23:05.009Z</time></trkpt><trkpt lat="45.7374349" lon="9.2504996"><ele>245.0</ele><time>2026-04-11T16:23:06.009Z</time></trkpt><trkpt lat="45.7373429" lon="9.2503983"><ele>244.6</ele><time>2026-04-11T16:23:07.009Z</time></trkpt><trkpt lat="45.7372584" lon="9.2503042"><ele>244.2</ele><time>2026-04-11T16:23:08.009Z</time></trkpt><trkpt lat="45.7371743" lon="9.2502161"><ele>243.8</ele><time>2026-04-11T16:23:09.008Z</time></trkpt><trkpt lat="45.7370852" lon="9.2501412"><ele>243.4</ele><time>2026-04-11T16:23:10.008Z</time></trkpt><trkpt lat="45.7370055" lon="9.2500704"><ele>243.0</ele><time>2026-04-11T16:23:11.009Z</time></trkpt><trkpt lat="45.7369265" lon="9.2500109"><ele>243.0</ele><time>2026-04-11T16:23:12.008Z</time></trkpt><trkpt lat="45.7368539" lon="9.2499635"><ele>243.0</ele><time>2026-04-11T16:23:13.009Z</time></trkpt><trkpt lat="45.7367898" lon="9.2499187"><ele>243.0</ele><time>2026-04-11T16:23:14.009Z</time></trkpt><trkpt lat="45.7367258" lon="9.2498793"><ele>243.0</ele><time>2026-04-11T16:23:15.009Z</time></trkpt><trkpt lat="45.7366107" lon="9.2498093"><ele>243.0</ele><time>2026-04-11T16:23:17.008Z</time></trkpt><trkpt lat="45.7365012" lon="9.2497465"><ele>242.83333333333334</ele><time>2026-04-11T16:23:19.009Z</time></trkpt><trkpt lat="45.7364365" lon="9.2497274"><ele>242.66666666666669</ele><time>2026-04-11T16:23:20.009Z</time></trkpt><trkpt lat="45.7363599" lon="9.2497011"><ele>242.5</ele><time>2026-04-11T16:23:21.009Z</time></trkpt><trkpt lat="45.7362789" lon="9.2496663"><ele>242.33333333333334</ele><time>2026-04-11T16:23:22.008Z</time></trkpt><trkpt lat="45.7361932" lon="9.2496328"><ele>242.16666666666669</ele><time>2026-04-11T16:23:23.009Z</time></trkpt><trkpt lat="45.7361065" lon="9.249604"><ele>242.0</ele><time>2026-04-11T16:23:24.009Z</time></trkpt><trkpt lat="45.7360203" lon="9.2495814"><ele>241.8</ele><time>2026-04-11T16:23:25.009Z</time></trkpt><trkpt lat="45.7359386" lon="9.2495588"><ele>241.6</ele><time>2026-04-11T16:23:26.009Z</time></trkpt><trkpt lat="45.7358509" lon="9.2495272"><ele>241.40000000000003</ele><time>2026-04-11T16:23:27.009Z</time></trkpt><trkpt lat="45.7357595" lon="9.2495018"><ele>241.20000000000002</ele><time>2026-04-11T16:23:28.009Z</time></trkpt><trkpt lat="45.735654" lon="9.2494774"><ele>241.0</ele><time>2026-04-11T16:23:29.009Z</time></trkpt><trkpt lat="45.7355378" lon="9.2494606"><ele>241.0</ele><time>2026-04-11T16:23:30.009Z</time></trkpt><trkpt lat="45.7354254" lon="9.249447"><ele>241.0</ele><time>2026-04-11T16:23:31.009Z</time></trkpt><trkpt lat="45.7353125" lon="9.2494317"><ele>241.0</ele><time>2026-04-11T16:23:32.009Z</time></trkpt><trkpt lat="45.7351997" lon="9.2494134"><ele>241.0</ele><time>2026-04-11T16:23:33.009Z</time></trkpt><trkpt lat="45.7350642" lon="9.2493851"><ele>241.33333333333331</ele><time>2026-04-11T16:23:34.008Z</time></trkpt><trkpt lat="45.7349081" lon="9.2493535"><ele>241.66666666666669</ele><time>2026-04-11T16:23:35.009Z</time></trkpt><trkpt lat="45.7347299" lon="9.2493276"><ele>242.0</ele><time>2026-04-11T16:23:36.009Z</time></trkpt><trkpt lat="45.7345447" lon="9.2493041"><ele>242.33333333333334</ele><time>2026-04-11T16:23:37.009Z</time></trkpt><trkpt lat="45.7343694" lon="9.2492808"><ele>242.66666666666669</ele><time>2026-04-11T16:23:38.009Z</time></trkpt><trkpt lat="45.7342028" lon="9.2492673"><ele>243.0</ele><time>2026-04-11T16:23:39.009Z</time></trkpt><trkpt lat="45.7340442" lon="9.2492494"><ele>243.0</ele><time>2026-04-11T16:23:40.009Z</time></trkpt><trkpt lat="45.7338943" lon="9.2492342"><ele>243.0</ele><time>2026-04-11T16:23:41.008Z</time></trkpt><trkpt lat="45.7337505" lon="9.2492086"><ele>243.0</ele><time>2026-04-11T16:23:42.009Z</time></trkpt><trkpt lat="45.7336153" lon="9.2491905"><ele>243.0</ele><time>2026-04-11T16:23:43.009Z</time></trkpt><trkpt lat="45.7334804" lon="9.2491691"><ele>243.0</ele><time>2026-04-11T16:23:44.009Z</time></trkpt><trkpt lat="45.7333476" lon="9.2491544"><ele>243.0</ele><time>2026-04-11T16:23:45.009Z</time></trkpt><trkpt lat="45.7332292" lon="9.2491363"><ele>243.0</ele><time>2026-04-11T16:23:46.008Z</time></trkpt><trkpt lat="45.7331146" lon="9.2491232"><ele>243.0</ele><time>2026-04-11T16:23:47.009Z</time></trkpt><trkpt lat="45.7329981" lon="9.2491015"><ele>243.0</ele><time>2026-04-11T16:23:48.009Z</time></trkpt><trkpt lat="45.7328733" lon="9.24908"><ele>243.0</ele><time>2026-04-11T16:23:49.009Z</time></trkpt><trkpt lat="45.7327396" lon="9.2490645"><ele>243.0</ele><time>2026-04-11T16:23:50.009Z</time></trkpt><trkpt lat="45.7325904" lon="9.2490484"><ele>243.0</ele><time>2026-04-11T16:23:51.009Z</time></trkpt><trkpt lat="45.7324347" lon="9.2490266"><ele>243.0</ele><time>2026-04-11T16:23:52.009Z</time></trkpt><trkpt lat="45.7322805" lon="9.2489982"><ele>243.0</ele><time>2026-04-11T16:23:53.009Z</time></trkpt><trkpt lat="45.7321319" lon="9.2489764"><ele>243.0</ele><time>2026-04-11T16:23:54.009Z</time></trkpt><trkpt lat="45.7319832" lon="9.2489527"><ele>243.0</ele><time>2026-04-11T16:23:55.009Z</time></trkpt><trkpt lat="45.7318302" lon="9.2489344"><ele>243.0</ele><time>2026-04-11T16:23:56.009Z</time></trkpt><trkpt lat="45.7316663" lon="9.2489065"><ele>243.0</ele><time>2026-04-11T16:23:57.009Z</time></trkpt><trkpt lat="45.7314948" lon="9.2488842"><ele>243.0</ele><time>2026-04-11T16:23:58.009Z</time></trkpt><trkpt lat="45.7313216" lon="9.2488606"><ele>243.0</ele><time>2026-04-11T16:23:59.008Z</time></trkpt><trkpt lat="45.7311333" lon="9.2488341"><ele>243.0</ele><time>2026-04-11T16:24:00.009Z</time></trkpt><trkpt lat="45.7309199" lon="9.248813"><ele>245.0</ele><time>2026-04-11T16:24:01.009Z</time></trkpt><trkpt lat="45.7306992" lon="9.248783"><ele>247.0</ele><time>2026-04-11T16:24:02.008Z</time></trkpt><trkpt lat="45.7304708" lon="9.2487438"><ele>247.0</ele><time>2026-04-11T16:24:03.009Z</time></trkpt><trkpt lat="45.7302459" lon="9.2486939"><ele>247.0</ele><time>2026-04-11T16:24:04.009Z</time></trkpt><trkpt lat="45.7300409" lon="9.2486495"><ele>247.0</ele><time>2026-04-11T16:24:05.009Z</time></trkpt><trkpt lat="45.7298416" lon="9.2485946"><ele>249.0</ele><time>2026-04-11T16:24:06.008Z</time></trkpt><trkpt lat="45.7296429" lon="9.2485273"><ele>251.0</ele><time>2026-04-11T16:24:07.008Z</time></trkpt><trkpt lat="45.7294445" lon="9.2484517"><ele>253.0</ele><time>2026-04-11T16:24:08.009Z</time></trkpt><trkpt lat="45.7292509" lon="9.248359"><ele>253.0</ele><time>2026-04-11T16:24:09.009Z</time></trkpt><trkpt lat="45.7290595" lon="9.2482408"><ele>253.0</ele><time>2026-04-11T16:24:10.009Z</time></trkpt><trkpt lat="45.7288748" lon="9.248108"><ele>253.0</ele><time>2026-04-11T16:24:11.009Z</time></trkpt><trkpt lat="45.7286981" lon="9.2479636"><ele>254.0</ele><time>2026-04-11T16:24:12.009Z</time></trkpt><trkpt lat="45.7285253" lon="9.2478069"><ele>255.0</ele><time>2026-04-11T16:24:13.009Z</time></trkpt><trkpt lat="45.7283591" lon="9.2476409"><ele>256.0</ele><time>2026-04-11T16:24:14.008Z</time></trkpt><trkpt lat="45.7281972" lon="9.2474765"><ele>256.0</ele><time>2026-04-11T16:24:15.008Z</time></trkpt><trkpt lat="45.7280367" lon="9.2473139"><ele>256.0</ele><time>2026-04-11T16:24:16.009Z</time></trkpt><trkpt lat="45.7278851" lon="9.2471557"><ele>256.0</ele><time>2026-04-11T16:24:17.009Z</time></trkpt><trkpt lat="45.7277331" lon="9.2470117"><ele>257.66666666666663</ele><time>2026-04-11T16:24:18.009Z</time></trkpt><trkpt lat="45.7275915" lon="9.2468724"><ele>259.3333333333333</ele><time>2026-04-11T16:24:19.008Z</time></trkpt><trkpt lat="45.7274514" lon="9.2467319"><ele>261.0</ele><time>2026-04-11T16:24:20.009Z</time></trkpt><trkpt lat="45.727307" lon="9.2465965"><ele>262.0</ele><time>2026-04-11T16:24:21.009Z</time></trkpt><trkpt lat="45.7271637" lon="9.2464564"><ele>263.0</ele><time>2026-04-11T16:24:22.008Z</time></trkpt><trkpt lat="45.7270174" lon="9.2463112"><ele>264.0</ele><time>2026-04-11T16:24:23.009Z</time></trkpt><trkpt lat="45.7268686" lon="9.2461657"><ele>264.0</ele><time>2026-04-11T16:24:24.009Z</time></trkpt><trkpt lat="45.7267099" lon="9.2460083"><ele>264.0</ele><time>2026-04-11T16:24:25.009Z</time></trkpt><trkpt lat="45.7265318" lon="9.2458465"><ele>264.0</ele><time>2026-04-11T16:24:26.009Z</time></trkpt><trkpt lat="45.7263451" lon="9.2456767"><ele>263.0</ele><time>2026-04-11T16:24:27.009Z</time></trkpt><trkpt lat="45.7261659" lon="9.2455049"><ele>262.0</ele><time>2026-04-11T16:24:28.009Z</time></trkpt><trkpt lat="45.7259878" lon="9.2453171"><ele>261.0</ele><time>2026-04-11T16:24:29.009Z</time></trkpt><trkpt lat="45.7258089" lon="9.2451387"><ele>261.6666666666667</ele><time>2026-04-11T16:24:30.009Z</time></trkpt><trkpt lat="45.7256333" lon="9.2449597"><ele>262.33333333333337</ele><time>2026-04-11T16:24:31.008Z</time></trkpt><trkpt lat="45.7254618" lon="9.2447852"><ele>263.0</ele><time>2026-04-11T16:24:32.009Z</time></trkpt><trkpt lat="45.7252957" lon="9.2446235"><ele>265.6666666666667</ele><time>2026-04-11T16:24:33.009Z</time></trkpt><trkpt lat="45.7251333" lon="9.2444634"><ele>268.3333333333333</ele><time>2026-04-11T16:24:34.009Z</time></trkpt><trkpt lat="45.7249707" lon="9.2443055"><ele>271.0</ele><time>2026-04-11T16:24:35.009Z</time></trkpt><trkpt lat="45.7248119" lon="9.2441546"><ele>271.0</ele><time>2026-04-11T16:24:36.009Z</time></trkpt><trkpt lat="45.724656" lon="9.2440052"><ele>271.0</ele><time>2026-04-11T16:24:37.009Z</time></trkpt><trkpt lat="45.7244947" lon="9.2438474"><ele>271.0</ele><time>2026-04-11T16:24:38.009Z</time></trkpt><trkpt lat="45.724334" lon="9.2436863"><ele>269.0</ele><time>2026-04-11T16:24:39.009Z</time></trkpt><trkpt lat="45.7241733" lon="9.2435235"><ele>267.0</ele><time>2026-04-11T16:24:40.009Z</time></trkpt><trkpt lat="45.724019" lon="9.243359"><ele>265.0</ele><time>2026-04-11T16:24:41.009Z</time></trkpt><trkpt lat="45.7238611" lon="9.2431867"><ele>263.66666666666663</ele><time>2026-04-11T16:24:42.008Z</time></trkpt><trkpt lat="45.7237093" lon="9.2429961"><ele>262.3333333333333</ele><time>2026-04-11T16:24:43.009Z</time></trkpt><trkpt lat="45.72356" lon="9.2427841"><ele>261.0</ele><time>2026-04-11T16:24:44.009Z</time></trkpt><trkpt lat="45.7234157" lon="9.2425372"><ele>259.0</ele><time>2026-04-11T16:24:45.009Z</time></trkpt><trkpt lat="45.7232664" lon="9.2422621"><ele>257.0</ele><time>2026-04-11T16:24:46.009Z</time></trkpt><trkpt lat="45.7231123" lon="9.2419605"><ele>257.0</ele><time>2026-04-11T16:24:47.009Z</time></trkpt><trkpt lat="45.7229516" lon="9.241646"><ele>257.0</ele><time>2026-04-11T16:24:48.009Z</time></trkpt><trkpt lat="45.7227808" lon="9.2413276"><ele>256.0</ele><time>2026-04-11T16:24:49.009Z</time></trkpt><trkpt lat="45.7226085" lon="9.2410019"><ele>255.0</ele><time>2026-04-11T16:24:50.009Z</time></trkpt><trkpt lat="45.7224368" lon="9.2406807"><ele>249.5</ele><time>2026-04-11T16:24:51.009Z</time></trkpt><trkpt lat="45.7222667" lon="9.240368"><ele>244.0</ele><time>2026-04-11T16:24:52.009Z</time></trkpt><trkpt lat="45.7220981" lon="9.2400682"><ele>243.0</ele><time>2026-04-11T16:24:53.009Z</time></trkpt><trkpt lat="45.7219381" lon="9.2397742"><ele>242.0</ele><time>2026-04-11T16:24:54.009Z</time></trkpt><trkpt lat="45.7217821" lon="9.2394925"><ele>242.0</ele><time>2026-04-11T16:24:55.009Z</time></trkpt><trkpt lat="45.721636" lon="9.239216"><ele>242.0</ele><time>2026-04-11T16:24:56.009Z</time></trkpt><trkpt lat="45.721497" lon="9.2389605"><ele>241.66666666666669</ele><time>2026-04-11T16:24:57.009Z</time></trkpt><trkpt lat="45.7213605" lon="9.2387177"><ele>241.33333333333331</ele><time>2026-04-11T16:24:58.009Z</time></trkpt><trkpt lat="45.7212408" lon="9.2384891"><ele>241.0</ele><time>2026-04-11T16:24:59.009Z</time></trkpt><trkpt lat="45.7211246" lon="9.2382722"><ele>243.66666666666666</ele><time>2026-04-11T16:25:00.009Z</time></trkpt><trkpt lat="45.7210041" lon="9.2380493"><ele>246.33333333333331</ele><time>2026-04-11T16:25:01.009Z</time></trkpt><trkpt lat="45.7208906" lon="9.237829"><ele>249.0</ele><time>2026-04-11T16:25:02.008Z</time></trkpt><trkpt lat="45.7207704" lon="9.2375967"><ele>249.0</ele><time>2026-04-11T16:25:03.009Z</time></trkpt><trkpt lat="45.7206427" lon="9.2373545"><ele>249.0</ele><time>2026-04-11T16:25:04.008Z</time></trkpt><trkpt lat="45.7205068" lon="9.2370918"><ele>249.0</ele><time>2026-04-11T16:25:05.009Z</time></trkpt><trkpt lat="45.720361" lon="9.2368152"><ele>252.0</ele><time>2026-04-11T16:25:06.009Z</time></trkpt><trkpt lat="45.7202116" lon="9.2365301"><ele>255.0</ele><time>2026-04-11T16:25:07.009Z</time></trkpt><trkpt lat="45.7200592" lon="9.2362528"><ele>255.0</ele><time>2026-04-11T16:25:08.008Z</time></trkpt><trkpt lat="45.7199082" lon="9.2359629"><ele>255.0</ele><time>2026-04-11T16:25:09.009Z</time></trkpt><trkpt lat="45.7197481" lon="9.2356798"><ele>255.5</ele><time>2026-04-11T16:25:10.009Z</time></trkpt><trkpt lat="45.7195893" lon="9.2354001"><ele>256.0</ele><time>2026-04-11T16:25:11.009Z</time></trkpt><trkpt lat="45.7194349" lon="9.2351219"><ele>255.0</ele><time>2026-04-11T16:25:12.009Z</time></trkpt><trkpt lat="45.7192841" lon="9.2348489"><ele>254.0</ele><time>2026-04-11T16:25:13.009Z</time></trkpt><trkpt lat="45.7191389" lon="9.234573"><ele>250.0</ele><time>2026-04-11T16:25:14.009Z</time></trkpt><trkpt lat="45.7189929" lon="9.2343043"><ele>246.0</ele><time>2026-04-11T16:25:15.009Z</time></trkpt><trkpt lat="45.7188444" lon="9.2340362"><ele>243.0</ele><time>2026-04-11T16:25:16.009Z</time></trkpt><trkpt lat="45.7186985" lon="9.2337696"><ele>240.0</ele><time>2026-04-11T16:25:17.009Z</time></trkpt><trkpt lat="45.7185561" lon="9.2334992"><ele>240.0</ele><time>2026-04-11T16:25:18.008Z</time></trkpt><trkpt lat="45.7184159" lon="9.2332325"><ele>240.0</ele><time>2026-04-11T16:25:19.009Z</time></trkpt><trkpt lat="45.7182756" lon="9.23297"><ele>242.5</ele><time>2026-04-11T16:25:20.008Z</time></trkpt><trkpt lat="45.7181353" lon="9.2327124"><ele>245.0</ele><time>2026-04-11T16:25:21.009Z</time></trkpt><trkpt lat="45.7179939" lon="9.2324626"><ele>246.0</ele><time>2026-04-11T16:25:22.009Z</time></trkpt><trkpt lat="45.717851" lon="9.2321945"><ele>247.0</ele><time>2026-04-11T16:25:23.009Z</time></trkpt><trkpt lat="45.7177018" lon="9.2319131"><ele>247.0</ele><time>2026-04-11T16:25:24.009Z</time></trkpt><trkpt lat="45.7175437" lon="9.2316153"><ele>247.0</ele><time>2026-04-11T16:25:25.009Z</time></trkpt><trkpt lat="45.7173785" lon="9.2313045"><ele>250.0</ele><time>2026-04-11T16:25:26.009Z</time></trkpt><trkpt lat="45.7172124" lon="9.230983"><ele>253.0</ele><time>2026-04-11T16:25:27.009Z</time></trkpt><trkpt lat="45.7170475" lon="9.2306611"><ele>255.0</ele><time>2026-04-11T16:25:28.009Z</time></trkpt><trkpt lat="45.7168927" lon="9.2303342"><ele>257.0</ele><time>2026-04-11T16:25:29.009Z</time></trkpt><trkpt lat="45.716733" lon="9.230017"><ele>256.5</ele><time>2026-04-11T16:25:30.009Z</time></trkpt><trkpt lat="45.7165748" lon="9.2297183"><ele>256.0</ele><time>2026-04-11T16:25:31.009Z</time></trkpt><trkpt lat="45.7164197" lon="9.2294329"><ele>256.0</ele><time>2026-04-11T16:25:32.009Z</time></trkpt><trkpt lat="45.7162643" lon="9.2291471"><ele>256.0</ele><time>2026-04-11T16:25:33.009Z</time></trkpt><trkpt lat="45.7161133" lon="9.2288566"><ele>257.5</ele><time>2026-04-11T16:25:34.009Z</time></trkpt><trkpt lat="45.7159634" lon="9.2285865"><ele>259.0</ele><time>2026-04-11T16:25:35.008Z</time></trkpt><trkpt lat="45.7158039" lon="9.2283316"><ele>261.0</ele><time>2026-04-11T16:25:36.009Z</time></trkpt><trkpt lat="45.7156273" lon="9.2281032"><ele>263.0</ele><time>2026-04-11T16:25:37.009Z</time></trkpt><trkpt lat="45.7154392" lon="9.2278924"><ele>263.0</ele><time>2026-04-11T16:25:38.009Z</time></trkpt><trkpt lat="45.7152383" lon="9.2277031"><ele>263.0</ele><time>2026-04-11T16:25:39.009Z</time></trkpt><trkpt lat="45.7150291" lon="9.2275441"><ele>265.0</ele><time>2026-04-11T16:25:40.008Z</time></trkpt><trkpt lat="45.7148069" lon="9.2274182"><ele>267.0</ele><time>2026-04-11T16:25:41.009Z</time></trkpt><trkpt lat="45.7145793" lon="9.227308"><ele>277.5</ele><time>2026-04-11T16:25:42.009Z</time></trkpt><trkpt lat="45.7143425" lon="9.2272325"><ele>288.0</ele><time>2026-04-11T16:25:43.009Z</time></trkpt><trkpt lat="45.7141034" lon="9.2271977"><ele>288.0</ele><time>2026-04-11T16:25:44.009Z</time></trkpt><trkpt lat="45.7138536" lon="9.2272015"><ele>288.0</ele><time>2026-04-11T16:25:45.009Z</time></trkpt><trkpt lat="45.7135993" lon="9.2272309"><ele>286.0</ele><time>2026-04-11T16:25:46.009Z</time></trkpt><trkpt lat="45.7133411" lon="9.2272726"><ele>284.0</ele><time>2026-04-11T16:25:47.009Z</time></trkpt><trkpt lat="45.713079" lon="9.2273093"><ele>283.5</ele><time>2026-04-11T16:25:48.009Z</time></trkpt><trkpt lat="45.7128171" lon="9.2273326"><ele>283.0</ele><time>2026-04-11T16:25:49.009Z</time></trkpt><trkpt lat="45.7125596" lon="9.2273601"><ele>283.0</ele><time>2026-04-11T16:25:50.009Z</time></trkpt><trkpt lat="45.7123047" lon="9.2273909"><ele>283.0</ele><time>2026-04-11T16:25:51.009Z</time></trkpt><trkpt lat="45.7120543" lon="9.2274273"><ele>285.0</ele><time>2026-04-11T16:25:52.009Z</time></trkpt><trkpt lat="45.7118115" lon="9.2274593"><ele>287.0</ele><time>2026-04-11T16:25:53.009Z</time></trkpt><trkpt lat="45.7115856" lon="9.2274991"><ele>287.0</ele><time>2026-04-11T16:25:54.009Z</time></trkpt><trkpt lat="45.7113665" lon="9.2275385"><ele>287.0</ele><time>2026-04-11T16:25:55.008Z</time></trkpt><trkpt lat="45.7111601" lon="9.2275661"><ele>287.0</ele><time>2026-04-11T16:25:56.009Z</time></trkpt><trkpt lat="45.7109506" lon="9.2275946"><ele>288.0</ele><time>2026-04-11T16:25:57.009Z</time></trkpt><trkpt lat="45.7107254" lon="9.2276208"><ele>289.0</ele><time>2026-04-11T16:25:58.009Z</time></trkpt><trkpt lat="45.71049" lon="9.2276465"><ele>289.0</ele><time>2026-04-11T16:25:59.009Z</time></trkpt><trkpt lat="45.7102468" lon="9.2276773"><ele>289.0</ele><time>2026-04-11T16:26:00.009Z</time></trkpt><trkpt lat="45.7099991" lon="9.2277044"><ele>291.0</ele><time>2026-04-11T16:26:01.009Z</time></trkpt><trkpt lat="45.7097521" lon="9.2277349"><ele>293.0</ele><time>2026-04-11T16:26:02.009Z</time></trkpt><trkpt lat="45.709501" lon="9.2277662"><ele>294.0</ele><time>2026-04-11T16:26:03.009Z</time></trkpt><trkpt lat="45.7092546" lon="9.2277975"><ele>295.0</ele><time>2026-04-11T16:26:04.009Z</time></trkpt><trkpt lat="45.7090159" lon="9.2278304"><ele>295.0</ele><time>2026-04-11T16:26:05.009Z</time></trkpt><trkpt lat="45.7087793" lon="9.2278618"><ele>295.0</ele><time>2026-04-11T16:26:06.009Z</time></trkpt><trkpt lat="45.7085381" lon="9.2278887"><ele>297.0</ele><time>2026-04-11T16:26:07.009Z</time></trkpt><trkpt lat="45.7082935" lon="9.2279172"><ele>299.0</ele><time>2026-04-11T16:26:08.008Z</time></trkpt><trkpt lat="45.7080468" lon="9.2279535"><ele>299.0</ele><time>2026-04-11T16:26:09.009Z</time></trkpt><trkpt lat="45.7078003" lon="9.2279934"><ele>299.0</ele><time>2026-04-11T16:26:10.008Z</time></trkpt><trkpt lat="45.7075532" lon="9.2280366"><ele>300.5</ele><time>2026-04-11T16:26:11.009Z</time></trkpt><trkpt lat="45.7073064" lon="9.2280997"><ele>302.0</ele><time>2026-04-11T16:26:12.009Z</time></trkpt><trkpt lat="45.7070659" lon="9.2281777"><ele>301.5</ele><time>2026-04-11T16:26:13.009Z</time></trkpt><trkpt lat="45.7068308" lon="9.2282702"><ele>301.0</ele><time>2026-04-11T16:26:14.009Z</time></trkpt><trkpt lat="45.7065954" lon="9.2283718"><ele>301.0</ele><time>2026-04-11T16:26:15.009Z</time></trkpt><trkpt lat="45.7063712" lon="9.2284969"><ele>301.0</ele><time>2026-04-11T16:26:16.008Z</time></trkpt><trkpt lat="45.7061597" lon="9.2286338"><ele>301.5</ele><time>2026-04-11T16:26:17.008Z</time></trkpt><trkpt lat="45.70596" lon="9.2287802"><ele>302.0</ele><time>2026-04-11T16:26:18.008Z</time></trkpt><trkpt lat="45.7057651" lon="9.2289432"><ele>299.0</ele><time>2026-04-11T16:26:19.009Z</time></trkpt><trkpt lat="45.7055774" lon="9.2291168"><ele>296.0</ele><time>2026-04-11T16:26:20.009Z</time></trkpt><trkpt lat="45.7053833" lon="9.2293104"><ele>295.6666666666667</ele><time>2026-04-11T16:26:21.009Z</time></trkpt><trkpt lat="45.705204" lon="9.2295021"><ele>295.3333333333333</ele><time>2026-04-11T16:26:22.009Z</time></trkpt><trkpt lat="45.7050411" lon="9.2296932"><ele>295.0</ele><time>2026-04-11T16:26:23.009Z</time></trkpt><trkpt lat="45.7048806" lon="9.2298912"><ele>295.0</ele><time>2026-04-11T16:26:24.009Z</time></trkpt><trkpt lat="45.7047146" lon="9.2300984"><ele>295.0</ele><time>2026-04-11T16:26:25.009Z</time></trkpt><trkpt lat="45.7045424" lon="9.2303097"><ele>295.0</ele><time>2026-04-11T16:26:26.009Z</time></trkpt><trkpt lat="45.7043672" lon="9.2305309"><ele>293.5</ele><time>2026-04-11T16:26:27.009Z</time></trkpt><trkpt lat="45.7041928" lon="9.230739"><ele>292.0</ele><time>2026-04-11T16:26:28.009Z</time></trkpt><trkpt lat="45.7040094" lon="9.2309316"><ele>292.0</ele><time>2026-04-11T16:26:29.009Z</time></trkpt><trkpt lat="45.7038094" lon="9.2311104"><ele>292.0</ele><time>2026-04-11T16:26:30.009Z</time></trkpt><trkpt lat="45.7035972" lon="9.2312578"><ele>291.5</ele><time>2026-04-11T16:26:31.009Z</time></trkpt><trkpt lat="45.7033864" lon="9.2313853"><ele>291.0</ele><time>2026-04-11T16:26:32.009Z</time></trkpt><trkpt lat="45.7031653" lon="9.2314735"><ele>290.0</ele><time>2026-04-11T16:26:33.009Z</time></trkpt><trkpt lat="45.7029462" lon="9.2315381"><ele>289.0</ele><time>2026-04-11T16:26:34.009Z</time></trkpt><trkpt lat="45.7027259" lon="9.2315686"><ele>288.0</ele><time>2026-04-11T16:26:35.008Z</time></trkpt><trkpt lat="45.7025044" lon="9.2315708"><ele>286.5</ele><time>2026-04-11T16:26:36.009Z</time></trkpt><trkpt lat="45.702276" lon="9.2315303"><ele>285.0</ele><time>2026-04-11T16:26:37.008Z</time></trkpt><trkpt lat="45.7020465" lon="9.2314598"><ele>284.6666666666667</ele><time>2026-04-11T16:26:38.009Z</time></trkpt><trkpt lat="45.7018263" lon="9.2313894"><ele>284.33333333333337</ele><time>2026-04-11T16:26:39.009Z</time></trkpt><trkpt lat="45.7016159" lon="9.2313029"><ele>284.0</ele><time>2026-04-11T16:26:40.009Z</time></trkpt><trkpt lat="45.7014302" lon="9.23119"><ele>284.0</ele><time>2026-04-11T16:26:41.009Z</time></trkpt><trkpt lat="45.7012527" lon="9.2310584"><ele>284.0</ele><time>2026-04-11T16:26:42.009Z</time></trkpt><trkpt lat="45.7010778" lon="9.2309032"><ele>284.0</ele><time>2026-04-11T16:26:43.009Z</time></trkpt><trkpt lat="45.7009068" lon="9.2307427"><ele>287.0</ele><time>2026-04-11T16:26:44.009Z</time></trkpt><trkpt lat="45.700733" lon="9.230575"><ele>290.0</ele><time>2026-04-11T16:26:45.009Z</time></trkpt><trkpt lat="45.700558" lon="9.2304134"><ele>293.0</ele><time>2026-04-11T16:26:46.009Z</time></trkpt><trkpt lat="45.7003877" lon="9.2302659"><ele>291.33333333333337</ele><time>2026-04-11T16:26:47.008Z</time></trkpt><trkpt lat="45.7002183" lon="9.2301117"><ele>289.6666666666667</ele><time>2026-04-11T16:26:48.009Z</time></trkpt><trkpt lat="45.7000526" lon="9.229969"><ele>288.0</ele><time>2026-04-11T16:26:49.009Z</time></trkpt><trkpt lat="45.6998795" lon="9.2298235"><ele>288.3333333333333</ele><time>2026-04-11T16:26:50.009Z</time></trkpt><trkpt lat="45.6997032" lon="9.2296645"><ele>288.66666666666663</ele><time>2026-04-11T16:26:51.009Z</time></trkpt><trkpt lat="45.6995296" lon="9.229505"><ele>289.0</ele><time>2026-04-11T16:26:52.009Z</time></trkpt><trkpt lat="45.6993482" lon="9.229349"><ele>289.0</ele><time>2026-04-11T16:26:53.009Z</time></trkpt><trkpt lat="45.6991671" lon="9.2291696"><ele>289.0</ele><time>2026-04-11T16:26:54.009Z</time></trkpt><trkpt lat="45.6989846" lon="9.2289843"><ele>289.0</ele><time>2026-04-11T16:26:55.009Z</time></trkpt><trkpt lat="45.6987958" lon="9.2287989"><ele>289.0</ele><time>2026-04-11T16:26:56.009Z</time></trkpt><trkpt lat="45.6986049" lon="9.2286254"><ele>289.0</ele><time>2026-04-11T16:26:57.009Z</time></trkpt><trkpt lat="45.6984187" lon="9.2284506"><ele>289.0</ele><time>2026-04-11T16:26:58.009Z</time></trkpt><trkpt lat="45.6982392" lon="9.2282802"><ele>290.3333333333333</ele><time>2026-04-11T16:26:59.008Z</time></trkpt><trkpt lat="45.6980701" lon="9.2281152"><ele>291.6666666666667</ele><time>2026-04-11T16:27:00.009Z</time></trkpt><trkpt lat="45.6979015" lon="9.2279638"><ele>293.0</ele><time>2026-04-11T16:27:01.009Z</time></trkpt><trkpt lat="45.6977345" lon="9.2278091"><ele>293.33333333333337</ele><time>2026-04-11T16:27:02.009Z</time></trkpt><trkpt lat="45.6975651" lon="9.2276499"><ele>293.6666666666667</ele><time>2026-04-11T16:27:03.008Z</time></trkpt><trkpt lat="45.6973908" lon="9.2274912"><ele>294.0</ele><time>2026-04-11T16:27:04.008Z</time></trkpt><trkpt lat="45.6972186" lon="9.2273298"><ele>293.6666666666667</ele><time>2026-04-11T16:27:05.009Z</time></trkpt><trkpt lat="45.6970463" lon="9.2271623"><ele>293.33333333333337</ele><time>2026-04-11T16:27:06.008Z</time></trkpt><trkpt lat="45.6968656" lon="9.2269913"><ele>293.0</ele><time>2026-04-11T16:27:07.009Z</time></trkpt><trkpt lat="45.696683" lon="9.2268193"><ele>292.33333333333337</ele><time>2026-04-11T16:27:08.009Z</time></trkpt><trkpt lat="45.6964986" lon="9.2266481"><ele>291.6666666666667</ele><time>2026-04-11T16:27:09.009Z</time></trkpt><trkpt lat="45.6963123" lon="9.2264777"><ele>291.0</ele><time>2026-04-11T16:27:10.009Z</time></trkpt><trkpt lat="45.696124" lon="9.2263055"><ele>289.6666666666667</ele><time>2026-04-11T16:27:11.009Z</time></trkpt><trkpt lat="45.6959369" lon="9.2261343"><ele>288.33333333333337</ele><time>2026-04-11T16:27:12.009Z</time></trkpt><trkpt lat="45.6957531" lon="9.2259668"><ele>287.0</ele><time>2026-04-11T16:27:13.009Z</time></trkpt><trkpt lat="45.6955742" lon="9.2257967"><ele>287.0</ele><time>2026-04-11T16:27:14.008Z</time></trkpt><trkpt lat="45.6953897" lon="9.2256301"><ele>287.0</ele><time>2026-04-11T16:27:15.008Z</time></trkpt><trkpt lat="45.6952096" lon="9.2254668"><ele>287.0</ele><time>2026-04-11T16:27:16.009Z</time></trkpt><trkpt lat="45.6950286" lon="9.2253102"><ele>284.6666666666667</ele><time>2026-04-11T16:27:17.009Z</time></trkpt><trkpt lat="45.6948543" lon="9.2251527"><ele>282.3333333333333</ele><time>2026-04-11T16:27:18.009Z</time></trkpt><trkpt lat="45.6946803" lon="9.224994"><ele>280.0</ele><time>2026-04-11T16:27:19.008Z</time></trkpt><trkpt lat="45.6945069" lon="9.2248292"><ele>279.66666666666663</ele><time>2026-04-11T16:27:20.008Z</time></trkpt><trkpt lat="45.6943275" lon="9.224669"><ele>279.3333333333333</ele><time>2026-04-11T16:27:21.009Z</time></trkpt><trkpt lat="45.6941465" lon="9.2244996"><ele>279.0</ele><time>2026-04-11T16:27:22.009Z</time></trkpt><trkpt lat="45.6939637" lon="9.2243376"><ele>279.0</ele><time>2026-04-11T16:27:23.008Z</time></trkpt><trkpt lat="45.6937858" lon="9.2241688"><ele>279.0</ele><time>2026-04-11T16:27:24.009Z</time></trkpt><trkpt lat="45.6936138" lon="9.2240095"><ele>279.0</ele><time>2026-04-11T16:27:25.009Z</time></trkpt><trkpt lat="45.6934418" lon="9.2238468"><ele>277.6666666666667</ele><time>2026-04-11T16:27:26.009Z</time></trkpt><trkpt lat="45.6932719" lon="9.2236885"><ele>276.33333333333337</ele><time>2026-04-11T16:27:27.009Z</time></trkpt><trkpt lat="45.6931035" lon="9.2235208"><ele>275.0</ele><time>2026-04-11T16:27:28.009Z</time></trkpt><trkpt lat="45.6929383" lon="9.2233539"><ele>275.0</ele><time>2026-04-11T16:27:29.008Z</time></trkpt><trkpt lat="45.6927744" lon="9.2231834"><ele>275.0</ele><time>2026-04-11T16:27:30.009Z</time></trkpt><trkpt lat="45.6926105" lon="9.2230068"><ele>275.0</ele><time>2026-04-11T16:27:31.009Z</time></trkpt><trkpt lat="45.6924541" lon="9.2228391"><ele>272.6666666666667</ele><time>2026-04-11T16:27:32.008Z</time></trkpt><trkpt lat="45.6923056" lon="9.222683"><ele>270.3333333333333</ele><time>2026-04-11T16:27:33.009Z</time></trkpt><trkpt lat="45.6921609" lon="9.2225338"><ele>268.0</ele><time>2026-04-11T16:27:34.009Z</time></trkpt><trkpt lat="45.6920171" lon="9.2223828"><ele>267.3333333333333</ele><time>2026-04-11T16:27:35.009Z</time></trkpt><trkpt lat="45.691878" lon="9.2222396"><ele>266.6666666666667</ele><time>2026-04-11T16:27:36.009Z</time></trkpt><trkpt lat="45.6917438" lon="9.2220913"><ele>266.0</ele><time>2026-04-11T16:27:37.009Z</time></trkpt><trkpt lat="45.69161" lon="9.2219461"><ele>266.0</ele><time>2026-04-11T16:27:38.009Z</time></trkpt><trkpt lat="45.6914651" lon="9.2218012"><ele>266.0</ele><time>2026-04-11T16:27:39.009Z</time></trkpt><trkpt lat="45.691317" lon="9.2216412"><ele>266.0</ele><time>2026-04-11T16:27:40.009Z</time></trkpt><trkpt lat="45.6911707" lon="9.221484"><ele>265.33333333333337</ele><time>2026-04-11T16:27:41.009Z</time></trkpt><trkpt lat="45.6910231" lon="9.2213281"><ele>264.6666666666667</ele><time>2026-04-11T16:27:42.008Z</time></trkpt><trkpt lat="45.6908663" lon="9.2211732"><ele>264.0</ele><time>2026-04-11T16:27:43.009Z</time></trkpt><trkpt lat="45.6907045" lon="9.2210152"><ele>264.0</ele><time>2026-04-11T16:27:44.009Z</time></trkpt><trkpt lat="45.6905392" lon="9.2208527"><ele>264.0</ele><time>2026-04-11T16:27:45.008Z</time></trkpt><trkpt lat="45.6903735" lon="9.2206822"><ele>264.0</ele><time>2026-04-11T16:27:46.009Z</time></trkpt><trkpt lat="45.6902095" lon="9.2205068"><ele>263.3333333333333</ele><time>2026-04-11T16:27:47.009Z</time></trkpt><trkpt lat="45.6900445" lon="9.2203346"><ele>262.66666666666663</ele><time>2026-04-11T16:27:48.009Z</time></trkpt><trkpt lat="45.6898812" lon="9.2201636"><ele>262.0</ele><time>2026-04-11T16:27:49.009Z</time></trkpt><trkpt lat="45.6897329" lon="9.2200041"><ele>262.0</ele><time>2026-04-11T16:27:50.009Z</time></trkpt><trkpt lat="45.6895912" lon="9.2198549"><ele>262.0</ele><time>2026-04-11T16:27:51.009Z</time></trkpt><trkpt lat="45.6894552" lon="9.2197089"><ele>262.0</ele><time>2026-04-11T16:27:52.008Z</time></trkpt><trkpt lat="45.6893232" lon="9.2195681"><ele>261.3333333333333</ele><time>2026-04-11T16:27:53.009Z</time></trkpt><trkpt lat="45.6892014" lon="9.2194408"><ele>260.6666666666667</ele><time>2026-04-11T16:27:54.009Z</time></trkpt><trkpt lat="45.6890815" lon="9.2193128"><ele>260.0</ele><time>2026-04-11T16:27:55.009Z</time></trkpt><trkpt lat="45.6889616" lon="9.2191808"><ele>260.0</ele><time>2026-04-11T16:27:56.009Z</time></trkpt><trkpt lat="45.6888274" lon="9.2190456"><ele>260.0</ele><time>2026-04-11T16:27:57.008Z</time></trkpt><trkpt lat="45.6886826" lon="9.2188959"><ele>260.0</ele><time>2026-04-11T16:27:58.009Z</time></trkpt><trkpt lat="45.688529" lon="9.2187299"><ele>260.6666666666667</ele><time>2026-04-11T16:27:59.009Z</time></trkpt><trkpt lat="45.688373" lon="9.218554"><ele>261.3333333333333</ele><time>2026-04-11T16:28:00.009Z</time></trkpt><trkpt lat="45.6882219" lon="9.218388"><ele>262.0</ele><time>2026-04-11T16:28:01.009Z</time></trkpt><trkpt lat="45.6880712" lon="9.2182282"><ele>261.3333333333333</ele><time>2026-04-11T16:28:02.009Z</time></trkpt><trkpt lat="45.6879285" lon="9.218064"><ele>260.6666666666667</ele><time>2026-04-11T16:28:03.009Z</time></trkpt><trkpt lat="45.6877798" lon="9.2179062"><ele>260.0</ele><time>2026-04-11T16:28:04.008Z</time></trkpt><trkpt lat="45.6876295" lon="9.2177499"><ele>259.6666666666667</ele><time>2026-04-11T16:28:05.009Z</time></trkpt><trkpt lat="45.6874807" lon="9.2175964"><ele>259.3333333333333</ele><time>2026-04-11T16:28:06.009Z</time></trkpt><trkpt lat="45.6873359" lon="9.2174458"><ele>259.0</ele><time>2026-04-11T16:28:07.009Z</time></trkpt><trkpt lat="45.6871872" lon="9.2172961"><ele>259.0</ele><time>2026-04-11T16:28:08.009Z</time></trkpt><trkpt lat="45.687036" lon="9.2171313"><ele>259.0</ele><time>2026-04-11T16:28:09.008Z</time></trkpt><trkpt lat="45.6868765" lon="9.2169759"><ele>259.0</ele><time>2026-04-11T16:28:10.009Z</time></trkpt><trkpt lat="45.6866995" lon="9.21681"><ele>259.0</ele><time>2026-04-11T16:28:11.009Z</time></trkpt><trkpt lat="45.6865102" lon="9.2166505"><ele>259.0</ele><time>2026-04-11T16:28:12.009Z</time></trkpt><trkpt lat="45.6863173" lon="9.2165015"><ele>259.0</ele><time>2026-04-11T16:28:13.009Z</time></trkpt><trkpt lat="45.6861192" lon="9.2163745"><ele>258.3333333333333</ele><time>2026-04-11T16:28:14.009Z</time></trkpt><trkpt lat="45.685921" lon="9.2162424"><ele>257.6666666666667</ele><time>2026-04-11T16:28:15.009Z</time></trkpt><trkpt lat="45.6857051" lon="9.2161319"><ele>257.0</ele><time>2026-04-11T16:28:16.009Z</time></trkpt><trkpt lat="45.6854918" lon="9.2160554"><ele>257.0</ele><time>2026-04-11T16:28:17.009Z</time></trkpt><trkpt lat="45.6852761" lon="9.2159933"><ele>257.0</ele><time>2026-04-11T16:28:18.009Z</time></trkpt><trkpt lat="45.6850609" lon="9.2159621"><ele>257.0</ele><time>2026-04-11T16:28:19.009Z</time></trkpt><trkpt lat="45.6848414" lon="9.2159419"><ele>256.0</ele><time>2026-04-11T16:28:20.008Z</time></trkpt><trkpt lat="45.6846129" lon="9.215947"><ele>255.0</ele><time>2026-04-11T16:28:21.009Z</time></trkpt><trkpt lat="45.6843747" lon="9.2159629"><ele>254.0</ele><time>2026-04-11T16:28:22.008Z</time></trkpt><trkpt lat="45.6841148" lon="9.2160143"><ele>253.0</ele><time>2026-04-11T16:28:23.009Z</time></trkpt><trkpt lat="45.6838383" lon="9.2160879"><ele>253.5</ele><time>2026-04-11T16:28:24.009Z</time></trkpt><trkpt lat="45.6835485" lon="9.2162008"><ele>254.0</ele><time>2026-04-11T16:28:25.009Z</time></trkpt><trkpt lat="45.6832456" lon="9.2163104"><ele>254.0</ele><time>2026-04-11T16:28:26.009Z</time></trkpt><trkpt lat="45.6829475" lon="9.2164086"><ele>254.0</ele><time>2026-04-11T16:28:27.009Z</time></trkpt><trkpt lat="45.6826618" lon="9.2165066"><ele>252.5</ele><time>2026-04-11T16:28:28.008Z</time></trkpt><trkpt lat="45.6824063" lon="9.2166005"><ele>251.0</ele><time>2026-04-11T16:28:29.009Z</time></trkpt><trkpt lat="45.682175" lon="9.2166755"><ele>251.0</ele><time>2026-04-11T16:28:30.009Z</time></trkpt><trkpt lat="45.6819586" lon="9.2167484"><ele>251.0</ele><time>2026-04-11T16:28:31.009Z</time></trkpt><trkpt lat="45.6817487" lon="9.2168256"><ele>251.0</ele><time>2026-04-11T16:28:32.009Z</time></trkpt><trkpt lat="45.6815428" lon="9.2168996"><ele>251.0</ele><time>2026-04-11T16:28:33.009Z</time></trkpt><trkpt lat="45.6813443" lon="9.2169713"><ele>251.0</ele><time>2026-04-11T16:28:34.009Z</time></trkpt><trkpt lat="45.6811531" lon="9.2170391"><ele>251.0</ele><time>2026-04-11T16:28:35.009Z</time></trkpt><trkpt lat="45.6809658" lon="9.2170946"><ele>251.0</ele><time>2026-04-11T16:28:36.009Z</time></trkpt><trkpt lat="45.6807725" lon="9.2171564"><ele>251.0</ele><time>2026-04-11T16:28:37.009Z</time></trkpt><trkpt lat="45.6805811" lon="9.2172255"><ele>251.0</ele><time>2026-04-11T16:28:38.009Z</time></trkpt><trkpt lat="45.6803922" lon="9.2172895"><ele>250.66666666666669</ele><time>2026-04-11T16:28:39.009Z</time></trkpt><trkpt lat="45.6801934" lon="9.2173659"><ele>250.33333333333331</ele><time>2026-04-11T16:28:40.009Z</time></trkpt><trkpt lat="45.6799683" lon="9.2174394"><ele>250.0</ele><time>2026-04-11T16:28:41.009Z</time></trkpt><trkpt lat="45.6797382" lon="9.2175197"><ele>250.0</ele><time>2026-04-11T16:28:42.009Z</time></trkpt><trkpt lat="45.6794991" lon="9.2175946"><ele>250.0</ele><time>2026-04-11T16:28:43.009Z</time></trkpt><trkpt lat="45.6792681" lon="9.2176699"><ele>250.0</ele><time>2026-04-11T16:28:44.009Z</time></trkpt><trkpt lat="45.6790431" lon="9.2177414"><ele>250.0</ele><time>2026-04-11T16:28:45.009Z</time></trkpt><trkpt lat="45.6788147" lon="9.2178189"><ele>248.5</ele><time>2026-04-11T16:28:46.008Z</time></trkpt><trkpt lat="45.6785907" lon="9.2178961"><ele>247.0</ele><time>2026-04-11T16:28:47.009Z</time></trkpt><trkpt lat="45.678364" lon="9.2179679"><ele>247.0</ele><time>2026-04-11T16:28:48.008Z</time></trkpt><trkpt lat="45.6781472" lon="9.2180398"><ele>247.0</ele><time>2026-04-11T16:28:49.008Z</time></trkpt><trkpt lat="45.6779356" lon="9.2181195"><ele>247.0</ele><time>2026-04-11T16:28:50.009Z</time></trkpt><trkpt lat="45.6777338" lon="9.2181917"><ele>248.33333333333331</ele><time>2026-04-11T16:28:51.009Z</time></trkpt><trkpt lat="45.6775451" lon="9.2182531"><ele>249.66666666666669</ele><time>2026-04-11T16:28:52.009Z</time></trkpt><trkpt lat="45.6773551" lon="9.2183274"><ele>251.0</ele><time>2026-04-11T16:28:53.009Z</time></trkpt><trkpt lat="45.6771535" lon="9.2184097"><ele>251.0</ele><time>2026-04-11T16:28:54.009Z</time></trkpt><trkpt lat="45.67694" lon="9.2184868"><ele>251.0</ele><time>2026-04-11T16:28:55.009Z</time></trkpt><trkpt lat="45.6767065" lon="9.2185635"><ele>248.5</ele><time>2026-04-11T16:28:56.009Z</time></trkpt><trkpt lat="45.6764762" lon="9.2186442"><ele>246.0</ele><time>2026-04-11T16:28:57.009Z</time></trkpt><trkpt lat="45.6762506" lon="9.2187149"><ele>245.5</ele><time>2026-04-11T16:28:58.008Z</time></trkpt><trkpt lat="45.6760268" lon="9.2187922"><ele>245.0</ele><time>2026-04-11T16:28:59.009Z</time></trkpt><trkpt lat="45.6758068" lon="9.2188687"><ele>245.0</ele><time>2026-04-11T16:29:00.008Z</time></trkpt><trkpt lat="45.6755925" lon="9.218937"><ele>245.0</ele><time>2026-04-11T16:29:01.009Z</time></trkpt><trkpt lat="45.6753811" lon="9.2190004"><ele>245.0</ele><time>2026-04-11T16:29:02.009Z</time></trkpt><trkpt lat="45.6751838" lon="9.2190696"><ele>245.33333333333334</ele><time>2026-04-11T16:29:03.008Z</time></trkpt><trkpt lat="45.6749849" lon="9.2191395"><ele>245.66666666666669</ele><time>2026-04-11T16:29:04.009Z</time></trkpt><trkpt lat="45.674784" lon="9.2192111"><ele>246.0</ele><time>2026-04-11T16:29:05.009Z</time></trkpt><trkpt lat="45.6745846" lon="9.2192758"><ele>245.66666666666669</ele><time>2026-04-11T16:29:06.009Z</time></trkpt><trkpt lat="45.674392" lon="9.2193405"><ele>245.33333333333334</ele><time>2026-04-11T16:29:07.009Z</time></trkpt><trkpt lat="45.674204" lon="9.2194051"><ele>245.0</ele><time>2026-04-11T16:29:08.009Z</time></trkpt><trkpt lat="45.6740186" lon="9.2194688"><ele>245.0</ele><time>2026-04-11T16:29:09.009Z</time></trkpt><trkpt lat="45.6738349" lon="9.2195316"><ele>245.0</ele><time>2026-04-11T16:29:10.009Z</time></trkpt><trkpt lat="45.6736573" lon="9.2195899"><ele>245.0</ele><time>2026-04-11T16:29:11.009Z</time></trkpt><trkpt lat="45.6734866" lon="9.2196504"><ele>245.33333333333334</ele><time>2026-04-11T16:29:12.009Z</time></trkpt><trkpt lat="45.6733231" lon="9.2197043"><ele>245.66666666666669</ele><time>2026-04-11T16:29:13.009Z</time></trkpt><trkpt lat="45.6731603" lon="9.2197504"><ele>246.0</ele><time>2026-04-11T16:29:14.009Z</time></trkpt><trkpt lat="45.6730067" lon="9.2198015"><ele>245.5</ele><time>2026-04-11T16:29:15.009Z</time></trkpt><trkpt lat="45.6728654" lon="9.2198498"><ele>245.0</ele><time>2026-04-11T16:29:16.008Z</time></trkpt><trkpt lat="45.6727387" lon="9.2198951"><ele>244.5</ele><time>2026-04-11T16:29:17.009Z</time></trkpt><trkpt lat="45.6726258" lon="9.2199302"><ele>244.0</ele><time>2026-04-11T16:29:18.009Z</time></trkpt><trkpt lat="45.6725147" lon="9.2199489"><ele>243.66666666666666</ele><time>2026-04-11T16:29:19.009Z</time></trkpt><trkpt lat="45.6724239" lon="9.2199586"><ele>243.33333333333331</ele><time>2026-04-11T16:29:20.009Z</time></trkpt><trkpt lat="45.6723534" lon="9.2199516"><ele>243.0</ele><time>2026-04-11T16:29:21.009Z</time></trkpt><trkpt lat="45.672292" lon="9.2199207"><ele>242.66666666666669</ele><time>2026-04-11T16:29:22.009Z</time></trkpt><trkpt lat="45.6721809" lon="9.2198627"><ele>242.33333333333334</ele><time>2026-04-11T16:29:24.009Z</time></trkpt><trkpt lat="45.672106" lon="9.219862"><ele>242.0</ele><time>2026-04-11T16:29:26.009Z</time></trkpt><trkpt lat="45.6719649" lon="9.2198758"><ele>241.66666666666669</ele><time>2026-04-11T16:32:46.008Z</time></trkpt><trkpt lat="45.6718994" lon="9.2199001"><ele>241.33333333333334</ele><time>2026-04-11T16:34:13.008Z</time></trkpt><trkpt lat="45.6718486" lon="9.2199932"><ele>241.0</ele><time>2026-04-11T16:39:13.008Z</time></trkpt><trkpt lat="45.6718054" lon="9.2200821"><ele>240.66666666666669</ele><time>2026-04-11T16:39:16.008Z</time></trkpt><trkpt lat="45.6717485" lon="9.220155"><ele>240.33333333333334</ele><time>2026-04-11T16:39:18.008Z</time></trkpt><trkpt lat="45.6716872" lon="9.2202006"><ele>240.0</ele><time>2026-04-11T16:39:19.008Z</time></trkpt><trkpt lat="45.6716034" lon="9.2202527"><ele>240.0</ele><time>2026-04-11T16:39:20.007Z</time></trkpt><trkpt lat="45.6715194" lon="9.2203077"><ele>240.0</ele><time>2026-04-11T16:39:21.008Z</time></trkpt><trkpt lat="45.6714095" lon="9.2203559"><ele>240.0</ele><time>2026-04-11T16:39:22.008Z</time></trkpt><trkpt lat="45.6712842" lon="9.2204128"><ele>240.0</ele><time>2026-04-11T16:39:23.008Z</time></trkpt><trkpt lat="45.6711453" lon="9.2204752"><ele>240.0</ele><time>2026-04-11T16:39:24.007Z</time></trkpt><trkpt lat="45.6709892" lon="9.2205379"><ele>240.0</ele><time>2026-04-11T16:39:25.008Z</time></trkpt><trkpt lat="45.6708246" lon="9.2206034"><ele>240.0</ele><time>2026-04-11T16:39:26.008Z</time></trkpt><trkpt lat="45.6706624" lon="9.2206676"><ele>239.66666666666669</ele><time>2026-04-11T16:39:27.008Z</time></trkpt><trkpt lat="45.6704982" lon="9.2207288"><ele>239.33333333333334</ele><time>2026-04-11T16:39:28.008Z</time></trkpt><trkpt lat="45.6703293" lon="9.2207912"><ele>239.0</ele><time>2026-04-11T16:39:29.008Z</time></trkpt><trkpt lat="45.6701541" lon="9.2208589"><ele>239.0</ele><time>2026-04-11T16:39:30.008Z</time></trkpt><trkpt lat="45.6699732" lon="9.220926"><ele>239.0</ele><time>2026-04-11T16:39:31.008Z</time></trkpt><trkpt lat="45.6697883" lon="9.2209953"><ele>239.0</ele><time>2026-04-11T16:39:32.008Z</time></trkpt><trkpt lat="45.6695964" lon="9.2210639"><ele>237.33333333333334</ele><time>2026-04-11T16:39:33.008Z</time></trkpt><trkpt lat="45.6694014" lon="9.221136"><ele>235.66666666666669</ele><time>2026-04-11T16:39:34.008Z</time></trkpt><trkpt lat="45.669204" lon="9.2212123"><ele>234.0</ele><time>2026-04-11T16:39:35.008Z</time></trkpt><trkpt lat="45.6689983" lon="9.2212837"><ele>234.0</ele><time>2026-04-11T16:39:36.008Z</time></trkpt><trkpt lat="45.6687876" lon="9.2213561"><ele>234.0</ele><time>2026-04-11T16:39:37.007Z</time></trkpt><trkpt lat="45.6685709" lon="9.2214322"><ele>234.0</ele><time>2026-04-11T16:39:38.008Z</time></trkpt><trkpt lat="45.6683501" lon="9.2215157"><ele>235.5</ele><time>2026-04-11T16:39:39.008Z</time></trkpt><trkpt lat="45.6681222" lon="9.2216028"><ele>237.0</ele><time>2026-04-11T16:39:40.008Z</time></trkpt><trkpt lat="45.667889" lon="9.2216805"><ele>236.0</ele><time>2026-04-11T16:39:41.008Z</time></trkpt><trkpt lat="45.6676482" lon="9.2217671"><ele>235.0</ele><time>2026-04-11T16:39:42.008Z</time></trkpt><trkpt lat="45.6674069" lon="9.2218514"><ele>235.0</ele><time>2026-04-11T16:39:43.008Z</time></trkpt><trkpt lat="45.6671709" lon="9.2219344"><ele>235.0</ele><time>2026-04-11T16:39:44.008Z</time></trkpt><trkpt lat="45.666929" lon="9.222014"><ele>237.5</ele><time>2026-04-11T16:39:45.008Z</time></trkpt><trkpt lat="45.6666821" lon="9.2221072"><ele>240.0</ele><time>2026-04-11T16:39:46.008Z</time></trkpt><trkpt lat="45.6664346" lon="9.2221919"><ele>240.0</ele><time>2026-04-11T16:39:47.008Z</time></trkpt><trkpt lat="45.666188" lon="9.2222781"><ele>240.0</ele><time>2026-04-11T16:39:48.008Z</time></trkpt><trkpt lat="45.6659397" lon="9.2223714"><ele>238.0</ele><time>2026-04-11T16:39:49.008Z</time></trkpt><trkpt lat="45.665692" lon="9.2224545"><ele>236.0</ele><time>2026-04-11T16:39:50.007Z</time></trkpt><trkpt lat="45.6654431" lon="9.2225344"><ele>236.0</ele><time>2026-04-11T16:39:51.008Z</time></trkpt><trkpt lat="45.6651913" lon="9.2226163"><ele>236.0</ele><time>2026-04-11T16:39:52.008Z</time></trkpt><trkpt lat="45.6649587" lon="9.2227134"><ele>236.0</ele><time>2026-04-11T16:39:53.008Z</time></trkpt><trkpt lat="45.6647116" lon="9.2228032"><ele>236.0</ele><time>2026-04-11T16:39:54.008Z</time></trkpt><trkpt lat="45.6644631" lon="9.2228867"><ele>235.5</ele><time>2026-04-11T16:39:55.008Z</time></trkpt><trkpt lat="45.6642235" lon="9.2229689"><ele>235.0</ele><time>2026-04-11T16:39:56.008Z</time></trkpt><trkpt lat="45.6639895" lon="9.2230532"><ele>235.0</ele><time>2026-04-11T16:39:57.007Z</time></trkpt><trkpt lat="45.6637583" lon="9.2231375"><ele>235.0</ele><time>2026-04-11T16:39:58.008Z</time></trkpt><trkpt lat="45.6635264" lon="9.2232199"><ele>234.0</ele><time>2026-04-11T16:39:59.008Z</time></trkpt><trkpt lat="45.6632927" lon="9.2233047"><ele>233.0</ele><time>2026-04-11T16:40:00.008Z</time></trkpt><trkpt lat="45.6630682" lon="9.2233811"><ele>233.0</ele><time>2026-04-11T16:40:01.008Z</time></trkpt><trkpt lat="45.6628499" lon="9.2234696"><ele>233.0</ele><time>2026-04-11T16:40:02.008Z</time></trkpt><trkpt lat="45.6626412" lon="9.2235632"><ele>233.0</ele><time>2026-04-11T16:40:03.008Z</time></trkpt><trkpt lat="45.6624458" lon="9.2236519"><ele>233.0</ele><time>2026-04-11T16:40:04.008Z</time></trkpt><trkpt lat="45.6622502" lon="9.2236775"><ele>233.0</ele><time>2026-04-11T16:40:05.008Z</time></trkpt><trkpt lat="45.6620436" lon="9.2237479"><ele>233.0</ele><time>2026-04-11T16:40:06.008Z</time></trkpt><trkpt lat="45.6618312" lon="9.2238201"><ele>233.0</ele><time>2026-04-11T16:40:07.008Z</time></trkpt><trkpt lat="45.6616097" lon="9.2239044"><ele>233.0</ele><time>2026-04-11T16:40:08.008Z</time></trkpt><trkpt lat="45.6613949" lon="9.2239752"><ele>231.5</ele><time>2026-04-11T16:40:09.008Z</time></trkpt><trkpt lat="45.6611002" lon="9.2240699"><ele>230.0</ele><time>2026-04-11T16:40:10.008Z</time></trkpt><trkpt lat="45.6608994" lon="9.2241464"><ele>230.0</ele><time>2026-04-11T16:40:11.008Z</time></trkpt><trkpt lat="45.6607021" lon="9.2242247"><ele>230.0</ele><time>2026-04-11T16:40:12.008Z</time></trkpt><trkpt lat="45.660573" lon="9.2242675"><ele>230.0</ele><time>2026-04-11T16:40:13.008Z</time></trkpt><trkpt lat="45.6603861" lon="9.2243567"><ele>230.0</ele><time>2026-04-11T16:40:14.008Z</time></trkpt><trkpt lat="45.6601797" lon="9.2244351"><ele>230.0</ele><time>2026-04-11T16:40:15.008Z</time></trkpt><trkpt lat="45.6599739" lon="9.2245126"><ele>230.0</ele><time>2026-04-11T16:40:16.007Z</time></trkpt><trkpt lat="45.6597588" lon="9.2245877"><ele>230.0</ele><time>2026-04-11T16:40:17.007Z</time></trkpt><trkpt lat="45.6595409" lon="9.2246684"><ele>230.0</ele><time>2026-04-11T16:40:18.008Z</time></trkpt><trkpt lat="45.6593213" lon="9.2247515"><ele>230.33333333333334</ele><time>2026-04-11T16:40:19.008Z</time></trkpt><trkpt lat="45.659106" lon="9.224832"><ele>230.66666666666669</ele><time>2026-04-11T16:40:20.008Z</time></trkpt><trkpt lat="45.6588902" lon="9.2249159"><ele>231.0</ele><time>2026-04-11T16:40:21.008Z</time></trkpt><trkpt lat="45.6586745" lon="9.2249962"><ele>231.0</ele><time>2026-04-11T16:40:22.008Z</time></trkpt><trkpt lat="45.6584613" lon="9.2250741"><ele>231.0</ele><time>2026-04-11T16:40:23.008Z</time></trkpt><trkpt lat="45.6582591" lon="9.2251449"><ele>231.0</ele><time>2026-04-11T16:40:24.008Z</time></trkpt><trkpt lat="45.6580581" lon="9.2252142"><ele>231.0</ele><time>2026-04-11T16:40:25.008Z</time></trkpt><trkpt lat="45.6578572" lon="9.2252828"><ele>231.0</ele><time>2026-04-11T16:40:26.008Z</time></trkpt><trkpt lat="45.6576532" lon="9.2253549"><ele>231.0</ele><time>2026-04-11T16:40:27.008Z</time></trkpt><trkpt lat="45.657446" lon="9.2254304"><ele>230.33333333333331</ele><time>2026-04-11T16:40:28.007Z</time></trkpt><trkpt lat="45.6572339" lon="9.2255074"><ele>229.66666666666666</ele><time>2026-04-11T16:40:29.008Z</time></trkpt><trkpt lat="45.657018" lon="9.225585"><ele>229.0</ele><time>2026-04-11T16:40:30.008Z</time></trkpt><trkpt lat="45.6567978" lon="9.2256591"><ele>229.0</ele><time>2026-04-11T16:40:31.008Z</time></trkpt><trkpt lat="45.6565752" lon="9.2257215"><ele>229.0</ele><time>2026-04-11T16:40:32.008Z</time></trkpt><trkpt lat="45.6563462" lon="9.2257799"><ele>229.0</ele><time>2026-04-11T16:40:33.008Z</time></trkpt><trkpt lat="45.6561046" lon="9.2258306"><ele>229.0</ele><time>2026-04-11T16:40:34.007Z</time></trkpt><trkpt lat="45.6558522" lon="9.2258686"><ele>229.0</ele><time>2026-04-11T16:40:35.008Z</time></trkpt><trkpt lat="45.6555893" lon="9.2258927"><ele>229.0</ele><time>2026-04-11T16:40:36.008Z</time></trkpt><trkpt lat="45.6553216" lon="9.2259052"><ele>227.0</ele><time>2026-04-11T16:40:37.008Z</time></trkpt><trkpt lat="45.6550461" lon="9.2259027"><ele>225.0</ele><time>2026-04-11T16:40:38.007Z</time></trkpt><trkpt lat="45.6547791" lon="9.2258827"><ele>225.0</ele><time>2026-04-11T16:40:39.008Z</time></trkpt><trkpt lat="45.6545067" lon="9.225855"><ele>225.0</ele><time>2026-04-11T16:40:40.008Z</time></trkpt><trkpt lat="45.6542403" lon="9.2258363"><ele>225.5</ele><time>2026-04-11T16:40:41.008Z</time></trkpt><trkpt lat="45.6539768" lon="9.2258187"><ele>226.0</ele><time>2026-04-11T16:40:42.008Z</time></trkpt><trkpt lat="45.6537216" lon="9.2257985"><ele>225.5</ele><time>2026-04-11T16:40:43.008Z</time></trkpt><trkpt lat="45.6534741" lon="9.2257867"><ele>225.0</ele><time>2026-04-11T16:40:44.008Z</time></trkpt><trkpt lat="45.6532362" lon="9.225772"><ele>225.0</ele><time>2026-04-11T16:40:45.008Z</time></trkpt><trkpt lat="45.6530044" lon="9.2257665"><ele>225.0</ele><time>2026-04-11T16:40:46.008Z</time></trkpt><trkpt lat="45.6527832" lon="9.2257552"><ele>224.33333333333331</ele><time>2026-04-11T16:40:47.008Z</time></trkpt><trkpt lat="45.6525705" lon="9.2257393"><ele>223.66666666666666</ele><time>2026-04-11T16:40:48.008Z</time></trkpt><trkpt lat="45.6523613" lon="9.2257289"><ele>223.0</ele><time>2026-04-11T16:40:49.007Z</time></trkpt><trkpt lat="45.6521486" lon="9.2257211"><ele>223.66666666666666</ele><time>2026-04-11T16:40:50.008Z</time></trkpt><trkpt lat="45.6519329" lon="9.2257095"><ele>224.33333333333331</ele><time>2026-04-11T16:40:51.008Z</time></trkpt><trkpt lat="45.6517173" lon="9.2256998"><ele>225.0</ele><time>2026-04-11T16:40:52.008Z</time></trkpt><trkpt lat="45.6514988" lon="9.2256894"><ele>225.0</ele><time>2026-04-11T16:40:53.008Z</time></trkpt><trkpt lat="45.6512783" lon="9.2256765"><ele>225.0</ele><time>2026-04-11T16:40:54.008Z</time></trkpt><trkpt lat="45.6510533" lon="9.225668"><ele>225.0</ele><time>2026-04-11T16:40:55.008Z</time></trkpt><trkpt lat="45.6508225" lon="9.2256499"><ele>223.5</ele><time>2026-04-11T16:40:56.008Z</time></trkpt><trkpt lat="45.6505916" lon="9.2256341"><ele>222.0</ele><time>2026-04-11T16:40:57.008Z</time></trkpt><trkpt lat="45.650361" lon="9.2256259"><ele>222.0</ele><time>2026-04-11T16:40:58.007Z</time></trkpt><trkpt lat="45.6501304" lon="9.2256121"><ele>222.0</ele><time>2026-04-11T16:40:59.007Z</time></trkpt><trkpt lat="45.6499098" lon="9.2256064"><ele>222.0</ele><time>2026-04-11T16:41:00.008Z</time></trkpt><trkpt lat="45.6496949" lon="9.2255963"><ele>222.0</ele><time>2026-04-11T16:41:01.008Z</time></trkpt><trkpt lat="45.6494853" lon="9.2255912"><ele>222.0</ele><time>2026-04-11T16:41:02.008Z</time></trkpt><trkpt lat="45.6492775" lon="9.2255804"><ele>221.66666666666669</ele><time>2026-04-11T16:41:03.008Z</time></trkpt><trkpt lat="45.6490728" lon="9.225573"><ele>221.33333333333334</ele><time>2026-04-11T16:41:04.008Z</time></trkpt><trkpt lat="45.648865" lon="9.2255639"><ele>221.0</ele><time>2026-04-11T16:41:05.008Z</time></trkpt><trkpt lat="45.6486572" lon="9.2255591"><ele>220.66666666666669</ele><time>2026-04-11T16:41:06.008Z</time></trkpt><trkpt lat="45.6484324" lon="9.2255448"><ele>220.33333333333331</ele><time>2026-04-11T16:41:07.008Z</time></trkpt><trkpt lat="45.6482165" lon="9.2255364"><ele>220.0</ele><time>2026-04-11T16:41:08.008Z</time></trkpt><trkpt lat="45.6479984" lon="9.2255245"><ele>220.66666666666666</ele><time>2026-04-11T16:41:09.008Z</time></trkpt><trkpt lat="45.6477817" lon="9.2255149"><ele>221.33333333333331</ele><time>2026-04-11T16:41:10.008Z</time></trkpt><trkpt lat="45.6475664" lon="9.2255043"><ele>222.0</ele><time>2026-04-11T16:41:11.008Z</time></trkpt><trkpt lat="45.6473471" lon="9.2254963"><ele>222.0</ele><time>2026-04-11T16:41:12.008Z</time></trkpt><trkpt lat="45.6471371" lon="9.2254954"><ele>222.0</ele><time>2026-04-11T16:41:13.007Z</time></trkpt><trkpt lat="45.6469158" lon="9.2254878"><ele>222.0</ele><time>2026-04-11T16:41:14.008Z</time></trkpt><trkpt lat="45.6466939" lon="9.2254799"><ele>222.33333333333331</ele><time>2026-04-11T16:41:15.008Z</time></trkpt><trkpt lat="45.6464682" lon="9.2254634"><ele>222.66666666666666</ele><time>2026-04-11T16:41:16.007Z</time></trkpt><trkpt lat="45.6462481" lon="9.2254526"><ele>223.0</ele><time>2026-04-11T16:41:17.007Z</time></trkpt><trkpt lat="45.6460254" lon="9.2254313"><ele>222.0</ele><time>2026-04-11T16:41:18.008Z</time></trkpt><trkpt lat="45.6458036" lon="9.2254194"><ele>221.0</ele><time>2026-04-11T16:41:19.008Z</time></trkpt><trkpt lat="45.6455802" lon="9.2253992"><ele>220.0</ele><time>2026-04-11T16:41:20.008Z</time></trkpt><trkpt lat="45.6453613" lon="9.2253788"><ele>219.0</ele><time>2026-04-11T16:41:21.008Z</time></trkpt><trkpt lat="45.6451295" lon="9.2253655"><ele>218.0</ele><time>2026-04-11T16:41:22.008Z</time></trkpt><trkpt lat="45.6449027" lon="9.2253508"><ele>218.0</ele><time>2026-04-11T16:41:23.008Z</time></trkpt><trkpt lat="45.6446858" lon="9.2253366"><ele>218.0</ele><time>2026-04-11T16:41:24.008Z</time></trkpt><trkpt lat="45.6444767" lon="9.2253228"><ele>218.0</ele><time>2026-04-11T16:41:25.008Z</time></trkpt><trkpt lat="45.6442684" lon="9.2253096"><ele>218.33333333333334</ele><time>2026-04-11T16:41:26.008Z</time></trkpt><trkpt lat="45.6440581" lon="9.2252998"><ele>218.66666666666669</ele><time>2026-04-11T16:41:27.007Z</time></trkpt><trkpt lat="45.6438443" lon="9.2252946"><ele>219.0</ele><time>2026-04-11T16:41:28.008Z</time></trkpt><trkpt lat="45.6436266" lon="9.2252892"><ele>219.0</ele><time>2026-04-11T16:41:29.008Z</time></trkpt><trkpt lat="45.6434072" lon="9.2252825"><ele>219.0</ele><time>2026-04-11T16:41:30.008Z</time></trkpt><trkpt lat="45.6431968" lon="9.2252743"><ele>219.0</ele><time>2026-04-11T16:41:31.008Z</time></trkpt><trkpt lat="45.6429892" lon="9.225265"><ele>218.33333333333331</ele><time>2026-04-11T16:41:32.008Z</time></trkpt><trkpt lat="45.6427815" lon="9.2252574"><ele>217.66666666666666</ele><time>2026-04-11T16:41:33.008Z</time></trkpt><trkpt lat="45.6425776" lon="9.2252504"><ele>217.0</ele><time>2026-04-11T16:41:34.008Z</time></trkpt><trkpt lat="45.6423615" lon="9.2252443"><ele>217.0</ele><time>2026-04-11T16:41:35.008Z</time></trkpt><trkpt lat="45.6421402" lon="9.2252342"><ele>217.0</ele><time>2026-04-11T16:41:36.008Z</time></trkpt><trkpt lat="45.6419157" lon="9.2252242"><ele>217.0</ele><time>2026-04-11T16:41:37.008Z</time></trkpt><trkpt lat="45.6416976" lon="9.2252105"><ele>217.0</ele><time>2026-04-11T16:41:38.008Z</time></trkpt><trkpt lat="45.6414791" lon="9.2251986"><ele>217.0</ele><time>2026-04-11T16:41:39.008Z</time></trkpt><trkpt lat="45.6412611" lon="9.2251861"><ele>217.0</ele><time>2026-04-11T16:41:40.008Z</time></trkpt><trkpt lat="45.6410429" lon="9.2251842"><ele>216.33333333333331</ele><time>2026-04-11T16:41:41.008Z</time></trkpt><trkpt lat="45.640831" lon="9.2251689"><ele>215.66666666666669</ele><time>2026-04-11T16:41:42.008Z</time></trkpt><trkpt lat="45.6406178" lon="9.2251571"><ele>215.0</ele><time>2026-04-11T16:41:43.007Z</time></trkpt><trkpt lat="45.6404088" lon="9.2251421"><ele>215.33333333333334</ele><time>2026-04-11T16:41:44.008Z</time></trkpt><trkpt lat="45.6401982" lon="9.2251279"><ele>215.66666666666669</ele><time>2026-04-11T16:41:45.008Z</time></trkpt><trkpt lat="45.6399891" lon="9.225114"><ele>216.0</ele><time>2026-04-11T16:41:46.008Z</time></trkpt><trkpt lat="45.6397734" lon="9.2250996"><ele>216.0</ele><time>2026-04-11T16:41:47.008Z</time></trkpt><trkpt lat="45.63956" lon="9.225094"><ele>216.0</ele><time>2026-04-11T16:41:48.008Z</time></trkpt><trkpt lat="45.6393531" lon="9.2250866"><ele>216.0</ele><time>2026-04-11T16:41:49.008Z</time></trkpt><trkpt lat="45.6391402" lon="9.225077"><ele>215.66666666666669</ele><time>2026-04-11T16:41:50.008Z</time></trkpt><trkpt lat="45.6389286" lon="9.2250646"><ele>215.33333333333334</ele><time>2026-04-11T16:41:51.008Z</time></trkpt><trkpt lat="45.6387135" lon="9.2250461"><ele>215.0</ele><time>2026-04-11T16:41:52.008Z</time></trkpt><trkpt lat="45.6384894" lon="9.2250301"><ele>213.5</ele><time>2026-04-11T16:41:53.008Z</time></trkpt><trkpt lat="45.6382506" lon="9.225008"><ele>212.0</ele><time>2026-04-11T16:41:54.008Z</time></trkpt><trkpt lat="45.638014" lon="9.2249836"><ele>211.0</ele><time>2026-04-11T16:41:55.008Z</time></trkpt><trkpt lat="45.6377834" lon="9.2249701"><ele>210.0</ele><time>2026-04-11T16:41:56.008Z</time></trkpt><trkpt lat="45.63755" lon="9.2249614"><ele>210.0</ele><time>2026-04-11T16:41:57.008Z</time></trkpt><trkpt lat="45.637325" lon="9.2249602"><ele>210.0</ele><time>2026-04-11T16:41:58.008Z</time></trkpt><trkpt lat="45.6371027" lon="9.2249644"><ele>210.0</ele><time>2026-04-11T16:41:59.008Z</time></trkpt><trkpt lat="45.6368871" lon="9.2249523"><ele>210.0</ele><time>2026-04-11T16:42:00.008Z</time></trkpt><trkpt lat="45.636671" lon="9.224948"><ele>210.0</ele><time>2026-04-11T16:42:01.008Z</time></trkpt><trkpt lat="45.636464" lon="9.2249436"><ele>210.0</ele><time>2026-04-11T16:42:02.008Z</time></trkpt><trkpt lat="45.6362634" lon="9.224932"><ele>210.33333333333331</ele><time>2026-04-11T16:42:03.008Z</time></trkpt><trkpt lat="45.6360659" lon="9.2249267"><ele>210.66666666666666</ele><time>2026-04-11T16:42:04.008Z</time></trkpt><trkpt lat="45.6358657" lon="9.2249115"><ele>211.0</ele><time>2026-04-11T16:42:05.007Z</time></trkpt><trkpt lat="45.6356676" lon="9.2248998"><ele>211.0</ele><time>2026-04-11T16:42:06.008Z</time></trkpt><trkpt lat="45.6354896" lon="9.2248898"><ele>211.0</ele><time>2026-04-11T16:42:07.008Z</time></trkpt><trkpt lat="45.6353031" lon="9.2248819"><ele>211.0</ele><time>2026-04-11T16:42:08.008Z</time></trkpt><trkpt lat="45.6351182" lon="9.2248733"><ele>210.33333333333331</ele><time>2026-04-11T16:42:09.008Z</time></trkpt><trkpt lat="45.6349388" lon="9.2248651"><ele>209.66666666666669</ele><time>2026-04-11T16:42:10.008Z</time></trkpt><trkpt lat="45.6347608" lon="9.2248501"><ele>209.0</ele><time>2026-04-11T16:42:11.007Z</time></trkpt><trkpt lat="45.6345713" lon="9.2248402"><ele>208.66666666666669</ele><time>2026-04-11T16:42:12.008Z</time></trkpt><trkpt lat="45.6343781" lon="9.224825"><ele>208.33333333333331</ele><time>2026-04-11T16:42:13.008Z</time></trkpt><trkpt lat="45.6341822" lon="9.2248088"><ele>208.0</ele><time>2026-04-11T16:42:14.008Z</time></trkpt><trkpt lat="45.6339631" lon="9.22479"><ele>207.5</ele><time>2026-04-11T16:42:15.007Z</time></trkpt><trkpt lat="45.6337264" lon="9.2247668"><ele>207.0</ele><time>2026-04-11T16:42:16.008Z</time></trkpt><trkpt lat="45.6334698" lon="9.2247569"><ele>205.5</ele><time>2026-04-11T16:42:17.008Z</time></trkpt><trkpt lat="45.6331965" lon="9.2247439"><ele>204.0</ele><time>2026-04-11T16:42:18.008Z</time></trkpt><trkpt lat="45.6329145" lon="9.2247242"><ele>204.0</ele><time>2026-04-11T16:42:19.008Z</time></trkpt><trkpt lat="45.6326279" lon="9.2247101"><ele>204.0</ele><time>2026-04-11T16:42:20.007Z</time></trkpt><trkpt lat="45.6323462" lon="9.2246955"><ele>204.0</ele><time>2026-04-11T16:42:21.008Z</time></trkpt><trkpt lat="45.6320564" lon="9.2246846"><ele>204.0</ele><time>2026-04-11T16:42:22.008Z</time></trkpt><trkpt lat="45.6317732" lon="9.2246631"><ele>206.0</ele><time>2026-04-11T16:42:23.008Z</time></trkpt><trkpt lat="45.6314955" lon="9.2246465"><ele>208.0</ele><time>2026-04-11T16:42:24.008Z</time></trkpt><trkpt lat="45.631213" lon="9.2246271"><ele>206.5</ele><time>2026-04-11T16:42:25.008Z</time></trkpt><trkpt lat="45.6309318" lon="9.2246154"><ele>205.0</ele><time>2026-04-11T16:42:26.008Z</time></trkpt><trkpt lat="45.6306489" lon="9.2246028"><ele>205.0</ele><time>2026-04-11T16:42:27.008Z</time></trkpt><trkpt lat="45.6303664" lon="9.2245867"><ele>205.0</ele><time>2026-04-11T16:42:28.008Z</time></trkpt><trkpt lat="45.6300833" lon="9.2245697"><ele>204.0</ele><time>2026-04-11T16:42:29.008Z</time></trkpt><trkpt lat="45.6298043" lon="9.2245525"><ele>203.0</ele><time>2026-04-11T16:42:30.008Z</time></trkpt><trkpt lat="45.6295254" lon="9.2245418"><ele>203.0</ele><time>2026-04-11T16:42:31.008Z</time></trkpt><trkpt lat="45.6292484" lon="9.2245274"><ele>203.0</ele><time>2026-04-11T16:42:32.008Z</time></trkpt><trkpt lat="45.62897" lon="9.2245126"><ele>203.0</ele><time>2026-04-11T16:42:33.008Z</time></trkpt><trkpt lat="45.6286885" lon="9.2244968"><ele>203.0</ele><time>2026-04-11T16:42:34.008Z</time></trkpt><trkpt lat="45.6284112" lon="9.2244856"><ele>204.0</ele><time>2026-04-11T16:42:35.008Z</time></trkpt><trkpt lat="45.6281317" lon="9.2244763"><ele>205.0</ele><time>2026-04-11T16:42:36.008Z</time></trkpt><trkpt lat="45.6278527" lon="9.2244627"><ele>204.5</ele><time>2026-04-11T16:42:37.008Z</time></trkpt><trkpt lat="45.6275719" lon="9.2244527"><ele>204.0</ele><time>2026-04-11T16:42:38.008Z</time></trkpt><trkpt lat="45.6272913" lon="9.2244404"><ele>204.0</ele><time>2026-04-11T16:42:39.008Z</time></trkpt><trkpt lat="45.6270142" lon="9.224432"><ele>204.0</ele><time>2026-04-11T16:42:40.008Z</time></trkpt><trkpt lat="45.6267482" lon="9.2244138"><ele>202.0</ele><time>2026-04-11T16:42:41.008Z</time></trkpt><trkpt lat="45.626493" lon="9.224409"><ele>200.0</ele><time>2026-04-11T16:42:42.008Z</time></trkpt><trkpt lat="45.62625" lon="9.2244105"><ele>200.0</ele><time>2026-04-11T16:42:43.008Z</time></trkpt><trkpt lat="45.6260107" lon="9.2244003"><ele>200.0</ele><time>2026-04-11T16:42:44.008Z</time></trkpt><trkpt lat="45.6257704" lon="9.2243792"><ele>200.0</ele><time>2026-04-11T16:42:45.008Z</time></trkpt><trkpt lat="45.6255272" lon="9.2243528"><ele>200.0</ele><time>2026-04-11T16:42:46.008Z</time></trkpt><trkpt lat="45.6252713" lon="9.2243299"><ele>199.0</ele><time>2026-04-11T16:42:47.008Z</time></trkpt><trkpt lat="45.6249988" lon="9.2243162"><ele>198.0</ele><time>2026-04-11T16:42:48.008Z</time></trkpt><trkpt lat="45.6247255" lon="9.2243047"><ele>198.0</ele><time>2026-04-11T16:42:49.007Z</time></trkpt><trkpt lat="45.6244445" lon="9.2243056"><ele>198.0</ele><time>2026-04-11T16:42:50.008Z</time></trkpt><trkpt lat="45.6241599" lon="9.2243072"><ele>198.0</ele><time>2026-04-11T16:42:51.008Z</time></trkpt><trkpt lat="45.6238737" lon="9.224301"><ele>198.0</ele><time>2026-04-11T16:42:52.008Z</time></trkpt><trkpt lat="45.6235887" lon="9.2242865"><ele>198.0</ele><time>2026-04-11T16:42:53.008Z</time></trkpt><trkpt lat="45.623302" lon="9.2242688"><ele>198.0</ele><time>2026-04-11T16:42:54.008Z</time></trkpt><trkpt lat="45.623019" lon="9.2242571"><ele>198.0</ele><time>2026-04-11T16:42:55.008Z</time></trkpt><trkpt lat="45.6227346" lon="9.2242373"><ele>198.0</ele><time>2026-04-11T16:42:56.008Z</time></trkpt><trkpt lat="45.6224562" lon="9.2242121"><ele>198.0</ele><time>2026-04-11T16:42:57.008Z</time></trkpt><trkpt lat="45.6221752" lon="9.2241957"><ele>198.0</ele><time>2026-04-11T16:42:58.008Z</time></trkpt><trkpt lat="45.6218966" lon="9.2241797"><ele>198.5</ele><time>2026-04-11T16:42:59.008Z</time></trkpt><trkpt lat="45.621625" lon="9.2241614"><ele>199.0</ele><time>2026-04-11T16:43:00.008Z</time></trkpt><trkpt lat="45.6213486" lon="9.2241444"><ele>198.5</ele><time>2026-04-11T16:43:01.008Z</time></trkpt><trkpt lat="45.6210718" lon="9.2241317"><ele>198.0</ele><time>2026-04-11T16:43:02.008Z</time></trkpt><trkpt lat="45.6207981" lon="9.2241212"><ele>198.0</ele><time>2026-04-11T16:43:03.008Z</time></trkpt><trkpt lat="45.6205251" lon="9.2241089"><ele>198.0</ele><time>2026-04-11T16:43:04.007Z</time></trkpt><trkpt lat="45.6202541" lon="9.2240904"><ele>197.0</ele><time>2026-04-11T16:43:05.008Z</time></trkpt><trkpt lat="45.6199886" lon="9.2240759"><ele>196.0</ele><time>2026-04-11T16:43:06.008Z</time></trkpt><trkpt lat="45.6197196" lon="9.2240645"><ele>195.5</ele><time>2026-04-11T16:43:07.008Z</time></trkpt><trkpt lat="45.6194532" lon="9.2240561"><ele>195.0</ele><time>2026-04-11T16:43:08.008Z</time></trkpt><trkpt lat="45.6191859" lon="9.2240471"><ele>195.0</ele><time>2026-04-11T16:43:09.008Z</time></trkpt><trkpt lat="45.6189169" lon="9.224033"><ele>195.0</ele><time>2026-04-11T16:43:10.008Z</time></trkpt><trkpt lat="45.6186513" lon="9.2240205"><ele>195.0</ele><time>2026-04-11T16:43:11.008Z</time></trkpt><trkpt lat="45.6183788" lon="9.2240147"><ele>195.0</ele><time>2026-04-11T16:43:12.008Z</time></trkpt><trkpt lat="45.618107" lon="9.2239987"><ele>195.0</ele><time>2026-04-11T16:43:13.008Z</time></trkpt><trkpt lat="45.6178333" lon="9.223989"><ele>195.0</ele><time>2026-04-11T16:43:14.008Z</time></trkpt><trkpt lat="45.6175617" lon="9.2239788"><ele>195.0</ele><time>2026-04-11T16:43:15.008Z</time></trkpt><trkpt lat="45.6172929" lon="9.2239586"><ele>195.0</ele><time>2026-04-11T16:43:16.008Z</time></trkpt><trkpt lat="45.6170208" lon="9.2239369"><ele>194.5</ele><time>2026-04-11T16:43:17.007Z</time></trkpt><trkpt lat="45.6167469" lon="9.223913"><ele>194.0</ele><time>2026-04-11T16:43:18.008Z</time></trkpt><trkpt lat="45.6164702" lon="9.2238943"><ele>194.0</ele><time>2026-04-11T16:43:19.008Z</time></trkpt><trkpt lat="45.6161818" lon="9.2238782"><ele>194.0</ele><time>2026-04-11T16:43:20.008Z</time></trkpt><trkpt lat="45.6158926" lon="9.2238705"><ele>194.0</ele><time>2026-04-11T16:43:21.008Z</time></trkpt><trkpt lat="45.6156092" lon="9.2238651"><ele>194.0</ele><time>2026-04-11T16:43:22.008Z</time></trkpt><trkpt lat="45.6153395" lon="9.2238606"><ele>192.5</ele><time>2026-04-11T16:43:23.008Z</time></trkpt><trkpt lat="45.6150893" lon="9.2238442"><ele>191.0</ele><time>2026-04-11T16:43:24.008Z</time></trkpt><trkpt lat="45.6148535" lon="9.2238286"><ele>191.0</ele><time>2026-04-11T16:43:25.008Z</time></trkpt><trkpt lat="45.6146266" lon="9.2238132"><ele>191.0</ele><time>2026-04-11T16:43:26.008Z</time></trkpt><trkpt lat="45.6144053" lon="9.2238019"><ele>191.0</ele><time>2026-04-11T16:43:27.008Z</time></trkpt><trkpt lat="45.6141961" lon="9.2237908"><ele>191.0</ele><time>2026-04-11T16:43:28.008Z</time></trkpt><trkpt lat="45.6139916" lon="9.2237841"><ele>191.0</ele><time>2026-04-11T16:43:29.008Z</time></trkpt><trkpt lat="45.6137969" lon="9.2237773"><ele>191.0</ele><time>2026-04-11T16:43:30.008Z</time></trkpt><trkpt lat="45.6135942" lon="9.2237727"><ele>191.66666666666666</ele><time>2026-04-11T16:43:31.008Z</time></trkpt><trkpt lat="45.6133895" lon="9.2237665"><ele>192.33333333333331</ele><time>2026-04-11T16:43:32.008Z</time></trkpt><trkpt lat="45.6131832" lon="9.2237569"><ele>193.0</ele><time>2026-04-11T16:43:33.008Z</time></trkpt><trkpt lat="45.6129802" lon="9.2237503"><ele>192.33333333333331</ele><time>2026-04-11T16:43:34.008Z</time></trkpt><trkpt lat="45.612777" lon="9.2237434"><ele>191.66666666666666</ele><time>2026-04-11T16:43:35.007Z</time></trkpt><trkpt lat="45.6125808" lon="9.2237251"><ele>191.0</ele><time>2026-04-11T16:43:36.008Z</time></trkpt><trkpt lat="45.612372" lon="9.2237116"><ele>191.0</ele><time>2026-04-11T16:43:37.008Z</time></trkpt><trkpt lat="45.6121531" lon="9.2236941"><ele>191.0</ele><time>2026-04-11T16:43:38.008Z</time></trkpt><trkpt lat="45.6119267" lon="9.2236752"><ele>191.0</ele><time>2026-04-11T16:43:39.008Z</time></trkpt><trkpt lat="45.6116872" lon="9.2236642"><ele>191.5</ele><time>2026-04-11T16:43:40.008Z</time></trkpt><trkpt lat="45.6114461" lon="9.2236402"><ele>192.0</ele><time>2026-04-11T16:43:41.008Z</time></trkpt><trkpt lat="45.6111923" lon="9.2236237"><ele>191.5</ele><time>2026-04-11T16:43:42.008Z</time></trkpt><trkpt lat="45.6109353" lon="9.2236055"><ele>191.0</ele><time>2026-04-11T16:43:43.008Z</time></trkpt><trkpt lat="45.6106775" lon="9.2235912"><ele>191.0</ele><time>2026-04-11T16:43:44.008Z</time></trkpt><trkpt lat="45.6104266" lon="9.2235778"><ele>191.0</ele><time>2026-04-11T16:43:45.008Z</time></trkpt><trkpt lat="45.6101867" lon="9.2235678"><ele>191.33333333333331</ele><time>2026-04-11T16:43:46.007Z</time></trkpt><trkpt lat="45.6099596" lon="9.2235664"><ele>191.66666666666666</ele><time>2026-04-11T16:43:47.008Z</time></trkpt><trkpt lat="45.6097426" lon="9.2235815"><ele>192.0</ele><time>2026-04-11T16:43:48.008Z</time></trkpt><trkpt lat="45.6095356" lon="9.2236147"><ele>191.66666666666666</ele><time>2026-04-11T16:43:49.007Z</time></trkpt><trkpt lat="45.6093365" lon="9.2236647"><ele>191.33333333333331</ele><time>2026-04-11T16:43:50.007Z</time></trkpt><trkpt lat="45.6091349" lon="9.2237351"><ele>191.0</ele><time>2026-04-11T16:43:51.008Z</time></trkpt><trkpt lat="45.6089305" lon="9.2238176"><ele>191.0</ele><time>2026-04-11T16:43:52.008Z</time></trkpt><trkpt lat="45.6087206" lon="9.223914"><ele>191.0</ele><time>2026-04-11T16:43:53.007Z</time></trkpt><trkpt lat="45.6085028" lon="9.2240335"><ele>189.5</ele><time>2026-04-11T16:43:54.008Z</time></trkpt><trkpt lat="45.6082822" lon="9.2241972"><ele>188.0</ele><time>2026-04-11T16:43:55.008Z</time></trkpt><trkpt lat="45.608064" lon="9.2243885"><ele>188.0</ele><time>2026-04-11T16:43:56.008Z</time></trkpt><trkpt lat="45.6078536" lon="9.2246099"><ele>188.0</ele><time>2026-04-11T16:43:57.008Z</time></trkpt><trkpt lat="45.6076401" lon="9.2248462"><ele>187.0</ele><time>2026-04-11T16:43:58.008Z</time></trkpt><trkpt lat="45.6074183" lon="9.2250961"><ele>186.0</ele><time>2026-04-11T16:43:59.008Z</time></trkpt><trkpt lat="45.6071953" lon="9.2253476"><ele>187.0</ele><time>2026-04-11T16:44:00.008Z</time></trkpt><trkpt lat="45.6069679" lon="9.2255958"><ele>188.0</ele><time>2026-04-11T16:44:01.008Z</time></trkpt><trkpt lat="45.6067439" lon="9.2258417"><ele>188.0</ele><time>2026-04-11T16:44:02.007Z</time></trkpt><trkpt lat="45.6065281" lon="9.2260889"><ele>188.0</ele><time>2026-04-11T16:44:03.008Z</time></trkpt><trkpt lat="45.6063149" lon="9.2263343"><ele>187.0</ele><time>2026-04-11T16:44:04.008Z</time></trkpt><trkpt lat="45.6061197" lon="9.2265667"><ele>186.0</ele><time>2026-04-11T16:44:05.008Z</time></trkpt><trkpt lat="45.6059351" lon="9.2268012"><ele>186.0</ele><time>2026-04-11T16:44:06.008Z</time></trkpt><trkpt lat="45.6057464" lon="9.2270274"><ele>186.0</ele><time>2026-04-11T16:44:07.008Z</time></trkpt><trkpt lat="45.6055472" lon="9.2272677"><ele>186.5</ele><time>2026-04-11T16:44:08.008Z</time></trkpt><trkpt lat="45.6053385" lon="9.2275102"><ele>187.0</ele><time>2026-04-11T16:44:09.008Z</time></trkpt><trkpt lat="45.6051227" lon="9.2277509"><ele>187.0</ele><time>2026-04-11T16:44:10.008Z</time></trkpt><trkpt lat="45.604904" lon="9.228"><ele>187.0</ele><time>2026-04-11T16:44:11.008Z</time></trkpt><trkpt lat="45.6046694" lon="9.2282607"><ele>186.0</ele><time>2026-04-11T16:44:12.008Z</time></trkpt><trkpt lat="45.6044317" lon="9.2285274"><ele>185.0</ele><time>2026-04-11T16:44:13.008Z</time></trkpt><trkpt lat="45.6041948" lon="9.2287921"><ele>185.0</ele><time>2026-04-11T16:44:14.008Z</time></trkpt><trkpt lat="45.6039507" lon="9.2290633"><ele>185.0</ele><time>2026-04-11T16:44:15.008Z</time></trkpt><trkpt lat="45.6037008" lon="9.2293286"><ele>184.5</ele><time>2026-04-11T16:44:16.008Z</time></trkpt><trkpt lat="45.6034531" lon="9.229595"><ele>184.0</ele><time>2026-04-11T16:44:17.008Z</time></trkpt><trkpt lat="45.6032" lon="9.2298579"><ele>184.0</ele><time>2026-04-11T16:44:18.008Z</time></trkpt><trkpt lat="45.6029515" lon="9.2301363"><ele>184.0</ele><time>2026-04-11T16:44:19.008Z</time></trkpt><trkpt lat="45.6027003" lon="9.230413"><ele>184.0</ele><time>2026-04-11T16:44:20.008Z</time></trkpt><trkpt lat="45.6024492" lon="9.2306941"><ele>184.0</ele><time>2026-04-11T16:44:21.008Z</time></trkpt><trkpt lat="45.602201" lon="9.2309707"><ele>183.5</ele><time>2026-04-11T16:44:22.008Z</time></trkpt><trkpt lat="45.6019613" lon="9.2312508"><ele>183.0</ele><time>2026-04-11T16:44:23.008Z</time></trkpt><trkpt lat="45.6017317" lon="9.2315129"><ele>182.5</ele><time>2026-04-11T16:44:24.008Z</time></trkpt><trkpt lat="45.6015042" lon="9.2317748"><ele>182.0</ele><time>2026-04-11T16:44:25.008Z</time></trkpt><trkpt lat="45.6012918" lon="9.2320249"><ele>184.0</ele><time>2026-04-11T16:44:26.008Z</time></trkpt><trkpt lat="45.6010957" lon="9.2322841"><ele>186.0</ele><time>2026-04-11T16:44:27.008Z</time></trkpt><trkpt lat="45.6009069" lon="9.2325516"><ele>185.5</ele><time>2026-04-11T16:44:28.008Z</time></trkpt><trkpt lat="45.6007308" lon="9.2328424"><ele>185.0</ele><time>2026-04-11T16:44:29.008Z</time></trkpt><trkpt lat="45.6005625" lon="9.2331443"><ele>185.0</ele><time>2026-04-11T16:44:30.008Z</time></trkpt><trkpt lat="45.6004054" lon="9.233454"><ele>185.0</ele><time>2026-04-11T16:44:31.007Z</time></trkpt><trkpt lat="45.6002653" lon="9.2337801"><ele>184.0</ele><time>2026-04-11T16:44:32.008Z</time></trkpt><trkpt lat="45.6001346" lon="9.2341191"><ele>183.0</ele><time>2026-04-11T16:44:33.008Z</time></trkpt><trkpt lat="45.6000243" lon="9.234467"><ele>183.0</ele><time>2026-04-11T16:44:34.008Z</time></trkpt><trkpt lat="45.5999269" lon="9.2348287"><ele>183.0</ele><time>2026-04-11T16:44:35.008Z</time></trkpt><trkpt lat="45.599832" lon="9.235195"><ele>183.0</ele><time>2026-04-11T16:44:36.008Z</time></trkpt><trkpt lat="45.599731" lon="9.2355542"><ele>183.0</ele><time>2026-04-11T16:44:37.008Z</time></trkpt><trkpt lat="45.599626" lon="9.235924"><ele>183.5</ele><time>2026-04-11T16:44:38.008Z</time></trkpt><trkpt lat="45.5995279" lon="9.2362899"><ele>184.0</ele><time>2026-04-11T16:44:39.008Z</time></trkpt><trkpt lat="45.5994272" lon="9.2366416"><ele>182.0</ele><time>2026-04-11T16:44:40.007Z</time></trkpt><trkpt lat="45.5993268" lon="9.2369918"><ele>180.0</ele><time>2026-04-11T16:44:41.008Z</time></trkpt><trkpt lat="45.5992271" lon="9.2373453"><ele>180.0</ele><time>2026-04-11T16:44:42.008Z</time></trkpt><trkpt lat="45.5991273" lon="9.2376951"><ele>180.0</ele><time>2026-04-11T16:44:43.007Z</time></trkpt><trkpt lat="45.5990226" lon="9.2380474"><ele>180.0</ele><time>2026-04-11T16:44:44.008Z</time></trkpt><trkpt lat="45.5989132" lon="9.2384105"><ele>180.0</ele><time>2026-04-11T16:44:45.008Z</time></trkpt><trkpt lat="45.5988" lon="9.2387715"><ele>180.5</ele><time>2026-04-11T16:44:46.008Z</time></trkpt><trkpt lat="45.5986888" lon="9.2391431"><ele>181.0</ele><time>2026-04-11T16:44:47.008Z</time></trkpt><trkpt lat="45.5985751" lon="9.2395118"><ele>182.0</ele><time>2026-04-11T16:44:48.008Z</time></trkpt><trkpt lat="45.5984564" lon="9.2398819"><ele>183.0</ele><time>2026-04-11T16:44:49.008Z</time></trkpt><trkpt lat="45.5983313" lon="9.2402403"><ele>183.0</ele><time>2026-04-11T16:44:50.008Z</time></trkpt><trkpt lat="45.598206" lon="9.2405753"><ele>183.0</ele><time>2026-04-11T16:44:51.008Z</time></trkpt><trkpt lat="45.598072" lon="9.2409021"><ele>182.0</ele><time>2026-04-11T16:44:52.008Z</time></trkpt><trkpt lat="45.5979231" lon="9.2412116"><ele>181.0</ele><time>2026-04-11T16:44:53.008Z</time></trkpt><trkpt lat="45.5977519" lon="9.2415146"><ele>180.5</ele><time>2026-04-11T16:44:54.008Z</time></trkpt><trkpt lat="45.5975697" lon="9.2417959"><ele>180.0</ele><time>2026-04-11T16:44:55.008Z</time></trkpt><trkpt lat="45.5973706" lon="9.2420488"><ele>180.0</ele><time>2026-04-11T16:44:56.008Z</time></trkpt><trkpt lat="45.5971515" lon="9.2422988"><ele>180.0</ele><time>2026-04-11T16:44:57.008Z</time></trkpt><trkpt lat="45.5969198" lon="9.2425223"><ele>179.0</ele><time>2026-04-11T16:44:58.008Z</time></trkpt><trkpt lat="45.5966586" lon="9.2427114"><ele>178.0</ele><time>2026-04-11T16:44:59.008Z</time></trkpt><trkpt lat="45.596389" lon="9.2428936"><ele>179.0</ele><time>2026-04-11T16:45:00.008Z</time></trkpt><trkpt lat="45.5961144" lon="9.2430624"><ele>180.0</ele><time>2026-04-11T16:45:01.008Z</time></trkpt><trkpt lat="45.5958312" lon="9.2432197"><ele>180.0</ele><time>2026-04-11T16:45:02.008Z</time></trkpt><trkpt lat="45.5955426" lon="9.2433869"><ele>180.0</ele><time>2026-04-11T16:45:03.007Z</time></trkpt><trkpt lat="45.5952607" lon="9.2435557"><ele>179.5</ele><time>2026-04-11T16:45:04.008Z</time></trkpt><trkpt lat="45.5949746" lon="9.2437259"><ele>179.0</ele><time>2026-04-11T16:45:05.008Z</time></trkpt><trkpt lat="45.5946896" lon="9.2438872"><ele>177.0</ele><time>2026-04-11T16:45:06.008Z</time></trkpt><trkpt lat="45.5944056" lon="9.244055"><ele>175.0</ele><time>2026-04-11T16:45:07.008Z</time></trkpt><trkpt lat="45.5941217" lon="9.2442218"><ele>175.0</ele><time>2026-04-11T16:45:08.008Z</time></trkpt><trkpt lat="45.5938397" lon="9.2443835"><ele>175.0</ele><time>2026-04-11T16:45:09.008Z</time></trkpt><trkpt lat="45.593566" lon="9.2445334"><ele>175.0</ele><time>2026-04-11T16:45:10.007Z</time></trkpt><trkpt lat="45.593287" lon="9.2446927"><ele>175.0</ele><time>2026-04-11T16:45:11.007Z</time></trkpt><trkpt lat="45.5930075" lon="9.2448556"><ele>176.0</ele><time>2026-04-11T16:45:12.008Z</time></trkpt><trkpt lat="45.5927345" lon="9.2450141"><ele>177.0</ele><time>2026-04-11T16:45:13.008Z</time></trkpt><trkpt lat="45.5924684" lon="9.2451674"><ele>177.0</ele><time>2026-04-11T16:45:14.008Z</time></trkpt><trkpt lat="45.5922146" lon="9.2453083"><ele>177.0</ele><time>2026-04-11T16:45:15.008Z</time></trkpt><trkpt lat="45.591972" lon="9.2454358"><ele>177.5</ele><time>2026-04-11T16:45:16.008Z</time></trkpt><trkpt lat="45.5917353" lon="9.2455664"><ele>178.0</ele><time>2026-04-11T16:45:17.008Z</time></trkpt><trkpt lat="45.5915023" lon="9.2456953"><ele>178.0</ele><time>2026-04-11T16:45:18.008Z</time></trkpt><trkpt lat="45.5912618" lon="9.2458306"><ele>178.0</ele><time>2026-04-11T16:45:19.008Z</time></trkpt><trkpt lat="45.591023" lon="9.2459725"><ele>177.0</ele><time>2026-04-11T16:45:20.008Z</time></trkpt><trkpt lat="45.5907839" lon="9.2461216"><ele>176.0</ele><time>2026-04-11T16:45:21.007Z</time></trkpt><trkpt lat="45.5905518" lon="9.2462711"><ele>176.0</ele><time>2026-04-11T16:45:22.008Z</time></trkpt><trkpt lat="45.590325" lon="9.246436"><ele>176.0</ele><time>2026-04-11T16:45:23.008Z</time></trkpt><trkpt lat="45.5900978" lon="9.246604"><ele>176.0</ele><time>2026-04-11T16:45:24.008Z</time></trkpt><trkpt lat="45.5898702" lon="9.2467825"><ele>176.0</ele><time>2026-04-11T16:45:25.008Z</time></trkpt><trkpt lat="45.5896429" lon="9.2469603"><ele>175.0</ele><time>2026-04-11T16:45:26.008Z</time></trkpt><trkpt lat="45.5894127" lon="9.2471397"><ele>174.0</ele><time>2026-04-11T16:45:27.007Z</time></trkpt><trkpt lat="45.5891852" lon="9.2473229"><ele>174.0</ele><time>2026-04-11T16:45:28.008Z</time></trkpt><trkpt lat="45.5889581" lon="9.2475046"><ele>174.0</ele><time>2026-04-11T16:45:29.008Z</time></trkpt><trkpt lat="45.5887336" lon="9.2476881"><ele>172.5</ele><time>2026-04-11T16:45:30.008Z</time></trkpt><trkpt lat="45.5885061" lon="9.2478766"><ele>171.0</ele><time>2026-04-11T16:45:31.008Z</time></trkpt><trkpt lat="45.5882778" lon="9.2480665"><ele>172.0</ele><time>2026-04-11T16:45:32.007Z</time></trkpt><trkpt lat="45.5880527" lon="9.2482524"><ele>173.0</ele><time>2026-04-11T16:45:33.008Z</time></trkpt><trkpt lat="45.5878292" lon="9.2484336"><ele>173.0</ele><time>2026-04-11T16:45:34.008Z</time></trkpt><trkpt lat="45.5876095" lon="9.2486117"><ele>173.0</ele><time>2026-04-11T16:45:35.008Z</time></trkpt><trkpt lat="45.5873916" lon="9.2487862"><ele>173.5</ele><time>2026-04-11T16:45:36.006Z</time></trkpt><trkpt lat="45.5871755" lon="9.2489692"><ele>174.0</ele><time>2026-04-11T16:45:37.007Z</time></trkpt><trkpt lat="45.5869678" lon="9.2491436"><ele>173.0</ele><time>2026-04-11T16:45:38.007Z</time></trkpt><trkpt lat="45.5867625" lon="9.2493161"><ele>172.0</ele><time>2026-04-11T16:45:39.007Z</time></trkpt><trkpt lat="45.5865574" lon="9.2494861"><ele>172.0</ele><time>2026-04-11T16:45:40.007Z</time></trkpt><trkpt lat="45.5863468" lon="9.2496607"><ele>172.0</ele><time>2026-04-11T16:45:41.007Z</time></trkpt><trkpt lat="45.5861363" lon="9.2498308"><ele>171.5</ele><time>2026-04-11T16:45:42.007Z</time></trkpt><trkpt lat="45.5859233" lon="9.2500082"><ele>171.0</ele><time>2026-04-11T16:45:43.007Z</time></trkpt><trkpt lat="45.5857037" lon="9.2501678"><ele>171.0</ele><time>2026-04-11T16:45:44.007Z</time></trkpt><trkpt lat="45.5854768" lon="9.2503187"><ele>171.0</ele><time>2026-04-11T16:45:45.007Z</time></trkpt><trkpt lat="45.5852454" lon="9.2504542"><ele>170.0</ele><time>2026-04-11T16:45:46.007Z</time></trkpt><trkpt lat="45.5850038" lon="9.2505682"><ele>169.0</ele><time>2026-04-11T16:45:47.007Z</time></trkpt><trkpt lat="45.5847662" lon="9.2506536"><ele>161.0</ele><time>2026-04-11T16:45:48.007Z</time></trkpt><trkpt lat="45.568432" lon="9.2449817"><ele>161.0</ele><time>2026-04-11T16:46:55.006Z</time></trkpt><trkpt lat="45.5682412" lon="9.2448924"><ele>161.0</ele><time>2026-04-11T16:46:56.006Z</time></trkpt><trkpt lat="45.5680419" lon="9.2448073"><ele>161.0</ele><time>2026-04-11T16:46:57.007Z</time></trkpt><trkpt lat="45.5678423" lon="9.244738"><ele>160.0</ele><time>2026-04-11T16:46:58.007Z</time></trkpt><trkpt lat="45.5676353" lon="9.2446529"><ele>159.0</ele><time>2026-04-11T16:46:59.006Z</time></trkpt><trkpt lat="45.5674358" lon="9.2445607"><ele>158.0</ele><time>2026-04-11T16:47:00.007Z</time></trkpt><trkpt lat="45.5672296" lon="9.2444702"><ele>158.33333333333331</ele><time>2026-04-11T16:47:01.007Z</time></trkpt><trkpt lat="45.5670193" lon="9.2443849"><ele>158.66666666666666</ele><time>2026-04-11T16:47:02.007Z</time></trkpt><trkpt lat="45.566808" lon="9.2442987"><ele>159.0</ele><time>2026-04-11T16:47:03.007Z</time></trkpt><trkpt lat="45.5665973" lon="9.2442172"><ele>159.0</ele><time>2026-04-11T16:47:04.007Z</time></trkpt><trkpt lat="45.5663831" lon="9.2441297"><ele>159.0</ele><time>2026-04-11T16:47:05.007Z</time></trkpt><trkpt lat="45.5661651" lon="9.2440505"><ele>159.0</ele><time>2026-04-11T16:47:06.007Z</time></trkpt><trkpt lat="45.5659472" lon="9.2439631"><ele>160.0</ele><time>2026-04-11T16:47:07.007Z</time></trkpt><trkpt lat="45.5657248" lon="9.2438765"><ele>161.0</ele><time>2026-04-11T16:47:08.007Z</time></trkpt><trkpt lat="45.565497" lon="9.2437875"><ele>160.0</ele><time>2026-04-11T16:47:09.007Z</time></trkpt><trkpt lat="45.5652695" lon="9.2436983"><ele>159.0</ele><time>2026-04-11T16:47:10.007Z</time></trkpt><trkpt lat="45.5650475" lon="9.2436187"><ele>159.0</ele><time>2026-04-11T16:47:11.007Z</time></trkpt><trkpt lat="45.5648389" lon="9.2435274"><ele>159.0</ele><time>2026-04-11T16:47:12.007Z</time></trkpt><trkpt lat="45.5646337" lon="9.2434404"><ele>159.0</ele><time>2026-04-11T16:47:13.007Z</time></trkpt><trkpt lat="45.5644423" lon="9.2433585"><ele>158.66666666666666</ele><time>2026-04-11T16:47:14.007Z</time></trkpt><trkpt lat="45.5642527" lon="9.2432661"><ele>158.33333333333331</ele><time>2026-04-11T16:47:15.006Z</time></trkpt><trkpt lat="45.5640718" lon="9.2431823"><ele>158.0</ele><time>2026-04-11T16:47:16.007Z</time></trkpt><trkpt lat="45.563899" lon="9.2430937"><ele>158.0</ele><time>2026-04-11T16:47:17.007Z</time></trkpt><trkpt lat="45.563731" lon="9.243023"><ele>158.0</ele><time>2026-04-11T16:47:18.006Z</time></trkpt><trkpt lat="45.5635547" lon="9.2429542"><ele>158.0</ele><time>2026-04-11T16:47:19.006Z</time></trkpt><trkpt lat="45.5633757" lon="9.2428849"><ele>158.0</ele><time>2026-04-11T16:47:20.007Z</time></trkpt><trkpt lat="45.5631968" lon="9.242822"><ele>158.0</ele><time>2026-04-11T16:47:21.007Z</time></trkpt><trkpt lat="45.5630121" lon="9.2427606"><ele>158.0</ele><time>2026-04-11T16:47:22.007Z</time></trkpt><trkpt lat="45.5628288" lon="9.2426886"><ele>158.0</ele><time>2026-04-11T16:47:23.007Z</time></trkpt><trkpt lat="45.5626475" lon="9.2426139"><ele>158.0</ele><time>2026-04-11T16:47:24.007Z</time></trkpt><trkpt lat="45.5624606" lon="9.2425362"><ele>158.0</ele><time>2026-04-11T16:47:25.007Z</time></trkpt><trkpt lat="45.5622702" lon="9.242472"><ele>158.0</ele><time>2026-04-11T16:47:26.007Z</time></trkpt><trkpt lat="45.5620687" lon="9.2423912"><ele>158.0</ele><time>2026-04-11T16:47:27.007Z</time></trkpt><trkpt lat="45.5618591" lon="9.2423117"><ele>158.0</ele><time>2026-04-11T16:47:28.007Z</time></trkpt><trkpt lat="45.5616466" lon="9.2422193"><ele>157.33333333333331</ele><time>2026-04-11T16:47:29.007Z</time></trkpt><trkpt lat="45.5614409" lon="9.2421274"><ele>156.66666666666666</ele><time>2026-04-11T16:47:30.007Z</time></trkpt><trkpt lat="45.5612354" lon="9.2420376"><ele>156.0</ele><time>2026-04-11T16:47:31.007Z</time></trkpt><trkpt lat="45.5610264" lon="9.2419378"><ele>154.33333333333334</ele><time>2026-04-11T16:47:32.007Z</time></trkpt><trkpt lat="45.5608279" lon="9.2418381"><ele>152.66666666666669</ele><time>2026-04-11T16:47:33.007Z</time></trkpt><trkpt lat="45.5606204" lon="9.2417492"><ele>151.0</ele><time>2026-04-11T16:47:34.006Z</time></trkpt><trkpt lat="45.5604093" lon="9.2416622"><ele>152.0</ele><time>2026-04-11T16:47:35.007Z</time></trkpt><trkpt lat="45.5601782" lon="9.2415696"><ele>153.0</ele><time>2026-04-11T16:47:36.007Z</time></trkpt><trkpt lat="45.5599434" lon="9.2414819"><ele>153.0</ele><time>2026-04-11T16:47:37.007Z</time></trkpt><trkpt lat="45.5597094" lon="9.2413861"><ele>153.0</ele><time>2026-04-11T16:47:38.007Z</time></trkpt><trkpt lat="45.5594859" lon="9.2412822"><ele>153.0</ele><time>2026-04-11T16:47:39.007Z</time></trkpt><trkpt lat="45.5592616" lon="9.24118"><ele>153.0</ele><time>2026-04-11T16:47:40.006Z</time></trkpt><trkpt lat="45.5590492" lon="9.2410864"><ele>153.0</ele><time>2026-04-11T16:47:41.007Z</time></trkpt><trkpt lat="45.5588464" lon="9.2409973"><ele>153.0</ele><time>2026-04-11T16:47:42.006Z</time></trkpt><trkpt lat="45.5586461" lon="9.240902"><ele>153.0</ele><time>2026-04-11T16:47:43.007Z</time></trkpt><trkpt lat="45.5584522" lon="9.2408105"><ele>153.0</ele><time>2026-04-11T16:47:44.007Z</time></trkpt><trkpt lat="45.5582583" lon="9.2407253"><ele>153.0</ele><time>2026-04-11T16:47:45.007Z</time></trkpt><trkpt lat="45.5580621" lon="9.2406368"><ele>153.0</ele><time>2026-04-11T16:47:46.006Z</time></trkpt><trkpt lat="45.5578656" lon="9.2405543"><ele>152.66666666666666</ele><time>2026-04-11T16:47:47.007Z</time></trkpt><trkpt lat="45.5576727" lon="9.2404693"><ele>152.33333333333331</ele><time>2026-04-11T16:47:48.007Z</time></trkpt><trkpt lat="45.5574751" lon="9.2403858"><ele>152.0</ele><time>2026-04-11T16:47:49.007Z</time></trkpt><trkpt lat="45.5572912" lon="9.2403039"><ele>152.0</ele><time>2026-04-11T16:47:50.007Z</time></trkpt><trkpt lat="45.5571201" lon="9.2402386"><ele>152.0</ele><time>2026-04-11T16:47:51.007Z</time></trkpt><trkpt lat="45.5569764" lon="9.2401795"><ele>152.0</ele><time>2026-04-11T16:47:52.007Z</time></trkpt><trkpt lat="45.5568412" lon="9.2401221"><ele>152.5</ele><time>2026-04-11T16:47:53.007Z</time></trkpt><trkpt lat="45.5567242" lon="9.2400497"><ele>153.0</ele><time>2026-04-11T16:47:54.006Z</time></trkpt><trkpt lat="45.5566326" lon="9.239933"><ele>153.5</ele><time>2026-04-11T16:47:55.007Z</time></trkpt><trkpt lat="45.5565625" lon="9.2397911"><ele>154.0</ele><time>2026-04-11T16:47:56.007Z</time></trkpt><trkpt lat="45.5565257" lon="9.2396444"><ele>154.0</ele><time>2026-04-11T16:47:57.007Z</time></trkpt><trkpt lat="45.5565182" lon="9.2394719"><ele>154.0</ele><time>2026-04-11T16:47:58.007Z</time></trkpt><trkpt lat="45.5565107" lon="9.2392798"><ele>154.0</ele><time>2026-04-11T16:47:59.007Z</time></trkpt><trkpt lat="45.5564962" lon="9.2391033"><ele>154.0</ele><time>2026-04-11T16:48:00.006Z</time></trkpt><trkpt lat="45.5564695" lon="9.2389453"><ele>153.8</ele><time>2026-04-11T16:48:01.007Z</time></trkpt><trkpt lat="45.5564339" lon="9.2387918"><ele>153.60000000000002</ele><time>2026-04-11T16:48:02.007Z</time></trkpt><trkpt lat="45.5563796" lon="9.2386566"><ele>153.4</ele><time>2026-04-11T16:48:03.007Z</time></trkpt><trkpt lat="45.5563092" lon="9.2385517"><ele>153.20000000000002</ele><time>2026-04-11T16:48:04.007Z</time></trkpt><trkpt lat="45.5562185" lon="9.2384655"><ele>153.0</ele><time>2026-04-11T16:48:05.006Z</time></trkpt><trkpt lat="45.5561152" lon="9.2384053"><ele>152.5</ele><time>2026-04-11T16:48:06.005Z</time></trkpt><trkpt lat="45.5560068" lon="9.2383758"><ele>152.0</ele><time>2026-04-11T16:48:07.006Z</time></trkpt><trkpt lat="45.5558949" lon="9.238384"><ele>151.5</ele><time>2026-04-11T16:48:08.006Z</time></trkpt><trkpt lat="45.5557827" lon="9.2384337"><ele>151.0</ele><time>2026-04-11T16:48:09.006Z</time></trkpt><trkpt lat="45.5556775" lon="9.238499"><ele>151.0</ele><time>2026-04-11T16:48:10.006Z</time></trkpt><trkpt lat="45.5555972" lon="9.238584"><ele>151.0</ele><time>2026-04-11T16:48:11.006Z</time></trkpt><trkpt lat="45.5555428" lon="9.238668"><ele>151.0</ele><time>2026-04-11T16:48:12.006Z</time></trkpt><trkpt lat="45.5555013" lon="9.2387554"><ele>151.0</ele><time>2026-04-11T16:48:13.005Z</time></trkpt><trkpt lat="45.5554689" lon="9.2388392"><ele>151.0</ele><time>2026-04-11T16:48:14.006Z</time></trkpt><trkpt lat="45.5554305" lon="9.2389902"><ele>151.0</ele><time>2026-04-11T16:48:16.006Z</time></trkpt><trkpt lat="45.5553932" lon="9.2391272"><ele>151.0</ele><time>2026-04-11T16:48:18.006Z</time></trkpt><trkpt lat="45.5553726" lon="9.239217"><ele>151.0</ele><time>2026-04-11T16:48:19.006Z</time></trkpt><trkpt lat="45.5553513" lon="9.2393194"><ele>151.0</ele><time>2026-04-11T16:48:20.006Z</time></trkpt><trkpt lat="45.5553332" lon="9.2394282"><ele>151.0</ele><time>2026-04-11T16:48:21.006Z</time></trkpt><trkpt lat="45.5553189" lon="9.2395509"><ele>151.0</ele><time>2026-04-11T16:48:22.006Z</time></trkpt><trkpt lat="45.5552963" lon="9.2396838"><ele>151.0</ele><time>2026-04-11T16:48:23.006Z</time></trkpt><trkpt lat="45.5552674" lon="9.2398283"><ele>151.0</ele><time>2026-04-11T16:48:24.006Z</time></trkpt><trkpt lat="45.555236" lon="9.239993"><ele>151.0</ele><time>2026-04-11T16:48:25.006Z</time></trkpt><trkpt lat="45.5552138" lon="9.2401473"><ele>151.0</ele><time>2026-04-11T16:48:26.006Z</time></trkpt><trkpt lat="45.5551784" lon="9.2402985"><ele>151.0</ele><time>2026-04-11T16:48:27.006Z</time></trkpt><trkpt lat="45.5551347" lon="9.2404342"><ele>151.0</ele><time>2026-04-11T16:48:28.006Z</time></trkpt><trkpt lat="45.555109" lon="9.2405442"><ele>151.0</ele><time>2026-04-11T16:48:29.006Z</time></trkpt><trkpt lat="45.55509" lon="9.2406358"><ele>151.0</ele><time>2026-04-11T16:48:30.006Z</time></trkpt><trkpt lat="45.5550762" lon="9.2407401"><ele>151.0</ele><time>2026-04-11T16:48:31.006Z</time></trkpt><trkpt lat="45.5550474" lon="9.2408635"><ele>151.0</ele><time>2026-04-11T16:48:32.006Z</time></trkpt><trkpt lat="45.5550175" lon="9.2409957"><ele>151.0</ele><time>2026-04-11T16:48:33.006Z</time></trkpt><trkpt lat="45.5549996" lon="9.2411278"><ele>151.0</ele><time>2026-04-11T16:48:34.006Z</time></trkpt><trkpt lat="45.5549731" lon="9.2412775"><ele>151.0</ele><time>2026-04-11T16:48:35.006Z</time></trkpt><trkpt lat="45.5549408" lon="9.2414333"><ele>151.0</ele><time>2026-04-11T16:48:36.005Z</time></trkpt><trkpt lat="45.554908" lon="9.2416046"><ele>151.0</ele><time>2026-04-11T16:48:37.006Z</time></trkpt><trkpt lat="45.5548725" lon="9.2417893"><ele>151.0</ele><time>2026-04-11T16:48:38.006Z</time></trkpt><trkpt lat="45.5548365" lon="9.2419693"><ele>151.0</ele><time>2026-04-11T16:48:39.006Z</time></trkpt><trkpt lat="45.5547996" lon="9.2421469"><ele>151.0</ele><time>2026-04-11T16:48:40.006Z</time></trkpt><trkpt lat="45.5547659" lon="9.2423189"><ele>151.0</ele><time>2026-04-11T16:48:41.006Z</time></trkpt><trkpt lat="45.5547312" lon="9.2424826"><ele>151.0</ele><time>2026-04-11T16:48:42.006Z</time></trkpt><trkpt lat="45.5546968" lon="9.2426386"><ele>150.75</ele><time>2026-04-11T16:48:43.006Z</time></trkpt><trkpt lat="45.5546641" lon="9.242783"><ele>150.5</ele><time>2026-04-11T16:48:44.006Z</time></trkpt><trkpt lat="45.5546355" lon="9.2429148"><ele>150.25</ele><time>2026-04-11T16:48:45.006Z</time></trkpt><trkpt lat="45.5546083" lon="9.2430427"><ele>150.0</ele><time>2026-04-11T16:48:46.005Z</time></trkpt><trkpt lat="45.5544065" lon="9.2434706"><ele>150.0</ele><time>2026-04-11T16:48:50.006Z</time></trkpt><trkpt lat="45.5543748" lon="9.2436269"><ele>150.0</ele><time>2026-04-11T16:48:51.006Z</time></trkpt><trkpt lat="45.5543087" lon="9.2437742"><ele>150.0</ele><time>2026-04-11T16:48:52.006Z</time></trkpt><trkpt lat="45.5542419" lon="9.2439232"><ele>150.0</ele><time>2026-04-11T16:48:53.005Z</time></trkpt><trkpt lat="45.554181" lon="9.2440555"><ele>150.0</ele><time>2026-04-11T16:48:54.006Z</time></trkpt><trkpt lat="45.5541089" lon="9.2441727"><ele>150.0</ele><time>2026-04-11T16:48:55.006Z</time></trkpt><trkpt lat="45.5540397" lon="9.2442848"><ele>150.0</ele><time>2026-04-11T16:48:56.006Z</time></trkpt><trkpt lat="45.5539633" lon="9.2443826"><ele>150.0</ele><time>2026-04-11T16:48:57.006Z</time></trkpt><trkpt lat="45.5538798" lon="9.2444757"><ele>150.0</ele><time>2026-04-11T16:48:58.005Z</time></trkpt><trkpt lat="45.553787" lon="9.2445593"><ele>149.8</ele><time>2026-04-11T16:48:59.006Z</time></trkpt><trkpt lat="45.5536933" lon="9.2446454"><ele>149.6</ele><time>2026-04-11T16:49:00.006Z</time></trkpt><trkpt lat="45.5535982" lon="9.2447321"><ele>149.4</ele><time>2026-04-11T16:49:01.006Z</time></trkpt><trkpt lat="45.5535066" lon="9.2448038"><ele>149.2</ele><time>2026-04-11T16:49:02.006Z</time></trkpt><trkpt lat="45.5534229" lon="9.2448628"><ele>149.0</ele><time>2026-04-11T16:49:03.005Z</time></trkpt><trkpt lat="45.5533254" lon="9.2449139"><ele>149.0</ele><time>2026-04-11T16:49:04.006Z</time></trkpt><trkpt lat="45.5532184" lon="9.2449415"><ele>149.0</ele><time>2026-04-11T16:49:05.005Z</time></trkpt><trkpt lat="45.5531245" lon="9.2449534"><ele>149.0</ele><time>2026-04-11T16:49:06.006Z</time></trkpt><trkpt lat="45.5530343" lon="9.2449545"><ele>149.0</ele><time>2026-04-11T16:49:07.006Z</time></trkpt><trkpt lat="45.5529385" lon="9.2449331"><ele>149.0</ele><time>2026-04-11T16:49:08.006Z</time></trkpt><trkpt lat="45.552847" lon="9.2448892"><ele>148.8</ele><time>2026-04-11T16:49:09.006Z</time></trkpt><trkpt lat="45.5527644" lon="9.2448181"><ele>148.60000000000002</ele><time>2026-04-11T16:49:10.006Z</time></trkpt><trkpt lat="45.5526994" lon="9.2447142"><ele>148.4</ele><time>2026-04-11T16:49:11.006Z</time></trkpt><trkpt lat="45.552642" lon="9.2445973"><ele>148.20000000000002</ele><time>2026-04-11T16:49:12.005Z</time></trkpt><trkpt lat="45.5526046" lon="9.2444588"><ele>148.0</ele><time>2026-04-11T16:49:13.006Z</time></trkpt><trkpt lat="45.5525831" lon="9.2443183"><ele>148.8</ele><time>2026-04-11T16:49:14.006Z</time></trkpt><trkpt lat="45.5525649" lon="9.2441827"><ele>149.60000000000002</ele><time>2026-04-11T16:49:15.006Z</time></trkpt><trkpt lat="45.5525469" lon="9.2440473"><ele>150.39999999999998</ele><time>2026-04-11T16:49:16.006Z</time></trkpt><trkpt lat="45.5525308" lon="9.2439296"><ele>151.2</ele><time>2026-04-11T16:49:17.005Z</time></trkpt><trkpt lat="45.5525154" lon="9.2438184"><ele>152.0</ele><time>2026-04-11T16:49:18.006Z</time></trkpt><trkpt lat="45.5524991" lon="9.2436875"><ele>152.0</ele><time>2026-04-11T16:49:19.006Z</time></trkpt><trkpt lat="45.5524816" lon="9.2435452"><ele>152.0</ele><time>2026-04-11T16:49:20.005Z</time></trkpt><trkpt lat="45.5524578" lon="9.2433973"><ele>152.0</ele><time>2026-04-11T16:49:21.005Z</time></trkpt><trkpt lat="45.5524368" lon="9.243244"><ele>152.0</ele><time>2026-04-11T16:49:22.006Z</time></trkpt><trkpt lat="45.5524083" lon="9.2430919"><ele>152.0</ele><time>2026-04-11T16:49:23.006Z</time></trkpt><trkpt lat="45.5523899" lon="9.2429439"><ele>151.79999999999998</ele><time>2026-04-11T16:49:24.005Z</time></trkpt><trkpt lat="45.5523697" lon="9.2428036"><ele>151.6</ele><time>2026-04-11T16:49:25.006Z</time></trkpt><trkpt lat="45.5523496" lon="9.2426734"><ele>151.39999999999998</ele><time>2026-04-11T16:49:26.006Z</time></trkpt><trkpt lat="45.5523332" lon="9.2425328"><ele>151.2</ele><time>2026-04-11T16:49:27.006Z</time></trkpt><trkpt lat="45.5523068" lon="9.2423831"><ele>151.0</ele><time>2026-04-11T16:49:28.006Z</time></trkpt><trkpt lat="45.5522897" lon="9.2422248"><ele>151.0</ele><time>2026-04-11T16:49:29.006Z</time></trkpt><trkpt lat="45.5522638" lon="9.2420589"><ele>151.0</ele><time>2026-04-11T16:49:30.006Z</time></trkpt><trkpt lat="45.5522338" lon="9.2418721"><ele>151.0</ele><time>2026-04-11T16:49:31.006Z</time></trkpt><trkpt lat="45.5522103" lon="9.2416807"><ele>151.0</ele><time>2026-04-11T16:49:32.006Z</time></trkpt><trkpt lat="45.5521856" lon="9.2414906"><ele>151.0</ele><time>2026-04-11T16:49:33.006Z</time></trkpt><trkpt lat="45.5521554" lon="9.2412849"><ele>151.0</ele><time>2026-04-11T16:49:34.005Z</time></trkpt><trkpt lat="45.552124" lon="9.24109"><ele>151.0</ele><time>2026-04-11T16:49:35.006Z</time></trkpt><trkpt lat="45.5520994" lon="9.2408975"><ele>151.0</ele><time>2026-04-11T16:49:36.006Z</time></trkpt><trkpt lat="45.5520731" lon="9.2407048"><ele>151.0</ele><time>2026-04-11T16:49:37.006Z</time></trkpt><trkpt lat="45.5520449" lon="9.2404896"><ele>151.0</ele><time>2026-04-11T16:49:38.006Z</time></trkpt><trkpt lat="45.552015" lon="9.2402599"><ele>151.0</ele><time>2026-04-11T16:49:39.006Z</time></trkpt><trkpt lat="45.5519867" lon="9.2400233"><ele>151.33333333333334</ele><time>2026-04-11T16:49:40.006Z</time></trkpt><trkpt lat="45.5519495" lon="9.2397862"><ele>151.66666666666666</ele><time>2026-04-11T16:49:41.006Z</time></trkpt><trkpt lat="45.5519135" lon="9.2395715"><ele>152.0</ele><time>2026-04-11T16:49:42.005Z</time></trkpt><trkpt lat="45.5518807" lon="9.2393666"><ele>152.0</ele><time>2026-04-11T16:49:43.006Z</time></trkpt><trkpt lat="45.551849" lon="9.2391589"><ele>152.0</ele><time>2026-04-11T16:49:44.006Z</time></trkpt><trkpt lat="45.5518195" lon="9.2389522"><ele>152.0</ele><time>2026-04-11T16:49:45.006Z</time></trkpt><trkpt lat="45.5517872" lon="9.2387496"><ele>152.0</ele><time>2026-04-11T16:49:46.006Z</time></trkpt><trkpt lat="45.5517602" lon="9.2385499"><ele>151.5</ele><time>2026-04-11T16:49:47.005Z</time></trkpt><trkpt lat="45.5517375" lon="9.2383442"><ele>151.0</ele><time>2026-04-11T16:49:48.006Z</time></trkpt><trkpt lat="45.5516801" lon="9.2379026"><ele>150.5</ele><time>2026-04-11T16:49:50.006Z</time></trkpt><trkpt lat="45.5516494" lon="9.2376929"><ele>150.0</ele><time>2026-04-11T16:49:51.006Z</time></trkpt><trkpt lat="45.5516116" lon="9.2375064"><ele>149.5</ele><time>2026-04-11T16:49:52.006Z</time></trkpt><trkpt lat="45.5515694" lon="9.2373242"><ele>149.0</ele><time>2026-04-11T16:49:53.006Z</time></trkpt><trkpt lat="45.5515292" lon="9.2371554"><ele>148.75</ele><time>2026-04-11T16:49:54.006Z</time></trkpt><trkpt lat="45.5514991" lon="9.2369784"><ele>148.5</ele><time>2026-04-11T16:49:55.005Z</time></trkpt><trkpt lat="45.5514675" lon="9.2368125"><ele>148.25</ele><time>2026-04-11T16:49:56.006Z</time></trkpt><trkpt lat="45.5514424" lon="9.2366387"><ele>148.0</ele><time>2026-04-11T16:49:57.006Z</time></trkpt><trkpt lat="45.5514118" lon="9.2364694"><ele>148.0</ele><time>2026-04-11T16:49:58.006Z</time></trkpt><trkpt lat="45.5513708" lon="9.2362904"><ele>148.0</ele><time>2026-04-11T16:49:59.006Z</time></trkpt><trkpt lat="45.5513433" lon="9.2361054"><ele>148.0</ele><time>2026-04-11T16:50:00.006Z</time></trkpt><trkpt lat="45.5501637" lon="9.2286984"><ele>149.0</ele><time>2026-04-11T16:50:17.47Z</time></trkpt><trkpt lat="45.5505732" lon="9.2302653"><ele>149.0</ele><time>2026-04-11T16:50:23.006Z</time></trkpt><trkpt lat="45.5505472" lon="9.2298509"><ele>149.0</ele><time>2026-04-11T16:50:24.006Z</time></trkpt><trkpt lat="45.5504605" lon="9.2294764"><ele>148.5</ele><time>2026-04-11T16:50:25.006Z</time></trkpt><trkpt lat="45.5504331" lon="9.2291602"><ele>148.0</ele><time>2026-04-11T16:50:26.006Z</time></trkpt><trkpt lat="45.5503704" lon="9.2288194"><ele>148.0</ele><time>2026-04-11T16:50:27.006Z</time></trkpt><trkpt lat="45.5503264" lon="9.2284487"><ele>148.0</ele><time>2026-04-11T16:50:28.006Z</time></trkpt><trkpt lat="45.5502159" lon="9.2280902"><ele>147.5</ele><time>2026-04-11T16:50:29.006Z</time></trkpt><trkpt lat="45.5501587" lon="9.2277506"><ele>147.0</ele><time>2026-04-11T16:50:30.006Z</time></trkpt><trkpt lat="45.550096" lon="9.2274074"><ele>148.5</ele><time>2026-04-11T16:50:31.006Z</time></trkpt><trkpt lat="45.5500379" lon="9.2270814"><ele>150.0</ele><time>2026-04-11T16:50:32.006Z</time></trkpt><trkpt lat="45.5499882" lon="9.2267663"><ele>150.0</ele><time>2026-04-11T16:50:33.006Z</time></trkpt><trkpt lat="45.5499353" lon="9.226444"><ele>150.0</ele><time>2026-04-11T16:50:34.005Z</time></trkpt><trkpt lat="45.5498794" lon="9.2261214"><ele>150.0</ele><time>2026-04-11T16:50:35.006Z</time></trkpt><trkpt lat="45.5498212" lon="9.2257995"><ele>150.0</ele><time>2026-04-11T16:50:36.006Z</time></trkpt><trkpt lat="45.549761" lon="9.2254661"><ele>149.5</ele><time>2026-04-11T16:50:37.006Z</time></trkpt><trkpt lat="45.5497078" lon="9.2251352"><ele>149.0</ele><time>2026-04-11T16:50:38.006Z</time></trkpt><trkpt lat="45.5496594" lon="9.224804"><ele>148.5</ele><time>2026-04-11T16:50:39.005Z</time></trkpt><trkpt lat="45.5496132" lon="9.2244727"><ele>148.0</ele><time>2026-04-11T16:50:40.006Z</time></trkpt><trkpt lat="45.5495702" lon="9.2241381"><ele>148.0</ele><time>2026-04-11T16:50:41.006Z</time></trkpt><trkpt lat="45.5495269" lon="9.2238043"><ele>148.0</ele><time>2026-04-11T16:50:42.006Z</time></trkpt><trkpt lat="45.5494804" lon="9.2234665"><ele>148.5</ele><time>2026-04-11T16:50:43.006Z</time></trkpt><trkpt lat="45.5494329" lon="9.2231263"><ele>149.0</ele><time>2026-04-11T16:50:44.005Z</time></trkpt><trkpt lat="45.5493869" lon="9.22279"><ele>149.0</ele><time>2026-04-11T16:50:45.006Z</time></trkpt><trkpt lat="45.5493341" lon="9.2224553"><ele>149.0</ele><time>2026-04-11T16:50:46.006Z</time></trkpt><trkpt lat="45.54928" lon="9.2221196"><ele>149.0</ele><time>2026-04-11T16:50:47.006Z</time></trkpt><trkpt lat="45.5492305" lon="9.2217769"><ele>149.0</ele><time>2026-04-11T16:50:48.006Z</time></trkpt><trkpt lat="45.549182" lon="9.2214411"><ele>149.0</ele><time>2026-04-11T16:50:49.006Z</time></trkpt><trkpt lat="45.5491373" lon="9.2210986"><ele>149.0</ele><time>2026-04-11T16:50:50.006Z</time></trkpt><trkpt lat="45.549095" lon="9.2207559"><ele>150.0</ele><time>2026-04-11T16:50:51.006Z</time></trkpt><trkpt lat="45.5490507" lon="9.2204129"><ele>151.0</ele><time>2026-04-11T16:50:52.006Z</time></trkpt><trkpt lat="45.549012" lon="9.2200638"><ele>151.5</ele><time>2026-04-11T16:50:53.006Z</time></trkpt><trkpt lat="45.5489731" lon="9.219716"><ele>152.0</ele><time>2026-04-11T16:50:54.006Z</time></trkpt><trkpt lat="45.5489418" lon="9.2193666"><ele>152.0</ele><time>2026-04-11T16:50:55.006Z</time></trkpt><trkpt lat="45.5489116" lon="9.2190079"><ele>152.0</ele><time>2026-04-11T16:50:56.006Z</time></trkpt><trkpt lat="45.5488819" lon="9.2186426"><ele>151.5</ele><time>2026-04-11T16:50:57.006Z</time></trkpt><trkpt lat="45.5488606" lon="9.2182861"><ele>151.0</ele><time>2026-04-11T16:50:58.006Z</time></trkpt><trkpt lat="45.5488385" lon="9.2179305"><ele>151.0</ele><time>2026-04-11T16:50:59.006Z</time></trkpt><trkpt lat="45.5488207" lon="9.2175725"><ele>151.0</ele><time>2026-04-11T16:51:00.006Z</time></trkpt><trkpt lat="45.5488101" lon="9.2172127"><ele>150.5</ele><time>2026-04-11T16:51:01.006Z</time></trkpt><trkpt lat="45.5488062" lon="9.2168619"><ele>150.0</ele><time>2026-04-11T16:51:02.006Z</time></trkpt><trkpt lat="45.548788" lon="9.216502"><ele>150.0</ele><time>2026-04-11T16:51:03.006Z</time></trkpt><trkpt lat="45.5487736" lon="9.2161296"><ele>150.0</ele><time>2026-04-11T16:51:04.006Z</time></trkpt><trkpt lat="45.5487662" lon="9.2157476"><ele>149.0</ele><time>2026-04-11T16:51:05.006Z</time></trkpt><trkpt lat="45.5487509" lon="9.215366"><ele>148.0</ele><time>2026-04-11T16:51:06.006Z</time></trkpt><trkpt lat="45.5487413" lon="9.2149783"><ele>148.0</ele><time>2026-04-11T16:51:07.006Z</time></trkpt><trkpt lat="45.548731" lon="9.2146037"><ele>148.0</ele><time>2026-04-11T16:51:08.006Z</time></trkpt><trkpt lat="45.5487176" lon="9.2142231"><ele>147.0</ele><time>2026-04-11T16:51:09.006Z</time></trkpt><trkpt lat="45.5487001" lon="9.2138455"><ele>146.0</ele><time>2026-04-11T16:51:10.006Z</time></trkpt><trkpt lat="45.5486813" lon="9.2134668"><ele>147.5</ele><time>2026-04-11T16:51:11.006Z</time></trkpt><trkpt lat="45.5486659" lon="9.2130977"><ele>149.0</ele><time>2026-04-11T16:51:12.006Z</time></trkpt><trkpt lat="45.5486545" lon="9.2127298"><ele>149.0</ele><time>2026-04-11T16:51:13.006Z</time></trkpt><trkpt lat="45.5486552" lon="9.2123641"><ele>149.0</ele><time>2026-04-11T16:51:14.006Z</time></trkpt><trkpt lat="45.5486572" lon="9.2119979"><ele>149.0</ele><time>2026-04-11T16:51:15.006Z</time></trkpt><trkpt lat="45.5486486" lon="9.211635"><ele>149.0</ele><time>2026-04-11T16:51:16.006Z</time></trkpt><trkpt lat="45.5486413" lon="9.2112665"><ele>149.0</ele><time>2026-04-11T16:51:17.006Z</time></trkpt><trkpt lat="45.5486306" lon="9.2108996"><ele>149.0</ele><time>2026-04-11T16:51:18.006Z</time></trkpt><trkpt lat="45.5486179" lon="9.2105348"><ele>149.0</ele><time>2026-04-11T16:51:19.006Z</time></trkpt><trkpt lat="45.5486011" lon="9.2101764"><ele>149.0</ele><time>2026-04-11T16:51:20.006Z</time></trkpt><trkpt lat="45.5485945" lon="9.2098231"><ele>149.0</ele><time>2026-04-11T16:51:21.006Z</time></trkpt><trkpt lat="45.5485809" lon="9.2094624"><ele>149.0</ele><time>2026-04-11T16:51:22.005Z</time></trkpt><trkpt lat="45.5485643" lon="9.2090994"><ele>149.5</ele><time>2026-04-11T16:51:23.006Z</time></trkpt><trkpt lat="45.5485506" lon="9.2087436"><ele>150.0</ele><time>2026-04-11T16:51:24.005Z</time></trkpt><trkpt lat="45.5485405" lon="9.2083786"><ele>149.5</ele><time>2026-04-11T16:51:25.006Z</time></trkpt><trkpt lat="45.5485288" lon="9.2080302"><ele>149.0</ele><time>2026-04-11T16:51:26.006Z</time></trkpt><trkpt lat="45.5485173" lon="9.2076789"><ele>149.0</ele><time>2026-04-11T16:51:27.006Z</time></trkpt><trkpt lat="45.5485042" lon="9.2073325"><ele>149.0</ele><time>2026-04-11T16:51:28.006Z</time></trkpt><trkpt lat="45.5484948" lon="9.206986"><ele>149.0</ele><time>2026-04-11T16:51:29.006Z</time></trkpt><trkpt lat="45.5484878" lon="9.2066349"><ele>149.0</ele><time>2026-04-11T16:51:30.005Z</time></trkpt><trkpt lat="45.5484868" lon="9.2062837"><ele>149.0</ele><time>2026-04-11T16:51:31.006Z</time></trkpt><trkpt lat="45.5484752" lon="9.2059283"><ele>149.0</ele><time>2026-04-11T16:51:32.006Z</time></trkpt><trkpt lat="45.5484664" lon="9.205591"><ele>149.0</ele><time>2026-04-11T16:51:33.005Z</time></trkpt><trkpt lat="45.5484531" lon="9.2052473"><ele>149.0</ele><time>2026-04-11T16:51:34.006Z</time></trkpt><trkpt lat="45.5484373" lon="9.204905"><ele>149.0</ele><time>2026-04-11T16:51:35.006Z</time></trkpt><trkpt lat="45.5484255" lon="9.2045728"><ele>149.0</ele><time>2026-04-11T16:51:36.006Z</time></trkpt><trkpt lat="45.5484151" lon="9.2042405"><ele>148.5</ele><time>2026-04-11T16:51:37.006Z</time></trkpt><trkpt lat="45.5483967" lon="9.2039164"><ele>148.0</ele><time>2026-04-11T16:51:38.006Z</time></trkpt><trkpt lat="45.5483764" lon="9.2035761"><ele>148.0</ele><time>2026-04-11T16:51:39.006Z</time></trkpt><trkpt lat="45.5483612" lon="9.2032476"><ele>148.0</ele><time>2026-04-11T16:51:40.006Z</time></trkpt><trkpt lat="45.5483371" lon="9.2029335"><ele>147.5</ele><time>2026-04-11T16:51:41.006Z</time></trkpt><trkpt lat="45.5483143" lon="9.2026067"><ele>147.0</ele><time>2026-04-11T16:51:42.006Z</time></trkpt><trkpt lat="45.5482888" lon="9.2022777"><ele>148.0</ele><time>2026-04-11T16:51:43.006Z</time></trkpt><trkpt lat="45.5482553" lon="9.2019561"><ele>149.0</ele><time>2026-04-11T16:51:44.006Z</time></trkpt><trkpt lat="45.5482112" lon="9.2016332"><ele>149.0</ele><time>2026-04-11T16:51:45.006Z</time></trkpt><trkpt lat="45.5481614" lon="9.2013119"><ele>149.0</ele><time>2026-04-11T16:51:46.006Z</time></trkpt><trkpt lat="45.5481138" lon="9.2009889"><ele>149.0</ele><time>2026-04-11T16:51:47.006Z</time></trkpt><trkpt lat="45.5480564" lon="9.2006691"><ele>149.0</ele><time>2026-04-11T16:51:48.006Z</time></trkpt><trkpt lat="45.5479969" lon="9.2003451"><ele>150.5</ele><time>2026-04-11T16:51:49.006Z</time></trkpt><trkpt lat="45.5479419" lon="9.2000172"><ele>152.0</ele><time>2026-04-11T16:51:50.006Z</time></trkpt><trkpt lat="45.5478807" lon="9.1996983"><ele>150.0</ele><time>2026-04-11T16:51:51.006Z</time></trkpt><trkpt lat="45.5478131" lon="9.1993797"><ele>148.0</ele><time>2026-04-11T16:51:52.006Z</time></trkpt><trkpt lat="45.5477421" lon="9.1990654"><ele>147.5</ele><time>2026-04-11T16:51:53.006Z</time></trkpt><trkpt lat="45.5476641" lon="9.1987504"><ele>147.0</ele><time>2026-04-11T16:51:54.006Z</time></trkpt><trkpt lat="45.5475866" lon="9.1984459"><ele>148.0</ele><time>2026-04-11T16:51:55.006Z</time></trkpt><trkpt lat="45.5475079" lon="9.1981376"><ele>149.0</ele><time>2026-04-11T16:51:56.006Z</time></trkpt><trkpt lat="45.5474288" lon="9.1978136"><ele>149.0</ele><time>2026-04-11T16:51:57.005Z</time></trkpt><trkpt lat="45.5473317" lon="9.1974903"><ele>149.0</ele><time>2026-04-11T16:51:58.006Z</time></trkpt><trkpt lat="45.5472354" lon="9.1971342"><ele>148.5</ele><time>2026-04-11T16:51:59.006Z</time></trkpt><trkpt lat="45.547136" lon="9.1967689"><ele>148.0</ele><time>2026-04-11T16:52:00.006Z</time></trkpt><trkpt lat="45.5470413" lon="9.1963862"><ele>148.0</ele><time>2026-04-11T16:52:01.006Z</time></trkpt><trkpt lat="45.5469464" lon="9.1960257"><ele>148.0</ele><time>2026-04-11T16:52:02.006Z</time></trkpt><trkpt lat="45.5468554" lon="9.195667"><ele>148.5</ele><time>2026-04-11T16:52:03.005Z</time></trkpt><trkpt lat="45.5467689" lon="9.1953002"><ele>149.0</ele><time>2026-04-11T16:52:04.006Z</time></trkpt><trkpt lat="45.5466774" lon="9.194945"><ele>149.5</ele><time>2026-04-11T16:52:05.006Z</time></trkpt><trkpt lat="45.5465856" lon="9.1945863"><ele>150.0</ele><time>2026-04-11T16:52:06.006Z</time></trkpt><trkpt lat="45.5464954" lon="9.1942295"><ele>150.0</ele><time>2026-04-11T16:52:07.006Z</time></trkpt><trkpt lat="45.5464056" lon="9.1938711"><ele>150.0</ele><time>2026-04-11T16:52:08.006Z</time></trkpt><trkpt lat="45.5463137" lon="9.1935132"><ele>150.0</ele><time>2026-04-11T16:52:09.006Z</time></trkpt><trkpt lat="45.54622" lon="9.1931598"><ele>150.0</ele><time>2026-04-11T16:52:10.006Z</time></trkpt><trkpt lat="45.5461274" lon="9.1928085"><ele>150.0</ele><time>2026-04-11T16:52:11.006Z</time></trkpt><trkpt lat="45.5460426" lon="9.1924667"><ele>150.0</ele><time>2026-04-11T16:52:12.005Z</time></trkpt><trkpt lat="45.545956" lon="9.1921374"><ele>150.0</ele><time>2026-04-11T16:52:13.006Z</time></trkpt><trkpt lat="45.5458691" lon="9.1918025"><ele>150.0</ele><time>2026-04-11T16:52:14.005Z</time></trkpt><trkpt lat="45.5457765" lon="9.1914657"><ele>151.5</ele><time>2026-04-11T16:52:15.006Z</time></trkpt><trkpt lat="45.5456927" lon="9.1911167"><ele>153.0</ele><time>2026-04-11T16:52:16.005Z</time></trkpt><trkpt lat="45.5455969" lon="9.1907687"><ele>153.0</ele><time>2026-04-11T16:52:17.005Z</time></trkpt><trkpt lat="45.5455085" lon="9.1904102"><ele>153.0</ele><time>2026-04-11T16:52:18.006Z</time></trkpt><trkpt lat="45.5454235" lon="9.19005"><ele>152.0</ele><time>2026-04-11T16:52:19.006Z</time></trkpt><trkpt lat="45.5453338" lon="9.1896824"><ele>151.0</ele><time>2026-04-11T16:52:20.006Z</time></trkpt><trkpt lat="45.5452401" lon="9.1893229"><ele>151.0</ele><time>2026-04-11T16:52:21.006Z</time></trkpt><trkpt lat="45.5451446" lon="9.1889584"><ele>151.0</ele><time>2026-04-11T16:52:22.006Z</time></trkpt><trkpt lat="45.5450567" lon="9.188603"><ele>151.0</ele><time>2026-04-11T16:52:23.006Z</time></trkpt><trkpt lat="45.5449655" lon="9.1882633"><ele>151.0</ele><time>2026-04-11T16:52:24.006Z</time></trkpt><trkpt lat="45.5448786" lon="9.1879315"><ele>150.5</ele><time>2026-04-11T16:52:25.006Z</time></trkpt><trkpt lat="45.5447943" lon="9.1875847"><ele>150.0</ele><time>2026-04-11T16:52:26.006Z</time></trkpt><trkpt lat="45.5446983" lon="9.1872487"><ele>150.0</ele><time>2026-04-11T16:52:27.006Z</time></trkpt><trkpt lat="45.5446034" lon="9.1868971"><ele>150.0</ele><time>2026-04-11T16:52:28.006Z</time></trkpt><trkpt lat="45.5445085" lon="9.1865434"><ele>150.5</ele><time>2026-04-11T16:52:29.006Z</time></trkpt><trkpt lat="45.5444163" lon="9.1861787"><ele>151.0</ele><time>2026-04-11T16:52:30.006Z</time></trkpt><trkpt lat="45.5443213" lon="9.1858191"><ele>150.0</ele><time>2026-04-11T16:52:31.006Z</time></trkpt><trkpt lat="45.5442269" lon="9.1854538"><ele>149.0</ele><time>2026-04-11T16:52:32.006Z</time></trkpt><trkpt lat="45.5441335" lon="9.1850787"><ele>148.5</ele><time>2026-04-11T16:52:33.006Z</time></trkpt><trkpt lat="45.5440352" lon="9.1847111"><ele>148.0</ele><time>2026-04-11T16:52:34.006Z</time></trkpt><trkpt lat="45.5439349" lon="9.1843463"><ele>148.0</ele><time>2026-04-11T16:52:35.006Z</time></trkpt><trkpt lat="45.5438391" lon="9.1839855"><ele>148.0</ele><time>2026-04-11T16:52:36.006Z</time></trkpt><trkpt lat="45.5437417" lon="9.183634"><ele>148.0</ele><time>2026-04-11T16:52:37.006Z</time></trkpt><trkpt lat="45.5436414" lon="9.1832756"><ele>148.0</ele><time>2026-04-11T16:52:38.006Z</time></trkpt><trkpt lat="45.5435438" lon="9.1829255"><ele>148.0</ele><time>2026-04-11T16:52:39.006Z</time></trkpt><trkpt lat="45.5434555" lon="9.1825545"><ele>148.0</ele><time>2026-04-11T16:52:40.006Z</time></trkpt><trkpt lat="45.5433651" lon="9.1821875"><ele>147.5</ele><time>2026-04-11T16:52:41.006Z</time></trkpt><trkpt lat="45.5432675" lon="9.1818165"><ele>147.0</ele><time>2026-04-11T16:52:42.006Z</time></trkpt><trkpt lat="45.5431742" lon="9.1814506"><ele>148.0</ele><time>2026-04-11T16:52:43.006Z</time></trkpt><trkpt lat="45.5430751" lon="9.1810939"><ele>149.0</ele><time>2026-04-11T16:52:44.006Z</time></trkpt><trkpt lat="45.5429726" lon="9.1807337"><ele>149.5</ele><time>2026-04-11T16:52:45.006Z</time></trkpt><trkpt lat="45.5428801" lon="9.1803806"><ele>150.0</ele><time>2026-04-11T16:52:46.005Z</time></trkpt><trkpt lat="45.5427815" lon="9.1800282"><ele>150.5</ele><time>2026-04-11T16:52:47.006Z</time></trkpt><trkpt lat="45.5426904" lon="9.1796741"><ele>151.0</ele><time>2026-04-11T16:52:48.006Z</time></trkpt><trkpt lat="45.5425946" lon="9.1793127"><ele>150.5</ele><time>2026-04-11T16:52:49.005Z</time></trkpt><trkpt lat="45.5424913" lon="9.1789582"><ele>150.0</ele><time>2026-04-11T16:52:50.005Z</time></trkpt><trkpt lat="45.5423812" lon="9.1786066"><ele>150.0</ele><time>2026-04-11T16:52:51.006Z</time></trkpt><trkpt lat="45.5422734" lon="9.1782556"><ele>150.0</ele><time>2026-04-11T16:52:52.006Z</time></trkpt><trkpt lat="45.5421731" lon="9.1779016"><ele>150.0</ele><time>2026-04-11T16:52:53.006Z</time></trkpt><trkpt lat="45.5420644" lon="9.1775456"><ele>150.0</ele><time>2026-04-11T16:52:54.006Z</time></trkpt><trkpt lat="45.5419662" lon="9.1771806"><ele>149.5</ele><time>2026-04-11T16:52:55.006Z</time></trkpt><trkpt lat="45.541873" lon="9.1768242"><ele>149.0</ele><time>2026-04-11T16:52:56.006Z</time></trkpt><trkpt lat="45.541774" lon="9.1764799"><ele>149.0</ele><time>2026-04-11T16:52:57.006Z</time></trkpt><trkpt lat="45.541681" lon="9.1761334"><ele>149.0</ele><time>2026-04-11T16:52:58.006Z</time></trkpt><trkpt lat="45.5415885" lon="9.1757919"><ele>151.0</ele><time>2026-04-11T16:52:59.006Z</time></trkpt><trkpt lat="45.5414951" lon="9.1754423"><ele>153.0</ele><time>2026-04-11T16:53:00.006Z</time></trkpt><trkpt lat="45.5413967" lon="9.1751011"><ele>153.0</ele><time>2026-04-11T16:53:01.006Z</time></trkpt><trkpt lat="45.5412932" lon="9.1747728"><ele>153.0</ele><time>2026-04-11T16:53:02.006Z</time></trkpt><trkpt lat="45.5411905" lon="9.1744456"><ele>151.5</ele><time>2026-04-11T16:53:03.006Z</time></trkpt><trkpt lat="45.5410858" lon="9.1741187"><ele>150.0</ele><time>2026-04-11T16:53:04.006Z</time></trkpt><trkpt lat="45.5409866" lon="9.1737813"><ele>150.0</ele><time>2026-04-11T16:53:05.006Z</time></trkpt><trkpt lat="45.5408756" lon="9.1734446"><ele>150.0</ele><time>2026-04-11T16:53:06.006Z</time></trkpt><trkpt lat="45.5407731" lon="9.1731132"><ele>149.5</ele><time>2026-04-11T16:53:07.006Z</time></trkpt><trkpt lat="45.5406584" lon="9.1727822"><ele>149.0</ele><time>2026-04-11T16:53:08.006Z</time></trkpt><trkpt lat="45.5405438" lon="9.1724502"><ele>149.0</ele><time>2026-04-11T16:53:09.006Z</time></trkpt><trkpt lat="45.5404291" lon="9.1721176"><ele>149.0</ele><time>2026-04-11T16:53:10.006Z</time></trkpt><trkpt lat="45.5403119" lon="9.1717849"><ele>149.0</ele><time>2026-04-11T16:53:11.006Z</time></trkpt><trkpt lat="45.5401898" lon="9.1714482"><ele>149.0</ele><time>2026-04-11T16:53:12.006Z</time></trkpt><trkpt lat="45.540062" lon="9.1711132"><ele>149.0</ele><time>2026-04-11T16:53:13.006Z</time></trkpt><trkpt lat="45.5399369" lon="9.1707755"><ele>149.0</ele><time>2026-04-11T16:53:14.006Z</time></trkpt><trkpt lat="45.539807" lon="9.1704352"><ele>149.5</ele><time>2026-04-11T16:53:15.006Z</time></trkpt><trkpt lat="45.5396695" lon="9.1701025"><ele>150.0</ele><time>2026-04-11T16:53:16.006Z</time></trkpt><trkpt lat="45.5395313" lon="9.1697656"><ele>149.0</ele><time>2026-04-11T16:53:17.005Z</time></trkpt><trkpt lat="45.5393955" lon="9.1694298"><ele>148.0</ele><time>2026-04-11T16:53:18.006Z</time></trkpt><trkpt lat="45.5392595" lon="9.1691017"><ele>149.0</ele><time>2026-04-11T16:53:19.006Z</time></trkpt><trkpt lat="45.5391251" lon="9.1687703"><ele>150.0</ele><time>2026-04-11T16:53:20.006Z</time></trkpt><trkpt lat="45.5389783" lon="9.1684439"><ele>150.5</ele><time>2026-04-11T16:53:21.006Z</time></trkpt><trkpt lat="45.5388355" lon="9.1681187"><ele>151.0</ele><time>2026-04-11T16:53:22.006Z</time></trkpt><trkpt lat="45.5386907" lon="9.1677909"><ele>151.0</ele><time>2026-04-11T16:53:23.006Z</time></trkpt><trkpt lat="45.5385421" lon="9.1674682"><ele>151.0</ele><time>2026-04-11T16:53:24.006Z</time></trkpt><trkpt lat="45.5383937" lon="9.167139"><ele>150.5</ele><time>2026-04-11T16:53:25.006Z</time></trkpt><trkpt lat="45.5382404" lon="9.1668187"><ele>150.0</ele><time>2026-04-11T16:53:26.006Z</time></trkpt><trkpt lat="45.5380867" lon="9.1665034"><ele>149.0</ele><time>2026-04-11T16:53:27.006Z</time></trkpt><trkpt lat="45.5379306" lon="9.1661927"><ele>148.0</ele><time>2026-04-11T16:53:28.005Z</time></trkpt><trkpt lat="45.5377775" lon="9.1658752"><ele>147.5</ele><time>2026-04-11T16:53:29.006Z</time></trkpt><trkpt lat="45.5376236" lon="9.1655715"><ele>147.0</ele><time>2026-04-11T16:53:30.006Z</time></trkpt><trkpt lat="45.5374746" lon="9.1652613"><ele>147.0</ele><time>2026-04-11T16:53:31.005Z</time></trkpt><trkpt lat="45.5373238" lon="9.1649555"><ele>147.0</ele><time>2026-04-11T16:53:32.006Z</time></trkpt><trkpt lat="45.5371782" lon="9.1646542"><ele>146.5</ele><time>2026-04-11T16:53:33.005Z</time></trkpt><trkpt lat="45.537032" lon="9.1643421"><ele>146.0</ele><time>2026-04-11T16:53:34.006Z</time></trkpt><trkpt lat="45.5368936" lon="9.1640324"><ele>146.5</ele><time>2026-04-11T16:53:35.006Z</time></trkpt><trkpt lat="45.5367493" lon="9.1637332"><ele>147.0</ele><time>2026-04-11T16:53:36.006Z</time></trkpt><trkpt lat="45.5366095" lon="9.1634328"><ele>146.5</ele><time>2026-04-11T16:53:37.006Z</time></trkpt><trkpt lat="45.5364706" lon="9.1631295"><ele>146.0</ele><time>2026-04-11T16:53:38.006Z</time></trkpt><trkpt lat="45.5363315" lon="9.1628305"><ele>146.0</ele><time>2026-04-11T16:53:39.006Z</time></trkpt><trkpt lat="45.5361913" lon="9.1625472"><ele>146.0</ele><time>2026-04-11T16:53:40.006Z</time></trkpt><trkpt lat="45.5360508" lon="9.1622546"><ele>146.0</ele><time>2026-04-11T16:53:41.006Z</time></trkpt><trkpt lat="45.5359094" lon="9.1619718"><ele>146.0</ele><time>2026-04-11T16:53:42.006Z</time></trkpt><trkpt lat="45.5357693" lon="9.1616777"><ele>146.0</ele><time>2026-04-11T16:53:43.006Z</time></trkpt><trkpt lat="45.535625" lon="9.1613941"><ele>146.0</ele><time>2026-04-11T16:53:44.006Z</time></trkpt><trkpt lat="45.5354801" lon="9.1610991"><ele>146.5</ele><time>2026-04-11T16:53:45.006Z</time></trkpt><trkpt lat="45.5353315" lon="9.1608049"><ele>147.0</ele><time>2026-04-11T16:53:46.005Z</time></trkpt><trkpt lat="45.5351916" lon="9.1605075"><ele>147.5</ele><time>2026-04-11T16:53:47.006Z</time></trkpt><trkpt lat="45.5350414" lon="9.1602033"><ele>148.0</ele><time>2026-04-11T16:53:48.005Z</time></trkpt><trkpt lat="45.5348879" lon="9.1598993"><ele>148.0</ele><time>2026-04-11T16:53:49.006Z</time></trkpt><trkpt lat="45.5347319" lon="9.1595882"><ele>148.0</ele><time>2026-04-11T16:53:50.006Z</time></trkpt><trkpt lat="45.5345775" lon="9.1592721"><ele>147.0</ele><time>2026-04-11T16:53:51.006Z</time></trkpt><trkpt lat="45.5344266" lon="9.1589411"><ele>146.0</ele><time>2026-04-11T16:53:52.006Z</time></trkpt><trkpt lat="45.5342703" lon="9.1586118"><ele>146.0</ele><time>2026-04-11T16:53:53.006Z</time></trkpt><trkpt lat="45.534119" lon="9.158291"><ele>146.0</ele><time>2026-04-11T16:53:54.006Z</time></trkpt><trkpt lat="45.533963" lon="9.1579771"><ele>145.5</ele><time>2026-04-11T16:53:55.006Z</time></trkpt><trkpt lat="45.533811" lon="9.1576662"><ele>145.0</ele><time>2026-04-11T16:53:56.006Z</time></trkpt><trkpt lat="45.533657" lon="9.1573588"><ele>145.0</ele><time>2026-04-11T16:53:57.006Z</time></trkpt><trkpt lat="45.5335035" lon="9.1570485"><ele>145.0</ele><time>2026-04-11T16:53:58.005Z</time></trkpt><trkpt lat="45.5333537" lon="9.1567442"><ele>146.0</ele><time>2026-04-11T16:53:59.005Z</time></trkpt><trkpt lat="45.5332049" lon="9.1564492"><ele>147.0</ele><time>2026-04-11T16:54:00.005Z</time></trkpt><trkpt lat="45.5330635" lon="9.1561522"><ele>147.0</ele><time>2026-04-11T16:54:01.004Z</time></trkpt><trkpt lat="45.5329179" lon="9.1558557"><ele>147.0</ele><time>2026-04-11T16:54:02.005Z</time></trkpt><trkpt lat="45.532773" lon="9.1555574"><ele>147.5</ele><time>2026-04-11T16:54:03.004Z</time></trkpt><trkpt lat="45.5326323" lon="9.1552596"><ele>148.0</ele><time>2026-04-11T16:54:04.005Z</time></trkpt><trkpt lat="45.5324943" lon="9.1549586"><ele>147.5</ele><time>2026-04-11T16:54:05.004Z</time></trkpt><trkpt lat="45.5323545" lon="9.1546566"><ele>147.0</ele><time>2026-04-11T16:54:06.005Z</time></trkpt><trkpt lat="45.5322145" lon="9.154364"><ele>147.0</ele><time>2026-04-11T16:54:07.005Z</time></trkpt><trkpt lat="45.5320723" lon="9.1540712"><ele>147.0</ele><time>2026-04-11T16:54:08.005Z</time></trkpt><trkpt lat="45.5319368" lon="9.1537736"><ele>146.0</ele><time>2026-04-11T16:54:09.005Z</time></trkpt><trkpt lat="45.5317943" lon="9.1534843"><ele>145.0</ele><time>2026-04-11T16:54:10.004Z</time></trkpt><trkpt lat="45.5316483" lon="9.153195"><ele>145.0</ele><time>2026-04-11T16:54:11.005Z</time></trkpt><trkpt lat="45.5315065" lon="9.1529036"><ele>145.0</ele><time>2026-04-11T16:54:12.005Z</time></trkpt><trkpt lat="45.5313644" lon="9.1526073"><ele>145.0</ele><time>2026-04-11T16:54:13.005Z</time></trkpt><trkpt lat="45.5312197" lon="9.1523116"><ele>145.0</ele><time>2026-04-11T16:54:14.004Z</time></trkpt><trkpt lat="45.5310729" lon="9.152013"><ele>145.0</ele><time>2026-04-11T16:54:15.004Z</time></trkpt><trkpt lat="45.5309281" lon="9.1517129"><ele>145.0</ele><time>2026-04-11T16:54:16.005Z</time></trkpt><trkpt lat="45.5307839" lon="9.1514083"><ele>145.0</ele><time>2026-04-11T16:54:17.004Z</time></trkpt><trkpt lat="45.5306275" lon="9.1511076"><ele>145.0</ele><time>2026-04-11T16:54:18.005Z</time></trkpt><trkpt lat="45.5304751" lon="9.1507988"><ele>144.0</ele><time>2026-04-11T16:54:19.005Z</time></trkpt><trkpt lat="45.5303306" lon="9.150495"><ele>143.0</ele><time>2026-04-11T16:54:20.005Z</time></trkpt><trkpt lat="45.5301819" lon="9.1501952"><ele>143.0</ele><time>2026-04-11T16:54:21.005Z</time></trkpt><trkpt lat="45.530032" lon="9.1498911"><ele>143.0</ele><time>2026-04-11T16:54:22.005Z</time></trkpt><trkpt lat="45.5298808" lon="9.1495928"><ele>143.5</ele><time>2026-04-11T16:54:23.005Z</time></trkpt><trkpt lat="45.5297351" lon="9.149295"><ele>144.0</ele><time>2026-04-11T16:54:24.005Z</time></trkpt><trkpt lat="45.5295875" lon="9.1489927"><ele>143.5</ele><time>2026-04-11T16:54:25.004Z</time></trkpt><trkpt lat="45.5294354" lon="9.1486907"><ele>143.0</ele><time>2026-04-11T16:54:26.005Z</time></trkpt><trkpt lat="45.5292814" lon="9.1483902"><ele>143.0</ele><time>2026-04-11T16:54:27.004Z</time></trkpt><trkpt lat="45.5291282" lon="9.1480846"><ele>143.0</ele><time>2026-04-11T16:54:28.005Z</time></trkpt><trkpt lat="45.528977" lon="9.1477869"><ele>143.0</ele><time>2026-04-11T16:54:29.005Z</time></trkpt><trkpt lat="45.528828" lon="9.1474809"><ele>143.0</ele><time>2026-04-11T16:54:30.004Z</time></trkpt><trkpt lat="45.5286807" lon="9.1471778"><ele>143.0</ele><time>2026-04-11T16:54:31.005Z</time></trkpt><trkpt lat="45.5285338" lon="9.1468702"><ele>143.0</ele><time>2026-04-11T16:54:32.005Z</time></trkpt><trkpt lat="45.5283843" lon="9.146565"><ele>143.0</ele><time>2026-04-11T16:54:33.005Z</time></trkpt><trkpt lat="45.5282362" lon="9.1462615"><ele>143.0</ele><time>2026-04-11T16:54:34.004Z</time></trkpt><trkpt lat="45.5280934" lon="9.1459639"><ele>143.5</ele><time>2026-04-11T16:54:35.004Z</time></trkpt><trkpt lat="45.5279458" lon="9.1456652"><ele>144.0</ele><time>2026-04-11T16:54:36.005Z</time></trkpt><trkpt lat="45.5278106" lon="9.1453638"><ele>143.5</ele><time>2026-04-11T16:54:37.005Z</time></trkpt><trkpt lat="45.5276688" lon="9.1450662"><ele>143.0</ele><time>2026-04-11T16:54:38.005Z</time></trkpt><trkpt lat="45.5275247" lon="9.1447672"><ele>143.0</ele><time>2026-04-11T16:54:39.005Z</time></trkpt><trkpt lat="45.5273849" lon="9.144475"><ele>143.0</ele><time>2026-04-11T16:54:40.005Z</time></trkpt><trkpt lat="45.5272456" lon="9.1441783"><ele>143.0</ele><time>2026-04-11T16:54:41.005Z</time></trkpt><trkpt lat="45.5271026" lon="9.1438996"><ele>143.0</ele><time>2026-04-11T16:54:42.004Z</time></trkpt><trkpt lat="45.5269602" lon="9.143614"><ele>142.5</ele><time>2026-04-11T16:54:43.005Z</time></trkpt><trkpt lat="45.5268196" lon="9.1433175"><ele>142.0</ele><time>2026-04-11T16:54:44.005Z</time></trkpt><trkpt lat="45.5266786" lon="9.1430286"><ele>143.0</ele><time>2026-04-11T16:54:45.006Z</time></trkpt><trkpt lat="45.5265451" lon="9.1427429"><ele>144.0</ele><time>2026-04-11T16:54:46.005Z</time></trkpt><trkpt lat="45.5264048" lon="9.1424541"><ele>144.0</ele><time>2026-04-11T16:54:47.005Z</time></trkpt><trkpt lat="45.5262689" lon="9.1421632"><ele>144.0</ele><time>2026-04-11T16:54:48.006Z</time></trkpt><trkpt lat="45.5261353" lon="9.1418743"><ele>143.5</ele><time>2026-04-11T16:54:49.005Z</time></trkpt><trkpt lat="45.5259978" lon="9.1415796"><ele>143.0</ele><time>2026-04-11T16:54:50.006Z</time></trkpt><trkpt lat="45.5258628" lon="9.1412853"><ele>144.0</ele><time>2026-04-11T16:54:51.006Z</time></trkpt><trkpt lat="45.5257217" lon="9.1409959"><ele>145.0</ele><time>2026-04-11T16:54:52.006Z</time></trkpt><trkpt lat="45.5255824" lon="9.1407061"><ele>145.0</ele><time>2026-04-11T16:54:53.005Z</time></trkpt><trkpt lat="45.5254446" lon="9.1404114"><ele>145.0</ele><time>2026-04-11T16:54:54.005Z</time></trkpt><trkpt lat="45.5252983" lon="9.1401166"><ele>144.0</ele><time>2026-04-11T16:54:55.006Z</time></trkpt><trkpt lat="45.5251579" lon="9.1398171"><ele>143.0</ele><time>2026-04-11T16:54:56.006Z</time></trkpt><trkpt lat="45.5250145" lon="9.1395254"><ele>143.0</ele><time>2026-04-11T16:54:57.006Z</time></trkpt><trkpt lat="45.5248725" lon="9.1392328"><ele>143.0</ele><time>2026-04-11T16:54:58.006Z</time></trkpt><trkpt lat="45.5247292" lon="9.1389377"><ele>143.0</ele><time>2026-04-11T16:54:59.005Z</time></trkpt><trkpt lat="45.5245854" lon="9.1386441"><ele>143.0</ele><time>2026-04-11T16:55:00.006Z</time></trkpt><trkpt lat="45.5244383" lon="9.1383289"><ele>142.5</ele><time>2026-04-11T16:55:01.006Z</time></trkpt><trkpt lat="45.5242841" lon="9.1379969"><ele>142.0</ele><time>2026-04-11T16:55:02.006Z</time></trkpt><trkpt lat="45.5241137" lon="9.1376577"><ele>143.5</ele><time>2026-04-11T16:55:03.006Z</time></trkpt><trkpt lat="45.5239446" lon="9.1373153"><ele>145.0</ele><time>2026-04-11T16:55:04.006Z</time></trkpt><trkpt lat="45.5237833" lon="9.1369771"><ele>143.5</ele><time>2026-04-11T16:55:05.006Z</time></trkpt><trkpt lat="45.5236246" lon="9.1366473"><ele>142.0</ele><time>2026-04-11T16:55:06.006Z</time></trkpt><trkpt lat="45.5234681" lon="9.1363253"><ele>142.0</ele><time>2026-04-11T16:55:07.006Z</time></trkpt><trkpt lat="45.5233167" lon="9.1360083"><ele>142.0</ele><time>2026-04-11T16:55:08.006Z</time></trkpt><trkpt lat="45.5231692" lon="9.1356874"><ele>142.5</ele><time>2026-04-11T16:55:09.006Z</time></trkpt><trkpt lat="45.523022" lon="9.1353778"><ele>143.0</ele><time>2026-04-11T16:55:10.006Z</time></trkpt><trkpt lat="45.5228727" lon="9.1350701"><ele>143.0</ele><time>2026-04-11T16:55:11.006Z</time></trkpt><trkpt lat="45.5227241" lon="9.1347611"><ele>143.0</ele><time>2026-04-11T16:55:12.006Z</time></trkpt><trkpt lat="45.5225808" lon="9.1344677"><ele>143.0</ele><time>2026-04-11T16:55:13.006Z</time></trkpt><trkpt lat="45.5224361" lon="9.1341793"><ele>143.0</ele><time>2026-04-11T16:55:14.006Z</time></trkpt><trkpt lat="45.5222932" lon="9.1339046"><ele>143.0</ele><time>2026-04-11T16:55:15.006Z</time></trkpt><trkpt lat="45.5221403" lon="9.1336306"><ele>143.0</ele><time>2026-04-11T16:55:16.006Z</time></trkpt><trkpt lat="45.5219947" lon="9.1333409"><ele>141.5</ele><time>2026-04-11T16:55:17.006Z</time></trkpt><trkpt lat="45.5218469" lon="9.1330271"><ele>140.0</ele><time>2026-04-11T16:55:18.006Z</time></trkpt><trkpt lat="45.5216941" lon="9.1327025"><ele>140.0</ele><time>2026-04-11T16:55:19.006Z</time></trkpt><trkpt lat="45.521546" lon="9.1323817"><ele>140.0</ele><time>2026-04-11T16:55:20.006Z</time></trkpt><trkpt lat="45.5213934" lon="9.1320616"><ele>140.0</ele><time>2026-04-11T16:55:21.006Z</time></trkpt><trkpt lat="45.5212451" lon="9.131727"><ele>140.0</ele><time>2026-04-11T16:55:22.006Z</time></trkpt><trkpt lat="45.5210903" lon="9.1313984"><ele>141.0</ele><time>2026-04-11T16:55:23.006Z</time></trkpt><trkpt lat="45.5209318" lon="9.1310788"><ele>142.0</ele><time>2026-04-11T16:55:24.006Z</time></trkpt><trkpt lat="45.52078" lon="9.1307716"><ele>141.5</ele><time>2026-04-11T16:55:25.006Z</time></trkpt><trkpt lat="45.5206376" lon="9.1304723"><ele>141.0</ele><time>2026-04-11T16:55:26.006Z</time></trkpt><trkpt lat="45.520499" lon="9.130184"><ele>140.5</ele><time>2026-04-11T16:55:27.006Z</time></trkpt><trkpt lat="45.5203641" lon="9.1299031"><ele>140.0</ele><time>2026-04-11T16:55:28.006Z</time></trkpt><trkpt lat="45.5202251" lon="9.1296231"><ele>140.0</ele><time>2026-04-11T16:55:29.006Z</time></trkpt><trkpt lat="45.5200836" lon="9.1293484"><ele>140.0</ele><time>2026-04-11T16:55:30.006Z</time></trkpt><trkpt lat="45.5199437" lon="9.1290617"><ele>139.5</ele><time>2026-04-11T16:55:31.006Z</time></trkpt><trkpt lat="45.5198101" lon="9.1287816"><ele>139.0</ele><time>2026-04-11T16:55:32.006Z</time></trkpt><trkpt lat="45.5196894" lon="9.1285172"><ele>139.0</ele><time>2026-04-11T16:55:33.006Z</time></trkpt><trkpt lat="45.5195677" lon="9.1282513"><ele>139.0</ele><time>2026-04-11T16:55:34.006Z</time></trkpt><trkpt lat="45.5194443" lon="9.1279865"><ele>139.0</ele><time>2026-04-11T16:55:35.006Z</time></trkpt><trkpt lat="45.5193197" lon="9.1277157"><ele>139.66666666666669</ele><time>2026-04-11T16:55:36.005Z</time></trkpt><trkpt lat="45.5191998" lon="9.1274389"><ele>140.33333333333334</ele><time>2026-04-11T16:55:37.006Z</time></trkpt><trkpt lat="45.5190764" lon="9.1271874"><ele>141.0</ele><time>2026-04-11T16:55:38.006Z</time></trkpt><trkpt lat="45.5189475" lon="9.1269338"><ele>141.0</ele><time>2026-04-11T16:55:39.005Z</time></trkpt><trkpt lat="45.5188141" lon="9.126679"><ele>141.0</ele><time>2026-04-11T16:55:40.006Z</time></trkpt><trkpt lat="45.5186691" lon="9.1264208"><ele>141.0</ele><time>2026-04-11T16:55:41.006Z</time></trkpt><trkpt lat="45.5185203" lon="9.1261596"><ele>141.0</ele><time>2026-04-11T16:55:42.006Z</time></trkpt><trkpt lat="45.5183647" lon="9.1259127"><ele>141.5</ele><time>2026-04-11T16:55:43.006Z</time></trkpt><trkpt lat="45.5182082" lon="9.1256722"><ele>142.0</ele><time>2026-04-11T16:55:44.006Z</time></trkpt><trkpt lat="45.5180468" lon="9.1254342"><ele>140.5</ele><time>2026-04-11T16:55:45.006Z</time></trkpt><trkpt lat="45.5178799" lon="9.1251836"><ele>139.0</ele><time>2026-04-11T16:55:46.006Z</time></trkpt><trkpt lat="45.5177072" lon="9.1249292"><ele>139.0</ele><time>2026-04-11T16:55:47.006Z</time></trkpt><trkpt lat="45.5175345" lon="9.1246726"><ele>139.0</ele><time>2026-04-11T16:55:48.006Z</time></trkpt><trkpt lat="45.5173588" lon="9.1244082"><ele>139.0</ele><time>2026-04-11T16:55:49.006Z</time></trkpt><trkpt lat="45.5171811" lon="9.1241463"><ele>139.0</ele><time>2026-04-11T16:55:50.006Z</time></trkpt><trkpt lat="45.5170106" lon="9.1238779"><ele>138.5</ele><time>2026-04-11T16:55:51.006Z</time></trkpt><trkpt lat="45.5168429" lon="9.1236141"><ele>138.0</ele><time>2026-04-11T16:55:52.006Z</time></trkpt><trkpt lat="45.5166849" lon="9.1233378"><ele>138.5</ele><time>2026-04-11T16:55:53.006Z</time></trkpt><trkpt lat="45.5165353" lon="9.1230695"><ele>139.0</ele><time>2026-04-11T16:55:54.006Z</time></trkpt><trkpt lat="45.5164003" lon="9.1227871"><ele>139.0</ele><time>2026-04-11T16:55:55.006Z</time></trkpt><trkpt lat="45.5162677" lon="9.1224944"><ele>139.0</ele><time>2026-04-11T16:55:56.006Z</time></trkpt><trkpt lat="45.5161518" lon="9.1222009"><ele>139.0</ele><time>2026-04-11T16:55:57.006Z</time></trkpt><trkpt lat="45.5160378" lon="9.1219059"><ele>139.0</ele><time>2026-04-11T16:55:58.006Z</time></trkpt><trkpt lat="45.5159389" lon="9.1215955"><ele>138.0</ele><time>2026-04-11T16:55:59.006Z</time></trkpt><trkpt lat="45.5158584" lon="9.1212894"><ele>137.0</ele><time>2026-04-11T16:56:00.006Z</time></trkpt><trkpt lat="45.5157941" lon="9.1209745"><ele>138.5</ele><time>2026-04-11T16:56:01.006Z</time></trkpt><trkpt lat="45.5157235" lon="9.1206434"><ele>140.0</ele><time>2026-04-11T16:56:02.006Z</time></trkpt><trkpt lat="45.5156822" lon="9.1203254"><ele>140.0</ele><time>2026-04-11T16:56:03.006Z</time></trkpt><trkpt lat="45.5156569" lon="9.1199937"><ele>140.0</ele><time>2026-04-11T16:56:04.006Z</time></trkpt><trkpt lat="45.5156475" lon="9.1196609"><ele>140.0</ele><time>2026-04-11T16:56:05.006Z</time></trkpt><trkpt lat="45.5156328" lon="9.1193377"><ele>140.0</ele><time>2026-04-11T16:56:06.006Z</time></trkpt><trkpt lat="45.5156192" lon="9.1190241"><ele>140.0</ele><time>2026-04-11T16:56:07.006Z</time></trkpt><trkpt lat="45.5156037" lon="9.1187085"><ele>138.5</ele><time>2026-04-11T16:56:08.006Z</time></trkpt><trkpt lat="45.5155808" lon="9.1183862"><ele>137.0</ele><time>2026-04-11T16:56:09.006Z</time></trkpt><trkpt lat="45.5155531" lon="9.1180416"><ele>136.5</ele><time>2026-04-11T16:56:10.006Z</time></trkpt><trkpt lat="45.5155318" lon="9.1176845"><ele>136.0</ele><time>2026-04-11T16:56:11.005Z</time></trkpt><trkpt lat="45.5155185" lon="9.1172989"><ele>136.0</ele><time>2026-04-11T16:56:12.006Z</time></trkpt><trkpt lat="45.5155011" lon="9.1168959"><ele>136.0</ele><time>2026-04-11T16:56:13.006Z</time></trkpt><trkpt lat="45.5154829" lon="9.1164844"><ele>136.0</ele><time>2026-04-11T16:56:14.005Z</time></trkpt><trkpt lat="45.5154667" lon="9.1160921"><ele>136.0</ele><time>2026-04-11T16:56:15.005Z</time></trkpt><trkpt lat="45.5154506" lon="9.11571"><ele>135.5</ele><time>2026-04-11T16:56:16.005Z</time></trkpt><trkpt lat="45.515428" lon="9.1153359"><ele>135.0</ele><time>2026-04-11T16:56:17.005Z</time></trkpt><trkpt lat="45.5154136" lon="9.1149658"><ele>136.5</ele><time>2026-04-11T16:56:18.005Z</time></trkpt><trkpt lat="45.5153986" lon="9.1145947"><ele>138.0</ele><time>2026-04-11T16:56:19.004Z</time></trkpt><trkpt lat="45.5153892" lon="9.1142154"><ele>137.5</ele><time>2026-04-11T16:56:20.005Z</time></trkpt><trkpt lat="45.515381" lon="9.1138318"><ele>137.0</ele><time>2026-04-11T16:56:21.005Z</time></trkpt><trkpt lat="45.5153719" lon="9.1134353"><ele>137.5</ele><time>2026-04-11T16:56:22.005Z</time></trkpt><trkpt lat="45.5153529" lon="9.1130454"><ele>138.0</ele><time>2026-04-11T16:56:23.005Z</time></trkpt><trkpt lat="45.5153331" lon="9.1126638"><ele>137.5</ele><time>2026-04-11T16:56:24.005Z</time></trkpt><trkpt lat="45.5153233" lon="9.1123077"><ele>137.0</ele><time>2026-04-11T16:56:25.005Z</time></trkpt><trkpt lat="45.5153172" lon="9.1119615"><ele>137.0</ele><time>2026-04-11T16:56:26.005Z</time></trkpt><trkpt lat="45.5153013" lon="9.1116055"><ele>137.0</ele><time>2026-04-11T16:56:27.005Z</time></trkpt><trkpt lat="45.515284" lon="9.111263"><ele>139.5</ele><time>2026-04-11T16:56:28.005Z</time></trkpt><trkpt lat="45.5152687" lon="9.1109189"><ele>142.0</ele><time>2026-04-11T16:56:29.005Z</time></trkpt><trkpt lat="45.5152535" lon="9.1105813"><ele>142.5</ele><time>2026-04-11T16:56:30.005Z</time></trkpt><trkpt lat="45.5152372" lon="9.1102425"><ele>143.0</ele><time>2026-04-11T16:56:31.005Z</time></trkpt><trkpt lat="45.5152237" lon="9.1099084"><ele>142.0</ele><time>2026-04-11T16:56:32.005Z</time></trkpt><trkpt lat="45.5152018" lon="9.1095747"><ele>141.0</ele><time>2026-04-11T16:56:33.005Z</time></trkpt><trkpt lat="45.515187" lon="9.1092334"><ele>141.5</ele><time>2026-04-11T16:56:34.005Z</time></trkpt><trkpt lat="45.5151697" lon="9.1088811"><ele>142.0</ele><time>2026-04-11T16:56:35.005Z</time></trkpt><trkpt lat="45.5151546" lon="9.1085277"><ele>142.0</ele><time>2026-04-11T16:56:36.005Z</time></trkpt><trkpt lat="45.5151407" lon="9.1081756"><ele>142.0</ele><time>2026-04-11T16:56:37.005Z</time></trkpt><trkpt lat="45.5151263" lon="9.1078224"><ele>142.0</ele><time>2026-04-11T16:56:38.005Z</time></trkpt><trkpt lat="45.515113" lon="9.1074674"><ele>142.0</ele><time>2026-04-11T16:56:39.005Z</time></trkpt><trkpt lat="45.5150989" lon="9.107107"><ele>142.5</ele><time>2026-04-11T16:56:40.005Z</time></trkpt><trkpt lat="45.5150845" lon="9.1067498"><ele>143.0</ele><time>2026-04-11T16:56:41.004Z</time></trkpt><trkpt lat="45.5150735" lon="9.1063883"><ele>142.0</ele><time>2026-04-11T16:56:42.005Z</time></trkpt><trkpt lat="45.5150585" lon="9.1060187"><ele>141.0</ele><time>2026-04-11T16:56:43.005Z</time></trkpt><trkpt lat="45.5150435" lon="9.1056495"><ele>141.0</ele><time>2026-04-11T16:56:44.005Z</time></trkpt><trkpt lat="45.515028" lon="9.1052722"><ele>141.0</ele><time>2026-04-11T16:56:45.005Z</time></trkpt><trkpt lat="45.5150099" lon="9.1048966"><ele>141.5</ele><time>2026-04-11T16:56:46.005Z</time></trkpt><trkpt lat="45.5149934" lon="9.1045169"><ele>142.0</ele><time>2026-04-11T16:56:47.005Z</time></trkpt><trkpt lat="45.5149744" lon="9.1041335"><ele>143.0</ele><time>2026-04-11T16:56:48.004Z</time></trkpt><trkpt lat="45.5149473" lon="9.1037494"><ele>144.0</ele><time>2026-04-11T16:56:49.005Z</time></trkpt><trkpt lat="45.5149308" lon="9.1033812"><ele>143.5</ele><time>2026-04-11T16:56:50.005Z</time></trkpt><trkpt lat="45.5149126" lon="9.1030143"><ele>143.0</ele><time>2026-04-11T16:56:51.005Z</time></trkpt><trkpt lat="45.5148924" lon="9.1026296"><ele>142.0</ele><time>2026-04-11T16:56:52.005Z</time></trkpt><trkpt lat="45.5148756" lon="9.1022482"><ele>141.0</ele><time>2026-04-11T16:56:53.005Z</time></trkpt><trkpt lat="45.5148595" lon="9.1018664"><ele>141.5</ele><time>2026-04-11T16:56:54.005Z</time></trkpt><trkpt lat="45.5148393" lon="9.1014865"><ele>142.0</ele><time>2026-04-11T16:56:55.005Z</time></trkpt><trkpt lat="45.514821" lon="9.1011111"><ele>142.0</ele><time>2026-04-11T16:56:56.005Z</time></trkpt><trkpt lat="45.5148056" lon="9.1007276"><ele>142.0</ele><time>2026-04-11T16:56:57.005Z</time></trkpt><trkpt lat="45.5147862" lon="9.1003344"><ele>142.0</ele><time>2026-04-11T16:56:58.005Z</time></trkpt><trkpt lat="45.5147701" lon="9.0999325"><ele>142.0</ele><time>2026-04-11T16:56:59.005Z</time></trkpt><trkpt lat="45.514755" lon="9.0995189"><ele>142.5</ele><time>2026-04-11T16:57:00.004Z</time></trkpt><trkpt lat="45.5147376" lon="9.0990954"><ele>143.0</ele><time>2026-04-11T16:57:01.005Z</time></trkpt><trkpt lat="45.5147235" lon="9.0986548"><ele>142.0</ele><time>2026-04-11T16:57:02.004Z</time></trkpt><trkpt lat="45.5147032" lon="9.0982076"><ele>141.0</ele><time>2026-04-11T16:57:03.005Z</time></trkpt><trkpt lat="45.5146833" lon="9.0977601"><ele>141.5</ele><time>2026-04-11T16:57:04.005Z</time></trkpt><trkpt lat="45.5146577" lon="9.0973026"><ele>142.0</ele><time>2026-04-11T16:57:05.005Z</time></trkpt><trkpt lat="45.5146378" lon="9.0968425"><ele>142.0</ele><time>2026-04-11T16:57:06.004Z</time></trkpt><trkpt lat="45.5146181" lon="9.0963919"><ele>142.0</ele><time>2026-04-11T16:57:07.005Z</time></trkpt><trkpt lat="45.5146001" lon="9.0959361"><ele>142.5</ele><time>2026-04-11T16:57:08.005Z</time></trkpt><trkpt lat="45.514587" lon="9.0954791"><ele>143.0</ele><time>2026-04-11T16:57:09.005Z</time></trkpt><trkpt lat="45.5145665" lon="9.0950147"><ele>143.0</ele><time>2026-04-11T16:57:10.004Z</time></trkpt><trkpt lat="45.5145515" lon="9.0945542"><ele>143.0</ele><time>2026-04-11T16:57:11.005Z</time></trkpt><trkpt lat="45.5145333" lon="9.0940984"><ele>143.0</ele><time>2026-04-11T16:57:12.005Z</time></trkpt><trkpt lat="45.514516" lon="9.0936565"><ele>143.0</ele><time>2026-04-11T16:57:13.005Z</time></trkpt><trkpt lat="45.5144997" lon="9.0932193"><ele>143.0</ele><time>2026-04-11T16:57:14.005Z</time></trkpt><trkpt lat="45.5144835" lon="9.0927861"><ele>143.0</ele><time>2026-04-11T16:57:15.005Z</time></trkpt><trkpt lat="45.5144658" lon="9.0923573"><ele>142.5</ele><time>2026-04-11T16:57:16.004Z</time></trkpt><trkpt lat="45.514447" lon="9.0919349"><ele>142.0</ele><time>2026-04-11T16:57:17.005Z</time></trkpt><trkpt lat="45.5144319" lon="9.0915168"><ele>141.5</ele><time>2026-04-11T16:57:18.005Z</time></trkpt><trkpt lat="45.514416" lon="9.0910994"><ele>141.0</ele><time>2026-04-11T16:57:19.005Z</time></trkpt><trkpt lat="45.5143966" lon="9.0906825"><ele>141.0</ele><time>2026-04-11T16:57:20.004Z</time></trkpt><trkpt lat="45.5143792" lon="9.0902678"><ele>141.0</ele><time>2026-04-11T16:57:21.005Z</time></trkpt><trkpt lat="45.5143642" lon="9.0898576"><ele>141.0</ele><time>2026-04-11T16:57:22.005Z</time></trkpt><trkpt lat="45.5143469" lon="9.0894463"><ele>141.0</ele><time>2026-04-11T16:57:23.005Z</time></trkpt><trkpt lat="45.5143303" lon="9.0890381"><ele>141.5</ele><time>2026-04-11T16:57:24.005Z</time></trkpt><trkpt lat="45.5143028" lon="9.0886209"><ele>142.0</ele><time>2026-04-11T16:57:25.004Z</time></trkpt><trkpt lat="45.5142858" lon="9.0882074"><ele>143.0</ele><time>2026-04-11T16:57:26.005Z</time></trkpt><trkpt lat="45.5142644" lon="9.0877939"><ele>144.0</ele><time>2026-04-11T16:57:27.005Z</time></trkpt><trkpt lat="45.5142481" lon="9.0873752"><ele>144.0</ele><time>2026-04-11T16:57:28.005Z</time></trkpt><trkpt lat="45.5142268" lon="9.0869618"><ele>144.0</ele><time>2026-04-11T16:57:29.005Z</time></trkpt><trkpt lat="45.514207" lon="9.08655"><ele>144.0</ele><time>2026-04-11T16:57:30.004Z</time></trkpt><trkpt lat="45.5141892" lon="9.0861457"><ele>144.0</ele><time>2026-04-11T16:57:31.005Z</time></trkpt><trkpt lat="45.5141731" lon="9.085739"><ele>143.5</ele><time>2026-04-11T16:57:32.005Z</time></trkpt><trkpt lat="45.5141541" lon="9.0853311"><ele>143.0</ele><time>2026-04-11T16:57:33.005Z</time></trkpt><trkpt lat="45.5141353" lon="9.0849242"><ele>142.5</ele><time>2026-04-11T16:57:34.005Z</time></trkpt><trkpt lat="45.5141096" lon="9.0845129"><ele>142.0</ele><time>2026-04-11T16:57:35.005Z</time></trkpt><trkpt lat="45.5140901" lon="9.0841046"><ele>142.5</ele><time>2026-04-11T16:57:36.005Z</time></trkpt><trkpt lat="45.5140659" lon="9.0837027"><ele>143.0</ele><time>2026-04-11T16:57:37.005Z</time></trkpt><trkpt lat="45.5140419" lon="9.0833003"><ele>143.5</ele><time>2026-04-11T16:57:38.005Z</time></trkpt><trkpt lat="45.5140183" lon="9.0828848"><ele>144.0</ele><time>2026-04-11T16:57:39.005Z</time></trkpt><trkpt lat="45.5139927" lon="9.0824486"><ele>143.5</ele><time>2026-04-11T16:57:40.005Z</time></trkpt><trkpt lat="45.5139664" lon="9.0820104"><ele>143.0</ele><time>2026-04-11T16:57:41.005Z</time></trkpt><trkpt lat="45.5139437" lon="9.0815744"><ele>143.0</ele><time>2026-04-11T16:57:42.005Z</time></trkpt><trkpt lat="45.5139198" lon="9.0811341"><ele>143.0</ele><time>2026-04-11T16:57:43.005Z</time></trkpt><trkpt lat="45.5138941" lon="9.0806909"><ele>143.5</ele><time>2026-04-11T16:57:44.005Z</time></trkpt><trkpt lat="45.5138706" lon="9.0802496"><ele>144.0</ele><time>2026-04-11T16:57:45.005Z</time></trkpt><trkpt lat="45.513849" lon="9.0798109"><ele>145.0</ele><time>2026-04-11T16:57:46.005Z</time></trkpt><trkpt lat="45.5138273" lon="9.0793682"><ele>146.0</ele><time>2026-04-11T16:57:47.005Z</time></trkpt><trkpt lat="45.5138013" lon="9.0789319"><ele>146.0</ele><time>2026-04-11T16:57:48.005Z</time></trkpt><trkpt lat="45.5137667" lon="9.0784929"><ele>146.0</ele><time>2026-04-11T16:57:49.005Z</time></trkpt><trkpt lat="45.5137362" lon="9.078058"><ele>145.5</ele><time>2026-04-11T16:57:50.005Z</time></trkpt><trkpt lat="45.5137165" lon="9.0776225"><ele>145.0</ele><time>2026-04-11T16:57:51.005Z</time></trkpt><trkpt lat="45.5136959" lon="9.0771995"><ele>145.0</ele><time>2026-04-11T16:57:52.005Z</time></trkpt><trkpt lat="45.5136728" lon="9.0767841"><ele>145.0</ele><time>2026-04-11T16:57:53.005Z</time></trkpt><trkpt lat="45.513654" lon="9.0763641"><ele>144.5</ele><time>2026-04-11T16:57:54.005Z</time></trkpt><trkpt lat="45.5136414" lon="9.0759547"><ele>144.0</ele><time>2026-04-11T16:57:55.005Z</time></trkpt><trkpt lat="45.5136222" lon="9.0755491"><ele>144.0</ele><time>2026-04-11T16:57:56.005Z</time></trkpt><trkpt lat="45.5136081" lon="9.0751495"><ele>144.0</ele><time>2026-04-11T16:57:57.005Z</time></trkpt><trkpt lat="45.5135937" lon="9.0747557"><ele>144.0</ele><time>2026-04-11T16:57:58.005Z</time></trkpt><trkpt lat="45.5135738" lon="9.0743717"><ele>144.0</ele><time>2026-04-11T16:57:59.005Z</time></trkpt><trkpt lat="45.5135482" lon="9.0739937"><ele>143.5</ele><time>2026-04-11T16:58:00.005Z</time></trkpt><trkpt lat="45.5135279" lon="9.0736193"><ele>143.0</ele><time>2026-04-11T16:58:01.005Z</time></trkpt><trkpt lat="45.5135028" lon="9.0732403"><ele>143.0</ele><time>2026-04-11T16:58:02.004Z</time></trkpt><trkpt lat="45.5134815" lon="9.0728678"><ele>143.0</ele><time>2026-04-11T16:58:03.005Z</time></trkpt><trkpt lat="45.5134632" lon="9.0725037"><ele>143.0</ele><time>2026-04-11T16:58:04.005Z</time></trkpt><trkpt lat="45.513442" lon="9.0721397"><ele>143.0</ele><time>2026-04-11T16:58:05.005Z</time></trkpt><trkpt lat="45.5134192" lon="9.0717817"><ele>142.5</ele><time>2026-04-11T16:58:06.005Z</time></trkpt><trkpt lat="45.5133923" lon="9.0714192"><ele>142.0</ele><time>2026-04-11T16:58:07.005Z</time></trkpt><trkpt lat="45.5133646" lon="9.0710618"><ele>142.5</ele><time>2026-04-11T16:58:08.005Z</time></trkpt><trkpt lat="45.513342" lon="9.0707069"><ele>143.0</ele><time>2026-04-11T16:58:09.005Z</time></trkpt><trkpt lat="45.5133129" lon="9.0703539"><ele>143.0</ele><time>2026-04-11T16:58:10.004Z</time></trkpt><trkpt lat="45.5132896" lon="9.0700071"><ele>143.0</ele><time>2026-04-11T16:58:11.005Z</time></trkpt><trkpt lat="45.513263" lon="9.0696533"><ele>143.5</ele><time>2026-04-11T16:58:12.005Z</time></trkpt><trkpt lat="45.5132356" lon="9.0693022"><ele>144.0</ele><time>2026-04-11T16:58:13.005Z</time></trkpt><trkpt lat="45.5132066" lon="9.0689596"><ele>144.0</ele><time>2026-04-11T16:58:14.004Z</time></trkpt><trkpt lat="45.5131723" lon="9.0686151"><ele>144.0</ele><time>2026-04-11T16:58:15.005Z</time></trkpt><trkpt lat="45.5131425" lon="9.0682859"><ele>144.33333333333334</ele><time>2026-04-11T16:58:16.005Z</time></trkpt><trkpt lat="45.5131092" lon="9.067963"><ele>144.66666666666669</ele><time>2026-04-11T16:58:17.005Z</time></trkpt><trkpt lat="45.5130828" lon="9.0676506"><ele>145.0</ele><time>2026-04-11T16:58:18.005Z</time></trkpt><trkpt lat="45.5130563" lon="9.0673486"><ele>145.0</ele><time>2026-04-11T16:58:19.005Z</time></trkpt><trkpt lat="45.5130247" lon="9.0670703"><ele>145.0</ele><time>2026-04-11T16:58:20.005Z</time></trkpt><trkpt lat="45.5130003" lon="9.066798"><ele>145.0</ele><time>2026-04-11T16:58:21.005Z</time></trkpt><trkpt lat="45.5129735" lon="9.0665267"><ele>145.0</ele><time>2026-04-11T16:58:22.005Z</time></trkpt><trkpt lat="45.5129464" lon="9.0662618"><ele>145.0</ele><time>2026-04-11T16:58:23.005Z</time></trkpt><trkpt lat="45.5129242" lon="9.0659999"><ele>145.0</ele><time>2026-04-11T16:58:24.005Z</time></trkpt><trkpt lat="45.5128976" lon="9.0657298"><ele>146.0</ele><time>2026-04-11T16:58:25.005Z</time></trkpt><trkpt lat="45.5128729" lon="9.0654702"><ele>147.0</ele><time>2026-04-11T16:58:26.005Z</time></trkpt><trkpt lat="45.51285" lon="9.0652212"><ele>148.0</ele><time>2026-04-11T16:58:27.005Z</time></trkpt><trkpt lat="45.5128271" lon="9.0649697"><ele>147.66666666666669</ele><time>2026-04-11T16:58:28.005Z</time></trkpt><trkpt lat="45.512801" lon="9.0647197"><ele>147.33333333333334</ele><time>2026-04-11T16:58:29.005Z</time></trkpt><trkpt lat="45.5127755" lon="9.0644728"><ele>147.0</ele><time>2026-04-11T16:58:30.004Z</time></trkpt><trkpt lat="45.5127574" lon="9.064226"><ele>147.0</ele><time>2026-04-11T16:58:31.004Z</time></trkpt><trkpt lat="45.5127395" lon="9.0639865"><ele>147.0</ele><time>2026-04-11T16:58:32.005Z</time></trkpt><trkpt lat="45.5127261" lon="9.0637734"><ele>147.0</ele><time>2026-04-11T16:58:33.005Z</time></trkpt><trkpt lat="45.5127138" lon="9.0635607"><ele>147.0</ele><time>2026-04-11T16:58:34.005Z</time></trkpt><trkpt lat="45.5127488" lon="9.0633867"><ele>147.0</ele><time>2026-04-11T16:58:35.005Z</time></trkpt><trkpt lat="45.5127889" lon="9.0631972"><ele>147.0</ele><time>2026-04-11T16:58:36.005Z</time></trkpt><trkpt lat="45.512861" lon="9.0629797"><ele>147.0</ele><time>2026-04-11T16:58:37.005Z</time></trkpt><trkpt lat="45.5129498" lon="9.0627748"><ele>147.0</ele><time>2026-04-11T16:58:38.005Z</time></trkpt><trkpt lat="45.5130266" lon="9.0625846"><ele>147.0</ele><time>2026-04-11T16:58:39.005Z</time></trkpt><trkpt lat="45.5130937" lon="9.0624126"><ele>147.0</ele><time>2026-04-11T16:58:40.005Z</time></trkpt><trkpt lat="45.5131539" lon="9.0622568"><ele>147.0</ele><time>2026-04-11T16:58:41.004Z</time></trkpt><trkpt lat="45.5132144" lon="9.0621094"><ele>146.79999999999998</ele><time>2026-04-11T16:58:42.004Z</time></trkpt><trkpt lat="45.5132759" lon="9.0619783"><ele>146.6</ele><time>2026-04-11T16:58:43.005Z</time></trkpt><trkpt lat="45.5133415" lon="9.0618738"><ele>146.39999999999998</ele><time>2026-04-11T16:58:44.005Z</time></trkpt><trkpt lat="45.513422" lon="9.0617893"><ele>146.2</ele><time>2026-04-11T16:58:45.005Z</time></trkpt><trkpt lat="45.5134924" lon="9.0617377"><ele>146.0</ele><time>2026-04-11T16:58:46.005Z</time></trkpt><trkpt lat="45.5135736" lon="9.0617134"><ele>146.0</ele><time>2026-04-11T16:58:47.005Z</time></trkpt><trkpt lat="45.5136573" lon="9.061721"><ele>146.0</ele><time>2026-04-11T16:58:48.005Z</time></trkpt><trkpt lat="45.5137505" lon="9.0617569"><ele>146.0</ele><time>2026-04-11T16:58:49.005Z</time></trkpt><trkpt lat="45.5138385" lon="9.0618173"><ele>146.0</ele><time>2026-04-11T16:58:50.005Z</time></trkpt><trkpt lat="45.5139116" lon="9.0619121"><ele>146.0</ele><time>2026-04-11T16:58:51.005Z</time></trkpt><trkpt lat="45.5139664" lon="9.0620383"><ele>146.2</ele><time>2026-04-11T16:58:52.005Z</time></trkpt><trkpt lat="45.5139962" lon="9.0621696"><ele>146.39999999999998</ele><time>2026-04-11T16:58:53.005Z</time></trkpt><trkpt lat="45.5140037" lon="9.0623069"><ele>146.6</ele><time>2026-04-11T16:58:54.004Z</time></trkpt><trkpt lat="45.5139818" lon="9.0624486"><ele>146.79999999999998</ele><time>2026-04-11T16:58:55.005Z</time></trkpt><trkpt lat="45.513956" lon="9.062597"><ele>147.0</ele><time>2026-04-11T16:58:56.005Z</time></trkpt><trkpt lat="45.5139001" lon="9.0627252"><ele>147.0</ele><time>2026-04-11T16:58:57.005Z</time></trkpt><trkpt lat="45.5138399" lon="9.0628529"><ele>147.0</ele><time>2026-04-11T16:58:58.005Z</time></trkpt><trkpt lat="45.5137582" lon="9.0629734"><ele>147.0</ele><time>2026-04-11T16:58:59.005Z</time></trkpt><trkpt lat="45.5136634" lon="9.0630932"><ele>147.0</ele><time>2026-04-11T16:59:00.005Z</time></trkpt><trkpt lat="45.513548" lon="9.0631973"><ele>147.0</ele><time>2026-04-11T16:59:01.005Z</time></trkpt><trkpt lat="45.5134245" lon="9.0632934"><ele>147.0</ele><time>2026-04-11T16:59:02.005Z</time></trkpt><trkpt lat="45.5132966" lon="9.0633819"><ele>147.0</ele><time>2026-04-11T16:59:03.004Z</time></trkpt><trkpt lat="45.5131625" lon="9.0634682"><ele>147.0</ele><time>2026-04-11T16:59:04.004Z</time></trkpt><trkpt lat="45.5130133" lon="9.0635561"><ele>147.0</ele><time>2026-04-11T16:59:05.004Z</time></trkpt><trkpt lat="45.5128582" lon="9.063642"><ele>147.0</ele><time>2026-04-11T16:59:06.005Z</time></trkpt><trkpt lat="45.5126859" lon="9.0637153"><ele>147.0</ele><time>2026-04-11T16:59:07.005Z</time></trkpt><trkpt lat="45.5125025" lon="9.0637743"><ele>147.0</ele><time>2026-04-11T16:59:08.005Z</time></trkpt><trkpt lat="45.5123238" lon="9.0638299"><ele>147.0</ele><time>2026-04-11T16:59:09.005Z</time></trkpt><trkpt lat="45.5121493" lon="9.0638807"><ele>147.0</ele><time>2026-04-11T16:59:10.005Z</time></trkpt><trkpt lat="45.5119778" lon="9.0639168"><ele>146.66666666666666</ele><time>2026-04-11T16:59:11.005Z</time></trkpt><trkpt lat="45.5118071" lon="9.0639375"><ele>146.33333333333331</ele><time>2026-04-11T16:59:12.005Z</time></trkpt><trkpt lat="45.5116366" lon="9.0639393"><ele>146.0</ele><time>2026-04-11T16:59:13.005Z</time></trkpt><trkpt lat="45.5114644" lon="9.0639374"><ele>146.0</ele><time>2026-04-11T16:59:14.005Z</time></trkpt><trkpt lat="45.5112865" lon="9.063934"><ele>146.0</ele><time>2026-04-11T16:59:15.005Z</time></trkpt><trkpt lat="45.511103" lon="9.063918"><ele>146.0</ele><time>2026-04-11T16:59:16.004Z</time></trkpt><trkpt lat="45.510916" lon="9.0638897"><ele>146.33333333333331</ele><time>2026-04-11T16:59:17.005Z</time></trkpt><trkpt lat="45.5107316" lon="9.0638486"><ele>146.66666666666666</ele><time>2026-04-11T16:59:18.005Z</time></trkpt><trkpt lat="45.5105556" lon="9.0638005"><ele>147.0</ele><time>2026-04-11T16:59:19.005Z</time></trkpt><trkpt lat="45.5103847" lon="9.0637577"><ele>145.66666666666666</ele><time>2026-04-11T16:59:20.005Z</time></trkpt><trkpt lat="45.510221" lon="9.0636954"><ele>144.33333333333331</ele><time>2026-04-11T16:59:21.005Z</time></trkpt><trkpt lat="45.5100494" lon="9.0636424"><ele>143.0</ele><time>2026-04-11T16:59:22.005Z</time></trkpt><trkpt lat="45.5098851" lon="9.0635917"><ele>143.0</ele><time>2026-04-11T16:59:23.005Z</time></trkpt><trkpt lat="45.5097249" lon="9.0635508"><ele>143.0</ele><time>2026-04-11T16:59:24.005Z</time></trkpt><trkpt lat="45.5095705" lon="9.0635207"><ele>143.0</ele><time>2026-04-11T16:59:25.005Z</time></trkpt><trkpt lat="45.5094226" lon="9.0634866"><ele>144.0</ele><time>2026-04-11T16:59:26.005Z</time></trkpt><trkpt lat="45.5092723" lon="9.0634622"><ele>145.0</ele><time>2026-04-11T16:59:27.004Z</time></trkpt><trkpt lat="45.5091141" lon="9.0634237"><ele>146.0</ele><time>2026-04-11T16:59:28.005Z</time></trkpt><trkpt lat="45.5089391" lon="9.0633935"><ele>146.0</ele><time>2026-04-11T16:59:29.005Z</time></trkpt><trkpt lat="45.508763" lon="9.0634253"><ele>146.0</ele><time>2026-04-11T16:59:30.005Z</time></trkpt><trkpt lat="45.5085737" lon="9.0634458"><ele>146.0</ele><time>2026-04-11T16:59:31.005Z</time></trkpt><trkpt lat="45.508378" lon="9.0634586"><ele>146.0</ele><time>2026-04-11T16:59:32.005Z</time></trkpt><trkpt lat="45.5081953" lon="9.0634911"><ele>146.0</ele><time>2026-04-11T16:59:33.005Z</time></trkpt><trkpt lat="45.5080118" lon="9.0635257"><ele>146.0</ele><time>2026-04-11T16:59:34.005Z</time></trkpt><trkpt lat="45.5078248" lon="9.0635608"><ele>145.0</ele><time>2026-04-11T16:59:35.005Z</time></trkpt><trkpt lat="45.5076283" lon="9.0635867"><ele>144.0</ele><time>2026-04-11T16:59:36.004Z</time></trkpt><trkpt lat="45.5074494" lon="9.0636234"><ele>143.0</ele><time>2026-04-11T16:59:37.005Z</time></trkpt><trkpt lat="45.507283" lon="9.0636744"><ele>143.0</ele><time>2026-04-11T16:59:38.005Z</time></trkpt><trkpt lat="45.5071049" lon="9.0637319"><ele>143.0</ele><time>2026-04-11T16:59:39.005Z</time></trkpt><trkpt lat="45.5069261" lon="9.0637935"><ele>143.0</ele><time>2026-04-11T16:59:40.005Z</time></trkpt><trkpt lat="45.5067551" lon="9.0638591"><ele>143.0</ele><time>2026-04-11T16:59:41.005Z</time></trkpt><trkpt lat="45.5065849" lon="9.0639345"><ele>143.0</ele><time>2026-04-11T16:59:42.005Z</time></trkpt><trkpt lat="45.5064187" lon="9.0640121"><ele>143.0</ele><time>2026-04-11T16:59:43.005Z</time></trkpt><trkpt lat="45.5062477" lon="9.0641027"><ele>143.33333333333331</ele><time>2026-04-11T16:59:44.005Z</time></trkpt><trkpt lat="45.5060702" lon="9.0642016"><ele>143.66666666666666</ele><time>2026-04-11T16:59:45.005Z</time></trkpt><trkpt lat="45.5058958" lon="9.0643019"><ele>144.0</ele><time>2026-04-11T16:59:46.005Z</time></trkpt><trkpt lat="45.5057093" lon="9.0644151"><ele>144.0</ele><time>2026-04-11T16:59:47.005Z</time></trkpt><trkpt lat="45.5055122" lon="9.0645427"><ele>144.0</ele><time>2026-04-11T16:59:48.005Z</time></trkpt><trkpt lat="45.505292" lon="9.0646746"><ele>142.5</ele><time>2026-04-11T16:59:49.005Z</time></trkpt><trkpt lat="45.5050553" lon="9.0648113"><ele>141.0</ele><time>2026-04-11T16:59:50.005Z</time></trkpt><trkpt lat="45.5048103" lon="9.0649492"><ele>140.0</ele><time>2026-04-11T16:59:51.005Z</time></trkpt><trkpt lat="45.5045532" lon="9.065076"><ele>139.0</ele><time>2026-04-11T16:59:52.005Z</time></trkpt><trkpt lat="45.5042879" lon="9.0652113"><ele>139.0</ele><time>2026-04-11T16:59:53.005Z</time></trkpt><trkpt lat="45.5040257" lon="9.0653304"><ele>139.0</ele><time>2026-04-11T16:59:54.004Z</time></trkpt><trkpt lat="45.5037638" lon="9.0654507"><ele>140.5</ele><time>2026-04-11T16:59:55.004Z</time></trkpt><trkpt lat="45.5035049" lon="9.0655715"><ele>142.0</ele><time>2026-04-11T16:59:56.005Z</time></trkpt><trkpt lat="45.5032437" lon="9.065685"><ele>141.5</ele><time>2026-04-11T16:59:57.005Z</time></trkpt><trkpt lat="45.5029843" lon="9.0657974"><ele>141.0</ele><time>2026-04-11T16:59:58.005Z</time></trkpt><trkpt lat="45.5027166" lon="9.0659135"><ele>141.0</ele><time>2026-04-11T16:59:59.005Z</time></trkpt><trkpt lat="45.502449" lon="9.0660239"><ele>141.0</ele><time>2026-04-11T17:00:00.005Z</time></trkpt><trkpt lat="45.5021764" lon="9.0661378"><ele>139.5</ele><time>2026-04-11T17:00:01.005Z</time></trkpt><trkpt lat="45.5019088" lon="9.0662449"><ele>138.0</ele><time>2026-04-11T17:00:02.005Z</time></trkpt><trkpt lat="45.5016395" lon="9.0663403"><ele>138.0</ele><time>2026-04-11T17:00:03.005Z</time></trkpt><trkpt lat="45.5013722" lon="9.0664235"><ele>138.0</ele><time>2026-04-11T17:00:04.005Z</time></trkpt><trkpt lat="45.5011058" lon="9.0664913"><ele>137.5</ele><time>2026-04-11T17:00:05.005Z</time></trkpt><trkpt lat="45.500833" lon="9.06655"><ele>137.0</ele><time>2026-04-11T17:00:06.005Z</time></trkpt><trkpt lat="45.5005559" lon="9.0666059"><ele>137.5</ele><time>2026-04-11T17:00:07.004Z</time></trkpt><trkpt lat="45.5002808" lon="9.0666443"><ele>138.0</ele><time>2026-04-11T17:00:08.005Z</time></trkpt><trkpt lat="45.5000047" lon="9.0666772"><ele>138.0</ele><time>2026-04-11T17:00:09.005Z</time></trkpt><trkpt lat="45.4997258" lon="9.0667022"><ele>138.0</ele><time>2026-04-11T17:00:10.005Z</time></trkpt><trkpt lat="45.4994458" lon="9.0667159"><ele>136.5</ele><time>2026-04-11T17:00:11.005Z</time></trkpt><trkpt lat="45.499164" lon="9.0667223"><ele>135.0</ele><time>2026-04-11T17:00:12.005Z</time></trkpt><trkpt lat="45.4988807" lon="9.0667151"><ele>135.5</ele><time>2026-04-11T17:00:13.005Z</time></trkpt><trkpt lat="45.4985987" lon="9.0667082"><ele>136.0</ele><time>2026-04-11T17:00:14.005Z</time></trkpt><trkpt lat="45.4983174" lon="9.0666969"><ele>136.0</ele><time>2026-04-11T17:00:15.005Z</time></trkpt><trkpt lat="45.4980424" lon="9.0666915"><ele>136.0</ele><time>2026-04-11T17:00:16.005Z</time></trkpt><trkpt lat="45.4977519" lon="9.0666816"><ele>136.5</ele><time>2026-04-11T17:00:17.005Z</time></trkpt><trkpt lat="45.4974663" lon="9.0666613"><ele>137.0</ele><time>2026-04-11T17:00:18.005Z</time></trkpt><trkpt lat="45.4971814" lon="9.0666453"><ele>137.0</ele><time>2026-04-11T17:00:19.005Z</time></trkpt><trkpt lat="45.4968985" lon="9.0666389"><ele>137.0</ele><time>2026-04-11T17:00:20.005Z</time></trkpt><trkpt lat="45.4966133" lon="9.0666315"><ele>137.0</ele><time>2026-04-11T17:00:21.005Z</time></trkpt><trkpt lat="45.4963311" lon="9.0666198"><ele>137.0</ele><time>2026-04-11T17:00:22.005Z</time></trkpt><trkpt lat="45.4960461" lon="9.0666016"><ele>137.0</ele><time>2026-04-11T17:00:23.005Z</time></trkpt><trkpt lat="45.4957571" lon="9.0665956"><ele>137.0</ele><time>2026-04-11T17:00:24.005Z</time></trkpt><trkpt lat="45.4954724" lon="9.0665785"><ele>137.0</ele><time>2026-04-11T17:00:25.005Z</time></trkpt><trkpt lat="45.4951891" lon="9.0665632"><ele>137.0</ele><time>2026-04-11T17:00:26.005Z</time></trkpt><trkpt lat="45.4949077" lon="9.0665529"><ele>137.0</ele><time>2026-04-11T17:00:27.005Z</time></trkpt><trkpt lat="45.4946174" lon="9.0665479"><ele>137.0</ele><time>2026-04-11T17:00:28.005Z</time></trkpt><trkpt lat="45.4943306" lon="9.066545"><ele>136.0</ele><time>2026-04-11T17:00:29.005Z</time></trkpt><trkpt lat="45.4940522" lon="9.0665413"><ele>135.0</ele><time>2026-04-11T17:00:30.005Z</time></trkpt><trkpt lat="45.4937708" lon="9.0665396"><ele>135.5</ele><time>2026-04-11T17:00:31.005Z</time></trkpt><trkpt lat="45.4934979" lon="9.0665269"><ele>136.0</ele><time>2026-04-11T17:00:32.005Z</time></trkpt><trkpt lat="45.4932338" lon="9.0665212"><ele>136.0</ele><time>2026-04-11T17:00:33.005Z</time></trkpt><trkpt lat="45.4929713" lon="9.066517"><ele>136.0</ele><time>2026-04-11T17:00:34.005Z</time></trkpt><trkpt lat="45.4927047" lon="9.0665004"><ele>134.0</ele><time>2026-04-11T17:00:35.005Z</time></trkpt><trkpt lat="45.4924408" lon="9.0664833"><ele>132.0</ele><time>2026-04-11T17:00:36.004Z</time></trkpt><trkpt lat="45.492184" lon="9.0664745"><ele>133.0</ele><time>2026-04-11T17:00:37.005Z</time></trkpt><trkpt lat="45.4919304" lon="9.0664664"><ele>134.0</ele><time>2026-04-11T17:00:38.005Z</time></trkpt><trkpt lat="45.4916707" lon="9.0664563"><ele>134.0</ele><time>2026-04-11T17:00:39.005Z</time></trkpt><trkpt lat="45.4914176" lon="9.0664526"><ele>134.0</ele><time>2026-04-11T17:00:40.005Z</time></trkpt><trkpt lat="45.491157" lon="9.0664554"><ele>134.0</ele><time>2026-04-11T17:00:41.005Z</time></trkpt><trkpt lat="45.4908912" lon="9.0664542"><ele>134.0</ele><time>2026-04-11T17:00:42.005Z</time></trkpt><trkpt lat="45.490622" lon="9.0664688"><ele>134.0</ele><time>2026-04-11T17:00:43.005Z</time></trkpt><trkpt lat="45.4903563" lon="9.0665001"><ele>134.0</ele><time>2026-04-11T17:00:44.005Z</time></trkpt><trkpt lat="45.4900851" lon="9.0665456"><ele>134.0</ele><time>2026-04-11T17:00:45.005Z</time></trkpt><trkpt lat="45.4898101" lon="9.0665959"><ele>134.0</ele><time>2026-04-11T17:00:46.004Z</time></trkpt><trkpt lat="45.4895338" lon="9.0666559"><ele>135.0</ele><time>2026-04-11T17:00:47.005Z</time></trkpt><trkpt lat="45.4892482" lon="9.0667175"><ele>136.0</ele><time>2026-04-11T17:00:48.005Z</time></trkpt><trkpt lat="45.4889638" lon="9.0667951"><ele>136.0</ele><time>2026-04-11T17:00:49.005Z</time></trkpt><trkpt lat="45.4886825" lon="9.0668821"><ele>136.0</ele><time>2026-04-11T17:00:50.005Z</time></trkpt><trkpt lat="45.4884047" lon="9.0669783"><ele>136.0</ele><time>2026-04-11T17:00:51.005Z</time></trkpt><trkpt lat="45.4881218" lon="9.0670939"><ele>136.0</ele><time>2026-04-11T17:00:52.005Z</time></trkpt><trkpt lat="45.4878445" lon="9.0672183"><ele>136.0</ele><time>2026-04-11T17:00:53.005Z</time></trkpt><trkpt lat="45.4875704" lon="9.067345"><ele>136.0</ele><time>2026-04-11T17:00:54.004Z</time></trkpt><trkpt lat="45.4872953" lon="9.0674861"><ele>135.0</ele><time>2026-04-11T17:00:55.005Z</time></trkpt><trkpt lat="45.4870252" lon="9.0676416"><ele>134.0</ele><time>2026-04-11T17:00:56.004Z</time></trkpt><trkpt lat="45.4867595" lon="9.0678066"><ele>134.0</ele><time>2026-04-11T17:00:57.005Z</time></trkpt><trkpt lat="45.4864917" lon="9.0679795"><ele>134.0</ele><time>2026-04-11T17:00:58.005Z</time></trkpt><trkpt lat="45.4862259" lon="9.0681661"><ele>133.0</ele><time>2026-04-11T17:00:59.005Z</time></trkpt><trkpt lat="45.4859676" lon="9.0683643"><ele>132.0</ele><time>2026-04-11T17:01:00.005Z</time></trkpt><trkpt lat="45.4857143" lon="9.0685696"><ele>132.0</ele><time>2026-04-11T17:01:01.005Z</time></trkpt><trkpt lat="45.4854645" lon="9.0687767"><ele>132.0</ele><time>2026-04-11T17:01:02.005Z</time></trkpt><trkpt lat="45.4852144" lon="9.0689983"><ele>132.5</ele><time>2026-04-11T17:01:03.005Z</time></trkpt><trkpt lat="45.4849658" lon="9.0692247"><ele>133.0</ele><time>2026-04-11T17:01:04.004Z</time></trkpt><trkpt lat="45.4847192" lon="9.0694551"><ele>132.0</ele><time>2026-04-11T17:01:05.005Z</time></trkpt><trkpt lat="45.4844744" lon="9.0696924"><ele>131.0</ele><time>2026-04-11T17:01:06.004Z</time></trkpt><trkpt lat="45.4842275" lon="9.0699296"><ele>130.0</ele><time>2026-04-11T17:01:07.005Z</time></trkpt><trkpt lat="45.4839841" lon="9.0701668"><ele>129.0</ele><time>2026-04-11T17:01:08.005Z</time></trkpt><trkpt lat="45.4837398" lon="9.0704096"><ele>129.0</ele><time>2026-04-11T17:01:09.005Z</time></trkpt><trkpt lat="45.4834987" lon="9.0706493"><ele>129.0</ele><time>2026-04-11T17:01:10.005Z</time></trkpt><trkpt lat="45.4832518" lon="9.0708848"><ele>129.5</ele><time>2026-04-11T17:01:11.004Z</time></trkpt><trkpt lat="45.4830075" lon="9.0711143"><ele>130.0</ele><time>2026-04-11T17:01:12.005Z</time></trkpt><trkpt lat="45.4827604" lon="9.0713486"><ele>130.0</ele><time>2026-04-11T17:01:13.005Z</time></trkpt><trkpt lat="45.4825194" lon="9.0715761"><ele>130.0</ele><time>2026-04-11T17:01:14.005Z</time></trkpt><trkpt lat="45.4822827" lon="9.0718058"><ele>130.0</ele><time>2026-04-11T17:01:15.005Z</time></trkpt><trkpt lat="45.4820372" lon="9.0720305"><ele>130.0</ele><time>2026-04-11T17:01:16.005Z</time></trkpt><trkpt lat="45.4817937" lon="9.0722552"><ele>130.0</ele><time>2026-04-11T17:01:17.005Z</time></trkpt><trkpt lat="45.4815542" lon="9.0724784"><ele>130.0</ele><time>2026-04-11T17:01:18.004Z</time></trkpt><trkpt lat="45.481312" lon="9.0727065"><ele>129.5</ele><time>2026-04-11T17:01:19.005Z</time></trkpt><trkpt lat="45.4810717" lon="9.072935"><ele>129.0</ele><time>2026-04-11T17:01:20.005Z</time></trkpt><trkpt lat="45.4808332" lon="9.0731602"><ele>129.0</ele><time>2026-04-11T17:01:21.005Z</time></trkpt><trkpt lat="45.4806001" lon="9.0733875"><ele>129.0</ele><time>2026-04-11T17:01:22.005Z</time></trkpt><trkpt lat="45.4803684" lon="9.073616"><ele>130.5</ele><time>2026-04-11T17:01:23.005Z</time></trkpt><trkpt lat="45.4801348" lon="9.0738393"><ele>132.0</ele><time>2026-04-11T17:01:24.005Z</time></trkpt><trkpt lat="45.4799019" lon="9.074063"><ele>133.0</ele><time>2026-04-11T17:01:25.004Z</time></trkpt><trkpt lat="45.4796679" lon="9.0742829"><ele>134.0</ele><time>2026-04-11T17:01:26.004Z</time></trkpt><trkpt lat="45.4794294" lon="9.0744977"><ele>134.0</ele><time>2026-04-11T17:01:27.003Z</time></trkpt><trkpt lat="45.4791954" lon="9.0747242"><ele>134.0</ele><time>2026-04-11T17:01:28.004Z</time></trkpt><trkpt lat="45.4789597" lon="9.0749478"><ele>133.0</ele><time>2026-04-11T17:01:29.003Z</time></trkpt><trkpt lat="45.4787247" lon="9.0751775"><ele>132.0</ele><time>2026-04-11T17:01:30.004Z</time></trkpt><trkpt lat="45.4784873" lon="9.0754057"><ele>132.0</ele><time>2026-04-11T17:01:31.004Z</time></trkpt><trkpt lat="45.478254" lon="9.0756298"><ele>132.0</ele><time>2026-04-11T17:01:32.003Z</time></trkpt><trkpt lat="45.4780213" lon="9.0758595"><ele>131.5</ele><time>2026-04-11T17:01:33.004Z</time></trkpt><trkpt lat="45.4777877" lon="9.0760876"><ele>131.0</ele><time>2026-04-11T17:01:34.004Z</time></trkpt><trkpt lat="45.477557" lon="9.0763108"><ele>131.0</ele><time>2026-04-11T17:01:35.004Z</time></trkpt><trkpt lat="45.4773225" lon="9.0765421"><ele>131.0</ele><time>2026-04-11T17:01:36.004Z</time></trkpt><trkpt lat="45.4770813" lon="9.0767934"><ele>130.5</ele><time>2026-04-11T17:01:37.004Z</time></trkpt><trkpt lat="45.4768253" lon="9.077057"><ele>130.0</ele><time>2026-04-11T17:01:38.004Z</time></trkpt><trkpt lat="45.4765503" lon="9.0773218"><ele>130.5</ele><time>2026-04-11T17:01:39.004Z</time></trkpt><trkpt lat="45.4762843" lon="9.0775814"><ele>131.0</ele><time>2026-04-11T17:01:40.003Z</time></trkpt><trkpt lat="45.4760276" lon="9.0778296"><ele>131.0</ele><time>2026-04-11T17:01:41.003Z</time></trkpt><trkpt lat="45.4757776" lon="9.0780706"><ele>131.0</ele><time>2026-04-11T17:01:42.004Z</time></trkpt><trkpt lat="45.4755311" lon="9.0782944"><ele>131.5</ele><time>2026-04-11T17:01:43.004Z</time></trkpt><trkpt lat="45.4752786" lon="9.078502"><ele>132.0</ele><time>2026-04-11T17:01:44.004Z</time></trkpt><trkpt lat="45.4750162" lon="9.0787084"><ele>132.0</ele><time>2026-04-11T17:01:45.004Z</time></trkpt><trkpt lat="45.4747583" lon="9.0788812"><ele>132.0</ele><time>2026-04-11T17:01:46.004Z</time></trkpt><trkpt lat="45.4744883" lon="9.0790389"><ele>131.0</ele><time>2026-04-11T17:01:47.004Z</time></trkpt><trkpt lat="45.4742167" lon="9.0791835"><ele>130.0</ele><time>2026-04-11T17:01:48.004Z</time></trkpt><trkpt lat="45.4739425" lon="9.0792993"><ele>130.0</ele><time>2026-04-11T17:01:49.004Z</time></trkpt><trkpt lat="45.4736744" lon="9.0794079"><ele>130.0</ele><time>2026-04-11T17:01:50.004Z</time></trkpt><trkpt lat="45.4734" lon="9.0794886"><ele>130.0</ele><time>2026-04-11T17:01:51.004Z</time></trkpt><trkpt lat="45.4731226" lon="9.0795555"><ele>130.0</ele><time>2026-04-11T17:01:52.004Z</time></trkpt><trkpt lat="45.4728454" lon="9.0795939"><ele>129.0</ele><time>2026-04-11T17:01:53.004Z</time></trkpt><trkpt lat="45.4725826" lon="9.0796223"><ele>128.0</ele><time>2026-04-11T17:01:54.004Z</time></trkpt><trkpt lat="45.472319" lon="9.0796295"><ele>128.0</ele><time>2026-04-11T17:01:55.003Z</time></trkpt><trkpt lat="45.4720556" lon="9.0796299"><ele>128.0</ele><time>2026-04-11T17:01:56.004Z</time></trkpt><trkpt lat="45.4717843" lon="9.0795926"><ele>128.0</ele><time>2026-04-11T17:01:57.004Z</time></trkpt><trkpt lat="45.4715019" lon="9.0795313"><ele>128.0</ele><time>2026-04-11T17:01:58.004Z</time></trkpt><trkpt lat="45.4712235" lon="9.079459"><ele>128.0</ele><time>2026-04-11T17:01:59.004Z</time></trkpt><trkpt lat="45.4709484" lon="9.0793571"><ele>128.0</ele><time>2026-04-11T17:02:00.004Z</time></trkpt><trkpt lat="45.4706734" lon="9.0792329"><ele>128.0</ele><time>2026-04-11T17:02:01.004Z</time></trkpt><trkpt lat="45.4704015" lon="9.0790956"><ele>128.0</ele><time>2026-04-11T17:02:02.004Z</time></trkpt><trkpt lat="45.4701321" lon="9.0789481"><ele>128.0</ele><time>2026-04-11T17:02:03.004Z</time></trkpt><trkpt lat="45.469868" lon="9.0787917"><ele>128.0</ele><time>2026-04-11T17:02:04.004Z</time></trkpt><trkpt lat="45.4696057" lon="9.0786405"><ele>129.0</ele><time>2026-04-11T17:02:05.004Z</time></trkpt><trkpt lat="45.4693477" lon="9.0784906"><ele>130.0</ele><time>2026-04-11T17:02:06.004Z</time></trkpt><trkpt lat="45.4690895" lon="9.0783421"><ele>128.5</ele><time>2026-04-11T17:02:07.004Z</time></trkpt><trkpt lat="45.4688286" lon="9.0781937"><ele>127.0</ele><time>2026-04-11T17:02:08.004Z</time></trkpt><trkpt lat="45.4685696" lon="9.0780441"><ele>127.0</ele><time>2026-04-11T17:02:09.004Z</time></trkpt><trkpt lat="45.46831" lon="9.0778987"><ele>127.0</ele><time>2026-04-11T17:02:10.004Z</time></trkpt><trkpt lat="45.4680482" lon="9.0777502"><ele>128.0</ele><time>2026-04-11T17:02:11.004Z</time></trkpt><trkpt lat="45.4677801" lon="9.0776031"><ele>129.0</ele><time>2026-04-11T17:02:12.004Z</time></trkpt><trkpt lat="45.4675109" lon="9.0774409"><ele>128.5</ele><time>2026-04-11T17:02:13.004Z</time></trkpt><trkpt lat="45.4672338" lon="9.0772757"><ele>128.0</ele><time>2026-04-11T17:02:14.004Z</time></trkpt><trkpt lat="45.4669602" lon="9.0771118"><ele>128.0</ele><time>2026-04-11T17:02:15.004Z</time></trkpt><trkpt lat="45.4666869" lon="9.0769497"><ele>128.0</ele><time>2026-04-11T17:02:16.004Z</time></trkpt><trkpt lat="45.4664224" lon="9.076791"><ele>127.5</ele><time>2026-04-11T17:02:17.004Z</time></trkpt><trkpt lat="45.4661572" lon="9.0766484"><ele>127.0</ele><time>2026-04-11T17:02:18.003Z</time></trkpt><trkpt lat="45.4658977" lon="9.0765167"><ele>127.0</ele><time>2026-04-11T17:02:19.004Z</time></trkpt><trkpt lat="45.4656299" lon="9.0764051"><ele>127.0</ele><time>2026-04-11T17:02:20.004Z</time></trkpt><trkpt lat="45.4653585" lon="9.0763077"><ele>128.5</ele><time>2026-04-11T17:02:21.003Z</time></trkpt><trkpt lat="45.4650862" lon="9.0762246"><ele>130.0</ele><time>2026-04-11T17:02:22.004Z</time></trkpt><trkpt lat="45.4648147" lon="9.0761583"><ele>130.0</ele><time>2026-04-11T17:02:23.003Z</time></trkpt><trkpt lat="45.4645389" lon="9.0761071"><ele>130.0</ele><time>2026-04-11T17:02:24.004Z</time></trkpt><trkpt lat="45.4642604" lon="9.0760732"><ele>130.0</ele><time>2026-04-11T17:02:25.004Z</time></trkpt><trkpt lat="45.4639881" lon="9.076048"><ele>130.0</ele><time>2026-04-11T17:02:26.004Z</time></trkpt><trkpt lat="45.4637151" lon="9.076032"><ele>129.5</ele><time>2026-04-11T17:02:27.004Z</time></trkpt><trkpt lat="45.4634445" lon="9.0760401"><ele>129.0</ele><time>2026-04-11T17:02:28.004Z</time></trkpt><trkpt lat="45.4631816" lon="9.0760671"><ele>128.0</ele><time>2026-04-11T17:02:29.004Z</time></trkpt><trkpt lat="45.4629162" lon="9.076104"><ele>127.0</ele><time>2026-04-11T17:02:30.003Z</time></trkpt><trkpt lat="45.4626492" lon="9.0761562"><ele>127.0</ele><time>2026-04-11T17:02:31.004Z</time></trkpt><trkpt lat="45.4623813" lon="9.0762218"><ele>127.0</ele><time>2026-04-11T17:02:32.004Z</time></trkpt><trkpt lat="45.4621052" lon="9.0762831"><ele>126.5</ele><time>2026-04-11T17:02:33.004Z</time></trkpt><trkpt lat="45.4618279" lon="9.0763507"><ele>126.0</ele><time>2026-04-11T17:02:34.004Z</time></trkpt><trkpt lat="45.4615504" lon="9.0764271"><ele>125.5</ele><time>2026-04-11T17:02:35.004Z</time></trkpt><trkpt lat="45.4612747" lon="9.0765076"><ele>125.0</ele><time>2026-04-11T17:02:36.004Z</time></trkpt><trkpt lat="45.4609968" lon="9.0765801"><ele>127.0</ele><time>2026-04-11T17:02:37.004Z</time></trkpt><trkpt lat="45.4607233" lon="9.0766528"><ele>129.0</ele><time>2026-04-11T17:02:38.004Z</time></trkpt><trkpt lat="45.460453" lon="9.0767269"><ele>128.0</ele><time>2026-04-11T17:02:39.004Z</time></trkpt><trkpt lat="45.4601879" lon="9.0767963"><ele>127.0</ele><time>2026-04-11T17:02:40.004Z</time></trkpt><trkpt lat="45.4599273" lon="9.076861"><ele>127.0</ele><time>2026-04-11T17:02:41.004Z</time></trkpt><trkpt lat="45.4596691" lon="9.076931"><ele>127.0</ele><time>2026-04-11T17:02:42.004Z</time></trkpt><trkpt lat="45.459414" lon="9.0769975"><ele>127.0</ele><time>2026-04-11T17:02:43.004Z</time></trkpt><trkpt lat="45.4591692" lon="9.0770629"><ele>127.0</ele><time>2026-04-11T17:02:44.003Z</time></trkpt><trkpt lat="45.4589209" lon="9.0771285"><ele>127.5</ele><time>2026-04-11T17:02:45.004Z</time></trkpt><trkpt lat="45.4586729" lon="9.0771912"><ele>128.0</ele><time>2026-04-11T17:02:46.004Z</time></trkpt><trkpt lat="45.4584167" lon="9.0772533"><ele>128.0</ele><time>2026-04-11T17:02:47.004Z</time></trkpt><trkpt lat="45.4581675" lon="9.0773053"><ele>128.0</ele><time>2026-04-11T17:02:48.004Z</time></trkpt><trkpt lat="45.4579181" lon="9.07734"><ele>126.0</ele><time>2026-04-11T17:02:49.004Z</time></trkpt><trkpt lat="45.457671" lon="9.077359"><ele>124.0</ele><time>2026-04-11T17:02:50.004Z</time></trkpt><trkpt lat="45.4574221" lon="9.0773701"><ele>124.0</ele><time>2026-04-11T17:02:51.004Z</time></trkpt><trkpt lat="45.4571719" lon="9.0773776"><ele>124.0</ele><time>2026-04-11T17:02:52.004Z</time></trkpt><trkpt lat="45.4569176" lon="9.0773757"><ele>123.5</ele><time>2026-04-11T17:02:53.003Z</time></trkpt><trkpt lat="45.4566594" lon="9.0773597"><ele>123.0</ele><time>2026-04-11T17:02:54.004Z</time></trkpt><trkpt lat="45.4564039" lon="9.0773375"><ele>123.0</ele><time>2026-04-11T17:02:55.004Z</time></trkpt><trkpt lat="45.4561534" lon="9.0773135"><ele>123.0</ele><time>2026-04-11T17:02:56.004Z</time></trkpt><trkpt lat="45.4559013" lon="9.0772679"><ele>123.0</ele><time>2026-04-11T17:02:57.004Z</time></trkpt><trkpt lat="45.4556513" lon="9.0772138"><ele>123.0</ele><time>2026-04-11T17:02:58.003Z</time></trkpt><trkpt lat="45.4553997" lon="9.0771486"><ele>122.5</ele><time>2026-04-11T17:02:59.004Z</time></trkpt><trkpt lat="45.4551459" lon="9.0770749"><ele>122.0</ele><time>2026-04-11T17:03:00.004Z</time></trkpt><trkpt lat="45.4548962" lon="9.0770056"><ele>122.0</ele><time>2026-04-11T17:03:01.004Z</time></trkpt><trkpt lat="45.4546467" lon="9.0769301"><ele>122.0</ele><time>2026-04-11T17:03:02.004Z</time></trkpt><trkpt lat="45.454396" lon="9.0768621"><ele>122.5</ele><time>2026-04-11T17:03:03.004Z</time></trkpt><trkpt lat="45.4541435" lon="9.0767923"><ele>123.0</ele><time>2026-04-11T17:03:04.004Z</time></trkpt><trkpt lat="45.4538929" lon="9.0767148"><ele>123.0</ele><time>2026-04-11T17:03:05.004Z</time></trkpt><trkpt lat="45.4536426" lon="9.0766374"><ele>123.0</ele><time>2026-04-11T17:03:06.004Z</time></trkpt><trkpt lat="45.4533908" lon="9.0765642"><ele>122.5</ele><time>2026-04-11T17:03:07.004Z</time></trkpt><trkpt lat="45.4531361" lon="9.0764857"><ele>122.0</ele><time>2026-04-11T17:03:08.003Z</time></trkpt><trkpt lat="45.4528829" lon="9.0764184"><ele>122.0</ele><time>2026-04-11T17:03:09.004Z</time></trkpt><trkpt lat="45.4526209" lon="9.0763509"><ele>122.0</ele><time>2026-04-11T17:03:10.004Z</time></trkpt><trkpt lat="45.4523611" lon="9.0762747"><ele>122.0</ele><time>2026-04-11T17:03:11.004Z</time></trkpt><trkpt lat="45.4521069" lon="9.0762049"><ele>122.0</ele><time>2026-04-11T17:03:12.004Z</time></trkpt><trkpt lat="45.4518467" lon="9.076133"><ele>122.0</ele><time>2026-04-11T17:03:13.003Z</time></trkpt><trkpt lat="45.4515814" lon="9.0760512"><ele>122.0</ele><time>2026-04-11T17:03:14.004Z</time></trkpt><trkpt lat="45.4513178" lon="9.0759721"><ele>122.0</ele><time>2026-04-11T17:03:15.004Z</time></trkpt><trkpt lat="45.4510553" lon="9.0758911"><ele>122.0</ele><time>2026-04-11T17:03:16.004Z</time></trkpt><trkpt lat="45.4507873" lon="9.0758133"><ele>122.0</ele><time>2026-04-11T17:03:17.004Z</time></trkpt><trkpt lat="45.4505263" lon="9.0757319"><ele>122.0</ele><time>2026-04-11T17:03:18.004Z</time></trkpt><trkpt lat="45.4502637" lon="9.0756523"><ele>122.0</ele><time>2026-04-11T17:03:19.004Z</time></trkpt><trkpt lat="45.4499947" lon="9.0755759"><ele>122.0</ele><time>2026-04-11T17:03:20.004Z</time></trkpt><trkpt lat="45.4497287" lon="9.0754966"><ele>122.0</ele><time>2026-04-11T17:03:21.004Z</time></trkpt><trkpt lat="45.4494602" lon="9.0754158"><ele>122.0</ele><time>2026-04-11T17:03:22.004Z</time></trkpt><trkpt lat="45.4491919" lon="9.0753311"><ele>122.0</ele><time>2026-04-11T17:03:23.004Z</time></trkpt><trkpt lat="45.4489207" lon="9.075241"><ele>122.0</ele><time>2026-04-11T17:03:24.004Z</time></trkpt><trkpt lat="45.4486512" lon="9.0751545"><ele>121.5</ele><time>2026-04-11T17:03:25.004Z</time></trkpt><trkpt lat="45.4483817" lon="9.0750667"><ele>121.0</ele><time>2026-04-11T17:03:26.004Z</time></trkpt><trkpt lat="45.4481132" lon="9.0749877"><ele>120.5</ele><time>2026-04-11T17:03:27.003Z</time></trkpt><trkpt lat="45.4478398" lon="9.0749069"><ele>120.0</ele><time>2026-04-11T17:03:28.004Z</time></trkpt><trkpt lat="45.4475665" lon="9.0748263"><ele>120.0</ele><time>2026-04-11T17:03:29.004Z</time></trkpt><trkpt lat="45.4472954" lon="9.0747372"><ele>120.0</ele><time>2026-04-11T17:03:30.004Z</time></trkpt><trkpt lat="45.4470243" lon="9.0746545"><ele>120.5</ele><time>2026-04-11T17:03:31.004Z</time></trkpt><trkpt lat="45.4467539" lon="9.0745748"><ele>121.0</ele><time>2026-04-11T17:03:32.004Z</time></trkpt><trkpt lat="45.4464871" lon="9.0744926"><ele>121.5</ele><time>2026-04-11T17:03:33.004Z</time></trkpt><trkpt lat="45.4462192" lon="9.0744058"><ele>122.0</ele><time>2026-04-11T17:03:34.003Z</time></trkpt><trkpt lat="45.4459521" lon="9.0743272"><ele>122.0</ele><time>2026-04-11T17:03:35.004Z</time></trkpt><trkpt lat="45.4456893" lon="9.0742467"><ele>122.0</ele><time>2026-04-11T17:03:36.004Z</time></trkpt><trkpt lat="45.4454273" lon="9.0741632"><ele>122.0</ele><time>2026-04-11T17:03:37.004Z</time></trkpt><trkpt lat="45.4451613" lon="9.0740872"><ele>122.0</ele><time>2026-04-11T17:03:38.004Z</time></trkpt><trkpt lat="45.44489" lon="9.0740226"><ele>121.5</ele><time>2026-04-11T17:03:39.004Z</time></trkpt><trkpt lat="45.4446245" lon="9.0739594"><ele>121.0</ele><time>2026-04-11T17:03:40.004Z</time></trkpt><trkpt lat="45.4443557" lon="9.0739086"><ele>121.0</ele><time>2026-04-11T17:03:41.004Z</time></trkpt><trkpt lat="45.4440852" lon="9.0738584"><ele>121.0</ele><time>2026-04-11T17:03:42.004Z</time></trkpt><trkpt lat="45.4438106" lon="9.0738123"><ele>120.0</ele><time>2026-04-11T17:03:43.004Z</time></trkpt><trkpt lat="45.4435326" lon="9.0737742"><ele>119.0</ele><time>2026-04-11T17:03:44.004Z</time></trkpt><trkpt lat="45.4432607" lon="9.0737408"><ele>119.0</ele><time>2026-04-11T17:03:45.004Z</time></trkpt><trkpt lat="45.4429869" lon="9.0737149"><ele>119.0</ele><time>2026-04-11T17:03:46.004Z</time></trkpt><trkpt lat="45.4427084" lon="9.0736933"><ele>117.5</ele><time>2026-04-11T17:03:47.004Z</time></trkpt><trkpt lat="45.4424398" lon="9.0736725"><ele>116.0</ele><time>2026-04-11T17:03:48.004Z</time></trkpt><trkpt lat="45.4421707" lon="9.0736579"><ele>118.5</ele><time>2026-04-11T17:03:49.004Z</time></trkpt><trkpt lat="45.4419031" lon="9.0736582"><ele>121.0</ele><time>2026-04-11T17:03:50.004Z</time></trkpt><trkpt lat="45.4416343" lon="9.0736647"><ele>121.0</ele><time>2026-04-11T17:03:51.004Z</time></trkpt><trkpt lat="45.4413706" lon="9.073675"><ele>121.0</ele><time>2026-04-11T17:03:52.004Z</time></trkpt><trkpt lat="45.4411089" lon="9.0736912"><ele>120.0</ele><time>2026-04-11T17:03:53.004Z</time></trkpt><trkpt lat="45.4408485" lon="9.0737093"><ele>119.0</ele><time>2026-04-11T17:03:54.004Z</time></trkpt><trkpt lat="45.4405909" lon="9.0737409"><ele>118.5</ele><time>2026-04-11T17:03:55.004Z</time></trkpt><trkpt lat="45.4403282" lon="9.0737642"><ele>118.0</ele><time>2026-04-11T17:03:56.004Z</time></trkpt><trkpt lat="45.4400645" lon="9.0737835"><ele>118.0</ele><time>2026-04-11T17:03:57.003Z</time></trkpt><trkpt lat="45.4397953" lon="9.0738046"><ele>118.0</ele><time>2026-04-11T17:03:58.004Z</time></trkpt><trkpt lat="45.4395291" lon="9.0738247"><ele>117.0</ele><time>2026-04-11T17:03:59.004Z</time></trkpt><trkpt lat="45.4392588" lon="9.073859"><ele>116.0</ele><time>2026-04-11T17:04:00.004Z</time></trkpt><trkpt lat="45.4389882" lon="9.0738885"><ele>116.5</ele><time>2026-04-11T17:04:01.004Z</time></trkpt><trkpt lat="45.4387109" lon="9.0739161"><ele>117.0</ele><time>2026-04-11T17:04:02.004Z</time></trkpt><trkpt lat="45.4384278" lon="9.0739528"><ele>117.0</ele><time>2026-04-11T17:04:03.004Z</time></trkpt><trkpt lat="45.4381462" lon="9.0739923"><ele>117.0</ele><time>2026-04-11T17:04:04.004Z</time></trkpt><trkpt lat="45.437866" lon="9.0740159"><ele>116.5</ele><time>2026-04-11T17:04:05.004Z</time></trkpt><trkpt lat="45.4375913" lon="9.0740426"><ele>116.0</ele><time>2026-04-11T17:04:06.004Z</time></trkpt><trkpt lat="45.4373248" lon="9.0740703"><ele>115.5</ele><time>2026-04-11T17:04:07.004Z</time></trkpt><trkpt lat="45.4370589" lon="9.0740993"><ele>115.0</ele><time>2026-04-11T17:04:08.004Z</time></trkpt><trkpt lat="45.4368008" lon="9.0741272"><ele>115.0</ele><time>2026-04-11T17:04:09.003Z</time></trkpt><trkpt lat="45.4365421" lon="9.0741531"><ele>115.0</ele><time>2026-04-11T17:04:10.004Z</time></trkpt><trkpt lat="45.4362855" lon="9.0741832"><ele>116.5</ele><time>2026-04-11T17:04:11.004Z</time></trkpt><trkpt lat="45.4360338" lon="9.0742072"><ele>118.0</ele><time>2026-04-11T17:04:12.004Z</time></trkpt><trkpt lat="45.4357838" lon="9.07424"><ele>118.0</ele><time>2026-04-11T17:04:13.004Z</time></trkpt><trkpt lat="45.4355563" lon="9.0742675"><ele>118.0</ele><time>2026-04-11T17:04:14.004Z</time></trkpt><trkpt lat="45.4353386" lon="9.0742962"><ele>118.0</ele><time>2026-04-11T17:04:15.004Z</time></trkpt><trkpt lat="45.4351334" lon="9.0743115"><ele>118.0</ele><time>2026-04-11T17:04:16.004Z</time></trkpt><trkpt lat="45.434932" lon="9.07433"><ele>118.0</ele><time>2026-04-11T17:04:17.004Z</time></trkpt><trkpt lat="45.4347452" lon="9.0743478"><ele>118.0</ele><time>2026-04-11T17:04:18.004Z</time></trkpt><trkpt lat="45.4345534" lon="9.0743608"><ele>117.66666666666667</ele><time>2026-04-11T17:04:19.004Z</time></trkpt><trkpt lat="45.4343602" lon="9.074371"><ele>117.33333333333334</ele><time>2026-04-11T17:04:20.004Z</time></trkpt><trkpt lat="45.4341681" lon="9.0743955"><ele>117.0</ele><time>2026-04-11T17:04:21.004Z</time></trkpt><trkpt lat="45.4339705" lon="9.0744172"><ele>117.33333333333334</ele><time>2026-04-11T17:04:22.004Z</time></trkpt><trkpt lat="45.4337699" lon="9.0744403"><ele>117.66666666666667</ele><time>2026-04-11T17:04:23.004Z</time></trkpt><trkpt lat="45.4335729" lon="9.074461"><ele>118.0</ele><time>2026-04-11T17:04:24.004Z</time></trkpt><trkpt lat="45.4333751" lon="9.0744785"><ele>118.0</ele><time>2026-04-11T17:04:25.004Z</time></trkpt><trkpt lat="45.4331814" lon="9.0745067"><ele>118.0</ele><time>2026-04-11T17:04:26.004Z</time></trkpt><trkpt lat="45.4329758" lon="9.0745375"><ele>118.0</ele><time>2026-04-11T17:04:27.004Z</time></trkpt><trkpt lat="45.4327621" lon="9.0745694"><ele>116.0</ele><time>2026-04-11T17:04:28.004Z</time></trkpt><trkpt lat="45.4325398" lon="9.0745997"><ele>114.0</ele><time>2026-04-11T17:04:29.004Z</time></trkpt><trkpt lat="45.4323082" lon="9.0746478"><ele>115.0</ele><time>2026-04-11T17:04:30.003Z</time></trkpt><trkpt lat="45.4320756" lon="9.0746963"><ele>116.0</ele><time>2026-04-11T17:04:31.004Z</time></trkpt><trkpt lat="45.431838" lon="9.0747499"><ele>116.0</ele><time>2026-04-11T17:04:32.004Z</time></trkpt><trkpt lat="45.4315986" lon="9.0748119"><ele>116.0</ele><time>2026-04-11T17:04:33.004Z</time></trkpt><trkpt lat="45.4313552" lon="9.0748845"><ele>116.0</ele><time>2026-04-11T17:04:34.004Z</time></trkpt><trkpt lat="45.4311097" lon="9.0749646"><ele>116.0</ele><time>2026-04-11T17:04:35.004Z</time></trkpt><trkpt lat="45.4308608" lon="9.0750545"><ele>116.0</ele><time>2026-04-11T17:04:36.004Z</time></trkpt><trkpt lat="45.4306096" lon="9.0751511"><ele>116.0</ele><time>2026-04-11T17:04:37.004Z</time></trkpt><trkpt lat="45.4303594" lon="9.0752548"><ele>116.5</ele><time>2026-04-11T17:04:38.004Z</time></trkpt><trkpt lat="45.430117" lon="9.0753519"><ele>117.0</ele><time>2026-04-11T17:04:39.004Z</time></trkpt><trkpt lat="45.4298864" lon="9.0754593"><ele>117.0</ele><time>2026-04-11T17:04:40.003Z</time></trkpt><trkpt lat="45.4296525" lon="9.0755712"><ele>117.0</ele><time>2026-04-11T17:04:41.003Z</time></trkpt><trkpt lat="45.4294186" lon="9.0756835"><ele>117.5</ele><time>2026-04-11T17:04:42.004Z</time></trkpt><trkpt lat="45.4291946" lon="9.0757997"><ele>118.0</ele><time>2026-04-11T17:04:43.004Z</time></trkpt><trkpt lat="45.4289782" lon="9.07592"><ele>116.5</ele><time>2026-04-11T17:04:44.004Z</time></trkpt><trkpt lat="45.4287653" lon="9.0760473"><ele>115.0</ele><time>2026-04-11T17:04:45.004Z</time></trkpt><trkpt lat="45.4285571" lon="9.0761697"><ele>115.0</ele><time>2026-04-11T17:04:46.003Z</time></trkpt><trkpt lat="45.4283491" lon="9.0762986"><ele>115.0</ele><time>2026-04-11T17:04:47.004Z</time></trkpt><trkpt lat="45.4281469" lon="9.0764282"><ele>115.0</ele><time>2026-04-11T17:04:48.004Z</time></trkpt><trkpt lat="45.4279349" lon="9.0765519"><ele>117.0</ele><time>2026-04-11T17:04:49.004Z</time></trkpt><trkpt lat="45.4277196" lon="9.0766795"><ele>119.0</ele><time>2026-04-11T17:04:50.004Z</time></trkpt><trkpt lat="45.4275057" lon="9.076823"><ele>119.0</ele><time>2026-04-11T17:04:51.004Z</time></trkpt><trkpt lat="45.4272901" lon="9.0769587"><ele>119.0</ele><time>2026-04-11T17:04:52.004Z</time></trkpt><trkpt lat="45.4270699" lon="9.0770919"><ele>119.0</ele><time>2026-04-11T17:04:53.004Z</time></trkpt><trkpt lat="45.426847" lon="9.0772288"><ele>119.0</ele><time>2026-04-11T17:04:54.004Z</time></trkpt><trkpt lat="45.4266225" lon="9.0773628"><ele>119.5</ele><time>2026-04-11T17:04:55.004Z</time></trkpt><trkpt lat="45.4263999" lon="9.0775025"><ele>120.0</ele><time>2026-04-11T17:04:56.004Z</time></trkpt><trkpt lat="45.4261759" lon="9.0776394"><ele>119.0</ele><time>2026-04-11T17:04:57.004Z</time></trkpt><trkpt lat="45.4259628" lon="9.0777719"><ele>118.0</ele><time>2026-04-11T17:04:58.004Z</time></trkpt><trkpt lat="45.425759" lon="9.0778942"><ele>118.0</ele><time>2026-04-11T17:04:59.003Z</time></trkpt><trkpt lat="45.4255658" lon="9.0780108"><ele>118.0</ele><time>2026-04-11T17:05:00.003Z</time></trkpt><trkpt lat="45.4253806" lon="9.0781212"><ele>118.0</ele><time>2026-04-11T17:05:01.004Z</time></trkpt><trkpt lat="45.4251955" lon="9.0782332"><ele>118.33333333333334</ele><time>2026-04-11T17:05:02.004Z</time></trkpt><trkpt lat="45.4250083" lon="9.0783442"><ele>118.66666666666666</ele><time>2026-04-11T17:05:03.004Z</time></trkpt><trkpt lat="45.4248222" lon="9.0784502"><ele>119.0</ele><time>2026-04-11T17:05:04.004Z</time></trkpt><trkpt lat="45.4246339" lon="9.0785625"><ele>117.66666666666666</ele><time>2026-04-11T17:05:05.004Z</time></trkpt><trkpt lat="45.4244566" lon="9.0786713"><ele>116.33333333333334</ele><time>2026-04-11T17:05:06.004Z</time></trkpt><trkpt lat="45.4242791" lon="9.0787782"><ele>115.0</ele><time>2026-04-11T17:05:07.003Z</time></trkpt><trkpt lat="45.4240948" lon="9.0788879"><ele>115.0</ele><time>2026-04-11T17:05:08.004Z</time></trkpt><trkpt lat="45.4239076" lon="9.0790015"><ele>115.0</ele><time>2026-04-11T17:05:09.004Z</time></trkpt><trkpt lat="45.4237274" lon="9.0791129"><ele>115.0</ele><time>2026-04-11T17:05:10.004Z</time></trkpt><trkpt lat="45.4235486" lon="9.0792263"><ele>114.33333333333334</ele><time>2026-04-11T17:05:11.004Z</time></trkpt><trkpt lat="45.4233729" lon="9.0793412"><ele>113.66666666666666</ele><time>2026-04-11T17:05:12.004Z</time></trkpt><trkpt lat="45.423204" lon="9.0794439"><ele>113.0</ele><time>2026-04-11T17:05:13.004Z</time></trkpt><trkpt lat="45.4230563" lon="9.0795194"><ele>113.75</ele><time>2026-04-11T17:05:14.004Z</time></trkpt><trkpt lat="45.4229312" lon="9.0795931"><ele>114.5</ele><time>2026-04-11T17:05:15.004Z</time></trkpt><trkpt lat="45.4228036" lon="9.0796762"><ele>115.25</ele><time>2026-04-11T17:05:16.004Z</time></trkpt><trkpt lat="45.4226822" lon="9.0797463"><ele>116.0</ele><time>2026-04-11T17:05:17.004Z</time></trkpt><trkpt lat="45.4225603" lon="9.0798233"><ele>116.0</ele><time>2026-04-11T17:05:18.004Z</time></trkpt><trkpt lat="45.4224363" lon="9.0798999"><ele>116.0</ele><time>2026-04-11T17:05:19.003Z</time></trkpt><trkpt lat="45.4223085" lon="9.0799823"><ele>116.0</ele><time>2026-04-11T17:05:20.004Z</time></trkpt><trkpt lat="45.4221714" lon="9.0800685"><ele>116.0</ele><time>2026-04-11T17:05:21.004Z</time></trkpt><trkpt lat="45.4220326" lon="9.0801614"><ele>116.33333333333333</ele><time>2026-04-11T17:05:22.004Z</time></trkpt><trkpt lat="45.4218878" lon="9.0802466"><ele>116.66666666666666</ele><time>2026-04-11T17:05:23.003Z</time></trkpt><trkpt lat="45.4217412" lon="9.0803418"><ele>117.0</ele><time>2026-04-11T17:05:24.004Z</time></trkpt><trkpt lat="45.4215979" lon="9.0804274"><ele>117.0</ele><time>2026-04-11T17:05:25.004Z</time></trkpt><trkpt lat="45.4214605" lon="9.0805087"><ele>117.0</ele><time>2026-04-11T17:05:26.004Z</time></trkpt><trkpt lat="45.4213296" lon="9.0805941"><ele>117.0</ele><time>2026-04-11T17:05:27.004Z</time></trkpt><trkpt lat="45.4211985" lon="9.0806744"><ele>117.0</ele><time>2026-04-11T17:05:28.004Z</time></trkpt><trkpt lat="45.4210627" lon="9.0807544"><ele>116.75</ele><time>2026-04-11T17:05:29.004Z</time></trkpt><trkpt lat="45.4209306" lon="9.0808415"><ele>116.5</ele><time>2026-04-11T17:05:30.004Z</time></trkpt><trkpt lat="45.420796" lon="9.0809316"><ele>116.25</ele><time>2026-04-11T17:05:31.004Z</time></trkpt><trkpt lat="45.4206604" lon="9.0810239"><ele>116.0</ele><time>2026-04-11T17:05:32.004Z</time></trkpt><trkpt lat="45.420539" lon="9.0811113"><ele>115.25</ele><time>2026-04-11T17:05:33.003Z</time></trkpt><trkpt lat="45.4204179" lon="9.0811997"><ele>114.5</ele><time>2026-04-11T17:05:34.004Z</time></trkpt><trkpt lat="45.4203014" lon="9.0812915"><ele>113.75</ele><time>2026-04-11T17:05:35.004Z</time></trkpt><trkpt lat="45.4201931" lon="9.0813795"><ele>113.0</ele><time>2026-04-11T17:05:36.004Z</time></trkpt><trkpt lat="45.420094" lon="9.0814604"><ele>113.0</ele><time>2026-04-11T17:05:37.004Z</time></trkpt><trkpt lat="45.4199927" lon="9.0815457"><ele>113.00000000000001</ele><time>2026-04-11T17:05:38.004Z</time></trkpt><trkpt lat="45.4199003" lon="9.0816199"><ele>113.00000000000001</ele><time>2026-04-11T17:05:39.004Z</time></trkpt><trkpt lat="45.4198203" lon="9.0816902"><ele>113.0</ele><time>2026-04-11T17:05:40.004Z</time></trkpt><trkpt lat="45.4197605" lon="9.0817454"><ele>113.0</ele><time>2026-04-11T17:05:41.004Z</time></trkpt><trkpt lat="45.4197043" lon="9.0817903"><ele>112.80000000000001</ele><time>2026-04-11T17:05:42.003Z</time></trkpt><trkpt lat="45.4195914" lon="9.0818298"><ele>112.60000000000001</ele><time>2026-04-11T17:05:44.004Z</time></trkpt><trkpt lat="45.4195262" lon="9.0818159"><ele>112.39999999999999</ele><time>2026-04-11T17:05:45.004Z</time></trkpt><trkpt lat="45.4194664" lon="9.0817828"><ele>112.19999999999999</ele><time>2026-04-11T17:05:46.004Z</time></trkpt><trkpt lat="45.4194027" lon="9.0816416"><ele>112.0</ele><time>2026-04-11T17:05:48.004Z</time></trkpt><trkpt lat="45.4194228" lon="9.0814823"><ele>112.19999999999999</ele><time>2026-04-11T17:05:50.003Z</time></trkpt><trkpt lat="45.4194921" lon="9.0813534"><ele>112.39999999999999</ele><time>2026-04-11T17:05:52.004Z</time></trkpt><trkpt lat="45.4196019" lon="9.0812774"><ele>112.60000000000001</ele><time>2026-04-11T17:05:54.004Z</time></trkpt><trkpt lat="45.4196769" lon="9.0812454"><ele>112.80000000000001</ele><time>2026-04-11T17:05:56.004Z</time></trkpt><trkpt lat="45.4197425" lon="9.081231"><ele>113.0</ele><time>2026-04-11T17:05:58.004Z</time></trkpt><trkpt lat="45.4198184" lon="9.0812114"><ele>112.99999999999999</ele><time>2026-04-11T17:06:00.004Z</time></trkpt><trkpt lat="45.4199143" lon="9.0811525"><ele>113.0</ele><time>2026-04-11T17:06:02.004Z</time></trkpt><trkpt lat="45.4199781" lon="9.0811315"><ele>113.0</ele><time>2026-04-11T17:06:03.004Z</time></trkpt><trkpt lat="45.4200723" lon="9.0811125"><ele>113.0</ele><time>2026-04-11T17:06:05.004Z</time></trkpt><trkpt lat="45.4201551" lon="9.0810857"><ele>112.99999999999999</ele><time>2026-04-11T17:06:08.004Z</time></trkpt><trkpt lat="45.4202368" lon="9.0810359"><ele>113.0</ele><time>2026-04-11T17:06:10.003Z</time></trkpt><trkpt lat="45.4203503" lon="9.0809795"><ele>112.99999999999999</ele><time>2026-04-11T17:06:12.004Z</time></trkpt><trkpt lat="45.4204178" lon="9.0809391"><ele>113.0</ele><time>2026-04-11T17:06:13.004Z</time></trkpt><trkpt lat="45.4204788" lon="9.0808984"><ele>113.0</ele><time>2026-04-11T17:06:14.004Z</time></trkpt><trkpt lat="45.4205427" lon="9.0808597"><ele>113.0</ele><time>2026-04-11T17:06:15.003Z</time></trkpt><trkpt lat="45.4206568" lon="9.080779"><ele>112.99999999999999</ele><time>2026-04-11T17:06:17.004Z</time></trkpt><trkpt lat="45.4207324" lon="9.0807254"><ele>113.0</ele><time>2026-04-11T17:06:18.004Z</time></trkpt><trkpt lat="45.4208093" lon="9.0806799"><ele>113.16666666666666</ele><time>2026-04-11T17:06:19.004Z</time></trkpt><trkpt lat="45.4208848" lon="9.0806356"><ele>113.33333333333333</ele><time>2026-04-11T17:06:20.004Z</time></trkpt><trkpt lat="45.4209624" lon="9.0805812"><ele>113.5</ele><time>2026-04-11T17:06:21.004Z</time></trkpt><trkpt lat="45.421039" lon="9.0805251"><ele>113.66666666666666</ele><time>2026-04-11T17:06:22.004Z</time></trkpt><trkpt lat="45.4211179" lon="9.0804639"><ele>113.83333333333333</ele><time>2026-04-11T17:06:23.003Z</time></trkpt><trkpt lat="45.4212015" lon="9.0804056"><ele>114.0</ele><time>2026-04-11T17:06:24.004Z</time></trkpt><trkpt lat="45.4212897" lon="9.0803486"><ele>114.5</ele><time>2026-04-11T17:06:25.003Z</time></trkpt><trkpt lat="45.4213757" lon="9.0802927"><ele>115.0</ele><time>2026-04-11T17:06:26.004Z</time></trkpt><trkpt lat="45.4214475" lon="9.0802446"><ele>115.5</ele><time>2026-04-11T17:06:27.004Z</time></trkpt><trkpt lat="45.4215081" lon="9.0802038"><ele>116.0</ele><time>2026-04-11T17:06:28.004Z</time></trkpt><trkpt lat="45.4215976" lon="9.0801457"><ele>116.5</ele><time>2026-04-11T17:06:30.004Z</time></trkpt><trkpt lat="45.4216645" lon="9.0801322"><ele>117.0</ele><time>2026-04-11T17:06:32.004Z</time></trkpt><trkpt lat="45.4217679" lon="9.0800901"><ele>117.0</ele><time>2026-04-11T17:06:34.004Z</time></trkpt><trkpt lat="45.4218578" lon="9.0800431"><ele>116.99999999999999</ele><time>2026-04-11T17:06:35.004Z</time></trkpt><trkpt lat="45.4219588" lon="9.0800021"><ele>116.99999999999999</ele><time>2026-04-11T17:06:36.004Z</time></trkpt><trkpt lat="45.4220607" lon="9.0799271"><ele>117.0</ele><time>2026-04-11T17:06:37.004Z</time></trkpt><trkpt lat="45.4221457" lon="9.0798633"><ele>117.0</ele><time>2026-04-11T17:06:38.004Z</time></trkpt><trkpt lat="45.422217" lon="9.0798176"><ele>116.83333333333333</ele><time>2026-04-11T17:06:39.004Z</time></trkpt><trkpt lat="45.4222745" lon="9.07977"><ele>116.66666666666666</ele><time>2026-04-11T17:06:40.003Z</time></trkpt><trkpt lat="45.4223228" lon="9.0796528"><ele>116.5</ele><time>2026-04-11T17:06:42.004Z</time></trkpt><trkpt lat="45.4223307" lon="9.0795621"><ele>116.33333333333333</ele><time>2026-04-11T17:06:44.003Z</time></trkpt><trkpt lat="45.4223447" lon="9.0794457"><ele>116.16666666666666</ele><time>2026-04-11T17:06:46.004Z</time></trkpt><trkpt lat="45.4223677" lon="9.0793344"><ele>116.0</ele><time>2026-04-11T17:06:48.004Z</time></trkpt><trkpt lat="45.4223919" lon="9.0792343"><ele>116.0</ele><time>2026-04-11T17:06:51.004Z</time></trkpt><trkpt lat="45.4223917" lon="9.079117"><ele>116.0</ele><time>2026-04-11T17:06:55.004Z</time></trkpt><trkpt lat="45.422332" lon="9.0789563"><ele>116.0</ele><time>2026-04-11T17:06:56.004Z</time></trkpt><trkpt lat="45.4222588" lon="9.0787536"><ele>116.0</ele><time>2026-04-11T17:06:57.004Z</time></trkpt><trkpt lat="45.4221756" lon="9.0785538"><ele>115.66666666666666</ele><time>2026-04-11T17:06:58.003Z</time></trkpt><trkpt lat="45.4220713" lon="9.0783475"><ele>115.33333333333334</ele><time>2026-04-11T17:06:59.004Z</time></trkpt><trkpt lat="45.4219734" lon="9.0781507"><ele>115.0</ele><time>2026-04-11T17:07:00.004Z</time></trkpt><trkpt lat="45.4218852" lon="9.0779613"><ele>115.0</ele><time>2026-04-11T17:07:01.004Z</time></trkpt><trkpt lat="45.4218023" lon="9.0777947"><ele>115.0</ele><time>2026-04-11T17:07:02.004Z</time></trkpt><trkpt lat="45.4217285" lon="9.0776475"><ele>115.0</ele><time>2026-04-11T17:07:03.004Z</time></trkpt><trkpt lat="45.4216629" lon="9.0775077"><ele>115.0</ele><time>2026-04-11T17:07:04.004Z</time></trkpt><trkpt lat="45.4215897" lon="9.0773757"><ele>115.0</ele><time>2026-04-11T17:07:05.004Z</time></trkpt><trkpt lat="45.421518" lon="9.0772462"><ele>115.0</ele><time>2026-04-11T17:07:06.004Z</time></trkpt><trkpt lat="45.4214591" lon="9.0771362"><ele>115.0</ele><time>2026-04-11T17:07:07.004Z</time></trkpt><trkpt lat="45.4214075" lon="9.0770204"><ele>115.0</ele><time>2026-04-11T17:07:08.004Z</time></trkpt><trkpt lat="45.4213552" lon="9.0769177"><ele>115.0</ele><time>2026-04-11T17:07:09.004Z</time></trkpt><trkpt lat="45.4213019" lon="9.0768102"><ele>115.00000000000001</ele><time>2026-04-11T17:07:10.004Z</time></trkpt><trkpt lat="45.4212578" lon="9.0767157"><ele>115.0</ele><time>2026-04-11T17:07:11.004Z</time></trkpt><trkpt lat="45.4212058" lon="9.0766129"><ele>115.0</ele><time>2026-04-11T17:07:12.004Z</time></trkpt><trkpt lat="45.4211615" lon="9.0765138"><ele>115.0</ele><time>2026-04-11T17:07:13.003Z</time></trkpt><trkpt lat="45.4211182" lon="9.076427"><ele>115.00000000000001</ele><time>2026-04-11T17:07:14.004Z</time></trkpt><trkpt lat="45.4210789" lon="9.0763431"><ele>115.0</ele><time>2026-04-11T17:07:15.003Z</time></trkpt><trkpt lat="45.4210287" lon="9.0762391"><ele>114.6</ele><time>2026-04-11T17:07:16.004Z</time></trkpt><trkpt lat="45.4209692" lon="9.0761144"><ele>114.2</ele><time>2026-04-11T17:07:17.004Z</time></trkpt><trkpt lat="45.4209029" lon="9.0760053"><ele>113.80000000000001</ele><time>2026-04-11T17:07:18.004Z</time></trkpt><trkpt lat="45.4208494" lon="9.0758977"><ele>113.4</ele><time>2026-04-11T17:07:19.003Z</time></trkpt><trkpt lat="45.4207967" lon="9.0757908"><ele>113.0</ele><time>2026-04-11T17:07:20.004Z</time></trkpt><trkpt lat="45.4207469" lon="9.0756894"><ele>113.0</ele><time>2026-04-11T17:07:21.004Z</time></trkpt><trkpt lat="45.4207066" lon="9.0755976"><ele>113.00000000000001</ele><time>2026-04-11T17:07:22.004Z</time></trkpt><trkpt lat="45.4206434" lon="9.07547"><ele>113.00000000000001</ele><time>2026-04-11T17:07:24.004Z</time></trkpt><trkpt lat="45.4205691" lon="9.0753203"><ele>113.0</ele><time>2026-04-11T17:07:26.004Z</time></trkpt><trkpt lat="45.420517" lon="9.0752275"><ele>113.0</ele><time>2026-04-11T17:07:27.004Z</time></trkpt><trkpt lat="45.4204631" lon="9.0751219"><ele>113.2</ele><time>2026-04-11T17:07:28.004Z</time></trkpt><trkpt lat="45.4204142" lon="9.0750135"><ele>113.4</ele><time>2026-04-11T17:07:29.004Z</time></trkpt><trkpt lat="45.4203694" lon="9.0749224"><ele>113.60000000000001</ele><time>2026-04-11T17:07:30.004Z</time></trkpt><trkpt lat="45.4202967" lon="9.0747945"><ele>113.80000000000001</ele><time>2026-04-11T17:07:32.004Z</time></trkpt><trkpt lat="45.4202558" lon="9.0747132"><ele>114.0</ele><time>2026-04-11T17:07:33.004Z</time></trkpt><trkpt lat="45.4202044" lon="9.0745975"><ele>114.0</ele><time>2026-04-11T17:07:34.004Z</time></trkpt><trkpt lat="45.4201426" lon="9.0744739"><ele>114.0</ele><time>2026-04-11T17:07:35.004Z</time></trkpt><trkpt lat="45.4200829" lon="9.0743404"><ele>114.0</ele><time>2026-04-11T17:07:36.004Z</time></trkpt><trkpt lat="45.4200252" lon="9.0742241"><ele>114.0</ele><time>2026-04-11T17:07:37.004Z</time></trkpt><trkpt lat="45.4199667" lon="9.0741286"><ele>114.0</ele><time>2026-04-11T17:07:38.004Z</time></trkpt><trkpt lat="45.4198972" lon="9.0740291"><ele>113.75</ele><time>2026-04-11T17:07:39.004Z</time></trkpt><trkpt lat="45.4198196" lon="9.0739165"><ele>113.5</ele><time>2026-04-11T17:07:40.004Z</time></trkpt><trkpt lat="45.4197281" lon="9.0737988"><ele>113.25</ele><time>2026-04-11T17:07:41.004Z</time></trkpt><trkpt lat="45.4196241" lon="9.0736882"><ele>113.0</ele><time>2026-04-11T17:07:42.004Z</time></trkpt><trkpt lat="45.4195166" lon="9.0735722"><ele>113.0</ele><time>2026-04-11T17:07:43.003Z</time></trkpt><trkpt lat="45.419404" lon="9.0734855"><ele>113.00000000000001</ele><time>2026-04-11T17:07:44.004Z</time></trkpt><trkpt lat="45.4193125" lon="9.0734158"><ele>113.00000000000001</ele><time>2026-04-11T17:07:45.004Z</time></trkpt><trkpt lat="45.4192401" lon="9.0733558"><ele>113.0</ele><time>2026-04-11T17:07:46.004Z</time></trkpt><trkpt lat="45.4191735" lon="9.073285"><ele>113.0</ele><time>2026-04-11T17:07:48.003Z</time></trkpt><trkpt lat="45.4190677" lon="9.0731664"><ele>113.33333333333333</ele><time>2026-04-11T17:08:08.004Z</time></trkpt><trkpt lat="45.4189809" lon="9.0731133"><ele>113.66666666666666</ele><time>2026-04-11T17:08:10.004Z</time></trkpt><trkpt lat="45.4189008" lon="9.0730798"><ele>114.0</ele><time>2026-04-11T17:08:13.004Z</time></trkpt><trkpt lat="45.418816" lon="9.0730535"><ele>114.33333333333334</ele><time>2026-04-11T17:08:16.003Z</time></trkpt><trkpt lat="45.4187204" lon="9.0730272"><ele>114.66666666666667</ele><time>2026-04-11T17:08:18.004Z</time></trkpt><trkpt lat="45.4186538" lon="9.0730034"><ele>115.0</ele><time>2026-04-11T17:08:19.003Z</time></trkpt><trkpt lat="45.4185907" lon="9.0729665"><ele>115.0</ele><time>2026-04-11T17:08:20.004Z</time></trkpt><trkpt lat="45.4185295" lon="9.07291"><ele>115.0</ele><time>2026-04-11T17:08:21.003Z</time></trkpt><trkpt lat="45.4184596" lon="9.072867"><ele>115.0</ele><time>2026-04-11T17:08:22.003Z</time></trkpt><trkpt lat="45.4183811" lon="9.0728009"><ele>115.0</ele><time>2026-04-11T17:08:23.003Z</time></trkpt><trkpt lat="45.4182863" lon="9.0727018"><ele>115.0</ele><time>2026-04-11T17:08:24.003Z</time></trkpt><trkpt lat="45.4181879" lon="9.0726031"><ele>115.0</ele><time>2026-04-11T17:08:25.003Z</time></trkpt><trkpt lat="45.418103" lon="9.0725076"><ele>115.0</ele><time>2026-04-11T17:08:26.003Z</time></trkpt><trkpt lat="45.4180213" lon="9.0723963"><ele>115.0</ele><time>2026-04-11T17:08:27.003Z</time></trkpt><trkpt lat="45.4179382" lon="9.0722795"><ele>115.0</ele><time>2026-04-11T17:08:28.003Z</time></trkpt><trkpt lat="45.4178633" lon="9.0721727"><ele>115.0</ele><time>2026-04-11T17:08:29.003Z</time></trkpt><trkpt lat="45.4177989" lon="9.0720636"><ele>115.16666666666667</ele><time>2026-04-11T17:08:30.003Z</time></trkpt><trkpt lat="45.4177476" lon="9.0719622"><ele>115.33333333333334</ele><time>2026-04-11T17:08:31.003Z</time></trkpt><trkpt lat="45.4177057" lon="9.0718636"><ele>115.5</ele><time>2026-04-11T17:08:32.003Z</time></trkpt><trkpt lat="45.4176736" lon="9.0717709"><ele>115.66666666666666</ele><time>2026-04-11T17:08:33.003Z</time></trkpt><trkpt lat="45.4176306" lon="9.071632"><ele>115.83333333333333</ele><time>2026-04-11T17:08:35.003Z</time></trkpt><trkpt lat="45.417604" lon="9.0715434"><ele>116.0</ele><time>2026-04-11T17:09:11.003Z</time></trkpt><trkpt lat="45.4175656" lon="9.0714466"><ele>116.25</ele><time>2026-04-11T17:09:12.003Z</time></trkpt><trkpt lat="45.417535" lon="9.0713117"><ele>116.5</ele><time>2026-04-11T17:09:13.002Z</time></trkpt><trkpt lat="45.4174854" lon="9.0711303"><ele>116.75</ele><time>2026-04-11T17:09:14.003Z</time></trkpt><trkpt lat="45.4174238" lon="9.0709354"><ele>117.0</ele><time>2026-04-11T17:09:15.003Z</time></trkpt><trkpt lat="45.4173684" lon="9.0707447"><ele>117.0</ele><time>2026-04-11T17:09:16.003Z</time></trkpt><trkpt lat="45.4173239" lon="9.0705953"><ele>116.99999999999999</ele><time>2026-04-11T17:09:17.003Z</time></trkpt><trkpt lat="45.4172848" lon="9.0704561"><ele>116.99999999999999</ele><time>2026-04-11T17:09:18.003Z</time></trkpt><trkpt lat="45.4172455" lon="9.0703504"><ele>117.0</ele><time>2026-04-11T17:09:19.003Z</time></trkpt><trkpt lat="45.417208" lon="9.0702633"><ele>117.0</ele><time>2026-04-11T17:09:20.003Z</time></trkpt><trkpt lat="45.4171057" lon="9.0701763"><ele>116.19999999999999</ele><time>2026-04-11T17:09:22.003Z</time></trkpt><trkpt lat="45.4170351" lon="9.0701914"><ele>115.39999999999999</ele><time>2026-04-11T17:09:23.002Z</time></trkpt><trkpt lat="45.4169553" lon="9.0702192"><ele>114.60000000000001</ele><time>2026-04-11T17:09:24.003Z</time></trkpt><trkpt lat="45.4168708" lon="9.070287"><ele>113.80000000000001</ele><time>2026-04-11T17:09:25.003Z</time></trkpt><trkpt lat="45.4167802" lon="9.0703904"><ele>113.0</ele><time>2026-04-11T17:09:26.003Z</time></trkpt><trkpt lat="45.4166882" lon="9.0705111"><ele>113.0</ele><time>2026-04-11T17:09:27.003Z</time></trkpt><trkpt lat="45.4166024" lon="9.0706368"><ele>113.0</ele><time>2026-04-11T17:09:28.003Z</time></trkpt><trkpt lat="45.4165235" lon="9.0707577"><ele>113.0</ele><time>2026-04-11T17:09:29.003Z</time></trkpt><trkpt lat="45.416445" lon="9.0708741"><ele>113.0</ele><time>2026-04-11T17:09:30.003Z</time></trkpt><trkpt lat="45.4163718" lon="9.0709836"><ele>112.80000000000001</ele><time>2026-04-11T17:09:31.003Z</time></trkpt><trkpt lat="45.4163036" lon="9.0710721"><ele>112.60000000000001</ele><time>2026-04-11T17:09:32.003Z</time></trkpt><trkpt lat="45.4162378" lon="9.071159"><ele>112.39999999999999</ele><time>2026-04-11T17:09:33.003Z</time></trkpt><trkpt lat="45.4161713" lon="9.0712551"><ele>112.19999999999999</ele><time>2026-04-11T17:09:34.003Z</time></trkpt><trkpt lat="45.4160976" lon="9.0713556"><ele>112.0</ele><time>2026-04-11T17:09:35.003Z</time></trkpt><trkpt lat="45.4160174" lon="9.071459"><ele>112.0</ele><time>2026-04-11T17:09:36.003Z</time></trkpt><trkpt lat="45.4159328" lon="9.0715579"><ele>111.99999999999999</ele><time>2026-04-11T17:09:37.003Z</time></trkpt><trkpt lat="45.4158415" lon="9.0716439"><ele>111.99999999999999</ele><time>2026-04-11T17:09:38.003Z</time></trkpt><trkpt lat="45.4157468" lon="9.0717206"><ele>112.0</ele><time>2026-04-11T17:09:39.003Z</time></trkpt><trkpt lat="45.4156509" lon="9.0717914"><ele>112.0</ele><time>2026-04-11T17:09:40.003Z</time></trkpt><trkpt lat="45.4155631" lon="9.0718522"><ele>112.00000000000001</ele><time>2026-04-11T17:09:41.003Z</time></trkpt><trkpt lat="45.4154861" lon="9.0718979"><ele>112.0</ele><time>2026-04-11T17:09:42.003Z</time></trkpt><trkpt lat="45.4154142" lon="9.0719363"><ele>112.0</ele><time>2026-04-11T17:09:43.003Z</time></trkpt><trkpt lat="45.4153357" lon="9.0719654"><ele>112.0</ele><time>2026-04-11T17:09:44.003Z</time></trkpt><trkpt lat="45.4152462" lon="9.0720089"><ele>112.00000000000001</ele><time>2026-04-11T17:09:45.003Z</time></trkpt><trkpt lat="45.4151494" lon="9.0720424"><ele>112.0</ele><time>2026-04-11T17:09:46.003Z</time></trkpt><trkpt lat="45.4150441" lon="9.0720837"><ele>112.0</ele><time>2026-04-11T17:09:47.003Z</time></trkpt><trkpt lat="45.4149364" lon="9.0721306"><ele>112.0</ele><time>2026-04-11T17:09:48.003Z</time></trkpt><trkpt lat="45.4148195" lon="9.0721748"><ele>112.0</ele><time>2026-04-11T17:09:49.002Z</time></trkpt><trkpt lat="45.4146895" lon="9.0722212"><ele>112.0</ele><time>2026-04-11T17:09:50.003Z</time></trkpt><trkpt lat="45.4145499" lon="9.0722711"><ele>112.5</ele><time>2026-04-11T17:09:51.003Z</time></trkpt><trkpt lat="45.4144113" lon="9.0723296"><ele>113.0</ele><time>2026-04-11T17:09:52.003Z</time></trkpt><trkpt lat="45.4142731" lon="9.0723919"><ele>113.5</ele><time>2026-04-11T17:09:53.002Z</time></trkpt><trkpt lat="45.4141228" lon="9.0724569"><ele>114.0</ele><time>2026-04-11T17:09:54.003Z</time></trkpt><trkpt lat="45.4139738" lon="9.0725202"><ele>114.0</ele><time>2026-04-11T17:09:55.003Z</time></trkpt><trkpt lat="45.4138225" lon="9.0725805"><ele>114.0</ele><time>2026-04-11T17:09:56.002Z</time></trkpt><trkpt lat="45.4136839" lon="9.072637"><ele>114.0</ele><time>2026-04-11T17:09:57.003Z</time></trkpt><trkpt lat="45.4135437" lon="9.0726985"><ele>114.0</ele><time>2026-04-11T17:09:58.003Z</time></trkpt><trkpt lat="45.4133917" lon="9.0727671"><ele>112.66666666666666</ele><time>2026-04-11T17:09:59.002Z</time></trkpt><trkpt lat="45.4132311" lon="9.0728417"><ele>111.33333333333333</ele><time>2026-04-11T17:10:00.003Z</time></trkpt><trkpt lat="45.4130365" lon="9.072949"><ele>110.0</ele><time>2026-04-11T17:10:01.003Z</time></trkpt><trkpt lat="45.4128206" lon="9.0730266"><ele>109.5</ele><time>2026-04-11T17:10:02.003Z</time></trkpt><trkpt lat="45.412582" lon="9.0730697"><ele>109.0</ele><time>2026-04-11T17:10:03.003Z</time></trkpt><trkpt lat="45.4123463" lon="9.07316"><ele>109.5</ele><time>2026-04-11T17:10:04.003Z</time></trkpt><trkpt lat="45.4121201" lon="9.073264"><ele>110.0</ele><time>2026-04-11T17:10:05.003Z</time></trkpt><trkpt lat="45.411905" lon="9.0733617"><ele>109.33333333333333</ele><time>2026-04-11T17:10:06.003Z</time></trkpt><trkpt lat="45.4117024" lon="9.0734491"><ele>108.66666666666666</ele><time>2026-04-11T17:10:07.003Z</time></trkpt><trkpt lat="45.4114947" lon="9.0735304"><ele>108.0</ele><time>2026-04-11T17:10:08.003Z</time></trkpt><trkpt lat="45.4112874" lon="9.0736189"><ele>108.0</ele><time>2026-04-11T17:10:09.002Z</time></trkpt><trkpt lat="45.4110687" lon="9.0736991"><ele>108.0</ele><time>2026-04-11T17:10:10.002Z</time></trkpt><trkpt lat="45.4108411" lon="9.0737681"><ele>108.0</ele><time>2026-04-11T17:10:11.003Z</time></trkpt><trkpt lat="45.4106001" lon="9.0738318"><ele>108.0</ele><time>2026-04-11T17:10:12.003Z</time></trkpt><trkpt lat="45.4103572" lon="9.0738864"><ele>108.0</ele><time>2026-04-11T17:10:13.003Z</time></trkpt><trkpt lat="45.4101106" lon="9.0739453"><ele>108.0</ele><time>2026-04-11T17:10:14.003Z</time></trkpt><trkpt lat="45.4098638" lon="9.0740098"><ele>109.0</ele><time>2026-04-11T17:10:15.002Z</time></trkpt><trkpt lat="45.4096124" lon="9.0740744"><ele>110.0</ele><time>2026-04-11T17:10:16.003Z</time></trkpt><trkpt lat="45.4093552" lon="9.0741493"><ele>110.0</ele><time>2026-04-11T17:10:17.003Z</time></trkpt><trkpt lat="45.4090915" lon="9.0742179"><ele>110.0</ele><time>2026-04-11T17:10:18.003Z</time></trkpt><trkpt lat="45.4088283" lon="9.0742836"><ele>108.5</ele><time>2026-04-11T17:10:19.003Z</time></trkpt><trkpt lat="45.408576" lon="9.074349"><ele>107.0</ele><time>2026-04-11T17:10:20.003Z</time></trkpt><trkpt lat="45.4083343" lon="9.0744108"><ele>107.0</ele><time>2026-04-11T17:10:21.003Z</time></trkpt><trkpt lat="45.4080971" lon="9.0744807"><ele>107.0</ele><time>2026-04-11T17:10:22.003Z</time></trkpt><trkpt lat="45.4078719" lon="9.0745432"><ele>106.33333333333333</ele><time>2026-04-11T17:10:23.002Z</time></trkpt><trkpt lat="45.4076508" lon="9.0746063"><ele>105.66666666666666</ele><time>2026-04-11T17:10:24.003Z</time></trkpt><trkpt lat="45.4074351" lon="9.074665"><ele>105.0</ele><time>2026-04-11T17:10:25.003Z</time></trkpt><trkpt lat="45.4072195" lon="9.0747196"><ele>105.66666666666666</ele><time>2026-04-11T17:10:26.003Z</time></trkpt><trkpt lat="45.4070088" lon="9.0747732"><ele>106.33333333333333</ele><time>2026-04-11T17:10:27.003Z</time></trkpt><trkpt lat="45.406804" lon="9.0748299"><ele>107.0</ele><time>2026-04-11T17:10:28.002Z</time></trkpt><trkpt lat="45.406602" lon="9.0748839"><ele>107.0</ele><time>2026-04-11T17:10:29.003Z</time></trkpt><trkpt lat="45.4064102" lon="9.0749437"><ele>107.0</ele><time>2026-04-11T17:10:30.003Z</time></trkpt><trkpt lat="45.4062195" lon="9.0749954"><ele>107.0</ele><time>2026-04-11T17:10:31.003Z</time></trkpt><trkpt lat="45.4060353" lon="9.0750452"><ele>108.0</ele><time>2026-04-11T17:10:32.003Z</time></trkpt><trkpt lat="45.4058624" lon="9.0750965"><ele>109.0</ele><time>2026-04-11T17:10:33.003Z</time></trkpt><trkpt lat="45.4056921" lon="9.0751477"><ele>110.0</ele><time>2026-04-11T17:10:34.003Z</time></trkpt><trkpt lat="45.4055185" lon="9.075203"><ele>109.66666666666666</ele><time>2026-04-11T17:10:35.003Z</time></trkpt><trkpt lat="45.4053429" lon="9.0752634"><ele>109.33333333333334</ele><time>2026-04-11T17:10:36.003Z</time></trkpt><trkpt lat="45.4051727" lon="9.075341"><ele>109.0</ele><time>2026-04-11T17:10:37.003Z</time></trkpt><trkpt lat="45.4049949" lon="9.0754494"><ele>109.0</ele><time>2026-04-11T17:10:38.003Z</time></trkpt><trkpt lat="45.4048253" lon="9.0755741"><ele>109.0</ele><time>2026-04-11T17:10:39.003Z</time></trkpt><trkpt lat="45.4046678" lon="9.075709"><ele>109.0</ele><time>2026-04-11T17:10:40.003Z</time></trkpt><trkpt lat="45.4045132" lon="9.075857"><ele>110.0</ele><time>2026-04-11T17:10:41.003Z</time></trkpt><trkpt lat="45.404374" lon="9.076012"><ele>111.0</ele><time>2026-04-11T17:10:42.003Z</time></trkpt><trkpt lat="45.4042464" lon="9.0761905"><ele>112.0</ele><time>2026-04-11T17:10:43.003Z</time></trkpt><trkpt lat="45.4041243" lon="9.0763599"><ele>112.0</ele><time>2026-04-11T17:10:44.003Z</time></trkpt><trkpt lat="45.4040034" lon="9.0765338"><ele>112.0</ele><time>2026-04-11T17:10:45.003Z</time></trkpt><trkpt lat="45.4038789" lon="9.0766974"><ele>112.0</ele><time>2026-04-11T17:10:46.003Z</time></trkpt><trkpt lat="45.4037582" lon="9.0768695"><ele>111.33333333333334</ele><time>2026-04-11T17:10:47.003Z</time></trkpt><trkpt lat="45.4036337" lon="9.077034"><ele>110.66666666666666</ele><time>2026-04-11T17:10:48.003Z</time></trkpt><trkpt lat="45.4034994" lon="9.0771898"><ele>110.0</ele><time>2026-04-11T17:10:49.003Z</time></trkpt><trkpt lat="45.4033527" lon="9.0773324"><ele>110.33333333333333</ele><time>2026-04-11T17:10:50.003Z</time></trkpt><trkpt lat="45.403206" lon="9.0774708"><ele>110.66666666666666</ele><time>2026-04-11T17:10:51.003Z</time></trkpt><trkpt lat="45.4030507" lon="9.0775985"><ele>111.0</ele><time>2026-04-11T17:10:52.002Z</time></trkpt><trkpt lat="45.4028914" lon="9.0777186"><ele>111.0</ele><time>2026-04-11T17:10:53.003Z</time></trkpt><trkpt lat="45.4027326" lon="9.0778372"><ele>111.0</ele><time>2026-04-11T17:10:54.003Z</time></trkpt><trkpt lat="45.402577" lon="9.0779531"><ele>111.0</ele><time>2026-04-11T17:10:55.003Z</time></trkpt><trkpt lat="45.4024222" lon="9.0780739"><ele>111.0</ele><time>2026-04-11T17:10:56.003Z</time></trkpt><trkpt lat="45.4022684" lon="9.0782013"><ele>111.0</ele><time>2026-04-11T17:10:57.003Z</time></trkpt><trkpt lat="45.4021217" lon="9.0783159"><ele>111.0</ele><time>2026-04-11T17:10:58.003Z</time></trkpt><trkpt lat="45.401971" lon="9.07843"><ele>110.33333333333334</ele><time>2026-04-11T17:10:59.003Z</time></trkpt><trkpt lat="45.4018193" lon="9.07855"><ele>109.66666666666667</ele><time>2026-04-11T17:11:00.003Z</time></trkpt><trkpt lat="45.4016647" lon="9.0786724"><ele>109.0</ele><time>2026-04-11T17:11:01.003Z</time></trkpt><trkpt lat="45.4015054" lon="9.0787951"><ele>109.0</ele><time>2026-04-11T17:11:02.003Z</time></trkpt><trkpt lat="45.4013453" lon="9.0789207"><ele>109.0</ele><time>2026-04-11T17:11:03.003Z</time></trkpt><trkpt lat="45.4011879" lon="9.0790502"><ele>109.0</ele><time>2026-04-11T17:11:04.003Z</time></trkpt><trkpt lat="45.4010341" lon="9.0792021"><ele>109.0</ele><time>2026-04-11T17:11:05.003Z</time></trkpt><trkpt lat="45.4008829" lon="9.07937"><ele>109.0</ele><time>2026-04-11T17:11:06.002Z</time></trkpt><trkpt lat="45.4007447" lon="9.0795571"><ele>109.0</ele><time>2026-04-11T17:11:07.003Z</time></trkpt><trkpt lat="45.400609" lon="9.0797519"><ele>108.66666666666667</ele><time>2026-04-11T17:11:08.003Z</time></trkpt><trkpt lat="45.4004722" lon="9.0799487"><ele>108.33333333333334</ele><time>2026-04-11T17:11:09.003Z</time></trkpt><trkpt lat="45.4003471" lon="9.0801425"><ele>108.0</ele><time>2026-04-11T17:11:10.003Z</time></trkpt><trkpt lat="45.4002279" lon="9.0803279"><ele>108.0</ele><time>2026-04-11T17:11:11.003Z</time></trkpt><trkpt lat="45.400103" lon="9.0805091"><ele>108.0</ele><time>2026-04-11T17:11:12.003Z</time></trkpt><trkpt lat="45.3999732" lon="9.0806917"><ele>108.0</ele><time>2026-04-11T17:11:13.002Z</time></trkpt><trkpt lat="45.3998371" lon="9.0808746"><ele>107.66666666666666</ele><time>2026-04-11T17:11:14.003Z</time></trkpt><trkpt lat="45.3996942" lon="9.081048"><ele>107.33333333333333</ele><time>2026-04-11T17:11:15.003Z</time></trkpt><trkpt lat="45.3995334" lon="9.0812247"><ele>107.0</ele><time>2026-04-11T17:11:16.002Z</time></trkpt><trkpt lat="45.3993538" lon="9.0813892"><ele>106.66666666666666</ele><time>2026-04-11T17:11:17.003Z</time></trkpt><trkpt lat="45.3991731" lon="9.0815545"><ele>106.33333333333334</ele><time>2026-04-11T17:11:18.003Z</time></trkpt><trkpt lat="45.3989931" lon="9.0817064"><ele>106.0</ele><time>2026-04-11T17:11:19.003Z</time></trkpt><trkpt lat="45.3988178" lon="9.0818528"><ele>106.0</ele><time>2026-04-11T17:11:20.002Z</time></trkpt><trkpt lat="45.3986492" lon="9.0820019"><ele>106.0</ele><time>2026-04-11T17:11:21.002Z</time></trkpt><trkpt lat="45.3984775" lon="9.0821475"><ele>106.0</ele><time>2026-04-11T17:11:22.002Z</time></trkpt><trkpt lat="45.3983019" lon="9.0822975"><ele>106.33333333333334</ele><time>2026-04-11T17:11:23.002Z</time></trkpt><trkpt lat="45.3981274" lon="9.0824441"><ele>106.66666666666666</ele><time>2026-04-11T17:11:24.003Z</time></trkpt><trkpt lat="45.3979543" lon="9.0825916"><ele>107.0</ele><time>2026-04-11T17:11:25.003Z</time></trkpt><trkpt lat="45.3977816" lon="9.0827373"><ele>107.0</ele><time>2026-04-11T17:11:26.003Z</time></trkpt><trkpt lat="45.3976081" lon="9.0828885"><ele>107.0</ele><time>2026-04-11T17:11:27.003Z</time></trkpt><trkpt lat="45.3974365" lon="9.0830389"><ele>107.0</ele><time>2026-04-11T17:11:28.003Z</time></trkpt><trkpt lat="45.3972644" lon="9.08319"><ele>107.33333333333333</ele><time>2026-04-11T17:11:29.003Z</time></trkpt><trkpt lat="45.3970938" lon="9.083339"><ele>107.66666666666666</ele><time>2026-04-11T17:11:30.003Z</time></trkpt><trkpt lat="45.3969233" lon="9.0834928"><ele>108.0</ele><time>2026-04-11T17:11:31.003Z</time></trkpt><trkpt lat="45.3967533" lon="9.0836364"><ele>108.0</ele><time>2026-04-11T17:11:32.003Z</time></trkpt><trkpt lat="45.3965799" lon="9.0837862"><ele>108.0</ele><time>2026-04-11T17:11:33.003Z</time></trkpt><trkpt lat="45.39641" lon="9.0839374"><ele>108.0</ele><time>2026-04-11T17:11:34.002Z</time></trkpt><trkpt lat="45.3962327" lon="9.0840952"><ele>108.0</ele><time>2026-04-11T17:11:35.003Z</time></trkpt><trkpt lat="45.396057" lon="9.0842509"><ele>108.0</ele><time>2026-04-11T17:11:36.003Z</time></trkpt><trkpt lat="45.3958777" lon="9.084408"><ele>108.0</ele><time>2026-04-11T17:11:37.003Z</time></trkpt><trkpt lat="45.3956938" lon="9.0845651"><ele>108.0</ele><time>2026-04-11T17:11:38.003Z</time></trkpt><trkpt lat="45.3955107" lon="9.0847248"><ele>108.0</ele><time>2026-04-11T17:11:39.003Z</time></trkpt><trkpt lat="45.3953274" lon="9.084878"><ele>108.0</ele><time>2026-04-11T17:11:40.003Z</time></trkpt><trkpt lat="45.3951529" lon="9.0850329"><ele>107.33333333333334</ele><time>2026-04-11T17:11:41.003Z</time></trkpt><trkpt lat="45.3949762" lon="9.0851868"><ele>106.66666666666667</ele><time>2026-04-11T17:11:42.003Z</time></trkpt><trkpt lat="45.394801" lon="9.0853438"><ele>106.0</ele><time>2026-04-11T17:11:43.003Z</time></trkpt><trkpt lat="45.3946278" lon="9.0854957"><ele>106.0</ele><time>2026-04-11T17:11:44.002Z</time></trkpt><trkpt lat="45.3944562" lon="9.0856492"><ele>106.0</ele><time>2026-04-11T17:11:45.003Z</time></trkpt><trkpt lat="45.3942773" lon="9.0858029"><ele>106.0</ele><time>2026-04-11T17:11:46.003Z</time></trkpt><trkpt lat="45.394094" lon="9.0859613"><ele>106.0</ele><time>2026-04-11T17:11:47.002Z</time></trkpt><trkpt lat="45.3939062" lon="9.0861294"><ele>106.0</ele><time>2026-04-11T17:11:48.003Z</time></trkpt><trkpt lat="45.3937082" lon="9.086307"><ele>105.5</ele><time>2026-04-11T17:11:49.003Z</time></trkpt><trkpt lat="45.3934972" lon="9.0864957"><ele>105.0</ele><time>2026-04-11T17:11:50.003Z</time></trkpt><trkpt lat="45.3932809" lon="9.0866878"><ele>105.0</ele><time>2026-04-11T17:11:51.002Z</time></trkpt><trkpt lat="45.3930542" lon="9.0868856"><ele>105.0</ele><time>2026-04-11T17:11:52.003Z</time></trkpt><trkpt lat="45.3928231" lon="9.0870926"><ele>105.0</ele><time>2026-04-11T17:11:53.003Z</time></trkpt><trkpt lat="45.3925972" lon="9.0872932"><ele>105.0</ele><time>2026-04-11T17:11:54.003Z</time></trkpt><trkpt lat="45.3923691" lon="9.0874897"><ele>105.0</ele><time>2026-04-11T17:11:55.003Z</time></trkpt><trkpt lat="45.3921372" lon="9.0876765"><ele>105.0</ele><time>2026-04-11T17:11:56.003Z</time></trkpt><trkpt lat="45.3919049" lon="9.0878634"><ele>105.0</ele><time>2026-04-11T17:11:57.003Z</time></trkpt><trkpt lat="45.3916718" lon="9.0880425"><ele>105.0</ele><time>2026-04-11T17:11:58.003Z</time></trkpt><trkpt lat="45.3914382" lon="9.0882059"><ele>106.5</ele><time>2026-04-11T17:11:59.003Z</time></trkpt><trkpt lat="45.3911956" lon="9.0883524"><ele>108.0</ele><time>2026-04-11T17:12:00.002Z</time></trkpt><trkpt lat="45.3909559" lon="9.0884983"><ele>108.0</ele><time>2026-04-11T17:12:01.003Z</time></trkpt><trkpt lat="45.3907148" lon="9.0886464"><ele>108.0</ele><time>2026-04-11T17:12:02.003Z</time></trkpt><trkpt lat="45.3904745" lon="9.0887901"><ele>107.0</ele><time>2026-04-11T17:12:03.003Z</time></trkpt><trkpt lat="45.390232" lon="9.0889341"><ele>106.0</ele><time>2026-04-11T17:12:04.003Z</time></trkpt><trkpt lat="45.38999" lon="9.0890909"><ele>106.0</ele><time>2026-04-11T17:12:05.003Z</time></trkpt><trkpt lat="45.3897522" lon="9.0892424"><ele>106.0</ele><time>2026-04-11T17:12:06.003Z</time></trkpt><trkpt lat="45.3895105" lon="9.0893946"><ele>105.5</ele><time>2026-04-11T17:12:07.002Z</time></trkpt><trkpt lat="45.3892614" lon="9.089537"><ele>105.0</ele><time>2026-04-11T17:12:08.002Z</time></trkpt><trkpt lat="45.38901" lon="9.0896809"><ele>105.0</ele><time>2026-04-11T17:12:09.003Z</time></trkpt><trkpt lat="45.3887586" lon="9.0898193"><ele>105.0</ele><time>2026-04-11T17:12:10.003Z</time></trkpt><trkpt lat="45.3885081" lon="9.0899637"><ele>105.0</ele><time>2026-04-11T17:12:11.003Z</time></trkpt><trkpt lat="45.3882541" lon="9.0901107"><ele>105.0</ele><time>2026-04-11T17:12:12.003Z</time></trkpt><trkpt lat="45.3879939" lon="9.0902674"><ele>105.0</ele><time>2026-04-11T17:12:13.003Z</time></trkpt><trkpt lat="45.3877326" lon="9.0904203"><ele>105.0</ele><time>2026-04-11T17:12:14.002Z</time></trkpt><trkpt lat="45.3874699" lon="9.0905793"><ele>105.0</ele><time>2026-04-11T17:12:15.003Z</time></trkpt><trkpt lat="45.3872037" lon="9.0907383"><ele>105.0</ele><time>2026-04-11T17:12:16.003Z</time></trkpt><trkpt lat="45.3869437" lon="9.0909004"><ele>105.5</ele><time>2026-04-11T17:12:17.003Z</time></trkpt><trkpt lat="45.3866823" lon="9.0910568"><ele>106.0</ele><time>2026-04-11T17:12:18.003Z</time></trkpt><trkpt lat="45.3864226" lon="9.091211"><ele>105.5</ele><time>2026-04-11T17:12:19.003Z</time></trkpt><trkpt lat="45.38617" lon="9.0913646"><ele>105.0</ele><time>2026-04-11T17:12:20.003Z</time></trkpt><trkpt lat="45.3859213" lon="9.0915173"><ele>105.5</ele><time>2026-04-11T17:12:21.002Z</time></trkpt><trkpt lat="45.3856789" lon="9.0916752"><ele>106.0</ele><time>2026-04-11T17:12:22.003Z</time></trkpt><trkpt lat="45.3854369" lon="9.0918476"><ele>106.0</ele><time>2026-04-11T17:12:23.003Z</time></trkpt><trkpt lat="45.3851952" lon="9.0920293"><ele>106.0</ele><time>2026-04-11T17:12:24.003Z</time></trkpt><trkpt lat="45.3849532" lon="9.0922169"><ele>106.0</ele><time>2026-04-11T17:12:25.002Z</time></trkpt><trkpt lat="45.3847137" lon="9.0924082"><ele>106.0</ele><time>2026-04-11T17:12:26.003Z</time></trkpt><trkpt lat="45.3844724" lon="9.0926015"><ele>105.0</ele><time>2026-04-11T17:12:27.003Z</time></trkpt><trkpt lat="45.3842235" lon="9.0927969"><ele>104.0</ele><time>2026-04-11T17:12:28.003Z</time></trkpt><trkpt lat="45.3839757" lon="9.0929981"><ele>105.5</ele><time>2026-04-11T17:12:29.003Z</time></trkpt><trkpt lat="45.3837265" lon="9.0932034"><ele>107.0</ele><time>2026-04-11T17:12:30.003Z</time></trkpt><trkpt lat="45.3834818" lon="9.0934171"><ele>107.0</ele><time>2026-04-11T17:12:31.003Z</time></trkpt><trkpt lat="45.3832398" lon="9.0936455"><ele>107.0</ele><time>2026-04-11T17:12:32.003Z</time></trkpt><trkpt lat="45.3830051" lon="9.0938803"><ele>105.0</ele><time>2026-04-11T17:12:33.002Z</time></trkpt><trkpt lat="45.3827743" lon="9.0941172"><ele>103.0</ele><time>2026-04-11T17:12:34.003Z</time></trkpt><trkpt lat="45.3825543" lon="9.0943545"><ele>103.0</ele><time>2026-04-11T17:12:35.003Z</time></trkpt><trkpt lat="45.3823496" lon="9.0945729"><ele>103.0</ele><time>2026-04-11T17:12:36.003Z</time></trkpt><trkpt lat="45.3821564" lon="9.0947805"><ele>103.33333333333334</ele><time>2026-04-11T17:12:37.003Z</time></trkpt><trkpt lat="45.3819782" lon="9.094966"><ele>103.66666666666666</ele><time>2026-04-11T17:12:38.003Z</time></trkpt><trkpt lat="45.3818033" lon="9.0951404"><ele>104.0</ele><time>2026-04-11T17:12:39.003Z</time></trkpt><trkpt lat="45.381638" lon="9.0952941"><ele>104.0</ele><time>2026-04-11T17:12:40.003Z</time></trkpt><trkpt lat="45.38148" lon="9.0954405"><ele>104.0</ele><time>2026-04-11T17:12:41.003Z</time></trkpt><trkpt lat="45.381328" lon="9.0955646"><ele>104.0</ele><time>2026-04-11T17:12:42.002Z</time></trkpt><trkpt lat="45.3811786" lon="9.0956785"><ele>104.25</ele><time>2026-04-11T17:12:43.003Z</time></trkpt><trkpt lat="45.3810372" lon="9.0957858"><ele>104.5</ele><time>2026-04-11T17:12:44.003Z</time></trkpt><trkpt lat="45.3809133" lon="9.0958762"><ele>104.75</ele><time>2026-04-11T17:12:45.003Z</time></trkpt><trkpt lat="45.3808029" lon="9.0959578"><ele>105.0</ele><time>2026-04-11T17:12:46.002Z</time></trkpt><trkpt lat="45.3807051" lon="9.0960214"><ele>105.0</ele><time>2026-04-11T17:12:47.003Z</time></trkpt><trkpt lat="45.3805994" lon="9.0960379"><ele>105.0</ele><time>2026-04-11T17:12:48.003Z</time></trkpt><trkpt lat="45.380512" lon="9.0960656"><ele>105.0</ele><time>2026-04-11T17:12:49.003Z</time></trkpt><trkpt lat="45.3804314" lon="9.0961132"><ele>105.0</ele><time>2026-04-11T17:12:50.003Z</time></trkpt><trkpt lat="45.3803572" lon="9.0961935"><ele>105.0</ele><time>2026-04-11T17:12:51.003Z</time></trkpt><trkpt lat="45.3802736" lon="9.0963177"><ele>104.66666666666666</ele><time>2026-04-11T17:12:52.003Z</time></trkpt><trkpt lat="45.3801656" lon="9.0964364"><ele>104.33333333333333</ele><time>2026-04-11T17:12:53.003Z</time></trkpt><trkpt lat="45.3800113" lon="9.0965665"><ele>104.0</ele><time>2026-04-11T17:12:54.003Z</time></trkpt><trkpt lat="45.3798491" lon="9.0966931"><ele>104.33333333333333</ele><time>2026-04-11T17:12:55.003Z</time></trkpt><trkpt lat="45.3796713" lon="9.0968275"><ele>104.66666666666666</ele><time>2026-04-11T17:12:56.003Z</time></trkpt><trkpt lat="45.3794577" lon="9.0969772"><ele>105.0</ele><time>2026-04-11T17:12:57.003Z</time></trkpt><trkpt lat="45.3792387" lon="9.0971343"><ele>105.0</ele><time>2026-04-11T17:12:58.003Z</time></trkpt><trkpt lat="45.3790166" lon="9.0972958"><ele>105.0</ele><time>2026-04-11T17:12:59.003Z</time></trkpt><trkpt lat="45.3788065" lon="9.0974577"><ele>104.33333333333334</ele><time>2026-04-11T17:13:00.003Z</time></trkpt><trkpt lat="45.3786054" lon="9.0976076"><ele>103.66666666666667</ele><time>2026-04-11T17:13:01.003Z</time></trkpt><trkpt lat="45.378411" lon="9.0977517"><ele>103.0</ele><time>2026-04-11T17:13:02.003Z</time></trkpt><trkpt lat="45.3782175" lon="9.0978979"><ele>103.0</ele><time>2026-04-11T17:13:03.002Z</time></trkpt><trkpt lat="45.3780188" lon="9.0980417"><ele>103.0</ele><time>2026-04-11T17:13:04.003Z</time></trkpt><trkpt lat="45.3778176" lon="9.0981854"><ele>103.0</ele><time>2026-04-11T17:13:05.003Z</time></trkpt><trkpt lat="45.3776211" lon="9.0983363"><ele>102.5</ele><time>2026-04-11T17:13:06.003Z</time></trkpt><trkpt lat="45.3774128" lon="9.0984854"><ele>102.0</ele><time>2026-04-11T17:13:07.003Z</time></trkpt><trkpt lat="45.3772105" lon="9.0986342"><ele>102.0</ele><time>2026-04-11T17:13:08.003Z</time></trkpt><trkpt lat="45.3770121" lon="9.0987787"><ele>102.0</ele><time>2026-04-11T17:13:09.003Z</time></trkpt><trkpt lat="45.3768227" lon="9.0989199"><ele>102.0</ele><time>2026-04-11T17:13:10.003Z</time></trkpt><trkpt lat="45.3766364" lon="9.0990516"><ele>102.0</ele><time>2026-04-11T17:13:11.003Z</time></trkpt><trkpt lat="45.3764557" lon="9.0991902"><ele>102.0</ele><time>2026-04-11T17:13:12.003Z</time></trkpt><trkpt lat="45.3762733" lon="9.0993176"><ele>102.0</ele><time>2026-04-11T17:13:13.003Z</time></trkpt><trkpt lat="45.3760908" lon="9.0994572"><ele>101.5</ele><time>2026-04-11T17:13:14.002Z</time></trkpt><trkpt lat="45.3758926" lon="9.0996161"><ele>101.0</ele><time>2026-04-11T17:13:15.002Z</time></trkpt><trkpt lat="45.3756717" lon="9.0997863"><ele>102.0</ele><time>2026-04-11T17:13:16.003Z</time></trkpt><trkpt lat="45.3754419" lon="9.0999651"><ele>103.0</ele><time>2026-04-11T17:13:17.003Z</time></trkpt><trkpt lat="45.3751882" lon="9.1001459"><ele>103.0</ele><time>2026-04-11T17:13:18.003Z</time></trkpt><trkpt lat="45.3749443" lon="9.100335"><ele>103.0</ele><time>2026-04-11T17:13:19.003Z</time></trkpt><trkpt lat="45.3747056" lon="9.1005364"><ele>101.5</ele><time>2026-04-11T17:13:20.003Z</time></trkpt><trkpt lat="45.3744787" lon="9.1007534"><ele>100.0</ele><time>2026-04-11T17:13:21.003Z</time></trkpt><trkpt lat="45.3742562" lon="9.1009752"><ele>100.0</ele><time>2026-04-11T17:13:22.003Z</time></trkpt><trkpt lat="45.3740465" lon="9.1011934"><ele>100.0</ele><time>2026-04-11T17:13:23.003Z</time></trkpt><trkpt lat="45.373847" lon="9.1014018"><ele>100.0</ele><time>2026-04-11T17:13:24.003Z</time></trkpt><trkpt lat="45.3736509" lon="9.101598"><ele>100.0</ele><time>2026-04-11T17:13:25.003Z</time></trkpt><trkpt lat="45.3734655" lon="9.1017991"><ele>100.0</ele><time>2026-04-11T17:13:26.003Z</time></trkpt><trkpt lat="45.3732759" lon="9.1019957"><ele>100.0</ele><time>2026-04-11T17:13:27.003Z</time></trkpt><trkpt lat="45.3730853" lon="9.1021951"><ele>100.5</ele><time>2026-04-11T17:13:28.002Z</time></trkpt><trkpt lat="45.372896" lon="9.102396"><ele>101.0</ele><time>2026-04-11T17:13:29.003Z</time></trkpt><trkpt lat="45.3727074" lon="9.1025973"><ele>101.0</ele><time>2026-04-11T17:13:30.003Z</time></trkpt><trkpt lat="45.3725176" lon="9.1027962"><ele>101.0</ele><time>2026-04-11T17:13:31.003Z</time></trkpt><trkpt lat="45.3723238" lon="9.1029963"><ele>101.0</ele><time>2026-04-11T17:13:32.003Z</time></trkpt><trkpt lat="45.3721314" lon="9.1031938"><ele>101.0</ele><time>2026-04-11T17:13:33.002Z</time></trkpt><trkpt lat="45.3719393" lon="9.1033967"><ele>101.0</ele><time>2026-04-11T17:13:34.003Z</time></trkpt><trkpt lat="45.3717523" lon="9.1035924"><ele>101.0</ele><time>2026-04-11T17:13:35.003Z</time></trkpt><trkpt lat="45.3715693" lon="9.1037863"><ele>101.0</ele><time>2026-04-11T17:13:36.003Z</time></trkpt><trkpt lat="45.3713945" lon="9.1039663"><ele>101.0</ele><time>2026-04-11T17:13:37.003Z</time></trkpt><trkpt lat="45.371228" lon="9.1041429"><ele>101.0</ele><time>2026-04-11T17:13:38.003Z</time></trkpt><trkpt lat="45.3710617" lon="9.1043188"><ele>101.33333333333333</ele><time>2026-04-11T17:13:39.003Z</time></trkpt><trkpt lat="45.3708933" lon="9.1044939"><ele>101.66666666666666</ele><time>2026-04-11T17:13:40.003Z</time></trkpt><trkpt lat="45.3707257" lon="9.1046705"><ele>102.0</ele><time>2026-04-11T17:13:41.003Z</time></trkpt><trkpt lat="45.3705567" lon="9.1048464"><ele>102.0</ele><time>2026-04-11T17:13:42.003Z</time></trkpt><trkpt lat="45.3703873" lon="9.1050257"><ele>102.0</ele><time>2026-04-11T17:13:43.003Z</time></trkpt><trkpt lat="45.3702127" lon="9.1052063"><ele>102.0</ele><time>2026-04-11T17:13:44.003Z</time></trkpt><trkpt lat="45.3700416" lon="9.105385"><ele>102.0</ele><time>2026-04-11T17:13:45.003Z</time></trkpt><trkpt lat="45.3698749" lon="9.1055599"><ele>102.0</ele><time>2026-04-11T17:13:46.003Z</time></trkpt><trkpt lat="45.3697138" lon="9.1057292"><ele>102.0</ele><time>2026-04-11T17:13:47.003Z</time></trkpt><trkpt lat="45.3695603" lon="9.1058883"><ele>101.66666666666666</ele><time>2026-04-11T17:13:48.003Z</time></trkpt><trkpt lat="45.3694131" lon="9.1060426"><ele>101.33333333333333</ele><time>2026-04-11T17:13:49.003Z</time></trkpt><trkpt lat="45.3692712" lon="9.1061887"><ele>101.0</ele><time>2026-04-11T17:13:50.003Z</time></trkpt><trkpt lat="45.3691298" lon="9.1063331"><ele>101.0</ele><time>2026-04-11T17:13:51.003Z</time></trkpt><trkpt lat="45.3689916" lon="9.1064744"><ele>101.0</ele><time>2026-04-11T17:13:52.002Z</time></trkpt><trkpt lat="45.3688615" lon="9.1066124"><ele>101.0</ele><time>2026-04-11T17:13:53.003Z</time></trkpt><trkpt lat="45.3687379" lon="9.1067412"><ele>101.0</ele><time>2026-04-11T17:13:54.003Z</time></trkpt><trkpt lat="45.3686194" lon="9.1068648"><ele>101.0</ele><time>2026-04-11T17:13:55.003Z</time></trkpt><trkpt lat="45.368505" lon="9.1069855"><ele>101.0</ele><time>2026-04-11T17:13:56.003Z</time></trkpt><trkpt lat="45.3683965" lon="9.1071032"><ele>101.0</ele><time>2026-04-11T17:13:57.003Z</time></trkpt><trkpt lat="45.368283" lon="9.1072249"><ele>101.0</ele><time>2026-04-11T17:13:58.003Z</time></trkpt><trkpt lat="45.3681551" lon="9.1073585"><ele>101.0</ele><time>2026-04-11T17:13:59.003Z</time></trkpt><trkpt lat="45.3680195" lon="9.107498"><ele>101.0</ele><time>2026-04-11T17:14:00.002Z</time></trkpt><trkpt lat="45.3678837" lon="9.1076434"><ele>101.0</ele><time>2026-04-11T17:14:01.003Z</time></trkpt><trkpt lat="45.3677548" lon="9.1077757"><ele>101.0</ele><time>2026-04-11T17:14:02.003Z</time></trkpt><trkpt lat="45.3676255" lon="9.1079082"><ele>101.0</ele><time>2026-04-11T17:14:03.003Z</time></trkpt><trkpt lat="45.3674927" lon="9.1080484"><ele>101.0</ele><time>2026-04-11T17:14:04.003Z</time></trkpt><trkpt lat="45.3673609" lon="9.1081889"><ele>101.0</ele><time>2026-04-11T17:14:05.003Z</time></trkpt><trkpt lat="45.3672351" lon="9.1083204"><ele>101.0</ele><time>2026-04-11T17:14:06.003Z</time></trkpt><trkpt lat="45.3671143" lon="9.1084423"><ele>101.0</ele><time>2026-04-11T17:14:07.003Z</time></trkpt><trkpt lat="45.3670012" lon="9.1085613"><ele>101.0</ele><time>2026-04-11T17:14:08.002Z</time></trkpt><trkpt lat="45.3668897" lon="9.108677"><ele>101.0</ele><time>2026-04-11T17:14:09.003Z</time></trkpt><trkpt lat="45.3667797" lon="9.108796"><ele>101.0</ele><time>2026-04-11T17:14:10.003Z</time></trkpt><trkpt lat="45.3666699" lon="9.1089109"><ele>101.0</ele><time>2026-04-11T17:14:11.003Z</time></trkpt><trkpt lat="45.3665669" lon="9.1090212"><ele>101.0</ele><time>2026-04-11T17:14:12.003Z</time></trkpt><trkpt lat="45.3664638" lon="9.1091162"><ele>101.0</ele><time>2026-04-11T17:14:13.003Z</time></trkpt><trkpt lat="45.3663664" lon="9.1092116"><ele>101.0</ele><time>2026-04-11T17:14:14.003Z</time></trkpt><trkpt lat="45.3662695" lon="9.1092975"><ele>100.8</ele><time>2026-04-11T17:14:15.003Z</time></trkpt><trkpt lat="45.3661705" lon="9.1093644"><ele>100.6</ele><time>2026-04-11T17:14:16.003Z</time></trkpt><trkpt lat="45.3660779" lon="9.1094124"><ele>100.4</ele><time>2026-04-11T17:14:17.003Z</time></trkpt><trkpt lat="45.3659865" lon="9.10944"><ele>100.2</ele><time>2026-04-11T17:14:18.003Z</time></trkpt><trkpt lat="45.3658946" lon="9.1094678"><ele>100.0</ele><time>2026-04-11T17:14:19.003Z</time></trkpt><trkpt lat="45.3657985" lon="9.1094977"><ele>100.0</ele><time>2026-04-11T17:14:20.003Z</time></trkpt><trkpt lat="45.365693" lon="9.1095449"><ele>100.0</ele><time>2026-04-11T17:14:21.002Z</time></trkpt><trkpt lat="45.3655814" lon="9.1096074"><ele>100.0</ele><time>2026-04-11T17:14:22.003Z</time></trkpt><trkpt lat="45.3654637" lon="9.1096693"><ele>100.0</ele><time>2026-04-11T17:14:23.002Z</time></trkpt><trkpt lat="45.3653465" lon="9.1096831"><ele>100.0</ele><time>2026-04-11T17:14:24.003Z</time></trkpt><trkpt lat="45.3652314" lon="9.1096758"><ele>100.0</ele><time>2026-04-11T17:14:25.003Z</time></trkpt><trkpt lat="45.3651145" lon="9.1096618"><ele>100.0</ele><time>2026-04-11T17:14:26.002Z</time></trkpt><trkpt lat="45.3650129" lon="9.1096446"><ele>100.0</ele><time>2026-04-11T17:14:27.003Z</time></trkpt><trkpt lat="45.3649142" lon="9.1096276"><ele>100.0</ele><time>2026-04-11T17:14:28.003Z</time></trkpt><trkpt lat="45.3648149" lon="9.1096071"><ele>100.0</ele><time>2026-04-11T17:14:29.002Z</time></trkpt><trkpt lat="45.3647192" lon="9.1095886"><ele>100.0</ele><time>2026-04-11T17:14:30.003Z</time></trkpt><trkpt lat="45.3646211" lon="9.1095696"><ele>100.0</ele><time>2026-04-11T17:14:31.003Z</time></trkpt><trkpt lat="45.3645237" lon="9.1095547"><ele>100.0</ele><time>2026-04-11T17:14:32.003Z</time></trkpt><trkpt lat="45.3644276" lon="9.1095313"><ele>100.0</ele><time>2026-04-11T17:14:33.003Z</time></trkpt><trkpt lat="45.3643338" lon="9.1095125"><ele>100.0</ele><time>2026-04-11T17:14:34.003Z</time></trkpt><trkpt lat="45.3642415" lon="9.1094996"><ele>100.0</ele><time>2026-04-11T17:14:35.002Z</time></trkpt><trkpt lat="45.3641418" lon="9.1094903"><ele>100.0</ele><time>2026-04-11T17:14:36.003Z</time></trkpt><trkpt lat="45.3640477" lon="9.1094786"><ele>100.0</ele><time>2026-04-11T17:14:37.003Z</time></trkpt><trkpt lat="45.3639532" lon="9.1094609"><ele>100.0</ele><time>2026-04-11T17:14:38.003Z</time></trkpt><trkpt lat="45.3638543" lon="9.1094505"><ele>100.4</ele><time>2026-04-11T17:14:39.002Z</time></trkpt><trkpt lat="45.3637531" lon="9.1094318"><ele>100.8</ele><time>2026-04-11T17:14:40.003Z</time></trkpt><trkpt lat="45.3636492" lon="9.1094222"><ele>101.19999999999999</ele><time>2026-04-11T17:14:41.003Z</time></trkpt><trkpt lat="45.3635432" lon="9.1094172"><ele>101.6</ele><time>2026-04-11T17:14:42.003Z</time></trkpt><trkpt lat="45.3634329" lon="9.1094057"><ele>102.0</ele><time>2026-04-11T17:14:43.003Z</time></trkpt><trkpt lat="45.363312" lon="9.1093873"><ele>102.0</ele><time>2026-04-11T17:14:44.003Z</time></trkpt><trkpt lat="45.3631758" lon="9.1093655"><ele>102.0</ele><time>2026-04-11T17:14:45.003Z</time></trkpt><trkpt lat="45.3630239" lon="9.1093525"><ele>102.0</ele><time>2026-04-11T17:14:46.003Z</time></trkpt><trkpt lat="45.3628758" lon="9.1093434"><ele>102.0</ele><time>2026-04-11T17:14:47.002Z</time></trkpt><trkpt lat="45.3627349" lon="9.109342"><ele>101.75</ele><time>2026-04-11T17:14:48.003Z</time></trkpt><trkpt lat="45.3625931" lon="9.1093463"><ele>101.5</ele><time>2026-04-11T17:14:49.002Z</time></trkpt><trkpt lat="45.3624638" lon="9.1093566"><ele>101.25</ele><time>2026-04-11T17:14:50.003Z</time></trkpt><trkpt lat="45.362343" lon="9.1093751"><ele>101.0</ele><time>2026-04-11T17:14:51.003Z</time></trkpt><trkpt lat="45.3622317" lon="9.1093834"><ele>100.99999999999999</ele><time>2026-04-11T17:14:52.003Z</time></trkpt><trkpt lat="45.3621344" lon="9.109405"><ele>101.0</ele><time>2026-04-11T17:14:53.003Z</time></trkpt><trkpt lat="45.3620486" lon="9.109431"><ele>101.0</ele><time>2026-04-11T17:14:54.003Z</time></trkpt><trkpt lat="45.3619725" lon="9.1094373"><ele>101.0</ele><time>2026-04-11T17:14:55.003Z</time></trkpt><trkpt lat="45.3619102" lon="9.1093929"><ele>100.99999999999999</ele><time>2026-04-11T17:14:56.002Z</time></trkpt><trkpt lat="45.3618723" lon="9.1093111"><ele>101.0</ele><time>2026-04-11T17:14:57.003Z</time></trkpt><trkpt lat="45.3618451" lon="9.1091867"><ele>100.8</ele><time>2026-04-11T17:14:58.003Z</time></trkpt><trkpt lat="45.3618239" lon="9.1090321"><ele>100.6</ele><time>2026-04-11T17:14:59.003Z</time></trkpt><trkpt lat="45.3618065" lon="9.1088747"><ele>100.4</ele><time>2026-04-11T17:15:00.003Z</time></trkpt><trkpt lat="45.3617715" lon="9.1087697"><ele>100.2</ele><time>2026-04-11T17:15:01.003Z</time></trkpt><trkpt lat="45.3617341" lon="9.1086891"><ele>100.0</ele><time>2026-04-11T17:15:02.002Z</time></trkpt><trkpt lat="45.3616831" lon="9.1085971"><ele>100.0</ele><time>2026-04-11T17:15:03.003Z</time></trkpt><trkpt lat="45.3616182" lon="9.1085017"><ele>100.0</ele><time>2026-04-11T17:15:04.002Z</time></trkpt><trkpt lat="45.3615624" lon="9.108428"><ele>100.0</ele><time>2026-04-11T17:15:05.002Z</time></trkpt><trkpt lat="45.3615091" lon="9.1083403"><ele>100.0</ele><time>2026-04-11T17:15:07.003Z</time></trkpt><trkpt lat="45.3614387" lon="9.1082884"><ele>100.0</ele><time>2026-04-11T17:19:37.003Z</time></trkpt><trkpt lat="45.3613255" lon="9.1081765"><ele>100.00000000000001</ele><time>2026-04-11T17:19:39.001Z</time></trkpt><trkpt lat="45.3612585" lon="9.1081069"><ele>100.0</ele><time>2026-04-11T17:19:40.002Z</time></trkpt><trkpt lat="45.3611898" lon="9.1080322"><ele>100.0</ele><time>2026-04-11T17:19:41.001Z</time></trkpt><trkpt lat="45.3611261" lon="9.1079538"><ele>100.0</ele><time>2026-04-11T17:19:42.002Z</time></trkpt><trkpt lat="45.3610608" lon="9.107871"><ele>100.00000000000001</ele><time>2026-04-11T17:19:43.002Z</time></trkpt><trkpt lat="45.3609957" lon="9.1077876"><ele>100.0</ele><time>2026-04-11T17:19:44.002Z</time></trkpt><trkpt lat="45.3609245" lon="9.1076891"><ele>100.0</ele><time>2026-04-11T17:19:45.002Z</time></trkpt><trkpt lat="45.3608482" lon="9.1075981"><ele>100.0</ele><time>2026-04-11T17:19:46.002Z</time></trkpt><trkpt lat="45.3607663" lon="9.1075047"><ele>100.0</ele><time>2026-04-11T17:19:47.002Z</time></trkpt><trkpt lat="45.3606902" lon="9.1074237"><ele>100.0</ele><time>2026-04-11T17:19:48.002Z</time></trkpt><trkpt lat="45.3606199" lon="9.1073478"><ele>100.0</ele><time>2026-04-11T17:19:49.002Z</time></trkpt><trkpt lat="45.3605544" lon="9.1072761"><ele>100.16666666666667</ele><time>2026-04-11T17:19:50.002Z</time></trkpt><trkpt lat="45.3604817" lon="9.1072017"><ele>100.33333333333334</ele><time>2026-04-11T17:19:51.002Z</time></trkpt><trkpt lat="45.3604102" lon="9.1071341"><ele>100.5</ele><time>2026-04-11T17:19:52.002Z</time></trkpt><trkpt lat="45.3603448" lon="9.1070625"><ele>100.66666666666666</ele><time>2026-04-11T17:19:53.002Z</time></trkpt><trkpt lat="45.3602859" lon="9.1069968"><ele>100.83333333333333</ele><time>2026-04-11T17:19:54.002Z</time></trkpt><trkpt lat="45.3602396" lon="9.1069326"><ele>101.0</ele><time>2026-04-11T17:19:55.002Z</time></trkpt><trkpt lat="45.3601736" lon="9.1068016"><ele>100.99999999999999</ele><time>2026-04-11T17:19:57.002Z</time></trkpt><trkpt lat="45.3601273" lon="9.1066695"><ele>101.0</ele><time>2026-04-11T17:19:59.002Z</time></trkpt><trkpt lat="45.3600979" lon="9.1065185"><ele>101.0</ele><time>2026-04-11T17:20:01.002Z</time></trkpt><trkpt lat="45.3600869" lon="9.1064301"><ele>101.0</ele><time>2026-04-11T17:20:02.001Z</time></trkpt><trkpt lat="45.3600755" lon="9.1063256"><ele>100.99999999999999</ele><time>2026-04-11T17:20:03.002Z</time></trkpt><trkpt lat="45.3600641" lon="9.1062087"><ele>101.0</ele><time>2026-04-11T17:20:04.002Z</time></trkpt><trkpt lat="45.360057" lon="9.1060948"><ele>101.16666666666666</ele><time>2026-04-11T17:20:05.002Z</time></trkpt><trkpt lat="45.3600528" lon="9.1059793"><ele>101.33333333333333</ele><time>2026-04-11T17:20:06.002Z</time></trkpt><trkpt lat="45.360047" lon="9.1058816"><ele>101.5</ele><time>2026-04-11T17:20:07.002Z</time></trkpt><trkpt lat="45.3600364" lon="9.1057435"><ele>101.66666666666666</ele><time>2026-04-11T17:20:09.002Z</time></trkpt><trkpt lat="45.3600278" lon="9.1056264"><ele>101.83333333333333</ele><time>2026-04-11T17:20:11.002Z</time></trkpt><trkpt lat="45.3600546" lon="9.1055368"><ele>102.0</ele><time>2026-04-11T17:20:13.002Z</time></trkpt><trkpt lat="45.3601085" lon="9.105481"><ele>100.0</ele><time>2026-04-11T17:20:15.001Z</time></trkpt></trkseg></trk></gpx>